<?xml version="1.0" encoding="UTF-8" standalone="no" ?>
<gpx xmlns="http://www.topografix.com/GPX/1/1" xmlns:xsi="http://www.w3.org/2001/XMLSchema-instance" xsi:schemaLocation="http://www.topografix.com/GPX/1/1 http://www.topografix.com/GPX/1/1/gpx.xsd" version="1.1" creator="VisuGPX - https://www.visugpx.com">
  <metadata>
    <name>Montbrun-poet en percip-Aulan-Montbrun</name>
    <desc><![CDATA[Très beau parcours. ]]></desc>
  </metadata>
  <trk>
    <name><![CDATA[Trace 1778670160000]]></name>
    <trkseg>
      <trkpt lat="44.17236" lon="5.44936">
        <ele>686</ele>
        <time>2026-05-13T11:02:40.000Z</time>
      </trkpt>
      <trkpt lat="44.17236" lon="5.44936">
        <ele>686</ele>
        <time>2026-05-13T11:02:41.000Z</time>
      </trkpt>
      <trkpt lat="44.17236" lon="5.44936">
        <ele>686</ele>
        <time>2026-05-13T11:02:42.000Z</time>
      </trkpt>
      <trkpt lat="44.17236" lon="5.44936">
        <ele>686</ele>
        <time>2026-05-13T11:02:43.000Z</time>
      </trkpt>
      <trkpt lat="44.17236" lon="5.44936">
        <ele>686</ele>
        <time>2026-05-13T11:02:44.000Z</time>
      </trkpt>
      <trkpt lat="44.17236" lon="5.44936">
        <ele>686</ele>
        <time>2026-05-13T11:02:45.000Z</time>
      </trkpt>
      <trkpt lat="44.17236" lon="5.44936">
        <ele>686</ele>
        <time>2026-05-13T11:02:46.000Z</time>
      </trkpt>
      <trkpt lat="44.17236" lon="5.44936">
        <ele>686</ele>
        <time>2026-05-13T11:02:47.000Z</time>
      </trkpt>
      <trkpt lat="44.17236" lon="5.44936">
        <ele>686</ele>
        <time>2026-05-13T11:02:48.000Z</time>
      </trkpt>
      <trkpt lat="44.17236" lon="5.44936">
        <ele>686</ele>
        <time>2026-05-13T11:02:49.000Z</time>
      </trkpt>
      <trkpt lat="44.17236" lon="5.44936">
        <ele>686</ele>
        <time>2026-05-13T11:02:50.000Z</time>
      </trkpt>
      <trkpt lat="44.17236" lon="5.44936">
        <ele>686</ele>
        <time>2026-05-13T11:02:51.000Z</time>
      </trkpt>
      <trkpt lat="44.17236" lon="5.44936">
        <ele>686</ele>
        <time>2026-05-13T11:02:52.000Z</time>
      </trkpt>
      <trkpt lat="44.17236" lon="5.44936">
        <ele>686</ele>
        <time>2026-05-13T11:02:53.000Z</time>
      </trkpt>
      <trkpt lat="44.17236" lon="5.44936">
        <ele>686</ele>
        <time>2026-05-13T11:02:54.000Z</time>
      </trkpt>
      <trkpt lat="44.17236" lon="5.44936">
        <ele>686</ele>
        <time>2026-05-13T11:02:55.000Z</time>
      </trkpt>
      <trkpt lat="44.17236" lon="5.44936">
        <ele>686</ele>
        <time>2026-05-13T11:02:56.000Z</time>
      </trkpt>
      <trkpt lat="44.17236" lon="5.44936">
        <ele>686</ele>
        <time>2026-05-13T11:02:57.000Z</time>
      </trkpt>
      <trkpt lat="44.17236" lon="5.44936">
        <ele>686</ele>
        <time>2026-05-13T11:02:58.000Z</time>
      </trkpt>
      <trkpt lat="44.17236" lon="5.44936">
        <ele>686</ele>
        <time>2026-05-13T11:02:59.000Z</time>
      </trkpt>
      <trkpt lat="44.17236" lon="5.44936">
        <ele>686</ele>
        <time>2026-05-13T11:03:00.000Z</time>
      </trkpt>
      <trkpt lat="44.17236" lon="5.44936">
        <ele>686</ele>
        <time>2026-05-13T11:03:01.000Z</time>
      </trkpt>
      <trkpt lat="44.17236" lon="5.44936">
        <ele>686</ele>
        <time>2026-05-13T11:03:02.000Z</time>
      </trkpt>
      <trkpt lat="44.17236" lon="5.44936">
        <ele>686</ele>
        <time>2026-05-13T11:03:03.000Z</time>
      </trkpt>
      <trkpt lat="44.17236" lon="5.44936">
        <ele>686</ele>
        <time>2026-05-13T11:03:04.000Z</time>
      </trkpt>
      <trkpt lat="44.17236" lon="5.44936">
        <ele>686</ele>
        <time>2026-05-13T11:03:05.000Z</time>
      </trkpt>
      <trkpt lat="44.17236" lon="5.44936">
        <ele>686</ele>
        <time>2026-05-13T11:03:06.000Z</time>
      </trkpt>
      <trkpt lat="44.17236" lon="5.44936">
        <ele>686</ele>
        <time>2026-05-13T11:03:07.000Z</time>
      </trkpt>
      <trkpt lat="44.17236" lon="5.44936">
        <ele>686</ele>
        <time>2026-05-13T11:03:08.000Z</time>
      </trkpt>
      <trkpt lat="44.17236" lon="5.44936">
        <ele>686</ele>
        <time>2026-05-13T11:03:09.000Z</time>
      </trkpt>
      <trkpt lat="44.17236" lon="5.44936">
        <ele>686</ele>
        <time>2026-05-13T11:03:10.000Z</time>
      </trkpt>
      <trkpt lat="44.17236" lon="5.44936">
        <ele>686</ele>
        <time>2026-05-13T11:03:11.000Z</time>
      </trkpt>
      <trkpt lat="44.17236" lon="5.44936">
        <ele>686</ele>
        <time>2026-05-13T11:03:12.000Z</time>
      </trkpt>
      <trkpt lat="44.17236" lon="5.44936">
        <ele>686</ele>
        <time>2026-05-13T11:03:13.000Z</time>
      </trkpt>
      <trkpt lat="44.17236" lon="5.44936">
        <ele>686</ele>
        <time>2026-05-13T11:03:14.000Z</time>
      </trkpt>
      <trkpt lat="44.17236" lon="5.44936">
        <ele>686</ele>
        <time>2026-05-13T11:03:15.000Z</time>
      </trkpt>
      <trkpt lat="44.17236" lon="5.44936">
        <ele>686</ele>
        <time>2026-05-13T11:03:16.000Z</time>
      </trkpt>
      <trkpt lat="44.17236" lon="5.44936">
        <ele>686</ele>
        <time>2026-05-13T11:03:17.000Z</time>
      </trkpt>
      <trkpt lat="44.17236" lon="5.44936">
        <ele>686</ele>
        <time>2026-05-13T11:03:18.000Z</time>
      </trkpt>
      <trkpt lat="44.17236" lon="5.44936">
        <ele>686</ele>
        <time>2026-05-13T11:03:19.000Z</time>
      </trkpt>
      <trkpt lat="44.17236" lon="5.44936">
        <ele>686</ele>
        <time>2026-05-13T11:03:20.000Z</time>
      </trkpt>
      <trkpt lat="44.17236" lon="5.44936">
        <ele>686</ele>
        <time>2026-05-13T11:03:21.000Z</time>
      </trkpt>
      <trkpt lat="44.17236" lon="5.44936">
        <ele>686</ele>
        <time>2026-05-13T11:03:22.000Z</time>
      </trkpt>
      <trkpt lat="44.17236" lon="5.44936">
        <ele>686</ele>
        <time>2026-05-13T11:03:23.000Z</time>
      </trkpt>
      <trkpt lat="44.17236" lon="5.44936">
        <ele>686</ele>
        <time>2026-05-13T11:03:24.000Z</time>
      </trkpt>
      <trkpt lat="44.17236" lon="5.44936">
        <ele>686</ele>
        <time>2026-05-13T11:03:25.000Z</time>
      </trkpt>
      <trkpt lat="44.17236" lon="5.44936">
        <ele>686</ele>
        <time>2026-05-13T11:03:26.000Z</time>
      </trkpt>
      <trkpt lat="44.17236" lon="5.44936">
        <ele>686</ele>
        <time>2026-05-13T11:03:27.000Z</time>
      </trkpt>
      <trkpt lat="44.17236" lon="5.44936">
        <ele>686</ele>
        <time>2026-05-13T11:03:28.000Z</time>
      </trkpt>
      <trkpt lat="44.17236" lon="5.44936">
        <ele>686</ele>
        <time>2026-05-13T11:03:29.000Z</time>
      </trkpt>
      <trkpt lat="44.17236" lon="5.44936">
        <ele>686</ele>
        <time>2026-05-13T11:03:30.000Z</time>
      </trkpt>
      <trkpt lat="44.17236" lon="5.44936">
        <ele>686</ele>
        <time>2026-05-13T11:03:31.000Z</time>
      </trkpt>
      <trkpt lat="44.17236" lon="5.44936">
        <ele>686</ele>
        <time>2026-05-13T11:03:32.000Z</time>
      </trkpt>
      <trkpt lat="44.17236" lon="5.44936">
        <ele>686</ele>
        <time>2026-05-13T11:03:33.000Z</time>
      </trkpt>
      <trkpt lat="44.17236" lon="5.44936">
        <ele>686</ele>
        <time>2026-05-13T11:03:34.000Z</time>
      </trkpt>
      <trkpt lat="44.17236" lon="5.44936">
        <ele>686</ele>
        <time>2026-05-13T11:03:35.000Z</time>
      </trkpt>
      <trkpt lat="44.17236" lon="5.44936">
        <ele>686</ele>
        <time>2026-05-13T11:03:36.000Z</time>
      </trkpt>
      <trkpt lat="44.17236" lon="5.44936">
        <ele>686</ele>
        <time>2026-05-13T11:03:37.000Z</time>
      </trkpt>
      <trkpt lat="44.17236" lon="5.44936">
        <ele>686</ele>
        <time>2026-05-13T11:03:38.000Z</time>
      </trkpt>
      <trkpt lat="44.17236" lon="5.44936">
        <ele>686</ele>
        <time>2026-05-13T11:03:39.000Z</time>
      </trkpt>
      <trkpt lat="44.17236" lon="5.44936">
        <ele>686</ele>
        <time>2026-05-13T11:03:40.000Z</time>
      </trkpt>
      <trkpt lat="44.17236" lon="5.44936">
        <ele>686</ele>
        <time>2026-05-13T11:03:41.000Z</time>
      </trkpt>
      <trkpt lat="44.17236" lon="5.44936">
        <ele>686</ele>
        <time>2026-05-13T11:03:42.000Z</time>
      </trkpt>
      <trkpt lat="44.17236" lon="5.44936">
        <ele>686</ele>
        <time>2026-05-13T11:03:43.000Z</time>
      </trkpt>
      <trkpt lat="44.17236" lon="5.44936">
        <ele>686</ele>
        <time>2026-05-13T11:03:44.000Z</time>
      </trkpt>
      <trkpt lat="44.17236" lon="5.44936">
        <ele>686</ele>
        <time>2026-05-13T11:03:45.000Z</time>
      </trkpt>
      <trkpt lat="44.17236" lon="5.44936">
        <ele>686</ele>
        <time>2026-05-13T11:03:46.000Z</time>
      </trkpt>
      <trkpt lat="44.17236" lon="5.44936">
        <ele>686</ele>
        <time>2026-05-13T11:03:47.000Z</time>
      </trkpt>
      <trkpt lat="44.17236" lon="5.44936">
        <ele>686</ele>
        <time>2026-05-13T11:03:48.000Z</time>
      </trkpt>
      <trkpt lat="44.17236" lon="5.44936">
        <ele>686</ele>
        <time>2026-05-13T11:03:49.000Z</time>
      </trkpt>
      <trkpt lat="44.17236" lon="5.44936">
        <ele>686</ele>
        <time>2026-05-13T11:03:50.000Z</time>
      </trkpt>
      <trkpt lat="44.17236" lon="5.44936">
        <ele>686</ele>
        <time>2026-05-13T11:03:51.000Z</time>
      </trkpt>
      <trkpt lat="44.17236" lon="5.44936">
        <ele>686</ele>
        <time>2026-05-13T11:03:52.000Z</time>
      </trkpt>
      <trkpt lat="44.17236" lon="5.44936">
        <ele>686</ele>
        <time>2026-05-13T11:03:53.000Z</time>
      </trkpt>
      <trkpt lat="44.17236" lon="5.44936">
        <ele>686</ele>
        <time>2026-05-13T11:03:54.000Z</time>
      </trkpt>
      <trkpt lat="44.17236" lon="5.44936">
        <ele>686</ele>
        <time>2026-05-13T11:03:55.000Z</time>
      </trkpt>
      <trkpt lat="44.17236" lon="5.44936">
        <ele>686</ele>
        <time>2026-05-13T11:03:56.000Z</time>
      </trkpt>
      <trkpt lat="44.17236" lon="5.44936">
        <ele>686</ele>
        <time>2026-05-13T11:03:57.000Z</time>
      </trkpt>
      <trkpt lat="44.17236" lon="5.44936">
        <ele>686</ele>
        <time>2026-05-13T11:03:58.000Z</time>
      </trkpt>
      <trkpt lat="44.17236" lon="5.44936">
        <ele>686</ele>
        <time>2026-05-13T11:03:59.000Z</time>
      </trkpt>
      <trkpt lat="44.17236" lon="5.44936">
        <ele>686</ele>
        <time>2026-05-13T11:04:00.000Z</time>
      </trkpt>
      <trkpt lat="44.17236" lon="5.44936">
        <ele>686</ele>
        <time>2026-05-13T11:04:01.000Z</time>
      </trkpt>
      <trkpt lat="44.17236" lon="5.44936">
        <ele>686</ele>
        <time>2026-05-13T11:04:02.000Z</time>
      </trkpt>
      <trkpt lat="44.17236" lon="5.44936">
        <ele>686</ele>
        <time>2026-05-13T11:04:03.000Z</time>
      </trkpt>
      <trkpt lat="44.17236" lon="5.44936">
        <ele>686</ele>
        <time>2026-05-13T11:04:04.000Z</time>
      </trkpt>
      <trkpt lat="44.17236" lon="5.44936">
        <ele>686</ele>
        <time>2026-05-13T11:04:05.000Z</time>
      </trkpt>
      <trkpt lat="44.17236" lon="5.44936">
        <ele>686</ele>
        <time>2026-05-13T11:04:06.000Z</time>
      </trkpt>
      <trkpt lat="44.17236" lon="5.44936">
        <ele>686</ele>
        <time>2026-05-13T11:04:07.000Z</time>
      </trkpt>
      <trkpt lat="44.17236" lon="5.44936">
        <ele>686</ele>
        <time>2026-05-13T11:04:08.000Z</time>
      </trkpt>
      <trkpt lat="44.17236" lon="5.44936">
        <ele>686</ele>
        <time>2026-05-13T11:04:09.000Z</time>
      </trkpt>
      <trkpt lat="44.17236" lon="5.44936">
        <ele>686</ele>
        <time>2026-05-13T11:04:10.000Z</time>
      </trkpt>
      <trkpt lat="44.17236" lon="5.44936">
        <ele>686</ele>
        <time>2026-05-13T11:04:11.000Z</time>
      </trkpt>
      <trkpt lat="44.17236" lon="5.44936">
        <ele>686</ele>
        <time>2026-05-13T11:04:12.000Z</time>
      </trkpt>
      <trkpt lat="44.17236" lon="5.44936">
        <ele>686</ele>
        <time>2026-05-13T11:04:13.000Z</time>
      </trkpt>
      <trkpt lat="44.17236" lon="5.44936">
        <ele>686</ele>
        <time>2026-05-13T11:04:14.000Z</time>
      </trkpt>
      <trkpt lat="44.17236" lon="5.44936">
        <ele>686</ele>
        <time>2026-05-13T11:04:15.000Z</time>
      </trkpt>
      <trkpt lat="44.17236" lon="5.44936">
        <ele>686</ele>
        <time>2026-05-13T11:04:16.000Z</time>
      </trkpt>
      <trkpt lat="44.17236" lon="5.44936">
        <ele>686</ele>
        <time>2026-05-13T11:04:17.000Z</time>
      </trkpt>
      <trkpt lat="44.17236" lon="5.44936">
        <ele>686</ele>
        <time>2026-05-13T11:04:18.000Z</time>
      </trkpt>
      <trkpt lat="44.17236" lon="5.44936">
        <ele>686</ele>
        <time>2026-05-13T11:04:19.000Z</time>
      </trkpt>
      <trkpt lat="44.17236" lon="5.44936">
        <ele>686</ele>
        <time>2026-05-13T11:04:20.000Z</time>
      </trkpt>
      <trkpt lat="44.17236" lon="5.44936">
        <ele>686</ele>
        <time>2026-05-13T11:04:21.000Z</time>
      </trkpt>
      <trkpt lat="44.17236" lon="5.44936">
        <ele>686</ele>
        <time>2026-05-13T11:04:22.000Z</time>
      </trkpt>
      <trkpt lat="44.17236" lon="5.44936">
        <ele>686</ele>
        <time>2026-05-13T11:04:23.000Z</time>
      </trkpt>
      <trkpt lat="44.17236" lon="5.44936">
        <ele>686</ele>
        <time>2026-05-13T11:04:24.000Z</time>
      </trkpt>
      <trkpt lat="44.17236" lon="5.44936">
        <ele>686</ele>
        <time>2026-05-13T11:04:25.000Z</time>
      </trkpt>
      <trkpt lat="44.17236" lon="5.44936">
        <ele>686</ele>
        <time>2026-05-13T11:04:26.000Z</time>
      </trkpt>
      <trkpt lat="44.17236" lon="5.44936">
        <ele>686</ele>
        <time>2026-05-13T11:04:28.000Z</time>
      </trkpt>
      <trkpt lat="44.17236" lon="5.44936">
        <ele>686</ele>
        <time>2026-05-13T11:04:29.000Z</time>
      </trkpt>
      <trkpt lat="44.17236" lon="5.44936">
        <ele>686</ele>
        <time>2026-05-13T11:04:30.000Z</time>
      </trkpt>
      <trkpt lat="44.17236" lon="5.44936">
        <ele>686</ele>
        <time>2026-05-13T11:04:31.000Z</time>
      </trkpt>
      <trkpt lat="44.17236" lon="5.44936">
        <ele>686</ele>
        <time>2026-05-13T11:04:32.000Z</time>
      </trkpt>
      <trkpt lat="44.17236" lon="5.44936">
        <ele>686</ele>
        <time>2026-05-13T11:04:33.000Z</time>
      </trkpt>
      <trkpt lat="44.17236" lon="5.44936">
        <ele>686</ele>
        <time>2026-05-13T11:04:34.000Z</time>
      </trkpt>
      <trkpt lat="44.17236" lon="5.44936">
        <ele>686</ele>
        <time>2026-05-13T11:04:35.000Z</time>
      </trkpt>
      <trkpt lat="44.17236" lon="5.44936">
        <ele>686</ele>
        <time>2026-05-13T11:04:36.000Z</time>
      </trkpt>
      <trkpt lat="44.17236" lon="5.44936">
        <ele>686</ele>
        <time>2026-05-13T11:04:37.000Z</time>
      </trkpt>
      <trkpt lat="44.17236" lon="5.44936">
        <ele>686</ele>
        <time>2026-05-13T11:04:38.000Z</time>
      </trkpt>
      <trkpt lat="44.17236" lon="5.44936">
        <ele>686</ele>
        <time>2026-05-13T11:04:39.000Z</time>
      </trkpt>
      <trkpt lat="44.17236" lon="5.44936">
        <ele>686</ele>
        <time>2026-05-13T11:04:40.000Z</time>
      </trkpt>
      <trkpt lat="44.17236" lon="5.44936">
        <ele>686</ele>
        <time>2026-05-13T11:04:41.000Z</time>
      </trkpt>
      <trkpt lat="44.17236" lon="5.44936">
        <ele>686</ele>
        <time>2026-05-13T11:04:42.000Z</time>
      </trkpt>
      <trkpt lat="44.17236" lon="5.44936">
        <ele>686</ele>
        <time>2026-05-13T11:04:43.000Z</time>
      </trkpt>
      <trkpt lat="44.17236" lon="5.44936">
        <ele>686</ele>
        <time>2026-05-13T11:04:44.000Z</time>
      </trkpt>
      <trkpt lat="44.17236" lon="5.44936">
        <ele>686</ele>
        <time>2026-05-13T11:04:45.000Z</time>
      </trkpt>
      <trkpt lat="44.17236" lon="5.44936">
        <ele>686</ele>
        <time>2026-05-13T11:04:46.000Z</time>
      </trkpt>
      <trkpt lat="44.17236" lon="5.44936">
        <ele>686</ele>
        <time>2026-05-13T11:04:47.000Z</time>
      </trkpt>
      <trkpt lat="44.17236" lon="5.44936">
        <ele>686</ele>
        <time>2026-05-13T11:04:48.000Z</time>
      </trkpt>
      <trkpt lat="44.17236" lon="5.44936">
        <ele>686</ele>
        <time>2026-05-13T11:04:49.000Z</time>
      </trkpt>
      <trkpt lat="44.17236" lon="5.44936">
        <ele>686</ele>
        <time>2026-05-13T11:04:50.000Z</time>
      </trkpt>
      <trkpt lat="44.17236" lon="5.44936">
        <ele>686</ele>
        <time>2026-05-13T11:04:51.000Z</time>
      </trkpt>
      <trkpt lat="44.17236" lon="5.44936">
        <ele>686</ele>
        <time>2026-05-13T11:04:52.000Z</time>
      </trkpt>
      <trkpt lat="44.17236" lon="5.44936">
        <ele>686</ele>
        <time>2026-05-13T11:04:53.000Z</time>
      </trkpt>
      <trkpt lat="44.17236" lon="5.44936">
        <ele>686</ele>
        <time>2026-05-13T11:04:54.000Z</time>
      </trkpt>
      <trkpt lat="44.17236" lon="5.44936">
        <ele>686</ele>
        <time>2026-05-13T11:04:55.000Z</time>
      </trkpt>
      <trkpt lat="44.17236" lon="5.44936">
        <ele>686</ele>
        <time>2026-05-13T11:04:56.000Z</time>
      </trkpt>
      <trkpt lat="44.17236" lon="5.44936">
        <ele>686</ele>
        <time>2026-05-13T11:04:57.000Z</time>
      </trkpt>
      <trkpt lat="44.17236" lon="5.44936">
        <ele>686</ele>
        <time>2026-05-13T11:04:58.000Z</time>
      </trkpt>
      <trkpt lat="44.17236" lon="5.44936">
        <ele>686</ele>
        <time>2026-05-13T11:04:59.000Z</time>
      </trkpt>
      <trkpt lat="44.17236" lon="5.44936">
        <ele>686</ele>
        <time>2026-05-13T11:05:00.000Z</time>
      </trkpt>
      <trkpt lat="44.17236" lon="5.44936">
        <ele>686</ele>
        <time>2026-05-13T11:05:01.000Z</time>
      </trkpt>
      <trkpt lat="44.17236" lon="5.44936">
        <ele>686</ele>
        <time>2026-05-13T11:05:02.000Z</time>
      </trkpt>
      <trkpt lat="44.17236" lon="5.44936">
        <ele>686</ele>
        <time>2026-05-13T11:05:03.000Z</time>
      </trkpt>
      <trkpt lat="44.17236" lon="5.44936">
        <ele>686</ele>
        <time>2026-05-13T11:05:04.000Z</time>
      </trkpt>
      <trkpt lat="44.17236" lon="5.44936">
        <ele>686</ele>
        <time>2026-05-13T11:05:05.000Z</time>
      </trkpt>
      <trkpt lat="44.17236" lon="5.44936">
        <ele>686</ele>
        <time>2026-05-13T11:05:06.000Z</time>
      </trkpt>
      <trkpt lat="44.17236" lon="5.44936">
        <ele>686</ele>
        <time>2026-05-13T11:05:07.000Z</time>
      </trkpt>
      <trkpt lat="44.17236" lon="5.44936">
        <ele>686</ele>
        <time>2026-05-13T11:05:08.000Z</time>
      </trkpt>
      <trkpt lat="44.17236" lon="5.44936">
        <ele>686</ele>
        <time>2026-05-13T11:05:09.000Z</time>
      </trkpt>
      <trkpt lat="44.17236" lon="5.44936">
        <ele>686</ele>
        <time>2026-05-13T11:05:10.000Z</time>
      </trkpt>
      <trkpt lat="44.17236" lon="5.44936">
        <ele>686</ele>
        <time>2026-05-13T11:05:11.000Z</time>
      </trkpt>
      <trkpt lat="44.17236" lon="5.44936">
        <ele>686</ele>
        <time>2026-05-13T11:05:12.000Z</time>
      </trkpt>
      <trkpt lat="44.17236" lon="5.44936">
        <ele>686</ele>
        <time>2026-05-13T11:05:13.000Z</time>
      </trkpt>
      <trkpt lat="44.17236" lon="5.44936">
        <ele>686</ele>
        <time>2026-05-13T11:05:14.000Z</time>
      </trkpt>
      <trkpt lat="44.17236" lon="5.44936">
        <ele>686</ele>
        <time>2026-05-13T11:05:15.000Z</time>
      </trkpt>
      <trkpt lat="44.17236" lon="5.44936">
        <ele>686</ele>
        <time>2026-05-13T11:05:16.000Z</time>
      </trkpt>
      <trkpt lat="44.17236" lon="5.44936">
        <ele>686</ele>
        <time>2026-05-13T11:05:17.000Z</time>
      </trkpt>
      <trkpt lat="44.17236" lon="5.44936">
        <ele>686</ele>
        <time>2026-05-13T11:05:18.000Z</time>
      </trkpt>
      <trkpt lat="44.17236" lon="5.44936">
        <ele>686</ele>
        <time>2026-05-13T11:05:19.000Z</time>
      </trkpt>
      <trkpt lat="44.17236" lon="5.44936">
        <ele>686</ele>
        <time>2026-05-13T11:05:20.000Z</time>
      </trkpt>
      <trkpt lat="44.17236" lon="5.44936">
        <ele>686</ele>
        <time>2026-05-13T11:05:21.000Z</time>
      </trkpt>
      <trkpt lat="44.17236" lon="5.44936">
        <ele>686</ele>
        <time>2026-05-13T11:05:22.000Z</time>
      </trkpt>
      <trkpt lat="44.17236" lon="5.44936">
        <ele>686</ele>
        <time>2026-05-13T11:05:23.000Z</time>
      </trkpt>
      <trkpt lat="44.17236" lon="5.44936">
        <ele>686</ele>
        <time>2026-05-13T11:05:24.000Z</time>
      </trkpt>
      <trkpt lat="44.17236" lon="5.44936">
        <ele>686</ele>
        <time>2026-05-13T11:05:25.000Z</time>
      </trkpt>
      <trkpt lat="44.17236" lon="5.44936">
        <ele>686</ele>
        <time>2026-05-13T11:05:26.000Z</time>
      </trkpt>
      <trkpt lat="44.17236" lon="5.44936">
        <ele>686</ele>
        <time>2026-05-13T11:05:27.000Z</time>
      </trkpt>
      <trkpt lat="44.17236" lon="5.44936">
        <ele>686</ele>
        <time>2026-05-13T11:05:28.000Z</time>
      </trkpt>
      <trkpt lat="44.17236" lon="5.44936">
        <ele>686</ele>
        <time>2026-05-13T11:05:29.000Z</time>
      </trkpt>
      <trkpt lat="44.17236" lon="5.44936">
        <ele>686</ele>
        <time>2026-05-13T11:05:30.000Z</time>
      </trkpt>
      <trkpt lat="44.17236" lon="5.44936">
        <ele>686</ele>
        <time>2026-05-13T11:05:31.000Z</time>
      </trkpt>
      <trkpt lat="44.17236" lon="5.44936">
        <ele>686</ele>
        <time>2026-05-13T11:05:32.000Z</time>
      </trkpt>
      <trkpt lat="44.17236" lon="5.44936">
        <ele>686</ele>
        <time>2026-05-13T11:05:33.000Z</time>
      </trkpt>
      <trkpt lat="44.17236" lon="5.44936">
        <ele>686</ele>
        <time>2026-05-13T11:05:34.000Z</time>
      </trkpt>
      <trkpt lat="44.17236" lon="5.44936">
        <ele>686</ele>
        <time>2026-05-13T11:05:35.000Z</time>
      </trkpt>
      <trkpt lat="44.17236" lon="5.44936">
        <ele>686</ele>
        <time>2026-05-13T11:05:36.000Z</time>
      </trkpt>
      <trkpt lat="44.17236" lon="5.44936">
        <ele>686</ele>
        <time>2026-05-13T11:05:37.000Z</time>
      </trkpt>
      <trkpt lat="44.17236" lon="5.44936">
        <ele>686</ele>
        <time>2026-05-13T11:05:38.000Z</time>
      </trkpt>
      <trkpt lat="44.17236" lon="5.44936">
        <ele>686</ele>
        <time>2026-05-13T11:05:39.000Z</time>
      </trkpt>
      <trkpt lat="44.17236" lon="5.44936">
        <ele>686</ele>
        <time>2026-05-13T11:05:40.000Z</time>
      </trkpt>
      <trkpt lat="44.17236" lon="5.44936">
        <ele>686</ele>
        <time>2026-05-13T11:05:41.000Z</time>
      </trkpt>
      <trkpt lat="44.17236" lon="5.44936">
        <ele>686</ele>
        <time>2026-05-13T11:05:42.000Z</time>
      </trkpt>
      <trkpt lat="44.17236" lon="5.44936">
        <ele>686</ele>
        <time>2026-05-13T11:05:43.000Z</time>
      </trkpt>
      <trkpt lat="44.17236" lon="5.44936">
        <ele>686</ele>
        <time>2026-05-13T11:05:44.000Z</time>
      </trkpt>
      <trkpt lat="44.17236" lon="5.44936">
        <ele>686</ele>
        <time>2026-05-13T11:05:45.000Z</time>
      </trkpt>
      <trkpt lat="44.17236" lon="5.44936">
        <ele>686</ele>
        <time>2026-05-13T11:05:46.000Z</time>
      </trkpt>
      <trkpt lat="44.17236" lon="5.44936">
        <ele>686</ele>
        <time>2026-05-13T11:05:47.000Z</time>
      </trkpt>
      <trkpt lat="44.17236" lon="5.44936">
        <ele>686</ele>
        <time>2026-05-13T11:05:48.000Z</time>
      </trkpt>
      <trkpt lat="44.17236" lon="5.44936">
        <ele>686</ele>
        <time>2026-05-13T11:05:49.000Z</time>
      </trkpt>
      <trkpt lat="44.17236" lon="5.44936">
        <ele>686</ele>
        <time>2026-05-13T11:05:50.000Z</time>
      </trkpt>
      <trkpt lat="44.17236" lon="5.44936">
        <ele>686</ele>
        <time>2026-05-13T11:05:51.000Z</time>
      </trkpt>
      <trkpt lat="44.17236" lon="5.44936">
        <ele>686</ele>
        <time>2026-05-13T11:05:52.000Z</time>
      </trkpt>
      <trkpt lat="44.17236" lon="5.44936">
        <ele>686</ele>
        <time>2026-05-13T11:05:53.000Z</time>
      </trkpt>
      <trkpt lat="44.17236" lon="5.44936">
        <ele>686</ele>
        <time>2026-05-13T11:05:54.000Z</time>
      </trkpt>
      <trkpt lat="44.17236" lon="5.44936">
        <ele>686</ele>
        <time>2026-05-13T11:05:55.000Z</time>
      </trkpt>
      <trkpt lat="44.17236" lon="5.44936">
        <ele>686</ele>
        <time>2026-05-13T11:05:56.000Z</time>
      </trkpt>
      <trkpt lat="44.17236" lon="5.44936">
        <ele>686</ele>
        <time>2026-05-13T11:05:57.000Z</time>
      </trkpt>
      <trkpt lat="44.17236" lon="5.44936">
        <ele>686</ele>
        <time>2026-05-13T11:05:58.000Z</time>
      </trkpt>
      <trkpt lat="44.17236" lon="5.44936">
        <ele>686</ele>
        <time>2026-05-13T11:05:59.000Z</time>
      </trkpt>
      <trkpt lat="44.17236" lon="5.44936">
        <ele>686</ele>
        <time>2026-05-13T11:06:00.000Z</time>
      </trkpt>
      <trkpt lat="44.17236" lon="5.44936">
        <ele>686</ele>
        <time>2026-05-13T11:06:01.000Z</time>
      </trkpt>
      <trkpt lat="44.17236" lon="5.44936">
        <ele>686</ele>
        <time>2026-05-13T11:06:02.000Z</time>
      </trkpt>
      <trkpt lat="44.17236" lon="5.44936">
        <ele>686</ele>
        <time>2026-05-13T11:06:03.000Z</time>
      </trkpt>
      <trkpt lat="44.17236" lon="5.44936">
        <ele>686</ele>
        <time>2026-05-13T11:06:04.000Z</time>
      </trkpt>
      <trkpt lat="44.17236" lon="5.44936">
        <ele>686</ele>
        <time>2026-05-13T11:06:05.000Z</time>
      </trkpt>
      <trkpt lat="44.17236" lon="5.44936">
        <ele>686</ele>
        <time>2026-05-13T11:06:06.000Z</time>
      </trkpt>
      <trkpt lat="44.17236" lon="5.44936">
        <ele>686</ele>
        <time>2026-05-13T11:06:07.000Z</time>
      </trkpt>
      <trkpt lat="44.17236" lon="5.44936">
        <ele>686</ele>
        <time>2026-05-13T11:06:08.000Z</time>
      </trkpt>
      <trkpt lat="44.17236" lon="5.44936">
        <ele>686</ele>
        <time>2026-05-13T11:06:09.000Z</time>
      </trkpt>
      <trkpt lat="44.17236" lon="5.44936">
        <ele>686</ele>
        <time>2026-05-13T11:06:10.000Z</time>
      </trkpt>
      <trkpt lat="44.17236" lon="5.44936">
        <ele>686</ele>
        <time>2026-05-13T11:06:11.000Z</time>
      </trkpt>
      <trkpt lat="44.17236" lon="5.44936">
        <ele>686</ele>
        <time>2026-05-13T11:06:12.000Z</time>
      </trkpt>
      <trkpt lat="44.17236" lon="5.44936">
        <ele>686</ele>
        <time>2026-05-13T11:06:13.000Z</time>
      </trkpt>
      <trkpt lat="44.17236" lon="5.44936">
        <ele>686</ele>
        <time>2026-05-13T11:06:14.000Z</time>
      </trkpt>
      <trkpt lat="44.17236" lon="5.44936">
        <ele>686</ele>
        <time>2026-05-13T11:06:15.000Z</time>
      </trkpt>
      <trkpt lat="44.17236" lon="5.44936">
        <ele>686</ele>
        <time>2026-05-13T11:06:16.000Z</time>
      </trkpt>
      <trkpt lat="44.17236" lon="5.44936">
        <ele>686</ele>
        <time>2026-05-13T11:06:17.000Z</time>
      </trkpt>
      <trkpt lat="44.17236" lon="5.44936">
        <ele>686</ele>
        <time>2026-05-13T11:06:18.000Z</time>
      </trkpt>
      <trkpt lat="44.17236" lon="5.44936">
        <ele>686</ele>
        <time>2026-05-13T11:06:19.000Z</time>
      </trkpt>
      <trkpt lat="44.17236" lon="5.44936">
        <ele>686</ele>
        <time>2026-05-13T11:06:20.000Z</time>
      </trkpt>
      <trkpt lat="44.17236" lon="5.44936">
        <ele>686</ele>
        <time>2026-05-13T11:06:21.000Z</time>
      </trkpt>
      <trkpt lat="44.17236" lon="5.44936">
        <ele>686</ele>
        <time>2026-05-13T11:06:22.000Z</time>
      </trkpt>
      <trkpt lat="44.17236" lon="5.44936">
        <ele>686</ele>
        <time>2026-05-13T11:06:23.000Z</time>
      </trkpt>
      <trkpt lat="44.17236" lon="5.44936">
        <ele>686</ele>
        <time>2026-05-13T11:06:24.000Z</time>
      </trkpt>
      <trkpt lat="44.17236" lon="5.44936">
        <ele>686</ele>
        <time>2026-05-13T11:06:25.000Z</time>
      </trkpt>
      <trkpt lat="44.17236" lon="5.44936">
        <ele>686</ele>
        <time>2026-05-13T11:06:26.000Z</time>
      </trkpt>
      <trkpt lat="44.17236" lon="5.44936">
        <ele>686</ele>
        <time>2026-05-13T11:06:27.000Z</time>
      </trkpt>
      <trkpt lat="44.17236" lon="5.44936">
        <ele>686</ele>
        <time>2026-05-13T11:06:28.000Z</time>
      </trkpt>
      <trkpt lat="44.17236" lon="5.44936">
        <ele>686</ele>
        <time>2026-05-13T11:06:29.000Z</time>
      </trkpt>
      <trkpt lat="44.17236" lon="5.44936">
        <ele>686</ele>
        <time>2026-05-13T11:06:30.000Z</time>
      </trkpt>
      <trkpt lat="44.17236" lon="5.44936">
        <ele>686</ele>
        <time>2026-05-13T11:06:31.000Z</time>
      </trkpt>
      <trkpt lat="44.17236" lon="5.44936">
        <ele>686</ele>
        <time>2026-05-13T11:06:32.000Z</time>
      </trkpt>
      <trkpt lat="44.17236" lon="5.44936">
        <ele>686</ele>
        <time>2026-05-13T11:06:33.000Z</time>
      </trkpt>
      <trkpt lat="44.17236" lon="5.44936">
        <ele>686</ele>
        <time>2026-05-13T11:06:34.000Z</time>
      </trkpt>
      <trkpt lat="44.17236" lon="5.44936">
        <ele>686</ele>
        <time>2026-05-13T11:06:35.000Z</time>
      </trkpt>
      <trkpt lat="44.17236" lon="5.44936">
        <ele>686</ele>
        <time>2026-05-13T11:06:36.000Z</time>
      </trkpt>
      <trkpt lat="44.17236" lon="5.44936">
        <ele>686</ele>
        <time>2026-05-13T11:06:37.000Z</time>
      </trkpt>
      <trkpt lat="44.17236" lon="5.44936">
        <ele>686</ele>
        <time>2026-05-13T11:06:38.000Z</time>
      </trkpt>
      <trkpt lat="44.17236" lon="5.44936">
        <ele>686</ele>
        <time>2026-05-13T11:06:39.000Z</time>
      </trkpt>
      <trkpt lat="44.17236" lon="5.44936">
        <ele>686</ele>
        <time>2026-05-13T11:06:40.000Z</time>
      </trkpt>
      <trkpt lat="44.17236" lon="5.44936">
        <ele>686</ele>
        <time>2026-05-13T11:06:41.000Z</time>
      </trkpt>
      <trkpt lat="44.17236" lon="5.44936">
        <ele>686</ele>
        <time>2026-05-13T11:06:42.000Z</time>
      </trkpt>
      <trkpt lat="44.17236" lon="5.44936">
        <ele>686</ele>
        <time>2026-05-13T11:06:43.000Z</time>
      </trkpt>
      <trkpt lat="44.17236" lon="5.44936">
        <ele>686</ele>
        <time>2026-05-13T11:06:44.000Z</time>
      </trkpt>
      <trkpt lat="44.17236" lon="5.44936">
        <ele>686</ele>
        <time>2026-05-13T11:06:45.000Z</time>
      </trkpt>
      <trkpt lat="44.17236" lon="5.44936">
        <ele>686</ele>
        <time>2026-05-13T11:06:46.000Z</time>
      </trkpt>
      <trkpt lat="44.17236" lon="5.44936">
        <ele>686</ele>
        <time>2026-05-13T11:06:47.000Z</time>
      </trkpt>
      <trkpt lat="44.17236" lon="5.44936">
        <ele>686</ele>
        <time>2026-05-13T11:06:48.000Z</time>
      </trkpt>
      <trkpt lat="44.17236" lon="5.44936">
        <ele>686</ele>
        <time>2026-05-13T11:06:49.000Z</time>
      </trkpt>
      <trkpt lat="44.17236" lon="5.44936">
        <ele>686</ele>
        <time>2026-05-13T11:06:50.000Z</time>
      </trkpt>
      <trkpt lat="44.17236" lon="5.44936">
        <ele>686</ele>
        <time>2026-05-13T11:06:51.000Z</time>
      </trkpt>
      <trkpt lat="44.17236" lon="5.44936">
        <ele>686</ele>
        <time>2026-05-13T11:06:52.000Z</time>
      </trkpt>
      <trkpt lat="44.17236" lon="5.44936">
        <ele>686</ele>
        <time>2026-05-13T11:06:53.000Z</time>
      </trkpt>
      <trkpt lat="44.17235" lon="5.44936">
        <ele>685</ele>
        <time>2026-05-13T11:06:54.000Z</time>
      </trkpt>
      <trkpt lat="44.17236" lon="5.44937">
        <ele>685</ele>
        <time>2026-05-13T11:06:55.000Z</time>
      </trkpt>
      <trkpt lat="44.17237" lon="5.44937">
        <ele>685</ele>
        <time>2026-05-13T11:06:56.000Z</time>
      </trkpt>
      <trkpt lat="44.17237" lon="5.44937">
        <ele>684</ele>
        <time>2026-05-13T11:06:57.000Z</time>
      </trkpt>
      <trkpt lat="44.17237" lon="5.44937">
        <ele>684</ele>
        <time>2026-05-13T11:06:58.000Z</time>
      </trkpt>
      <trkpt lat="44.17237" lon="5.44937">
        <ele>684</ele>
        <time>2026-05-13T11:06:59.000Z</time>
      </trkpt>
      <trkpt lat="44.17237" lon="5.44937">
        <ele>684</ele>
        <time>2026-05-13T11:07:00.000Z</time>
      </trkpt>
      <trkpt lat="44.17237" lon="5.44937">
        <ele>684</ele>
        <time>2026-05-13T11:07:01.000Z</time>
      </trkpt>
      <trkpt lat="44.17237" lon="5.44937">
        <ele>684</ele>
        <time>2026-05-13T11:07:02.000Z</time>
      </trkpt>
      <trkpt lat="44.17237" lon="5.44937">
        <ele>684</ele>
        <time>2026-05-13T11:07:03.000Z</time>
      </trkpt>
      <trkpt lat="44.17237" lon="5.44937">
        <ele>684</ele>
        <time>2026-05-13T11:07:04.000Z</time>
      </trkpt>
      <trkpt lat="44.17237" lon="5.44937">
        <ele>684</ele>
        <time>2026-05-13T11:07:05.000Z</time>
      </trkpt>
      <trkpt lat="44.17237" lon="5.44937">
        <ele>684</ele>
        <time>2026-05-13T11:07:06.000Z</time>
      </trkpt>
      <trkpt lat="44.17237" lon="5.44937">
        <ele>684</ele>
        <time>2026-05-13T11:07:07.000Z</time>
      </trkpt>
      <trkpt lat="44.17237" lon="5.44937">
        <ele>684</ele>
        <time>2026-05-13T11:07:08.000Z</time>
      </trkpt>
      <trkpt lat="44.17237" lon="5.44937">
        <ele>684</ele>
        <time>2026-05-13T11:07:09.000Z</time>
      </trkpt>
      <trkpt lat="44.17237" lon="5.44937">
        <ele>684</ele>
        <time>2026-05-13T11:07:10.000Z</time>
      </trkpt>
      <trkpt lat="44.17237" lon="5.44937">
        <ele>684</ele>
        <time>2026-05-13T11:07:11.000Z</time>
      </trkpt>
      <trkpt lat="44.17237" lon="5.44937">
        <ele>684</ele>
        <time>2026-05-13T11:07:12.000Z</time>
      </trkpt>
      <trkpt lat="44.17237" lon="5.44937">
        <ele>684</ele>
        <time>2026-05-13T11:07:13.000Z</time>
      </trkpt>
      <trkpt lat="44.17237" lon="5.44937">
        <ele>684</ele>
        <time>2026-05-13T11:07:14.000Z</time>
      </trkpt>
      <trkpt lat="44.17237" lon="5.44937">
        <ele>684</ele>
        <time>2026-05-13T11:07:15.000Z</time>
      </trkpt>
      <trkpt lat="44.17237" lon="5.44937">
        <ele>684</ele>
        <time>2026-05-13T11:07:16.000Z</time>
      </trkpt>
      <trkpt lat="44.17237" lon="5.44937">
        <ele>684</ele>
        <time>2026-05-13T11:07:17.000Z</time>
      </trkpt>
      <trkpt lat="44.17237" lon="5.44937">
        <ele>684</ele>
        <time>2026-05-13T11:07:18.000Z</time>
      </trkpt>
      <trkpt lat="44.17237" lon="5.44937">
        <ele>684</ele>
        <time>2026-05-13T11:07:19.000Z</time>
      </trkpt>
      <trkpt lat="44.17237" lon="5.44937">
        <ele>684</ele>
        <time>2026-05-13T11:07:20.000Z</time>
      </trkpt>
      <trkpt lat="44.17237" lon="5.44937">
        <ele>684</ele>
        <time>2026-05-13T11:07:21.000Z</time>
      </trkpt>
      <trkpt lat="44.17237" lon="5.44937">
        <ele>684</ele>
        <time>2026-05-13T11:07:22.000Z</time>
      </trkpt>
      <trkpt lat="44.17237" lon="5.44937">
        <ele>684</ele>
        <time>2026-05-13T11:07:23.000Z</time>
      </trkpt>
      <trkpt lat="44.17237" lon="5.44937">
        <ele>684</ele>
        <time>2026-05-13T11:07:24.000Z</time>
      </trkpt>
      <trkpt lat="44.17237" lon="5.44937">
        <ele>684</ele>
        <time>2026-05-13T11:07:25.000Z</time>
      </trkpt>
      <trkpt lat="44.17237" lon="5.44937">
        <ele>684</ele>
        <time>2026-05-13T11:07:26.000Z</time>
      </trkpt>
      <trkpt lat="44.17237" lon="5.44937">
        <ele>684</ele>
        <time>2026-05-13T11:07:27.000Z</time>
      </trkpt>
      <trkpt lat="44.17237" lon="5.44937">
        <ele>684</ele>
        <time>2026-05-13T11:07:28.000Z</time>
      </trkpt>
      <trkpt lat="44.17237" lon="5.44937">
        <ele>684</ele>
        <time>2026-05-13T11:07:29.000Z</time>
      </trkpt>
      <trkpt lat="44.17237" lon="5.44937">
        <ele>684</ele>
        <time>2026-05-13T11:07:30.000Z</time>
      </trkpt>
      <trkpt lat="44.17237" lon="5.44937">
        <ele>684</ele>
        <time>2026-05-13T11:07:31.000Z</time>
      </trkpt>
      <trkpt lat="44.17237" lon="5.44937">
        <ele>684</ele>
        <time>2026-05-13T11:07:32.000Z</time>
      </trkpt>
      <trkpt lat="44.17237" lon="5.44937">
        <ele>684</ele>
        <time>2026-05-13T11:07:33.000Z</time>
      </trkpt>
      <trkpt lat="44.17237" lon="5.44937">
        <ele>684</ele>
        <time>2026-05-13T11:07:34.000Z</time>
      </trkpt>
      <trkpt lat="44.17237" lon="5.44937">
        <ele>684</ele>
        <time>2026-05-13T11:07:35.000Z</time>
      </trkpt>
      <trkpt lat="44.17237" lon="5.44937">
        <ele>684</ele>
        <time>2026-05-13T11:07:36.000Z</time>
      </trkpt>
      <trkpt lat="44.17237" lon="5.44937">
        <ele>684</ele>
        <time>2026-05-13T11:07:37.000Z</time>
      </trkpt>
      <trkpt lat="44.17237" lon="5.44937">
        <ele>684</ele>
        <time>2026-05-13T11:07:38.000Z</time>
      </trkpt>
      <trkpt lat="44.17237" lon="5.44937">
        <ele>684</ele>
        <time>2026-05-13T11:07:39.000Z</time>
      </trkpt>
      <trkpt lat="44.17237" lon="5.44937">
        <ele>684</ele>
        <time>2026-05-13T11:07:40.000Z</time>
      </trkpt>
      <trkpt lat="44.17237" lon="5.44937">
        <ele>684</ele>
        <time>2026-05-13T11:07:41.000Z</time>
      </trkpt>
      <trkpt lat="44.17237" lon="5.44937">
        <ele>684</ele>
        <time>2026-05-13T11:07:42.000Z</time>
      </trkpt>
      <trkpt lat="44.17237" lon="5.44937">
        <ele>684</ele>
        <time>2026-05-13T11:07:43.000Z</time>
      </trkpt>
      <trkpt lat="44.17237" lon="5.44937">
        <ele>684</ele>
        <time>2026-05-13T11:07:44.000Z</time>
      </trkpt>
      <trkpt lat="44.17237" lon="5.44937">
        <ele>684</ele>
        <time>2026-05-13T11:07:45.000Z</time>
      </trkpt>
      <trkpt lat="44.17237" lon="5.44937">
        <ele>684</ele>
        <time>2026-05-13T11:07:46.000Z</time>
      </trkpt>
      <trkpt lat="44.17237" lon="5.44937">
        <ele>684</ele>
        <time>2026-05-13T11:07:47.000Z</time>
      </trkpt>
      <trkpt lat="44.17237" lon="5.44937">
        <ele>684</ele>
        <time>2026-05-13T11:07:48.000Z</time>
      </trkpt>
      <trkpt lat="44.17237" lon="5.44937">
        <ele>684</ele>
        <time>2026-05-13T11:07:49.000Z</time>
      </trkpt>
      <trkpt lat="44.17237" lon="5.44937">
        <ele>684</ele>
        <time>2026-05-13T11:07:50.000Z</time>
      </trkpt>
      <trkpt lat="44.17237" lon="5.44937">
        <ele>684</ele>
        <time>2026-05-13T11:07:51.000Z</time>
      </trkpt>
      <trkpt lat="44.17237" lon="5.44937">
        <ele>684</ele>
        <time>2026-05-13T11:07:52.000Z</time>
      </trkpt>
      <trkpt lat="44.17237" lon="5.44937">
        <ele>684</ele>
        <time>2026-05-13T11:07:53.000Z</time>
      </trkpt>
      <trkpt lat="44.17237" lon="5.44937">
        <ele>684</ele>
        <time>2026-05-13T11:07:54.000Z</time>
      </trkpt>
      <trkpt lat="44.17237" lon="5.44937">
        <ele>684</ele>
        <time>2026-05-13T11:07:55.000Z</time>
      </trkpt>
      <trkpt lat="44.17237" lon="5.44937">
        <ele>684</ele>
        <time>2026-05-13T11:07:56.000Z</time>
      </trkpt>
      <trkpt lat="44.17237" lon="5.44937">
        <ele>684</ele>
        <time>2026-05-13T11:07:57.000Z</time>
      </trkpt>
      <trkpt lat="44.17237" lon="5.44937">
        <ele>684</ele>
        <time>2026-05-13T11:07:58.000Z</time>
      </trkpt>
      <trkpt lat="44.17237" lon="5.44937">
        <ele>684</ele>
        <time>2026-05-13T11:07:59.000Z</time>
      </trkpt>
      <trkpt lat="44.17237" lon="5.44937">
        <ele>684</ele>
        <time>2026-05-13T11:08:00.000Z</time>
      </trkpt>
      <trkpt lat="44.17237" lon="5.44937">
        <ele>684</ele>
        <time>2026-05-13T11:08:01.000Z</time>
      </trkpt>
      <trkpt lat="44.17237" lon="5.44937">
        <ele>684</ele>
        <time>2026-05-13T11:08:02.000Z</time>
      </trkpt>
      <trkpt lat="44.17237" lon="5.44937">
        <ele>684</ele>
        <time>2026-05-13T11:08:03.000Z</time>
      </trkpt>
      <trkpt lat="44.17237" lon="5.44937">
        <ele>684</ele>
        <time>2026-05-13T11:08:04.000Z</time>
      </trkpt>
      <trkpt lat="44.17237" lon="5.44937">
        <ele>684</ele>
        <time>2026-05-13T11:08:05.000Z</time>
      </trkpt>
      <trkpt lat="44.17237" lon="5.44937">
        <ele>684</ele>
        <time>2026-05-13T11:08:06.000Z</time>
      </trkpt>
      <trkpt lat="44.17237" lon="5.44937">
        <ele>684</ele>
        <time>2026-05-13T11:08:07.000Z</time>
      </trkpt>
      <trkpt lat="44.17237" lon="5.44937">
        <ele>684</ele>
        <time>2026-05-13T11:08:08.000Z</time>
      </trkpt>
      <trkpt lat="44.17237" lon="5.44937">
        <ele>684</ele>
        <time>2026-05-13T11:08:09.000Z</time>
      </trkpt>
      <trkpt lat="44.17237" lon="5.44937">
        <ele>684</ele>
        <time>2026-05-13T11:08:10.000Z</time>
      </trkpt>
      <trkpt lat="44.17237" lon="5.44937">
        <ele>684</ele>
        <time>2026-05-13T11:08:11.000Z</time>
      </trkpt>
      <trkpt lat="44.17237" lon="5.44937">
        <ele>684</ele>
        <time>2026-05-13T11:08:12.000Z</time>
      </trkpt>
      <trkpt lat="44.17237" lon="5.44937">
        <ele>684</ele>
        <time>2026-05-13T11:08:13.000Z</time>
      </trkpt>
      <trkpt lat="44.17237" lon="5.44937">
        <ele>684</ele>
        <time>2026-05-13T11:08:14.000Z</time>
      </trkpt>
      <trkpt lat="44.17237" lon="5.44937">
        <ele>684</ele>
        <time>2026-05-13T11:08:15.000Z</time>
      </trkpt>
      <trkpt lat="44.17237" lon="5.44937">
        <ele>684</ele>
        <time>2026-05-13T11:08:16.000Z</time>
      </trkpt>
      <trkpt lat="44.17237" lon="5.44937">
        <ele>684</ele>
        <time>2026-05-13T11:08:17.000Z</time>
      </trkpt>
      <trkpt lat="44.17237" lon="5.44937">
        <ele>684</ele>
        <time>2026-05-13T11:08:18.000Z</time>
      </trkpt>
      <trkpt lat="44.17237" lon="5.44937">
        <ele>684</ele>
        <time>2026-05-13T11:08:19.000Z</time>
      </trkpt>
      <trkpt lat="44.17237" lon="5.44937">
        <ele>684</ele>
        <time>2026-05-13T11:08:20.000Z</time>
      </trkpt>
      <trkpt lat="44.17237" lon="5.44937">
        <ele>684</ele>
        <time>2026-05-13T11:08:21.000Z</time>
      </trkpt>
      <trkpt lat="44.17237" lon="5.44937">
        <ele>684</ele>
        <time>2026-05-13T11:08:22.000Z</time>
      </trkpt>
      <trkpt lat="44.17237" lon="5.44937">
        <ele>684</ele>
        <time>2026-05-13T11:08:23.000Z</time>
      </trkpt>
      <trkpt lat="44.17237" lon="5.44937">
        <ele>684</ele>
        <time>2026-05-13T11:08:24.000Z</time>
      </trkpt>
      <trkpt lat="44.17237" lon="5.44937">
        <ele>684</ele>
        <time>2026-05-13T11:08:25.000Z</time>
      </trkpt>
      <trkpt lat="44.17237" lon="5.44937">
        <ele>684</ele>
        <time>2026-05-13T11:08:26.000Z</time>
      </trkpt>
      <trkpt lat="44.17237" lon="5.44937">
        <ele>684</ele>
        <time>2026-05-13T11:08:27.000Z</time>
      </trkpt>
      <trkpt lat="44.17237" lon="5.44937">
        <ele>684</ele>
        <time>2026-05-13T11:08:28.000Z</time>
      </trkpt>
      <trkpt lat="44.17237" lon="5.44937">
        <ele>684</ele>
        <time>2026-05-13T11:08:29.000Z</time>
      </trkpt>
      <trkpt lat="44.17237" lon="5.44937">
        <ele>684</ele>
        <time>2026-05-13T11:08:30.000Z</time>
      </trkpt>
      <trkpt lat="44.17237" lon="5.44937">
        <ele>684</ele>
        <time>2026-05-13T11:08:31.000Z</time>
      </trkpt>
      <trkpt lat="44.17237" lon="5.44937">
        <ele>684</ele>
        <time>2026-05-13T11:08:32.000Z</time>
      </trkpt>
      <trkpt lat="44.17237" lon="5.44937">
        <ele>684</ele>
        <time>2026-05-13T11:08:33.000Z</time>
      </trkpt>
      <trkpt lat="44.17237" lon="5.44937">
        <ele>684</ele>
        <time>2026-05-13T11:08:34.000Z</time>
      </trkpt>
      <trkpt lat="44.17237" lon="5.44937">
        <ele>684</ele>
        <time>2026-05-13T11:08:35.000Z</time>
      </trkpt>
      <trkpt lat="44.17237" lon="5.44937">
        <ele>684</ele>
        <time>2026-05-13T11:08:36.000Z</time>
      </trkpt>
      <trkpt lat="44.17237" lon="5.44937">
        <ele>684</ele>
        <time>2026-05-13T11:08:37.000Z</time>
      </trkpt>
      <trkpt lat="44.17237" lon="5.44937">
        <ele>684</ele>
        <time>2026-05-13T11:08:38.000Z</time>
      </trkpt>
      <trkpt lat="44.17237" lon="5.44937">
        <ele>684</ele>
        <time>2026-05-13T11:08:39.000Z</time>
      </trkpt>
      <trkpt lat="44.17237" lon="5.44937">
        <ele>684</ele>
        <time>2026-05-13T11:08:40.000Z</time>
      </trkpt>
      <trkpt lat="44.17237" lon="5.44937">
        <ele>684</ele>
        <time>2026-05-13T11:08:41.000Z</time>
      </trkpt>
      <trkpt lat="44.17237" lon="5.44937">
        <ele>684</ele>
        <time>2026-05-13T11:08:42.000Z</time>
      </trkpt>
      <trkpt lat="44.17237" lon="5.44937">
        <ele>684</ele>
        <time>2026-05-13T11:08:43.000Z</time>
      </trkpt>
      <trkpt lat="44.17237" lon="5.44937">
        <ele>684</ele>
        <time>2026-05-13T11:08:44.000Z</time>
      </trkpt>
      <trkpt lat="44.17237" lon="5.44937">
        <ele>684</ele>
        <time>2026-05-13T11:08:45.000Z</time>
      </trkpt>
      <trkpt lat="44.17237" lon="5.44937">
        <ele>684</ele>
        <time>2026-05-13T11:08:46.000Z</time>
      </trkpt>
      <trkpt lat="44.17237" lon="5.44937">
        <ele>684</ele>
        <time>2026-05-13T11:08:47.000Z</time>
      </trkpt>
      <trkpt lat="44.17237" lon="5.44937">
        <ele>684</ele>
        <time>2026-05-13T11:08:48.000Z</time>
      </trkpt>
      <trkpt lat="44.17237" lon="5.44937">
        <ele>684</ele>
        <time>2026-05-13T11:08:49.000Z</time>
      </trkpt>
      <trkpt lat="44.17237" lon="5.44937">
        <ele>684</ele>
        <time>2026-05-13T11:08:50.000Z</time>
      </trkpt>
      <trkpt lat="44.17237" lon="5.44937">
        <ele>684</ele>
        <time>2026-05-13T11:08:51.000Z</time>
      </trkpt>
      <trkpt lat="44.17237" lon="5.44937">
        <ele>684</ele>
        <time>2026-05-13T11:08:52.000Z</time>
      </trkpt>
      <trkpt lat="44.17237" lon="5.44937">
        <ele>684</ele>
        <time>2026-05-13T11:08:53.000Z</time>
      </trkpt>
      <trkpt lat="44.17237" lon="5.44937">
        <ele>684</ele>
        <time>2026-05-13T11:08:54.000Z</time>
      </trkpt>
      <trkpt lat="44.17237" lon="5.44937">
        <ele>684</ele>
        <time>2026-05-13T11:08:55.000Z</time>
      </trkpt>
      <trkpt lat="44.17237" lon="5.44937">
        <ele>684</ele>
        <time>2026-05-13T11:08:56.000Z</time>
      </trkpt>
      <trkpt lat="44.17237" lon="5.44937">
        <ele>684</ele>
        <time>2026-05-13T11:08:57.000Z</time>
      </trkpt>
      <trkpt lat="44.17237" lon="5.44937">
        <ele>684</ele>
        <time>2026-05-13T11:08:58.000Z</time>
      </trkpt>
      <trkpt lat="44.17237" lon="5.44937">
        <ele>684</ele>
        <time>2026-05-13T11:08:59.000Z</time>
      </trkpt>
      <trkpt lat="44.17237" lon="5.44937">
        <ele>684</ele>
        <time>2026-05-13T11:09:00.000Z</time>
      </trkpt>
      <trkpt lat="44.17237" lon="5.44937">
        <ele>684</ele>
        <time>2026-05-13T11:09:01.000Z</time>
      </trkpt>
      <trkpt lat="44.17237" lon="5.44937">
        <ele>684</ele>
        <time>2026-05-13T11:09:02.000Z</time>
      </trkpt>
      <trkpt lat="44.17237" lon="5.44937">
        <ele>684</ele>
        <time>2026-05-13T11:09:03.000Z</time>
      </trkpt>
      <trkpt lat="44.17237" lon="5.44937">
        <ele>684</ele>
        <time>2026-05-13T11:09:04.000Z</time>
      </trkpt>
      <trkpt lat="44.17237" lon="5.44937">
        <ele>684</ele>
        <time>2026-05-13T11:09:05.000Z</time>
      </trkpt>
      <trkpt lat="44.17237" lon="5.44937">
        <ele>684</ele>
        <time>2026-05-13T11:09:06.000Z</time>
      </trkpt>
      <trkpt lat="44.17237" lon="5.44937">
        <ele>684</ele>
        <time>2026-05-13T11:09:07.000Z</time>
      </trkpt>
      <trkpt lat="44.17237" lon="5.44937">
        <ele>684</ele>
        <time>2026-05-13T11:09:08.000Z</time>
      </trkpt>
      <trkpt lat="44.17237" lon="5.44937">
        <ele>684</ele>
        <time>2026-05-13T11:09:09.000Z</time>
      </trkpt>
      <trkpt lat="44.17237" lon="5.44937">
        <ele>684</ele>
        <time>2026-05-13T11:09:10.000Z</time>
      </trkpt>
      <trkpt lat="44.17237" lon="5.44937">
        <ele>684</ele>
        <time>2026-05-13T11:09:11.000Z</time>
      </trkpt>
      <trkpt lat="44.17237" lon="5.44937">
        <ele>684</ele>
        <time>2026-05-13T11:09:12.000Z</time>
      </trkpt>
      <trkpt lat="44.17237" lon="5.44937">
        <ele>684</ele>
        <time>2026-05-13T11:09:13.000Z</time>
      </trkpt>
      <trkpt lat="44.17237" lon="5.44937">
        <ele>684</ele>
        <time>2026-05-13T11:09:14.000Z</time>
      </trkpt>
      <trkpt lat="44.17237" lon="5.44937">
        <ele>684</ele>
        <time>2026-05-13T11:09:15.000Z</time>
      </trkpt>
      <trkpt lat="44.17237" lon="5.44937">
        <ele>684</ele>
        <time>2026-05-13T11:09:16.000Z</time>
      </trkpt>
      <trkpt lat="44.17237" lon="5.44937">
        <ele>684</ele>
        <time>2026-05-13T11:09:17.000Z</time>
      </trkpt>
      <trkpt lat="44.17237" lon="5.44937">
        <ele>684</ele>
        <time>2026-05-13T11:09:18.000Z</time>
      </trkpt>
      <trkpt lat="44.17237" lon="5.44937">
        <ele>684</ele>
        <time>2026-05-13T11:09:19.000Z</time>
      </trkpt>
      <trkpt lat="44.17237" lon="5.44937">
        <ele>684</ele>
        <time>2026-05-13T11:09:20.000Z</time>
      </trkpt>
      <trkpt lat="44.17237" lon="5.44937">
        <ele>684</ele>
        <time>2026-05-13T11:09:21.000Z</time>
      </trkpt>
      <trkpt lat="44.17237" lon="5.44937">
        <ele>684</ele>
        <time>2026-05-13T11:09:22.000Z</time>
      </trkpt>
      <trkpt lat="44.17236" lon="5.44936">
        <ele>684</ele>
        <time>2026-05-13T11:09:23.000Z</time>
      </trkpt>
      <trkpt lat="44.17236" lon="5.44937">
        <ele>684</ele>
        <time>2026-05-13T11:09:24.000Z</time>
      </trkpt>
      <trkpt lat="44.17236" lon="5.44937">
        <ele>684</ele>
        <time>2026-05-13T11:09:25.000Z</time>
      </trkpt>
      <trkpt lat="44.17236" lon="5.44937">
        <ele>684</ele>
        <time>2026-05-13T11:09:26.000Z</time>
      </trkpt>
      <trkpt lat="44.17236" lon="5.44937">
        <ele>684</ele>
        <time>2026-05-13T11:09:27.000Z</time>
      </trkpt>
      <trkpt lat="44.17235" lon="5.44937">
        <ele>683</ele>
        <time>2026-05-13T11:09:28.000Z</time>
      </trkpt>
      <trkpt lat="44.17235" lon="5.44937">
        <ele>683</ele>
        <time>2026-05-13T11:09:29.000Z</time>
      </trkpt>
      <trkpt lat="44.17235" lon="5.44937">
        <ele>683</ele>
        <time>2026-05-13T11:09:30.000Z</time>
      </trkpt>
      <trkpt lat="44.17235" lon="5.44937">
        <ele>683</ele>
        <time>2026-05-13T11:09:31.000Z</time>
      </trkpt>
      <trkpt lat="44.17235" lon="5.44937">
        <ele>683</ele>
        <time>2026-05-13T11:09:32.000Z</time>
      </trkpt>
      <trkpt lat="44.17234" lon="5.44937">
        <ele>684</ele>
        <time>2026-05-13T11:09:33.000Z</time>
      </trkpt>
      <trkpt lat="44.17234" lon="5.44937">
        <ele>684</ele>
        <time>2026-05-13T11:09:34.000Z</time>
      </trkpt>
      <trkpt lat="44.17235" lon="5.44937">
        <ele>684</ele>
        <time>2026-05-13T11:09:35.000Z</time>
      </trkpt>
      <trkpt lat="44.17235" lon="5.44938">
        <ele>683</ele>
        <time>2026-05-13T11:09:36.000Z</time>
      </trkpt>
      <trkpt lat="44.17235" lon="5.44938">
        <ele>683</ele>
        <time>2026-05-13T11:09:37.000Z</time>
      </trkpt>
      <trkpt lat="44.17234" lon="5.44938">
        <ele>683</ele>
        <time>2026-05-13T11:09:38.000Z</time>
      </trkpt>
      <trkpt lat="44.17234" lon="5.44938">
        <ele>683</ele>
        <time>2026-05-13T11:09:39.000Z</time>
      </trkpt>
      <trkpt lat="44.17234" lon="5.44938">
        <ele>683</ele>
        <time>2026-05-13T11:09:40.000Z</time>
      </trkpt>
      <trkpt lat="44.17233" lon="5.44938">
        <ele>684</ele>
        <time>2026-05-13T11:09:41.000Z</time>
      </trkpt>
      <trkpt lat="44.17232" lon="5.44938">
        <ele>683</ele>
        <time>2026-05-13T11:09:42.000Z</time>
      </trkpt>
      <trkpt lat="44.17232" lon="5.44938">
        <ele>684</ele>
        <time>2026-05-13T11:09:43.000Z</time>
      </trkpt>
      <trkpt lat="44.17232" lon="5.44938">
        <ele>684</ele>
        <time>2026-05-13T11:09:44.000Z</time>
      </trkpt>
      <trkpt lat="44.17232" lon="5.44937">
        <ele>683</ele>
        <time>2026-05-13T11:09:45.000Z</time>
      </trkpt>
      <trkpt lat="44.17232" lon="5.44937">
        <ele>683</ele>
        <time>2026-05-13T11:09:46.000Z</time>
      </trkpt>
      <trkpt lat="44.17232" lon="5.44937">
        <ele>683</ele>
        <time>2026-05-13T11:09:47.000Z</time>
      </trkpt>
      <trkpt lat="44.17232" lon="5.44937">
        <ele>683</ele>
        <time>2026-05-13T11:09:48.000Z</time>
      </trkpt>
      <trkpt lat="44.17232" lon="5.44937">
        <ele>683</ele>
        <time>2026-05-13T11:09:49.000Z</time>
      </trkpt>
      <trkpt lat="44.17233" lon="5.44936">
        <ele>682</ele>
        <time>2026-05-13T11:09:50.000Z</time>
      </trkpt>
      <trkpt lat="44.17233" lon="5.44936">
        <ele>682</ele>
        <time>2026-05-13T11:09:51.000Z</time>
      </trkpt>
      <trkpt lat="44.17233" lon="5.44936">
        <ele>682</ele>
        <time>2026-05-13T11:09:52.000Z</time>
      </trkpt>
      <trkpt lat="44.17233" lon="5.44936">
        <ele>682</ele>
        <time>2026-05-13T11:09:53.000Z</time>
      </trkpt>
      <trkpt lat="44.17233" lon="5.44936">
        <ele>682</ele>
        <time>2026-05-13T11:09:54.000Z</time>
      </trkpt>
      <trkpt lat="44.17233" lon="5.44936">
        <ele>682</ele>
        <time>2026-05-13T11:09:55.000Z</time>
      </trkpt>
      <trkpt lat="44.17233" lon="5.44936">
        <ele>682</ele>
        <time>2026-05-13T11:09:56.000Z</time>
      </trkpt>
      <trkpt lat="44.17233" lon="5.44936">
        <ele>682</ele>
        <time>2026-05-13T11:09:57.000Z</time>
      </trkpt>
      <trkpt lat="44.17233" lon="5.44936">
        <ele>682</ele>
        <time>2026-05-13T11:09:58.000Z</time>
      </trkpt>
      <trkpt lat="44.17233" lon="5.44936">
        <ele>682</ele>
        <time>2026-05-13T11:09:59.000Z</time>
      </trkpt>
      <trkpt lat="44.17233" lon="5.44936">
        <ele>682</ele>
        <time>2026-05-13T11:10:00.000Z</time>
      </trkpt>
      <trkpt lat="44.17233" lon="5.44936">
        <ele>682</ele>
        <time>2026-05-13T11:10:01.000Z</time>
      </trkpt>
      <trkpt lat="44.17233" lon="5.44936">
        <ele>682</ele>
        <time>2026-05-13T11:10:02.000Z</time>
      </trkpt>
      <trkpt lat="44.17233" lon="5.44936">
        <ele>682</ele>
        <time>2026-05-13T11:10:03.000Z</time>
      </trkpt>
      <trkpt lat="44.17233" lon="5.44936">
        <ele>682</ele>
        <time>2026-05-13T11:10:04.000Z</time>
      </trkpt>
      <trkpt lat="44.17233" lon="5.44936">
        <ele>682</ele>
        <time>2026-05-13T11:10:05.000Z</time>
      </trkpt>
      <trkpt lat="44.17233" lon="5.44936">
        <ele>682</ele>
        <time>2026-05-13T11:10:06.000Z</time>
      </trkpt>
      <trkpt lat="44.17233" lon="5.44936">
        <ele>682</ele>
        <time>2026-05-13T11:10:07.000Z</time>
      </trkpt>
      <trkpt lat="44.17233" lon="5.44936">
        <ele>682</ele>
        <time>2026-05-13T11:10:08.000Z</time>
      </trkpt>
      <trkpt lat="44.17233" lon="5.44936">
        <ele>682</ele>
        <time>2026-05-13T11:10:09.000Z</time>
      </trkpt>
      <trkpt lat="44.17233" lon="5.44936">
        <ele>682</ele>
        <time>2026-05-13T11:10:10.000Z</time>
      </trkpt>
      <trkpt lat="44.17233" lon="5.44936">
        <ele>682</ele>
        <time>2026-05-13T11:10:11.000Z</time>
      </trkpt>
      <trkpt lat="44.17233" lon="5.44936">
        <ele>682</ele>
        <time>2026-05-13T11:10:12.000Z</time>
      </trkpt>
      <trkpt lat="44.17233" lon="5.44936">
        <ele>682</ele>
        <time>2026-05-13T11:10:13.000Z</time>
      </trkpt>
      <trkpt lat="44.17233" lon="5.44936">
        <ele>682</ele>
        <time>2026-05-13T11:10:14.000Z</time>
      </trkpt>
      <trkpt lat="44.17233" lon="5.44936">
        <ele>682</ele>
        <time>2026-05-13T11:10:15.000Z</time>
      </trkpt>
      <trkpt lat="44.17233" lon="5.44936">
        <ele>682</ele>
        <time>2026-05-13T11:10:16.000Z</time>
      </trkpt>
      <trkpt lat="44.17233" lon="5.44936">
        <ele>682</ele>
        <time>2026-05-13T11:10:17.000Z</time>
      </trkpt>
      <trkpt lat="44.17233" lon="5.44936">
        <ele>682</ele>
        <time>2026-05-13T11:10:18.000Z</time>
      </trkpt>
      <trkpt lat="44.17233" lon="5.44936">
        <ele>682</ele>
        <time>2026-05-13T11:10:19.000Z</time>
      </trkpt>
      <trkpt lat="44.17233" lon="5.44936">
        <ele>682</ele>
        <time>2026-05-13T11:10:20.000Z</time>
      </trkpt>
      <trkpt lat="44.17233" lon="5.44936">
        <ele>682</ele>
        <time>2026-05-13T11:10:21.000Z</time>
      </trkpt>
      <trkpt lat="44.17233" lon="5.44936">
        <ele>682</ele>
        <time>2026-05-13T11:10:22.000Z</time>
      </trkpt>
      <trkpt lat="44.17233" lon="5.44936">
        <ele>682</ele>
        <time>2026-05-13T11:10:23.000Z</time>
      </trkpt>
      <trkpt lat="44.17233" lon="5.44936">
        <ele>682</ele>
        <time>2026-05-13T11:10:24.000Z</time>
      </trkpt>
      <trkpt lat="44.17233" lon="5.44936">
        <ele>682</ele>
        <time>2026-05-13T11:10:25.000Z</time>
      </trkpt>
      <trkpt lat="44.17233" lon="5.44936">
        <ele>682</ele>
        <time>2026-05-13T11:10:26.000Z</time>
      </trkpt>
      <trkpt lat="44.17233" lon="5.44936">
        <ele>682</ele>
        <time>2026-05-13T11:10:27.000Z</time>
      </trkpt>
      <trkpt lat="44.17233" lon="5.44936">
        <ele>682</ele>
        <time>2026-05-13T11:10:28.000Z</time>
      </trkpt>
      <trkpt lat="44.17233" lon="5.44936">
        <ele>682</ele>
        <time>2026-05-13T11:10:29.000Z</time>
      </trkpt>
      <trkpt lat="44.17233" lon="5.44936">
        <ele>682</ele>
        <time>2026-05-13T11:10:30.000Z</time>
      </trkpt>
      <trkpt lat="44.17233" lon="5.44936">
        <ele>682</ele>
        <time>2026-05-13T11:10:31.000Z</time>
      </trkpt>
      <trkpt lat="44.17233" lon="5.44936">
        <ele>682</ele>
        <time>2026-05-13T11:10:32.000Z</time>
      </trkpt>
      <trkpt lat="44.17233" lon="5.44936">
        <ele>682</ele>
        <time>2026-05-13T11:10:33.000Z</time>
      </trkpt>
      <trkpt lat="44.17233" lon="5.44936">
        <ele>682</ele>
        <time>2026-05-13T11:10:34.000Z</time>
      </trkpt>
      <trkpt lat="44.17233" lon="5.44936">
        <ele>682</ele>
        <time>2026-05-13T11:10:35.000Z</time>
      </trkpt>
      <trkpt lat="44.17233" lon="5.44936">
        <ele>682</ele>
        <time>2026-05-13T11:10:36.000Z</time>
      </trkpt>
      <trkpt lat="44.17233" lon="5.44936">
        <ele>682</ele>
        <time>2026-05-13T11:10:37.000Z</time>
      </trkpt>
      <trkpt lat="44.17233" lon="5.44936">
        <ele>682</ele>
        <time>2026-05-13T11:10:38.000Z</time>
      </trkpt>
      <trkpt lat="44.17233" lon="5.44936">
        <ele>682</ele>
        <time>2026-05-13T11:10:39.000Z</time>
      </trkpt>
      <trkpt lat="44.17233" lon="5.44936">
        <ele>682</ele>
        <time>2026-05-13T11:10:40.000Z</time>
      </trkpt>
      <trkpt lat="44.17233" lon="5.44936">
        <ele>682</ele>
        <time>2026-05-13T11:10:41.000Z</time>
      </trkpt>
      <trkpt lat="44.17233" lon="5.44936">
        <ele>682</ele>
        <time>2026-05-13T11:10:42.000Z</time>
      </trkpt>
      <trkpt lat="44.17233" lon="5.44936">
        <ele>682</ele>
        <time>2026-05-13T11:10:43.000Z</time>
      </trkpt>
      <trkpt lat="44.17233" lon="5.44936">
        <ele>682</ele>
        <time>2026-05-13T11:10:44.000Z</time>
      </trkpt>
      <trkpt lat="44.17233" lon="5.44936">
        <ele>682</ele>
        <time>2026-05-13T11:10:45.000Z</time>
      </trkpt>
      <trkpt lat="44.17233" lon="5.44936">
        <ele>682</ele>
        <time>2026-05-13T11:10:46.000Z</time>
      </trkpt>
      <trkpt lat="44.17233" lon="5.44936">
        <ele>682</ele>
        <time>2026-05-13T11:10:47.000Z</time>
      </trkpt>
      <trkpt lat="44.17233" lon="5.44936">
        <ele>682</ele>
        <time>2026-05-13T11:10:48.000Z</time>
      </trkpt>
      <trkpt lat="44.17233" lon="5.44936">
        <ele>682</ele>
        <time>2026-05-13T11:10:49.000Z</time>
      </trkpt>
      <trkpt lat="44.17233" lon="5.44936">
        <ele>682</ele>
        <time>2026-05-13T11:10:50.000Z</time>
      </trkpt>
      <trkpt lat="44.17233" lon="5.44936">
        <ele>682</ele>
        <time>2026-05-13T11:10:51.000Z</time>
      </trkpt>
      <trkpt lat="44.17233" lon="5.44936">
        <ele>682</ele>
        <time>2026-05-13T11:10:52.000Z</time>
      </trkpt>
      <trkpt lat="44.17233" lon="5.44936">
        <ele>682</ele>
        <time>2026-05-13T11:10:53.000Z</time>
      </trkpt>
      <trkpt lat="44.17233" lon="5.44936">
        <ele>682</ele>
        <time>2026-05-13T11:10:54.000Z</time>
      </trkpt>
      <trkpt lat="44.17233" lon="5.44936">
        <ele>682</ele>
        <time>2026-05-13T11:10:55.000Z</time>
      </trkpt>
      <trkpt lat="44.17232" lon="5.44936">
        <ele>682</ele>
        <time>2026-05-13T11:10:56.000Z</time>
      </trkpt>
      <trkpt lat="44.17232" lon="5.44936">
        <ele>682</ele>
        <time>2026-05-13T11:10:57.000Z</time>
      </trkpt>
      <trkpt lat="44.17232" lon="5.44936">
        <ele>682</ele>
        <time>2026-05-13T11:10:58.000Z</time>
      </trkpt>
      <trkpt lat="44.17232" lon="5.44935">
        <ele>682</ele>
        <time>2026-05-13T11:10:59.000Z</time>
      </trkpt>
      <trkpt lat="44.17232" lon="5.44935">
        <ele>682</ele>
        <time>2026-05-13T11:11:00.000Z</time>
      </trkpt>
      <trkpt lat="44.17231" lon="5.44935">
        <ele>682</ele>
        <time>2026-05-13T11:11:01.000Z</time>
      </trkpt>
      <trkpt lat="44.1723" lon="5.44935">
        <ele>682</ele>
        <time>2026-05-13T11:11:02.000Z</time>
      </trkpt>
      <trkpt lat="44.1723" lon="5.44935">
        <ele>682</ele>
        <time>2026-05-13T11:11:03.000Z</time>
      </trkpt>
      <trkpt lat="44.1723" lon="5.44935">
        <ele>682</ele>
        <time>2026-05-13T11:11:04.000Z</time>
      </trkpt>
      <trkpt lat="44.1723" lon="5.44935">
        <ele>681</ele>
        <time>2026-05-13T11:11:05.000Z</time>
      </trkpt>
      <trkpt lat="44.1723" lon="5.44936">
        <ele>681</ele>
        <time>2026-05-13T11:11:06.000Z</time>
      </trkpt>
      <trkpt lat="44.1723" lon="5.44936">
        <ele>680</ele>
        <time>2026-05-13T11:11:07.000Z</time>
      </trkpt>
      <trkpt lat="44.1723" lon="5.44936">
        <ele>679</ele>
        <time>2026-05-13T11:11:08.000Z</time>
      </trkpt>
      <trkpt lat="44.17229" lon="5.44937">
        <ele>679</ele>
        <time>2026-05-13T11:11:09.000Z</time>
      </trkpt>
      <trkpt lat="44.17229" lon="5.44936">
        <ele>679</ele>
        <time>2026-05-13T11:11:10.000Z</time>
      </trkpt>
      <trkpt lat="44.17229" lon="5.44936">
        <ele>680</ele>
        <time>2026-05-13T11:11:11.000Z</time>
      </trkpt>
      <trkpt lat="44.1723" lon="5.44936">
        <ele>680</ele>
        <time>2026-05-13T11:11:12.000Z</time>
      </trkpt>
      <trkpt lat="44.1723" lon="5.44936">
        <ele>679</ele>
        <time>2026-05-13T11:11:13.000Z</time>
      </trkpt>
      <trkpt lat="44.1723" lon="5.44935">
        <ele>679</ele>
        <time>2026-05-13T11:11:14.000Z</time>
      </trkpt>
      <trkpt lat="44.17231" lon="5.44935">
        <ele>680</ele>
        <time>2026-05-13T11:11:15.000Z</time>
      </trkpt>
      <trkpt lat="44.17231" lon="5.44935">
        <ele>680</ele>
        <time>2026-05-13T11:11:16.000Z</time>
      </trkpt>
      <trkpt lat="44.17232" lon="5.44934">
        <ele>680</ele>
        <time>2026-05-13T11:11:17.000Z</time>
      </trkpt>
      <trkpt lat="44.17232" lon="5.44934">
        <ele>680</ele>
        <time>2026-05-13T11:11:18.000Z</time>
      </trkpt>
      <trkpt lat="44.17233" lon="5.44934">
        <ele>680</ele>
        <time>2026-05-13T11:11:19.000Z</time>
      </trkpt>
      <trkpt lat="44.17233" lon="5.44934">
        <ele>680</ele>
        <time>2026-05-13T11:11:20.000Z</time>
      </trkpt>
      <trkpt lat="44.17234" lon="5.44934">
        <ele>680</ele>
        <time>2026-05-13T11:11:21.000Z</time>
      </trkpt>
      <trkpt lat="44.17234" lon="5.44934">
        <ele>681</ele>
        <time>2026-05-13T11:11:22.000Z</time>
      </trkpt>
      <trkpt lat="44.17235" lon="5.44934">
        <ele>680</ele>
        <time>2026-05-13T11:11:23.000Z</time>
      </trkpt>
      <trkpt lat="44.17234" lon="5.44934">
        <ele>681</ele>
        <time>2026-05-13T11:11:24.000Z</time>
      </trkpt>
      <trkpt lat="44.17234" lon="5.44934">
        <ele>681</ele>
        <time>2026-05-13T11:11:25.000Z</time>
      </trkpt>
      <trkpt lat="44.17233" lon="5.44935">
        <ele>680</ele>
        <time>2026-05-13T11:11:26.000Z</time>
      </trkpt>
      <trkpt lat="44.17232" lon="5.44935">
        <ele>681</ele>
        <time>2026-05-13T11:11:27.000Z</time>
      </trkpt>
      <trkpt lat="44.17232" lon="5.44935">
        <ele>680</ele>
        <time>2026-05-13T11:11:28.000Z</time>
      </trkpt>
      <trkpt lat="44.17232" lon="5.44934">
        <ele>680</ele>
        <time>2026-05-13T11:11:29.000Z</time>
      </trkpt>
      <trkpt lat="44.17231" lon="5.44934">
        <ele>680</ele>
        <time>2026-05-13T11:11:30.000Z</time>
      </trkpt>
      <trkpt lat="44.17232" lon="5.44934">
        <ele>679</ele>
        <time>2026-05-13T11:11:31.000Z</time>
      </trkpt>
      <trkpt lat="44.17232" lon="5.44934">
        <ele>679</ele>
        <time>2026-05-13T11:11:32.000Z</time>
      </trkpt>
      <trkpt lat="44.17232" lon="5.44935">
        <ele>679</ele>
        <time>2026-05-13T11:11:33.000Z</time>
      </trkpt>
      <trkpt lat="44.17231" lon="5.44935">
        <ele>678</ele>
        <time>2026-05-13T11:11:34.000Z</time>
      </trkpt>
      <trkpt lat="44.17231" lon="5.44936">
        <ele>678</ele>
        <time>2026-05-13T11:11:35.000Z</time>
      </trkpt>
      <trkpt lat="44.17232" lon="5.44936">
        <ele>677</ele>
        <time>2026-05-13T11:11:36.000Z</time>
      </trkpt>
      <trkpt lat="44.17231" lon="5.44936">
        <ele>676</ele>
        <time>2026-05-13T11:11:37.000Z</time>
      </trkpt>
      <trkpt lat="44.1723" lon="5.44936">
        <ele>677</ele>
        <time>2026-05-13T11:11:38.000Z</time>
      </trkpt>
      <trkpt lat="44.1723" lon="5.44936">
        <ele>677</ele>
        <time>2026-05-13T11:11:39.000Z</time>
      </trkpt>
      <trkpt lat="44.17231" lon="5.44936">
        <ele>677</ele>
        <time>2026-05-13T11:11:40.000Z</time>
      </trkpt>
      <trkpt lat="44.17232" lon="5.44935">
        <ele>677</ele>
        <time>2026-05-13T11:11:41.000Z</time>
      </trkpt>
      <trkpt lat="44.17231" lon="5.44935">
        <ele>677</ele>
        <time>2026-05-13T11:11:42.000Z</time>
      </trkpt>
      <trkpt lat="44.17231" lon="5.44935">
        <ele>677</ele>
        <time>2026-05-13T11:11:43.000Z</time>
      </trkpt>
      <trkpt lat="44.17231" lon="5.44935">
        <ele>676</ele>
        <time>2026-05-13T11:11:44.000Z</time>
      </trkpt>
      <trkpt lat="44.1723" lon="5.44935">
        <ele>676</ele>
        <time>2026-05-13T11:11:45.000Z</time>
      </trkpt>
      <trkpt lat="44.1723" lon="5.44935">
        <ele>676</ele>
        <time>2026-05-13T11:11:46.000Z</time>
      </trkpt>
      <trkpt lat="44.17229" lon="5.44934">
        <ele>677</ele>
        <time>2026-05-13T11:11:47.000Z</time>
      </trkpt>
      <trkpt lat="44.1723" lon="5.44935">
        <ele>677</ele>
        <time>2026-05-13T11:11:48.000Z</time>
      </trkpt>
      <trkpt lat="44.1723" lon="5.44935">
        <ele>677</ele>
        <time>2026-05-13T11:11:49.000Z</time>
      </trkpt>
      <trkpt lat="44.1723" lon="5.44935">
        <ele>677</ele>
        <time>2026-05-13T11:11:50.000Z</time>
      </trkpt>
      <trkpt lat="44.1723" lon="5.44935">
        <ele>676</ele>
        <time>2026-05-13T11:11:51.000Z</time>
      </trkpt>
      <trkpt lat="44.1723" lon="5.44934">
        <ele>675</ele>
        <time>2026-05-13T11:11:52.000Z</time>
      </trkpt>
      <trkpt lat="44.17231" lon="5.44935">
        <ele>676</ele>
        <time>2026-05-13T11:11:53.000Z</time>
      </trkpt>
      <trkpt lat="44.17231" lon="5.44935">
        <ele>676</ele>
        <time>2026-05-13T11:11:54.000Z</time>
      </trkpt>
      <trkpt lat="44.17231" lon="5.44935">
        <ele>675</ele>
        <time>2026-05-13T11:11:55.000Z</time>
      </trkpt>
      <trkpt lat="44.17231" lon="5.44934">
        <ele>675</ele>
        <time>2026-05-13T11:11:56.000Z</time>
      </trkpt>
      <trkpt lat="44.17231" lon="5.44934">
        <ele>675</ele>
        <time>2026-05-13T11:11:57.000Z</time>
      </trkpt>
      <trkpt lat="44.17231" lon="5.44934">
        <ele>675</ele>
        <time>2026-05-13T11:11:58.000Z</time>
      </trkpt>
      <trkpt lat="44.17232" lon="5.44934">
        <ele>674</ele>
        <time>2026-05-13T11:11:59.000Z</time>
      </trkpt>
      <trkpt lat="44.17232" lon="5.44934">
        <ele>674</ele>
        <time>2026-05-13T11:12:00.000Z</time>
      </trkpt>
      <trkpt lat="44.17231" lon="5.44934">
        <ele>675</ele>
        <time>2026-05-13T11:12:01.000Z</time>
      </trkpt>
      <trkpt lat="44.17232" lon="5.44935">
        <ele>675</ele>
        <time>2026-05-13T11:12:02.000Z</time>
      </trkpt>
      <trkpt lat="44.17232" lon="5.44936">
        <ele>675</ele>
        <time>2026-05-13T11:12:03.000Z</time>
      </trkpt>
      <trkpt lat="44.17231" lon="5.44936">
        <ele>674</ele>
        <time>2026-05-13T11:12:04.000Z</time>
      </trkpt>
      <trkpt lat="44.17231" lon="5.44936">
        <ele>674</ele>
        <time>2026-05-13T11:12:05.000Z</time>
      </trkpt>
      <trkpt lat="44.17231" lon="5.44936">
        <ele>674</ele>
        <time>2026-05-13T11:12:06.000Z</time>
      </trkpt>
      <trkpt lat="44.17231" lon="5.44936">
        <ele>674</ele>
        <time>2026-05-13T11:12:07.000Z</time>
      </trkpt>
      <trkpt lat="44.17231" lon="5.44936">
        <ele>674</ele>
        <time>2026-05-13T11:12:08.000Z</time>
      </trkpt>
      <trkpt lat="44.17231" lon="5.44936">
        <ele>674</ele>
        <time>2026-05-13T11:12:09.000Z</time>
      </trkpt>
      <trkpt lat="44.17231" lon="5.44936">
        <ele>673</ele>
        <time>2026-05-13T11:12:10.000Z</time>
      </trkpt>
      <trkpt lat="44.17231" lon="5.44936">
        <ele>673</ele>
        <time>2026-05-13T11:12:11.000Z</time>
      </trkpt>
      <trkpt lat="44.1723" lon="5.44936">
        <ele>674</ele>
        <time>2026-05-13T11:12:12.000Z</time>
      </trkpt>
      <trkpt lat="44.1723" lon="5.44937">
        <ele>674</ele>
        <time>2026-05-13T11:12:13.000Z</time>
      </trkpt>
      <trkpt lat="44.17231" lon="5.44937">
        <ele>674</ele>
        <time>2026-05-13T11:12:14.000Z</time>
      </trkpt>
      <trkpt lat="44.17231" lon="5.44936">
        <ele>674</ele>
        <time>2026-05-13T11:12:15.000Z</time>
      </trkpt>
      <trkpt lat="44.17231" lon="5.44936">
        <ele>674</ele>
        <time>2026-05-13T11:12:16.000Z</time>
      </trkpt>
      <trkpt lat="44.17231" lon="5.44936">
        <ele>674</ele>
        <time>2026-05-13T11:12:17.000Z</time>
      </trkpt>
      <trkpt lat="44.17232" lon="5.44936">
        <ele>673</ele>
        <time>2026-05-13T11:12:18.000Z</time>
      </trkpt>
      <trkpt lat="44.17232" lon="5.44936">
        <ele>673</ele>
        <time>2026-05-13T11:12:19.000Z</time>
      </trkpt>
      <trkpt lat="44.17231" lon="5.44936">
        <ele>673</ele>
        <time>2026-05-13T11:12:20.000Z</time>
      </trkpt>
      <trkpt lat="44.17231" lon="5.44935">
        <ele>673</ele>
        <time>2026-05-13T11:12:21.000Z</time>
      </trkpt>
      <trkpt lat="44.17231" lon="5.44935">
        <ele>673</ele>
        <time>2026-05-13T11:12:22.000Z</time>
      </trkpt>
      <trkpt lat="44.1723" lon="5.44935">
        <ele>674</ele>
        <time>2026-05-13T11:12:23.000Z</time>
      </trkpt>
      <trkpt lat="44.1723" lon="5.44935">
        <ele>675</ele>
        <time>2026-05-13T11:12:24.000Z</time>
      </trkpt>
      <trkpt lat="44.17231" lon="5.44935">
        <ele>674</ele>
        <time>2026-05-13T11:12:25.000Z</time>
      </trkpt>
      <trkpt lat="44.17231" lon="5.44934">
        <ele>674</ele>
        <time>2026-05-13T11:12:26.000Z</time>
      </trkpt>
      <trkpt lat="44.17231" lon="5.44934">
        <ele>674</ele>
        <time>2026-05-13T11:12:27.000Z</time>
      </trkpt>
      <trkpt lat="44.17232" lon="5.44934">
        <ele>674</ele>
        <time>2026-05-13T11:12:28.000Z</time>
      </trkpt>
      <trkpt lat="44.17232" lon="5.44934">
        <ele>675</ele>
        <time>2026-05-13T11:12:29.000Z</time>
      </trkpt>
      <trkpt lat="44.17232" lon="5.44934">
        <ele>675</ele>
        <time>2026-05-13T11:12:30.000Z</time>
      </trkpt>
      <trkpt lat="44.17232" lon="5.44934">
        <ele>676</ele>
        <time>2026-05-13T11:12:31.000Z</time>
      </trkpt>
      <trkpt lat="44.17232" lon="5.44935">
        <ele>675</ele>
        <time>2026-05-13T11:12:32.000Z</time>
      </trkpt>
      <trkpt lat="44.17232" lon="5.44935">
        <ele>676</ele>
        <time>2026-05-13T11:12:33.000Z</time>
      </trkpt>
      <trkpt lat="44.17232" lon="5.44935">
        <ele>676</ele>
        <time>2026-05-13T11:12:34.000Z</time>
      </trkpt>
      <trkpt lat="44.17233" lon="5.44934">
        <ele>676</ele>
        <time>2026-05-13T11:12:35.000Z</time>
      </trkpt>
      <trkpt lat="44.17233" lon="5.44934">
        <ele>676</ele>
        <time>2026-05-13T11:12:36.000Z</time>
      </trkpt>
      <trkpt lat="44.17232" lon="5.44934">
        <ele>676</ele>
        <time>2026-05-13T11:12:37.000Z</time>
      </trkpt>
      <trkpt lat="44.17232" lon="5.44934">
        <ele>676</ele>
        <time>2026-05-13T11:12:38.000Z</time>
      </trkpt>
      <trkpt lat="44.17232" lon="5.44935">
        <ele>677</ele>
        <time>2026-05-13T11:12:39.000Z</time>
      </trkpt>
      <trkpt lat="44.17233" lon="5.44935">
        <ele>676</ele>
        <time>2026-05-13T11:12:40.000Z</time>
      </trkpt>
      <trkpt lat="44.17233" lon="5.44935">
        <ele>676</ele>
        <time>2026-05-13T11:12:41.000Z</time>
      </trkpt>
      <trkpt lat="44.17233" lon="5.44935">
        <ele>676</ele>
        <time>2026-05-13T11:12:42.000Z</time>
      </trkpt>
      <trkpt lat="44.17233" lon="5.44934">
        <ele>675</ele>
        <time>2026-05-13T11:12:43.000Z</time>
      </trkpt>
      <trkpt lat="44.17233" lon="5.44934">
        <ele>676</ele>
        <time>2026-05-13T11:12:44.000Z</time>
      </trkpt>
      <trkpt lat="44.17233" lon="5.44934">
        <ele>675</ele>
        <time>2026-05-13T11:12:45.000Z</time>
      </trkpt>
      <trkpt lat="44.17233" lon="5.44934">
        <ele>675</ele>
        <time>2026-05-13T11:12:46.000Z</time>
      </trkpt>
      <trkpt lat="44.17234" lon="5.44934">
        <ele>675</ele>
        <time>2026-05-13T11:12:47.000Z</time>
      </trkpt>
      <trkpt lat="44.17234" lon="5.44934">
        <ele>675</ele>
        <time>2026-05-13T11:12:48.000Z</time>
      </trkpt>
      <trkpt lat="44.17234" lon="5.44934">
        <ele>675</ele>
        <time>2026-05-13T11:12:49.000Z</time>
      </trkpt>
      <trkpt lat="44.17234" lon="5.44934">
        <ele>676</ele>
        <time>2026-05-13T11:12:50.000Z</time>
      </trkpt>
      <trkpt lat="44.17234" lon="5.44934">
        <ele>676</ele>
        <time>2026-05-13T11:12:51.000Z</time>
      </trkpt>
      <trkpt lat="44.17234" lon="5.44934">
        <ele>676</ele>
        <time>2026-05-13T11:12:52.000Z</time>
      </trkpt>
      <trkpt lat="44.17233" lon="5.44934">
        <ele>676</ele>
        <time>2026-05-13T11:12:53.000Z</time>
      </trkpt>
      <trkpt lat="44.17234" lon="5.44934">
        <ele>675</ele>
        <time>2026-05-13T11:12:54.000Z</time>
      </trkpt>
      <trkpt lat="44.17234" lon="5.44934">
        <ele>675</ele>
        <time>2026-05-13T11:12:55.000Z</time>
      </trkpt>
      <trkpt lat="44.17234" lon="5.44933">
        <ele>675</ele>
        <time>2026-05-13T11:12:56.000Z</time>
      </trkpt>
      <trkpt lat="44.17235" lon="5.44933">
        <ele>675</ele>
        <time>2026-05-13T11:12:57.000Z</time>
      </trkpt>
      <trkpt lat="44.17235" lon="5.44933">
        <ele>674</ele>
        <time>2026-05-13T11:12:58.000Z</time>
      </trkpt>
      <trkpt lat="44.17235" lon="5.44932">
        <ele>674</ele>
        <time>2026-05-13T11:12:59.000Z</time>
      </trkpt>
      <trkpt lat="44.17235" lon="5.44932">
        <ele>674</ele>
        <time>2026-05-13T11:13:00.000Z</time>
      </trkpt>
      <trkpt lat="44.17235" lon="5.44932">
        <ele>674</ele>
        <time>2026-05-13T11:13:01.000Z</time>
      </trkpt>
      <trkpt lat="44.17235" lon="5.44932">
        <ele>674</ele>
        <time>2026-05-13T11:13:02.000Z</time>
      </trkpt>
      <trkpt lat="44.17235" lon="5.44932">
        <ele>674</ele>
        <time>2026-05-13T11:13:03.000Z</time>
      </trkpt>
      <trkpt lat="44.17234" lon="5.44933">
        <ele>674</ele>
        <time>2026-05-13T11:13:04.000Z</time>
      </trkpt>
      <trkpt lat="44.17233" lon="5.44933">
        <ele>674</ele>
        <time>2026-05-13T11:13:05.000Z</time>
      </trkpt>
      <trkpt lat="44.17233" lon="5.44933">
        <ele>674</ele>
        <time>2026-05-13T11:13:06.000Z</time>
      </trkpt>
      <trkpt lat="44.17232" lon="5.44934">
        <ele>673</ele>
        <time>2026-05-13T11:13:07.000Z</time>
      </trkpt>
      <trkpt lat="44.17232" lon="5.44934">
        <ele>674</ele>
        <time>2026-05-13T11:13:08.000Z</time>
      </trkpt>
      <trkpt lat="44.17232" lon="5.44935">
        <ele>674</ele>
        <time>2026-05-13T11:13:09.000Z</time>
      </trkpt>
      <trkpt lat="44.17231" lon="5.44935">
        <ele>674</ele>
        <time>2026-05-13T11:13:10.000Z</time>
      </trkpt>
      <trkpt lat="44.17231" lon="5.44935">
        <ele>673</ele>
        <time>2026-05-13T11:13:11.000Z</time>
      </trkpt>
      <trkpt lat="44.17231" lon="5.44935">
        <ele>673</ele>
        <time>2026-05-13T11:13:12.000Z</time>
      </trkpt>
      <trkpt lat="44.17232" lon="5.44935">
        <ele>673</ele>
        <time>2026-05-13T11:13:13.000Z</time>
      </trkpt>
      <trkpt lat="44.17231" lon="5.44934">
        <ele>673</ele>
        <time>2026-05-13T11:13:14.000Z</time>
      </trkpt>
      <trkpt lat="44.17231" lon="5.44934">
        <ele>674</ele>
        <time>2026-05-13T11:13:15.000Z</time>
      </trkpt>
      <trkpt lat="44.17231" lon="5.44934">
        <ele>674</ele>
        <time>2026-05-13T11:13:16.000Z</time>
      </trkpt>
      <trkpt lat="44.17231" lon="5.44934">
        <ele>674</ele>
        <time>2026-05-13T11:13:17.000Z</time>
      </trkpt>
      <trkpt lat="44.17231" lon="5.44934">
        <ele>674</ele>
        <time>2026-05-13T11:13:18.000Z</time>
      </trkpt>
      <trkpt lat="44.17231" lon="5.44934">
        <ele>675</ele>
        <time>2026-05-13T11:13:19.000Z</time>
      </trkpt>
      <trkpt lat="44.17232" lon="5.44934">
        <ele>675</ele>
        <time>2026-05-13T11:13:20.000Z</time>
      </trkpt>
      <trkpt lat="44.17232" lon="5.44935">
        <ele>674</ele>
        <time>2026-05-13T11:13:21.000Z</time>
      </trkpt>
      <trkpt lat="44.17233" lon="5.44934">
        <ele>674</ele>
        <time>2026-05-13T11:13:22.000Z</time>
      </trkpt>
      <trkpt lat="44.17232" lon="5.44934">
        <ele>674</ele>
        <time>2026-05-13T11:13:23.000Z</time>
      </trkpt>
      <trkpt lat="44.17232" lon="5.44934">
        <ele>674</ele>
        <time>2026-05-13T11:13:24.000Z</time>
      </trkpt>
      <trkpt lat="44.17232" lon="5.44934">
        <ele>675</ele>
        <time>2026-05-13T11:13:25.000Z</time>
      </trkpt>
      <trkpt lat="44.17232" lon="5.44934">
        <ele>675</ele>
        <time>2026-05-13T11:13:26.000Z</time>
      </trkpt>
      <trkpt lat="44.17232" lon="5.44934">
        <ele>675</ele>
        <time>2026-05-13T11:13:27.000Z</time>
      </trkpt>
      <trkpt lat="44.17232" lon="5.44934">
        <ele>675</ele>
        <time>2026-05-13T11:13:28.000Z</time>
      </trkpt>
      <trkpt lat="44.17232" lon="5.44933">
        <ele>676</ele>
        <time>2026-05-13T11:13:29.000Z</time>
      </trkpt>
      <trkpt lat="44.17233" lon="5.44933">
        <ele>677</ele>
        <time>2026-05-13T11:13:30.000Z</time>
      </trkpt>
      <trkpt lat="44.17232" lon="5.44934">
        <ele>677</ele>
        <time>2026-05-13T11:13:31.000Z</time>
      </trkpt>
      <trkpt lat="44.17232" lon="5.44934">
        <ele>677</ele>
        <time>2026-05-13T11:13:32.000Z</time>
      </trkpt>
      <trkpt lat="44.17232" lon="5.44934">
        <ele>678</ele>
        <time>2026-05-13T11:13:33.000Z</time>
      </trkpt>
      <trkpt lat="44.17231" lon="5.44934">
        <ele>678</ele>
        <time>2026-05-13T11:13:34.000Z</time>
      </trkpt>
      <trkpt lat="44.17231" lon="5.44935">
        <ele>677</ele>
        <time>2026-05-13T11:13:35.000Z</time>
      </trkpt>
      <trkpt lat="44.17231" lon="5.44934">
        <ele>677</ele>
        <time>2026-05-13T11:13:36.000Z</time>
      </trkpt>
      <trkpt lat="44.1723" lon="5.44934">
        <ele>676</ele>
        <time>2026-05-13T11:13:37.000Z</time>
      </trkpt>
      <trkpt lat="44.1723" lon="5.44934">
        <ele>676</ele>
        <time>2026-05-13T11:13:38.000Z</time>
      </trkpt>
      <trkpt lat="44.1723" lon="5.44935">
        <ele>676</ele>
        <time>2026-05-13T11:13:39.000Z</time>
      </trkpt>
      <trkpt lat="44.1723" lon="5.44935">
        <ele>676</ele>
        <time>2026-05-13T11:13:40.000Z</time>
      </trkpt>
      <trkpt lat="44.1723" lon="5.44936">
        <ele>675</ele>
        <time>2026-05-13T11:13:41.000Z</time>
      </trkpt>
      <trkpt lat="44.1723" lon="5.44936">
        <ele>675</ele>
        <time>2026-05-13T11:13:42.000Z</time>
      </trkpt>
      <trkpt lat="44.1723" lon="5.44935">
        <ele>676</ele>
        <time>2026-05-13T11:13:43.000Z</time>
      </trkpt>
      <trkpt lat="44.1723" lon="5.44935">
        <ele>677</ele>
        <time>2026-05-13T11:13:44.000Z</time>
      </trkpt>
      <trkpt lat="44.1723" lon="5.44935">
        <ele>677</ele>
        <time>2026-05-13T11:13:45.000Z</time>
      </trkpt>
      <trkpt lat="44.1723" lon="5.44935">
        <ele>677</ele>
        <time>2026-05-13T11:13:46.000Z</time>
      </trkpt>
      <trkpt lat="44.1723" lon="5.44936">
        <ele>676</ele>
        <time>2026-05-13T11:13:47.000Z</time>
      </trkpt>
      <trkpt lat="44.1723" lon="5.44936">
        <ele>677</ele>
        <time>2026-05-13T11:13:48.000Z</time>
      </trkpt>
      <trkpt lat="44.1723" lon="5.44936">
        <ele>677</ele>
        <time>2026-05-13T11:13:49.000Z</time>
      </trkpt>
      <trkpt lat="44.17231" lon="5.44936">
        <ele>676</ele>
        <time>2026-05-13T11:13:50.000Z</time>
      </trkpt>
      <trkpt lat="44.1723" lon="5.44936">
        <ele>677</ele>
        <time>2026-05-13T11:13:51.000Z</time>
      </trkpt>
      <trkpt lat="44.1723" lon="5.44936">
        <ele>677</ele>
        <time>2026-05-13T11:13:52.000Z</time>
      </trkpt>
      <trkpt lat="44.1723" lon="5.44936">
        <ele>676</ele>
        <time>2026-05-13T11:13:53.000Z</time>
      </trkpt>
      <trkpt lat="44.17231" lon="5.44936">
        <ele>676</ele>
        <time>2026-05-13T11:13:54.000Z</time>
      </trkpt>
      <trkpt lat="44.17231" lon="5.44936">
        <ele>676</ele>
        <time>2026-05-13T11:13:55.000Z</time>
      </trkpt>
      <trkpt lat="44.17231" lon="5.44936">
        <ele>677</ele>
        <time>2026-05-13T11:13:56.000Z</time>
      </trkpt>
      <trkpt lat="44.17231" lon="5.44936">
        <ele>677</ele>
        <time>2026-05-13T11:13:57.000Z</time>
      </trkpt>
      <trkpt lat="44.17232" lon="5.44937">
        <ele>676</ele>
        <time>2026-05-13T11:13:58.000Z</time>
      </trkpt>
      <trkpt lat="44.17232" lon="5.44937">
        <ele>676</ele>
        <time>2026-05-13T11:13:59.000Z</time>
      </trkpt>
      <trkpt lat="44.17232" lon="5.44937">
        <ele>677</ele>
        <time>2026-05-13T11:14:00.000Z</time>
      </trkpt>
      <trkpt lat="44.17232" lon="5.44936">
        <ele>677</ele>
        <time>2026-05-13T11:14:01.000Z</time>
      </trkpt>
      <trkpt lat="44.17232" lon="5.44937">
        <ele>677</ele>
        <time>2026-05-13T11:14:02.000Z</time>
      </trkpt>
      <trkpt lat="44.17232" lon="5.44937">
        <ele>676</ele>
        <time>2026-05-13T11:14:03.000Z</time>
      </trkpt>
      <trkpt lat="44.17232" lon="5.44937">
        <ele>676</ele>
        <time>2026-05-13T11:14:04.000Z</time>
      </trkpt>
      <trkpt lat="44.17231" lon="5.44937">
        <ele>675</ele>
        <time>2026-05-13T11:14:05.000Z</time>
      </trkpt>
      <trkpt lat="44.17232" lon="5.44937">
        <ele>675</ele>
        <time>2026-05-13T11:14:06.000Z</time>
      </trkpt>
      <trkpt lat="44.17232" lon="5.44936">
        <ele>676</ele>
        <time>2026-05-13T11:14:07.000Z</time>
      </trkpt>
      <trkpt lat="44.17232" lon="5.44936">
        <ele>676</ele>
        <time>2026-05-13T11:14:08.000Z</time>
      </trkpt>
      <trkpt lat="44.17232" lon="5.44936">
        <ele>676</ele>
        <time>2026-05-13T11:14:09.000Z</time>
      </trkpt>
      <trkpt lat="44.17232" lon="5.44937">
        <ele>675</ele>
        <time>2026-05-13T11:14:10.000Z</time>
      </trkpt>
      <trkpt lat="44.17232" lon="5.44937">
        <ele>675</ele>
        <time>2026-05-13T11:14:11.000Z</time>
      </trkpt>
      <trkpt lat="44.17232" lon="5.44937">
        <ele>676</ele>
        <time>2026-05-13T11:14:12.000Z</time>
      </trkpt>
      <trkpt lat="44.17231" lon="5.44937">
        <ele>676</ele>
        <time>2026-05-13T11:14:13.000Z</time>
      </trkpt>
      <trkpt lat="44.17232" lon="5.44937">
        <ele>676</ele>
        <time>2026-05-13T11:14:14.000Z</time>
      </trkpt>
      <trkpt lat="44.17231" lon="5.44938">
        <ele>675</ele>
        <time>2026-05-13T11:14:15.000Z</time>
      </trkpt>
      <trkpt lat="44.17232" lon="5.44938">
        <ele>675</ele>
        <time>2026-05-13T11:14:16.000Z</time>
      </trkpt>
      <trkpt lat="44.17232" lon="5.44939">
        <ele>674</ele>
        <time>2026-05-13T11:14:17.000Z</time>
      </trkpt>
      <trkpt lat="44.17231" lon="5.44939">
        <ele>675</ele>
        <time>2026-05-13T11:14:18.000Z</time>
      </trkpt>
      <trkpt lat="44.17231" lon="5.44938">
        <ele>675</ele>
        <time>2026-05-13T11:14:19.000Z</time>
      </trkpt>
      <trkpt lat="44.17231" lon="5.44939">
        <ele>675</ele>
        <time>2026-05-13T11:14:20.000Z</time>
      </trkpt>
      <trkpt lat="44.17231" lon="5.44938">
        <ele>675</ele>
        <time>2026-05-13T11:14:21.000Z</time>
      </trkpt>
      <trkpt lat="44.17231" lon="5.44938">
        <ele>675</ele>
        <time>2026-05-13T11:14:22.000Z</time>
      </trkpt>
      <trkpt lat="44.17231" lon="5.44938">
        <ele>675</ele>
        <time>2026-05-13T11:14:23.000Z</time>
      </trkpt>
      <trkpt lat="44.17231" lon="5.44937">
        <ele>675</ele>
        <time>2026-05-13T11:14:24.000Z</time>
      </trkpt>
      <trkpt lat="44.17231" lon="5.44937">
        <ele>675</ele>
        <time>2026-05-13T11:14:25.000Z</time>
      </trkpt>
      <trkpt lat="44.17231" lon="5.44937">
        <ele>675</ele>
        <time>2026-05-13T11:14:26.000Z</time>
      </trkpt>
      <trkpt lat="44.17232" lon="5.44936">
        <ele>676</ele>
        <time>2026-05-13T11:14:27.000Z</time>
      </trkpt>
      <trkpt lat="44.17232" lon="5.44936">
        <ele>675</ele>
        <time>2026-05-13T11:14:28.000Z</time>
      </trkpt>
      <trkpt lat="44.17233" lon="5.44935">
        <ele>674</ele>
        <time>2026-05-13T11:14:29.000Z</time>
      </trkpt>
      <trkpt lat="44.17233" lon="5.44935">
        <ele>675</ele>
        <time>2026-05-13T11:14:30.000Z</time>
      </trkpt>
      <trkpt lat="44.17233" lon="5.44935">
        <ele>675</ele>
        <time>2026-05-13T11:14:31.000Z</time>
      </trkpt>
      <trkpt lat="44.17233" lon="5.44935">
        <ele>675</ele>
        <time>2026-05-13T11:14:32.000Z</time>
      </trkpt>
      <trkpt lat="44.17233" lon="5.44935">
        <ele>674</ele>
        <time>2026-05-13T11:14:33.000Z</time>
      </trkpt>
      <trkpt lat="44.17233" lon="5.44934">
        <ele>674</ele>
        <time>2026-05-13T11:14:34.000Z</time>
      </trkpt>
      <trkpt lat="44.17233" lon="5.44933">
        <ele>673</ele>
        <time>2026-05-13T11:14:35.000Z</time>
      </trkpt>
      <trkpt lat="44.17233" lon="5.44933">
        <ele>673</ele>
        <time>2026-05-13T11:14:36.000Z</time>
      </trkpt>
      <trkpt lat="44.17233" lon="5.44933">
        <ele>673</ele>
        <time>2026-05-13T11:14:37.000Z</time>
      </trkpt>
      <trkpt lat="44.17233" lon="5.44933">
        <ele>673</ele>
        <time>2026-05-13T11:14:38.000Z</time>
      </trkpt>
      <trkpt lat="44.17233" lon="5.44933">
        <ele>673</ele>
        <time>2026-05-13T11:14:39.000Z</time>
      </trkpt>
      <trkpt lat="44.17233" lon="5.44933">
        <ele>673</ele>
        <time>2026-05-13T11:14:40.000Z</time>
      </trkpt>
      <trkpt lat="44.17233" lon="5.44933">
        <ele>673</ele>
        <time>2026-05-13T11:14:41.000Z</time>
      </trkpt>
      <trkpt lat="44.17233" lon="5.44933">
        <ele>673</ele>
        <time>2026-05-13T11:14:42.000Z</time>
      </trkpt>
      <trkpt lat="44.17233" lon="5.44933">
        <ele>673</ele>
        <time>2026-05-13T11:14:43.000Z</time>
      </trkpt>
      <trkpt lat="44.17233" lon="5.44933">
        <ele>673</ele>
        <time>2026-05-13T11:14:44.000Z</time>
      </trkpt>
      <trkpt lat="44.17233" lon="5.44933">
        <ele>673</ele>
        <time>2026-05-13T11:14:45.000Z</time>
      </trkpt>
      <trkpt lat="44.17233" lon="5.44933">
        <ele>673</ele>
        <time>2026-05-13T11:14:46.000Z</time>
      </trkpt>
      <trkpt lat="44.17233" lon="5.44933">
        <ele>673</ele>
        <time>2026-05-13T11:14:47.000Z</time>
      </trkpt>
      <trkpt lat="44.17233" lon="5.44933">
        <ele>673</ele>
        <time>2026-05-13T11:14:48.000Z</time>
      </trkpt>
      <trkpt lat="44.17233" lon="5.44933">
        <ele>673</ele>
        <time>2026-05-13T11:14:49.000Z</time>
      </trkpt>
      <trkpt lat="44.17233" lon="5.44933">
        <ele>673</ele>
        <time>2026-05-13T11:14:50.000Z</time>
      </trkpt>
      <trkpt lat="44.17233" lon="5.44933">
        <ele>673</ele>
        <time>2026-05-13T11:14:51.000Z</time>
      </trkpt>
      <trkpt lat="44.17233" lon="5.44933">
        <ele>673</ele>
        <time>2026-05-13T11:14:52.000Z</time>
      </trkpt>
      <trkpt lat="44.17233" lon="5.44933">
        <ele>673</ele>
        <time>2026-05-13T11:14:53.000Z</time>
      </trkpt>
      <trkpt lat="44.17233" lon="5.44933">
        <ele>673</ele>
        <time>2026-05-13T11:14:54.000Z</time>
      </trkpt>
      <trkpt lat="44.17233" lon="5.44933">
        <ele>673</ele>
        <time>2026-05-13T11:14:55.000Z</time>
      </trkpt>
      <trkpt lat="44.17233" lon="5.44933">
        <ele>673</ele>
        <time>2026-05-13T11:14:56.000Z</time>
      </trkpt>
      <trkpt lat="44.17233" lon="5.44933">
        <ele>673</ele>
        <time>2026-05-13T11:14:57.000Z</time>
      </trkpt>
      <trkpt lat="44.17233" lon="5.44933">
        <ele>673</ele>
        <time>2026-05-13T11:14:58.000Z</time>
      </trkpt>
      <trkpt lat="44.17233" lon="5.44933">
        <ele>673</ele>
        <time>2026-05-13T11:14:59.000Z</time>
      </trkpt>
      <trkpt lat="44.17233" lon="5.44933">
        <ele>673</ele>
        <time>2026-05-13T11:15:00.000Z</time>
      </trkpt>
      <trkpt lat="44.17233" lon="5.44933">
        <ele>673</ele>
        <time>2026-05-13T11:15:01.000Z</time>
      </trkpt>
      <trkpt lat="44.17233" lon="5.44933">
        <ele>673</ele>
        <time>2026-05-13T11:15:02.000Z</time>
      </trkpt>
      <trkpt lat="44.17233" lon="5.44933">
        <ele>673</ele>
        <time>2026-05-13T11:15:03.000Z</time>
      </trkpt>
      <trkpt lat="44.17233" lon="5.44933">
        <ele>673</ele>
        <time>2026-05-13T11:15:04.000Z</time>
      </trkpt>
      <trkpt lat="44.17233" lon="5.44933">
        <ele>673</ele>
        <time>2026-05-13T11:15:05.000Z</time>
      </trkpt>
      <trkpt lat="44.17233" lon="5.44933">
        <ele>673</ele>
        <time>2026-05-13T11:15:06.000Z</time>
      </trkpt>
      <trkpt lat="44.17233" lon="5.44933">
        <ele>673</ele>
        <time>2026-05-13T11:15:07.000Z</time>
      </trkpt>
      <trkpt lat="44.17233" lon="5.44933">
        <ele>673</ele>
        <time>2026-05-13T11:15:08.000Z</time>
      </trkpt>
      <trkpt lat="44.17233" lon="5.44933">
        <ele>673</ele>
        <time>2026-05-13T11:15:09.000Z</time>
      </trkpt>
      <trkpt lat="44.17233" lon="5.44933">
        <ele>673</ele>
        <time>2026-05-13T11:15:10.000Z</time>
      </trkpt>
      <trkpt lat="44.17233" lon="5.44933">
        <ele>673</ele>
        <time>2026-05-13T11:15:11.000Z</time>
      </trkpt>
      <trkpt lat="44.17233" lon="5.44933">
        <ele>673</ele>
        <time>2026-05-13T11:15:12.000Z</time>
      </trkpt>
      <trkpt lat="44.17233" lon="5.44933">
        <ele>673</ele>
        <time>2026-05-13T11:15:13.000Z</time>
      </trkpt>
      <trkpt lat="44.17233" lon="5.44933">
        <ele>673</ele>
        <time>2026-05-13T11:15:14.000Z</time>
      </trkpt>
      <trkpt lat="44.17233" lon="5.44933">
        <ele>673</ele>
        <time>2026-05-13T11:15:15.000Z</time>
      </trkpt>
      <trkpt lat="44.17233" lon="5.44933">
        <ele>673</ele>
        <time>2026-05-13T11:15:16.000Z</time>
      </trkpt>
      <trkpt lat="44.17233" lon="5.44933">
        <ele>673</ele>
        <time>2026-05-13T11:15:17.000Z</time>
      </trkpt>
      <trkpt lat="44.17233" lon="5.44933">
        <ele>673</ele>
        <time>2026-05-13T11:15:18.000Z</time>
      </trkpt>
      <trkpt lat="44.17233" lon="5.44933">
        <ele>673</ele>
        <time>2026-05-13T11:15:19.000Z</time>
      </trkpt>
      <trkpt lat="44.17233" lon="5.44933">
        <ele>673</ele>
        <time>2026-05-13T11:15:20.000Z</time>
      </trkpt>
      <trkpt lat="44.17233" lon="5.44933">
        <ele>673</ele>
        <time>2026-05-13T11:15:21.000Z</time>
      </trkpt>
      <trkpt lat="44.17233" lon="5.44933">
        <ele>673</ele>
        <time>2026-05-13T11:15:22.000Z</time>
      </trkpt>
      <trkpt lat="44.17233" lon="5.44933">
        <ele>673</ele>
        <time>2026-05-13T11:15:23.000Z</time>
      </trkpt>
      <trkpt lat="44.17233" lon="5.44933">
        <ele>673</ele>
        <time>2026-05-13T11:15:24.000Z</time>
      </trkpt>
      <trkpt lat="44.17233" lon="5.44933">
        <ele>673</ele>
        <time>2026-05-13T11:15:25.000Z</time>
      </trkpt>
      <trkpt lat="44.17233" lon="5.44933">
        <ele>673</ele>
        <time>2026-05-13T11:15:26.000Z</time>
      </trkpt>
      <trkpt lat="44.17233" lon="5.44933">
        <ele>673</ele>
        <time>2026-05-13T11:15:27.000Z</time>
      </trkpt>
      <trkpt lat="44.17233" lon="5.44933">
        <ele>673</ele>
        <time>2026-05-13T11:15:28.000Z</time>
      </trkpt>
      <trkpt lat="44.17233" lon="5.44933">
        <ele>673</ele>
        <time>2026-05-13T11:15:29.000Z</time>
      </trkpt>
      <trkpt lat="44.17233" lon="5.44933">
        <ele>673</ele>
        <time>2026-05-13T11:15:30.000Z</time>
      </trkpt>
      <trkpt lat="44.17233" lon="5.44933">
        <ele>673</ele>
        <time>2026-05-13T11:15:31.000Z</time>
      </trkpt>
      <trkpt lat="44.17233" lon="5.44933">
        <ele>673</ele>
        <time>2026-05-13T11:15:32.000Z</time>
      </trkpt>
      <trkpt lat="44.17233" lon="5.44933">
        <ele>673</ele>
        <time>2026-05-13T11:15:33.000Z</time>
      </trkpt>
      <trkpt lat="44.17233" lon="5.44933">
        <ele>673</ele>
        <time>2026-05-13T11:15:34.000Z</time>
      </trkpt>
      <trkpt lat="44.17233" lon="5.44933">
        <ele>673</ele>
        <time>2026-05-13T11:15:35.000Z</time>
      </trkpt>
      <trkpt lat="44.17233" lon="5.44933">
        <ele>673</ele>
        <time>2026-05-13T11:15:36.000Z</time>
      </trkpt>
      <trkpt lat="44.17233" lon="5.44933">
        <ele>673</ele>
        <time>2026-05-13T11:15:37.000Z</time>
      </trkpt>
      <trkpt lat="44.17233" lon="5.44933">
        <ele>673</ele>
        <time>2026-05-13T11:15:38.000Z</time>
      </trkpt>
      <trkpt lat="44.17233" lon="5.44933">
        <ele>673</ele>
        <time>2026-05-13T11:15:39.000Z</time>
      </trkpt>
      <trkpt lat="44.17233" lon="5.44933">
        <ele>673</ele>
        <time>2026-05-13T11:15:40.000Z</time>
      </trkpt>
      <trkpt lat="44.17233" lon="5.44933">
        <ele>673</ele>
        <time>2026-05-13T11:15:41.000Z</time>
      </trkpt>
      <trkpt lat="44.17233" lon="5.44933">
        <ele>673</ele>
        <time>2026-05-13T11:15:42.000Z</time>
      </trkpt>
      <trkpt lat="44.17233" lon="5.44933">
        <ele>673</ele>
        <time>2026-05-13T11:15:43.000Z</time>
      </trkpt>
      <trkpt lat="44.17233" lon="5.44933">
        <ele>673</ele>
        <time>2026-05-13T11:15:44.000Z</time>
      </trkpt>
      <trkpt lat="44.17233" lon="5.44933">
        <ele>673</ele>
        <time>2026-05-13T11:15:45.000Z</time>
      </trkpt>
      <trkpt lat="44.17233" lon="5.44933">
        <ele>673</ele>
        <time>2026-05-13T11:15:46.000Z</time>
      </trkpt>
      <trkpt lat="44.17233" lon="5.44933">
        <ele>673</ele>
        <time>2026-05-13T11:15:47.000Z</time>
      </trkpt>
      <trkpt lat="44.17233" lon="5.44933">
        <ele>673</ele>
        <time>2026-05-13T11:15:48.000Z</time>
      </trkpt>
      <trkpt lat="44.17233" lon="5.44933">
        <ele>673</ele>
        <time>2026-05-13T11:15:49.000Z</time>
      </trkpt>
      <trkpt lat="44.17233" lon="5.44933">
        <ele>673</ele>
        <time>2026-05-13T11:15:50.000Z</time>
      </trkpt>
      <trkpt lat="44.17233" lon="5.44933">
        <ele>673</ele>
        <time>2026-05-13T11:15:51.000Z</time>
      </trkpt>
      <trkpt lat="44.17233" lon="5.44933">
        <ele>673</ele>
        <time>2026-05-13T11:15:52.000Z</time>
      </trkpt>
      <trkpt lat="44.17233" lon="5.44933">
        <ele>673</ele>
        <time>2026-05-13T11:15:53.000Z</time>
      </trkpt>
      <trkpt lat="44.17233" lon="5.44933">
        <ele>673</ele>
        <time>2026-05-13T11:15:54.000Z</time>
      </trkpt>
      <trkpt lat="44.17233" lon="5.44933">
        <ele>673</ele>
        <time>2026-05-13T11:15:55.000Z</time>
      </trkpt>
      <trkpt lat="44.17233" lon="5.44933">
        <ele>673</ele>
        <time>2026-05-13T11:15:56.000Z</time>
      </trkpt>
      <trkpt lat="44.17233" lon="5.44933">
        <ele>673</ele>
        <time>2026-05-13T11:15:57.000Z</time>
      </trkpt>
      <trkpt lat="44.17233" lon="5.44933">
        <ele>673</ele>
        <time>2026-05-13T11:15:58.000Z</time>
      </trkpt>
      <trkpt lat="44.17233" lon="5.44933">
        <ele>673</ele>
        <time>2026-05-13T11:15:59.000Z</time>
      </trkpt>
      <trkpt lat="44.17233" lon="5.44933">
        <ele>673</ele>
        <time>2026-05-13T11:16:00.000Z</time>
      </trkpt>
      <trkpt lat="44.17233" lon="5.44933">
        <ele>673</ele>
        <time>2026-05-13T11:16:01.000Z</time>
      </trkpt>
      <trkpt lat="44.17233" lon="5.44933">
        <ele>673</ele>
        <time>2026-05-13T11:16:02.000Z</time>
      </trkpt>
      <trkpt lat="44.17233" lon="5.44934">
        <ele>673</ele>
        <time>2026-05-13T11:16:03.000Z</time>
      </trkpt>
      <trkpt lat="44.17233" lon="5.44934">
        <ele>674</ele>
        <time>2026-05-13T11:16:04.000Z</time>
      </trkpt>
      <trkpt lat="44.17232" lon="5.44934">
        <ele>675</ele>
        <time>2026-05-13T11:16:05.000Z</time>
      </trkpt>
      <trkpt lat="44.17232" lon="5.44934">
        <ele>675</ele>
        <time>2026-05-13T11:16:06.000Z</time>
      </trkpt>
      <trkpt lat="44.17233" lon="5.44933">
        <ele>675</ele>
        <time>2026-05-13T11:16:07.000Z</time>
      </trkpt>
      <trkpt lat="44.17233" lon="5.44933">
        <ele>675</ele>
        <time>2026-05-13T11:16:08.000Z</time>
      </trkpt>
      <trkpt lat="44.17233" lon="5.44933">
        <ele>675</ele>
        <time>2026-05-13T11:16:09.000Z</time>
      </trkpt>
      <trkpt lat="44.17233" lon="5.44933">
        <ele>675</ele>
        <time>2026-05-13T11:16:10.000Z</time>
      </trkpt>
      <trkpt lat="44.17233" lon="5.44933">
        <ele>675</ele>
        <time>2026-05-13T11:16:11.000Z</time>
      </trkpt>
      <trkpt lat="44.17233" lon="5.44933">
        <ele>675</ele>
        <time>2026-05-13T11:16:12.000Z</time>
      </trkpt>
      <trkpt lat="44.17233" lon="5.44933">
        <ele>675</ele>
        <time>2026-05-13T11:16:13.000Z</time>
      </trkpt>
      <trkpt lat="44.17233" lon="5.44933">
        <ele>675</ele>
        <time>2026-05-13T11:16:14.000Z</time>
      </trkpt>
      <trkpt lat="44.17233" lon="5.44933">
        <ele>675</ele>
        <time>2026-05-13T11:16:15.000Z</time>
      </trkpt>
      <trkpt lat="44.17233" lon="5.44933">
        <ele>675</ele>
        <time>2026-05-13T11:16:16.000Z</time>
      </trkpt>
      <trkpt lat="44.17233" lon="5.44933">
        <ele>675</ele>
        <time>2026-05-13T11:16:17.000Z</time>
      </trkpt>
      <trkpt lat="44.17233" lon="5.44933">
        <ele>675</ele>
        <time>2026-05-13T11:16:18.000Z</time>
      </trkpt>
      <trkpt lat="44.17233" lon="5.44933">
        <ele>675</ele>
        <time>2026-05-13T11:16:19.000Z</time>
      </trkpt>
      <trkpt lat="44.17233" lon="5.44933">
        <ele>675</ele>
        <time>2026-05-13T11:16:20.000Z</time>
      </trkpt>
      <trkpt lat="44.17233" lon="5.44933">
        <ele>675</ele>
        <time>2026-05-13T11:16:21.000Z</time>
      </trkpt>
      <trkpt lat="44.17233" lon="5.44933">
        <ele>675</ele>
        <time>2026-05-13T11:16:22.000Z</time>
      </trkpt>
      <trkpt lat="44.17233" lon="5.44933">
        <ele>675</ele>
        <time>2026-05-13T11:16:23.000Z</time>
      </trkpt>
      <trkpt lat="44.17233" lon="5.44933">
        <ele>675</ele>
        <time>2026-05-13T11:16:24.000Z</time>
      </trkpt>
      <trkpt lat="44.17233" lon="5.44933">
        <ele>675</ele>
        <time>2026-05-13T11:16:25.000Z</time>
      </trkpt>
      <trkpt lat="44.17233" lon="5.44933">
        <ele>675</ele>
        <time>2026-05-13T11:16:26.000Z</time>
      </trkpt>
      <trkpt lat="44.17232" lon="5.44933">
        <ele>676</ele>
        <time>2026-05-13T11:16:27.000Z</time>
      </trkpt>
      <trkpt lat="44.17232" lon="5.44934">
        <ele>676</ele>
        <time>2026-05-13T11:16:28.000Z</time>
      </trkpt>
      <trkpt lat="44.17232" lon="5.44934">
        <ele>676</ele>
        <time>2026-05-13T11:16:29.000Z</time>
      </trkpt>
      <trkpt lat="44.17232" lon="5.44935">
        <ele>676</ele>
        <time>2026-05-13T11:16:30.000Z</time>
      </trkpt>
      <trkpt lat="44.17232" lon="5.44936">
        <ele>676</ele>
        <time>2026-05-13T11:16:31.000Z</time>
      </trkpt>
      <trkpt lat="44.17233" lon="5.44937">
        <ele>675</ele>
        <time>2026-05-13T11:16:32.000Z</time>
      </trkpt>
      <trkpt lat="44.17233" lon="5.44937">
        <ele>676</ele>
        <time>2026-05-13T11:16:33.000Z</time>
      </trkpt>
      <trkpt lat="44.17233" lon="5.44937">
        <ele>676</ele>
        <time>2026-05-13T11:16:34.000Z</time>
      </trkpt>
      <trkpt lat="44.17233" lon="5.44937">
        <ele>676</ele>
        <time>2026-05-13T11:16:35.000Z</time>
      </trkpt>
      <trkpt lat="44.17233" lon="5.44937">
        <ele>676</ele>
        <time>2026-05-13T11:16:36.000Z</time>
      </trkpt>
      <trkpt lat="44.17233" lon="5.44937">
        <ele>676</ele>
        <time>2026-05-13T11:16:37.000Z</time>
      </trkpt>
      <trkpt lat="44.17233" lon="5.44937">
        <ele>676</ele>
        <time>2026-05-13T11:16:38.000Z</time>
      </trkpt>
      <trkpt lat="44.17233" lon="5.44937">
        <ele>676</ele>
        <time>2026-05-13T11:16:39.000Z</time>
      </trkpt>
      <trkpt lat="44.17233" lon="5.44937">
        <ele>676</ele>
        <time>2026-05-13T11:16:40.000Z</time>
      </trkpt>
      <trkpt lat="44.17233" lon="5.44937">
        <ele>676</ele>
        <time>2026-05-13T11:16:41.000Z</time>
      </trkpt>
      <trkpt lat="44.17233" lon="5.44937">
        <ele>676</ele>
        <time>2026-05-13T11:16:42.000Z</time>
      </trkpt>
      <trkpt lat="44.17233" lon="5.44937">
        <ele>676</ele>
        <time>2026-05-13T11:16:43.000Z</time>
      </trkpt>
      <trkpt lat="44.17233" lon="5.44937">
        <ele>676</ele>
        <time>2026-05-13T11:16:44.000Z</time>
      </trkpt>
      <trkpt lat="44.17233" lon="5.44937">
        <ele>676</ele>
        <time>2026-05-13T11:16:45.000Z</time>
      </trkpt>
      <trkpt lat="44.17233" lon="5.44937">
        <ele>676</ele>
        <time>2026-05-13T11:16:46.000Z</time>
      </trkpt>
      <trkpt lat="44.17233" lon="5.44937">
        <ele>676</ele>
        <time>2026-05-13T11:16:47.000Z</time>
      </trkpt>
      <trkpt lat="44.17233" lon="5.44937">
        <ele>676</ele>
        <time>2026-05-13T11:16:48.000Z</time>
      </trkpt>
      <trkpt lat="44.17233" lon="5.44937">
        <ele>676</ele>
        <time>2026-05-13T11:16:49.000Z</time>
      </trkpt>
      <trkpt lat="44.17233" lon="5.44937">
        <ele>676</ele>
        <time>2026-05-13T11:16:50.000Z</time>
      </trkpt>
      <trkpt lat="44.17233" lon="5.44937">
        <ele>676</ele>
        <time>2026-05-13T11:16:51.000Z</time>
      </trkpt>
      <trkpt lat="44.17233" lon="5.44937">
        <ele>676</ele>
        <time>2026-05-13T11:16:52.000Z</time>
      </trkpt>
      <trkpt lat="44.17233" lon="5.44937">
        <ele>676</ele>
        <time>2026-05-13T11:16:53.000Z</time>
      </trkpt>
      <trkpt lat="44.17233" lon="5.44937">
        <ele>676</ele>
        <time>2026-05-13T11:16:54.000Z</time>
      </trkpt>
      <trkpt lat="44.17233" lon="5.44937">
        <ele>676</ele>
        <time>2026-05-13T11:16:55.000Z</time>
      </trkpt>
      <trkpt lat="44.17233" lon="5.44937">
        <ele>676</ele>
        <time>2026-05-13T11:16:56.000Z</time>
      </trkpt>
      <trkpt lat="44.17233" lon="5.44937">
        <ele>676</ele>
        <time>2026-05-13T11:16:57.000Z</time>
      </trkpt>
      <trkpt lat="44.17233" lon="5.44937">
        <ele>676</ele>
        <time>2026-05-13T11:16:58.000Z</time>
      </trkpt>
      <trkpt lat="44.17233" lon="5.44937">
        <ele>676</ele>
        <time>2026-05-13T11:16:59.000Z</time>
      </trkpt>
      <trkpt lat="44.17233" lon="5.44937">
        <ele>676</ele>
        <time>2026-05-13T11:17:00.000Z</time>
      </trkpt>
      <trkpt lat="44.17233" lon="5.44937">
        <ele>676</ele>
        <time>2026-05-13T11:17:01.000Z</time>
      </trkpt>
      <trkpt lat="44.17233" lon="5.44937">
        <ele>676</ele>
        <time>2026-05-13T11:17:02.000Z</time>
      </trkpt>
      <trkpt lat="44.17233" lon="5.44937">
        <ele>676</ele>
        <time>2026-05-13T11:17:03.000Z</time>
      </trkpt>
      <trkpt lat="44.17233" lon="5.44937">
        <ele>676</ele>
        <time>2026-05-13T11:17:04.000Z</time>
      </trkpt>
      <trkpt lat="44.17233" lon="5.44937">
        <ele>676</ele>
        <time>2026-05-13T11:17:05.000Z</time>
      </trkpt>
      <trkpt lat="44.17233" lon="5.44937">
        <ele>676</ele>
        <time>2026-05-13T11:17:06.000Z</time>
      </trkpt>
      <trkpt lat="44.17233" lon="5.44937">
        <ele>676</ele>
        <time>2026-05-13T11:17:07.000Z</time>
      </trkpt>
      <trkpt lat="44.17233" lon="5.44937">
        <ele>676</ele>
        <time>2026-05-13T11:17:08.000Z</time>
      </trkpt>
      <trkpt lat="44.17233" lon="5.44937">
        <ele>676</ele>
        <time>2026-05-13T11:17:09.000Z</time>
      </trkpt>
      <trkpt lat="44.17231" lon="5.44938">
        <ele>676</ele>
        <time>2026-05-13T11:17:10.000Z</time>
      </trkpt>
      <trkpt lat="44.17231" lon="5.44938">
        <ele>676</ele>
        <time>2026-05-13T11:17:11.000Z</time>
      </trkpt>
      <trkpt lat="44.17231" lon="5.44938">
        <ele>677</ele>
        <time>2026-05-13T11:17:12.000Z</time>
      </trkpt>
      <trkpt lat="44.17231" lon="5.44938">
        <ele>677</ele>
        <time>2026-05-13T11:17:13.000Z</time>
      </trkpt>
      <trkpt lat="44.17232" lon="5.44938">
        <ele>677</ele>
        <time>2026-05-13T11:17:14.000Z</time>
      </trkpt>
      <trkpt lat="44.17232" lon="5.44938">
        <ele>677</ele>
        <time>2026-05-13T11:17:15.000Z</time>
      </trkpt>
      <trkpt lat="44.17232" lon="5.44938">
        <ele>678</ele>
        <time>2026-05-13T11:17:16.000Z</time>
      </trkpt>
      <trkpt lat="44.17232" lon="5.44937">
        <ele>678</ele>
        <time>2026-05-13T11:17:17.000Z</time>
      </trkpt>
      <trkpt lat="44.17233" lon="5.44937">
        <ele>678</ele>
        <time>2026-05-13T11:17:18.000Z</time>
      </trkpt>
      <trkpt lat="44.17233" lon="5.44937">
        <ele>678</ele>
        <time>2026-05-13T11:17:19.000Z</time>
      </trkpt>
      <trkpt lat="44.17233" lon="5.44936">
        <ele>678</ele>
        <time>2026-05-13T11:17:20.000Z</time>
      </trkpt>
      <trkpt lat="44.17232" lon="5.44936">
        <ele>677</ele>
        <time>2026-05-13T11:17:21.000Z</time>
      </trkpt>
      <trkpt lat="44.17232" lon="5.44935">
        <ele>677</ele>
        <time>2026-05-13T11:17:22.000Z</time>
      </trkpt>
      <trkpt lat="44.17231" lon="5.44934">
        <ele>677</ele>
        <time>2026-05-13T11:17:23.000Z</time>
      </trkpt>
      <trkpt lat="44.17231" lon="5.44933">
        <ele>677</ele>
        <time>2026-05-13T11:17:24.000Z</time>
      </trkpt>
      <trkpt lat="44.17231" lon="5.44932">
        <ele>677</ele>
        <time>2026-05-13T11:17:25.000Z</time>
      </trkpt>
      <trkpt lat="44.17231" lon="5.44931">
        <ele>678</ele>
        <time>2026-05-13T11:17:26.000Z</time>
      </trkpt>
      <trkpt lat="44.17231" lon="5.44929">
        <ele>678</ele>
        <time>2026-05-13T11:17:27.000Z</time>
      </trkpt>
      <trkpt lat="44.17232" lon="5.44926">
        <ele>677</ele>
        <time>2026-05-13T11:17:28.000Z</time>
      </trkpt>
      <trkpt lat="44.17234" lon="5.44923">
        <ele>677</ele>
        <time>2026-05-13T11:17:29.000Z</time>
      </trkpt>
      <trkpt lat="44.17235" lon="5.4492">
        <ele>677</ele>
        <time>2026-05-13T11:17:30.000Z</time>
      </trkpt>
      <trkpt lat="44.17237" lon="5.44917">
        <ele>676</ele>
        <time>2026-05-13T11:17:31.000Z</time>
      </trkpt>
      <trkpt lat="44.17238" lon="5.44912">
        <ele>676</ele>
        <time>2026-05-13T11:17:32.000Z</time>
      </trkpt>
      <trkpt lat="44.17238" lon="5.44906">
        <ele>676</ele>
        <time>2026-05-13T11:17:33.000Z</time>
      </trkpt>
      <trkpt lat="44.17239" lon="5.449">
        <ele>675</ele>
        <time>2026-05-13T11:17:34.000Z</time>
      </trkpt>
      <trkpt lat="44.17239" lon="5.44894">
        <ele>674</ele>
        <time>2026-05-13T11:17:35.000Z</time>
      </trkpt>
      <trkpt lat="44.17238" lon="5.44887">
        <ele>673</ele>
        <time>2026-05-13T11:17:36.000Z</time>
      </trkpt>
      <trkpt lat="44.17236" lon="5.4488">
        <ele>671</ele>
        <time>2026-05-13T11:17:37.000Z</time>
      </trkpt>
      <trkpt lat="44.17234" lon="5.44872">
        <ele>670</ele>
        <time>2026-05-13T11:17:38.000Z</time>
      </trkpt>
      <trkpt lat="44.17232" lon="5.44865">
        <ele>669</ele>
        <time>2026-05-13T11:17:39.000Z</time>
      </trkpt>
      <trkpt lat="44.17231" lon="5.44858">
        <ele>668</ele>
        <time>2026-05-13T11:17:40.000Z</time>
      </trkpt>
      <trkpt lat="44.17229" lon="5.4485">
        <ele>667</ele>
        <time>2026-05-13T11:17:41.000Z</time>
      </trkpt>
      <trkpt lat="44.17228" lon="5.44842">
        <ele>666</ele>
        <time>2026-05-13T11:17:42.000Z</time>
      </trkpt>
      <trkpt lat="44.17229" lon="5.44834">
        <ele>665</ele>
        <time>2026-05-13T11:17:43.000Z</time>
      </trkpt>
      <trkpt lat="44.1723" lon="5.44824">
        <ele>665</ele>
        <time>2026-05-13T11:17:44.000Z</time>
      </trkpt>
      <trkpt lat="44.1723" lon="5.44814">
        <ele>664</ele>
        <time>2026-05-13T11:17:45.000Z</time>
      </trkpt>
      <trkpt lat="44.1723" lon="5.44803">
        <ele>663</ele>
        <time>2026-05-13T11:17:46.000Z</time>
      </trkpt>
      <trkpt lat="44.17227" lon="5.44792">
        <ele>663</ele>
        <time>2026-05-13T11:17:47.000Z</time>
      </trkpt>
      <trkpt lat="44.17223" lon="5.44783">
        <ele>663</ele>
        <time>2026-05-13T11:17:48.000Z</time>
      </trkpt>
      <trkpt lat="44.17219" lon="5.44773">
        <ele>663</ele>
        <time>2026-05-13T11:17:49.000Z</time>
      </trkpt>
      <trkpt lat="44.17215" lon="5.44763">
        <ele>662</ele>
        <time>2026-05-13T11:17:50.000Z</time>
      </trkpt>
      <trkpt lat="44.17215" lon="5.4475">
        <ele>661</ele>
        <time>2026-05-13T11:17:51.000Z</time>
      </trkpt>
      <trkpt lat="44.17214" lon="5.44739">
        <ele>661</ele>
        <time>2026-05-13T11:17:52.000Z</time>
      </trkpt>
      <trkpt lat="44.17216" lon="5.44728">
        <ele>661</ele>
        <time>2026-05-13T11:17:53.000Z</time>
      </trkpt>
      <trkpt lat="44.1722" lon="5.44718">
        <ele>661</ele>
        <time>2026-05-13T11:17:54.000Z</time>
      </trkpt>
      <trkpt lat="44.17226" lon="5.44709">
        <ele>660</ele>
        <time>2026-05-13T11:17:55.000Z</time>
      </trkpt>
      <trkpt lat="44.17231" lon="5.44701">
        <ele>660</ele>
        <time>2026-05-13T11:17:56.000Z</time>
      </trkpt>
      <trkpt lat="44.17238" lon="5.44694">
        <ele>660</ele>
        <time>2026-05-13T11:17:57.000Z</time>
      </trkpt>
      <trkpt lat="44.17246" lon="5.44689">
        <ele>659</ele>
        <time>2026-05-13T11:17:58.000Z</time>
      </trkpt>
      <trkpt lat="44.17252" lon="5.44683">
        <ele>659</ele>
        <time>2026-05-13T11:17:59.000Z</time>
      </trkpt>
      <trkpt lat="44.17257" lon="5.44674">
        <ele>659</ele>
        <time>2026-05-13T11:18:00.000Z</time>
      </trkpt>
      <trkpt lat="44.17258" lon="5.44665">
        <ele>658</ele>
        <time>2026-05-13T11:18:01.000Z</time>
      </trkpt>
      <trkpt lat="44.17257" lon="5.44656">
        <ele>657</ele>
        <time>2026-05-13T11:18:02.000Z</time>
      </trkpt>
      <trkpt lat="44.17256" lon="5.44647">
        <ele>656</ele>
        <time>2026-05-13T11:18:03.000Z</time>
      </trkpt>
      <trkpt lat="44.17255" lon="5.44638">
        <ele>655</ele>
        <time>2026-05-13T11:18:04.000Z</time>
      </trkpt>
      <trkpt lat="44.17254" lon="5.4463">
        <ele>655</ele>
        <time>2026-05-13T11:18:05.000Z</time>
      </trkpt>
      <trkpt lat="44.17253" lon="5.44621">
        <ele>655</ele>
        <time>2026-05-13T11:18:06.000Z</time>
      </trkpt>
      <trkpt lat="44.1725" lon="5.44614">
        <ele>655</ele>
        <time>2026-05-13T11:18:07.000Z</time>
      </trkpt>
      <trkpt lat="44.1725" lon="5.44607">
        <ele>655</ele>
        <time>2026-05-13T11:18:08.000Z</time>
      </trkpt>
      <trkpt lat="44.17253" lon="5.44602">
        <ele>655</ele>
        <time>2026-05-13T11:18:09.000Z</time>
      </trkpt>
      <trkpt lat="44.17257" lon="5.44597">
        <ele>655</ele>
        <time>2026-05-13T11:18:10.000Z</time>
      </trkpt>
      <trkpt lat="44.17262" lon="5.44595">
        <ele>655</ele>
        <time>2026-05-13T11:18:11.000Z</time>
      </trkpt>
      <trkpt lat="44.17267" lon="5.44595">
        <ele>655</ele>
        <time>2026-05-13T11:18:12.000Z</time>
      </trkpt>
      <trkpt lat="44.17271" lon="5.44594">
        <ele>655</ele>
        <time>2026-05-13T11:18:13.000Z</time>
      </trkpt>
      <trkpt lat="44.17276" lon="5.44594">
        <ele>655</ele>
        <time>2026-05-13T11:18:14.000Z</time>
      </trkpt>
      <trkpt lat="44.17281" lon="5.44596">
        <ele>655</ele>
        <time>2026-05-13T11:18:15.000Z</time>
      </trkpt>
      <trkpt lat="44.17284" lon="5.446">
        <ele>655</ele>
        <time>2026-05-13T11:18:16.000Z</time>
      </trkpt>
      <trkpt lat="44.17286" lon="5.44602">
        <ele>656</ele>
        <time>2026-05-13T11:18:17.000Z</time>
      </trkpt>
      <trkpt lat="44.17289" lon="5.44604">
        <ele>656</ele>
        <time>2026-05-13T11:18:18.000Z</time>
      </trkpt>
      <trkpt lat="44.1729" lon="5.44606">
        <ele>656</ele>
        <time>2026-05-13T11:18:19.000Z</time>
      </trkpt>
      <trkpt lat="44.17291" lon="5.44608">
        <ele>657</ele>
        <time>2026-05-13T11:18:20.000Z</time>
      </trkpt>
      <trkpt lat="44.17291" lon="5.44611">
        <ele>657</ele>
        <time>2026-05-13T11:18:21.000Z</time>
      </trkpt>
      <trkpt lat="44.1729" lon="5.44614">
        <ele>657</ele>
        <time>2026-05-13T11:18:22.000Z</time>
      </trkpt>
      <trkpt lat="44.1729" lon="5.44615">
        <ele>657</ele>
        <time>2026-05-13T11:18:23.000Z</time>
      </trkpt>
      <trkpt lat="44.17289" lon="5.44617">
        <ele>658</ele>
        <time>2026-05-13T11:18:24.000Z</time>
      </trkpt>
      <trkpt lat="44.17289" lon="5.44618">
        <ele>658</ele>
        <time>2026-05-13T11:18:25.000Z</time>
      </trkpt>
      <trkpt lat="44.17289" lon="5.44616">
        <ele>658</ele>
        <time>2026-05-13T11:18:26.000Z</time>
      </trkpt>
      <trkpt lat="44.17289" lon="5.44616">
        <ele>658</ele>
        <time>2026-05-13T11:18:27.000Z</time>
      </trkpt>
      <trkpt lat="44.17289" lon="5.44617">
        <ele>658</ele>
        <time>2026-05-13T11:18:28.000Z</time>
      </trkpt>
      <trkpt lat="44.17289" lon="5.44617">
        <ele>658</ele>
        <time>2026-05-13T11:18:29.000Z</time>
      </trkpt>
      <trkpt lat="44.17289" lon="5.44617">
        <ele>658</ele>
        <time>2026-05-13T11:18:30.000Z</time>
      </trkpt>
      <trkpt lat="44.17289" lon="5.44617">
        <ele>658</ele>
        <time>2026-05-13T11:18:31.000Z</time>
      </trkpt>
      <trkpt lat="44.17289" lon="5.44617">
        <ele>658</ele>
        <time>2026-05-13T11:18:32.000Z</time>
      </trkpt>
      <trkpt lat="44.17289" lon="5.44617">
        <ele>658</ele>
        <time>2026-05-13T11:18:33.000Z</time>
      </trkpt>
      <trkpt lat="44.17289" lon="5.44617">
        <ele>658</ele>
        <time>2026-05-13T11:18:34.000Z</time>
      </trkpt>
      <trkpt lat="44.17289" lon="5.44617">
        <ele>658</ele>
        <time>2026-05-13T11:18:35.000Z</time>
      </trkpt>
      <trkpt lat="44.17289" lon="5.44617">
        <ele>658</ele>
        <time>2026-05-13T11:18:36.000Z</time>
      </trkpt>
      <trkpt lat="44.17289" lon="5.44617">
        <ele>658</ele>
        <time>2026-05-13T11:18:37.000Z</time>
      </trkpt>
      <trkpt lat="44.17289" lon="5.44617">
        <ele>658</ele>
        <time>2026-05-13T11:18:38.000Z</time>
      </trkpt>
      <trkpt lat="44.17289" lon="5.44617">
        <ele>658</ele>
        <time>2026-05-13T11:18:39.000Z</time>
      </trkpt>
      <trkpt lat="44.17289" lon="5.44617">
        <ele>659</ele>
        <time>2026-05-13T11:18:40.000Z</time>
      </trkpt>
      <trkpt lat="44.17289" lon="5.44617">
        <ele>659</ele>
        <time>2026-05-13T11:18:41.000Z</time>
      </trkpt>
      <trkpt lat="44.17289" lon="5.44617">
        <ele>659</ele>
        <time>2026-05-13T11:18:42.000Z</time>
      </trkpt>
      <trkpt lat="44.1729" lon="5.44616">
        <ele>659</ele>
        <time>2026-05-13T11:18:43.000Z</time>
      </trkpt>
      <trkpt lat="44.17291" lon="5.44616">
        <ele>659</ele>
        <time>2026-05-13T11:18:44.000Z</time>
      </trkpt>
      <trkpt lat="44.17291" lon="5.44615">
        <ele>659</ele>
        <time>2026-05-13T11:18:45.000Z</time>
      </trkpt>
      <trkpt lat="44.1729" lon="5.44613">
        <ele>658</ele>
        <time>2026-05-13T11:18:46.000Z</time>
      </trkpt>
      <trkpt lat="44.17291" lon="5.4461">
        <ele>658</ele>
        <time>2026-05-13T11:18:47.000Z</time>
      </trkpt>
      <trkpt lat="44.1729" lon="5.44607">
        <ele>657</ele>
        <time>2026-05-13T11:18:48.000Z</time>
      </trkpt>
      <trkpt lat="44.17289" lon="5.44605">
        <ele>657</ele>
        <time>2026-05-13T11:18:49.000Z</time>
      </trkpt>
      <trkpt lat="44.17288" lon="5.44604">
        <ele>657</ele>
        <time>2026-05-13T11:18:50.000Z</time>
      </trkpt>
      <trkpt lat="44.17288" lon="5.44603">
        <ele>657</ele>
        <time>2026-05-13T11:18:51.000Z</time>
      </trkpt>
      <trkpt lat="44.17286" lon="5.44603">
        <ele>656</ele>
        <time>2026-05-13T11:18:52.000Z</time>
      </trkpt>
      <trkpt lat="44.17287" lon="5.44602">
        <ele>657</ele>
        <time>2026-05-13T11:18:53.000Z</time>
      </trkpt>
      <trkpt lat="44.17286" lon="5.44602">
        <ele>656</ele>
        <time>2026-05-13T11:18:54.000Z</time>
      </trkpt>
      <trkpt lat="44.17284" lon="5.446">
        <ele>656</ele>
        <time>2026-05-13T11:18:55.000Z</time>
      </trkpt>
      <trkpt lat="44.17284" lon="5.44597">
        <ele>656</ele>
        <time>2026-05-13T11:18:56.000Z</time>
      </trkpt>
      <trkpt lat="44.17284" lon="5.44594">
        <ele>656</ele>
        <time>2026-05-13T11:18:57.000Z</time>
      </trkpt>
      <trkpt lat="44.17286" lon="5.4459">
        <ele>656</ele>
        <time>2026-05-13T11:18:58.000Z</time>
      </trkpt>
      <trkpt lat="44.17287" lon="5.44587">
        <ele>656</ele>
        <time>2026-05-13T11:18:59.000Z</time>
      </trkpt>
      <trkpt lat="44.1729" lon="5.44583">
        <ele>656</ele>
        <time>2026-05-13T11:19:00.000Z</time>
      </trkpt>
      <trkpt lat="44.17292" lon="5.44579">
        <ele>655</ele>
        <time>2026-05-13T11:19:01.000Z</time>
      </trkpt>
      <trkpt lat="44.17294" lon="5.44575">
        <ele>655</ele>
        <time>2026-05-13T11:19:02.000Z</time>
      </trkpt>
      <trkpt lat="44.17297" lon="5.44573">
        <ele>655</ele>
        <time>2026-05-13T11:19:03.000Z</time>
      </trkpt>
      <trkpt lat="44.17299" lon="5.4457">
        <ele>655</ele>
        <time>2026-05-13T11:19:04.000Z</time>
      </trkpt>
      <trkpt lat="44.17303" lon="5.44568">
        <ele>655</ele>
        <time>2026-05-13T11:19:05.000Z</time>
      </trkpt>
      <trkpt lat="44.17306" lon="5.44564">
        <ele>655</ele>
        <time>2026-05-13T11:19:06.000Z</time>
      </trkpt>
      <trkpt lat="44.1731" lon="5.44562">
        <ele>655</ele>
        <time>2026-05-13T11:19:07.000Z</time>
      </trkpt>
      <trkpt lat="44.17313" lon="5.4456">
        <ele>655</ele>
        <time>2026-05-13T11:19:08.000Z</time>
      </trkpt>
      <trkpt lat="44.17317" lon="5.44556">
        <ele>655</ele>
        <time>2026-05-13T11:19:09.000Z</time>
      </trkpt>
      <trkpt lat="44.1732" lon="5.44553">
        <ele>655</ele>
        <time>2026-05-13T11:19:10.000Z</time>
      </trkpt>
      <trkpt lat="44.17325" lon="5.44551">
        <ele>655</ele>
        <time>2026-05-13T11:19:11.000Z</time>
      </trkpt>
      <trkpt lat="44.17329" lon="5.44548">
        <ele>655</ele>
        <time>2026-05-13T11:19:12.000Z</time>
      </trkpt>
      <trkpt lat="44.17333" lon="5.44545">
        <ele>655</ele>
        <time>2026-05-13T11:19:13.000Z</time>
      </trkpt>
      <trkpt lat="44.17337" lon="5.44541">
        <ele>655</ele>
        <time>2026-05-13T11:19:14.000Z</time>
      </trkpt>
      <trkpt lat="44.1734" lon="5.44539">
        <ele>655</ele>
        <time>2026-05-13T11:19:15.000Z</time>
      </trkpt>
      <trkpt lat="44.17344" lon="5.44536">
        <ele>655</ele>
        <time>2026-05-13T11:19:16.000Z</time>
      </trkpt>
      <trkpt lat="44.17348" lon="5.44534">
        <ele>655</ele>
        <time>2026-05-13T11:19:17.000Z</time>
      </trkpt>
      <trkpt lat="44.17351" lon="5.44531">
        <ele>655</ele>
        <time>2026-05-13T11:19:18.000Z</time>
      </trkpt>
      <trkpt lat="44.17354" lon="5.44528">
        <ele>655</ele>
        <time>2026-05-13T11:19:19.000Z</time>
      </trkpt>
      <trkpt lat="44.17358" lon="5.44526">
        <ele>654</ele>
        <time>2026-05-13T11:19:20.000Z</time>
      </trkpt>
      <trkpt lat="44.17361" lon="5.44523">
        <ele>654</ele>
        <time>2026-05-13T11:19:21.000Z</time>
      </trkpt>
      <trkpt lat="44.17364" lon="5.44521">
        <ele>654</ele>
        <time>2026-05-13T11:19:22.000Z</time>
      </trkpt>
      <trkpt lat="44.17367" lon="5.44518">
        <ele>654</ele>
        <time>2026-05-13T11:19:23.000Z</time>
      </trkpt>
      <trkpt lat="44.17371" lon="5.44516">
        <ele>653</ele>
        <time>2026-05-13T11:19:24.000Z</time>
      </trkpt>
      <trkpt lat="44.17375" lon="5.44514">
        <ele>653</ele>
        <time>2026-05-13T11:19:25.000Z</time>
      </trkpt>
      <trkpt lat="44.17379" lon="5.44512">
        <ele>653</ele>
        <time>2026-05-13T11:19:26.000Z</time>
      </trkpt>
      <trkpt lat="44.17383" lon="5.44511">
        <ele>654</ele>
        <time>2026-05-13T11:19:27.000Z</time>
      </trkpt>
      <trkpt lat="44.17387" lon="5.44511">
        <ele>653</ele>
        <time>2026-05-13T11:19:28.000Z</time>
      </trkpt>
      <trkpt lat="44.17391" lon="5.44511">
        <ele>654</ele>
        <time>2026-05-13T11:19:29.000Z</time>
      </trkpt>
      <trkpt lat="44.17395" lon="5.44511">
        <ele>654</ele>
        <time>2026-05-13T11:19:30.000Z</time>
      </trkpt>
      <trkpt lat="44.17399" lon="5.4451">
        <ele>654</ele>
        <time>2026-05-13T11:19:31.000Z</time>
      </trkpt>
      <trkpt lat="44.17403" lon="5.44511">
        <ele>654</ele>
        <time>2026-05-13T11:19:32.000Z</time>
      </trkpt>
      <trkpt lat="44.17407" lon="5.44511">
        <ele>654</ele>
        <time>2026-05-13T11:19:33.000Z</time>
      </trkpt>
      <trkpt lat="44.17412" lon="5.44511">
        <ele>654</ele>
        <time>2026-05-13T11:19:34.000Z</time>
      </trkpt>
      <trkpt lat="44.17416" lon="5.44512">
        <ele>654</ele>
        <time>2026-05-13T11:19:35.000Z</time>
      </trkpt>
      <trkpt lat="44.1742" lon="5.44512">
        <ele>653</ele>
        <time>2026-05-13T11:19:36.000Z</time>
      </trkpt>
      <trkpt lat="44.17424" lon="5.44512">
        <ele>653</ele>
        <time>2026-05-13T11:19:37.000Z</time>
      </trkpt>
      <trkpt lat="44.17429" lon="5.44513">
        <ele>653</ele>
        <time>2026-05-13T11:19:38.000Z</time>
      </trkpt>
      <trkpt lat="44.17435" lon="5.44514">
        <ele>653</ele>
        <time>2026-05-13T11:19:39.000Z</time>
      </trkpt>
      <trkpt lat="44.1744" lon="5.44515">
        <ele>653</ele>
        <time>2026-05-13T11:19:40.000Z</time>
      </trkpt>
      <trkpt lat="44.17445" lon="5.44514">
        <ele>653</ele>
        <time>2026-05-13T11:19:41.000Z</time>
      </trkpt>
      <trkpt lat="44.1745" lon="5.44514">
        <ele>652</ele>
        <time>2026-05-13T11:19:42.000Z</time>
      </trkpt>
      <trkpt lat="44.17455" lon="5.44513">
        <ele>652</ele>
        <time>2026-05-13T11:19:43.000Z</time>
      </trkpt>
      <trkpt lat="44.17461" lon="5.4451">
        <ele>652</ele>
        <time>2026-05-13T11:19:44.000Z</time>
      </trkpt>
      <trkpt lat="44.17466" lon="5.44509">
        <ele>652</ele>
        <time>2026-05-13T11:19:45.000Z</time>
      </trkpt>
      <trkpt lat="44.17471" lon="5.44507">
        <ele>651</ele>
        <time>2026-05-13T11:19:46.000Z</time>
      </trkpt>
      <trkpt lat="44.17476" lon="5.44505">
        <ele>651</ele>
        <time>2026-05-13T11:19:47.000Z</time>
      </trkpt>
      <trkpt lat="44.17481" lon="5.44501">
        <ele>650</ele>
        <time>2026-05-13T11:19:48.000Z</time>
      </trkpt>
      <trkpt lat="44.17485" lon="5.44497">
        <ele>651</ele>
        <time>2026-05-13T11:19:49.000Z</time>
      </trkpt>
      <trkpt lat="44.17488" lon="5.44492">
        <ele>651</ele>
        <time>2026-05-13T11:19:50.000Z</time>
      </trkpt>
      <trkpt lat="44.17491" lon="5.44488">
        <ele>651</ele>
        <time>2026-05-13T11:19:51.000Z</time>
      </trkpt>
      <trkpt lat="44.17494" lon="5.44484">
        <ele>651</ele>
        <time>2026-05-13T11:19:52.000Z</time>
      </trkpt>
      <trkpt lat="44.17498" lon="5.44479">
        <ele>651</ele>
        <time>2026-05-13T11:19:53.000Z</time>
      </trkpt>
      <trkpt lat="44.17503" lon="5.44475">
        <ele>652</ele>
        <time>2026-05-13T11:19:54.000Z</time>
      </trkpt>
      <trkpt lat="44.17506" lon="5.4447">
        <ele>652</ele>
        <time>2026-05-13T11:19:55.000Z</time>
      </trkpt>
      <trkpt lat="44.1751" lon="5.44465">
        <ele>652</ele>
        <time>2026-05-13T11:19:56.000Z</time>
      </trkpt>
      <trkpt lat="44.17512" lon="5.44461">
        <ele>652</ele>
        <time>2026-05-13T11:19:57.000Z</time>
      </trkpt>
      <trkpt lat="44.17515" lon="5.44459">
        <ele>651</ele>
        <time>2026-05-13T11:19:58.000Z</time>
      </trkpt>
      <trkpt lat="44.17519" lon="5.44456">
        <ele>650</ele>
        <time>2026-05-13T11:19:59.000Z</time>
      </trkpt>
      <trkpt lat="44.17522" lon="5.44454">
        <ele>650</ele>
        <time>2026-05-13T11:20:00.000Z</time>
      </trkpt>
      <trkpt lat="44.17526" lon="5.44451">
        <ele>651</ele>
        <time>2026-05-13T11:20:01.000Z</time>
      </trkpt>
      <trkpt lat="44.1753" lon="5.44449">
        <ele>652</ele>
        <time>2026-05-13T11:20:02.000Z</time>
      </trkpt>
      <trkpt lat="44.17534" lon="5.44445">
        <ele>652</ele>
        <time>2026-05-13T11:20:03.000Z</time>
      </trkpt>
      <trkpt lat="44.17539" lon="5.44444">
        <ele>652</ele>
        <time>2026-05-13T11:20:04.000Z</time>
      </trkpt>
      <trkpt lat="44.17543" lon="5.44444">
        <ele>652</ele>
        <time>2026-05-13T11:20:05.000Z</time>
      </trkpt>
      <trkpt lat="44.17546" lon="5.44444">
        <ele>652</ele>
        <time>2026-05-13T11:20:06.000Z</time>
      </trkpt>
      <trkpt lat="44.17549" lon="5.44444">
        <ele>652</ele>
        <time>2026-05-13T11:20:07.000Z</time>
      </trkpt>
      <trkpt lat="44.17553" lon="5.44444">
        <ele>653</ele>
        <time>2026-05-13T11:20:08.000Z</time>
      </trkpt>
      <trkpt lat="44.17556" lon="5.44444">
        <ele>653</ele>
        <time>2026-05-13T11:20:09.000Z</time>
      </trkpt>
      <trkpt lat="44.17558" lon="5.44444">
        <ele>653</ele>
        <time>2026-05-13T11:20:10.000Z</time>
      </trkpt>
      <trkpt lat="44.17561" lon="5.44444">
        <ele>654</ele>
        <time>2026-05-13T11:20:11.000Z</time>
      </trkpt>
      <trkpt lat="44.17562" lon="5.44443">
        <ele>654</ele>
        <time>2026-05-13T11:20:12.000Z</time>
      </trkpt>
      <trkpt lat="44.17564" lon="5.44442">
        <ele>654</ele>
        <time>2026-05-13T11:20:13.000Z</time>
      </trkpt>
      <trkpt lat="44.17565" lon="5.44439">
        <ele>653</ele>
        <time>2026-05-13T11:20:14.000Z</time>
      </trkpt>
      <trkpt lat="44.17566" lon="5.44436">
        <ele>652</ele>
        <time>2026-05-13T11:20:15.000Z</time>
      </trkpt>
      <trkpt lat="44.17566" lon="5.44432">
        <ele>651</ele>
        <time>2026-05-13T11:20:16.000Z</time>
      </trkpt>
      <trkpt lat="44.17565" lon="5.44427">
        <ele>651</ele>
        <time>2026-05-13T11:20:17.000Z</time>
      </trkpt>
      <trkpt lat="44.17564" lon="5.44422">
        <ele>651</ele>
        <time>2026-05-13T11:20:18.000Z</time>
      </trkpt>
      <trkpt lat="44.17563" lon="5.44418">
        <ele>651</ele>
        <time>2026-05-13T11:20:19.000Z</time>
      </trkpt>
      <trkpt lat="44.17562" lon="5.44414">
        <ele>651</ele>
        <time>2026-05-13T11:20:20.000Z</time>
      </trkpt>
      <trkpt lat="44.17561" lon="5.44409">
        <ele>651</ele>
        <time>2026-05-13T11:20:21.000Z</time>
      </trkpt>
      <trkpt lat="44.1756" lon="5.44403">
        <ele>652</ele>
        <time>2026-05-13T11:20:22.000Z</time>
      </trkpt>
      <trkpt lat="44.17559" lon="5.44398">
        <ele>652</ele>
        <time>2026-05-13T11:20:23.000Z</time>
      </trkpt>
      <trkpt lat="44.17557" lon="5.44393">
        <ele>652</ele>
        <time>2026-05-13T11:20:24.000Z</time>
      </trkpt>
      <trkpt lat="44.17556" lon="5.44388">
        <ele>653</ele>
        <time>2026-05-13T11:20:25.000Z</time>
      </trkpt>
      <trkpt lat="44.17556" lon="5.44383">
        <ele>653</ele>
        <time>2026-05-13T11:20:26.000Z</time>
      </trkpt>
      <trkpt lat="44.17556" lon="5.44378">
        <ele>654</ele>
        <time>2026-05-13T11:20:27.000Z</time>
      </trkpt>
      <trkpt lat="44.17555" lon="5.44372">
        <ele>654</ele>
        <time>2026-05-13T11:20:28.000Z</time>
      </trkpt>
      <trkpt lat="44.17554" lon="5.44366">
        <ele>654</ele>
        <time>2026-05-13T11:20:29.000Z</time>
      </trkpt>
      <trkpt lat="44.17554" lon="5.4436">
        <ele>655</ele>
        <time>2026-05-13T11:20:30.000Z</time>
      </trkpt>
      <trkpt lat="44.17554" lon="5.44354">
        <ele>655</ele>
        <time>2026-05-13T11:20:31.000Z</time>
      </trkpt>
      <trkpt lat="44.17553" lon="5.44348">
        <ele>656</ele>
        <time>2026-05-13T11:20:32.000Z</time>
      </trkpt>
      <trkpt lat="44.17551" lon="5.44343">
        <ele>657</ele>
        <time>2026-05-13T11:20:33.000Z</time>
      </trkpt>
      <trkpt lat="44.17551" lon="5.44337">
        <ele>657</ele>
        <time>2026-05-13T11:20:34.000Z</time>
      </trkpt>
      <trkpt lat="44.17549" lon="5.44332">
        <ele>656</ele>
        <time>2026-05-13T11:20:35.000Z</time>
      </trkpt>
      <trkpt lat="44.17549" lon="5.44327">
        <ele>657</ele>
        <time>2026-05-13T11:20:36.000Z</time>
      </trkpt>
      <trkpt lat="44.17548" lon="5.44321">
        <ele>657</ele>
        <time>2026-05-13T11:20:37.000Z</time>
      </trkpt>
      <trkpt lat="44.17546" lon="5.44315">
        <ele>658</ele>
        <time>2026-05-13T11:20:38.000Z</time>
      </trkpt>
      <trkpt lat="44.17544" lon="5.44309">
        <ele>659</ele>
        <time>2026-05-13T11:20:39.000Z</time>
      </trkpt>
      <trkpt lat="44.17544" lon="5.44304">
        <ele>659</ele>
        <time>2026-05-13T11:20:40.000Z</time>
      </trkpt>
      <trkpt lat="44.17542" lon="5.44299">
        <ele>659</ele>
        <time>2026-05-13T11:20:41.000Z</time>
      </trkpt>
      <trkpt lat="44.17542" lon="5.44293">
        <ele>659</ele>
        <time>2026-05-13T11:20:42.000Z</time>
      </trkpt>
      <trkpt lat="44.17542" lon="5.44287">
        <ele>658</ele>
        <time>2026-05-13T11:20:43.000Z</time>
      </trkpt>
      <trkpt lat="44.17542" lon="5.44282">
        <ele>658</ele>
        <time>2026-05-13T11:20:44.000Z</time>
      </trkpt>
      <trkpt lat="44.17542" lon="5.44275">
        <ele>658</ele>
        <time>2026-05-13T11:20:45.000Z</time>
      </trkpt>
      <trkpt lat="44.17541" lon="5.44268">
        <ele>658</ele>
        <time>2026-05-13T11:20:46.000Z</time>
      </trkpt>
      <trkpt lat="44.1754" lon="5.44261">
        <ele>657</ele>
        <time>2026-05-13T11:20:47.000Z</time>
      </trkpt>
      <trkpt lat="44.17539" lon="5.44255">
        <ele>657</ele>
        <time>2026-05-13T11:20:48.000Z</time>
      </trkpt>
      <trkpt lat="44.17538" lon="5.44247">
        <ele>657</ele>
        <time>2026-05-13T11:20:49.000Z</time>
      </trkpt>
      <trkpt lat="44.17537" lon="5.4424">
        <ele>657</ele>
        <time>2026-05-13T11:20:50.000Z</time>
      </trkpt>
      <trkpt lat="44.17536" lon="5.44231">
        <ele>657</ele>
        <time>2026-05-13T11:20:51.000Z</time>
      </trkpt>
      <trkpt lat="44.17535" lon="5.44224">
        <ele>656</ele>
        <time>2026-05-13T11:20:52.000Z</time>
      </trkpt>
      <trkpt lat="44.17534" lon="5.44216">
        <ele>656</ele>
        <time>2026-05-13T11:20:53.000Z</time>
      </trkpt>
      <trkpt lat="44.17533" lon="5.44208">
        <ele>656</ele>
        <time>2026-05-13T11:20:54.000Z</time>
      </trkpt>
      <trkpt lat="44.17531" lon="5.442">
        <ele>655</ele>
        <time>2026-05-13T11:20:55.000Z</time>
      </trkpt>
      <trkpt lat="44.17531" lon="5.44192">
        <ele>654</ele>
        <time>2026-05-13T11:20:56.000Z</time>
      </trkpt>
      <trkpt lat="44.1753" lon="5.44186">
        <ele>653</ele>
        <time>2026-05-13T11:20:57.000Z</time>
      </trkpt>
      <trkpt lat="44.17528" lon="5.44179">
        <ele>652</ele>
        <time>2026-05-13T11:20:58.000Z</time>
      </trkpt>
      <trkpt lat="44.17526" lon="5.44172">
        <ele>651</ele>
        <time>2026-05-13T11:20:59.000Z</time>
      </trkpt>
      <trkpt lat="44.17523" lon="5.44166">
        <ele>650</ele>
        <time>2026-05-13T11:21:00.000Z</time>
      </trkpt>
      <trkpt lat="44.17518" lon="5.44158">
        <ele>649</ele>
        <time>2026-05-13T11:21:01.000Z</time>
      </trkpt>
      <trkpt lat="44.17517" lon="5.44149">
        <ele>649</ele>
        <time>2026-05-13T11:21:02.000Z</time>
      </trkpt>
      <trkpt lat="44.17518" lon="5.4414">
        <ele>648</ele>
        <time>2026-05-13T11:21:03.000Z</time>
      </trkpt>
      <trkpt lat="44.17521" lon="5.44133">
        <ele>648</ele>
        <time>2026-05-13T11:21:04.000Z</time>
      </trkpt>
      <trkpt lat="44.17523" lon="5.44127">
        <ele>648</ele>
        <time>2026-05-13T11:21:05.000Z</time>
      </trkpt>
      <trkpt lat="44.17525" lon="5.44118">
        <ele>648</ele>
        <time>2026-05-13T11:21:06.000Z</time>
      </trkpt>
      <trkpt lat="44.17525" lon="5.44111">
        <ele>649</ele>
        <time>2026-05-13T11:21:07.000Z</time>
      </trkpt>
      <trkpt lat="44.17525" lon="5.44106">
        <ele>649</ele>
        <time>2026-05-13T11:21:08.000Z</time>
      </trkpt>
      <trkpt lat="44.17526" lon="5.44101">
        <ele>650</ele>
        <time>2026-05-13T11:21:09.000Z</time>
      </trkpt>
      <trkpt lat="44.17526" lon="5.44096">
        <ele>651</ele>
        <time>2026-05-13T11:21:10.000Z</time>
      </trkpt>
      <trkpt lat="44.17526" lon="5.44092">
        <ele>652</ele>
        <time>2026-05-13T11:21:11.000Z</time>
      </trkpt>
      <trkpt lat="44.17527" lon="5.44089">
        <ele>652</ele>
        <time>2026-05-13T11:21:12.000Z</time>
      </trkpt>
      <trkpt lat="44.17528" lon="5.44085">
        <ele>652</ele>
        <time>2026-05-13T11:21:13.000Z</time>
      </trkpt>
      <trkpt lat="44.17529" lon="5.44083">
        <ele>652</ele>
        <time>2026-05-13T11:21:14.000Z</time>
      </trkpt>
      <trkpt lat="44.17531" lon="5.44081">
        <ele>652</ele>
        <time>2026-05-13T11:21:15.000Z</time>
      </trkpt>
      <trkpt lat="44.17532" lon="5.44078">
        <ele>652</ele>
        <time>2026-05-13T11:21:16.000Z</time>
      </trkpt>
      <trkpt lat="44.17533" lon="5.44074">
        <ele>653</ele>
        <time>2026-05-13T11:21:17.000Z</time>
      </trkpt>
      <trkpt lat="44.17533" lon="5.44071">
        <ele>653</ele>
        <time>2026-05-13T11:21:18.000Z</time>
      </trkpt>
      <trkpt lat="44.17533" lon="5.44068">
        <ele>653</ele>
        <time>2026-05-13T11:21:19.000Z</time>
      </trkpt>
      <trkpt lat="44.17533" lon="5.44065">
        <ele>653</ele>
        <time>2026-05-13T11:21:20.000Z</time>
      </trkpt>
      <trkpt lat="44.17533" lon="5.44061">
        <ele>653</ele>
        <time>2026-05-13T11:21:21.000Z</time>
      </trkpt>
      <trkpt lat="44.17533" lon="5.44057">
        <ele>654</ele>
        <time>2026-05-13T11:21:22.000Z</time>
      </trkpt>
      <trkpt lat="44.17533" lon="5.44053">
        <ele>654</ele>
        <time>2026-05-13T11:21:23.000Z</time>
      </trkpt>
      <trkpt lat="44.17533" lon="5.4405">
        <ele>654</ele>
        <time>2026-05-13T11:21:24.000Z</time>
      </trkpt>
      <trkpt lat="44.17533" lon="5.44047">
        <ele>654</ele>
        <time>2026-05-13T11:21:25.000Z</time>
      </trkpt>
      <trkpt lat="44.17533" lon="5.44044">
        <ele>654</ele>
        <time>2026-05-13T11:21:26.000Z</time>
      </trkpt>
      <trkpt lat="44.17533" lon="5.44041">
        <ele>654</ele>
        <time>2026-05-13T11:21:27.000Z</time>
      </trkpt>
      <trkpt lat="44.17533" lon="5.44039">
        <ele>654</ele>
        <time>2026-05-13T11:21:28.000Z</time>
      </trkpt>
      <trkpt lat="44.17534" lon="5.44036">
        <ele>654</ele>
        <time>2026-05-13T11:21:29.000Z</time>
      </trkpt>
      <trkpt lat="44.17534" lon="5.44034">
        <ele>654</ele>
        <time>2026-05-13T11:21:30.000Z</time>
      </trkpt>
      <trkpt lat="44.17534" lon="5.44031">
        <ele>654</ele>
        <time>2026-05-13T11:21:31.000Z</time>
      </trkpt>
      <trkpt lat="44.17534" lon="5.44028">
        <ele>655</ele>
        <time>2026-05-13T11:21:32.000Z</time>
      </trkpt>
      <trkpt lat="44.17534" lon="5.44026">
        <ele>655</ele>
        <time>2026-05-13T11:21:33.000Z</time>
      </trkpt>
      <trkpt lat="44.17534" lon="5.44023">
        <ele>655</ele>
        <time>2026-05-13T11:21:34.000Z</time>
      </trkpt>
      <trkpt lat="44.17535" lon="5.4402">
        <ele>656</ele>
        <time>2026-05-13T11:21:35.000Z</time>
      </trkpt>
      <trkpt lat="44.17536" lon="5.44018">
        <ele>655</ele>
        <time>2026-05-13T11:21:36.000Z</time>
      </trkpt>
      <trkpt lat="44.17536" lon="5.44016">
        <ele>656</ele>
        <time>2026-05-13T11:21:37.000Z</time>
      </trkpt>
      <trkpt lat="44.17537" lon="5.44014">
        <ele>656</ele>
        <time>2026-05-13T11:21:38.000Z</time>
      </trkpt>
      <trkpt lat="44.17537" lon="5.44012">
        <ele>656</ele>
        <time>2026-05-13T11:21:39.000Z</time>
      </trkpt>
      <trkpt lat="44.17538" lon="5.4401">
        <ele>656</ele>
        <time>2026-05-13T11:21:40.000Z</time>
      </trkpt>
      <trkpt lat="44.17539" lon="5.44008">
        <ele>656</ele>
        <time>2026-05-13T11:21:41.000Z</time>
      </trkpt>
      <trkpt lat="44.17539" lon="5.44006">
        <ele>656</ele>
        <time>2026-05-13T11:21:42.000Z</time>
      </trkpt>
      <trkpt lat="44.1754" lon="5.44004">
        <ele>656</ele>
        <time>2026-05-13T11:21:43.000Z</time>
      </trkpt>
      <trkpt lat="44.17541" lon="5.44001">
        <ele>656</ele>
        <time>2026-05-13T11:21:44.000Z</time>
      </trkpt>
      <trkpt lat="44.17541" lon="5.43998">
        <ele>656</ele>
        <time>2026-05-13T11:21:45.000Z</time>
      </trkpt>
      <trkpt lat="44.17542" lon="5.43996">
        <ele>656</ele>
        <time>2026-05-13T11:21:46.000Z</time>
      </trkpt>
      <trkpt lat="44.17542" lon="5.43993">
        <ele>657</ele>
        <time>2026-05-13T11:21:47.000Z</time>
      </trkpt>
      <trkpt lat="44.17542" lon="5.43991">
        <ele>657</ele>
        <time>2026-05-13T11:21:48.000Z</time>
      </trkpt>
      <trkpt lat="44.17542" lon="5.43989">
        <ele>657</ele>
        <time>2026-05-13T11:21:49.000Z</time>
      </trkpt>
      <trkpt lat="44.17543" lon="5.43987">
        <ele>657</ele>
        <time>2026-05-13T11:21:50.000Z</time>
      </trkpt>
      <trkpt lat="44.17543" lon="5.43985">
        <ele>658</ele>
        <time>2026-05-13T11:21:51.000Z</time>
      </trkpt>
      <trkpt lat="44.17542" lon="5.43983">
        <ele>658</ele>
        <time>2026-05-13T11:21:52.000Z</time>
      </trkpt>
      <trkpt lat="44.17542" lon="5.43981">
        <ele>658</ele>
        <time>2026-05-13T11:21:53.000Z</time>
      </trkpt>
      <trkpt lat="44.17542" lon="5.4398">
        <ele>658</ele>
        <time>2026-05-13T11:21:54.000Z</time>
      </trkpt>
      <trkpt lat="44.17542" lon="5.43978">
        <ele>658</ele>
        <time>2026-05-13T11:21:55.000Z</time>
      </trkpt>
      <trkpt lat="44.17542" lon="5.43976">
        <ele>658</ele>
        <time>2026-05-13T11:21:56.000Z</time>
      </trkpt>
      <trkpt lat="44.17543" lon="5.43974">
        <ele>658</ele>
        <time>2026-05-13T11:21:57.000Z</time>
      </trkpt>
      <trkpt lat="44.17543" lon="5.43972">
        <ele>658</ele>
        <time>2026-05-13T11:21:58.000Z</time>
      </trkpt>
      <trkpt lat="44.17542" lon="5.43969">
        <ele>658</ele>
        <time>2026-05-13T11:21:59.000Z</time>
      </trkpt>
      <trkpt lat="44.17542" lon="5.43967">
        <ele>659</ele>
        <time>2026-05-13T11:22:00.000Z</time>
      </trkpt>
      <trkpt lat="44.17542" lon="5.43965">
        <ele>659</ele>
        <time>2026-05-13T11:22:01.000Z</time>
      </trkpt>
      <trkpt lat="44.17541" lon="5.43963">
        <ele>659</ele>
        <time>2026-05-13T11:22:02.000Z</time>
      </trkpt>
      <trkpt lat="44.1754" lon="5.4396">
        <ele>658</ele>
        <time>2026-05-13T11:22:03.000Z</time>
      </trkpt>
      <trkpt lat="44.17539" lon="5.43955">
        <ele>658</ele>
        <time>2026-05-13T11:22:04.000Z</time>
      </trkpt>
      <trkpt lat="44.17537" lon="5.43949">
        <ele>657</ele>
        <time>2026-05-13T11:22:05.000Z</time>
      </trkpt>
      <trkpt lat="44.17536" lon="5.43941">
        <ele>657</ele>
        <time>2026-05-13T11:22:06.000Z</time>
      </trkpt>
      <trkpt lat="44.17535" lon="5.43933">
        <ele>656</ele>
        <time>2026-05-13T11:22:07.000Z</time>
      </trkpt>
      <trkpt lat="44.17533" lon="5.43925">
        <ele>656</ele>
        <time>2026-05-13T11:22:08.000Z</time>
      </trkpt>
      <trkpt lat="44.17533" lon="5.43917">
        <ele>656</ele>
        <time>2026-05-13T11:22:09.000Z</time>
      </trkpt>
      <trkpt lat="44.17532" lon="5.43908">
        <ele>656</ele>
        <time>2026-05-13T11:22:10.000Z</time>
      </trkpt>
      <trkpt lat="44.17531" lon="5.43901">
        <ele>656</ele>
        <time>2026-05-13T11:22:11.000Z</time>
      </trkpt>
      <trkpt lat="44.17532" lon="5.43894">
        <ele>656</ele>
        <time>2026-05-13T11:22:12.000Z</time>
      </trkpt>
      <trkpt lat="44.17532" lon="5.43889">
        <ele>657</ele>
        <time>2026-05-13T11:22:13.000Z</time>
      </trkpt>
      <trkpt lat="44.17533" lon="5.43887">
        <ele>657</ele>
        <time>2026-05-13T11:22:14.000Z</time>
      </trkpt>
      <trkpt lat="44.17533" lon="5.43886">
        <ele>657</ele>
        <time>2026-05-13T11:22:15.000Z</time>
      </trkpt>
      <trkpt lat="44.17534" lon="5.43884">
        <ele>657</ele>
        <time>2026-05-13T11:22:16.000Z</time>
      </trkpt>
      <trkpt lat="44.17534" lon="5.43882">
        <ele>657</ele>
        <time>2026-05-13T11:22:17.000Z</time>
      </trkpt>
      <trkpt lat="44.17533" lon="5.4388">
        <ele>657</ele>
        <time>2026-05-13T11:22:18.000Z</time>
      </trkpt>
      <trkpt lat="44.17533" lon="5.43878">
        <ele>658</ele>
        <time>2026-05-13T11:22:19.000Z</time>
      </trkpt>
      <trkpt lat="44.17533" lon="5.43877">
        <ele>658</ele>
        <time>2026-05-13T11:22:20.000Z</time>
      </trkpt>
      <trkpt lat="44.17533" lon="5.43875">
        <ele>658</ele>
        <time>2026-05-13T11:22:21.000Z</time>
      </trkpt>
      <trkpt lat="44.17533" lon="5.43873">
        <ele>658</ele>
        <time>2026-05-13T11:22:22.000Z</time>
      </trkpt>
      <trkpt lat="44.17533" lon="5.43871">
        <ele>658</ele>
        <time>2026-05-13T11:22:23.000Z</time>
      </trkpt>
      <trkpt lat="44.17533" lon="5.43868">
        <ele>659</ele>
        <time>2026-05-13T11:22:24.000Z</time>
      </trkpt>
      <trkpt lat="44.17534" lon="5.43866">
        <ele>658</ele>
        <time>2026-05-13T11:22:25.000Z</time>
      </trkpt>
      <trkpt lat="44.17534" lon="5.43864">
        <ele>659</ele>
        <time>2026-05-13T11:22:26.000Z</time>
      </trkpt>
      <trkpt lat="44.17534" lon="5.43862">
        <ele>659</ele>
        <time>2026-05-13T11:22:27.000Z</time>
      </trkpt>
      <trkpt lat="44.17534" lon="5.4386">
        <ele>659</ele>
        <time>2026-05-13T11:22:28.000Z</time>
      </trkpt>
      <trkpt lat="44.17534" lon="5.43858">
        <ele>659</ele>
        <time>2026-05-13T11:22:29.000Z</time>
      </trkpt>
      <trkpt lat="44.17534" lon="5.43857">
        <ele>659</ele>
        <time>2026-05-13T11:22:30.000Z</time>
      </trkpt>
      <trkpt lat="44.17534" lon="5.43855">
        <ele>658</ele>
        <time>2026-05-13T11:22:31.000Z</time>
      </trkpt>
      <trkpt lat="44.17535" lon="5.43854">
        <ele>658</ele>
        <time>2026-05-13T11:22:32.000Z</time>
      </trkpt>
      <trkpt lat="44.17535" lon="5.43853">
        <ele>658</ele>
        <time>2026-05-13T11:22:33.000Z</time>
      </trkpt>
      <trkpt lat="44.17536" lon="5.43851">
        <ele>659</ele>
        <time>2026-05-13T11:22:34.000Z</time>
      </trkpt>
      <trkpt lat="44.17536" lon="5.4385">
        <ele>659</ele>
        <time>2026-05-13T11:22:35.000Z</time>
      </trkpt>
      <trkpt lat="44.17536" lon="5.43848">
        <ele>659</ele>
        <time>2026-05-13T11:22:36.000Z</time>
      </trkpt>
      <trkpt lat="44.17537" lon="5.43845">
        <ele>659</ele>
        <time>2026-05-13T11:22:37.000Z</time>
      </trkpt>
      <trkpt lat="44.17537" lon="5.43844">
        <ele>660</ele>
        <time>2026-05-13T11:22:38.000Z</time>
      </trkpt>
      <trkpt lat="44.17537" lon="5.43842">
        <ele>660</ele>
        <time>2026-05-13T11:22:39.000Z</time>
      </trkpt>
      <trkpt lat="44.17538" lon="5.4384">
        <ele>660</ele>
        <time>2026-05-13T11:22:40.000Z</time>
      </trkpt>
      <trkpt lat="44.17538" lon="5.43839">
        <ele>660</ele>
        <time>2026-05-13T11:22:41.000Z</time>
      </trkpt>
      <trkpt lat="44.17539" lon="5.43837">
        <ele>660</ele>
        <time>2026-05-13T11:22:42.000Z</time>
      </trkpt>
      <trkpt lat="44.17539" lon="5.43835">
        <ele>660</ele>
        <time>2026-05-13T11:22:43.000Z</time>
      </trkpt>
      <trkpt lat="44.1754" lon="5.43833">
        <ele>661</ele>
        <time>2026-05-13T11:22:44.000Z</time>
      </trkpt>
      <trkpt lat="44.1754" lon="5.43831">
        <ele>660</ele>
        <time>2026-05-13T11:22:45.000Z</time>
      </trkpt>
      <trkpt lat="44.17541" lon="5.43828">
        <ele>660</ele>
        <time>2026-05-13T11:22:46.000Z</time>
      </trkpt>
      <trkpt lat="44.1754" lon="5.43826">
        <ele>660</ele>
        <time>2026-05-13T11:22:47.000Z</time>
      </trkpt>
      <trkpt lat="44.1754" lon="5.43823">
        <ele>660</ele>
        <time>2026-05-13T11:22:48.000Z</time>
      </trkpt>
      <trkpt lat="44.17541" lon="5.4382">
        <ele>659</ele>
        <time>2026-05-13T11:22:49.000Z</time>
      </trkpt>
      <trkpt lat="44.17541" lon="5.43816">
        <ele>659</ele>
        <time>2026-05-13T11:22:50.000Z</time>
      </trkpt>
      <trkpt lat="44.17541" lon="5.43811">
        <ele>659</ele>
        <time>2026-05-13T11:22:51.000Z</time>
      </trkpt>
      <trkpt lat="44.17541" lon="5.43806">
        <ele>659</ele>
        <time>2026-05-13T11:22:52.000Z</time>
      </trkpt>
      <trkpt lat="44.17541" lon="5.43801">
        <ele>659</ele>
        <time>2026-05-13T11:22:53.000Z</time>
      </trkpt>
      <trkpt lat="44.17541" lon="5.43796">
        <ele>659</ele>
        <time>2026-05-13T11:22:54.000Z</time>
      </trkpt>
      <trkpt lat="44.1754" lon="5.43791">
        <ele>658</ele>
        <time>2026-05-13T11:22:55.000Z</time>
      </trkpt>
      <trkpt lat="44.1754" lon="5.43786">
        <ele>658</ele>
        <time>2026-05-13T11:22:56.000Z</time>
      </trkpt>
      <trkpt lat="44.17539" lon="5.4378">
        <ele>658</ele>
        <time>2026-05-13T11:22:57.000Z</time>
      </trkpt>
      <trkpt lat="44.17538" lon="5.43777">
        <ele>658</ele>
        <time>2026-05-13T11:22:58.000Z</time>
      </trkpt>
      <trkpt lat="44.17537" lon="5.43772">
        <ele>658</ele>
        <time>2026-05-13T11:22:59.000Z</time>
      </trkpt>
      <trkpt lat="44.17537" lon="5.4377">
        <ele>658</ele>
        <time>2026-05-13T11:23:00.000Z</time>
      </trkpt>
      <trkpt lat="44.17537" lon="5.43768">
        <ele>658</ele>
        <time>2026-05-13T11:23:01.000Z</time>
      </trkpt>
      <trkpt lat="44.17536" lon="5.43767">
        <ele>657</ele>
        <time>2026-05-13T11:23:02.000Z</time>
      </trkpt>
      <trkpt lat="44.17536" lon="5.43765">
        <ele>657</ele>
        <time>2026-05-13T11:23:03.000Z</time>
      </trkpt>
      <trkpt lat="44.17536" lon="5.43766">
        <ele>657</ele>
        <time>2026-05-13T11:23:04.000Z</time>
      </trkpt>
      <trkpt lat="44.17536" lon="5.43766">
        <ele>657</ele>
        <time>2026-05-13T11:23:05.000Z</time>
      </trkpt>
      <trkpt lat="44.17536" lon="5.43766">
        <ele>657</ele>
        <time>2026-05-13T11:23:06.000Z</time>
      </trkpt>
      <trkpt lat="44.17536" lon="5.43766">
        <ele>657</ele>
        <time>2026-05-13T11:23:07.000Z</time>
      </trkpt>
      <trkpt lat="44.17536" lon="5.43766">
        <ele>657</ele>
        <time>2026-05-13T11:23:08.000Z</time>
      </trkpt>
      <trkpt lat="44.17536" lon="5.43765">
        <ele>657</ele>
        <time>2026-05-13T11:23:09.000Z</time>
      </trkpt>
      <trkpt lat="44.17536" lon="5.43765">
        <ele>657</ele>
        <time>2026-05-13T11:23:10.000Z</time>
      </trkpt>
      <trkpt lat="44.17535" lon="5.43765">
        <ele>657</ele>
        <time>2026-05-13T11:23:11.000Z</time>
      </trkpt>
      <trkpt lat="44.17535" lon="5.43764">
        <ele>657</ele>
        <time>2026-05-13T11:23:12.000Z</time>
      </trkpt>
      <trkpt lat="44.17535" lon="5.43764">
        <ele>657</ele>
        <time>2026-05-13T11:23:13.000Z</time>
      </trkpt>
      <trkpt lat="44.17535" lon="5.43763">
        <ele>656</ele>
        <time>2026-05-13T11:23:14.000Z</time>
      </trkpt>
      <trkpt lat="44.17535" lon="5.43762">
        <ele>656</ele>
        <time>2026-05-13T11:23:15.000Z</time>
      </trkpt>
      <trkpt lat="44.17535" lon="5.43762">
        <ele>655</ele>
        <time>2026-05-13T11:23:16.000Z</time>
      </trkpt>
      <trkpt lat="44.17535" lon="5.43761">
        <ele>654</ele>
        <time>2026-05-13T11:23:17.000Z</time>
      </trkpt>
      <trkpt lat="44.17535" lon="5.43761">
        <ele>654</ele>
        <time>2026-05-13T11:23:18.000Z</time>
      </trkpt>
      <trkpt lat="44.17535" lon="5.43761">
        <ele>654</ele>
        <time>2026-05-13T11:23:19.000Z</time>
      </trkpt>
      <trkpt lat="44.17535" lon="5.43759">
        <ele>653</ele>
        <time>2026-05-13T11:23:20.000Z</time>
      </trkpt>
      <trkpt lat="44.17535" lon="5.43758">
        <ele>653</ele>
        <time>2026-05-13T11:23:21.000Z</time>
      </trkpt>
      <trkpt lat="44.17535" lon="5.43758">
        <ele>653</ele>
        <time>2026-05-13T11:23:22.000Z</time>
      </trkpt>
      <trkpt lat="44.17535" lon="5.43759">
        <ele>654</ele>
        <time>2026-05-13T11:23:23.000Z</time>
      </trkpt>
      <trkpt lat="44.17535" lon="5.43758">
        <ele>654</ele>
        <time>2026-05-13T11:23:24.000Z</time>
      </trkpt>
      <trkpt lat="44.17534" lon="5.43757">
        <ele>654</ele>
        <time>2026-05-13T11:23:25.000Z</time>
      </trkpt>
      <trkpt lat="44.17534" lon="5.43756">
        <ele>653</ele>
        <time>2026-05-13T11:23:26.000Z</time>
      </trkpt>
      <trkpt lat="44.17534" lon="5.43756">
        <ele>653</ele>
        <time>2026-05-13T11:23:27.000Z</time>
      </trkpt>
      <trkpt lat="44.17534" lon="5.43755">
        <ele>652</ele>
        <time>2026-05-13T11:23:28.000Z</time>
      </trkpt>
      <trkpt lat="44.17534" lon="5.43754">
        <ele>652</ele>
        <time>2026-05-13T11:23:29.000Z</time>
      </trkpt>
      <trkpt lat="44.17534" lon="5.43751">
        <ele>652</ele>
        <time>2026-05-13T11:23:30.000Z</time>
      </trkpt>
      <trkpt lat="44.17533" lon="5.43746">
        <ele>652</ele>
        <time>2026-05-13T11:23:31.000Z</time>
      </trkpt>
      <trkpt lat="44.17534" lon="5.4374">
        <ele>651</ele>
        <time>2026-05-13T11:23:32.000Z</time>
      </trkpt>
      <trkpt lat="44.17534" lon="5.43733">
        <ele>651</ele>
        <time>2026-05-13T11:23:33.000Z</time>
      </trkpt>
      <trkpt lat="44.17533" lon="5.43727">
        <ele>651</ele>
        <time>2026-05-13T11:23:34.000Z</time>
      </trkpt>
      <trkpt lat="44.17532" lon="5.4372">
        <ele>650</ele>
        <time>2026-05-13T11:23:35.000Z</time>
      </trkpt>
      <trkpt lat="44.17531" lon="5.43713">
        <ele>649</ele>
        <time>2026-05-13T11:23:36.000Z</time>
      </trkpt>
      <trkpt lat="44.17529" lon="5.43705">
        <ele>649</ele>
        <time>2026-05-13T11:23:37.000Z</time>
      </trkpt>
      <trkpt lat="44.17528" lon="5.43698">
        <ele>648</ele>
        <time>2026-05-13T11:23:38.000Z</time>
      </trkpt>
      <trkpt lat="44.17528" lon="5.43689">
        <ele>646</ele>
        <time>2026-05-13T11:23:39.000Z</time>
      </trkpt>
      <trkpt lat="44.17527" lon="5.43679">
        <ele>644</ele>
        <time>2026-05-13T11:23:40.000Z</time>
      </trkpt>
      <trkpt lat="44.17526" lon="5.4367">
        <ele>642</ele>
        <time>2026-05-13T11:23:41.000Z</time>
      </trkpt>
      <trkpt lat="44.17526" lon="5.43663">
        <ele>641</ele>
        <time>2026-05-13T11:23:42.000Z</time>
      </trkpt>
      <trkpt lat="44.17524" lon="5.43656">
        <ele>640</ele>
        <time>2026-05-13T11:23:43.000Z</time>
      </trkpt>
      <trkpt lat="44.17523" lon="5.43648">
        <ele>640</ele>
        <time>2026-05-13T11:23:44.000Z</time>
      </trkpt>
      <trkpt lat="44.17524" lon="5.43638">
        <ele>639</ele>
        <time>2026-05-13T11:23:45.000Z</time>
      </trkpt>
      <trkpt lat="44.17526" lon="5.43629">
        <ele>639</ele>
        <time>2026-05-13T11:23:46.000Z</time>
      </trkpt>
      <trkpt lat="44.17527" lon="5.43621">
        <ele>638</ele>
        <time>2026-05-13T11:23:47.000Z</time>
      </trkpt>
      <trkpt lat="44.17528" lon="5.43612">
        <ele>637</ele>
        <time>2026-05-13T11:23:48.000Z</time>
      </trkpt>
      <trkpt lat="44.17529" lon="5.43603">
        <ele>637</ele>
        <time>2026-05-13T11:23:49.000Z</time>
      </trkpt>
      <trkpt lat="44.17532" lon="5.43595">
        <ele>637</ele>
        <time>2026-05-13T11:23:50.000Z</time>
      </trkpt>
      <trkpt lat="44.17534" lon="5.43587">
        <ele>636</ele>
        <time>2026-05-13T11:23:51.000Z</time>
      </trkpt>
      <trkpt lat="44.17536" lon="5.43578">
        <ele>636</ele>
        <time>2026-05-13T11:23:52.000Z</time>
      </trkpt>
      <trkpt lat="44.17537" lon="5.4357">
        <ele>635</ele>
        <time>2026-05-13T11:23:53.000Z</time>
      </trkpt>
      <trkpt lat="44.17539" lon="5.43561">
        <ele>634</ele>
        <time>2026-05-13T11:23:54.000Z</time>
      </trkpt>
      <trkpt lat="44.1754" lon="5.43552">
        <ele>634</ele>
        <time>2026-05-13T11:23:55.000Z</time>
      </trkpt>
      <trkpt lat="44.17541" lon="5.43543">
        <ele>633</ele>
        <time>2026-05-13T11:23:56.000Z</time>
      </trkpt>
      <trkpt lat="44.17542" lon="5.43534">
        <ele>633</ele>
        <time>2026-05-13T11:23:57.000Z</time>
      </trkpt>
      <trkpt lat="44.17543" lon="5.43526">
        <ele>632</ele>
        <time>2026-05-13T11:23:58.000Z</time>
      </trkpt>
      <trkpt lat="44.17544" lon="5.43521">
        <ele>632</ele>
        <time>2026-05-13T11:23:59.000Z</time>
      </trkpt>
      <trkpt lat="44.17543" lon="5.43516">
        <ele>632</ele>
        <time>2026-05-13T11:24:00.000Z</time>
      </trkpt>
      <trkpt lat="44.17539" lon="5.43512">
        <ele>631</ele>
        <time>2026-05-13T11:24:01.000Z</time>
      </trkpt>
      <trkpt lat="44.17535" lon="5.43507">
        <ele>630</ele>
        <time>2026-05-13T11:24:02.000Z</time>
      </trkpt>
      <trkpt lat="44.1753" lon="5.43501">
        <ele>629</ele>
        <time>2026-05-13T11:24:03.000Z</time>
      </trkpt>
      <trkpt lat="44.17527" lon="5.43494">
        <ele>629</ele>
        <time>2026-05-13T11:24:04.000Z</time>
      </trkpt>
      <trkpt lat="44.17525" lon="5.4349">
        <ele>629</ele>
        <time>2026-05-13T11:24:05.000Z</time>
      </trkpt>
      <trkpt lat="44.17526" lon="5.43486">
        <ele>629</ele>
        <time>2026-05-13T11:24:06.000Z</time>
      </trkpt>
      <trkpt lat="44.17528" lon="5.43483">
        <ele>629</ele>
        <time>2026-05-13T11:24:07.000Z</time>
      </trkpt>
      <trkpt lat="44.1753" lon="5.4348">
        <ele>629</ele>
        <time>2026-05-13T11:24:08.000Z</time>
      </trkpt>
      <trkpt lat="44.17532" lon="5.43477">
        <ele>629</ele>
        <time>2026-05-13T11:24:09.000Z</time>
      </trkpt>
      <trkpt lat="44.17533" lon="5.43475">
        <ele>629</ele>
        <time>2026-05-13T11:24:10.000Z</time>
      </trkpt>
      <trkpt lat="44.17535" lon="5.43472">
        <ele>629</ele>
        <time>2026-05-13T11:24:11.000Z</time>
      </trkpt>
      <trkpt lat="44.17537" lon="5.43469">
        <ele>629</ele>
        <time>2026-05-13T11:24:12.000Z</time>
      </trkpt>
      <trkpt lat="44.1754" lon="5.43465">
        <ele>629</ele>
        <time>2026-05-13T11:24:13.000Z</time>
      </trkpt>
      <trkpt lat="44.17542" lon="5.43461">
        <ele>629</ele>
        <time>2026-05-13T11:24:14.000Z</time>
      </trkpt>
      <trkpt lat="44.17544" lon="5.43458">
        <ele>629</ele>
        <time>2026-05-13T11:24:15.000Z</time>
      </trkpt>
      <trkpt lat="44.17547" lon="5.43454">
        <ele>629</ele>
        <time>2026-05-13T11:24:16.000Z</time>
      </trkpt>
      <trkpt lat="44.17548" lon="5.43451">
        <ele>629</ele>
        <time>2026-05-13T11:24:17.000Z</time>
      </trkpt>
      <trkpt lat="44.1755" lon="5.43448">
        <ele>629</ele>
        <time>2026-05-13T11:24:18.000Z</time>
      </trkpt>
      <trkpt lat="44.17553" lon="5.43444">
        <ele>629</ele>
        <time>2026-05-13T11:24:19.000Z</time>
      </trkpt>
      <trkpt lat="44.17555" lon="5.43441">
        <ele>629</ele>
        <time>2026-05-13T11:24:20.000Z</time>
      </trkpt>
      <trkpt lat="44.17557" lon="5.43438">
        <ele>629</ele>
        <time>2026-05-13T11:24:21.000Z</time>
      </trkpt>
      <trkpt lat="44.17559" lon="5.43435">
        <ele>629</ele>
        <time>2026-05-13T11:24:22.000Z</time>
      </trkpt>
      <trkpt lat="44.17562" lon="5.43431">
        <ele>630</ele>
        <time>2026-05-13T11:24:23.000Z</time>
      </trkpt>
      <trkpt lat="44.17564" lon="5.43428">
        <ele>630</ele>
        <time>2026-05-13T11:24:24.000Z</time>
      </trkpt>
      <trkpt lat="44.17567" lon="5.43425">
        <ele>630</ele>
        <time>2026-05-13T11:24:25.000Z</time>
      </trkpt>
      <trkpt lat="44.17569" lon="5.43421">
        <ele>630</ele>
        <time>2026-05-13T11:24:26.000Z</time>
      </trkpt>
      <trkpt lat="44.17571" lon="5.43417">
        <ele>630</ele>
        <time>2026-05-13T11:24:27.000Z</time>
      </trkpt>
      <trkpt lat="44.17573" lon="5.43414">
        <ele>630</ele>
        <time>2026-05-13T11:24:28.000Z</time>
      </trkpt>
      <trkpt lat="44.17576" lon="5.4341">
        <ele>630</ele>
        <time>2026-05-13T11:24:29.000Z</time>
      </trkpt>
      <trkpt lat="44.17578" lon="5.43406">
        <ele>630</ele>
        <time>2026-05-13T11:24:30.000Z</time>
      </trkpt>
      <trkpt lat="44.17581" lon="5.43402">
        <ele>630</ele>
        <time>2026-05-13T11:24:31.000Z</time>
      </trkpt>
      <trkpt lat="44.17584" lon="5.43398">
        <ele>630</ele>
        <time>2026-05-13T11:24:32.000Z</time>
      </trkpt>
      <trkpt lat="44.17587" lon="5.43395">
        <ele>631</ele>
        <time>2026-05-13T11:24:33.000Z</time>
      </trkpt>
      <trkpt lat="44.17589" lon="5.43392">
        <ele>631</ele>
        <time>2026-05-13T11:24:34.000Z</time>
      </trkpt>
      <trkpt lat="44.17592" lon="5.43388">
        <ele>631</ele>
        <time>2026-05-13T11:24:35.000Z</time>
      </trkpt>
      <trkpt lat="44.17594" lon="5.43385">
        <ele>631</ele>
        <time>2026-05-13T11:24:36.000Z</time>
      </trkpt>
      <trkpt lat="44.17597" lon="5.4338">
        <ele>630</ele>
        <time>2026-05-13T11:24:37.000Z</time>
      </trkpt>
      <trkpt lat="44.176" lon="5.43375">
        <ele>631</ele>
        <time>2026-05-13T11:24:38.000Z</time>
      </trkpt>
      <trkpt lat="44.17602" lon="5.43371">
        <ele>631</ele>
        <time>2026-05-13T11:24:39.000Z</time>
      </trkpt>
      <trkpt lat="44.17605" lon="5.43368">
        <ele>631</ele>
        <time>2026-05-13T11:24:40.000Z</time>
      </trkpt>
      <trkpt lat="44.17608" lon="5.43364">
        <ele>630</ele>
        <time>2026-05-13T11:24:41.000Z</time>
      </trkpt>
      <trkpt lat="44.1761" lon="5.43359">
        <ele>630</ele>
        <time>2026-05-13T11:24:42.000Z</time>
      </trkpt>
      <trkpt lat="44.17613" lon="5.43355">
        <ele>630</ele>
        <time>2026-05-13T11:24:43.000Z</time>
      </trkpt>
      <trkpt lat="44.17616" lon="5.43352">
        <ele>629</ele>
        <time>2026-05-13T11:24:44.000Z</time>
      </trkpt>
      <trkpt lat="44.17619" lon="5.43348">
        <ele>629</ele>
        <time>2026-05-13T11:24:45.000Z</time>
      </trkpt>
      <trkpt lat="44.17621" lon="5.43345">
        <ele>629</ele>
        <time>2026-05-13T11:24:46.000Z</time>
      </trkpt>
      <trkpt lat="44.17625" lon="5.43341">
        <ele>629</ele>
        <time>2026-05-13T11:24:47.000Z</time>
      </trkpt>
      <trkpt lat="44.17628" lon="5.43338">
        <ele>629</ele>
        <time>2026-05-13T11:24:48.000Z</time>
      </trkpt>
      <trkpt lat="44.17631" lon="5.43334">
        <ele>629</ele>
        <time>2026-05-13T11:24:49.000Z</time>
      </trkpt>
      <trkpt lat="44.17634" lon="5.43331">
        <ele>629</ele>
        <time>2026-05-13T11:24:50.000Z</time>
      </trkpt>
      <trkpt lat="44.17638" lon="5.43328">
        <ele>629</ele>
        <time>2026-05-13T11:24:51.000Z</time>
      </trkpt>
      <trkpt lat="44.17641" lon="5.43325">
        <ele>629</ele>
        <time>2026-05-13T11:24:52.000Z</time>
      </trkpt>
      <trkpt lat="44.17645" lon="5.43322">
        <ele>629</ele>
        <time>2026-05-13T11:24:53.000Z</time>
      </trkpt>
      <trkpt lat="44.17648" lon="5.43319">
        <ele>629</ele>
        <time>2026-05-13T11:24:54.000Z</time>
      </trkpt>
      <trkpt lat="44.17651" lon="5.43317">
        <ele>630</ele>
        <time>2026-05-13T11:24:55.000Z</time>
      </trkpt>
      <trkpt lat="44.17654" lon="5.43314">
        <ele>630</ele>
        <time>2026-05-13T11:24:56.000Z</time>
      </trkpt>
      <trkpt lat="44.17658" lon="5.43311">
        <ele>630</ele>
        <time>2026-05-13T11:24:57.000Z</time>
      </trkpt>
      <trkpt lat="44.1766" lon="5.43308">
        <ele>630</ele>
        <time>2026-05-13T11:24:58.000Z</time>
      </trkpt>
      <trkpt lat="44.17663" lon="5.43305">
        <ele>630</ele>
        <time>2026-05-13T11:24:59.000Z</time>
      </trkpt>
      <trkpt lat="44.17666" lon="5.43303">
        <ele>630</ele>
        <time>2026-05-13T11:25:00.000Z</time>
      </trkpt>
      <trkpt lat="44.17669" lon="5.433">
        <ele>630</ele>
        <time>2026-05-13T11:25:01.000Z</time>
      </trkpt>
      <trkpt lat="44.17672" lon="5.43296">
        <ele>630</ele>
        <time>2026-05-13T11:25:02.000Z</time>
      </trkpt>
      <trkpt lat="44.17675" lon="5.43294">
        <ele>630</ele>
        <time>2026-05-13T11:25:03.000Z</time>
      </trkpt>
      <trkpt lat="44.17679" lon="5.43291">
        <ele>630</ele>
        <time>2026-05-13T11:25:04.000Z</time>
      </trkpt>
      <trkpt lat="44.17682" lon="5.43288">
        <ele>630</ele>
        <time>2026-05-13T11:25:05.000Z</time>
      </trkpt>
      <trkpt lat="44.17685" lon="5.43286">
        <ele>631</ele>
        <time>2026-05-13T11:25:06.000Z</time>
      </trkpt>
      <trkpt lat="44.17688" lon="5.43283">
        <ele>631</ele>
        <time>2026-05-13T11:25:07.000Z</time>
      </trkpt>
      <trkpt lat="44.17691" lon="5.43281">
        <ele>631</ele>
        <time>2026-05-13T11:25:08.000Z</time>
      </trkpt>
      <trkpt lat="44.17693" lon="5.43277">
        <ele>631</ele>
        <time>2026-05-13T11:25:09.000Z</time>
      </trkpt>
      <trkpt lat="44.17696" lon="5.43274">
        <ele>631</ele>
        <time>2026-05-13T11:25:10.000Z</time>
      </trkpt>
      <trkpt lat="44.17699" lon="5.43272">
        <ele>631</ele>
        <time>2026-05-13T11:25:11.000Z</time>
      </trkpt>
      <trkpt lat="44.17702" lon="5.43269">
        <ele>631</ele>
        <time>2026-05-13T11:25:12.000Z</time>
      </trkpt>
      <trkpt lat="44.17705" lon="5.43267">
        <ele>631</ele>
        <time>2026-05-13T11:25:13.000Z</time>
      </trkpt>
      <trkpt lat="44.17707" lon="5.43265">
        <ele>631</ele>
        <time>2026-05-13T11:25:14.000Z</time>
      </trkpt>
      <trkpt lat="44.1771" lon="5.43262">
        <ele>631</ele>
        <time>2026-05-13T11:25:15.000Z</time>
      </trkpt>
      <trkpt lat="44.17713" lon="5.43259">
        <ele>631</ele>
        <time>2026-05-13T11:25:16.000Z</time>
      </trkpt>
      <trkpt lat="44.17716" lon="5.43256">
        <ele>631</ele>
        <time>2026-05-13T11:25:17.000Z</time>
      </trkpt>
      <trkpt lat="44.17718" lon="5.43253">
        <ele>631</ele>
        <time>2026-05-13T11:25:18.000Z</time>
      </trkpt>
      <trkpt lat="44.17721" lon="5.4325">
        <ele>631</ele>
        <time>2026-05-13T11:25:19.000Z</time>
      </trkpt>
      <trkpt lat="44.17723" lon="5.43247">
        <ele>631</ele>
        <time>2026-05-13T11:25:20.000Z</time>
      </trkpt>
      <trkpt lat="44.17726" lon="5.43244">
        <ele>631</ele>
        <time>2026-05-13T11:25:21.000Z</time>
      </trkpt>
      <trkpt lat="44.17729" lon="5.43242">
        <ele>631</ele>
        <time>2026-05-13T11:25:22.000Z</time>
      </trkpt>
      <trkpt lat="44.17732" lon="5.43239">
        <ele>631</ele>
        <time>2026-05-13T11:25:23.000Z</time>
      </trkpt>
      <trkpt lat="44.17735" lon="5.43237">
        <ele>631</ele>
        <time>2026-05-13T11:25:24.000Z</time>
      </trkpt>
      <trkpt lat="44.17738" lon="5.43234">
        <ele>631</ele>
        <time>2026-05-13T11:25:25.000Z</time>
      </trkpt>
      <trkpt lat="44.17741" lon="5.43232">
        <ele>631</ele>
        <time>2026-05-13T11:25:26.000Z</time>
      </trkpt>
      <trkpt lat="44.17744" lon="5.4323">
        <ele>632</ele>
        <time>2026-05-13T11:25:27.000Z</time>
      </trkpt>
      <trkpt lat="44.17747" lon="5.43227">
        <ele>632</ele>
        <time>2026-05-13T11:25:28.000Z</time>
      </trkpt>
      <trkpt lat="44.17751" lon="5.43224">
        <ele>631</ele>
        <time>2026-05-13T11:25:29.000Z</time>
      </trkpt>
      <trkpt lat="44.17754" lon="5.43221">
        <ele>632</ele>
        <time>2026-05-13T11:25:30.000Z</time>
      </trkpt>
      <trkpt lat="44.17757" lon="5.43219">
        <ele>632</ele>
        <time>2026-05-13T11:25:31.000Z</time>
      </trkpt>
      <trkpt lat="44.1776" lon="5.43217">
        <ele>632</ele>
        <time>2026-05-13T11:25:32.000Z</time>
      </trkpt>
      <trkpt lat="44.17763" lon="5.43215">
        <ele>632</ele>
        <time>2026-05-13T11:25:33.000Z</time>
      </trkpt>
      <trkpt lat="44.17765" lon="5.43213">
        <ele>632</ele>
        <time>2026-05-13T11:25:34.000Z</time>
      </trkpt>
      <trkpt lat="44.17768" lon="5.43211">
        <ele>632</ele>
        <time>2026-05-13T11:25:35.000Z</time>
      </trkpt>
      <trkpt lat="44.17771" lon="5.43208">
        <ele>632</ele>
        <time>2026-05-13T11:25:36.000Z</time>
      </trkpt>
      <trkpt lat="44.17774" lon="5.43207">
        <ele>632</ele>
        <time>2026-05-13T11:25:37.000Z</time>
      </trkpt>
      <trkpt lat="44.17777" lon="5.43204">
        <ele>632</ele>
        <time>2026-05-13T11:25:38.000Z</time>
      </trkpt>
      <trkpt lat="44.1778" lon="5.43202">
        <ele>632</ele>
        <time>2026-05-13T11:25:39.000Z</time>
      </trkpt>
      <trkpt lat="44.17783" lon="5.43199">
        <ele>632</ele>
        <time>2026-05-13T11:25:40.000Z</time>
      </trkpt>
      <trkpt lat="44.17786" lon="5.43196">
        <ele>633</ele>
        <time>2026-05-13T11:25:41.000Z</time>
      </trkpt>
      <trkpt lat="44.17788" lon="5.43194">
        <ele>633</ele>
        <time>2026-05-13T11:25:42.000Z</time>
      </trkpt>
      <trkpt lat="44.17792" lon="5.43192">
        <ele>633</ele>
        <time>2026-05-13T11:25:43.000Z</time>
      </trkpt>
      <trkpt lat="44.17795" lon="5.43189">
        <ele>633</ele>
        <time>2026-05-13T11:25:44.000Z</time>
      </trkpt>
      <trkpt lat="44.17798" lon="5.43187">
        <ele>633</ele>
        <time>2026-05-13T11:25:45.000Z</time>
      </trkpt>
      <trkpt lat="44.17801" lon="5.43185">
        <ele>633</ele>
        <time>2026-05-13T11:25:46.000Z</time>
      </trkpt>
      <trkpt lat="44.17804" lon="5.43183">
        <ele>633</ele>
        <time>2026-05-13T11:25:47.000Z</time>
      </trkpt>
      <trkpt lat="44.17807" lon="5.43181">
        <ele>633</ele>
        <time>2026-05-13T11:25:48.000Z</time>
      </trkpt>
      <trkpt lat="44.1781" lon="5.43179">
        <ele>633</ele>
        <time>2026-05-13T11:25:49.000Z</time>
      </trkpt>
      <trkpt lat="44.17813" lon="5.43176">
        <ele>633</ele>
        <time>2026-05-13T11:25:50.000Z</time>
      </trkpt>
      <trkpt lat="44.17816" lon="5.43174">
        <ele>634</ele>
        <time>2026-05-13T11:25:51.000Z</time>
      </trkpt>
      <trkpt lat="44.17819" lon="5.43172">
        <ele>633</ele>
        <time>2026-05-13T11:25:52.000Z</time>
      </trkpt>
      <trkpt lat="44.17821" lon="5.43169">
        <ele>633</ele>
        <time>2026-05-13T11:25:53.000Z</time>
      </trkpt>
      <trkpt lat="44.17824" lon="5.43167">
        <ele>633</ele>
        <time>2026-05-13T11:25:54.000Z</time>
      </trkpt>
      <trkpt lat="44.17828" lon="5.43165">
        <ele>633</ele>
        <time>2026-05-13T11:25:55.000Z</time>
      </trkpt>
      <trkpt lat="44.1783" lon="5.43163">
        <ele>633</ele>
        <time>2026-05-13T11:25:56.000Z</time>
      </trkpt>
      <trkpt lat="44.17833" lon="5.43161">
        <ele>634</ele>
        <time>2026-05-13T11:25:57.000Z</time>
      </trkpt>
      <trkpt lat="44.17836" lon="5.43159">
        <ele>634</ele>
        <time>2026-05-13T11:25:58.000Z</time>
      </trkpt>
      <trkpt lat="44.17838" lon="5.43158">
        <ele>634</ele>
        <time>2026-05-13T11:25:59.000Z</time>
      </trkpt>
      <trkpt lat="44.17841" lon="5.43157">
        <ele>634</ele>
        <time>2026-05-13T11:26:00.000Z</time>
      </trkpt>
      <trkpt lat="44.17844" lon="5.43156">
        <ele>634</ele>
        <time>2026-05-13T11:26:01.000Z</time>
      </trkpt>
      <trkpt lat="44.17847" lon="5.43154">
        <ele>634</ele>
        <time>2026-05-13T11:26:02.000Z</time>
      </trkpt>
      <trkpt lat="44.1785" lon="5.43153">
        <ele>634</ele>
        <time>2026-05-13T11:26:03.000Z</time>
      </trkpt>
      <trkpt lat="44.17853" lon="5.43152">
        <ele>634</ele>
        <time>2026-05-13T11:26:04.000Z</time>
      </trkpt>
      <trkpt lat="44.17856" lon="5.43151">
        <ele>634</ele>
        <time>2026-05-13T11:26:05.000Z</time>
      </trkpt>
      <trkpt lat="44.17858" lon="5.4315">
        <ele>635</ele>
        <time>2026-05-13T11:26:06.000Z</time>
      </trkpt>
      <trkpt lat="44.17861" lon="5.4315">
        <ele>635</ele>
        <time>2026-05-13T11:26:07.000Z</time>
      </trkpt>
      <trkpt lat="44.17864" lon="5.4315">
        <ele>635</ele>
        <time>2026-05-13T11:26:08.000Z</time>
      </trkpt>
      <trkpt lat="44.17866" lon="5.43149">
        <ele>635</ele>
        <time>2026-05-13T11:26:09.000Z</time>
      </trkpt>
      <trkpt lat="44.17869" lon="5.43149">
        <ele>636</ele>
        <time>2026-05-13T11:26:10.000Z</time>
      </trkpt>
      <trkpt lat="44.17871" lon="5.43149">
        <ele>636</ele>
        <time>2026-05-13T11:26:11.000Z</time>
      </trkpt>
      <trkpt lat="44.17874" lon="5.43149">
        <ele>636</ele>
        <time>2026-05-13T11:26:12.000Z</time>
      </trkpt>
      <trkpt lat="44.17877" lon="5.43149">
        <ele>636</ele>
        <time>2026-05-13T11:26:13.000Z</time>
      </trkpt>
      <trkpt lat="44.1788" lon="5.4315">
        <ele>637</ele>
        <time>2026-05-13T11:26:14.000Z</time>
      </trkpt>
      <trkpt lat="44.17882" lon="5.4315">
        <ele>637</ele>
        <time>2026-05-13T11:26:15.000Z</time>
      </trkpt>
      <trkpt lat="44.17885" lon="5.4315">
        <ele>637</ele>
        <time>2026-05-13T11:26:16.000Z</time>
      </trkpt>
      <trkpt lat="44.17888" lon="5.4315">
        <ele>637</ele>
        <time>2026-05-13T11:26:17.000Z</time>
      </trkpt>
      <trkpt lat="44.17891" lon="5.4315">
        <ele>637</ele>
        <time>2026-05-13T11:26:18.000Z</time>
      </trkpt>
      <trkpt lat="44.17894" lon="5.43149">
        <ele>637</ele>
        <time>2026-05-13T11:26:19.000Z</time>
      </trkpt>
      <trkpt lat="44.17897" lon="5.43149">
        <ele>636</ele>
        <time>2026-05-13T11:26:20.000Z</time>
      </trkpt>
      <trkpt lat="44.179" lon="5.4315">
        <ele>637</ele>
        <time>2026-05-13T11:26:21.000Z</time>
      </trkpt>
      <trkpt lat="44.17903" lon="5.43149">
        <ele>637</ele>
        <time>2026-05-13T11:26:22.000Z</time>
      </trkpt>
      <trkpt lat="44.17905" lon="5.43148">
        <ele>637</ele>
        <time>2026-05-13T11:26:23.000Z</time>
      </trkpt>
      <trkpt lat="44.17906" lon="5.43148">
        <ele>637</ele>
        <time>2026-05-13T11:26:24.000Z</time>
      </trkpt>
      <trkpt lat="44.17908" lon="5.43148">
        <ele>637</ele>
        <time>2026-05-13T11:26:25.000Z</time>
      </trkpt>
      <trkpt lat="44.17911" lon="5.43149">
        <ele>637</ele>
        <time>2026-05-13T11:26:26.000Z</time>
      </trkpt>
      <trkpt lat="44.17914" lon="5.43149">
        <ele>637</ele>
        <time>2026-05-13T11:26:27.000Z</time>
      </trkpt>
      <trkpt lat="44.17917" lon="5.43149">
        <ele>637</ele>
        <time>2026-05-13T11:26:28.000Z</time>
      </trkpt>
      <trkpt lat="44.1792" lon="5.43148">
        <ele>637</ele>
        <time>2026-05-13T11:26:29.000Z</time>
      </trkpt>
      <trkpt lat="44.17923" lon="5.43148">
        <ele>637</ele>
        <time>2026-05-13T11:26:30.000Z</time>
      </trkpt>
      <trkpt lat="44.17926" lon="5.43147">
        <ele>637</ele>
        <time>2026-05-13T11:26:31.000Z</time>
      </trkpt>
      <trkpt lat="44.17929" lon="5.43146">
        <ele>636</ele>
        <time>2026-05-13T11:26:32.000Z</time>
      </trkpt>
      <trkpt lat="44.17932" lon="5.43145">
        <ele>637</ele>
        <time>2026-05-13T11:26:33.000Z</time>
      </trkpt>
      <trkpt lat="44.17935" lon="5.43145">
        <ele>637</ele>
        <time>2026-05-13T11:26:34.000Z</time>
      </trkpt>
      <trkpt lat="44.17938" lon="5.43144">
        <ele>637</ele>
        <time>2026-05-13T11:26:35.000Z</time>
      </trkpt>
      <trkpt lat="44.17941" lon="5.43144">
        <ele>637</ele>
        <time>2026-05-13T11:26:36.000Z</time>
      </trkpt>
      <trkpt lat="44.17944" lon="5.43143">
        <ele>636</ele>
        <time>2026-05-13T11:26:37.000Z</time>
      </trkpt>
      <trkpt lat="44.17947" lon="5.43142">
        <ele>637</ele>
        <time>2026-05-13T11:26:38.000Z</time>
      </trkpt>
      <trkpt lat="44.1795" lon="5.43141">
        <ele>637</ele>
        <time>2026-05-13T11:26:39.000Z</time>
      </trkpt>
      <trkpt lat="44.17953" lon="5.4314">
        <ele>637</ele>
        <time>2026-05-13T11:26:40.000Z</time>
      </trkpt>
      <trkpt lat="44.17955" lon="5.43139">
        <ele>638</ele>
        <time>2026-05-13T11:26:41.000Z</time>
      </trkpt>
      <trkpt lat="44.17958" lon="5.43138">
        <ele>638</ele>
        <time>2026-05-13T11:26:42.000Z</time>
      </trkpt>
      <trkpt lat="44.17961" lon="5.43137">
        <ele>638</ele>
        <time>2026-05-13T11:26:43.000Z</time>
      </trkpt>
      <trkpt lat="44.17964" lon="5.43137">
        <ele>639</ele>
        <time>2026-05-13T11:26:44.000Z</time>
      </trkpt>
      <trkpt lat="44.17967" lon="5.43136">
        <ele>638</ele>
        <time>2026-05-13T11:26:45.000Z</time>
      </trkpt>
      <trkpt lat="44.1797" lon="5.43135">
        <ele>638</ele>
        <time>2026-05-13T11:26:46.000Z</time>
      </trkpt>
      <trkpt lat="44.17973" lon="5.43133">
        <ele>639</ele>
        <time>2026-05-13T11:26:47.000Z</time>
      </trkpt>
      <trkpt lat="44.17976" lon="5.43132">
        <ele>639</ele>
        <time>2026-05-13T11:26:48.000Z</time>
      </trkpt>
      <trkpt lat="44.17978" lon="5.43131">
        <ele>639</ele>
        <time>2026-05-13T11:26:49.000Z</time>
      </trkpt>
      <trkpt lat="44.17981" lon="5.43129">
        <ele>639</ele>
        <time>2026-05-13T11:26:50.000Z</time>
      </trkpt>
      <trkpt lat="44.17983" lon="5.43128">
        <ele>639</ele>
        <time>2026-05-13T11:26:51.000Z</time>
      </trkpt>
      <trkpt lat="44.17986" lon="5.43125">
        <ele>639</ele>
        <time>2026-05-13T11:26:52.000Z</time>
      </trkpt>
      <trkpt lat="44.17988" lon="5.43123">
        <ele>639</ele>
        <time>2026-05-13T11:26:53.000Z</time>
      </trkpt>
      <trkpt lat="44.17991" lon="5.43121">
        <ele>639</ele>
        <time>2026-05-13T11:26:54.000Z</time>
      </trkpt>
      <trkpt lat="44.17993" lon="5.43119">
        <ele>640</ele>
        <time>2026-05-13T11:26:55.000Z</time>
      </trkpt>
      <trkpt lat="44.17995" lon="5.43116">
        <ele>640</ele>
        <time>2026-05-13T11:26:56.000Z</time>
      </trkpt>
      <trkpt lat="44.17998" lon="5.43113">
        <ele>640</ele>
        <time>2026-05-13T11:26:57.000Z</time>
      </trkpt>
      <trkpt lat="44.18" lon="5.4311">
        <ele>640</ele>
        <time>2026-05-13T11:26:58.000Z</time>
      </trkpt>
      <trkpt lat="44.18002" lon="5.43108">
        <ele>640</ele>
        <time>2026-05-13T11:26:59.000Z</time>
      </trkpt>
      <trkpt lat="44.18005" lon="5.43104">
        <ele>640</ele>
        <time>2026-05-13T11:27:00.000Z</time>
      </trkpt>
      <trkpt lat="44.18007" lon="5.43101">
        <ele>640</ele>
        <time>2026-05-13T11:27:01.000Z</time>
      </trkpt>
      <trkpt lat="44.1801" lon="5.43098">
        <ele>640</ele>
        <time>2026-05-13T11:27:02.000Z</time>
      </trkpt>
      <trkpt lat="44.18012" lon="5.43095">
        <ele>639</ele>
        <time>2026-05-13T11:27:03.000Z</time>
      </trkpt>
      <trkpt lat="44.18015" lon="5.43092">
        <ele>639</ele>
        <time>2026-05-13T11:27:04.000Z</time>
      </trkpt>
      <trkpt lat="44.18017" lon="5.43089">
        <ele>639</ele>
        <time>2026-05-13T11:27:05.000Z</time>
      </trkpt>
      <trkpt lat="44.1802" lon="5.43087">
        <ele>639</ele>
        <time>2026-05-13T11:27:06.000Z</time>
      </trkpt>
      <trkpt lat="44.18023" lon="5.43084">
        <ele>639</ele>
        <time>2026-05-13T11:27:07.000Z</time>
      </trkpt>
      <trkpt lat="44.18025" lon="5.43081">
        <ele>639</ele>
        <time>2026-05-13T11:27:08.000Z</time>
      </trkpt>
      <trkpt lat="44.18028" lon="5.43077">
        <ele>639</ele>
        <time>2026-05-13T11:27:09.000Z</time>
      </trkpt>
      <trkpt lat="44.1803" lon="5.43074">
        <ele>639</ele>
        <time>2026-05-13T11:27:10.000Z</time>
      </trkpt>
      <trkpt lat="44.18033" lon="5.43072">
        <ele>639</ele>
        <time>2026-05-13T11:27:11.000Z</time>
      </trkpt>
      <trkpt lat="44.18036" lon="5.43068">
        <ele>639</ele>
        <time>2026-05-13T11:27:12.000Z</time>
      </trkpt>
      <trkpt lat="44.18038" lon="5.43065">
        <ele>639</ele>
        <time>2026-05-13T11:27:13.000Z</time>
      </trkpt>
      <trkpt lat="44.18041" lon="5.43063">
        <ele>639</ele>
        <time>2026-05-13T11:27:14.000Z</time>
      </trkpt>
      <trkpt lat="44.18044" lon="5.4306">
        <ele>639</ele>
        <time>2026-05-13T11:27:15.000Z</time>
      </trkpt>
      <trkpt lat="44.18047" lon="5.43057">
        <ele>639</ele>
        <time>2026-05-13T11:27:16.000Z</time>
      </trkpt>
      <trkpt lat="44.1805" lon="5.43055">
        <ele>639</ele>
        <time>2026-05-13T11:27:17.000Z</time>
      </trkpt>
      <trkpt lat="44.18052" lon="5.43053">
        <ele>639</ele>
        <time>2026-05-13T11:27:18.000Z</time>
      </trkpt>
      <trkpt lat="44.18055" lon="5.43051">
        <ele>639</ele>
        <time>2026-05-13T11:27:19.000Z</time>
      </trkpt>
      <trkpt lat="44.18057" lon="5.43048">
        <ele>639</ele>
        <time>2026-05-13T11:27:20.000Z</time>
      </trkpt>
      <trkpt lat="44.1806" lon="5.43046">
        <ele>639</ele>
        <time>2026-05-13T11:27:21.000Z</time>
      </trkpt>
      <trkpt lat="44.18063" lon="5.43044">
        <ele>639</ele>
        <time>2026-05-13T11:27:22.000Z</time>
      </trkpt>
      <trkpt lat="44.18066" lon="5.43042">
        <ele>639</ele>
        <time>2026-05-13T11:27:23.000Z</time>
      </trkpt>
      <trkpt lat="44.18069" lon="5.4304">
        <ele>639</ele>
        <time>2026-05-13T11:27:24.000Z</time>
      </trkpt>
      <trkpt lat="44.18072" lon="5.43037">
        <ele>639</ele>
        <time>2026-05-13T11:27:25.000Z</time>
      </trkpt>
      <trkpt lat="44.18075" lon="5.43034">
        <ele>639</ele>
        <time>2026-05-13T11:27:26.000Z</time>
      </trkpt>
      <trkpt lat="44.18078" lon="5.43032">
        <ele>639</ele>
        <time>2026-05-13T11:27:27.000Z</time>
      </trkpt>
      <trkpt lat="44.18081" lon="5.43029">
        <ele>639</ele>
        <time>2026-05-13T11:27:28.000Z</time>
      </trkpt>
      <trkpt lat="44.18084" lon="5.43028">
        <ele>639</ele>
        <time>2026-05-13T11:27:29.000Z</time>
      </trkpt>
      <trkpt lat="44.18087" lon="5.43026">
        <ele>639</ele>
        <time>2026-05-13T11:27:30.000Z</time>
      </trkpt>
      <trkpt lat="44.1809" lon="5.43024">
        <ele>639</ele>
        <time>2026-05-13T11:27:31.000Z</time>
      </trkpt>
      <trkpt lat="44.18092" lon="5.43022">
        <ele>639</ele>
        <time>2026-05-13T11:27:32.000Z</time>
      </trkpt>
      <trkpt lat="44.18095" lon="5.4302">
        <ele>639</ele>
        <time>2026-05-13T11:27:33.000Z</time>
      </trkpt>
      <trkpt lat="44.18097" lon="5.43018">
        <ele>639</ele>
        <time>2026-05-13T11:27:34.000Z</time>
      </trkpt>
      <trkpt lat="44.181" lon="5.43015">
        <ele>639</ele>
        <time>2026-05-13T11:27:35.000Z</time>
      </trkpt>
      <trkpt lat="44.18103" lon="5.43013">
        <ele>640</ele>
        <time>2026-05-13T11:27:36.000Z</time>
      </trkpt>
      <trkpt lat="44.18106" lon="5.43011">
        <ele>639</ele>
        <time>2026-05-13T11:27:37.000Z</time>
      </trkpt>
      <trkpt lat="44.18109" lon="5.43008">
        <ele>639</ele>
        <time>2026-05-13T11:27:38.000Z</time>
      </trkpt>
      <trkpt lat="44.18112" lon="5.43006">
        <ele>639</ele>
        <time>2026-05-13T11:27:39.000Z</time>
      </trkpt>
      <trkpt lat="44.18115" lon="5.43004">
        <ele>639</ele>
        <time>2026-05-13T11:27:40.000Z</time>
      </trkpt>
      <trkpt lat="44.18118" lon="5.43002">
        <ele>639</ele>
        <time>2026-05-13T11:27:41.000Z</time>
      </trkpt>
      <trkpt lat="44.1812" lon="5.42999">
        <ele>639</ele>
        <time>2026-05-13T11:27:42.000Z</time>
      </trkpt>
      <trkpt lat="44.18123" lon="5.42996">
        <ele>640</ele>
        <time>2026-05-13T11:27:43.000Z</time>
      </trkpt>
      <trkpt lat="44.18126" lon="5.42995">
        <ele>640</ele>
        <time>2026-05-13T11:27:44.000Z</time>
      </trkpt>
      <trkpt lat="44.18129" lon="5.42993">
        <ele>640</ele>
        <time>2026-05-13T11:27:45.000Z</time>
      </trkpt>
      <trkpt lat="44.18132" lon="5.42991">
        <ele>640</ele>
        <time>2026-05-13T11:27:46.000Z</time>
      </trkpt>
      <trkpt lat="44.18135" lon="5.42988">
        <ele>640</ele>
        <time>2026-05-13T11:27:47.000Z</time>
      </trkpt>
      <trkpt lat="44.18138" lon="5.42986">
        <ele>640</ele>
        <time>2026-05-13T11:27:48.000Z</time>
      </trkpt>
      <trkpt lat="44.18141" lon="5.42984">
        <ele>640</ele>
        <time>2026-05-13T11:27:49.000Z</time>
      </trkpt>
      <trkpt lat="44.18144" lon="5.42981">
        <ele>641</ele>
        <time>2026-05-13T11:27:50.000Z</time>
      </trkpt>
      <trkpt lat="44.18146" lon="5.42979">
        <ele>641</ele>
        <time>2026-05-13T11:27:51.000Z</time>
      </trkpt>
      <trkpt lat="44.18149" lon="5.42976">
        <ele>641</ele>
        <time>2026-05-13T11:27:52.000Z</time>
      </trkpt>
      <trkpt lat="44.18151" lon="5.42973">
        <ele>641</ele>
        <time>2026-05-13T11:27:53.000Z</time>
      </trkpt>
      <trkpt lat="44.18153" lon="5.42969">
        <ele>640</ele>
        <time>2026-05-13T11:27:54.000Z</time>
      </trkpt>
      <trkpt lat="44.18156" lon="5.42966">
        <ele>640</ele>
        <time>2026-05-13T11:27:55.000Z</time>
      </trkpt>
      <trkpt lat="44.18158" lon="5.42963">
        <ele>640</ele>
        <time>2026-05-13T11:27:56.000Z</time>
      </trkpt>
      <trkpt lat="44.18161" lon="5.4296">
        <ele>640</ele>
        <time>2026-05-13T11:27:57.000Z</time>
      </trkpt>
      <trkpt lat="44.18163" lon="5.42957">
        <ele>640</ele>
        <time>2026-05-13T11:27:58.000Z</time>
      </trkpt>
      <trkpt lat="44.18166" lon="5.42953">
        <ele>640</ele>
        <time>2026-05-13T11:27:59.000Z</time>
      </trkpt>
      <trkpt lat="44.18168" lon="5.4295">
        <ele>640</ele>
        <time>2026-05-13T11:28:00.000Z</time>
      </trkpt>
      <trkpt lat="44.18171" lon="5.42946">
        <ele>640</ele>
        <time>2026-05-13T11:28:01.000Z</time>
      </trkpt>
      <trkpt lat="44.18173" lon="5.42943">
        <ele>640</ele>
        <time>2026-05-13T11:28:02.000Z</time>
      </trkpt>
      <trkpt lat="44.18176" lon="5.42939">
        <ele>640</ele>
        <time>2026-05-13T11:28:03.000Z</time>
      </trkpt>
      <trkpt lat="44.18178" lon="5.42936">
        <ele>640</ele>
        <time>2026-05-13T11:28:04.000Z</time>
      </trkpt>
      <trkpt lat="44.1818" lon="5.42933">
        <ele>640</ele>
        <time>2026-05-13T11:28:05.000Z</time>
      </trkpt>
      <trkpt lat="44.18183" lon="5.4293">
        <ele>641</ele>
        <time>2026-05-13T11:28:06.000Z</time>
      </trkpt>
      <trkpt lat="44.18185" lon="5.42927">
        <ele>641</ele>
        <time>2026-05-13T11:28:07.000Z</time>
      </trkpt>
      <trkpt lat="44.18188" lon="5.42924">
        <ele>641</ele>
        <time>2026-05-13T11:28:08.000Z</time>
      </trkpt>
      <trkpt lat="44.18191" lon="5.42921">
        <ele>641</ele>
        <time>2026-05-13T11:28:09.000Z</time>
      </trkpt>
      <trkpt lat="44.18193" lon="5.42918">
        <ele>641</ele>
        <time>2026-05-13T11:28:10.000Z</time>
      </trkpt>
      <trkpt lat="44.18196" lon="5.42915">
        <ele>641</ele>
        <time>2026-05-13T11:28:11.000Z</time>
      </trkpt>
      <trkpt lat="44.18198" lon="5.42912">
        <ele>641</ele>
        <time>2026-05-13T11:28:12.000Z</time>
      </trkpt>
      <trkpt lat="44.18201" lon="5.4291">
        <ele>641</ele>
        <time>2026-05-13T11:28:13.000Z</time>
      </trkpt>
      <trkpt lat="44.18204" lon="5.42907">
        <ele>641</ele>
        <time>2026-05-13T11:28:14.000Z</time>
      </trkpt>
      <trkpt lat="44.18207" lon="5.42905">
        <ele>641</ele>
        <time>2026-05-13T11:28:15.000Z</time>
      </trkpt>
      <trkpt lat="44.18209" lon="5.42902">
        <ele>642</ele>
        <time>2026-05-13T11:28:16.000Z</time>
      </trkpt>
      <trkpt lat="44.18212" lon="5.429">
        <ele>642</ele>
        <time>2026-05-13T11:28:17.000Z</time>
      </trkpt>
      <trkpt lat="44.18214" lon="5.42898">
        <ele>641</ele>
        <time>2026-05-13T11:28:18.000Z</time>
      </trkpt>
      <trkpt lat="44.18217" lon="5.42896">
        <ele>641</ele>
        <time>2026-05-13T11:28:19.000Z</time>
      </trkpt>
      <trkpt lat="44.1822" lon="5.42893">
        <ele>641</ele>
        <time>2026-05-13T11:28:20.000Z</time>
      </trkpt>
      <trkpt lat="44.18222" lon="5.42891">
        <ele>641</ele>
        <time>2026-05-13T11:28:21.000Z</time>
      </trkpt>
      <trkpt lat="44.18225" lon="5.42889">
        <ele>642</ele>
        <time>2026-05-13T11:28:22.000Z</time>
      </trkpt>
      <trkpt lat="44.18227" lon="5.42887">
        <ele>642</ele>
        <time>2026-05-13T11:28:23.000Z</time>
      </trkpt>
      <trkpt lat="44.1823" lon="5.42884">
        <ele>642</ele>
        <time>2026-05-13T11:28:24.000Z</time>
      </trkpt>
      <trkpt lat="44.18233" lon="5.42882">
        <ele>642</ele>
        <time>2026-05-13T11:28:25.000Z</time>
      </trkpt>
      <trkpt lat="44.18235" lon="5.42879">
        <ele>642</ele>
        <time>2026-05-13T11:28:26.000Z</time>
      </trkpt>
      <trkpt lat="44.18239" lon="5.42877">
        <ele>642</ele>
        <time>2026-05-13T11:28:27.000Z</time>
      </trkpt>
      <trkpt lat="44.18242" lon="5.42876">
        <ele>642</ele>
        <time>2026-05-13T11:28:28.000Z</time>
      </trkpt>
      <trkpt lat="44.18244" lon="5.42874">
        <ele>642</ele>
        <time>2026-05-13T11:28:29.000Z</time>
      </trkpt>
      <trkpt lat="44.18247" lon="5.42872">
        <ele>642</ele>
        <time>2026-05-13T11:28:30.000Z</time>
      </trkpt>
      <trkpt lat="44.1825" lon="5.4287">
        <ele>642</ele>
        <time>2026-05-13T11:28:31.000Z</time>
      </trkpt>
      <trkpt lat="44.18252" lon="5.42868">
        <ele>642</ele>
        <time>2026-05-13T11:28:32.000Z</time>
      </trkpt>
      <trkpt lat="44.18255" lon="5.42866">
        <ele>642</ele>
        <time>2026-05-13T11:28:33.000Z</time>
      </trkpt>
      <trkpt lat="44.18257" lon="5.42864">
        <ele>643</ele>
        <time>2026-05-13T11:28:34.000Z</time>
      </trkpt>
      <trkpt lat="44.1826" lon="5.42863">
        <ele>643</ele>
        <time>2026-05-13T11:28:35.000Z</time>
      </trkpt>
      <trkpt lat="44.18263" lon="5.42861">
        <ele>643</ele>
        <time>2026-05-13T11:28:36.000Z</time>
      </trkpt>
      <trkpt lat="44.18265" lon="5.4286">
        <ele>643</ele>
        <time>2026-05-13T11:28:37.000Z</time>
      </trkpt>
      <trkpt lat="44.18268" lon="5.42858">
        <ele>644</ele>
        <time>2026-05-13T11:28:38.000Z</time>
      </trkpt>
      <trkpt lat="44.18271" lon="5.42857">
        <ele>644</ele>
        <time>2026-05-13T11:28:39.000Z</time>
      </trkpt>
      <trkpt lat="44.18273" lon="5.42855">
        <ele>644</ele>
        <time>2026-05-13T11:28:40.000Z</time>
      </trkpt>
      <trkpt lat="44.18276" lon="5.42854">
        <ele>643</ele>
        <time>2026-05-13T11:28:41.000Z</time>
      </trkpt>
      <trkpt lat="44.18278" lon="5.42852">
        <ele>644</ele>
        <time>2026-05-13T11:28:42.000Z</time>
      </trkpt>
      <trkpt lat="44.18281" lon="5.42853">
        <ele>643</ele>
        <time>2026-05-13T11:28:43.000Z</time>
      </trkpt>
      <trkpt lat="44.18282" lon="5.42853">
        <ele>643</ele>
        <time>2026-05-13T11:28:44.000Z</time>
      </trkpt>
      <trkpt lat="44.18283" lon="5.42853">
        <ele>643</ele>
        <time>2026-05-13T11:28:45.000Z</time>
      </trkpt>
      <trkpt lat="44.18283" lon="5.42854">
        <ele>643</ele>
        <time>2026-05-13T11:28:46.000Z</time>
      </trkpt>
      <trkpt lat="44.18284" lon="5.42855">
        <ele>644</ele>
        <time>2026-05-13T11:28:47.000Z</time>
      </trkpt>
      <trkpt lat="44.18285" lon="5.42856">
        <ele>644</ele>
        <time>2026-05-13T11:28:48.000Z</time>
      </trkpt>
      <trkpt lat="44.18285" lon="5.42857">
        <ele>645</ele>
        <time>2026-05-13T11:28:49.000Z</time>
      </trkpt>
      <trkpt lat="44.18285" lon="5.42858">
        <ele>645</ele>
        <time>2026-05-13T11:28:50.000Z</time>
      </trkpt>
      <trkpt lat="44.18285" lon="5.42858">
        <ele>645</ele>
        <time>2026-05-13T11:28:51.000Z</time>
      </trkpt>
      <trkpt lat="44.18285" lon="5.42858">
        <ele>645</ele>
        <time>2026-05-13T11:28:52.000Z</time>
      </trkpt>
      <trkpt lat="44.18285" lon="5.42858">
        <ele>645</ele>
        <time>2026-05-13T11:28:53.000Z</time>
      </trkpt>
      <trkpt lat="44.18285" lon="5.42858">
        <ele>645</ele>
        <time>2026-05-13T11:28:54.000Z</time>
      </trkpt>
      <trkpt lat="44.18285" lon="5.42858">
        <ele>645</ele>
        <time>2026-05-13T11:28:55.000Z</time>
      </trkpt>
      <trkpt lat="44.18285" lon="5.42858">
        <ele>645</ele>
        <time>2026-05-13T11:28:56.000Z</time>
      </trkpt>
      <trkpt lat="44.18285" lon="5.42858">
        <ele>645</ele>
        <time>2026-05-13T11:28:57.000Z</time>
      </trkpt>
      <trkpt lat="44.18285" lon="5.42858">
        <ele>645</ele>
        <time>2026-05-13T11:28:58.000Z</time>
      </trkpt>
      <trkpt lat="44.18285" lon="5.42858">
        <ele>645</ele>
        <time>2026-05-13T11:28:59.000Z</time>
      </trkpt>
      <trkpt lat="44.18285" lon="5.42858">
        <ele>645</ele>
        <time>2026-05-13T11:29:00.000Z</time>
      </trkpt>
      <trkpt lat="44.18285" lon="5.42858">
        <ele>645</ele>
        <time>2026-05-13T11:29:01.000Z</time>
      </trkpt>
      <trkpt lat="44.18285" lon="5.42858">
        <ele>645</ele>
        <time>2026-05-13T11:29:02.000Z</time>
      </trkpt>
      <trkpt lat="44.18285" lon="5.42858">
        <ele>645</ele>
        <time>2026-05-13T11:29:03.000Z</time>
      </trkpt>
      <trkpt lat="44.18285" lon="5.42858">
        <ele>645</ele>
        <time>2026-05-13T11:29:04.000Z</time>
      </trkpt>
      <trkpt lat="44.18285" lon="5.42858">
        <ele>645</ele>
        <time>2026-05-13T11:29:05.000Z</time>
      </trkpt>
      <trkpt lat="44.18285" lon="5.42858">
        <ele>645</ele>
        <time>2026-05-13T11:29:06.000Z</time>
      </trkpt>
      <trkpt lat="44.18285" lon="5.42858">
        <ele>645</ele>
        <time>2026-05-13T11:29:07.000Z</time>
      </trkpt>
      <trkpt lat="44.18285" lon="5.42858">
        <ele>645</ele>
        <time>2026-05-13T11:29:08.000Z</time>
      </trkpt>
      <trkpt lat="44.18285" lon="5.42858">
        <ele>645</ele>
        <time>2026-05-13T11:29:09.000Z</time>
      </trkpt>
      <trkpt lat="44.18285" lon="5.42858">
        <ele>645</ele>
        <time>2026-05-13T11:29:10.000Z</time>
      </trkpt>
      <trkpt lat="44.18285" lon="5.42858">
        <ele>645</ele>
        <time>2026-05-13T11:29:11.000Z</time>
      </trkpt>
      <trkpt lat="44.18285" lon="5.42858">
        <ele>645</ele>
        <time>2026-05-13T11:29:12.000Z</time>
      </trkpt>
      <trkpt lat="44.18285" lon="5.42858">
        <ele>645</ele>
        <time>2026-05-13T11:29:13.000Z</time>
      </trkpt>
      <trkpt lat="44.18285" lon="5.42858">
        <ele>645</ele>
        <time>2026-05-13T11:29:14.000Z</time>
      </trkpt>
      <trkpt lat="44.18285" lon="5.42858">
        <ele>645</ele>
        <time>2026-05-13T11:29:15.000Z</time>
      </trkpt>
      <trkpt lat="44.18285" lon="5.42858">
        <ele>645</ele>
        <time>2026-05-13T11:29:16.000Z</time>
      </trkpt>
      <trkpt lat="44.18285" lon="5.42858">
        <ele>645</ele>
        <time>2026-05-13T11:29:17.000Z</time>
      </trkpt>
      <trkpt lat="44.18285" lon="5.42858">
        <ele>645</ele>
        <time>2026-05-13T11:29:18.000Z</time>
      </trkpt>
      <trkpt lat="44.18285" lon="5.42858">
        <ele>645</ele>
        <time>2026-05-13T11:29:19.000Z</time>
      </trkpt>
      <trkpt lat="44.18285" lon="5.42858">
        <ele>645</ele>
        <time>2026-05-13T11:29:20.000Z</time>
      </trkpt>
      <trkpt lat="44.18285" lon="5.42858">
        <ele>645</ele>
        <time>2026-05-13T11:29:21.000Z</time>
      </trkpt>
      <trkpt lat="44.18285" lon="5.42858">
        <ele>645</ele>
        <time>2026-05-13T11:29:22.000Z</time>
      </trkpt>
      <trkpt lat="44.18285" lon="5.42858">
        <ele>645</ele>
        <time>2026-05-13T11:29:23.000Z</time>
      </trkpt>
      <trkpt lat="44.18285" lon="5.42858">
        <ele>645</ele>
        <time>2026-05-13T11:29:24.000Z</time>
      </trkpt>
      <trkpt lat="44.18285" lon="5.42858">
        <ele>645</ele>
        <time>2026-05-13T11:29:25.000Z</time>
      </trkpt>
      <trkpt lat="44.18285" lon="5.42858">
        <ele>645</ele>
        <time>2026-05-13T11:29:26.000Z</time>
      </trkpt>
      <trkpt lat="44.18285" lon="5.42858">
        <ele>645</ele>
        <time>2026-05-13T11:29:27.000Z</time>
      </trkpt>
      <trkpt lat="44.18285" lon="5.42858">
        <ele>645</ele>
        <time>2026-05-13T11:29:28.000Z</time>
      </trkpt>
      <trkpt lat="44.18285" lon="5.42858">
        <ele>645</ele>
        <time>2026-05-13T11:29:29.000Z</time>
      </trkpt>
      <trkpt lat="44.18285" lon="5.42858">
        <ele>645</ele>
        <time>2026-05-13T11:29:30.000Z</time>
      </trkpt>
      <trkpt lat="44.18285" lon="5.42858">
        <ele>645</ele>
        <time>2026-05-13T11:29:31.000Z</time>
      </trkpt>
      <trkpt lat="44.18285" lon="5.42858">
        <ele>645</ele>
        <time>2026-05-13T11:29:32.000Z</time>
      </trkpt>
      <trkpt lat="44.18285" lon="5.42858">
        <ele>645</ele>
        <time>2026-05-13T11:29:33.000Z</time>
      </trkpt>
      <trkpt lat="44.18285" lon="5.42858">
        <ele>645</ele>
        <time>2026-05-13T11:29:34.000Z</time>
      </trkpt>
      <trkpt lat="44.18285" lon="5.42858">
        <ele>645</ele>
        <time>2026-05-13T11:29:35.000Z</time>
      </trkpt>
      <trkpt lat="44.18285" lon="5.42858">
        <ele>645</ele>
        <time>2026-05-13T11:29:36.000Z</time>
      </trkpt>
      <trkpt lat="44.18285" lon="5.42858">
        <ele>645</ele>
        <time>2026-05-13T11:29:37.000Z</time>
      </trkpt>
      <trkpt lat="44.18285" lon="5.42858">
        <ele>645</ele>
        <time>2026-05-13T11:29:38.000Z</time>
      </trkpt>
      <trkpt lat="44.18285" lon="5.42858">
        <ele>645</ele>
        <time>2026-05-13T11:29:39.000Z</time>
      </trkpt>
      <trkpt lat="44.18285" lon="5.42858">
        <ele>645</ele>
        <time>2026-05-13T11:29:40.000Z</time>
      </trkpt>
      <trkpt lat="44.18285" lon="5.42858">
        <ele>645</ele>
        <time>2026-05-13T11:29:41.000Z</time>
      </trkpt>
      <trkpt lat="44.18285" lon="5.42858">
        <ele>645</ele>
        <time>2026-05-13T11:29:42.000Z</time>
      </trkpt>
      <trkpt lat="44.18285" lon="5.42858">
        <ele>645</ele>
        <time>2026-05-13T11:29:43.000Z</time>
      </trkpt>
      <trkpt lat="44.18285" lon="5.42858">
        <ele>645</ele>
        <time>2026-05-13T11:29:44.000Z</time>
      </trkpt>
      <trkpt lat="44.18285" lon="5.42858">
        <ele>645</ele>
        <time>2026-05-13T11:29:45.000Z</time>
      </trkpt>
      <trkpt lat="44.18285" lon="5.42858">
        <ele>645</ele>
        <time>2026-05-13T11:29:46.000Z</time>
      </trkpt>
      <trkpt lat="44.18285" lon="5.42858">
        <ele>645</ele>
        <time>2026-05-13T11:29:47.000Z</time>
      </trkpt>
      <trkpt lat="44.18285" lon="5.42858">
        <ele>645</ele>
        <time>2026-05-13T11:29:48.000Z</time>
      </trkpt>
      <trkpt lat="44.18285" lon="5.42858">
        <ele>645</ele>
        <time>2026-05-13T11:29:49.000Z</time>
      </trkpt>
      <trkpt lat="44.18285" lon="5.42858">
        <ele>645</ele>
        <time>2026-05-13T11:29:50.000Z</time>
      </trkpt>
      <trkpt lat="44.18285" lon="5.42858">
        <ele>645</ele>
        <time>2026-05-13T11:29:51.000Z</time>
      </trkpt>
      <trkpt lat="44.18285" lon="5.42858">
        <ele>645</ele>
        <time>2026-05-13T11:29:52.000Z</time>
      </trkpt>
      <trkpt lat="44.18285" lon="5.42858">
        <ele>645</ele>
        <time>2026-05-13T11:29:53.000Z</time>
      </trkpt>
      <trkpt lat="44.18285" lon="5.42858">
        <ele>645</ele>
        <time>2026-05-13T11:29:54.000Z</time>
      </trkpt>
      <trkpt lat="44.18285" lon="5.42858">
        <ele>645</ele>
        <time>2026-05-13T11:29:55.000Z</time>
      </trkpt>
      <trkpt lat="44.18285" lon="5.42858">
        <ele>645</ele>
        <time>2026-05-13T11:29:56.000Z</time>
      </trkpt>
      <trkpt lat="44.18285" lon="5.42858">
        <ele>645</ele>
        <time>2026-05-13T11:29:57.000Z</time>
      </trkpt>
      <trkpt lat="44.18285" lon="5.42858">
        <ele>645</ele>
        <time>2026-05-13T11:29:58.000Z</time>
      </trkpt>
      <trkpt lat="44.18285" lon="5.42858">
        <ele>645</ele>
        <time>2026-05-13T11:29:59.000Z</time>
      </trkpt>
      <trkpt lat="44.18285" lon="5.42858">
        <ele>645</ele>
        <time>2026-05-13T11:30:00.000Z</time>
      </trkpt>
      <trkpt lat="44.18285" lon="5.42858">
        <ele>645</ele>
        <time>2026-05-13T11:30:01.000Z</time>
      </trkpt>
      <trkpt lat="44.18285" lon="5.42858">
        <ele>645</ele>
        <time>2026-05-13T11:30:02.000Z</time>
      </trkpt>
      <trkpt lat="44.18285" lon="5.42858">
        <ele>645</ele>
        <time>2026-05-13T11:30:03.000Z</time>
      </trkpt>
      <trkpt lat="44.18285" lon="5.42858">
        <ele>645</ele>
        <time>2026-05-13T11:30:04.000Z</time>
      </trkpt>
      <trkpt lat="44.18285" lon="5.42858">
        <ele>645</ele>
        <time>2026-05-13T11:30:05.000Z</time>
      </trkpt>
      <trkpt lat="44.18285" lon="5.42858">
        <ele>645</ele>
        <time>2026-05-13T11:30:06.000Z</time>
      </trkpt>
      <trkpt lat="44.18285" lon="5.42858">
        <ele>645</ele>
        <time>2026-05-13T11:30:07.000Z</time>
      </trkpt>
      <trkpt lat="44.18285" lon="5.42858">
        <ele>645</ele>
        <time>2026-05-13T11:30:08.000Z</time>
      </trkpt>
      <trkpt lat="44.18285" lon="5.42858">
        <ele>645</ele>
        <time>2026-05-13T11:30:09.000Z</time>
      </trkpt>
      <trkpt lat="44.18285" lon="5.42858">
        <ele>645</ele>
        <time>2026-05-13T11:30:10.000Z</time>
      </trkpt>
      <trkpt lat="44.18285" lon="5.42858">
        <ele>645</ele>
        <time>2026-05-13T11:30:11.000Z</time>
      </trkpt>
      <trkpt lat="44.18285" lon="5.42858">
        <ele>645</ele>
        <time>2026-05-13T11:30:12.000Z</time>
      </trkpt>
      <trkpt lat="44.18285" lon="5.42858">
        <ele>645</ele>
        <time>2026-05-13T11:30:13.000Z</time>
      </trkpt>
      <trkpt lat="44.18285" lon="5.42858">
        <ele>645</ele>
        <time>2026-05-13T11:30:14.000Z</time>
      </trkpt>
      <trkpt lat="44.18285" lon="5.42858">
        <ele>645</ele>
        <time>2026-05-13T11:30:15.000Z</time>
      </trkpt>
      <trkpt lat="44.18285" lon="5.42858">
        <ele>645</ele>
        <time>2026-05-13T11:30:16.000Z</time>
      </trkpt>
      <trkpt lat="44.18285" lon="5.42858">
        <ele>645</ele>
        <time>2026-05-13T11:30:17.000Z</time>
      </trkpt>
      <trkpt lat="44.18285" lon="5.42858">
        <ele>645</ele>
        <time>2026-05-13T11:30:18.000Z</time>
      </trkpt>
      <trkpt lat="44.18285" lon="5.42858">
        <ele>645</ele>
        <time>2026-05-13T11:30:19.000Z</time>
      </trkpt>
      <trkpt lat="44.18285" lon="5.42858">
        <ele>645</ele>
        <time>2026-05-13T11:30:20.000Z</time>
      </trkpt>
      <trkpt lat="44.18285" lon="5.42858">
        <ele>645</ele>
        <time>2026-05-13T11:30:21.000Z</time>
      </trkpt>
      <trkpt lat="44.18285" lon="5.42858">
        <ele>645</ele>
        <time>2026-05-13T11:30:22.000Z</time>
      </trkpt>
      <trkpt lat="44.18285" lon="5.42858">
        <ele>645</ele>
        <time>2026-05-13T11:30:23.000Z</time>
      </trkpt>
      <trkpt lat="44.18285" lon="5.42858">
        <ele>645</ele>
        <time>2026-05-13T11:30:24.000Z</time>
      </trkpt>
      <trkpt lat="44.18285" lon="5.42858">
        <ele>645</ele>
        <time>2026-05-13T11:30:25.000Z</time>
      </trkpt>
      <trkpt lat="44.18285" lon="5.42858">
        <ele>645</ele>
        <time>2026-05-13T11:30:26.000Z</time>
      </trkpt>
      <trkpt lat="44.18285" lon="5.42858">
        <ele>645</ele>
        <time>2026-05-13T11:30:27.000Z</time>
      </trkpt>
      <trkpt lat="44.18285" lon="5.42858">
        <ele>645</ele>
        <time>2026-05-13T11:30:28.000Z</time>
      </trkpt>
      <trkpt lat="44.18285" lon="5.42858">
        <ele>645</ele>
        <time>2026-05-13T11:30:29.000Z</time>
      </trkpt>
      <trkpt lat="44.18285" lon="5.42858">
        <ele>645</ele>
        <time>2026-05-13T11:30:30.000Z</time>
      </trkpt>
      <trkpt lat="44.18285" lon="5.42858">
        <ele>645</ele>
        <time>2026-05-13T11:30:31.000Z</time>
      </trkpt>
      <trkpt lat="44.18285" lon="5.42858">
        <ele>645</ele>
        <time>2026-05-13T11:30:32.000Z</time>
      </trkpt>
      <trkpt lat="44.18285" lon="5.42858">
        <ele>645</ele>
        <time>2026-05-13T11:30:33.000Z</time>
      </trkpt>
      <trkpt lat="44.18285" lon="5.42858">
        <ele>645</ele>
        <time>2026-05-13T11:30:34.000Z</time>
      </trkpt>
      <trkpt lat="44.18285" lon="5.42858">
        <ele>645</ele>
        <time>2026-05-13T11:30:35.000Z</time>
      </trkpt>
      <trkpt lat="44.18285" lon="5.42858">
        <ele>645</ele>
        <time>2026-05-13T11:30:36.000Z</time>
      </trkpt>
      <trkpt lat="44.18285" lon="5.42858">
        <ele>645</ele>
        <time>2026-05-13T11:30:37.000Z</time>
      </trkpt>
      <trkpt lat="44.18285" lon="5.42858">
        <ele>645</ele>
        <time>2026-05-13T11:30:38.000Z</time>
      </trkpt>
      <trkpt lat="44.18285" lon="5.42858">
        <ele>645</ele>
        <time>2026-05-13T11:30:39.000Z</time>
      </trkpt>
      <trkpt lat="44.18285" lon="5.42858">
        <ele>645</ele>
        <time>2026-05-13T11:30:40.000Z</time>
      </trkpt>
      <trkpt lat="44.18285" lon="5.42858">
        <ele>645</ele>
        <time>2026-05-13T11:30:41.000Z</time>
      </trkpt>
      <trkpt lat="44.18285" lon="5.42858">
        <ele>645</ele>
        <time>2026-05-13T11:30:42.000Z</time>
      </trkpt>
      <trkpt lat="44.18285" lon="5.42858">
        <ele>645</ele>
        <time>2026-05-13T11:30:43.000Z</time>
      </trkpt>
      <trkpt lat="44.18285" lon="5.42858">
        <ele>645</ele>
        <time>2026-05-13T11:30:44.000Z</time>
      </trkpt>
      <trkpt lat="44.18285" lon="5.42858">
        <ele>645</ele>
        <time>2026-05-13T11:30:45.000Z</time>
      </trkpt>
      <trkpt lat="44.18285" lon="5.42858">
        <ele>645</ele>
        <time>2026-05-13T11:30:46.000Z</time>
      </trkpt>
      <trkpt lat="44.18285" lon="5.42858">
        <ele>645</ele>
        <time>2026-05-13T11:30:47.000Z</time>
      </trkpt>
      <trkpt lat="44.18285" lon="5.42858">
        <ele>645</ele>
        <time>2026-05-13T11:30:48.000Z</time>
      </trkpt>
      <trkpt lat="44.18285" lon="5.42858">
        <ele>645</ele>
        <time>2026-05-13T11:30:49.000Z</time>
      </trkpt>
      <trkpt lat="44.18285" lon="5.42858">
        <ele>645</ele>
        <time>2026-05-13T11:30:50.000Z</time>
      </trkpt>
      <trkpt lat="44.18285" lon="5.42858">
        <ele>645</ele>
        <time>2026-05-13T11:30:51.000Z</time>
      </trkpt>
      <trkpt lat="44.18285" lon="5.42858">
        <ele>645</ele>
        <time>2026-05-13T11:30:52.000Z</time>
      </trkpt>
      <trkpt lat="44.18285" lon="5.42859">
        <ele>644</ele>
        <time>2026-05-13T11:30:53.000Z</time>
      </trkpt>
      <trkpt lat="44.18286" lon="5.42859">
        <ele>644</ele>
        <time>2026-05-13T11:30:54.000Z</time>
      </trkpt>
      <trkpt lat="44.18286" lon="5.42859">
        <ele>644</ele>
        <time>2026-05-13T11:30:55.000Z</time>
      </trkpt>
      <trkpt lat="44.18287" lon="5.42859">
        <ele>644</ele>
        <time>2026-05-13T11:30:56.000Z</time>
      </trkpt>
      <trkpt lat="44.18288" lon="5.42856">
        <ele>644</ele>
        <time>2026-05-13T11:30:57.000Z</time>
      </trkpt>
      <trkpt lat="44.18287" lon="5.42853">
        <ele>644</ele>
        <time>2026-05-13T11:30:58.000Z</time>
      </trkpt>
      <trkpt lat="44.18287" lon="5.4285">
        <ele>644</ele>
        <time>2026-05-13T11:30:59.000Z</time>
      </trkpt>
      <trkpt lat="44.18287" lon="5.42846">
        <ele>644</ele>
        <time>2026-05-13T11:31:00.000Z</time>
      </trkpt>
      <trkpt lat="44.18288" lon="5.42844">
        <ele>644</ele>
        <time>2026-05-13T11:31:01.000Z</time>
      </trkpt>
      <trkpt lat="44.1829" lon="5.42843">
        <ele>645</ele>
        <time>2026-05-13T11:31:02.000Z</time>
      </trkpt>
      <trkpt lat="44.18292" lon="5.42842">
        <ele>645</ele>
        <time>2026-05-13T11:31:03.000Z</time>
      </trkpt>
      <trkpt lat="44.18295" lon="5.4284">
        <ele>645</ele>
        <time>2026-05-13T11:31:04.000Z</time>
      </trkpt>
      <trkpt lat="44.18298" lon="5.4284">
        <ele>645</ele>
        <time>2026-05-13T11:31:05.000Z</time>
      </trkpt>
      <trkpt lat="44.18301" lon="5.42838">
        <ele>645</ele>
        <time>2026-05-13T11:31:06.000Z</time>
      </trkpt>
      <trkpt lat="44.18304" lon="5.42837">
        <ele>645</ele>
        <time>2026-05-13T11:31:07.000Z</time>
      </trkpt>
      <trkpt lat="44.18308" lon="5.42836">
        <ele>645</ele>
        <time>2026-05-13T11:31:08.000Z</time>
      </trkpt>
      <trkpt lat="44.18311" lon="5.42835">
        <ele>645</ele>
        <time>2026-05-13T11:31:09.000Z</time>
      </trkpt>
      <trkpt lat="44.18314" lon="5.42834">
        <ele>645</ele>
        <time>2026-05-13T11:31:10.000Z</time>
      </trkpt>
      <trkpt lat="44.18317" lon="5.42832">
        <ele>645</ele>
        <time>2026-05-13T11:31:11.000Z</time>
      </trkpt>
      <trkpt lat="44.18321" lon="5.4283">
        <ele>645</ele>
        <time>2026-05-13T11:31:12.000Z</time>
      </trkpt>
      <trkpt lat="44.18324" lon="5.42829">
        <ele>645</ele>
        <time>2026-05-13T11:31:13.000Z</time>
      </trkpt>
      <trkpt lat="44.18327" lon="5.42828">
        <ele>644</ele>
        <time>2026-05-13T11:31:14.000Z</time>
      </trkpt>
      <trkpt lat="44.18331" lon="5.42826">
        <ele>645</ele>
        <time>2026-05-13T11:31:15.000Z</time>
      </trkpt>
      <trkpt lat="44.18334" lon="5.42825">
        <ele>645</ele>
        <time>2026-05-13T11:31:16.000Z</time>
      </trkpt>
      <trkpt lat="44.18338" lon="5.42824">
        <ele>644</ele>
        <time>2026-05-13T11:31:17.000Z</time>
      </trkpt>
      <trkpt lat="44.18341" lon="5.42822">
        <ele>643</ele>
        <time>2026-05-13T11:31:18.000Z</time>
      </trkpt>
      <trkpt lat="44.18345" lon="5.4282">
        <ele>643</ele>
        <time>2026-05-13T11:31:19.000Z</time>
      </trkpt>
      <trkpt lat="44.18348" lon="5.42819">
        <ele>643</ele>
        <time>2026-05-13T11:31:20.000Z</time>
      </trkpt>
      <trkpt lat="44.18352" lon="5.42817">
        <ele>643</ele>
        <time>2026-05-13T11:31:21.000Z</time>
      </trkpt>
      <trkpt lat="44.18356" lon="5.42816">
        <ele>643</ele>
        <time>2026-05-13T11:31:22.000Z</time>
      </trkpt>
      <trkpt lat="44.18359" lon="5.42814">
        <ele>644</ele>
        <time>2026-05-13T11:31:23.000Z</time>
      </trkpt>
      <trkpt lat="44.18362" lon="5.42813">
        <ele>644</ele>
        <time>2026-05-13T11:31:24.000Z</time>
      </trkpt>
      <trkpt lat="44.18366" lon="5.42813">
        <ele>644</ele>
        <time>2026-05-13T11:31:25.000Z</time>
      </trkpt>
      <trkpt lat="44.18369" lon="5.42811">
        <ele>644</ele>
        <time>2026-05-13T11:31:26.000Z</time>
      </trkpt>
      <trkpt lat="44.18372" lon="5.4281">
        <ele>644</ele>
        <time>2026-05-13T11:31:27.000Z</time>
      </trkpt>
      <trkpt lat="44.18376" lon="5.42808">
        <ele>644</ele>
        <time>2026-05-13T11:31:28.000Z</time>
      </trkpt>
      <trkpt lat="44.18379" lon="5.42807">
        <ele>645</ele>
        <time>2026-05-13T11:31:29.000Z</time>
      </trkpt>
      <trkpt lat="44.18383" lon="5.42806">
        <ele>645</ele>
        <time>2026-05-13T11:31:30.000Z</time>
      </trkpt>
      <trkpt lat="44.18387" lon="5.42804">
        <ele>645</ele>
        <time>2026-05-13T11:31:31.000Z</time>
      </trkpt>
      <trkpt lat="44.1839" lon="5.42803">
        <ele>645</ele>
        <time>2026-05-13T11:31:32.000Z</time>
      </trkpt>
      <trkpt lat="44.18393" lon="5.42801">
        <ele>645</ele>
        <time>2026-05-13T11:31:33.000Z</time>
      </trkpt>
      <trkpt lat="44.18396" lon="5.42799">
        <ele>645</ele>
        <time>2026-05-13T11:31:34.000Z</time>
      </trkpt>
      <trkpt lat="44.184" lon="5.42797">
        <ele>645</ele>
        <time>2026-05-13T11:31:35.000Z</time>
      </trkpt>
      <trkpt lat="44.18403" lon="5.42795">
        <ele>645</ele>
        <time>2026-05-13T11:31:36.000Z</time>
      </trkpt>
      <trkpt lat="44.18406" lon="5.42793">
        <ele>645</ele>
        <time>2026-05-13T11:31:37.000Z</time>
      </trkpt>
      <trkpt lat="44.18409" lon="5.42791">
        <ele>646</ele>
        <time>2026-05-13T11:31:38.000Z</time>
      </trkpt>
      <trkpt lat="44.18412" lon="5.42789">
        <ele>645</ele>
        <time>2026-05-13T11:31:39.000Z</time>
      </trkpt>
      <trkpt lat="44.18416" lon="5.42786">
        <ele>646</ele>
        <time>2026-05-13T11:31:40.000Z</time>
      </trkpt>
      <trkpt lat="44.18419" lon="5.42783">
        <ele>646</ele>
        <time>2026-05-13T11:31:41.000Z</time>
      </trkpt>
      <trkpt lat="44.18423" lon="5.42781">
        <ele>646</ele>
        <time>2026-05-13T11:31:42.000Z</time>
      </trkpt>
      <trkpt lat="44.18426" lon="5.42778">
        <ele>646</ele>
        <time>2026-05-13T11:31:43.000Z</time>
      </trkpt>
      <trkpt lat="44.18429" lon="5.42775">
        <ele>646</ele>
        <time>2026-05-13T11:31:44.000Z</time>
      </trkpt>
      <trkpt lat="44.18432" lon="5.42772">
        <ele>646</ele>
        <time>2026-05-13T11:31:45.000Z</time>
      </trkpt>
      <trkpt lat="44.18435" lon="5.42769">
        <ele>646</ele>
        <time>2026-05-13T11:31:46.000Z</time>
      </trkpt>
      <trkpt lat="44.18438" lon="5.42767">
        <ele>646</ele>
        <time>2026-05-13T11:31:47.000Z</time>
      </trkpt>
      <trkpt lat="44.18442" lon="5.42765">
        <ele>646</ele>
        <time>2026-05-13T11:31:48.000Z</time>
      </trkpt>
      <trkpt lat="44.18445" lon="5.42762">
        <ele>646</ele>
        <time>2026-05-13T11:31:49.000Z</time>
      </trkpt>
      <trkpt lat="44.18448" lon="5.4276">
        <ele>646</ele>
        <time>2026-05-13T11:31:50.000Z</time>
      </trkpt>
      <trkpt lat="44.18452" lon="5.42757">
        <ele>646</ele>
        <time>2026-05-13T11:31:51.000Z</time>
      </trkpt>
      <trkpt lat="44.18455" lon="5.42755">
        <ele>646</ele>
        <time>2026-05-13T11:31:52.000Z</time>
      </trkpt>
      <trkpt lat="44.18458" lon="5.42752">
        <ele>646</ele>
        <time>2026-05-13T11:31:53.000Z</time>
      </trkpt>
      <trkpt lat="44.18462" lon="5.4275">
        <ele>646</ele>
        <time>2026-05-13T11:31:54.000Z</time>
      </trkpt>
      <trkpt lat="44.18465" lon="5.42748">
        <ele>646</ele>
        <time>2026-05-13T11:31:55.000Z</time>
      </trkpt>
      <trkpt lat="44.18469" lon="5.42746">
        <ele>646</ele>
        <time>2026-05-13T11:31:56.000Z</time>
      </trkpt>
      <trkpt lat="44.18472" lon="5.42744">
        <ele>646</ele>
        <time>2026-05-13T11:31:57.000Z</time>
      </trkpt>
      <trkpt lat="44.18476" lon="5.42742">
        <ele>647</ele>
        <time>2026-05-13T11:31:58.000Z</time>
      </trkpt>
      <trkpt lat="44.1848" lon="5.42741">
        <ele>647</ele>
        <time>2026-05-13T11:31:59.000Z</time>
      </trkpt>
      <trkpt lat="44.18484" lon="5.42739">
        <ele>647</ele>
        <time>2026-05-13T11:32:00.000Z</time>
      </trkpt>
      <trkpt lat="44.18487" lon="5.42737">
        <ele>648</ele>
        <time>2026-05-13T11:32:01.000Z</time>
      </trkpt>
      <trkpt lat="44.1849" lon="5.42735">
        <ele>648</ele>
        <time>2026-05-13T11:32:02.000Z</time>
      </trkpt>
      <trkpt lat="44.18492" lon="5.42734">
        <ele>648</ele>
        <time>2026-05-13T11:32:03.000Z</time>
      </trkpt>
      <trkpt lat="44.18495" lon="5.42733">
        <ele>648</ele>
        <time>2026-05-13T11:32:04.000Z</time>
      </trkpt>
      <trkpt lat="44.18498" lon="5.42732">
        <ele>648</ele>
        <time>2026-05-13T11:32:05.000Z</time>
      </trkpt>
      <trkpt lat="44.18501" lon="5.4273">
        <ele>649</ele>
        <time>2026-05-13T11:32:06.000Z</time>
      </trkpt>
      <trkpt lat="44.18504" lon="5.42729">
        <ele>649</ele>
        <time>2026-05-13T11:32:07.000Z</time>
      </trkpt>
      <trkpt lat="44.18507" lon="5.42728">
        <ele>649</ele>
        <time>2026-05-13T11:32:08.000Z</time>
      </trkpt>
      <trkpt lat="44.1851" lon="5.42726">
        <ele>649</ele>
        <time>2026-05-13T11:32:09.000Z</time>
      </trkpt>
      <trkpt lat="44.18513" lon="5.42724">
        <ele>649</ele>
        <time>2026-05-13T11:32:10.000Z</time>
      </trkpt>
      <trkpt lat="44.18516" lon="5.42723">
        <ele>649</ele>
        <time>2026-05-13T11:32:11.000Z</time>
      </trkpt>
      <trkpt lat="44.18519" lon="5.42721">
        <ele>649</ele>
        <time>2026-05-13T11:32:12.000Z</time>
      </trkpt>
      <trkpt lat="44.18521" lon="5.42719">
        <ele>649</ele>
        <time>2026-05-13T11:32:13.000Z</time>
      </trkpt>
      <trkpt lat="44.18524" lon="5.42717">
        <ele>649</ele>
        <time>2026-05-13T11:32:14.000Z</time>
      </trkpt>
      <trkpt lat="44.18527" lon="5.42716">
        <ele>649</ele>
        <time>2026-05-13T11:32:15.000Z</time>
      </trkpt>
      <trkpt lat="44.1853" lon="5.42714">
        <ele>649</ele>
        <time>2026-05-13T11:32:16.000Z</time>
      </trkpt>
      <trkpt lat="44.18533" lon="5.42712">
        <ele>649</ele>
        <time>2026-05-13T11:32:17.000Z</time>
      </trkpt>
      <trkpt lat="44.18536" lon="5.42709">
        <ele>649</ele>
        <time>2026-05-13T11:32:18.000Z</time>
      </trkpt>
      <trkpt lat="44.18538" lon="5.42707">
        <ele>649</ele>
        <time>2026-05-13T11:32:19.000Z</time>
      </trkpt>
      <trkpt lat="44.18541" lon="5.42705">
        <ele>650</ele>
        <time>2026-05-13T11:32:20.000Z</time>
      </trkpt>
      <trkpt lat="44.18544" lon="5.42702">
        <ele>650</ele>
        <time>2026-05-13T11:32:21.000Z</time>
      </trkpt>
      <trkpt lat="44.18547" lon="5.427">
        <ele>649</ele>
        <time>2026-05-13T11:32:22.000Z</time>
      </trkpt>
      <trkpt lat="44.18549" lon="5.42697">
        <ele>650</ele>
        <time>2026-05-13T11:32:23.000Z</time>
      </trkpt>
      <trkpt lat="44.18552" lon="5.42696">
        <ele>649</ele>
        <time>2026-05-13T11:32:24.000Z</time>
      </trkpt>
      <trkpt lat="44.18555" lon="5.42693">
        <ele>650</ele>
        <time>2026-05-13T11:32:25.000Z</time>
      </trkpt>
      <trkpt lat="44.18558" lon="5.42691">
        <ele>650</ele>
        <time>2026-05-13T11:32:26.000Z</time>
      </trkpt>
      <trkpt lat="44.18561" lon="5.42688">
        <ele>650</ele>
        <time>2026-05-13T11:32:27.000Z</time>
      </trkpt>
      <trkpt lat="44.18563" lon="5.42686">
        <ele>650</ele>
        <time>2026-05-13T11:32:28.000Z</time>
      </trkpt>
      <trkpt lat="44.18566" lon="5.42683">
        <ele>650</ele>
        <time>2026-05-13T11:32:29.000Z</time>
      </trkpt>
      <trkpt lat="44.18569" lon="5.4268">
        <ele>650</ele>
        <time>2026-05-13T11:32:30.000Z</time>
      </trkpt>
      <trkpt lat="44.18572" lon="5.42677">
        <ele>650</ele>
        <time>2026-05-13T11:32:31.000Z</time>
      </trkpt>
      <trkpt lat="44.18574" lon="5.42675">
        <ele>650</ele>
        <time>2026-05-13T11:32:32.000Z</time>
      </trkpt>
      <trkpt lat="44.18577" lon="5.42673">
        <ele>650</ele>
        <time>2026-05-13T11:32:33.000Z</time>
      </trkpt>
      <trkpt lat="44.1858" lon="5.4267">
        <ele>650</ele>
        <time>2026-05-13T11:32:34.000Z</time>
      </trkpt>
      <trkpt lat="44.18583" lon="5.42667">
        <ele>650</ele>
        <time>2026-05-13T11:32:35.000Z</time>
      </trkpt>
      <trkpt lat="44.18585" lon="5.42665">
        <ele>650</ele>
        <time>2026-05-13T11:32:36.000Z</time>
      </trkpt>
      <trkpt lat="44.18588" lon="5.42662">
        <ele>650</ele>
        <time>2026-05-13T11:32:37.000Z</time>
      </trkpt>
      <trkpt lat="44.18591" lon="5.42659">
        <ele>650</ele>
        <time>2026-05-13T11:32:38.000Z</time>
      </trkpt>
      <trkpt lat="44.18594" lon="5.42657">
        <ele>650</ele>
        <time>2026-05-13T11:32:39.000Z</time>
      </trkpt>
      <trkpt lat="44.18597" lon="5.42654">
        <ele>650</ele>
        <time>2026-05-13T11:32:40.000Z</time>
      </trkpt>
      <trkpt lat="44.186" lon="5.42652">
        <ele>651</ele>
        <time>2026-05-13T11:32:41.000Z</time>
      </trkpt>
      <trkpt lat="44.18603" lon="5.42649">
        <ele>651</ele>
        <time>2026-05-13T11:32:42.000Z</time>
      </trkpt>
      <trkpt lat="44.18606" lon="5.42646">
        <ele>651</ele>
        <time>2026-05-13T11:32:43.000Z</time>
      </trkpt>
      <trkpt lat="44.18608" lon="5.42643">
        <ele>651</ele>
        <time>2026-05-13T11:32:44.000Z</time>
      </trkpt>
      <trkpt lat="44.18611" lon="5.42641">
        <ele>651</ele>
        <time>2026-05-13T11:32:45.000Z</time>
      </trkpt>
      <trkpt lat="44.18614" lon="5.42638">
        <ele>651</ele>
        <time>2026-05-13T11:32:46.000Z</time>
      </trkpt>
      <trkpt lat="44.18616" lon="5.42636">
        <ele>651</ele>
        <time>2026-05-13T11:32:47.000Z</time>
      </trkpt>
      <trkpt lat="44.18619" lon="5.42634">
        <ele>651</ele>
        <time>2026-05-13T11:32:48.000Z</time>
      </trkpt>
      <trkpt lat="44.18622" lon="5.42632">
        <ele>652</ele>
        <time>2026-05-13T11:32:49.000Z</time>
      </trkpt>
      <trkpt lat="44.18625" lon="5.4263">
        <ele>651</ele>
        <time>2026-05-13T11:32:50.000Z</time>
      </trkpt>
      <trkpt lat="44.18628" lon="5.42627">
        <ele>651</ele>
        <time>2026-05-13T11:32:51.000Z</time>
      </trkpt>
      <trkpt lat="44.1863" lon="5.42625">
        <ele>651</ele>
        <time>2026-05-13T11:32:52.000Z</time>
      </trkpt>
      <trkpt lat="44.18633" lon="5.42622">
        <ele>652</ele>
        <time>2026-05-13T11:32:53.000Z</time>
      </trkpt>
      <trkpt lat="44.18635" lon="5.4262">
        <ele>652</ele>
        <time>2026-05-13T11:32:54.000Z</time>
      </trkpt>
      <trkpt lat="44.18638" lon="5.42617">
        <ele>652</ele>
        <time>2026-05-13T11:32:55.000Z</time>
      </trkpt>
      <trkpt lat="44.1864" lon="5.42615">
        <ele>652</ele>
        <time>2026-05-13T11:32:56.000Z</time>
      </trkpt>
      <trkpt lat="44.18643" lon="5.42613">
        <ele>652</ele>
        <time>2026-05-13T11:32:57.000Z</time>
      </trkpt>
      <trkpt lat="44.18646" lon="5.4261">
        <ele>652</ele>
        <time>2026-05-13T11:32:58.000Z</time>
      </trkpt>
      <trkpt lat="44.18648" lon="5.42608">
        <ele>652</ele>
        <time>2026-05-13T11:32:59.000Z</time>
      </trkpt>
      <trkpt lat="44.18651" lon="5.42605">
        <ele>652</ele>
        <time>2026-05-13T11:33:00.000Z</time>
      </trkpt>
      <trkpt lat="44.18653" lon="5.42603">
        <ele>653</ele>
        <time>2026-05-13T11:33:01.000Z</time>
      </trkpt>
      <trkpt lat="44.18656" lon="5.42601">
        <ele>653</ele>
        <time>2026-05-13T11:33:02.000Z</time>
      </trkpt>
      <trkpt lat="44.18658" lon="5.42599">
        <ele>653</ele>
        <time>2026-05-13T11:33:03.000Z</time>
      </trkpt>
      <trkpt lat="44.18661" lon="5.42597">
        <ele>653</ele>
        <time>2026-05-13T11:33:04.000Z</time>
      </trkpt>
      <trkpt lat="44.18663" lon="5.42596">
        <ele>653</ele>
        <time>2026-05-13T11:33:05.000Z</time>
      </trkpt>
      <trkpt lat="44.18666" lon="5.42593">
        <ele>653</ele>
        <time>2026-05-13T11:33:06.000Z</time>
      </trkpt>
      <trkpt lat="44.18668" lon="5.42591">
        <ele>654</ele>
        <time>2026-05-13T11:33:07.000Z</time>
      </trkpt>
      <trkpt lat="44.1867" lon="5.42589">
        <ele>654</ele>
        <time>2026-05-13T11:33:08.000Z</time>
      </trkpt>
      <trkpt lat="44.18673" lon="5.42587">
        <ele>654</ele>
        <time>2026-05-13T11:33:09.000Z</time>
      </trkpt>
      <trkpt lat="44.18675" lon="5.42585">
        <ele>654</ele>
        <time>2026-05-13T11:33:10.000Z</time>
      </trkpt>
      <trkpt lat="44.18677" lon="5.42583">
        <ele>655</ele>
        <time>2026-05-13T11:33:11.000Z</time>
      </trkpt>
      <trkpt lat="44.18679" lon="5.42582">
        <ele>655</ele>
        <time>2026-05-13T11:33:12.000Z</time>
      </trkpt>
      <trkpt lat="44.18681" lon="5.4258">
        <ele>655</ele>
        <time>2026-05-13T11:33:13.000Z</time>
      </trkpt>
      <trkpt lat="44.18684" lon="5.42578">
        <ele>655</ele>
        <time>2026-05-13T11:33:14.000Z</time>
      </trkpt>
      <trkpt lat="44.18686" lon="5.42576">
        <ele>655</ele>
        <time>2026-05-13T11:33:15.000Z</time>
      </trkpt>
      <trkpt lat="44.18688" lon="5.42574">
        <ele>655</ele>
        <time>2026-05-13T11:33:16.000Z</time>
      </trkpt>
      <trkpt lat="44.1869" lon="5.42572">
        <ele>656</ele>
        <time>2026-05-13T11:33:17.000Z</time>
      </trkpt>
      <trkpt lat="44.18692" lon="5.4257">
        <ele>655</ele>
        <time>2026-05-13T11:33:18.000Z</time>
      </trkpt>
      <trkpt lat="44.18694" lon="5.42569">
        <ele>655</ele>
        <time>2026-05-13T11:33:19.000Z</time>
      </trkpt>
      <trkpt lat="44.18696" lon="5.42567">
        <ele>655</ele>
        <time>2026-05-13T11:33:20.000Z</time>
      </trkpt>
      <trkpt lat="44.18699" lon="5.42565">
        <ele>655</ele>
        <time>2026-05-13T11:33:21.000Z</time>
      </trkpt>
      <trkpt lat="44.18702" lon="5.42562">
        <ele>655</ele>
        <time>2026-05-13T11:33:22.000Z</time>
      </trkpt>
      <trkpt lat="44.18705" lon="5.4256">
        <ele>655</ele>
        <time>2026-05-13T11:33:23.000Z</time>
      </trkpt>
      <trkpt lat="44.18708" lon="5.42558">
        <ele>654</ele>
        <time>2026-05-13T11:33:24.000Z</time>
      </trkpt>
      <trkpt lat="44.18711" lon="5.42556">
        <ele>654</ele>
        <time>2026-05-13T11:33:25.000Z</time>
      </trkpt>
      <trkpt lat="44.18713" lon="5.42554">
        <ele>654</ele>
        <time>2026-05-13T11:33:26.000Z</time>
      </trkpt>
      <trkpt lat="44.18716" lon="5.42551">
        <ele>653</ele>
        <time>2026-05-13T11:33:27.000Z</time>
      </trkpt>
      <trkpt lat="44.18719" lon="5.42549">
        <ele>653</ele>
        <time>2026-05-13T11:33:28.000Z</time>
      </trkpt>
      <trkpt lat="44.18722" lon="5.42547">
        <ele>654</ele>
        <time>2026-05-13T11:33:29.000Z</time>
      </trkpt>
      <trkpt lat="44.18726" lon="5.42544">
        <ele>654</ele>
        <time>2026-05-13T11:33:30.000Z</time>
      </trkpt>
      <trkpt lat="44.18729" lon="5.42542">
        <ele>654</ele>
        <time>2026-05-13T11:33:31.000Z</time>
      </trkpt>
      <trkpt lat="44.18733" lon="5.42539">
        <ele>654</ele>
        <time>2026-05-13T11:33:32.000Z</time>
      </trkpt>
      <trkpt lat="44.18736" lon="5.42536">
        <ele>654</ele>
        <time>2026-05-13T11:33:33.000Z</time>
      </trkpt>
      <trkpt lat="44.18739" lon="5.42534">
        <ele>653</ele>
        <time>2026-05-13T11:33:34.000Z</time>
      </trkpt>
      <trkpt lat="44.18742" lon="5.42531">
        <ele>653</ele>
        <time>2026-05-13T11:33:35.000Z</time>
      </trkpt>
      <trkpt lat="44.18745" lon="5.42529">
        <ele>653</ele>
        <time>2026-05-13T11:33:36.000Z</time>
      </trkpt>
      <trkpt lat="44.18748" lon="5.42526">
        <ele>654</ele>
        <time>2026-05-13T11:33:37.000Z</time>
      </trkpt>
      <trkpt lat="44.18751" lon="5.42524">
        <ele>654</ele>
        <time>2026-05-13T11:33:38.000Z</time>
      </trkpt>
      <trkpt lat="44.18754" lon="5.42521">
        <ele>654</ele>
        <time>2026-05-13T11:33:39.000Z</time>
      </trkpt>
      <trkpt lat="44.18757" lon="5.42518">
        <ele>654</ele>
        <time>2026-05-13T11:33:40.000Z</time>
      </trkpt>
      <trkpt lat="44.1876" lon="5.42516">
        <ele>654</ele>
        <time>2026-05-13T11:33:41.000Z</time>
      </trkpt>
      <trkpt lat="44.18763" lon="5.42514">
        <ele>654</ele>
        <time>2026-05-13T11:33:42.000Z</time>
      </trkpt>
      <trkpt lat="44.18766" lon="5.42512">
        <ele>654</ele>
        <time>2026-05-13T11:33:43.000Z</time>
      </trkpt>
      <trkpt lat="44.18769" lon="5.4251">
        <ele>654</ele>
        <time>2026-05-13T11:33:44.000Z</time>
      </trkpt>
      <trkpt lat="44.18772" lon="5.42507">
        <ele>654</ele>
        <time>2026-05-13T11:33:45.000Z</time>
      </trkpt>
      <trkpt lat="44.18776" lon="5.42505">
        <ele>654</ele>
        <time>2026-05-13T11:33:46.000Z</time>
      </trkpt>
      <trkpt lat="44.18779" lon="5.42503">
        <ele>655</ele>
        <time>2026-05-13T11:33:47.000Z</time>
      </trkpt>
      <trkpt lat="44.18781" lon="5.42502">
        <ele>655</ele>
        <time>2026-05-13T11:33:48.000Z</time>
      </trkpt>
      <trkpt lat="44.18784" lon="5.425">
        <ele>655</ele>
        <time>2026-05-13T11:33:49.000Z</time>
      </trkpt>
      <trkpt lat="44.18787" lon="5.42499">
        <ele>655</ele>
        <time>2026-05-13T11:33:50.000Z</time>
      </trkpt>
      <trkpt lat="44.1879" lon="5.42498">
        <ele>655</ele>
        <time>2026-05-13T11:33:51.000Z</time>
      </trkpt>
      <trkpt lat="44.18794" lon="5.42497">
        <ele>655</ele>
        <time>2026-05-13T11:33:52.000Z</time>
      </trkpt>
      <trkpt lat="44.18797" lon="5.42496">
        <ele>655</ele>
        <time>2026-05-13T11:33:53.000Z</time>
      </trkpt>
      <trkpt lat="44.188" lon="5.42495">
        <ele>655</ele>
        <time>2026-05-13T11:33:54.000Z</time>
      </trkpt>
      <trkpt lat="44.18803" lon="5.42494">
        <ele>655</ele>
        <time>2026-05-13T11:33:55.000Z</time>
      </trkpt>
      <trkpt lat="44.18805" lon="5.42493">
        <ele>655</ele>
        <time>2026-05-13T11:33:56.000Z</time>
      </trkpt>
      <trkpt lat="44.18808" lon="5.42492">
        <ele>656</ele>
        <time>2026-05-13T11:33:57.000Z</time>
      </trkpt>
      <trkpt lat="44.18811" lon="5.42492">
        <ele>656</ele>
        <time>2026-05-13T11:33:58.000Z</time>
      </trkpt>
      <trkpt lat="44.18814" lon="5.42491">
        <ele>656</ele>
        <time>2026-05-13T11:33:59.000Z</time>
      </trkpt>
      <trkpt lat="44.18816" lon="5.4249">
        <ele>656</ele>
        <time>2026-05-13T11:34:00.000Z</time>
      </trkpt>
      <trkpt lat="44.18819" lon="5.4249">
        <ele>656</ele>
        <time>2026-05-13T11:34:01.000Z</time>
      </trkpt>
      <trkpt lat="44.18821" lon="5.42489">
        <ele>656</ele>
        <time>2026-05-13T11:34:02.000Z</time>
      </trkpt>
      <trkpt lat="44.18823" lon="5.42488">
        <ele>656</ele>
        <time>2026-05-13T11:34:03.000Z</time>
      </trkpt>
      <trkpt lat="44.18826" lon="5.42488">
        <ele>656</ele>
        <time>2026-05-13T11:34:04.000Z</time>
      </trkpt>
      <trkpt lat="44.18828" lon="5.42489">
        <ele>656</ele>
        <time>2026-05-13T11:34:05.000Z</time>
      </trkpt>
      <trkpt lat="44.1883" lon="5.42488">
        <ele>657</ele>
        <time>2026-05-13T11:34:06.000Z</time>
      </trkpt>
      <trkpt lat="44.18833" lon="5.42488">
        <ele>657</ele>
        <time>2026-05-13T11:34:07.000Z</time>
      </trkpt>
      <trkpt lat="44.18835" lon="5.42487">
        <ele>657</ele>
        <time>2026-05-13T11:34:08.000Z</time>
      </trkpt>
      <trkpt lat="44.18837" lon="5.42486">
        <ele>657</ele>
        <time>2026-05-13T11:34:09.000Z</time>
      </trkpt>
      <trkpt lat="44.1884" lon="5.42486">
        <ele>657</ele>
        <time>2026-05-13T11:34:10.000Z</time>
      </trkpt>
      <trkpt lat="44.18842" lon="5.42486">
        <ele>657</ele>
        <time>2026-05-13T11:34:11.000Z</time>
      </trkpt>
      <trkpt lat="44.18844" lon="5.42486">
        <ele>658</ele>
        <time>2026-05-13T11:34:12.000Z</time>
      </trkpt>
      <trkpt lat="44.18847" lon="5.42485">
        <ele>658</ele>
        <time>2026-05-13T11:34:13.000Z</time>
      </trkpt>
      <trkpt lat="44.18849" lon="5.42485">
        <ele>658</ele>
        <time>2026-05-13T11:34:14.000Z</time>
      </trkpt>
      <trkpt lat="44.18851" lon="5.42484">
        <ele>658</ele>
        <time>2026-05-13T11:34:15.000Z</time>
      </trkpt>
      <trkpt lat="44.18853" lon="5.42484">
        <ele>658</ele>
        <time>2026-05-13T11:34:16.000Z</time>
      </trkpt>
      <trkpt lat="44.18855" lon="5.42484">
        <ele>658</ele>
        <time>2026-05-13T11:34:17.000Z</time>
      </trkpt>
      <trkpt lat="44.18858" lon="5.42484">
        <ele>659</ele>
        <time>2026-05-13T11:34:18.000Z</time>
      </trkpt>
      <trkpt lat="44.1886" lon="5.42484">
        <ele>659</ele>
        <time>2026-05-13T11:34:19.000Z</time>
      </trkpt>
      <trkpt lat="44.18863" lon="5.42483">
        <ele>659</ele>
        <time>2026-05-13T11:34:20.000Z</time>
      </trkpt>
      <trkpt lat="44.18866" lon="5.42482">
        <ele>659</ele>
        <time>2026-05-13T11:34:21.000Z</time>
      </trkpt>
      <trkpt lat="44.18868" lon="5.42482">
        <ele>659</ele>
        <time>2026-05-13T11:34:22.000Z</time>
      </trkpt>
      <trkpt lat="44.18871" lon="5.42482">
        <ele>659</ele>
        <time>2026-05-13T11:34:23.000Z</time>
      </trkpt>
      <trkpt lat="44.18873" lon="5.42481">
        <ele>659</ele>
        <time>2026-05-13T11:34:24.000Z</time>
      </trkpt>
      <trkpt lat="44.18876" lon="5.42481">
        <ele>659</ele>
        <time>2026-05-13T11:34:25.000Z</time>
      </trkpt>
      <trkpt lat="44.18878" lon="5.4248">
        <ele>660</ele>
        <time>2026-05-13T11:34:26.000Z</time>
      </trkpt>
      <trkpt lat="44.18881" lon="5.4248">
        <ele>660</ele>
        <time>2026-05-13T11:34:27.000Z</time>
      </trkpt>
      <trkpt lat="44.18883" lon="5.4248">
        <ele>660</ele>
        <time>2026-05-13T11:34:28.000Z</time>
      </trkpt>
      <trkpt lat="44.18885" lon="5.4248">
        <ele>660</ele>
        <time>2026-05-13T11:34:29.000Z</time>
      </trkpt>
      <trkpt lat="44.18888" lon="5.4248">
        <ele>660</ele>
        <time>2026-05-13T11:34:30.000Z</time>
      </trkpt>
      <trkpt lat="44.1889" lon="5.4248">
        <ele>660</ele>
        <time>2026-05-13T11:34:31.000Z</time>
      </trkpt>
      <trkpt lat="44.18892" lon="5.42479">
        <ele>660</ele>
        <time>2026-05-13T11:34:32.000Z</time>
      </trkpt>
      <trkpt lat="44.18895" lon="5.42479">
        <ele>660</ele>
        <time>2026-05-13T11:34:33.000Z</time>
      </trkpt>
      <trkpt lat="44.18897" lon="5.4248">
        <ele>660</ele>
        <time>2026-05-13T11:34:34.000Z</time>
      </trkpt>
      <trkpt lat="44.18899" lon="5.42479">
        <ele>660</ele>
        <time>2026-05-13T11:34:35.000Z</time>
      </trkpt>
      <trkpt lat="44.18902" lon="5.42479">
        <ele>660</ele>
        <time>2026-05-13T11:34:36.000Z</time>
      </trkpt>
      <trkpt lat="44.18904" lon="5.42478">
        <ele>660</ele>
        <time>2026-05-13T11:34:37.000Z</time>
      </trkpt>
      <trkpt lat="44.18906" lon="5.42478">
        <ele>661</ele>
        <time>2026-05-13T11:34:38.000Z</time>
      </trkpt>
      <trkpt lat="44.18909" lon="5.42477">
        <ele>661</ele>
        <time>2026-05-13T11:34:39.000Z</time>
      </trkpt>
      <trkpt lat="44.18911" lon="5.42477">
        <ele>661</ele>
        <time>2026-05-13T11:34:40.000Z</time>
      </trkpt>
      <trkpt lat="44.18914" lon="5.42476">
        <ele>661</ele>
        <time>2026-05-13T11:34:41.000Z</time>
      </trkpt>
      <trkpt lat="44.18916" lon="5.42477">
        <ele>661</ele>
        <time>2026-05-13T11:34:42.000Z</time>
      </trkpt>
      <trkpt lat="44.18918" lon="5.42477">
        <ele>661</ele>
        <time>2026-05-13T11:34:43.000Z</time>
      </trkpt>
      <trkpt lat="44.18921" lon="5.42476">
        <ele>662</ele>
        <time>2026-05-13T11:34:44.000Z</time>
      </trkpt>
      <trkpt lat="44.18923" lon="5.42475">
        <ele>662</ele>
        <time>2026-05-13T11:34:45.000Z</time>
      </trkpt>
      <trkpt lat="44.18925" lon="5.42476">
        <ele>662</ele>
        <time>2026-05-13T11:34:46.000Z</time>
      </trkpt>
      <trkpt lat="44.18927" lon="5.42476">
        <ele>662</ele>
        <time>2026-05-13T11:34:47.000Z</time>
      </trkpt>
      <trkpt lat="44.1893" lon="5.42475">
        <ele>663</ele>
        <time>2026-05-13T11:34:48.000Z</time>
      </trkpt>
      <trkpt lat="44.18931" lon="5.42475">
        <ele>663</ele>
        <time>2026-05-13T11:34:49.000Z</time>
      </trkpt>
      <trkpt lat="44.18933" lon="5.42475">
        <ele>663</ele>
        <time>2026-05-13T11:34:50.000Z</time>
      </trkpt>
      <trkpt lat="44.18935" lon="5.42475">
        <ele>663</ele>
        <time>2026-05-13T11:34:51.000Z</time>
      </trkpt>
      <trkpt lat="44.18938" lon="5.42474">
        <ele>663</ele>
        <time>2026-05-13T11:34:52.000Z</time>
      </trkpt>
      <trkpt lat="44.1894" lon="5.42475">
        <ele>663</ele>
        <time>2026-05-13T11:34:53.000Z</time>
      </trkpt>
      <trkpt lat="44.18942" lon="5.42475">
        <ele>664</ele>
        <time>2026-05-13T11:34:54.000Z</time>
      </trkpt>
      <trkpt lat="44.18945" lon="5.42474">
        <ele>664</ele>
        <time>2026-05-13T11:34:55.000Z</time>
      </trkpt>
      <trkpt lat="44.18947" lon="5.42474">
        <ele>663</ele>
        <time>2026-05-13T11:34:56.000Z</time>
      </trkpt>
      <trkpt lat="44.18949" lon="5.42474">
        <ele>664</ele>
        <time>2026-05-13T11:34:57.000Z</time>
      </trkpt>
      <trkpt lat="44.18951" lon="5.42474">
        <ele>664</ele>
        <time>2026-05-13T11:34:58.000Z</time>
      </trkpt>
      <trkpt lat="44.18953" lon="5.42474">
        <ele>664</ele>
        <time>2026-05-13T11:34:59.000Z</time>
      </trkpt>
      <trkpt lat="44.18955" lon="5.42474">
        <ele>664</ele>
        <time>2026-05-13T11:35:00.000Z</time>
      </trkpt>
      <trkpt lat="44.18957" lon="5.42474">
        <ele>664</ele>
        <time>2026-05-13T11:35:01.000Z</time>
      </trkpt>
      <trkpt lat="44.18959" lon="5.42474">
        <ele>664</ele>
        <time>2026-05-13T11:35:02.000Z</time>
      </trkpt>
      <trkpt lat="44.18962" lon="5.42473">
        <ele>663</ele>
        <time>2026-05-13T11:35:03.000Z</time>
      </trkpt>
      <trkpt lat="44.18964" lon="5.42472">
        <ele>663</ele>
        <time>2026-05-13T11:35:04.000Z</time>
      </trkpt>
      <trkpt lat="44.18966" lon="5.42472">
        <ele>663</ele>
        <time>2026-05-13T11:35:05.000Z</time>
      </trkpt>
      <trkpt lat="44.18968" lon="5.42472">
        <ele>663</ele>
        <time>2026-05-13T11:35:06.000Z</time>
      </trkpt>
      <trkpt lat="44.1897" lon="5.42472">
        <ele>664</ele>
        <time>2026-05-13T11:35:07.000Z</time>
      </trkpt>
      <trkpt lat="44.18972" lon="5.42471">
        <ele>664</ele>
        <time>2026-05-13T11:35:08.000Z</time>
      </trkpt>
      <trkpt lat="44.18974" lon="5.4247">
        <ele>664</ele>
        <time>2026-05-13T11:35:09.000Z</time>
      </trkpt>
      <trkpt lat="44.18976" lon="5.42469">
        <ele>664</ele>
        <time>2026-05-13T11:35:10.000Z</time>
      </trkpt>
      <trkpt lat="44.18978" lon="5.42469">
        <ele>664</ele>
        <time>2026-05-13T11:35:11.000Z</time>
      </trkpt>
      <trkpt lat="44.1898" lon="5.42469">
        <ele>664</ele>
        <time>2026-05-13T11:35:12.000Z</time>
      </trkpt>
      <trkpt lat="44.18982" lon="5.42469">
        <ele>665</ele>
        <time>2026-05-13T11:35:13.000Z</time>
      </trkpt>
      <trkpt lat="44.18983" lon="5.42469">
        <ele>665</ele>
        <time>2026-05-13T11:35:14.000Z</time>
      </trkpt>
      <trkpt lat="44.18985" lon="5.42469">
        <ele>665</ele>
        <time>2026-05-13T11:35:15.000Z</time>
      </trkpt>
      <trkpt lat="44.18987" lon="5.42468">
        <ele>665</ele>
        <time>2026-05-13T11:35:16.000Z</time>
      </trkpt>
      <trkpt lat="44.18989" lon="5.42468">
        <ele>665</ele>
        <time>2026-05-13T11:35:17.000Z</time>
      </trkpt>
      <trkpt lat="44.18991" lon="5.42467">
        <ele>666</ele>
        <time>2026-05-13T11:35:18.000Z</time>
      </trkpt>
      <trkpt lat="44.18992" lon="5.42466">
        <ele>666</ele>
        <time>2026-05-13T11:35:19.000Z</time>
      </trkpt>
      <trkpt lat="44.18994" lon="5.42465">
        <ele>667</ele>
        <time>2026-05-13T11:35:20.000Z</time>
      </trkpt>
      <trkpt lat="44.18996" lon="5.42464">
        <ele>667</ele>
        <time>2026-05-13T11:35:21.000Z</time>
      </trkpt>
      <trkpt lat="44.18999" lon="5.42463">
        <ele>667</ele>
        <time>2026-05-13T11:35:22.000Z</time>
      </trkpt>
      <trkpt lat="44.19" lon="5.42462">
        <ele>668</ele>
        <time>2026-05-13T11:35:23.000Z</time>
      </trkpt>
      <trkpt lat="44.19002" lon="5.42461">
        <ele>668</ele>
        <time>2026-05-13T11:35:24.000Z</time>
      </trkpt>
      <trkpt lat="44.19004" lon="5.4246">
        <ele>668</ele>
        <time>2026-05-13T11:35:25.000Z</time>
      </trkpt>
      <trkpt lat="44.19006" lon="5.42459">
        <ele>667</ele>
        <time>2026-05-13T11:35:26.000Z</time>
      </trkpt>
      <trkpt lat="44.19008" lon="5.42457">
        <ele>667</ele>
        <time>2026-05-13T11:35:27.000Z</time>
      </trkpt>
      <trkpt lat="44.1901" lon="5.42456">
        <ele>667</ele>
        <time>2026-05-13T11:35:28.000Z</time>
      </trkpt>
      <trkpt lat="44.19011" lon="5.42455">
        <ele>667</ele>
        <time>2026-05-13T11:35:29.000Z</time>
      </trkpt>
      <trkpt lat="44.19014" lon="5.42453">
        <ele>667</ele>
        <time>2026-05-13T11:35:30.000Z</time>
      </trkpt>
      <trkpt lat="44.19016" lon="5.42453">
        <ele>667</ele>
        <time>2026-05-13T11:35:31.000Z</time>
      </trkpt>
      <trkpt lat="44.19018" lon="5.42451">
        <ele>668</ele>
        <time>2026-05-13T11:35:32.000Z</time>
      </trkpt>
      <trkpt lat="44.1902" lon="5.42451">
        <ele>668</ele>
        <time>2026-05-13T11:35:33.000Z</time>
      </trkpt>
      <trkpt lat="44.19022" lon="5.4245">
        <ele>668</ele>
        <time>2026-05-13T11:35:34.000Z</time>
      </trkpt>
      <trkpt lat="44.19024" lon="5.42449">
        <ele>668</ele>
        <time>2026-05-13T11:35:35.000Z</time>
      </trkpt>
      <trkpt lat="44.19026" lon="5.42447">
        <ele>668</ele>
        <time>2026-05-13T11:35:36.000Z</time>
      </trkpt>
      <trkpt lat="44.19028" lon="5.42446">
        <ele>668</ele>
        <time>2026-05-13T11:35:37.000Z</time>
      </trkpt>
      <trkpt lat="44.1903" lon="5.42445">
        <ele>669</ele>
        <time>2026-05-13T11:35:38.000Z</time>
      </trkpt>
      <trkpt lat="44.19032" lon="5.42444">
        <ele>669</ele>
        <time>2026-05-13T11:35:39.000Z</time>
      </trkpt>
      <trkpt lat="44.19034" lon="5.42443">
        <ele>669</ele>
        <time>2026-05-13T11:35:40.000Z</time>
      </trkpt>
      <trkpt lat="44.19037" lon="5.42442">
        <ele>669</ele>
        <time>2026-05-13T11:35:41.000Z</time>
      </trkpt>
      <trkpt lat="44.19039" lon="5.4244">
        <ele>669</ele>
        <time>2026-05-13T11:35:42.000Z</time>
      </trkpt>
      <trkpt lat="44.19041" lon="5.42439">
        <ele>669</ele>
        <time>2026-05-13T11:35:43.000Z</time>
      </trkpt>
      <trkpt lat="44.19044" lon="5.42439">
        <ele>669</ele>
        <time>2026-05-13T11:35:44.000Z</time>
      </trkpt>
      <trkpt lat="44.19046" lon="5.42438">
        <ele>669</ele>
        <time>2026-05-13T11:35:45.000Z</time>
      </trkpt>
      <trkpt lat="44.19049" lon="5.42436">
        <ele>669</ele>
        <time>2026-05-13T11:35:46.000Z</time>
      </trkpt>
      <trkpt lat="44.19051" lon="5.42435">
        <ele>669</ele>
        <time>2026-05-13T11:35:47.000Z</time>
      </trkpt>
      <trkpt lat="44.19054" lon="5.42434">
        <ele>670</ele>
        <time>2026-05-13T11:35:48.000Z</time>
      </trkpt>
      <trkpt lat="44.19057" lon="5.42433">
        <ele>670</ele>
        <time>2026-05-13T11:35:49.000Z</time>
      </trkpt>
      <trkpt lat="44.19059" lon="5.42431">
        <ele>670</ele>
        <time>2026-05-13T11:35:50.000Z</time>
      </trkpt>
      <trkpt lat="44.19062" lon="5.4243">
        <ele>670</ele>
        <time>2026-05-13T11:35:51.000Z</time>
      </trkpt>
      <trkpt lat="44.19065" lon="5.42429">
        <ele>670</ele>
        <time>2026-05-13T11:35:52.000Z</time>
      </trkpt>
      <trkpt lat="44.19067" lon="5.42427">
        <ele>669</ele>
        <time>2026-05-13T11:35:53.000Z</time>
      </trkpt>
      <trkpt lat="44.1907" lon="5.42425">
        <ele>670</ele>
        <time>2026-05-13T11:35:54.000Z</time>
      </trkpt>
      <trkpt lat="44.19073" lon="5.42424">
        <ele>670</ele>
        <time>2026-05-13T11:35:55.000Z</time>
      </trkpt>
      <trkpt lat="44.19076" lon="5.42423">
        <ele>670</ele>
        <time>2026-05-13T11:35:56.000Z</time>
      </trkpt>
      <trkpt lat="44.19079" lon="5.42422">
        <ele>670</ele>
        <time>2026-05-13T11:35:57.000Z</time>
      </trkpt>
      <trkpt lat="44.19082" lon="5.4242">
        <ele>670</ele>
        <time>2026-05-13T11:35:58.000Z</time>
      </trkpt>
      <trkpt lat="44.19084" lon="5.42419">
        <ele>670</ele>
        <time>2026-05-13T11:35:59.000Z</time>
      </trkpt>
      <trkpt lat="44.19087" lon="5.42418">
        <ele>670</ele>
        <time>2026-05-13T11:36:00.000Z</time>
      </trkpt>
      <trkpt lat="44.1909" lon="5.42417">
        <ele>670</ele>
        <time>2026-05-13T11:36:01.000Z</time>
      </trkpt>
      <trkpt lat="44.19093" lon="5.42416">
        <ele>670</ele>
        <time>2026-05-13T11:36:02.000Z</time>
      </trkpt>
      <trkpt lat="44.19096" lon="5.42414">
        <ele>670</ele>
        <time>2026-05-13T11:36:03.000Z</time>
      </trkpt>
      <trkpt lat="44.19099" lon="5.42412">
        <ele>670</ele>
        <time>2026-05-13T11:36:04.000Z</time>
      </trkpt>
      <trkpt lat="44.19102" lon="5.42409">
        <ele>670</ele>
        <time>2026-05-13T11:36:05.000Z</time>
      </trkpt>
      <trkpt lat="44.19106" lon="5.42407">
        <ele>670</ele>
        <time>2026-05-13T11:36:06.000Z</time>
      </trkpt>
      <trkpt lat="44.19109" lon="5.42403">
        <ele>671</ele>
        <time>2026-05-13T11:36:07.000Z</time>
      </trkpt>
      <trkpt lat="44.19112" lon="5.424">
        <ele>671</ele>
        <time>2026-05-13T11:36:08.000Z</time>
      </trkpt>
      <trkpt lat="44.19115" lon="5.42398">
        <ele>671</ele>
        <time>2026-05-13T11:36:09.000Z</time>
      </trkpt>
      <trkpt lat="44.19118" lon="5.42395">
        <ele>670</ele>
        <time>2026-05-13T11:36:10.000Z</time>
      </trkpt>
      <trkpt lat="44.19121" lon="5.42393">
        <ele>670</ele>
        <time>2026-05-13T11:36:11.000Z</time>
      </trkpt>
      <trkpt lat="44.19124" lon="5.4239">
        <ele>670</ele>
        <time>2026-05-13T11:36:12.000Z</time>
      </trkpt>
      <trkpt lat="44.19128" lon="5.42388">
        <ele>670</ele>
        <time>2026-05-13T11:36:13.000Z</time>
      </trkpt>
      <trkpt lat="44.19132" lon="5.42386">
        <ele>669</ele>
        <time>2026-05-13T11:36:14.000Z</time>
      </trkpt>
      <trkpt lat="44.19135" lon="5.42382">
        <ele>669</ele>
        <time>2026-05-13T11:36:15.000Z</time>
      </trkpt>
      <trkpt lat="44.19139" lon="5.42379">
        <ele>669</ele>
        <time>2026-05-13T11:36:16.000Z</time>
      </trkpt>
      <trkpt lat="44.19143" lon="5.42376">
        <ele>669</ele>
        <time>2026-05-13T11:36:17.000Z</time>
      </trkpt>
      <trkpt lat="44.19147" lon="5.42374">
        <ele>669</ele>
        <time>2026-05-13T11:36:18.000Z</time>
      </trkpt>
      <trkpt lat="44.19151" lon="5.42371">
        <ele>669</ele>
        <time>2026-05-13T11:36:19.000Z</time>
      </trkpt>
      <trkpt lat="44.19155" lon="5.42368">
        <ele>669</ele>
        <time>2026-05-13T11:36:20.000Z</time>
      </trkpt>
      <trkpt lat="44.19159" lon="5.42365">
        <ele>669</ele>
        <time>2026-05-13T11:36:21.000Z</time>
      </trkpt>
      <trkpt lat="44.19163" lon="5.42363">
        <ele>669</ele>
        <time>2026-05-13T11:36:22.000Z</time>
      </trkpt>
      <trkpt lat="44.19166" lon="5.4236">
        <ele>669</ele>
        <time>2026-05-13T11:36:23.000Z</time>
      </trkpt>
      <trkpt lat="44.1917" lon="5.42357">
        <ele>668</ele>
        <time>2026-05-13T11:36:24.000Z</time>
      </trkpt>
      <trkpt lat="44.19173" lon="5.42354">
        <ele>668</ele>
        <time>2026-05-13T11:36:25.000Z</time>
      </trkpt>
      <trkpt lat="44.19177" lon="5.42351">
        <ele>668</ele>
        <time>2026-05-13T11:36:26.000Z</time>
      </trkpt>
      <trkpt lat="44.1918" lon="5.42348">
        <ele>669</ele>
        <time>2026-05-13T11:36:27.000Z</time>
      </trkpt>
      <trkpt lat="44.19184" lon="5.42345">
        <ele>668</ele>
        <time>2026-05-13T11:36:28.000Z</time>
      </trkpt>
      <trkpt lat="44.19188" lon="5.42343">
        <ele>668</ele>
        <time>2026-05-13T11:36:29.000Z</time>
      </trkpt>
      <trkpt lat="44.19191" lon="5.4234">
        <ele>668</ele>
        <time>2026-05-13T11:36:30.000Z</time>
      </trkpt>
      <trkpt lat="44.19195" lon="5.42337">
        <ele>668</ele>
        <time>2026-05-13T11:36:31.000Z</time>
      </trkpt>
      <trkpt lat="44.19199" lon="5.42333">
        <ele>668</ele>
        <time>2026-05-13T11:36:32.000Z</time>
      </trkpt>
      <trkpt lat="44.19203" lon="5.42331">
        <ele>668</ele>
        <time>2026-05-13T11:36:33.000Z</time>
      </trkpt>
      <trkpt lat="44.19207" lon="5.42328">
        <ele>668</ele>
        <time>2026-05-13T11:36:34.000Z</time>
      </trkpt>
      <trkpt lat="44.1921" lon="5.42326">
        <ele>668</ele>
        <time>2026-05-13T11:36:35.000Z</time>
      </trkpt>
      <trkpt lat="44.19214" lon="5.42324">
        <ele>668</ele>
        <time>2026-05-13T11:36:36.000Z</time>
      </trkpt>
      <trkpt lat="44.19218" lon="5.42321">
        <ele>668</ele>
        <time>2026-05-13T11:36:37.000Z</time>
      </trkpt>
      <trkpt lat="44.19222" lon="5.4232">
        <ele>668</ele>
        <time>2026-05-13T11:36:38.000Z</time>
      </trkpt>
      <trkpt lat="44.19226" lon="5.42318">
        <ele>669</ele>
        <time>2026-05-13T11:36:39.000Z</time>
      </trkpt>
      <trkpt lat="44.19229" lon="5.42316">
        <ele>668</ele>
        <time>2026-05-13T11:36:40.000Z</time>
      </trkpt>
      <trkpt lat="44.19233" lon="5.42315">
        <ele>668</ele>
        <time>2026-05-13T11:36:41.000Z</time>
      </trkpt>
      <trkpt lat="44.19238" lon="5.42313">
        <ele>668</ele>
        <time>2026-05-13T11:36:42.000Z</time>
      </trkpt>
      <trkpt lat="44.19241" lon="5.42311">
        <ele>668</ele>
        <time>2026-05-13T11:36:43.000Z</time>
      </trkpt>
      <trkpt lat="44.19245" lon="5.42307">
        <ele>667</ele>
        <time>2026-05-13T11:36:44.000Z</time>
      </trkpt>
      <trkpt lat="44.19248" lon="5.42304">
        <ele>667</ele>
        <time>2026-05-13T11:36:45.000Z</time>
      </trkpt>
      <trkpt lat="44.19251" lon="5.423">
        <ele>667</ele>
        <time>2026-05-13T11:36:46.000Z</time>
      </trkpt>
      <trkpt lat="44.19254" lon="5.42296">
        <ele>667</ele>
        <time>2026-05-13T11:36:47.000Z</time>
      </trkpt>
      <trkpt lat="44.19257" lon="5.42293">
        <ele>668</ele>
        <time>2026-05-13T11:36:48.000Z</time>
      </trkpt>
      <trkpt lat="44.1926" lon="5.42289">
        <ele>667</ele>
        <time>2026-05-13T11:36:49.000Z</time>
      </trkpt>
      <trkpt lat="44.19263" lon="5.42285">
        <ele>667</ele>
        <time>2026-05-13T11:36:50.000Z</time>
      </trkpt>
      <trkpt lat="44.19266" lon="5.4228">
        <ele>667</ele>
        <time>2026-05-13T11:36:51.000Z</time>
      </trkpt>
      <trkpt lat="44.19269" lon="5.42276">
        <ele>667</ele>
        <time>2026-05-13T11:36:52.000Z</time>
      </trkpt>
      <trkpt lat="44.19273" lon="5.42272">
        <ele>667</ele>
        <time>2026-05-13T11:36:53.000Z</time>
      </trkpt>
      <trkpt lat="44.19276" lon="5.42268">
        <ele>666</ele>
        <time>2026-05-13T11:36:54.000Z</time>
      </trkpt>
      <trkpt lat="44.19279" lon="5.42265">
        <ele>666</ele>
        <time>2026-05-13T11:36:55.000Z</time>
      </trkpt>
      <trkpt lat="44.19282" lon="5.4226">
        <ele>666</ele>
        <time>2026-05-13T11:36:56.000Z</time>
      </trkpt>
      <trkpt lat="44.19285" lon="5.42256">
        <ele>666</ele>
        <time>2026-05-13T11:36:57.000Z</time>
      </trkpt>
      <trkpt lat="44.19288" lon="5.42252">
        <ele>666</ele>
        <time>2026-05-13T11:36:58.000Z</time>
      </trkpt>
      <trkpt lat="44.1929" lon="5.42249">
        <ele>666</ele>
        <time>2026-05-13T11:36:59.000Z</time>
      </trkpt>
      <trkpt lat="44.19293" lon="5.42245">
        <ele>666</ele>
        <time>2026-05-13T11:37:00.000Z</time>
      </trkpt>
      <trkpt lat="44.19296" lon="5.4224">
        <ele>666</ele>
        <time>2026-05-13T11:37:01.000Z</time>
      </trkpt>
      <trkpt lat="44.19298" lon="5.42236">
        <ele>666</ele>
        <time>2026-05-13T11:37:02.000Z</time>
      </trkpt>
      <trkpt lat="44.19301" lon="5.42231">
        <ele>666</ele>
        <time>2026-05-13T11:37:03.000Z</time>
      </trkpt>
      <trkpt lat="44.19304" lon="5.42226">
        <ele>667</ele>
        <time>2026-05-13T11:37:04.000Z</time>
      </trkpt>
      <trkpt lat="44.19307" lon="5.42222">
        <ele>667</ele>
        <time>2026-05-13T11:37:05.000Z</time>
      </trkpt>
      <trkpt lat="44.19309" lon="5.42216">
        <ele>667</ele>
        <time>2026-05-13T11:37:06.000Z</time>
      </trkpt>
      <trkpt lat="44.19311" lon="5.4221">
        <ele>667</ele>
        <time>2026-05-13T11:37:07.000Z</time>
      </trkpt>
      <trkpt lat="44.19313" lon="5.42206">
        <ele>667</ele>
        <time>2026-05-13T11:37:08.000Z</time>
      </trkpt>
      <trkpt lat="44.19315" lon="5.422">
        <ele>668</ele>
        <time>2026-05-13T11:37:09.000Z</time>
      </trkpt>
      <trkpt lat="44.19317" lon="5.42195">
        <ele>668</ele>
        <time>2026-05-13T11:37:10.000Z</time>
      </trkpt>
      <trkpt lat="44.19319" lon="5.4219">
        <ele>668</ele>
        <time>2026-05-13T11:37:11.000Z</time>
      </trkpt>
      <trkpt lat="44.19321" lon="5.42185">
        <ele>668</ele>
        <time>2026-05-13T11:37:12.000Z</time>
      </trkpt>
      <trkpt lat="44.19323" lon="5.42179">
        <ele>668</ele>
        <time>2026-05-13T11:37:13.000Z</time>
      </trkpt>
      <trkpt lat="44.19326" lon="5.42175">
        <ele>668</ele>
        <time>2026-05-13T11:37:14.000Z</time>
      </trkpt>
      <trkpt lat="44.19327" lon="5.42171">
        <ele>668</ele>
        <time>2026-05-13T11:37:15.000Z</time>
      </trkpt>
      <trkpt lat="44.19329" lon="5.42167">
        <ele>668</ele>
        <time>2026-05-13T11:37:16.000Z</time>
      </trkpt>
      <trkpt lat="44.19331" lon="5.42163">
        <ele>668</ele>
        <time>2026-05-13T11:37:17.000Z</time>
      </trkpt>
      <trkpt lat="44.19332" lon="5.4216">
        <ele>667</ele>
        <time>2026-05-13T11:37:18.000Z</time>
      </trkpt>
      <trkpt lat="44.19334" lon="5.42158">
        <ele>666</ele>
        <time>2026-05-13T11:37:19.000Z</time>
      </trkpt>
      <trkpt lat="44.19336" lon="5.42155">
        <ele>664</ele>
        <time>2026-05-13T11:37:20.000Z</time>
      </trkpt>
      <trkpt lat="44.19338" lon="5.42153">
        <ele>663</ele>
        <time>2026-05-13T11:37:21.000Z</time>
      </trkpt>
      <trkpt lat="44.19339" lon="5.42149">
        <ele>664</ele>
        <time>2026-05-13T11:37:22.000Z</time>
      </trkpt>
      <trkpt lat="44.1934" lon="5.42145">
        <ele>664</ele>
        <time>2026-05-13T11:37:23.000Z</time>
      </trkpt>
      <trkpt lat="44.19342" lon="5.42141">
        <ele>664</ele>
        <time>2026-05-13T11:37:24.000Z</time>
      </trkpt>
      <trkpt lat="44.19343" lon="5.42137">
        <ele>664</ele>
        <time>2026-05-13T11:37:25.000Z</time>
      </trkpt>
      <trkpt lat="44.19344" lon="5.42133">
        <ele>664</ele>
        <time>2026-05-13T11:37:26.000Z</time>
      </trkpt>
      <trkpt lat="44.19345" lon="5.42129">
        <ele>665</ele>
        <time>2026-05-13T11:37:27.000Z</time>
      </trkpt>
      <trkpt lat="44.19345" lon="5.42125">
        <ele>665</ele>
        <time>2026-05-13T11:37:28.000Z</time>
      </trkpt>
      <trkpt lat="44.19347" lon="5.42122">
        <ele>665</ele>
        <time>2026-05-13T11:37:29.000Z</time>
      </trkpt>
      <trkpt lat="44.19348" lon="5.42119">
        <ele>666</ele>
        <time>2026-05-13T11:37:30.000Z</time>
      </trkpt>
      <trkpt lat="44.19349" lon="5.42115">
        <ele>665</ele>
        <time>2026-05-13T11:37:31.000Z</time>
      </trkpt>
      <trkpt lat="44.1935" lon="5.42112">
        <ele>666</ele>
        <time>2026-05-13T11:37:32.000Z</time>
      </trkpt>
      <trkpt lat="44.19351" lon="5.42109">
        <ele>666</ele>
        <time>2026-05-13T11:37:33.000Z</time>
      </trkpt>
      <trkpt lat="44.19352" lon="5.42106">
        <ele>666</ele>
        <time>2026-05-13T11:37:34.000Z</time>
      </trkpt>
      <trkpt lat="44.19353" lon="5.42103">
        <ele>666</ele>
        <time>2026-05-13T11:37:35.000Z</time>
      </trkpt>
      <trkpt lat="44.19354" lon="5.421">
        <ele>666</ele>
        <time>2026-05-13T11:37:36.000Z</time>
      </trkpt>
      <trkpt lat="44.19355" lon="5.42097">
        <ele>666</ele>
        <time>2026-05-13T11:37:37.000Z</time>
      </trkpt>
      <trkpt lat="44.19356" lon="5.42095">
        <ele>666</ele>
        <time>2026-05-13T11:37:38.000Z</time>
      </trkpt>
      <trkpt lat="44.19357" lon="5.42092">
        <ele>666</ele>
        <time>2026-05-13T11:37:39.000Z</time>
      </trkpt>
      <trkpt lat="44.19358" lon="5.42089">
        <ele>666</ele>
        <time>2026-05-13T11:37:40.000Z</time>
      </trkpt>
      <trkpt lat="44.19359" lon="5.42086">
        <ele>666</ele>
        <time>2026-05-13T11:37:41.000Z</time>
      </trkpt>
      <trkpt lat="44.1936" lon="5.42083">
        <ele>666</ele>
        <time>2026-05-13T11:37:42.000Z</time>
      </trkpt>
      <trkpt lat="44.19361" lon="5.4208">
        <ele>666</ele>
        <time>2026-05-13T11:37:43.000Z</time>
      </trkpt>
      <trkpt lat="44.19362" lon="5.42077">
        <ele>666</ele>
        <time>2026-05-13T11:37:44.000Z</time>
      </trkpt>
      <trkpt lat="44.19363" lon="5.42074">
        <ele>666</ele>
        <time>2026-05-13T11:37:45.000Z</time>
      </trkpt>
      <trkpt lat="44.19363" lon="5.4207">
        <ele>666</ele>
        <time>2026-05-13T11:37:46.000Z</time>
      </trkpt>
      <trkpt lat="44.19364" lon="5.42066">
        <ele>667</ele>
        <time>2026-05-13T11:37:47.000Z</time>
      </trkpt>
      <trkpt lat="44.19365" lon="5.42063">
        <ele>667</ele>
        <time>2026-05-13T11:37:48.000Z</time>
      </trkpt>
      <trkpt lat="44.19365" lon="5.42059">
        <ele>667</ele>
        <time>2026-05-13T11:37:49.000Z</time>
      </trkpt>
      <trkpt lat="44.19365" lon="5.42056">
        <ele>668</ele>
        <time>2026-05-13T11:37:50.000Z</time>
      </trkpt>
      <trkpt lat="44.19366" lon="5.42052">
        <ele>668</ele>
        <time>2026-05-13T11:37:51.000Z</time>
      </trkpt>
      <trkpt lat="44.19367" lon="5.42049">
        <ele>669</ele>
        <time>2026-05-13T11:37:52.000Z</time>
      </trkpt>
      <trkpt lat="44.19367" lon="5.42046">
        <ele>669</ele>
        <time>2026-05-13T11:37:53.000Z</time>
      </trkpt>
      <trkpt lat="44.19368" lon="5.42043">
        <ele>669</ele>
        <time>2026-05-13T11:37:54.000Z</time>
      </trkpt>
      <trkpt lat="44.19369" lon="5.42039">
        <ele>670</ele>
        <time>2026-05-13T11:37:55.000Z</time>
      </trkpt>
      <trkpt lat="44.1937" lon="5.42036">
        <ele>670</ele>
        <time>2026-05-13T11:37:56.000Z</time>
      </trkpt>
      <trkpt lat="44.19371" lon="5.42033">
        <ele>671</ele>
        <time>2026-05-13T11:37:57.000Z</time>
      </trkpt>
      <trkpt lat="44.19371" lon="5.4203">
        <ele>671</ele>
        <time>2026-05-13T11:37:58.000Z</time>
      </trkpt>
      <trkpt lat="44.19372" lon="5.42027">
        <ele>671</ele>
        <time>2026-05-13T11:37:59.000Z</time>
      </trkpt>
      <trkpt lat="44.19373" lon="5.42023">
        <ele>671</ele>
        <time>2026-05-13T11:38:00.000Z</time>
      </trkpt>
      <trkpt lat="44.19373" lon="5.4202">
        <ele>671</ele>
        <time>2026-05-13T11:38:01.000Z</time>
      </trkpt>
      <trkpt lat="44.19374" lon="5.42018">
        <ele>672</ele>
        <time>2026-05-13T11:38:02.000Z</time>
      </trkpt>
      <trkpt lat="44.19375" lon="5.42016">
        <ele>672</ele>
        <time>2026-05-13T11:38:03.000Z</time>
      </trkpt>
      <trkpt lat="44.19376" lon="5.42013">
        <ele>672</ele>
        <time>2026-05-13T11:38:04.000Z</time>
      </trkpt>
      <trkpt lat="44.19376" lon="5.4201">
        <ele>672</ele>
        <time>2026-05-13T11:38:05.000Z</time>
      </trkpt>
      <trkpt lat="44.19377" lon="5.42007">
        <ele>672</ele>
        <time>2026-05-13T11:38:06.000Z</time>
      </trkpt>
      <trkpt lat="44.19378" lon="5.42004">
        <ele>672</ele>
        <time>2026-05-13T11:38:07.000Z</time>
      </trkpt>
      <trkpt lat="44.19379" lon="5.42002">
        <ele>673</ele>
        <time>2026-05-13T11:38:08.000Z</time>
      </trkpt>
      <trkpt lat="44.1938" lon="5.41999">
        <ele>673</ele>
        <time>2026-05-13T11:38:09.000Z</time>
      </trkpt>
      <trkpt lat="44.19381" lon="5.41996">
        <ele>673</ele>
        <time>2026-05-13T11:38:10.000Z</time>
      </trkpt>
      <trkpt lat="44.19382" lon="5.41994">
        <ele>674</ele>
        <time>2026-05-13T11:38:11.000Z</time>
      </trkpt>
      <trkpt lat="44.19383" lon="5.41991">
        <ele>674</ele>
        <time>2026-05-13T11:38:12.000Z</time>
      </trkpt>
      <trkpt lat="44.19384" lon="5.41989">
        <ele>674</ele>
        <time>2026-05-13T11:38:13.000Z</time>
      </trkpt>
      <trkpt lat="44.19385" lon="5.41986">
        <ele>674</ele>
        <time>2026-05-13T11:38:14.000Z</time>
      </trkpt>
      <trkpt lat="44.19386" lon="5.41984">
        <ele>674</ele>
        <time>2026-05-13T11:38:15.000Z</time>
      </trkpt>
      <trkpt lat="44.19388" lon="5.41982">
        <ele>674</ele>
        <time>2026-05-13T11:38:16.000Z</time>
      </trkpt>
      <trkpt lat="44.19389" lon="5.41979">
        <ele>674</ele>
        <time>2026-05-13T11:38:17.000Z</time>
      </trkpt>
      <trkpt lat="44.1939" lon="5.41977">
        <ele>675</ele>
        <time>2026-05-13T11:38:18.000Z</time>
      </trkpt>
      <trkpt lat="44.19391" lon="5.41975">
        <ele>675</ele>
        <time>2026-05-13T11:38:19.000Z</time>
      </trkpt>
      <trkpt lat="44.19392" lon="5.41972">
        <ele>676</ele>
        <time>2026-05-13T11:38:20.000Z</time>
      </trkpt>
      <trkpt lat="44.19393" lon="5.41969">
        <ele>676</ele>
        <time>2026-05-13T11:38:21.000Z</time>
      </trkpt>
      <trkpt lat="44.19394" lon="5.41966">
        <ele>675</ele>
        <time>2026-05-13T11:38:22.000Z</time>
      </trkpt>
      <trkpt lat="44.19395" lon="5.41964">
        <ele>675</ele>
        <time>2026-05-13T11:38:23.000Z</time>
      </trkpt>
      <trkpt lat="44.19397" lon="5.41963">
        <ele>675</ele>
        <time>2026-05-13T11:38:24.000Z</time>
      </trkpt>
      <trkpt lat="44.19398" lon="5.4196">
        <ele>675</ele>
        <time>2026-05-13T11:38:25.000Z</time>
      </trkpt>
      <trkpt lat="44.19399" lon="5.41958">
        <ele>675</ele>
        <time>2026-05-13T11:38:26.000Z</time>
      </trkpt>
      <trkpt lat="44.19401" lon="5.41955">
        <ele>676</ele>
        <time>2026-05-13T11:38:27.000Z</time>
      </trkpt>
      <trkpt lat="44.19402" lon="5.41953">
        <ele>676</ele>
        <time>2026-05-13T11:38:28.000Z</time>
      </trkpt>
      <trkpt lat="44.19403" lon="5.4195">
        <ele>676</ele>
        <time>2026-05-13T11:38:29.000Z</time>
      </trkpt>
      <trkpt lat="44.19404" lon="5.41948">
        <ele>676</ele>
        <time>2026-05-13T11:38:30.000Z</time>
      </trkpt>
      <trkpt lat="44.19405" lon="5.41945">
        <ele>676</ele>
        <time>2026-05-13T11:38:31.000Z</time>
      </trkpt>
      <trkpt lat="44.19407" lon="5.41942">
        <ele>677</ele>
        <time>2026-05-13T11:38:32.000Z</time>
      </trkpt>
      <trkpt lat="44.19408" lon="5.4194">
        <ele>678</ele>
        <time>2026-05-13T11:38:33.000Z</time>
      </trkpt>
      <trkpt lat="44.19409" lon="5.41938">
        <ele>678</ele>
        <time>2026-05-13T11:38:34.000Z</time>
      </trkpt>
      <trkpt lat="44.19411" lon="5.41936">
        <ele>678</ele>
        <time>2026-05-13T11:38:35.000Z</time>
      </trkpt>
      <trkpt lat="44.19412" lon="5.41933">
        <ele>677</ele>
        <time>2026-05-13T11:38:36.000Z</time>
      </trkpt>
      <trkpt lat="44.19414" lon="5.4193">
        <ele>678</ele>
        <time>2026-05-13T11:38:37.000Z</time>
      </trkpt>
      <trkpt lat="44.19415" lon="5.41928">
        <ele>678</ele>
        <time>2026-05-13T11:38:38.000Z</time>
      </trkpt>
      <trkpt lat="44.19416" lon="5.41926">
        <ele>678</ele>
        <time>2026-05-13T11:38:39.000Z</time>
      </trkpt>
      <trkpt lat="44.19417" lon="5.41924">
        <ele>679</ele>
        <time>2026-05-13T11:38:40.000Z</time>
      </trkpt>
      <trkpt lat="44.19418" lon="5.41921">
        <ele>679</ele>
        <time>2026-05-13T11:38:41.000Z</time>
      </trkpt>
      <trkpt lat="44.1942" lon="5.41919">
        <ele>679</ele>
        <time>2026-05-13T11:38:42.000Z</time>
      </trkpt>
      <trkpt lat="44.19421" lon="5.41916">
        <ele>679</ele>
        <time>2026-05-13T11:38:43.000Z</time>
      </trkpt>
      <trkpt lat="44.19422" lon="5.41914">
        <ele>680</ele>
        <time>2026-05-13T11:38:44.000Z</time>
      </trkpt>
      <trkpt lat="44.19423" lon="5.41912">
        <ele>680</ele>
        <time>2026-05-13T11:38:45.000Z</time>
      </trkpt>
      <trkpt lat="44.19424" lon="5.4191">
        <ele>680</ele>
        <time>2026-05-13T11:38:46.000Z</time>
      </trkpt>
      <trkpt lat="44.19426" lon="5.41907">
        <ele>680</ele>
        <time>2026-05-13T11:38:47.000Z</time>
      </trkpt>
      <trkpt lat="44.19427" lon="5.41905">
        <ele>680</ele>
        <time>2026-05-13T11:38:48.000Z</time>
      </trkpt>
      <trkpt lat="44.19428" lon="5.41902">
        <ele>681</ele>
        <time>2026-05-13T11:38:49.000Z</time>
      </trkpt>
      <trkpt lat="44.19429" lon="5.41899">
        <ele>681</ele>
        <time>2026-05-13T11:38:50.000Z</time>
      </trkpt>
      <trkpt lat="44.1943" lon="5.41897">
        <ele>681</ele>
        <time>2026-05-13T11:38:51.000Z</time>
      </trkpt>
      <trkpt lat="44.19432" lon="5.41895">
        <ele>681</ele>
        <time>2026-05-13T11:38:52.000Z</time>
      </trkpt>
      <trkpt lat="44.19433" lon="5.41893">
        <ele>681</ele>
        <time>2026-05-13T11:38:53.000Z</time>
      </trkpt>
      <trkpt lat="44.19435" lon="5.41891">
        <ele>682</ele>
        <time>2026-05-13T11:38:54.000Z</time>
      </trkpt>
      <trkpt lat="44.19437" lon="5.41889">
        <ele>682</ele>
        <time>2026-05-13T11:38:55.000Z</time>
      </trkpt>
      <trkpt lat="44.19438" lon="5.41886">
        <ele>682</ele>
        <time>2026-05-13T11:38:56.000Z</time>
      </trkpt>
      <trkpt lat="44.1944" lon="5.41884">
        <ele>682</ele>
        <time>2026-05-13T11:38:57.000Z</time>
      </trkpt>
      <trkpt lat="44.19441" lon="5.41882">
        <ele>682</ele>
        <time>2026-05-13T11:38:58.000Z</time>
      </trkpt>
      <trkpt lat="44.19443" lon="5.4188">
        <ele>681</ele>
        <time>2026-05-13T11:38:59.000Z</time>
      </trkpt>
      <trkpt lat="44.19444" lon="5.41877">
        <ele>681</ele>
        <time>2026-05-13T11:39:00.000Z</time>
      </trkpt>
      <trkpt lat="44.19445" lon="5.41876">
        <ele>681</ele>
        <time>2026-05-13T11:39:01.000Z</time>
      </trkpt>
      <trkpt lat="44.19446" lon="5.41874">
        <ele>682</ele>
        <time>2026-05-13T11:39:02.000Z</time>
      </trkpt>
      <trkpt lat="44.19448" lon="5.4187">
        <ele>682</ele>
        <time>2026-05-13T11:39:03.000Z</time>
      </trkpt>
      <trkpt lat="44.19449" lon="5.41868">
        <ele>682</ele>
        <time>2026-05-13T11:39:04.000Z</time>
      </trkpt>
      <trkpt lat="44.1945" lon="5.41865">
        <ele>683</ele>
        <time>2026-05-13T11:39:05.000Z</time>
      </trkpt>
      <trkpt lat="44.19452" lon="5.41863">
        <ele>682</ele>
        <time>2026-05-13T11:39:06.000Z</time>
      </trkpt>
      <trkpt lat="44.19453" lon="5.41861">
        <ele>682</ele>
        <time>2026-05-13T11:39:07.000Z</time>
      </trkpt>
      <trkpt lat="44.19454" lon="5.41859">
        <ele>683</ele>
        <time>2026-05-13T11:39:08.000Z</time>
      </trkpt>
      <trkpt lat="44.19455" lon="5.41857">
        <ele>683</ele>
        <time>2026-05-13T11:39:09.000Z</time>
      </trkpt>
      <trkpt lat="44.19457" lon="5.41855">
        <ele>683</ele>
        <time>2026-05-13T11:39:10.000Z</time>
      </trkpt>
      <trkpt lat="44.19459" lon="5.41853">
        <ele>683</ele>
        <time>2026-05-13T11:39:11.000Z</time>
      </trkpt>
      <trkpt lat="44.1946" lon="5.4185">
        <ele>682</ele>
        <time>2026-05-13T11:39:12.000Z</time>
      </trkpt>
      <trkpt lat="44.19461" lon="5.41848">
        <ele>682</ele>
        <time>2026-05-13T11:39:13.000Z</time>
      </trkpt>
      <trkpt lat="44.19463" lon="5.41846">
        <ele>683</ele>
        <time>2026-05-13T11:39:14.000Z</time>
      </trkpt>
      <trkpt lat="44.19464" lon="5.41843">
        <ele>683</ele>
        <time>2026-05-13T11:39:15.000Z</time>
      </trkpt>
      <trkpt lat="44.19466" lon="5.41841">
        <ele>683</ele>
        <time>2026-05-13T11:39:16.000Z</time>
      </trkpt>
      <trkpt lat="44.19468" lon="5.4184">
        <ele>683</ele>
        <time>2026-05-13T11:39:17.000Z</time>
      </trkpt>
      <trkpt lat="44.1947" lon="5.41837">
        <ele>683</ele>
        <time>2026-05-13T11:39:18.000Z</time>
      </trkpt>
      <trkpt lat="44.19472" lon="5.41835">
        <ele>683</ele>
        <time>2026-05-13T11:39:19.000Z</time>
      </trkpt>
      <trkpt lat="44.19474" lon="5.41832">
        <ele>683</ele>
        <time>2026-05-13T11:39:20.000Z</time>
      </trkpt>
      <trkpt lat="44.19475" lon="5.41829">
        <ele>683</ele>
        <time>2026-05-13T11:39:21.000Z</time>
      </trkpt>
      <trkpt lat="44.19477" lon="5.41825">
        <ele>683</ele>
        <time>2026-05-13T11:39:22.000Z</time>
      </trkpt>
      <trkpt lat="44.19479" lon="5.41822">
        <ele>683</ele>
        <time>2026-05-13T11:39:23.000Z</time>
      </trkpt>
      <trkpt lat="44.19481" lon="5.41819">
        <ele>683</ele>
        <time>2026-05-13T11:39:24.000Z</time>
      </trkpt>
      <trkpt lat="44.19483" lon="5.41815">
        <ele>683</ele>
        <time>2026-05-13T11:39:25.000Z</time>
      </trkpt>
      <trkpt lat="44.19485" lon="5.41811">
        <ele>684</ele>
        <time>2026-05-13T11:39:26.000Z</time>
      </trkpt>
      <trkpt lat="44.19487" lon="5.41807">
        <ele>684</ele>
        <time>2026-05-13T11:39:27.000Z</time>
      </trkpt>
      <trkpt lat="44.19488" lon="5.41803">
        <ele>684</ele>
        <time>2026-05-13T11:39:28.000Z</time>
      </trkpt>
      <trkpt lat="44.1949" lon="5.41799">
        <ele>684</ele>
        <time>2026-05-13T11:39:29.000Z</time>
      </trkpt>
      <trkpt lat="44.19492" lon="5.41794">
        <ele>684</ele>
        <time>2026-05-13T11:39:30.000Z</time>
      </trkpt>
      <trkpt lat="44.19494" lon="5.4179">
        <ele>684</ele>
        <time>2026-05-13T11:39:31.000Z</time>
      </trkpt>
      <trkpt lat="44.19496" lon="5.41787">
        <ele>684</ele>
        <time>2026-05-13T11:39:32.000Z</time>
      </trkpt>
      <trkpt lat="44.19498" lon="5.41783">
        <ele>684</ele>
        <time>2026-05-13T11:39:33.000Z</time>
      </trkpt>
      <trkpt lat="44.195" lon="5.4178">
        <ele>684</ele>
        <time>2026-05-13T11:39:34.000Z</time>
      </trkpt>
      <trkpt lat="44.19501" lon="5.41776">
        <ele>684</ele>
        <time>2026-05-13T11:39:35.000Z</time>
      </trkpt>
      <trkpt lat="44.19504" lon="5.41773">
        <ele>684</ele>
        <time>2026-05-13T11:39:36.000Z</time>
      </trkpt>
      <trkpt lat="44.19506" lon="5.4177">
        <ele>684</ele>
        <time>2026-05-13T11:39:37.000Z</time>
      </trkpt>
      <trkpt lat="44.19508" lon="5.41766">
        <ele>684</ele>
        <time>2026-05-13T11:39:38.000Z</time>
      </trkpt>
      <trkpt lat="44.19509" lon="5.41763">
        <ele>684</ele>
        <time>2026-05-13T11:39:39.000Z</time>
      </trkpt>
      <trkpt lat="44.19511" lon="5.4176">
        <ele>684</ele>
        <time>2026-05-13T11:39:40.000Z</time>
      </trkpt>
      <trkpt lat="44.19513" lon="5.41756">
        <ele>684</ele>
        <time>2026-05-13T11:39:41.000Z</time>
      </trkpt>
      <trkpt lat="44.19515" lon="5.41753">
        <ele>685</ele>
        <time>2026-05-13T11:39:42.000Z</time>
      </trkpt>
      <trkpt lat="44.19516" lon="5.4175">
        <ele>685</ele>
        <time>2026-05-13T11:39:43.000Z</time>
      </trkpt>
      <trkpt lat="44.19518" lon="5.41746">
        <ele>685</ele>
        <time>2026-05-13T11:39:44.000Z</time>
      </trkpt>
      <trkpt lat="44.1952" lon="5.41742">
        <ele>685</ele>
        <time>2026-05-13T11:39:45.000Z</time>
      </trkpt>
      <trkpt lat="44.19522" lon="5.41739">
        <ele>685</ele>
        <time>2026-05-13T11:39:46.000Z</time>
      </trkpt>
      <trkpt lat="44.19524" lon="5.41735">
        <ele>684</ele>
        <time>2026-05-13T11:39:47.000Z</time>
      </trkpt>
      <trkpt lat="44.19526" lon="5.41731">
        <ele>684</ele>
        <time>2026-05-13T11:39:48.000Z</time>
      </trkpt>
      <trkpt lat="44.19527" lon="5.41727">
        <ele>684</ele>
        <time>2026-05-13T11:39:49.000Z</time>
      </trkpt>
      <trkpt lat="44.19529" lon="5.41723">
        <ele>684</ele>
        <time>2026-05-13T11:39:50.000Z</time>
      </trkpt>
      <trkpt lat="44.1953" lon="5.41719">
        <ele>684</ele>
        <time>2026-05-13T11:39:51.000Z</time>
      </trkpt>
      <trkpt lat="44.19532" lon="5.41714">
        <ele>684</ele>
        <time>2026-05-13T11:39:52.000Z</time>
      </trkpt>
      <trkpt lat="44.19534" lon="5.4171">
        <ele>684</ele>
        <time>2026-05-13T11:39:53.000Z</time>
      </trkpt>
      <trkpt lat="44.19536" lon="5.41705">
        <ele>684</ele>
        <time>2026-05-13T11:39:54.000Z</time>
      </trkpt>
      <trkpt lat="44.19539" lon="5.41701">
        <ele>685</ele>
        <time>2026-05-13T11:39:55.000Z</time>
      </trkpt>
      <trkpt lat="44.19541" lon="5.41696">
        <ele>685</ele>
        <time>2026-05-13T11:39:56.000Z</time>
      </trkpt>
      <trkpt lat="44.19543" lon="5.41692">
        <ele>685</ele>
        <time>2026-05-13T11:39:57.000Z</time>
      </trkpt>
      <trkpt lat="44.19545" lon="5.41688">
        <ele>685</ele>
        <time>2026-05-13T11:39:58.000Z</time>
      </trkpt>
      <trkpt lat="44.19547" lon="5.41684">
        <ele>685</ele>
        <time>2026-05-13T11:39:59.000Z</time>
      </trkpt>
      <trkpt lat="44.19549" lon="5.4168">
        <ele>685</ele>
        <time>2026-05-13T11:40:00.000Z</time>
      </trkpt>
      <trkpt lat="44.19552" lon="5.41676">
        <ele>685</ele>
        <time>2026-05-13T11:40:01.000Z</time>
      </trkpt>
      <trkpt lat="44.19554" lon="5.41673">
        <ele>685</ele>
        <time>2026-05-13T11:40:02.000Z</time>
      </trkpt>
      <trkpt lat="44.19556" lon="5.41668">
        <ele>685</ele>
        <time>2026-05-13T11:40:03.000Z</time>
      </trkpt>
      <trkpt lat="44.19558" lon="5.41664">
        <ele>685</ele>
        <time>2026-05-13T11:40:04.000Z</time>
      </trkpt>
      <trkpt lat="44.19561" lon="5.41661">
        <ele>685</ele>
        <time>2026-05-13T11:40:05.000Z</time>
      </trkpt>
      <trkpt lat="44.19563" lon="5.41658">
        <ele>685</ele>
        <time>2026-05-13T11:40:06.000Z</time>
      </trkpt>
      <trkpt lat="44.19565" lon="5.41654">
        <ele>685</ele>
        <time>2026-05-13T11:40:07.000Z</time>
      </trkpt>
      <trkpt lat="44.19567" lon="5.4165">
        <ele>685</ele>
        <time>2026-05-13T11:40:08.000Z</time>
      </trkpt>
      <trkpt lat="44.19569" lon="5.41646">
        <ele>685</ele>
        <time>2026-05-13T11:40:09.000Z</time>
      </trkpt>
      <trkpt lat="44.19571" lon="5.41642">
        <ele>685</ele>
        <time>2026-05-13T11:40:10.000Z</time>
      </trkpt>
      <trkpt lat="44.19573" lon="5.41639">
        <ele>686</ele>
        <time>2026-05-13T11:40:11.000Z</time>
      </trkpt>
      <trkpt lat="44.19575" lon="5.41635">
        <ele>685</ele>
        <time>2026-05-13T11:40:12.000Z</time>
      </trkpt>
      <trkpt lat="44.19578" lon="5.41632">
        <ele>685</ele>
        <time>2026-05-13T11:40:13.000Z</time>
      </trkpt>
      <trkpt lat="44.1958" lon="5.41627">
        <ele>685</ele>
        <time>2026-05-13T11:40:14.000Z</time>
      </trkpt>
      <trkpt lat="44.19581" lon="5.41622">
        <ele>685</ele>
        <time>2026-05-13T11:40:15.000Z</time>
      </trkpt>
      <trkpt lat="44.19583" lon="5.41618">
        <ele>686</ele>
        <time>2026-05-13T11:40:16.000Z</time>
      </trkpt>
      <trkpt lat="44.19586" lon="5.41614">
        <ele>685</ele>
        <time>2026-05-13T11:40:17.000Z</time>
      </trkpt>
      <trkpt lat="44.19588" lon="5.41609">
        <ele>685</ele>
        <time>2026-05-13T11:40:18.000Z</time>
      </trkpt>
      <trkpt lat="44.19591" lon="5.41605">
        <ele>685</ele>
        <time>2026-05-13T11:40:19.000Z</time>
      </trkpt>
      <trkpt lat="44.19593" lon="5.41599">
        <ele>685</ele>
        <time>2026-05-13T11:40:20.000Z</time>
      </trkpt>
      <trkpt lat="44.19595" lon="5.41594">
        <ele>685</ele>
        <time>2026-05-13T11:40:21.000Z</time>
      </trkpt>
      <trkpt lat="44.19597" lon="5.41589">
        <ele>684</ele>
        <time>2026-05-13T11:40:22.000Z</time>
      </trkpt>
      <trkpt lat="44.196" lon="5.41584">
        <ele>684</ele>
        <time>2026-05-13T11:40:23.000Z</time>
      </trkpt>
      <trkpt lat="44.19603" lon="5.41579">
        <ele>684</ele>
        <time>2026-05-13T11:40:24.000Z</time>
      </trkpt>
      <trkpt lat="44.19605" lon="5.41575">
        <ele>684</ele>
        <time>2026-05-13T11:40:25.000Z</time>
      </trkpt>
      <trkpt lat="44.19608" lon="5.41571">
        <ele>684</ele>
        <time>2026-05-13T11:40:26.000Z</time>
      </trkpt>
      <trkpt lat="44.1961" lon="5.41566">
        <ele>684</ele>
        <time>2026-05-13T11:40:27.000Z</time>
      </trkpt>
      <trkpt lat="44.19614" lon="5.41562">
        <ele>683</ele>
        <time>2026-05-13T11:40:28.000Z</time>
      </trkpt>
      <trkpt lat="44.19617" lon="5.41557">
        <ele>683</ele>
        <time>2026-05-13T11:40:29.000Z</time>
      </trkpt>
      <trkpt lat="44.19621" lon="5.41553">
        <ele>683</ele>
        <time>2026-05-13T11:40:30.000Z</time>
      </trkpt>
      <trkpt lat="44.19625" lon="5.41549">
        <ele>683</ele>
        <time>2026-05-13T11:40:31.000Z</time>
      </trkpt>
      <trkpt lat="44.1963" lon="5.41546">
        <ele>683</ele>
        <time>2026-05-13T11:40:32.000Z</time>
      </trkpt>
      <trkpt lat="44.19634" lon="5.41543">
        <ele>682</ele>
        <time>2026-05-13T11:40:33.000Z</time>
      </trkpt>
      <trkpt lat="44.1964" lon="5.4154">
        <ele>682</ele>
        <time>2026-05-13T11:40:34.000Z</time>
      </trkpt>
      <trkpt lat="44.19646" lon="5.41538">
        <ele>682</ele>
        <time>2026-05-13T11:40:35.000Z</time>
      </trkpt>
      <trkpt lat="44.19652" lon="5.41536">
        <ele>682</ele>
        <time>2026-05-13T11:40:36.000Z</time>
      </trkpt>
      <trkpt lat="44.19657" lon="5.41533">
        <ele>682</ele>
        <time>2026-05-13T11:40:37.000Z</time>
      </trkpt>
      <trkpt lat="44.19662" lon="5.41529">
        <ele>682</ele>
        <time>2026-05-13T11:40:38.000Z</time>
      </trkpt>
      <trkpt lat="44.19667" lon="5.41526">
        <ele>682</ele>
        <time>2026-05-13T11:40:39.000Z</time>
      </trkpt>
      <trkpt lat="44.19673" lon="5.41523">
        <ele>682</ele>
        <time>2026-05-13T11:40:40.000Z</time>
      </trkpt>
      <trkpt lat="44.19679" lon="5.41521">
        <ele>682</ele>
        <time>2026-05-13T11:40:41.000Z</time>
      </trkpt>
      <trkpt lat="44.19684" lon="5.41518">
        <ele>682</ele>
        <time>2026-05-13T11:40:42.000Z</time>
      </trkpt>
      <trkpt lat="44.19691" lon="5.41518">
        <ele>682</ele>
        <time>2026-05-13T11:40:43.000Z</time>
      </trkpt>
      <trkpt lat="44.19697" lon="5.41518">
        <ele>681</ele>
        <time>2026-05-13T11:40:44.000Z</time>
      </trkpt>
      <trkpt lat="44.19703" lon="5.41518">
        <ele>681</ele>
        <time>2026-05-13T11:40:45.000Z</time>
      </trkpt>
      <trkpt lat="44.19709" lon="5.4152">
        <ele>682</ele>
        <time>2026-05-13T11:40:46.000Z</time>
      </trkpt>
      <trkpt lat="44.19714" lon="5.41523">
        <ele>682</ele>
        <time>2026-05-13T11:40:47.000Z</time>
      </trkpt>
      <trkpt lat="44.19719" lon="5.41526">
        <ele>682</ele>
        <time>2026-05-13T11:40:48.000Z</time>
      </trkpt>
      <trkpt lat="44.19724" lon="5.41528">
        <ele>683</ele>
        <time>2026-05-13T11:40:49.000Z</time>
      </trkpt>
      <trkpt lat="44.19728" lon="5.41531">
        <ele>684</ele>
        <time>2026-05-13T11:40:50.000Z</time>
      </trkpt>
      <trkpt lat="44.19731" lon="5.41535">
        <ele>684</ele>
        <time>2026-05-13T11:40:51.000Z</time>
      </trkpt>
      <trkpt lat="44.19734" lon="5.41538">
        <ele>684</ele>
        <time>2026-05-13T11:40:52.000Z</time>
      </trkpt>
      <trkpt lat="44.19736" lon="5.41541">
        <ele>684</ele>
        <time>2026-05-13T11:40:53.000Z</time>
      </trkpt>
      <trkpt lat="44.19738" lon="5.41545">
        <ele>684</ele>
        <time>2026-05-13T11:40:54.000Z</time>
      </trkpt>
      <trkpt lat="44.19739" lon="5.41549">
        <ele>684</ele>
        <time>2026-05-13T11:40:55.000Z</time>
      </trkpt>
      <trkpt lat="44.19741" lon="5.41553">
        <ele>685</ele>
        <time>2026-05-13T11:40:56.000Z</time>
      </trkpt>
      <trkpt lat="44.19742" lon="5.41556">
        <ele>685</ele>
        <time>2026-05-13T11:40:57.000Z</time>
      </trkpt>
      <trkpt lat="44.19744" lon="5.4156">
        <ele>685</ele>
        <time>2026-05-13T11:40:58.000Z</time>
      </trkpt>
      <trkpt lat="44.19745" lon="5.41563">
        <ele>685</ele>
        <time>2026-05-13T11:40:59.000Z</time>
      </trkpt>
      <trkpt lat="44.19746" lon="5.41567">
        <ele>685</ele>
        <time>2026-05-13T11:41:00.000Z</time>
      </trkpt>
      <trkpt lat="44.19747" lon="5.41571">
        <ele>685</ele>
        <time>2026-05-13T11:41:01.000Z</time>
      </trkpt>
      <trkpt lat="44.19748" lon="5.41575">
        <ele>685</ele>
        <time>2026-05-13T11:41:02.000Z</time>
      </trkpt>
      <trkpt lat="44.19749" lon="5.41579">
        <ele>685</ele>
        <time>2026-05-13T11:41:03.000Z</time>
      </trkpt>
      <trkpt lat="44.19751" lon="5.41583">
        <ele>685</ele>
        <time>2026-05-13T11:41:04.000Z</time>
      </trkpt>
      <trkpt lat="44.19752" lon="5.41586">
        <ele>685</ele>
        <time>2026-05-13T11:41:05.000Z</time>
      </trkpt>
      <trkpt lat="44.19753" lon="5.4159">
        <ele>685</ele>
        <time>2026-05-13T11:41:06.000Z</time>
      </trkpt>
      <trkpt lat="44.19755" lon="5.41593">
        <ele>685</ele>
        <time>2026-05-13T11:41:07.000Z</time>
      </trkpt>
      <trkpt lat="44.19757" lon="5.41596">
        <ele>685</ele>
        <time>2026-05-13T11:41:08.000Z</time>
      </trkpt>
      <trkpt lat="44.19758" lon="5.41599">
        <ele>686</ele>
        <time>2026-05-13T11:41:09.000Z</time>
      </trkpt>
      <trkpt lat="44.1976" lon="5.41603">
        <ele>686</ele>
        <time>2026-05-13T11:41:10.000Z</time>
      </trkpt>
      <trkpt lat="44.19761" lon="5.41605">
        <ele>686</ele>
        <time>2026-05-13T11:41:11.000Z</time>
      </trkpt>
      <trkpt lat="44.19763" lon="5.41608">
        <ele>686</ele>
        <time>2026-05-13T11:41:12.000Z</time>
      </trkpt>
      <trkpt lat="44.19766" lon="5.4161">
        <ele>686</ele>
        <time>2026-05-13T11:41:13.000Z</time>
      </trkpt>
      <trkpt lat="44.19769" lon="5.41612">
        <ele>686</ele>
        <time>2026-05-13T11:41:14.000Z</time>
      </trkpt>
      <trkpt lat="44.19771" lon="5.41614">
        <ele>686</ele>
        <time>2026-05-13T11:41:15.000Z</time>
      </trkpt>
      <trkpt lat="44.19773" lon="5.41616">
        <ele>686</ele>
        <time>2026-05-13T11:41:16.000Z</time>
      </trkpt>
      <trkpt lat="44.19776" lon="5.41616">
        <ele>686</ele>
        <time>2026-05-13T11:41:17.000Z</time>
      </trkpt>
      <trkpt lat="44.19779" lon="5.41618">
        <ele>686</ele>
        <time>2026-05-13T11:41:18.000Z</time>
      </trkpt>
      <trkpt lat="44.19782" lon="5.41619">
        <ele>686</ele>
        <time>2026-05-13T11:41:19.000Z</time>
      </trkpt>
      <trkpt lat="44.19784" lon="5.41621">
        <ele>686</ele>
        <time>2026-05-13T11:41:20.000Z</time>
      </trkpt>
      <trkpt lat="44.19787" lon="5.41622">
        <ele>686</ele>
        <time>2026-05-13T11:41:21.000Z</time>
      </trkpt>
      <trkpt lat="44.1979" lon="5.41623">
        <ele>687</ele>
        <time>2026-05-13T11:41:22.000Z</time>
      </trkpt>
      <trkpt lat="44.19793" lon="5.41625">
        <ele>686</ele>
        <time>2026-05-13T11:41:23.000Z</time>
      </trkpt>
      <trkpt lat="44.19796" lon="5.41627">
        <ele>687</ele>
        <time>2026-05-13T11:41:24.000Z</time>
      </trkpt>
      <trkpt lat="44.19798" lon="5.4163">
        <ele>687</ele>
        <time>2026-05-13T11:41:25.000Z</time>
      </trkpt>
      <trkpt lat="44.19801" lon="5.41632">
        <ele>687</ele>
        <time>2026-05-13T11:41:26.000Z</time>
      </trkpt>
      <trkpt lat="44.19803" lon="5.41634">
        <ele>687</ele>
        <time>2026-05-13T11:41:27.000Z</time>
      </trkpt>
      <trkpt lat="44.19805" lon="5.41637">
        <ele>688</ele>
        <time>2026-05-13T11:41:28.000Z</time>
      </trkpt>
      <trkpt lat="44.19806" lon="5.41639">
        <ele>688</ele>
        <time>2026-05-13T11:41:29.000Z</time>
      </trkpt>
      <trkpt lat="44.19808" lon="5.41642">
        <ele>688</ele>
        <time>2026-05-13T11:41:30.000Z</time>
      </trkpt>
      <trkpt lat="44.1981" lon="5.41645">
        <ele>688</ele>
        <time>2026-05-13T11:41:31.000Z</time>
      </trkpt>
      <trkpt lat="44.19812" lon="5.41648">
        <ele>689</ele>
        <time>2026-05-13T11:41:32.000Z</time>
      </trkpt>
      <trkpt lat="44.19814" lon="5.4165">
        <ele>689</ele>
        <time>2026-05-13T11:41:33.000Z</time>
      </trkpt>
      <trkpt lat="44.19816" lon="5.41653">
        <ele>689</ele>
        <time>2026-05-13T11:41:34.000Z</time>
      </trkpt>
      <trkpt lat="44.19819" lon="5.41656">
        <ele>689</ele>
        <time>2026-05-13T11:41:35.000Z</time>
      </trkpt>
      <trkpt lat="44.19821" lon="5.41658">
        <ele>689</ele>
        <time>2026-05-13T11:41:36.000Z</time>
      </trkpt>
      <trkpt lat="44.19823" lon="5.41661">
        <ele>689</ele>
        <time>2026-05-13T11:41:37.000Z</time>
      </trkpt>
      <trkpt lat="44.19825" lon="5.41663">
        <ele>689</ele>
        <time>2026-05-13T11:41:38.000Z</time>
      </trkpt>
      <trkpt lat="44.19827" lon="5.41665">
        <ele>689</ele>
        <time>2026-05-13T11:41:39.000Z</time>
      </trkpt>
      <trkpt lat="44.19829" lon="5.41667">
        <ele>689</ele>
        <time>2026-05-13T11:41:40.000Z</time>
      </trkpt>
      <trkpt lat="44.19832" lon="5.4167">
        <ele>689</ele>
        <time>2026-05-13T11:41:41.000Z</time>
      </trkpt>
      <trkpt lat="44.19834" lon="5.41672">
        <ele>690</ele>
        <time>2026-05-13T11:41:42.000Z</time>
      </trkpt>
      <trkpt lat="44.19837" lon="5.41674">
        <ele>689</ele>
        <time>2026-05-13T11:41:43.000Z</time>
      </trkpt>
      <trkpt lat="44.19839" lon="5.41675">
        <ele>690</ele>
        <time>2026-05-13T11:41:44.000Z</time>
      </trkpt>
      <trkpt lat="44.19842" lon="5.41676">
        <ele>689</ele>
        <time>2026-05-13T11:41:45.000Z</time>
      </trkpt>
      <trkpt lat="44.19845" lon="5.41678">
        <ele>689</ele>
        <time>2026-05-13T11:41:46.000Z</time>
      </trkpt>
      <trkpt lat="44.19848" lon="5.4168">
        <ele>689</ele>
        <time>2026-05-13T11:41:47.000Z</time>
      </trkpt>
      <trkpt lat="44.1985" lon="5.41681">
        <ele>689</ele>
        <time>2026-05-13T11:41:48.000Z</time>
      </trkpt>
      <trkpt lat="44.19854" lon="5.41683">
        <ele>689</ele>
        <time>2026-05-13T11:41:49.000Z</time>
      </trkpt>
      <trkpt lat="44.19857" lon="5.41685">
        <ele>690</ele>
        <time>2026-05-13T11:41:50.000Z</time>
      </trkpt>
      <trkpt lat="44.19859" lon="5.41686">
        <ele>690</ele>
        <time>2026-05-13T11:41:51.000Z</time>
      </trkpt>
      <trkpt lat="44.19862" lon="5.41687">
        <ele>690</ele>
        <time>2026-05-13T11:41:52.000Z</time>
      </trkpt>
      <trkpt lat="44.19864" lon="5.41689">
        <ele>690</ele>
        <time>2026-05-13T11:41:53.000Z</time>
      </trkpt>
      <trkpt lat="44.19867" lon="5.41691">
        <ele>690</ele>
        <time>2026-05-13T11:41:54.000Z</time>
      </trkpt>
      <trkpt lat="44.1987" lon="5.41693">
        <ele>690</ele>
        <time>2026-05-13T11:41:55.000Z</time>
      </trkpt>
      <trkpt lat="44.19872" lon="5.41695">
        <ele>690</ele>
        <time>2026-05-13T11:41:56.000Z</time>
      </trkpt>
      <trkpt lat="44.19875" lon="5.41698">
        <ele>690</ele>
        <time>2026-05-13T11:41:57.000Z</time>
      </trkpt>
      <trkpt lat="44.19878" lon="5.41699">
        <ele>690</ele>
        <time>2026-05-13T11:41:58.000Z</time>
      </trkpt>
      <trkpt lat="44.19881" lon="5.41701">
        <ele>690</ele>
        <time>2026-05-13T11:41:59.000Z</time>
      </trkpt>
      <trkpt lat="44.19884" lon="5.41702">
        <ele>691</ele>
        <time>2026-05-13T11:42:00.000Z</time>
      </trkpt>
      <trkpt lat="44.19887" lon="5.41704">
        <ele>691</ele>
        <time>2026-05-13T11:42:01.000Z</time>
      </trkpt>
      <trkpt lat="44.19889" lon="5.41706">
        <ele>692</ele>
        <time>2026-05-13T11:42:02.000Z</time>
      </trkpt>
      <trkpt lat="44.19892" lon="5.41707">
        <ele>692</ele>
        <time>2026-05-13T11:42:03.000Z</time>
      </trkpt>
      <trkpt lat="44.19895" lon="5.41709">
        <ele>692</ele>
        <time>2026-05-13T11:42:04.000Z</time>
      </trkpt>
      <trkpt lat="44.19898" lon="5.41711">
        <ele>692</ele>
        <time>2026-05-13T11:42:05.000Z</time>
      </trkpt>
      <trkpt lat="44.19901" lon="5.41712">
        <ele>692</ele>
        <time>2026-05-13T11:42:06.000Z</time>
      </trkpt>
      <trkpt lat="44.19903" lon="5.41713">
        <ele>693</ele>
        <time>2026-05-13T11:42:07.000Z</time>
      </trkpt>
      <trkpt lat="44.19906" lon="5.41714">
        <ele>692</ele>
        <time>2026-05-13T11:42:08.000Z</time>
      </trkpt>
      <trkpt lat="44.19908" lon="5.41716">
        <ele>692</ele>
        <time>2026-05-13T11:42:09.000Z</time>
      </trkpt>
      <trkpt lat="44.1991" lon="5.41718">
        <ele>692</ele>
        <time>2026-05-13T11:42:10.000Z</time>
      </trkpt>
      <trkpt lat="44.19913" lon="5.41719">
        <ele>692</ele>
        <time>2026-05-13T11:42:11.000Z</time>
      </trkpt>
      <trkpt lat="44.19915" lon="5.41721">
        <ele>692</ele>
        <time>2026-05-13T11:42:12.000Z</time>
      </trkpt>
      <trkpt lat="44.19917" lon="5.41723">
        <ele>692</ele>
        <time>2026-05-13T11:42:13.000Z</time>
      </trkpt>
      <trkpt lat="44.1992" lon="5.41725">
        <ele>692</ele>
        <time>2026-05-13T11:42:14.000Z</time>
      </trkpt>
      <trkpt lat="44.19922" lon="5.41727">
        <ele>692</ele>
        <time>2026-05-13T11:42:15.000Z</time>
      </trkpt>
      <trkpt lat="44.19924" lon="5.4173">
        <ele>693</ele>
        <time>2026-05-13T11:42:16.000Z</time>
      </trkpt>
      <trkpt lat="44.19927" lon="5.41732">
        <ele>692</ele>
        <time>2026-05-13T11:42:17.000Z</time>
      </trkpt>
      <trkpt lat="44.19929" lon="5.41735">
        <ele>692</ele>
        <time>2026-05-13T11:42:18.000Z</time>
      </trkpt>
      <trkpt lat="44.19931" lon="5.41738">
        <ele>692</ele>
        <time>2026-05-13T11:42:19.000Z</time>
      </trkpt>
      <trkpt lat="44.19933" lon="5.41741">
        <ele>692</ele>
        <time>2026-05-13T11:42:20.000Z</time>
      </trkpt>
      <trkpt lat="44.19935" lon="5.41744">
        <ele>692</ele>
        <time>2026-05-13T11:42:21.000Z</time>
      </trkpt>
      <trkpt lat="44.19938" lon="5.41746">
        <ele>692</ele>
        <time>2026-05-13T11:42:22.000Z</time>
      </trkpt>
      <trkpt lat="44.1994" lon="5.41749">
        <ele>692</ele>
        <time>2026-05-13T11:42:23.000Z</time>
      </trkpt>
      <trkpt lat="44.19942" lon="5.41752">
        <ele>692</ele>
        <time>2026-05-13T11:42:24.000Z</time>
      </trkpt>
      <trkpt lat="44.19944" lon="5.41755">
        <ele>691</ele>
        <time>2026-05-13T11:42:25.000Z</time>
      </trkpt>
      <trkpt lat="44.19947" lon="5.41756">
        <ele>692</ele>
        <time>2026-05-13T11:42:26.000Z</time>
      </trkpt>
      <trkpt lat="44.19949" lon="5.41759">
        <ele>692</ele>
        <time>2026-05-13T11:42:27.000Z</time>
      </trkpt>
      <trkpt lat="44.19952" lon="5.41761">
        <ele>692</ele>
        <time>2026-05-13T11:42:28.000Z</time>
      </trkpt>
      <trkpt lat="44.19955" lon="5.41764">
        <ele>692</ele>
        <time>2026-05-13T11:42:29.000Z</time>
      </trkpt>
      <trkpt lat="44.19956" lon="5.41767">
        <ele>692</ele>
        <time>2026-05-13T11:42:30.000Z</time>
      </trkpt>
      <trkpt lat="44.19958" lon="5.41769">
        <ele>693</ele>
        <time>2026-05-13T11:42:31.000Z</time>
      </trkpt>
      <trkpt lat="44.19961" lon="5.41772">
        <ele>693</ele>
        <time>2026-05-13T11:42:32.000Z</time>
      </trkpt>
      <trkpt lat="44.19963" lon="5.41773">
        <ele>692</ele>
        <time>2026-05-13T11:42:33.000Z</time>
      </trkpt>
      <trkpt lat="44.19966" lon="5.41775">
        <ele>693</ele>
        <time>2026-05-13T11:42:34.000Z</time>
      </trkpt>
      <trkpt lat="44.19968" lon="5.41777">
        <ele>693</ele>
        <time>2026-05-13T11:42:35.000Z</time>
      </trkpt>
      <trkpt lat="44.19971" lon="5.41778">
        <ele>693</ele>
        <time>2026-05-13T11:42:36.000Z</time>
      </trkpt>
      <trkpt lat="44.19975" lon="5.4178">
        <ele>693</ele>
        <time>2026-05-13T11:42:37.000Z</time>
      </trkpt>
      <trkpt lat="44.19977" lon="5.41782">
        <ele>693</ele>
        <time>2026-05-13T11:42:38.000Z</time>
      </trkpt>
      <trkpt lat="44.1998" lon="5.41783">
        <ele>694</ele>
        <time>2026-05-13T11:42:39.000Z</time>
      </trkpt>
      <trkpt lat="44.19983" lon="5.41785">
        <ele>694</ele>
        <time>2026-05-13T11:42:40.000Z</time>
      </trkpt>
      <trkpt lat="44.19985" lon="5.41786">
        <ele>695</ele>
        <time>2026-05-13T11:42:41.000Z</time>
      </trkpt>
      <trkpt lat="44.19988" lon="5.41788">
        <ele>695</ele>
        <time>2026-05-13T11:42:42.000Z</time>
      </trkpt>
      <trkpt lat="44.19991" lon="5.4179">
        <ele>695</ele>
        <time>2026-05-13T11:42:43.000Z</time>
      </trkpt>
      <trkpt lat="44.19994" lon="5.41792">
        <ele>695</ele>
        <time>2026-05-13T11:42:44.000Z</time>
      </trkpt>
      <trkpt lat="44.19997" lon="5.41793">
        <ele>695</ele>
        <time>2026-05-13T11:42:45.000Z</time>
      </trkpt>
      <trkpt lat="44.2" lon="5.41794">
        <ele>695</ele>
        <time>2026-05-13T11:42:46.000Z</time>
      </trkpt>
      <trkpt lat="44.20003" lon="5.41796">
        <ele>695</ele>
        <time>2026-05-13T11:42:47.000Z</time>
      </trkpt>
      <trkpt lat="44.20006" lon="5.41797">
        <ele>695</ele>
        <time>2026-05-13T11:42:48.000Z</time>
      </trkpt>
      <trkpt lat="44.20009" lon="5.41798">
        <ele>695</ele>
        <time>2026-05-13T11:42:49.000Z</time>
      </trkpt>
      <trkpt lat="44.20012" lon="5.418">
        <ele>695</ele>
        <time>2026-05-13T11:42:50.000Z</time>
      </trkpt>
      <trkpt lat="44.20016" lon="5.41802">
        <ele>695</ele>
        <time>2026-05-13T11:42:51.000Z</time>
      </trkpt>
      <trkpt lat="44.20019" lon="5.41803">
        <ele>695</ele>
        <time>2026-05-13T11:42:52.000Z</time>
      </trkpt>
      <trkpt lat="44.20022" lon="5.41804">
        <ele>695</ele>
        <time>2026-05-13T11:42:53.000Z</time>
      </trkpt>
      <trkpt lat="44.20026" lon="5.41805">
        <ele>695</ele>
        <time>2026-05-13T11:42:54.000Z</time>
      </trkpt>
      <trkpt lat="44.20029" lon="5.41807">
        <ele>696</ele>
        <time>2026-05-13T11:42:55.000Z</time>
      </trkpt>
      <trkpt lat="44.20032" lon="5.41808">
        <ele>696</ele>
        <time>2026-05-13T11:42:56.000Z</time>
      </trkpt>
      <trkpt lat="44.20035" lon="5.4181">
        <ele>695</ele>
        <time>2026-05-13T11:42:57.000Z</time>
      </trkpt>
      <trkpt lat="44.20039" lon="5.41812">
        <ele>695</ele>
        <time>2026-05-13T11:42:58.000Z</time>
      </trkpt>
      <trkpt lat="44.20041" lon="5.41814">
        <ele>695</ele>
        <time>2026-05-13T11:42:59.000Z</time>
      </trkpt>
      <trkpt lat="44.20045" lon="5.41815">
        <ele>695</ele>
        <time>2026-05-13T11:43:00.000Z</time>
      </trkpt>
      <trkpt lat="44.20048" lon="5.41816">
        <ele>695</ele>
        <time>2026-05-13T11:43:01.000Z</time>
      </trkpt>
      <trkpt lat="44.20051" lon="5.41818">
        <ele>695</ele>
        <time>2026-05-13T11:43:02.000Z</time>
      </trkpt>
      <trkpt lat="44.20054" lon="5.41819">
        <ele>695</ele>
        <time>2026-05-13T11:43:03.000Z</time>
      </trkpt>
      <trkpt lat="44.20057" lon="5.41821">
        <ele>695</ele>
        <time>2026-05-13T11:43:04.000Z</time>
      </trkpt>
      <trkpt lat="44.20061" lon="5.41822">
        <ele>694</ele>
        <time>2026-05-13T11:43:05.000Z</time>
      </trkpt>
      <trkpt lat="44.20064" lon="5.41823">
        <ele>694</ele>
        <time>2026-05-13T11:43:06.000Z</time>
      </trkpt>
      <trkpt lat="44.20067" lon="5.41825">
        <ele>694</ele>
        <time>2026-05-13T11:43:07.000Z</time>
      </trkpt>
      <trkpt lat="44.2007" lon="5.41826">
        <ele>695</ele>
        <time>2026-05-13T11:43:08.000Z</time>
      </trkpt>
      <trkpt lat="44.20073" lon="5.41828">
        <ele>695</ele>
        <time>2026-05-13T11:43:09.000Z</time>
      </trkpt>
      <trkpt lat="44.20077" lon="5.4183">
        <ele>695</ele>
        <time>2026-05-13T11:43:10.000Z</time>
      </trkpt>
      <trkpt lat="44.2008" lon="5.41831">
        <ele>695</ele>
        <time>2026-05-13T11:43:11.000Z</time>
      </trkpt>
      <trkpt lat="44.20083" lon="5.41833">
        <ele>695</ele>
        <time>2026-05-13T11:43:12.000Z</time>
      </trkpt>
      <trkpt lat="44.20087" lon="5.41834">
        <ele>695</ele>
        <time>2026-05-13T11:43:13.000Z</time>
      </trkpt>
      <trkpt lat="44.2009" lon="5.41836">
        <ele>695</ele>
        <time>2026-05-13T11:43:14.000Z</time>
      </trkpt>
      <trkpt lat="44.20093" lon="5.41837">
        <ele>695</ele>
        <time>2026-05-13T11:43:15.000Z</time>
      </trkpt>
      <trkpt lat="44.20097" lon="5.41839">
        <ele>695</ele>
        <time>2026-05-13T11:43:16.000Z</time>
      </trkpt>
      <trkpt lat="44.201" lon="5.4184">
        <ele>695</ele>
        <time>2026-05-13T11:43:17.000Z</time>
      </trkpt>
      <trkpt lat="44.20103" lon="5.41841">
        <ele>695</ele>
        <time>2026-05-13T11:43:18.000Z</time>
      </trkpt>
      <trkpt lat="44.20106" lon="5.41842">
        <ele>695</ele>
        <time>2026-05-13T11:43:19.000Z</time>
      </trkpt>
      <trkpt lat="44.20109" lon="5.41843">
        <ele>695</ele>
        <time>2026-05-13T11:43:20.000Z</time>
      </trkpt>
      <trkpt lat="44.20112" lon="5.41843">
        <ele>695</ele>
        <time>2026-05-13T11:43:21.000Z</time>
      </trkpt>
      <trkpt lat="44.20116" lon="5.41843">
        <ele>695</ele>
        <time>2026-05-13T11:43:22.000Z</time>
      </trkpt>
      <trkpt lat="44.20118" lon="5.41844">
        <ele>694</ele>
        <time>2026-05-13T11:43:23.000Z</time>
      </trkpt>
      <trkpt lat="44.20121" lon="5.41844">
        <ele>693</ele>
        <time>2026-05-13T11:43:24.000Z</time>
      </trkpt>
      <trkpt lat="44.20124" lon="5.41844">
        <ele>692</ele>
        <time>2026-05-13T11:43:25.000Z</time>
      </trkpt>
      <trkpt lat="44.20125" lon="5.41846">
        <ele>692</ele>
        <time>2026-05-13T11:43:26.000Z</time>
      </trkpt>
      <trkpt lat="44.20128" lon="5.41846">
        <ele>694</ele>
        <time>2026-05-13T11:43:27.000Z</time>
      </trkpt>
      <trkpt lat="44.2013" lon="5.41845">
        <ele>693</ele>
        <time>2026-05-13T11:43:28.000Z</time>
      </trkpt>
      <trkpt lat="44.20134" lon="5.41844">
        <ele>694</ele>
        <time>2026-05-13T11:43:29.000Z</time>
      </trkpt>
      <trkpt lat="44.20137" lon="5.41844">
        <ele>694</ele>
        <time>2026-05-13T11:43:30.000Z</time>
      </trkpt>
      <trkpt lat="44.20139" lon="5.41844">
        <ele>695</ele>
        <time>2026-05-13T11:43:31.000Z</time>
      </trkpt>
      <trkpt lat="44.20141" lon="5.41844">
        <ele>695</ele>
        <time>2026-05-13T11:43:32.000Z</time>
      </trkpt>
      <trkpt lat="44.20143" lon="5.41844">
        <ele>694</ele>
        <time>2026-05-13T11:43:33.000Z</time>
      </trkpt>
      <trkpt lat="44.20146" lon="5.41844">
        <ele>694</ele>
        <time>2026-05-13T11:43:34.000Z</time>
      </trkpt>
      <trkpt lat="44.20148" lon="5.41844">
        <ele>694</ele>
        <time>2026-05-13T11:43:35.000Z</time>
      </trkpt>
      <trkpt lat="44.20151" lon="5.41844">
        <ele>694</ele>
        <time>2026-05-13T11:43:36.000Z</time>
      </trkpt>
      <trkpt lat="44.20154" lon="5.41843">
        <ele>694</ele>
        <time>2026-05-13T11:43:37.000Z</time>
      </trkpt>
      <trkpt lat="44.20156" lon="5.41842">
        <ele>694</ele>
        <time>2026-05-13T11:43:38.000Z</time>
      </trkpt>
      <trkpt lat="44.20158" lon="5.41842">
        <ele>694</ele>
        <time>2026-05-13T11:43:39.000Z</time>
      </trkpt>
      <trkpt lat="44.2016" lon="5.41842">
        <ele>694</ele>
        <time>2026-05-13T11:43:40.000Z</time>
      </trkpt>
      <trkpt lat="44.20161" lon="5.41843">
        <ele>694</ele>
        <time>2026-05-13T11:43:41.000Z</time>
      </trkpt>
      <trkpt lat="44.20164" lon="5.41843">
        <ele>694</ele>
        <time>2026-05-13T11:43:42.000Z</time>
      </trkpt>
      <trkpt lat="44.20166" lon="5.41844">
        <ele>694</ele>
        <time>2026-05-13T11:43:43.000Z</time>
      </trkpt>
      <trkpt lat="44.20169" lon="5.41843">
        <ele>694</ele>
        <time>2026-05-13T11:43:44.000Z</time>
      </trkpt>
      <trkpt lat="44.20173" lon="5.41843">
        <ele>694</ele>
        <time>2026-05-13T11:43:45.000Z</time>
      </trkpt>
      <trkpt lat="44.20175" lon="5.41842">
        <ele>694</ele>
        <time>2026-05-13T11:43:46.000Z</time>
      </trkpt>
      <trkpt lat="44.20178" lon="5.41842">
        <ele>695</ele>
        <time>2026-05-13T11:43:47.000Z</time>
      </trkpt>
      <trkpt lat="44.20181" lon="5.41839">
        <ele>695</ele>
        <time>2026-05-13T11:43:48.000Z</time>
      </trkpt>
      <trkpt lat="44.20183" lon="5.41836">
        <ele>695</ele>
        <time>2026-05-13T11:43:49.000Z</time>
      </trkpt>
      <trkpt lat="44.20184" lon="5.41832">
        <ele>695</ele>
        <time>2026-05-13T11:43:50.000Z</time>
      </trkpt>
      <trkpt lat="44.20184" lon="5.41828">
        <ele>696</ele>
        <time>2026-05-13T11:43:51.000Z</time>
      </trkpt>
      <trkpt lat="44.20184" lon="5.41826">
        <ele>696</ele>
        <time>2026-05-13T11:43:52.000Z</time>
      </trkpt>
      <trkpt lat="44.20184" lon="5.41823">
        <ele>696</ele>
        <time>2026-05-13T11:43:53.000Z</time>
      </trkpt>
      <trkpt lat="44.20184" lon="5.41821">
        <ele>696</ele>
        <time>2026-05-13T11:43:54.000Z</time>
      </trkpt>
      <trkpt lat="44.20185" lon="5.4182">
        <ele>696</ele>
        <time>2026-05-13T11:43:55.000Z</time>
      </trkpt>
      <trkpt lat="44.20185" lon="5.41818">
        <ele>697</ele>
        <time>2026-05-13T11:43:56.000Z</time>
      </trkpt>
      <trkpt lat="44.20186" lon="5.41817">
        <ele>698</ele>
        <time>2026-05-13T11:43:57.000Z</time>
      </trkpt>
      <trkpt lat="44.20187" lon="5.41815">
        <ele>698</ele>
        <time>2026-05-13T11:43:58.000Z</time>
      </trkpt>
      <trkpt lat="44.20188" lon="5.41812">
        <ele>698</ele>
        <time>2026-05-13T11:43:59.000Z</time>
      </trkpt>
      <trkpt lat="44.20189" lon="5.41809">
        <ele>698</ele>
        <time>2026-05-13T11:44:00.000Z</time>
      </trkpt>
      <trkpt lat="44.20189" lon="5.41807">
        <ele>699</ele>
        <time>2026-05-13T11:44:01.000Z</time>
      </trkpt>
      <trkpt lat="44.20189" lon="5.41805">
        <ele>698</ele>
        <time>2026-05-13T11:44:02.000Z</time>
      </trkpt>
      <trkpt lat="44.2019" lon="5.41803">
        <ele>698</ele>
        <time>2026-05-13T11:44:03.000Z</time>
      </trkpt>
      <trkpt lat="44.20191" lon="5.41801">
        <ele>698</ele>
        <time>2026-05-13T11:44:04.000Z</time>
      </trkpt>
      <trkpt lat="44.20192" lon="5.41799">
        <ele>698</ele>
        <time>2026-05-13T11:44:05.000Z</time>
      </trkpt>
      <trkpt lat="44.20193" lon="5.41797">
        <ele>698</ele>
        <time>2026-05-13T11:44:06.000Z</time>
      </trkpt>
      <trkpt lat="44.20194" lon="5.41795">
        <ele>699</ele>
        <time>2026-05-13T11:44:07.000Z</time>
      </trkpt>
      <trkpt lat="44.20195" lon="5.41793">
        <ele>699</ele>
        <time>2026-05-13T11:44:08.000Z</time>
      </trkpt>
      <trkpt lat="44.20196" lon="5.41791">
        <ele>698</ele>
        <time>2026-05-13T11:44:09.000Z</time>
      </trkpt>
      <trkpt lat="44.20197" lon="5.41789">
        <ele>698</ele>
        <time>2026-05-13T11:44:10.000Z</time>
      </trkpt>
      <trkpt lat="44.20198" lon="5.41786">
        <ele>698</ele>
        <time>2026-05-13T11:44:11.000Z</time>
      </trkpt>
      <trkpt lat="44.20198" lon="5.41784">
        <ele>698</ele>
        <time>2026-05-13T11:44:12.000Z</time>
      </trkpt>
      <trkpt lat="44.20199" lon="5.41782">
        <ele>698</ele>
        <time>2026-05-13T11:44:13.000Z</time>
      </trkpt>
      <trkpt lat="44.20199" lon="5.4178">
        <ele>698</ele>
        <time>2026-05-13T11:44:14.000Z</time>
      </trkpt>
      <trkpt lat="44.202" lon="5.41778">
        <ele>699</ele>
        <time>2026-05-13T11:44:15.000Z</time>
      </trkpt>
      <trkpt lat="44.20201" lon="5.41776">
        <ele>700</ele>
        <time>2026-05-13T11:44:16.000Z</time>
      </trkpt>
      <trkpt lat="44.20201" lon="5.41774">
        <ele>700</ele>
        <time>2026-05-13T11:44:17.000Z</time>
      </trkpt>
      <trkpt lat="44.20201" lon="5.41772">
        <ele>700</ele>
        <time>2026-05-13T11:44:18.000Z</time>
      </trkpt>
      <trkpt lat="44.20202" lon="5.41769">
        <ele>700</ele>
        <time>2026-05-13T11:44:19.000Z</time>
      </trkpt>
      <trkpt lat="44.20202" lon="5.41766">
        <ele>701</ele>
        <time>2026-05-13T11:44:20.000Z</time>
      </trkpt>
      <trkpt lat="44.20202" lon="5.41763">
        <ele>700</ele>
        <time>2026-05-13T11:44:21.000Z</time>
      </trkpt>
      <trkpt lat="44.20203" lon="5.41761">
        <ele>700</ele>
        <time>2026-05-13T11:44:22.000Z</time>
      </trkpt>
      <trkpt lat="44.20204" lon="5.41759">
        <ele>701</ele>
        <time>2026-05-13T11:44:23.000Z</time>
      </trkpt>
      <trkpt lat="44.20205" lon="5.41757">
        <ele>701</ele>
        <time>2026-05-13T11:44:24.000Z</time>
      </trkpt>
      <trkpt lat="44.20206" lon="5.41754">
        <ele>701</ele>
        <time>2026-05-13T11:44:25.000Z</time>
      </trkpt>
      <trkpt lat="44.20207" lon="5.41753">
        <ele>701</ele>
        <time>2026-05-13T11:44:26.000Z</time>
      </trkpt>
      <trkpt lat="44.20208" lon="5.4175">
        <ele>701</ele>
        <time>2026-05-13T11:44:27.000Z</time>
      </trkpt>
      <trkpt lat="44.20209" lon="5.41749">
        <ele>701</ele>
        <time>2026-05-13T11:44:28.000Z</time>
      </trkpt>
      <trkpt lat="44.2021" lon="5.41747">
        <ele>702</ele>
        <time>2026-05-13T11:44:29.000Z</time>
      </trkpt>
      <trkpt lat="44.20212" lon="5.41746">
        <ele>702</ele>
        <time>2026-05-13T11:44:30.000Z</time>
      </trkpt>
      <trkpt lat="44.20213" lon="5.41745">
        <ele>703</ele>
        <time>2026-05-13T11:44:31.000Z</time>
      </trkpt>
      <trkpt lat="44.20215" lon="5.41744">
        <ele>703</ele>
        <time>2026-05-13T11:44:32.000Z</time>
      </trkpt>
      <trkpt lat="44.20216" lon="5.41742">
        <ele>703</ele>
        <time>2026-05-13T11:44:33.000Z</time>
      </trkpt>
      <trkpt lat="44.20217" lon="5.41741">
        <ele>703</ele>
        <time>2026-05-13T11:44:34.000Z</time>
      </trkpt>
      <trkpt lat="44.20218" lon="5.4174">
        <ele>704</ele>
        <time>2026-05-13T11:44:35.000Z</time>
      </trkpt>
      <trkpt lat="44.20219" lon="5.41739">
        <ele>704</ele>
        <time>2026-05-13T11:44:36.000Z</time>
      </trkpt>
      <trkpt lat="44.2022" lon="5.41738">
        <ele>703</ele>
        <time>2026-05-13T11:44:37.000Z</time>
      </trkpt>
      <trkpt lat="44.20222" lon="5.41737">
        <ele>703</ele>
        <time>2026-05-13T11:44:38.000Z</time>
      </trkpt>
      <trkpt lat="44.20224" lon="5.41736">
        <ele>704</ele>
        <time>2026-05-13T11:44:39.000Z</time>
      </trkpt>
      <trkpt lat="44.20225" lon="5.41735">
        <ele>704</ele>
        <time>2026-05-13T11:44:40.000Z</time>
      </trkpt>
      <trkpt lat="44.20227" lon="5.41734">
        <ele>704</ele>
        <time>2026-05-13T11:44:41.000Z</time>
      </trkpt>
      <trkpt lat="44.20228" lon="5.41734">
        <ele>704</ele>
        <time>2026-05-13T11:44:42.000Z</time>
      </trkpt>
      <trkpt lat="44.2023" lon="5.41733">
        <ele>705</ele>
        <time>2026-05-13T11:44:43.000Z</time>
      </trkpt>
      <trkpt lat="44.20231" lon="5.41732">
        <ele>705</ele>
        <time>2026-05-13T11:44:44.000Z</time>
      </trkpt>
      <trkpt lat="44.20233" lon="5.41731">
        <ele>706</ele>
        <time>2026-05-13T11:44:45.000Z</time>
      </trkpt>
      <trkpt lat="44.20234" lon="5.41731">
        <ele>706</ele>
        <time>2026-05-13T11:44:46.000Z</time>
      </trkpt>
      <trkpt lat="44.20236" lon="5.4173">
        <ele>706</ele>
        <time>2026-05-13T11:44:47.000Z</time>
      </trkpt>
      <trkpt lat="44.20237" lon="5.4173">
        <ele>706</ele>
        <time>2026-05-13T11:44:48.000Z</time>
      </trkpt>
      <trkpt lat="44.20238" lon="5.4173">
        <ele>706</ele>
        <time>2026-05-13T11:44:49.000Z</time>
      </trkpt>
      <trkpt lat="44.2024" lon="5.4173">
        <ele>706</ele>
        <time>2026-05-13T11:44:50.000Z</time>
      </trkpt>
      <trkpt lat="44.20242" lon="5.4173">
        <ele>706</ele>
        <time>2026-05-13T11:44:51.000Z</time>
      </trkpt>
      <trkpt lat="44.20243" lon="5.41731">
        <ele>706</ele>
        <time>2026-05-13T11:44:52.000Z</time>
      </trkpt>
      <trkpt lat="44.20244" lon="5.41731">
        <ele>706</ele>
        <time>2026-05-13T11:44:53.000Z</time>
      </trkpt>
      <trkpt lat="44.20246" lon="5.41731">
        <ele>707</ele>
        <time>2026-05-13T11:44:54.000Z</time>
      </trkpt>
      <trkpt lat="44.20247" lon="5.41731">
        <ele>707</ele>
        <time>2026-05-13T11:44:55.000Z</time>
      </trkpt>
      <trkpt lat="44.20248" lon="5.41731">
        <ele>707</ele>
        <time>2026-05-13T11:44:56.000Z</time>
      </trkpt>
      <trkpt lat="44.2025" lon="5.41731">
        <ele>707</ele>
        <time>2026-05-13T11:44:57.000Z</time>
      </trkpt>
      <trkpt lat="44.20251" lon="5.41731">
        <ele>707</ele>
        <time>2026-05-13T11:44:58.000Z</time>
      </trkpt>
      <trkpt lat="44.20252" lon="5.41732">
        <ele>707</ele>
        <time>2026-05-13T11:44:59.000Z</time>
      </trkpt>
      <trkpt lat="44.20254" lon="5.41732">
        <ele>707</ele>
        <time>2026-05-13T11:45:00.000Z</time>
      </trkpt>
      <trkpt lat="44.20256" lon="5.41732">
        <ele>707</ele>
        <time>2026-05-13T11:45:01.000Z</time>
      </trkpt>
      <trkpt lat="44.20257" lon="5.41731">
        <ele>708</ele>
        <time>2026-05-13T11:45:02.000Z</time>
      </trkpt>
      <trkpt lat="44.20259" lon="5.41731">
        <ele>708</ele>
        <time>2026-05-13T11:45:03.000Z</time>
      </trkpt>
      <trkpt lat="44.2026" lon="5.4173">
        <ele>708</ele>
        <time>2026-05-13T11:45:04.000Z</time>
      </trkpt>
      <trkpt lat="44.20261" lon="5.41729">
        <ele>708</ele>
        <time>2026-05-13T11:45:05.000Z</time>
      </trkpt>
      <trkpt lat="44.20262" lon="5.41728">
        <ele>708</ele>
        <time>2026-05-13T11:45:06.000Z</time>
      </trkpt>
      <trkpt lat="44.20264" lon="5.41727">
        <ele>708</ele>
        <time>2026-05-13T11:45:07.000Z</time>
      </trkpt>
      <trkpt lat="44.20265" lon="5.41726">
        <ele>708</ele>
        <time>2026-05-13T11:45:08.000Z</time>
      </trkpt>
      <trkpt lat="44.20266" lon="5.41725">
        <ele>708</ele>
        <time>2026-05-13T11:45:09.000Z</time>
      </trkpt>
      <trkpt lat="44.20268" lon="5.41723">
        <ele>708</ele>
        <time>2026-05-13T11:45:10.000Z</time>
      </trkpt>
      <trkpt lat="44.20269" lon="5.41722">
        <ele>708</ele>
        <time>2026-05-13T11:45:11.000Z</time>
      </trkpt>
      <trkpt lat="44.2027" lon="5.41721">
        <ele>708</ele>
        <time>2026-05-13T11:45:12.000Z</time>
      </trkpt>
      <trkpt lat="44.20271" lon="5.41719">
        <ele>708</ele>
        <time>2026-05-13T11:45:13.000Z</time>
      </trkpt>
      <trkpt lat="44.20272" lon="5.41717">
        <ele>709</ele>
        <time>2026-05-13T11:45:14.000Z</time>
      </trkpt>
      <trkpt lat="44.20273" lon="5.41716">
        <ele>709</ele>
        <time>2026-05-13T11:45:15.000Z</time>
      </trkpt>
      <trkpt lat="44.20274" lon="5.41715">
        <ele>709</ele>
        <time>2026-05-13T11:45:16.000Z</time>
      </trkpt>
      <trkpt lat="44.20276" lon="5.41714">
        <ele>709</ele>
        <time>2026-05-13T11:45:17.000Z</time>
      </trkpt>
      <trkpt lat="44.20277" lon="5.41713">
        <ele>708</ele>
        <time>2026-05-13T11:45:18.000Z</time>
      </trkpt>
      <trkpt lat="44.20279" lon="5.41712">
        <ele>709</ele>
        <time>2026-05-13T11:45:19.000Z</time>
      </trkpt>
      <trkpt lat="44.2028" lon="5.41711">
        <ele>709</ele>
        <time>2026-05-13T11:45:20.000Z</time>
      </trkpt>
      <trkpt lat="44.20282" lon="5.4171">
        <ele>709</ele>
        <time>2026-05-13T11:45:21.000Z</time>
      </trkpt>
      <trkpt lat="44.20283" lon="5.41708">
        <ele>709</ele>
        <time>2026-05-13T11:45:22.000Z</time>
      </trkpt>
      <trkpt lat="44.20285" lon="5.41706">
        <ele>709</ele>
        <time>2026-05-13T11:45:23.000Z</time>
      </trkpt>
      <trkpt lat="44.20286" lon="5.41705">
        <ele>709</ele>
        <time>2026-05-13T11:45:24.000Z</time>
      </trkpt>
      <trkpt lat="44.20287" lon="5.41703">
        <ele>709</ele>
        <time>2026-05-13T11:45:25.000Z</time>
      </trkpt>
      <trkpt lat="44.20288" lon="5.41702">
        <ele>709</ele>
        <time>2026-05-13T11:45:26.000Z</time>
      </trkpt>
      <trkpt lat="44.20289" lon="5.417">
        <ele>710</ele>
        <time>2026-05-13T11:45:27.000Z</time>
      </trkpt>
      <trkpt lat="44.2029" lon="5.41699">
        <ele>710</ele>
        <time>2026-05-13T11:45:28.000Z</time>
      </trkpt>
      <trkpt lat="44.20291" lon="5.41697">
        <ele>710</ele>
        <time>2026-05-13T11:45:29.000Z</time>
      </trkpt>
      <trkpt lat="44.20293" lon="5.41696">
        <ele>710</ele>
        <time>2026-05-13T11:45:30.000Z</time>
      </trkpt>
      <trkpt lat="44.20293" lon="5.41695">
        <ele>710</ele>
        <time>2026-05-13T11:45:31.000Z</time>
      </trkpt>
      <trkpt lat="44.20294" lon="5.41693">
        <ele>710</ele>
        <time>2026-05-13T11:45:32.000Z</time>
      </trkpt>
      <trkpt lat="44.20295" lon="5.41692">
        <ele>711</ele>
        <time>2026-05-13T11:45:33.000Z</time>
      </trkpt>
      <trkpt lat="44.20296" lon="5.4169">
        <ele>711</ele>
        <time>2026-05-13T11:45:34.000Z</time>
      </trkpt>
      <trkpt lat="44.20297" lon="5.41688">
        <ele>711</ele>
        <time>2026-05-13T11:45:35.000Z</time>
      </trkpt>
      <trkpt lat="44.20298" lon="5.41687">
        <ele>712</ele>
        <time>2026-05-13T11:45:36.000Z</time>
      </trkpt>
      <trkpt lat="44.20299" lon="5.41685">
        <ele>712</ele>
        <time>2026-05-13T11:45:37.000Z</time>
      </trkpt>
      <trkpt lat="44.20301" lon="5.41683">
        <ele>712</ele>
        <time>2026-05-13T11:45:38.000Z</time>
      </trkpt>
      <trkpt lat="44.20302" lon="5.41682">
        <ele>712</ele>
        <time>2026-05-13T11:45:39.000Z</time>
      </trkpt>
      <trkpt lat="44.20302" lon="5.4168">
        <ele>712</ele>
        <time>2026-05-13T11:45:40.000Z</time>
      </trkpt>
      <trkpt lat="44.20303" lon="5.41679">
        <ele>713</ele>
        <time>2026-05-13T11:45:41.000Z</time>
      </trkpt>
      <trkpt lat="44.20304" lon="5.41677">
        <ele>713</ele>
        <time>2026-05-13T11:45:42.000Z</time>
      </trkpt>
      <trkpt lat="44.20306" lon="5.41675">
        <ele>713</ele>
        <time>2026-05-13T11:45:43.000Z</time>
      </trkpt>
      <trkpt lat="44.20306" lon="5.41674">
        <ele>713</ele>
        <time>2026-05-13T11:45:44.000Z</time>
      </trkpt>
      <trkpt lat="44.20308" lon="5.41672">
        <ele>714</ele>
        <time>2026-05-13T11:45:45.000Z</time>
      </trkpt>
      <trkpt lat="44.20308" lon="5.4167">
        <ele>714</ele>
        <time>2026-05-13T11:45:46.000Z</time>
      </trkpt>
      <trkpt lat="44.20308" lon="5.41668">
        <ele>715</ele>
        <time>2026-05-13T11:45:47.000Z</time>
      </trkpt>
      <trkpt lat="44.20309" lon="5.41665">
        <ele>715</ele>
        <time>2026-05-13T11:45:48.000Z</time>
      </trkpt>
      <trkpt lat="44.20309" lon="5.41663">
        <ele>715</ele>
        <time>2026-05-13T11:45:49.000Z</time>
      </trkpt>
      <trkpt lat="44.20309" lon="5.4166">
        <ele>715</ele>
        <time>2026-05-13T11:45:50.000Z</time>
      </trkpt>
      <trkpt lat="44.2031" lon="5.41659">
        <ele>715</ele>
        <time>2026-05-13T11:45:51.000Z</time>
      </trkpt>
      <trkpt lat="44.20311" lon="5.41658">
        <ele>715</ele>
        <time>2026-05-13T11:45:52.000Z</time>
      </trkpt>
      <trkpt lat="44.20313" lon="5.41657">
        <ele>715</ele>
        <time>2026-05-13T11:45:53.000Z</time>
      </trkpt>
      <trkpt lat="44.20314" lon="5.41657">
        <ele>715</ele>
        <time>2026-05-13T11:45:54.000Z</time>
      </trkpt>
      <trkpt lat="44.20315" lon="5.41659">
        <ele>715</ele>
        <time>2026-05-13T11:45:55.000Z</time>
      </trkpt>
      <trkpt lat="44.20317" lon="5.4166">
        <ele>715</ele>
        <time>2026-05-13T11:45:56.000Z</time>
      </trkpt>
      <trkpt lat="44.20317" lon="5.41663">
        <ele>716</ele>
        <time>2026-05-13T11:45:57.000Z</time>
      </trkpt>
      <trkpt lat="44.20317" lon="5.41665">
        <ele>716</ele>
        <time>2026-05-13T11:45:58.000Z</time>
      </trkpt>
      <trkpt lat="44.20316" lon="5.41667">
        <ele>716</ele>
        <time>2026-05-13T11:45:59.000Z</time>
      </trkpt>
      <trkpt lat="44.20316" lon="5.41669">
        <ele>716</ele>
        <time>2026-05-13T11:46:00.000Z</time>
      </trkpt>
      <trkpt lat="44.20316" lon="5.41671">
        <ele>716</ele>
        <time>2026-05-13T11:46:01.000Z</time>
      </trkpt>
      <trkpt lat="44.20315" lon="5.41672">
        <ele>716</ele>
        <time>2026-05-13T11:46:02.000Z</time>
      </trkpt>
      <trkpt lat="44.20315" lon="5.41674">
        <ele>716</ele>
        <time>2026-05-13T11:46:03.000Z</time>
      </trkpt>
      <trkpt lat="44.20315" lon="5.41676">
        <ele>715</ele>
        <time>2026-05-13T11:46:04.000Z</time>
      </trkpt>
      <trkpt lat="44.20314" lon="5.41678">
        <ele>716</ele>
        <time>2026-05-13T11:46:05.000Z</time>
      </trkpt>
      <trkpt lat="44.20313" lon="5.41679">
        <ele>716</ele>
        <time>2026-05-13T11:46:06.000Z</time>
      </trkpt>
      <trkpt lat="44.20312" lon="5.41681">
        <ele>716</ele>
        <time>2026-05-13T11:46:07.000Z</time>
      </trkpt>
      <trkpt lat="44.20312" lon="5.41683">
        <ele>716</ele>
        <time>2026-05-13T11:46:08.000Z</time>
      </trkpt>
      <trkpt lat="44.20311" lon="5.41686">
        <ele>716</ele>
        <time>2026-05-13T11:46:09.000Z</time>
      </trkpt>
      <trkpt lat="44.2031" lon="5.41688">
        <ele>717</ele>
        <time>2026-05-13T11:46:10.000Z</time>
      </trkpt>
      <trkpt lat="44.2031" lon="5.4169">
        <ele>717</ele>
        <time>2026-05-13T11:46:11.000Z</time>
      </trkpt>
      <trkpt lat="44.2031" lon="5.41692">
        <ele>718</ele>
        <time>2026-05-13T11:46:12.000Z</time>
      </trkpt>
      <trkpt lat="44.20309" lon="5.41694">
        <ele>718</ele>
        <time>2026-05-13T11:46:13.000Z</time>
      </trkpt>
      <trkpt lat="44.20308" lon="5.41695">
        <ele>718</ele>
        <time>2026-05-13T11:46:14.000Z</time>
      </trkpt>
      <trkpt lat="44.20307" lon="5.41697">
        <ele>718</ele>
        <time>2026-05-13T11:46:15.000Z</time>
      </trkpt>
      <trkpt lat="44.20306" lon="5.41699">
        <ele>718</ele>
        <time>2026-05-13T11:46:16.000Z</time>
      </trkpt>
      <trkpt lat="44.20306" lon="5.417">
        <ele>719</ele>
        <time>2026-05-13T11:46:17.000Z</time>
      </trkpt>
      <trkpt lat="44.20305" lon="5.41702">
        <ele>718</ele>
        <time>2026-05-13T11:46:18.000Z</time>
      </trkpt>
      <trkpt lat="44.20305" lon="5.41704">
        <ele>719</ele>
        <time>2026-05-13T11:46:19.000Z</time>
      </trkpt>
      <trkpt lat="44.20304" lon="5.41706">
        <ele>719</ele>
        <time>2026-05-13T11:46:20.000Z</time>
      </trkpt>
      <trkpt lat="44.20304" lon="5.41707">
        <ele>720</ele>
        <time>2026-05-13T11:46:21.000Z</time>
      </trkpt>
      <trkpt lat="44.20303" lon="5.41709">
        <ele>720</ele>
        <time>2026-05-13T11:46:22.000Z</time>
      </trkpt>
      <trkpt lat="44.20302" lon="5.41711">
        <ele>721</ele>
        <time>2026-05-13T11:46:23.000Z</time>
      </trkpt>
      <trkpt lat="44.20302" lon="5.41712">
        <ele>721</ele>
        <time>2026-05-13T11:46:24.000Z</time>
      </trkpt>
      <trkpt lat="44.20302" lon="5.41714">
        <ele>721</ele>
        <time>2026-05-13T11:46:25.000Z</time>
      </trkpt>
      <trkpt lat="44.20301" lon="5.41715">
        <ele>721</ele>
        <time>2026-05-13T11:46:26.000Z</time>
      </trkpt>
      <trkpt lat="44.20301" lon="5.41716">
        <ele>721</ele>
        <time>2026-05-13T11:46:27.000Z</time>
      </trkpt>
      <trkpt lat="44.203" lon="5.41718">
        <ele>721</ele>
        <time>2026-05-13T11:46:28.000Z</time>
      </trkpt>
      <trkpt lat="44.20299" lon="5.41719">
        <ele>721</ele>
        <time>2026-05-13T11:46:29.000Z</time>
      </trkpt>
      <trkpt lat="44.20299" lon="5.41721">
        <ele>722</ele>
        <time>2026-05-13T11:46:30.000Z</time>
      </trkpt>
      <trkpt lat="44.20298" lon="5.41722">
        <ele>722</ele>
        <time>2026-05-13T11:46:31.000Z</time>
      </trkpt>
      <trkpt lat="44.20297" lon="5.41724">
        <ele>722</ele>
        <time>2026-05-13T11:46:32.000Z</time>
      </trkpt>
      <trkpt lat="44.20297" lon="5.41725">
        <ele>723</ele>
        <time>2026-05-13T11:46:33.000Z</time>
      </trkpt>
      <trkpt lat="44.20296" lon="5.41727">
        <ele>723</ele>
        <time>2026-05-13T11:46:34.000Z</time>
      </trkpt>
      <trkpt lat="44.20295" lon="5.41728">
        <ele>723</ele>
        <time>2026-05-13T11:46:35.000Z</time>
      </trkpt>
      <trkpt lat="44.20295" lon="5.4173">
        <ele>723</ele>
        <time>2026-05-13T11:46:36.000Z</time>
      </trkpt>
      <trkpt lat="44.20294" lon="5.41731">
        <ele>723</ele>
        <time>2026-05-13T11:46:37.000Z</time>
      </trkpt>
      <trkpt lat="44.20293" lon="5.41733">
        <ele>723</ele>
        <time>2026-05-13T11:46:38.000Z</time>
      </trkpt>
      <trkpt lat="44.20292" lon="5.41734">
        <ele>723</ele>
        <time>2026-05-13T11:46:39.000Z</time>
      </trkpt>
      <trkpt lat="44.20292" lon="5.41736">
        <ele>724</ele>
        <time>2026-05-13T11:46:40.000Z</time>
      </trkpt>
      <trkpt lat="44.20291" lon="5.41738">
        <ele>724</ele>
        <time>2026-05-13T11:46:41.000Z</time>
      </trkpt>
      <trkpt lat="44.2029" lon="5.4174">
        <ele>725</ele>
        <time>2026-05-13T11:46:42.000Z</time>
      </trkpt>
      <trkpt lat="44.20289" lon="5.41742">
        <ele>725</ele>
        <time>2026-05-13T11:46:43.000Z</time>
      </trkpt>
      <trkpt lat="44.20288" lon="5.41743">
        <ele>726</ele>
        <time>2026-05-13T11:46:44.000Z</time>
      </trkpt>
      <trkpt lat="44.20288" lon="5.41745">
        <ele>726</ele>
        <time>2026-05-13T11:46:45.000Z</time>
      </trkpt>
      <trkpt lat="44.20287" lon="5.41746">
        <ele>726</ele>
        <time>2026-05-13T11:46:46.000Z</time>
      </trkpt>
      <trkpt lat="44.20287" lon="5.41748">
        <ele>727</ele>
        <time>2026-05-13T11:46:47.000Z</time>
      </trkpt>
      <trkpt lat="44.20287" lon="5.41749">
        <ele>727</ele>
        <time>2026-05-13T11:46:48.000Z</time>
      </trkpt>
      <trkpt lat="44.20286" lon="5.4175">
        <ele>727</ele>
        <time>2026-05-13T11:46:49.000Z</time>
      </trkpt>
      <trkpt lat="44.20285" lon="5.41752">
        <ele>727</ele>
        <time>2026-05-13T11:46:50.000Z</time>
      </trkpt>
      <trkpt lat="44.20284" lon="5.41753">
        <ele>727</ele>
        <time>2026-05-13T11:46:51.000Z</time>
      </trkpt>
      <trkpt lat="44.20284" lon="5.41755">
        <ele>727</ele>
        <time>2026-05-13T11:46:52.000Z</time>
      </trkpt>
      <trkpt lat="44.20283" lon="5.41756">
        <ele>727</ele>
        <time>2026-05-13T11:46:53.000Z</time>
      </trkpt>
      <trkpt lat="44.20282" lon="5.41756">
        <ele>727</ele>
        <time>2026-05-13T11:46:54.000Z</time>
      </trkpt>
      <trkpt lat="44.20281" lon="5.41757">
        <ele>726</ele>
        <time>2026-05-13T11:46:55.000Z</time>
      </trkpt>
      <trkpt lat="44.2028" lon="5.41758">
        <ele>726</ele>
        <time>2026-05-13T11:46:56.000Z</time>
      </trkpt>
      <trkpt lat="44.20279" lon="5.4176">
        <ele>726</ele>
        <time>2026-05-13T11:46:57.000Z</time>
      </trkpt>
      <trkpt lat="44.20279" lon="5.41762">
        <ele>727</ele>
        <time>2026-05-13T11:46:58.000Z</time>
      </trkpt>
      <trkpt lat="44.20279" lon="5.41764">
        <ele>727</ele>
        <time>2026-05-13T11:46:59.000Z</time>
      </trkpt>
      <trkpt lat="44.20278" lon="5.41766">
        <ele>727</ele>
        <time>2026-05-13T11:47:00.000Z</time>
      </trkpt>
      <trkpt lat="44.20278" lon="5.41768">
        <ele>727</ele>
        <time>2026-05-13T11:47:01.000Z</time>
      </trkpt>
      <trkpt lat="44.20278" lon="5.41769">
        <ele>727</ele>
        <time>2026-05-13T11:47:02.000Z</time>
      </trkpt>
      <trkpt lat="44.20278" lon="5.4177">
        <ele>727</ele>
        <time>2026-05-13T11:47:03.000Z</time>
      </trkpt>
      <trkpt lat="44.20279" lon="5.41772">
        <ele>727</ele>
        <time>2026-05-13T11:47:04.000Z</time>
      </trkpt>
      <trkpt lat="44.20279" lon="5.41773">
        <ele>727</ele>
        <time>2026-05-13T11:47:05.000Z</time>
      </trkpt>
      <trkpt lat="44.2028" lon="5.41774">
        <ele>727</ele>
        <time>2026-05-13T11:47:06.000Z</time>
      </trkpt>
      <trkpt lat="44.20281" lon="5.41774">
        <ele>727</ele>
        <time>2026-05-13T11:47:07.000Z</time>
      </trkpt>
      <trkpt lat="44.20282" lon="5.41774">
        <ele>727</ele>
        <time>2026-05-13T11:47:08.000Z</time>
      </trkpt>
      <trkpt lat="44.20283" lon="5.41774">
        <ele>727</ele>
        <time>2026-05-13T11:47:09.000Z</time>
      </trkpt>
      <trkpt lat="44.20283" lon="5.41774">
        <ele>727</ele>
        <time>2026-05-13T11:47:10.000Z</time>
      </trkpt>
      <trkpt lat="44.20285" lon="5.41773">
        <ele>726</ele>
        <time>2026-05-13T11:47:11.000Z</time>
      </trkpt>
      <trkpt lat="44.20286" lon="5.41772">
        <ele>727</ele>
        <time>2026-05-13T11:47:12.000Z</time>
      </trkpt>
      <trkpt lat="44.20286" lon="5.41772">
        <ele>726</ele>
        <time>2026-05-13T11:47:13.000Z</time>
      </trkpt>
      <trkpt lat="44.20287" lon="5.4177">
        <ele>726</ele>
        <time>2026-05-13T11:47:14.000Z</time>
      </trkpt>
      <trkpt lat="44.20288" lon="5.41769">
        <ele>726</ele>
        <time>2026-05-13T11:47:15.000Z</time>
      </trkpt>
      <trkpt lat="44.20289" lon="5.41768">
        <ele>727</ele>
        <time>2026-05-13T11:47:16.000Z</time>
      </trkpt>
      <trkpt lat="44.20289" lon="5.41766">
        <ele>727</ele>
        <time>2026-05-13T11:47:17.000Z</time>
      </trkpt>
      <trkpt lat="44.2029" lon="5.41764">
        <ele>727</ele>
        <time>2026-05-13T11:47:18.000Z</time>
      </trkpt>
      <trkpt lat="44.20291" lon="5.41763">
        <ele>727</ele>
        <time>2026-05-13T11:47:19.000Z</time>
      </trkpt>
      <trkpt lat="44.20292" lon="5.41762">
        <ele>726</ele>
        <time>2026-05-13T11:47:20.000Z</time>
      </trkpt>
      <trkpt lat="44.20293" lon="5.4176">
        <ele>726</ele>
        <time>2026-05-13T11:47:21.000Z</time>
      </trkpt>
      <trkpt lat="44.20295" lon="5.41758">
        <ele>726</ele>
        <time>2026-05-13T11:47:22.000Z</time>
      </trkpt>
      <trkpt lat="44.20296" lon="5.41757">
        <ele>726</ele>
        <time>2026-05-13T11:47:23.000Z</time>
      </trkpt>
      <trkpt lat="44.20297" lon="5.41755">
        <ele>725</ele>
        <time>2026-05-13T11:47:24.000Z</time>
      </trkpt>
      <trkpt lat="44.20298" lon="5.41753">
        <ele>726</ele>
        <time>2026-05-13T11:47:25.000Z</time>
      </trkpt>
      <trkpt lat="44.203" lon="5.41751">
        <ele>726</ele>
        <time>2026-05-13T11:47:26.000Z</time>
      </trkpt>
      <trkpt lat="44.20301" lon="5.4175">
        <ele>726</ele>
        <time>2026-05-13T11:47:27.000Z</time>
      </trkpt>
      <trkpt lat="44.20302" lon="5.41747">
        <ele>726</ele>
        <time>2026-05-13T11:47:28.000Z</time>
      </trkpt>
      <trkpt lat="44.20303" lon="5.41746">
        <ele>726</ele>
        <time>2026-05-13T11:47:29.000Z</time>
      </trkpt>
      <trkpt lat="44.20304" lon="5.41745">
        <ele>726</ele>
        <time>2026-05-13T11:47:30.000Z</time>
      </trkpt>
      <trkpt lat="44.20306" lon="5.41743">
        <ele>726</ele>
        <time>2026-05-13T11:47:31.000Z</time>
      </trkpt>
      <trkpt lat="44.20307" lon="5.41742">
        <ele>727</ele>
        <time>2026-05-13T11:47:32.000Z</time>
      </trkpt>
      <trkpt lat="44.20309" lon="5.4174">
        <ele>727</ele>
        <time>2026-05-13T11:47:33.000Z</time>
      </trkpt>
      <trkpt lat="44.2031" lon="5.41739">
        <ele>727</ele>
        <time>2026-05-13T11:47:34.000Z</time>
      </trkpt>
      <trkpt lat="44.20311" lon="5.41738">
        <ele>727</ele>
        <time>2026-05-13T11:47:35.000Z</time>
      </trkpt>
      <trkpt lat="44.20312" lon="5.41736">
        <ele>728</ele>
        <time>2026-05-13T11:47:36.000Z</time>
      </trkpt>
      <trkpt lat="44.20313" lon="5.41733">
        <ele>727</ele>
        <time>2026-05-13T11:47:37.000Z</time>
      </trkpt>
      <trkpt lat="44.20314" lon="5.41731">
        <ele>727</ele>
        <time>2026-05-13T11:47:38.000Z</time>
      </trkpt>
      <trkpt lat="44.20316" lon="5.4173">
        <ele>727</ele>
        <time>2026-05-13T11:47:39.000Z</time>
      </trkpt>
      <trkpt lat="44.20317" lon="5.41729">
        <ele>727</ele>
        <time>2026-05-13T11:47:40.000Z</time>
      </trkpt>
      <trkpt lat="44.20318" lon="5.41727">
        <ele>727</ele>
        <time>2026-05-13T11:47:41.000Z</time>
      </trkpt>
      <trkpt lat="44.2032" lon="5.41726">
        <ele>727</ele>
        <time>2026-05-13T11:47:42.000Z</time>
      </trkpt>
      <trkpt lat="44.20321" lon="5.41724">
        <ele>727</ele>
        <time>2026-05-13T11:47:43.000Z</time>
      </trkpt>
      <trkpt lat="44.20322" lon="5.41722">
        <ele>727</ele>
        <time>2026-05-13T11:47:44.000Z</time>
      </trkpt>
      <trkpt lat="44.20323" lon="5.41721">
        <ele>727</ele>
        <time>2026-05-13T11:47:45.000Z</time>
      </trkpt>
      <trkpt lat="44.20324" lon="5.41719">
        <ele>727</ele>
        <time>2026-05-13T11:47:46.000Z</time>
      </trkpt>
      <trkpt lat="44.20325" lon="5.41717">
        <ele>727</ele>
        <time>2026-05-13T11:47:47.000Z</time>
      </trkpt>
      <trkpt lat="44.20326" lon="5.41715">
        <ele>727</ele>
        <time>2026-05-13T11:47:48.000Z</time>
      </trkpt>
      <trkpt lat="44.20327" lon="5.41713">
        <ele>727</ele>
        <time>2026-05-13T11:47:49.000Z</time>
      </trkpt>
      <trkpt lat="44.20328" lon="5.41711">
        <ele>727</ele>
        <time>2026-05-13T11:47:50.000Z</time>
      </trkpt>
      <trkpt lat="44.20329" lon="5.41709">
        <ele>727</ele>
        <time>2026-05-13T11:47:51.000Z</time>
      </trkpt>
      <trkpt lat="44.20329" lon="5.41707">
        <ele>728</ele>
        <time>2026-05-13T11:47:52.000Z</time>
      </trkpt>
      <trkpt lat="44.2033" lon="5.41705">
        <ele>728</ele>
        <time>2026-05-13T11:47:53.000Z</time>
      </trkpt>
      <trkpt lat="44.20331" lon="5.41703">
        <ele>728</ele>
        <time>2026-05-13T11:47:54.000Z</time>
      </trkpt>
      <trkpt lat="44.20332" lon="5.41701">
        <ele>728</ele>
        <time>2026-05-13T11:47:55.000Z</time>
      </trkpt>
      <trkpt lat="44.20333" lon="5.41699">
        <ele>729</ele>
        <time>2026-05-13T11:47:56.000Z</time>
      </trkpt>
      <trkpt lat="44.20334" lon="5.41697">
        <ele>729</ele>
        <time>2026-05-13T11:47:57.000Z</time>
      </trkpt>
      <trkpt lat="44.20335" lon="5.41695">
        <ele>729</ele>
        <time>2026-05-13T11:47:58.000Z</time>
      </trkpt>
      <trkpt lat="44.20336" lon="5.41693">
        <ele>729</ele>
        <time>2026-05-13T11:47:59.000Z</time>
      </trkpt>
      <trkpt lat="44.20336" lon="5.41691">
        <ele>729</ele>
        <time>2026-05-13T11:48:00.000Z</time>
      </trkpt>
      <trkpt lat="44.20337" lon="5.41689">
        <ele>729</ele>
        <time>2026-05-13T11:48:01.000Z</time>
      </trkpt>
      <trkpt lat="44.20338" lon="5.41687">
        <ele>729</ele>
        <time>2026-05-13T11:48:02.000Z</time>
      </trkpt>
      <trkpt lat="44.20339" lon="5.41685">
        <ele>729</ele>
        <time>2026-05-13T11:48:03.000Z</time>
      </trkpt>
      <trkpt lat="44.2034" lon="5.41683">
        <ele>729</ele>
        <time>2026-05-13T11:48:04.000Z</time>
      </trkpt>
      <trkpt lat="44.20341" lon="5.41681">
        <ele>730</ele>
        <time>2026-05-13T11:48:05.000Z</time>
      </trkpt>
      <trkpt lat="44.20342" lon="5.41679">
        <ele>730</ele>
        <time>2026-05-13T11:48:06.000Z</time>
      </trkpt>
      <trkpt lat="44.20343" lon="5.41677">
        <ele>730</ele>
        <time>2026-05-13T11:48:07.000Z</time>
      </trkpt>
      <trkpt lat="44.20344" lon="5.41674">
        <ele>730</ele>
        <time>2026-05-13T11:48:08.000Z</time>
      </trkpt>
      <trkpt lat="44.20345" lon="5.41672">
        <ele>730</ele>
        <time>2026-05-13T11:48:09.000Z</time>
      </trkpt>
      <trkpt lat="44.20346" lon="5.41669">
        <ele>731</ele>
        <time>2026-05-13T11:48:10.000Z</time>
      </trkpt>
      <trkpt lat="44.20347" lon="5.41667">
        <ele>730</ele>
        <time>2026-05-13T11:48:11.000Z</time>
      </trkpt>
      <trkpt lat="44.20347" lon="5.41665">
        <ele>730</ele>
        <time>2026-05-13T11:48:12.000Z</time>
      </trkpt>
      <trkpt lat="44.20348" lon="5.41662">
        <ele>731</ele>
        <time>2026-05-13T11:48:13.000Z</time>
      </trkpt>
      <trkpt lat="44.20349" lon="5.4166">
        <ele>731</ele>
        <time>2026-05-13T11:48:14.000Z</time>
      </trkpt>
      <trkpt lat="44.2035" lon="5.41657">
        <ele>732</ele>
        <time>2026-05-13T11:48:15.000Z</time>
      </trkpt>
      <trkpt lat="44.20351" lon="5.41655">
        <ele>731</ele>
        <time>2026-05-13T11:48:16.000Z</time>
      </trkpt>
      <trkpt lat="44.20351" lon="5.41653">
        <ele>732</ele>
        <time>2026-05-13T11:48:17.000Z</time>
      </trkpt>
      <trkpt lat="44.20353" lon="5.41651">
        <ele>732</ele>
        <time>2026-05-13T11:48:18.000Z</time>
      </trkpt>
      <trkpt lat="44.20353" lon="5.41648">
        <ele>732</ele>
        <time>2026-05-13T11:48:19.000Z</time>
      </trkpt>
      <trkpt lat="44.20354" lon="5.41646">
        <ele>731</ele>
        <time>2026-05-13T11:48:20.000Z</time>
      </trkpt>
      <trkpt lat="44.20355" lon="5.41644">
        <ele>731</ele>
        <time>2026-05-13T11:48:21.000Z</time>
      </trkpt>
      <trkpt lat="44.20356" lon="5.4164">
        <ele>731</ele>
        <time>2026-05-13T11:48:22.000Z</time>
      </trkpt>
      <trkpt lat="44.20357" lon="5.41638">
        <ele>732</ele>
        <time>2026-05-13T11:48:23.000Z</time>
      </trkpt>
      <trkpt lat="44.20357" lon="5.41636">
        <ele>731</ele>
        <time>2026-05-13T11:48:24.000Z</time>
      </trkpt>
      <trkpt lat="44.20358" lon="5.41633">
        <ele>731</ele>
        <time>2026-05-13T11:48:25.000Z</time>
      </trkpt>
      <trkpt lat="44.20359" lon="5.4163">
        <ele>731</ele>
        <time>2026-05-13T11:48:26.000Z</time>
      </trkpt>
      <trkpt lat="44.2036" lon="5.41628">
        <ele>731</ele>
        <time>2026-05-13T11:48:27.000Z</time>
      </trkpt>
      <trkpt lat="44.2036" lon="5.41626">
        <ele>732</ele>
        <time>2026-05-13T11:48:28.000Z</time>
      </trkpt>
      <trkpt lat="44.2036" lon="5.41624">
        <ele>731</ele>
        <time>2026-05-13T11:48:29.000Z</time>
      </trkpt>
      <trkpt lat="44.2036" lon="5.41621">
        <ele>731</ele>
        <time>2026-05-13T11:48:30.000Z</time>
      </trkpt>
      <trkpt lat="44.2036" lon="5.41619">
        <ele>731</ele>
        <time>2026-05-13T11:48:31.000Z</time>
      </trkpt>
      <trkpt lat="44.2036" lon="5.41617">
        <ele>731</ele>
        <time>2026-05-13T11:48:32.000Z</time>
      </trkpt>
      <trkpt lat="44.20361" lon="5.41615">
        <ele>731</ele>
        <time>2026-05-13T11:48:33.000Z</time>
      </trkpt>
      <trkpt lat="44.2036" lon="5.41613">
        <ele>731</ele>
        <time>2026-05-13T11:48:34.000Z</time>
      </trkpt>
      <trkpt lat="44.20361" lon="5.4161">
        <ele>731</ele>
        <time>2026-05-13T11:48:35.000Z</time>
      </trkpt>
      <trkpt lat="44.2036" lon="5.41608">
        <ele>732</ele>
        <time>2026-05-13T11:48:36.000Z</time>
      </trkpt>
      <trkpt lat="44.2036" lon="5.41606">
        <ele>732</ele>
        <time>2026-05-13T11:48:37.000Z</time>
      </trkpt>
      <trkpt lat="44.2036" lon="5.41603">
        <ele>732</ele>
        <time>2026-05-13T11:48:38.000Z</time>
      </trkpt>
      <trkpt lat="44.20361" lon="5.41601">
        <ele>733</ele>
        <time>2026-05-13T11:48:39.000Z</time>
      </trkpt>
      <trkpt lat="44.20361" lon="5.41598">
        <ele>733</ele>
        <time>2026-05-13T11:48:40.000Z</time>
      </trkpt>
      <trkpt lat="44.20361" lon="5.41596">
        <ele>732</ele>
        <time>2026-05-13T11:48:41.000Z</time>
      </trkpt>
      <trkpt lat="44.20361" lon="5.41594">
        <ele>733</ele>
        <time>2026-05-13T11:48:42.000Z</time>
      </trkpt>
      <trkpt lat="44.20361" lon="5.41591">
        <ele>734</ele>
        <time>2026-05-13T11:48:43.000Z</time>
      </trkpt>
      <trkpt lat="44.20362" lon="5.4159">
        <ele>734</ele>
        <time>2026-05-13T11:48:44.000Z</time>
      </trkpt>
      <trkpt lat="44.20362" lon="5.41588">
        <ele>734</ele>
        <time>2026-05-13T11:48:45.000Z</time>
      </trkpt>
      <trkpt lat="44.20362" lon="5.41585">
        <ele>734</ele>
        <time>2026-05-13T11:48:46.000Z</time>
      </trkpt>
      <trkpt lat="44.20363" lon="5.41583">
        <ele>735</ele>
        <time>2026-05-13T11:48:47.000Z</time>
      </trkpt>
      <trkpt lat="44.20363" lon="5.4158">
        <ele>735</ele>
        <time>2026-05-13T11:48:48.000Z</time>
      </trkpt>
      <trkpt lat="44.20364" lon="5.41578">
        <ele>735</ele>
        <time>2026-05-13T11:48:49.000Z</time>
      </trkpt>
      <trkpt lat="44.20364" lon="5.41576">
        <ele>735</ele>
        <time>2026-05-13T11:48:50.000Z</time>
      </trkpt>
      <trkpt lat="44.20364" lon="5.41573">
        <ele>736</ele>
        <time>2026-05-13T11:48:51.000Z</time>
      </trkpt>
      <trkpt lat="44.20365" lon="5.41571">
        <ele>735</ele>
        <time>2026-05-13T11:48:52.000Z</time>
      </trkpt>
      <trkpt lat="44.20365" lon="5.41569">
        <ele>735</ele>
        <time>2026-05-13T11:48:53.000Z</time>
      </trkpt>
      <trkpt lat="44.20366" lon="5.41567">
        <ele>735</ele>
        <time>2026-05-13T11:48:54.000Z</time>
      </trkpt>
      <trkpt lat="44.20367" lon="5.41565">
        <ele>734</ele>
        <time>2026-05-13T11:48:55.000Z</time>
      </trkpt>
      <trkpt lat="44.20367" lon="5.41563">
        <ele>734</ele>
        <time>2026-05-13T11:48:56.000Z</time>
      </trkpt>
      <trkpt lat="44.20368" lon="5.41561">
        <ele>734</ele>
        <time>2026-05-13T11:48:57.000Z</time>
      </trkpt>
      <trkpt lat="44.20368" lon="5.41559">
        <ele>734</ele>
        <time>2026-05-13T11:48:58.000Z</time>
      </trkpt>
      <trkpt lat="44.20368" lon="5.41556">
        <ele>734</ele>
        <time>2026-05-13T11:48:59.000Z</time>
      </trkpt>
      <trkpt lat="44.20369" lon="5.41554">
        <ele>735</ele>
        <time>2026-05-13T11:49:00.000Z</time>
      </trkpt>
      <trkpt lat="44.20369" lon="5.41552">
        <ele>735</ele>
        <time>2026-05-13T11:49:01.000Z</time>
      </trkpt>
      <trkpt lat="44.20369" lon="5.41549">
        <ele>735</ele>
        <time>2026-05-13T11:49:02.000Z</time>
      </trkpt>
      <trkpt lat="44.2037" lon="5.41547">
        <ele>735</ele>
        <time>2026-05-13T11:49:03.000Z</time>
      </trkpt>
      <trkpt lat="44.20369" lon="5.41544">
        <ele>736</ele>
        <time>2026-05-13T11:49:04.000Z</time>
      </trkpt>
      <trkpt lat="44.20369" lon="5.41542">
        <ele>735</ele>
        <time>2026-05-13T11:49:05.000Z</time>
      </trkpt>
      <trkpt lat="44.20369" lon="5.4154">
        <ele>736</ele>
        <time>2026-05-13T11:49:06.000Z</time>
      </trkpt>
      <trkpt lat="44.20369" lon="5.41539">
        <ele>735</ele>
        <time>2026-05-13T11:49:07.000Z</time>
      </trkpt>
      <trkpt lat="44.20369" lon="5.41536">
        <ele>736</ele>
        <time>2026-05-13T11:49:08.000Z</time>
      </trkpt>
      <trkpt lat="44.20368" lon="5.41534">
        <ele>736</ele>
        <time>2026-05-13T11:49:09.000Z</time>
      </trkpt>
      <trkpt lat="44.20367" lon="5.41532">
        <ele>736</ele>
        <time>2026-05-13T11:49:10.000Z</time>
      </trkpt>
      <trkpt lat="44.20366" lon="5.41531">
        <ele>736</ele>
        <time>2026-05-13T11:49:11.000Z</time>
      </trkpt>
      <trkpt lat="44.20366" lon="5.41528">
        <ele>737</ele>
        <time>2026-05-13T11:49:12.000Z</time>
      </trkpt>
      <trkpt lat="44.20365" lon="5.41526">
        <ele>737</ele>
        <time>2026-05-13T11:49:13.000Z</time>
      </trkpt>
      <trkpt lat="44.20364" lon="5.41524">
        <ele>738</ele>
        <time>2026-05-13T11:49:14.000Z</time>
      </trkpt>
      <trkpt lat="44.20364" lon="5.41522">
        <ele>738</ele>
        <time>2026-05-13T11:49:15.000Z</time>
      </trkpt>
      <trkpt lat="44.20364" lon="5.4152">
        <ele>738</ele>
        <time>2026-05-13T11:49:16.000Z</time>
      </trkpt>
      <trkpt lat="44.20364" lon="5.41518">
        <ele>738</ele>
        <time>2026-05-13T11:49:17.000Z</time>
      </trkpt>
      <trkpt lat="44.20364" lon="5.41516">
        <ele>738</ele>
        <time>2026-05-13T11:49:18.000Z</time>
      </trkpt>
      <trkpt lat="44.20364" lon="5.41515">
        <ele>738</ele>
        <time>2026-05-13T11:49:19.000Z</time>
      </trkpt>
      <trkpt lat="44.20364" lon="5.41513">
        <ele>738</ele>
        <time>2026-05-13T11:49:20.000Z</time>
      </trkpt>
      <trkpt lat="44.20364" lon="5.41511">
        <ele>738</ele>
        <time>2026-05-13T11:49:21.000Z</time>
      </trkpt>
      <trkpt lat="44.20364" lon="5.41509">
        <ele>739</ele>
        <time>2026-05-13T11:49:22.000Z</time>
      </trkpt>
      <trkpt lat="44.20363" lon="5.41506">
        <ele>739</ele>
        <time>2026-05-13T11:49:23.000Z</time>
      </trkpt>
      <trkpt lat="44.20363" lon="5.41504">
        <ele>739</ele>
        <time>2026-05-13T11:49:24.000Z</time>
      </trkpt>
      <trkpt lat="44.20363" lon="5.41502">
        <ele>739</ele>
        <time>2026-05-13T11:49:25.000Z</time>
      </trkpt>
      <trkpt lat="44.20363" lon="5.415">
        <ele>739</ele>
        <time>2026-05-13T11:49:26.000Z</time>
      </trkpt>
      <trkpt lat="44.20364" lon="5.41498">
        <ele>739</ele>
        <time>2026-05-13T11:49:27.000Z</time>
      </trkpt>
      <trkpt lat="44.20364" lon="5.41497">
        <ele>740</ele>
        <time>2026-05-13T11:49:28.000Z</time>
      </trkpt>
      <trkpt lat="44.20364" lon="5.41495">
        <ele>740</ele>
        <time>2026-05-13T11:49:29.000Z</time>
      </trkpt>
      <trkpt lat="44.20364" lon="5.41493">
        <ele>740</ele>
        <time>2026-05-13T11:49:30.000Z</time>
      </trkpt>
      <trkpt lat="44.20365" lon="5.41491">
        <ele>740</ele>
        <time>2026-05-13T11:49:31.000Z</time>
      </trkpt>
      <trkpt lat="44.20365" lon="5.4149">
        <ele>740</ele>
        <time>2026-05-13T11:49:32.000Z</time>
      </trkpt>
      <trkpt lat="44.20366" lon="5.41488">
        <ele>741</ele>
        <time>2026-05-13T11:49:33.000Z</time>
      </trkpt>
      <trkpt lat="44.20366" lon="5.41486">
        <ele>741</ele>
        <time>2026-05-13T11:49:34.000Z</time>
      </trkpt>
      <trkpt lat="44.20366" lon="5.41484">
        <ele>741</ele>
        <time>2026-05-13T11:49:35.000Z</time>
      </trkpt>
      <trkpt lat="44.20367" lon="5.41482">
        <ele>741</ele>
        <time>2026-05-13T11:49:36.000Z</time>
      </trkpt>
      <trkpt lat="44.20367" lon="5.4148">
        <ele>741</ele>
        <time>2026-05-13T11:49:37.000Z</time>
      </trkpt>
      <trkpt lat="44.20367" lon="5.41478">
        <ele>741</ele>
        <time>2026-05-13T11:49:38.000Z</time>
      </trkpt>
      <trkpt lat="44.20368" lon="5.41476">
        <ele>741</ele>
        <time>2026-05-13T11:49:39.000Z</time>
      </trkpt>
      <trkpt lat="44.20369" lon="5.41475">
        <ele>741</ele>
        <time>2026-05-13T11:49:40.000Z</time>
      </trkpt>
      <trkpt lat="44.20369" lon="5.41473">
        <ele>742</ele>
        <time>2026-05-13T11:49:41.000Z</time>
      </trkpt>
      <trkpt lat="44.2037" lon="5.41472">
        <ele>742</ele>
        <time>2026-05-13T11:49:42.000Z</time>
      </trkpt>
      <trkpt lat="44.2037" lon="5.41471">
        <ele>742</ele>
        <time>2026-05-13T11:49:43.000Z</time>
      </trkpt>
      <trkpt lat="44.20371" lon="5.4147">
        <ele>742</ele>
        <time>2026-05-13T11:49:44.000Z</time>
      </trkpt>
      <trkpt lat="44.20371" lon="5.41468">
        <ele>742</ele>
        <time>2026-05-13T11:49:45.000Z</time>
      </trkpt>
      <trkpt lat="44.20372" lon="5.41466">
        <ele>742</ele>
        <time>2026-05-13T11:49:46.000Z</time>
      </trkpt>
      <trkpt lat="44.20372" lon="5.41465">
        <ele>742</ele>
        <time>2026-05-13T11:49:47.000Z</time>
      </trkpt>
      <trkpt lat="44.20372" lon="5.41463">
        <ele>742</ele>
        <time>2026-05-13T11:49:48.000Z</time>
      </trkpt>
      <trkpt lat="44.20373" lon="5.41462">
        <ele>742</ele>
        <time>2026-05-13T11:49:49.000Z</time>
      </trkpt>
      <trkpt lat="44.20373" lon="5.4146">
        <ele>742</ele>
        <time>2026-05-13T11:49:50.000Z</time>
      </trkpt>
      <trkpt lat="44.20374" lon="5.41458">
        <ele>743</ele>
        <time>2026-05-13T11:49:51.000Z</time>
      </trkpt>
      <trkpt lat="44.20374" lon="5.41456">
        <ele>743</ele>
        <time>2026-05-13T11:49:52.000Z</time>
      </trkpt>
      <trkpt lat="44.20374" lon="5.41454">
        <ele>743</ele>
        <time>2026-05-13T11:49:53.000Z</time>
      </trkpt>
      <trkpt lat="44.20375" lon="5.41453">
        <ele>743</ele>
        <time>2026-05-13T11:49:54.000Z</time>
      </trkpt>
      <trkpt lat="44.20375" lon="5.41451">
        <ele>743</ele>
        <time>2026-05-13T11:49:55.000Z</time>
      </trkpt>
      <trkpt lat="44.20376" lon="5.4145">
        <ele>744</ele>
        <time>2026-05-13T11:49:56.000Z</time>
      </trkpt>
      <trkpt lat="44.20376" lon="5.41448">
        <ele>744</ele>
        <time>2026-05-13T11:49:57.000Z</time>
      </trkpt>
      <trkpt lat="44.20377" lon="5.41447">
        <ele>744</ele>
        <time>2026-05-13T11:49:58.000Z</time>
      </trkpt>
      <trkpt lat="44.20377" lon="5.41445">
        <ele>744</ele>
        <time>2026-05-13T11:49:59.000Z</time>
      </trkpt>
      <trkpt lat="44.20377" lon="5.41444">
        <ele>744</ele>
        <time>2026-05-13T11:50:00.000Z</time>
      </trkpt>
      <trkpt lat="44.20377" lon="5.41442">
        <ele>744</ele>
        <time>2026-05-13T11:50:01.000Z</time>
      </trkpt>
      <trkpt lat="44.20378" lon="5.41441">
        <ele>745</ele>
        <time>2026-05-13T11:50:02.000Z</time>
      </trkpt>
      <trkpt lat="44.20379" lon="5.4144">
        <ele>746</ele>
        <time>2026-05-13T11:50:03.000Z</time>
      </trkpt>
      <trkpt lat="44.20379" lon="5.41438">
        <ele>746</ele>
        <time>2026-05-13T11:50:04.000Z</time>
      </trkpt>
      <trkpt lat="44.20379" lon="5.41437">
        <ele>746</ele>
        <time>2026-05-13T11:50:05.000Z</time>
      </trkpt>
      <trkpt lat="44.20379" lon="5.41435">
        <ele>745</ele>
        <time>2026-05-13T11:50:06.000Z</time>
      </trkpt>
      <trkpt lat="44.20379" lon="5.41433">
        <ele>745</ele>
        <time>2026-05-13T11:50:07.000Z</time>
      </trkpt>
      <trkpt lat="44.20379" lon="5.41431">
        <ele>745</ele>
        <time>2026-05-13T11:50:08.000Z</time>
      </trkpt>
      <trkpt lat="44.2038" lon="5.41429">
        <ele>745</ele>
        <time>2026-05-13T11:50:09.000Z</time>
      </trkpt>
      <trkpt lat="44.2038" lon="5.41428">
        <ele>746</ele>
        <time>2026-05-13T11:50:10.000Z</time>
      </trkpt>
      <trkpt lat="44.2038" lon="5.41426">
        <ele>746</ele>
        <time>2026-05-13T11:50:11.000Z</time>
      </trkpt>
      <trkpt lat="44.2038" lon="5.41425">
        <ele>746</ele>
        <time>2026-05-13T11:50:12.000Z</time>
      </trkpt>
      <trkpt lat="44.2038" lon="5.41424">
        <ele>747</ele>
        <time>2026-05-13T11:50:13.000Z</time>
      </trkpt>
      <trkpt lat="44.20381" lon="5.41422">
        <ele>747</ele>
        <time>2026-05-13T11:50:14.000Z</time>
      </trkpt>
      <trkpt lat="44.20381" lon="5.41421">
        <ele>747</ele>
        <time>2026-05-13T11:50:15.000Z</time>
      </trkpt>
      <trkpt lat="44.20382" lon="5.41419">
        <ele>747</ele>
        <time>2026-05-13T11:50:16.000Z</time>
      </trkpt>
      <trkpt lat="44.20382" lon="5.41417">
        <ele>747</ele>
        <time>2026-05-13T11:50:17.000Z</time>
      </trkpt>
      <trkpt lat="44.20382" lon="5.41416">
        <ele>748</ele>
        <time>2026-05-13T11:50:18.000Z</time>
      </trkpt>
      <trkpt lat="44.20382" lon="5.41414">
        <ele>748</ele>
        <time>2026-05-13T11:50:19.000Z</time>
      </trkpt>
      <trkpt lat="44.20382" lon="5.41412">
        <ele>748</ele>
        <time>2026-05-13T11:50:20.000Z</time>
      </trkpt>
      <trkpt lat="44.20382" lon="5.41411">
        <ele>747</ele>
        <time>2026-05-13T11:50:21.000Z</time>
      </trkpt>
      <trkpt lat="44.20382" lon="5.41409">
        <ele>748</ele>
        <time>2026-05-13T11:50:22.000Z</time>
      </trkpt>
      <trkpt lat="44.20382" lon="5.41407">
        <ele>748</ele>
        <time>2026-05-13T11:50:23.000Z</time>
      </trkpt>
      <trkpt lat="44.20383" lon="5.41406">
        <ele>748</ele>
        <time>2026-05-13T11:50:24.000Z</time>
      </trkpt>
      <trkpt lat="44.20383" lon="5.41404">
        <ele>748</ele>
        <time>2026-05-13T11:50:25.000Z</time>
      </trkpt>
      <trkpt lat="44.20384" lon="5.41403">
        <ele>748</ele>
        <time>2026-05-13T11:50:26.000Z</time>
      </trkpt>
      <trkpt lat="44.20384" lon="5.41402">
        <ele>748</ele>
        <time>2026-05-13T11:50:27.000Z</time>
      </trkpt>
      <trkpt lat="44.20384" lon="5.414">
        <ele>748</ele>
        <time>2026-05-13T11:50:28.000Z</time>
      </trkpt>
      <trkpt lat="44.20384" lon="5.41399">
        <ele>748</ele>
        <time>2026-05-13T11:50:29.000Z</time>
      </trkpt>
      <trkpt lat="44.20384" lon="5.41397">
        <ele>748</ele>
        <time>2026-05-13T11:50:30.000Z</time>
      </trkpt>
      <trkpt lat="44.20385" lon="5.41395">
        <ele>749</ele>
        <time>2026-05-13T11:50:31.000Z</time>
      </trkpt>
      <trkpt lat="44.20385" lon="5.41394">
        <ele>748</ele>
        <time>2026-05-13T11:50:32.000Z</time>
      </trkpt>
      <trkpt lat="44.20385" lon="5.41392">
        <ele>749</ele>
        <time>2026-05-13T11:50:33.000Z</time>
      </trkpt>
      <trkpt lat="44.20386" lon="5.41391">
        <ele>749</ele>
        <time>2026-05-13T11:50:34.000Z</time>
      </trkpt>
      <trkpt lat="44.20386" lon="5.41388">
        <ele>750</ele>
        <time>2026-05-13T11:50:35.000Z</time>
      </trkpt>
      <trkpt lat="44.20385" lon="5.41386">
        <ele>750</ele>
        <time>2026-05-13T11:50:36.000Z</time>
      </trkpt>
      <trkpt lat="44.20385" lon="5.41384">
        <ele>749</ele>
        <time>2026-05-13T11:50:37.000Z</time>
      </trkpt>
      <trkpt lat="44.20385" lon="5.41382">
        <ele>749</ele>
        <time>2026-05-13T11:50:38.000Z</time>
      </trkpt>
      <trkpt lat="44.20386" lon="5.4138">
        <ele>749</ele>
        <time>2026-05-13T11:50:39.000Z</time>
      </trkpt>
      <trkpt lat="44.20386" lon="5.41379">
        <ele>750</ele>
        <time>2026-05-13T11:50:40.000Z</time>
      </trkpt>
      <trkpt lat="44.20386" lon="5.41377">
        <ele>750</ele>
        <time>2026-05-13T11:50:41.000Z</time>
      </trkpt>
      <trkpt lat="44.20386" lon="5.41376">
        <ele>750</ele>
        <time>2026-05-13T11:50:42.000Z</time>
      </trkpt>
      <trkpt lat="44.20386" lon="5.41374">
        <ele>750</ele>
        <time>2026-05-13T11:50:43.000Z</time>
      </trkpt>
      <trkpt lat="44.20386" lon="5.41372">
        <ele>750</ele>
        <time>2026-05-13T11:50:44.000Z</time>
      </trkpt>
      <trkpt lat="44.20387" lon="5.4137">
        <ele>751</ele>
        <time>2026-05-13T11:50:45.000Z</time>
      </trkpt>
      <trkpt lat="44.20387" lon="5.41369">
        <ele>751</ele>
        <time>2026-05-13T11:50:46.000Z</time>
      </trkpt>
      <trkpt lat="44.20387" lon="5.41368">
        <ele>752</ele>
        <time>2026-05-13T11:50:47.000Z</time>
      </trkpt>
      <trkpt lat="44.20387" lon="5.41366">
        <ele>752</ele>
        <time>2026-05-13T11:50:48.000Z</time>
      </trkpt>
      <trkpt lat="44.20388" lon="5.41364">
        <ele>753</ele>
        <time>2026-05-13T11:50:49.000Z</time>
      </trkpt>
      <trkpt lat="44.20388" lon="5.41363">
        <ele>753</ele>
        <time>2026-05-13T11:50:50.000Z</time>
      </trkpt>
      <trkpt lat="44.20389" lon="5.41362">
        <ele>753</ele>
        <time>2026-05-13T11:50:51.000Z</time>
      </trkpt>
      <trkpt lat="44.2039" lon="5.41361">
        <ele>753</ele>
        <time>2026-05-13T11:50:52.000Z</time>
      </trkpt>
      <trkpt lat="44.20391" lon="5.4136">
        <ele>753</ele>
        <time>2026-05-13T11:50:53.000Z</time>
      </trkpt>
      <trkpt lat="44.20392" lon="5.41359">
        <ele>753</ele>
        <time>2026-05-13T11:50:54.000Z</time>
      </trkpt>
      <trkpt lat="44.20393" lon="5.41359">
        <ele>753</ele>
        <time>2026-05-13T11:50:55.000Z</time>
      </trkpt>
      <trkpt lat="44.20394" lon="5.41358">
        <ele>753</ele>
        <time>2026-05-13T11:50:56.000Z</time>
      </trkpt>
      <trkpt lat="44.20396" lon="5.41357">
        <ele>753</ele>
        <time>2026-05-13T11:50:57.000Z</time>
      </trkpt>
      <trkpt lat="44.20397" lon="5.41357">
        <ele>752</ele>
        <time>2026-05-13T11:50:58.000Z</time>
      </trkpt>
      <trkpt lat="44.20398" lon="5.41356">
        <ele>752</ele>
        <time>2026-05-13T11:50:59.000Z</time>
      </trkpt>
      <trkpt lat="44.204" lon="5.41355">
        <ele>753</ele>
        <time>2026-05-13T11:51:00.000Z</time>
      </trkpt>
      <trkpt lat="44.20401" lon="5.41355">
        <ele>753</ele>
        <time>2026-05-13T11:51:01.000Z</time>
      </trkpt>
      <trkpt lat="44.20402" lon="5.41354">
        <ele>754</ele>
        <time>2026-05-13T11:51:02.000Z</time>
      </trkpt>
      <trkpt lat="44.20402" lon="5.41353">
        <ele>754</ele>
        <time>2026-05-13T11:51:03.000Z</time>
      </trkpt>
      <trkpt lat="44.20404" lon="5.41353">
        <ele>754</ele>
        <time>2026-05-13T11:51:04.000Z</time>
      </trkpt>
      <trkpt lat="44.20405" lon="5.41352">
        <ele>754</ele>
        <time>2026-05-13T11:51:05.000Z</time>
      </trkpt>
      <trkpt lat="44.20406" lon="5.41352">
        <ele>754</ele>
        <time>2026-05-13T11:51:06.000Z</time>
      </trkpt>
      <trkpt lat="44.20407" lon="5.41352">
        <ele>754</ele>
        <time>2026-05-13T11:51:07.000Z</time>
      </trkpt>
      <trkpt lat="44.20409" lon="5.41351">
        <ele>754</ele>
        <time>2026-05-13T11:51:08.000Z</time>
      </trkpt>
      <trkpt lat="44.2041" lon="5.41351">
        <ele>754</ele>
        <time>2026-05-13T11:51:09.000Z</time>
      </trkpt>
      <trkpt lat="44.20412" lon="5.4135">
        <ele>754</ele>
        <time>2026-05-13T11:51:10.000Z</time>
      </trkpt>
      <trkpt lat="44.20413" lon="5.4135">
        <ele>755</ele>
        <time>2026-05-13T11:51:11.000Z</time>
      </trkpt>
      <trkpt lat="44.20414" lon="5.41348">
        <ele>755</ele>
        <time>2026-05-13T11:51:12.000Z</time>
      </trkpt>
      <trkpt lat="44.20416" lon="5.41348">
        <ele>755</ele>
        <time>2026-05-13T11:51:13.000Z</time>
      </trkpt>
      <trkpt lat="44.20417" lon="5.41347">
        <ele>755</ele>
        <time>2026-05-13T11:51:14.000Z</time>
      </trkpt>
      <trkpt lat="44.20418" lon="5.41346">
        <ele>755</ele>
        <time>2026-05-13T11:51:15.000Z</time>
      </trkpt>
      <trkpt lat="44.20418" lon="5.41345">
        <ele>755</ele>
        <time>2026-05-13T11:51:16.000Z</time>
      </trkpt>
      <trkpt lat="44.20419" lon="5.41345">
        <ele>756</ele>
        <time>2026-05-13T11:51:17.000Z</time>
      </trkpt>
      <trkpt lat="44.2042" lon="5.41344">
        <ele>755</ele>
        <time>2026-05-13T11:51:18.000Z</time>
      </trkpt>
      <trkpt lat="44.20421" lon="5.41343">
        <ele>755</ele>
        <time>2026-05-13T11:51:19.000Z</time>
      </trkpt>
      <trkpt lat="44.20423" lon="5.41342">
        <ele>756</ele>
        <time>2026-05-13T11:51:20.000Z</time>
      </trkpt>
      <trkpt lat="44.20424" lon="5.41341">
        <ele>756</ele>
        <time>2026-05-13T11:51:21.000Z</time>
      </trkpt>
      <trkpt lat="44.20425" lon="5.4134">
        <ele>756</ele>
        <time>2026-05-13T11:51:22.000Z</time>
      </trkpt>
      <trkpt lat="44.20426" lon="5.41339">
        <ele>756</ele>
        <time>2026-05-13T11:51:23.000Z</time>
      </trkpt>
      <trkpt lat="44.20427" lon="5.41338">
        <ele>756</ele>
        <time>2026-05-13T11:51:24.000Z</time>
      </trkpt>
      <trkpt lat="44.20428" lon="5.41337">
        <ele>756</ele>
        <time>2026-05-13T11:51:25.000Z</time>
      </trkpt>
      <trkpt lat="44.20428" lon="5.41336">
        <ele>756</ele>
        <time>2026-05-13T11:51:26.000Z</time>
      </trkpt>
      <trkpt lat="44.20429" lon="5.41334">
        <ele>757</ele>
        <time>2026-05-13T11:51:27.000Z</time>
      </trkpt>
      <trkpt lat="44.2043" lon="5.41333">
        <ele>757</ele>
        <time>2026-05-13T11:51:28.000Z</time>
      </trkpt>
      <trkpt lat="44.20431" lon="5.41331">
        <ele>757</ele>
        <time>2026-05-13T11:51:29.000Z</time>
      </trkpt>
      <trkpt lat="44.20432" lon="5.4133">
        <ele>757</ele>
        <time>2026-05-13T11:51:30.000Z</time>
      </trkpt>
      <trkpt lat="44.20432" lon="5.41329">
        <ele>757</ele>
        <time>2026-05-13T11:51:31.000Z</time>
      </trkpt>
      <trkpt lat="44.20433" lon="5.41327">
        <ele>757</ele>
        <time>2026-05-13T11:51:32.000Z</time>
      </trkpt>
      <trkpt lat="44.20434" lon="5.41326">
        <ele>757</ele>
        <time>2026-05-13T11:51:33.000Z</time>
      </trkpt>
      <trkpt lat="44.20434" lon="5.41324">
        <ele>757</ele>
        <time>2026-05-13T11:51:34.000Z</time>
      </trkpt>
      <trkpt lat="44.20435" lon="5.41322">
        <ele>758</ele>
        <time>2026-05-13T11:51:35.000Z</time>
      </trkpt>
      <trkpt lat="44.20435" lon="5.4132">
        <ele>757</ele>
        <time>2026-05-13T11:51:36.000Z</time>
      </trkpt>
      <trkpt lat="44.20436" lon="5.41318">
        <ele>758</ele>
        <time>2026-05-13T11:51:37.000Z</time>
      </trkpt>
      <trkpt lat="44.20436" lon="5.41316">
        <ele>758</ele>
        <time>2026-05-13T11:51:38.000Z</time>
      </trkpt>
      <trkpt lat="44.20437" lon="5.41315">
        <ele>758</ele>
        <time>2026-05-13T11:51:39.000Z</time>
      </trkpt>
      <trkpt lat="44.20437" lon="5.41313">
        <ele>759</ele>
        <time>2026-05-13T11:51:40.000Z</time>
      </trkpt>
      <trkpt lat="44.20438" lon="5.41311">
        <ele>758</ele>
        <time>2026-05-13T11:51:41.000Z</time>
      </trkpt>
      <trkpt lat="44.20438" lon="5.41309">
        <ele>759</ele>
        <time>2026-05-13T11:51:42.000Z</time>
      </trkpt>
      <trkpt lat="44.20438" lon="5.41307">
        <ele>759</ele>
        <time>2026-05-13T11:51:43.000Z</time>
      </trkpt>
      <trkpt lat="44.20438" lon="5.41306">
        <ele>759</ele>
        <time>2026-05-13T11:51:44.000Z</time>
      </trkpt>
      <trkpt lat="44.20438" lon="5.41304">
        <ele>759</ele>
        <time>2026-05-13T11:51:45.000Z</time>
      </trkpt>
      <trkpt lat="44.20438" lon="5.41302">
        <ele>759</ele>
        <time>2026-05-13T11:51:46.000Z</time>
      </trkpt>
      <trkpt lat="44.20438" lon="5.41301">
        <ele>759</ele>
        <time>2026-05-13T11:51:47.000Z</time>
      </trkpt>
      <trkpt lat="44.20438" lon="5.41299">
        <ele>759</ele>
        <time>2026-05-13T11:51:48.000Z</time>
      </trkpt>
      <trkpt lat="44.20438" lon="5.41297">
        <ele>759</ele>
        <time>2026-05-13T11:51:49.000Z</time>
      </trkpt>
      <trkpt lat="44.20437" lon="5.41295">
        <ele>759</ele>
        <time>2026-05-13T11:51:50.000Z</time>
      </trkpt>
      <trkpt lat="44.20437" lon="5.41294">
        <ele>760</ele>
        <time>2026-05-13T11:51:51.000Z</time>
      </trkpt>
      <trkpt lat="44.20438" lon="5.41292">
        <ele>760</ele>
        <time>2026-05-13T11:51:52.000Z</time>
      </trkpt>
      <trkpt lat="44.20438" lon="5.41289">
        <ele>760</ele>
        <time>2026-05-13T11:51:53.000Z</time>
      </trkpt>
      <trkpt lat="44.20438" lon="5.41287">
        <ele>760</ele>
        <time>2026-05-13T11:51:54.000Z</time>
      </trkpt>
      <trkpt lat="44.20438" lon="5.41285">
        <ele>761</ele>
        <time>2026-05-13T11:51:55.000Z</time>
      </trkpt>
      <trkpt lat="44.20438" lon="5.41283">
        <ele>761</ele>
        <time>2026-05-13T11:51:56.000Z</time>
      </trkpt>
      <trkpt lat="44.20438" lon="5.41282">
        <ele>761</ele>
        <time>2026-05-13T11:51:57.000Z</time>
      </trkpt>
      <trkpt lat="44.20438" lon="5.4128">
        <ele>762</ele>
        <time>2026-05-13T11:51:58.000Z</time>
      </trkpt>
      <trkpt lat="44.20438" lon="5.41278">
        <ele>761</ele>
        <time>2026-05-13T11:51:59.000Z</time>
      </trkpt>
      <trkpt lat="44.20438" lon="5.41276">
        <ele>761</ele>
        <time>2026-05-13T11:52:00.000Z</time>
      </trkpt>
      <trkpt lat="44.20438" lon="5.41274">
        <ele>762</ele>
        <time>2026-05-13T11:52:01.000Z</time>
      </trkpt>
      <trkpt lat="44.20438" lon="5.41272">
        <ele>762</ele>
        <time>2026-05-13T11:52:02.000Z</time>
      </trkpt>
      <trkpt lat="44.20438" lon="5.4127">
        <ele>762</ele>
        <time>2026-05-13T11:52:03.000Z</time>
      </trkpt>
      <trkpt lat="44.20439" lon="5.41268">
        <ele>762</ele>
        <time>2026-05-13T11:52:04.000Z</time>
      </trkpt>
      <trkpt lat="44.20438" lon="5.41266">
        <ele>762</ele>
        <time>2026-05-13T11:52:05.000Z</time>
      </trkpt>
      <trkpt lat="44.20438" lon="5.41264">
        <ele>762</ele>
        <time>2026-05-13T11:52:06.000Z</time>
      </trkpt>
      <trkpt lat="44.20438" lon="5.41262">
        <ele>762</ele>
        <time>2026-05-13T11:52:07.000Z</time>
      </trkpt>
      <trkpt lat="44.20438" lon="5.4126">
        <ele>762</ele>
        <time>2026-05-13T11:52:08.000Z</time>
      </trkpt>
      <trkpt lat="44.20438" lon="5.41258">
        <ele>763</ele>
        <time>2026-05-13T11:52:09.000Z</time>
      </trkpt>
      <trkpt lat="44.20438" lon="5.41256">
        <ele>763</ele>
        <time>2026-05-13T11:52:10.000Z</time>
      </trkpt>
      <trkpt lat="44.20438" lon="5.41254">
        <ele>763</ele>
        <time>2026-05-13T11:52:11.000Z</time>
      </trkpt>
      <trkpt lat="44.20438" lon="5.41252">
        <ele>763</ele>
        <time>2026-05-13T11:52:12.000Z</time>
      </trkpt>
      <trkpt lat="44.20437" lon="5.4125">
        <ele>763</ele>
        <time>2026-05-13T11:52:13.000Z</time>
      </trkpt>
      <trkpt lat="44.20437" lon="5.41249">
        <ele>763</ele>
        <time>2026-05-13T11:52:14.000Z</time>
      </trkpt>
      <trkpt lat="44.20437" lon="5.41247">
        <ele>762</ele>
        <time>2026-05-13T11:52:15.000Z</time>
      </trkpt>
      <trkpt lat="44.20437" lon="5.41246">
        <ele>763</ele>
        <time>2026-05-13T11:52:16.000Z</time>
      </trkpt>
      <trkpt lat="44.20437" lon="5.41244">
        <ele>763</ele>
        <time>2026-05-13T11:52:17.000Z</time>
      </trkpt>
      <trkpt lat="44.20437" lon="5.41241">
        <ele>763</ele>
        <time>2026-05-13T11:52:18.000Z</time>
      </trkpt>
      <trkpt lat="44.20437" lon="5.41238">
        <ele>763</ele>
        <time>2026-05-13T11:52:19.000Z</time>
      </trkpt>
      <trkpt lat="44.20436" lon="5.41236">
        <ele>763</ele>
        <time>2026-05-13T11:52:20.000Z</time>
      </trkpt>
      <trkpt lat="44.20436" lon="5.41234">
        <ele>763</ele>
        <time>2026-05-13T11:52:21.000Z</time>
      </trkpt>
      <trkpt lat="44.20436" lon="5.41232">
        <ele>763</ele>
        <time>2026-05-13T11:52:22.000Z</time>
      </trkpt>
      <trkpt lat="44.20436" lon="5.4123">
        <ele>763</ele>
        <time>2026-05-13T11:52:23.000Z</time>
      </trkpt>
      <trkpt lat="44.20436" lon="5.41229">
        <ele>763</ele>
        <time>2026-05-13T11:52:24.000Z</time>
      </trkpt>
      <trkpt lat="44.20437" lon="5.41227">
        <ele>763</ele>
        <time>2026-05-13T11:52:25.000Z</time>
      </trkpt>
      <trkpt lat="44.20437" lon="5.41225">
        <ele>762</ele>
        <time>2026-05-13T11:52:26.000Z</time>
      </trkpt>
      <trkpt lat="44.20436" lon="5.41222">
        <ele>762</ele>
        <time>2026-05-13T11:52:27.000Z</time>
      </trkpt>
      <trkpt lat="44.20436" lon="5.41221">
        <ele>761</ele>
        <time>2026-05-13T11:52:28.000Z</time>
      </trkpt>
      <trkpt lat="44.20436" lon="5.41218">
        <ele>762</ele>
        <time>2026-05-13T11:52:29.000Z</time>
      </trkpt>
      <trkpt lat="44.20436" lon="5.41216">
        <ele>762</ele>
        <time>2026-05-13T11:52:30.000Z</time>
      </trkpt>
      <trkpt lat="44.20436" lon="5.41214">
        <ele>761</ele>
        <time>2026-05-13T11:52:31.000Z</time>
      </trkpt>
      <trkpt lat="44.20435" lon="5.41212">
        <ele>761</ele>
        <time>2026-05-13T11:52:32.000Z</time>
      </trkpt>
      <trkpt lat="44.20436" lon="5.4121">
        <ele>762</ele>
        <time>2026-05-13T11:52:33.000Z</time>
      </trkpt>
      <trkpt lat="44.20436" lon="5.41207">
        <ele>762</ele>
        <time>2026-05-13T11:52:34.000Z</time>
      </trkpt>
      <trkpt lat="44.20435" lon="5.41205">
        <ele>762</ele>
        <time>2026-05-13T11:52:35.000Z</time>
      </trkpt>
      <trkpt lat="44.20436" lon="5.41202">
        <ele>762</ele>
        <time>2026-05-13T11:52:36.000Z</time>
      </trkpt>
      <trkpt lat="44.20435" lon="5.412">
        <ele>763</ele>
        <time>2026-05-13T11:52:37.000Z</time>
      </trkpt>
      <trkpt lat="44.20435" lon="5.41197">
        <ele>763</ele>
        <time>2026-05-13T11:52:38.000Z</time>
      </trkpt>
      <trkpt lat="44.20436" lon="5.41195">
        <ele>764</ele>
        <time>2026-05-13T11:52:39.000Z</time>
      </trkpt>
      <trkpt lat="44.20436" lon="5.41193">
        <ele>764</ele>
        <time>2026-05-13T11:52:40.000Z</time>
      </trkpt>
      <trkpt lat="44.20436" lon="5.4119">
        <ele>764</ele>
        <time>2026-05-13T11:52:41.000Z</time>
      </trkpt>
      <trkpt lat="44.20436" lon="5.41188">
        <ele>764</ele>
        <time>2026-05-13T11:52:42.000Z</time>
      </trkpt>
      <trkpt lat="44.20436" lon="5.41186">
        <ele>764</ele>
        <time>2026-05-13T11:52:43.000Z</time>
      </trkpt>
      <trkpt lat="44.20437" lon="5.41183">
        <ele>764</ele>
        <time>2026-05-13T11:52:44.000Z</time>
      </trkpt>
      <trkpt lat="44.20437" lon="5.41181">
        <ele>764</ele>
        <time>2026-05-13T11:52:45.000Z</time>
      </trkpt>
      <trkpt lat="44.20437" lon="5.41178">
        <ele>764</ele>
        <time>2026-05-13T11:52:46.000Z</time>
      </trkpt>
      <trkpt lat="44.20438" lon="5.41177">
        <ele>764</ele>
        <time>2026-05-13T11:52:47.000Z</time>
      </trkpt>
      <trkpt lat="44.20438" lon="5.41175">
        <ele>765</ele>
        <time>2026-05-13T11:52:48.000Z</time>
      </trkpt>
      <trkpt lat="44.20439" lon="5.41173">
        <ele>765</ele>
        <time>2026-05-13T11:52:49.000Z</time>
      </trkpt>
      <trkpt lat="44.20439" lon="5.41171">
        <ele>765</ele>
        <time>2026-05-13T11:52:50.000Z</time>
      </trkpt>
      <trkpt lat="44.2044" lon="5.41169">
        <ele>765</ele>
        <time>2026-05-13T11:52:51.000Z</time>
      </trkpt>
      <trkpt lat="44.20441" lon="5.41166">
        <ele>766</ele>
        <time>2026-05-13T11:52:52.000Z</time>
      </trkpt>
      <trkpt lat="44.20441" lon="5.41163">
        <ele>765</ele>
        <time>2026-05-13T11:52:53.000Z</time>
      </trkpt>
      <trkpt lat="44.20441" lon="5.4116">
        <ele>765</ele>
        <time>2026-05-13T11:52:54.000Z</time>
      </trkpt>
      <trkpt lat="44.20441" lon="5.41157">
        <ele>765</ele>
        <time>2026-05-13T11:52:55.000Z</time>
      </trkpt>
      <trkpt lat="44.20441" lon="5.41155">
        <ele>765</ele>
        <time>2026-05-13T11:52:56.000Z</time>
      </trkpt>
      <trkpt lat="44.20441" lon="5.41151">
        <ele>764</ele>
        <time>2026-05-13T11:52:57.000Z</time>
      </trkpt>
      <trkpt lat="44.20442" lon="5.41149">
        <ele>764</ele>
        <time>2026-05-13T11:52:58.000Z</time>
      </trkpt>
      <trkpt lat="44.20443" lon="5.41146">
        <ele>764</ele>
        <time>2026-05-13T11:52:59.000Z</time>
      </trkpt>
      <trkpt lat="44.20443" lon="5.41143">
        <ele>764</ele>
        <time>2026-05-13T11:53:00.000Z</time>
      </trkpt>
      <trkpt lat="44.20443" lon="5.41141">
        <ele>765</ele>
        <time>2026-05-13T11:53:01.000Z</time>
      </trkpt>
      <trkpt lat="44.20443" lon="5.41139">
        <ele>765</ele>
        <time>2026-05-13T11:53:02.000Z</time>
      </trkpt>
      <trkpt lat="44.20443" lon="5.41136">
        <ele>765</ele>
        <time>2026-05-13T11:53:03.000Z</time>
      </trkpt>
      <trkpt lat="44.20443" lon="5.41134">
        <ele>765</ele>
        <time>2026-05-13T11:53:04.000Z</time>
      </trkpt>
      <trkpt lat="44.20443" lon="5.41132">
        <ele>765</ele>
        <time>2026-05-13T11:53:05.000Z</time>
      </trkpt>
      <trkpt lat="44.20444" lon="5.41129">
        <ele>765</ele>
        <time>2026-05-13T11:53:06.000Z</time>
      </trkpt>
      <trkpt lat="44.20444" lon="5.41127">
        <ele>765</ele>
        <time>2026-05-13T11:53:07.000Z</time>
      </trkpt>
      <trkpt lat="44.20444" lon="5.41124">
        <ele>765</ele>
        <time>2026-05-13T11:53:08.000Z</time>
      </trkpt>
      <trkpt lat="44.20444" lon="5.41121">
        <ele>765</ele>
        <time>2026-05-13T11:53:09.000Z</time>
      </trkpt>
      <trkpt lat="44.20445" lon="5.4112">
        <ele>766</ele>
        <time>2026-05-13T11:53:10.000Z</time>
      </trkpt>
      <trkpt lat="44.20446" lon="5.41117">
        <ele>766</ele>
        <time>2026-05-13T11:53:11.000Z</time>
      </trkpt>
      <trkpt lat="44.20447" lon="5.41115">
        <ele>766</ele>
        <time>2026-05-13T11:53:12.000Z</time>
      </trkpt>
      <trkpt lat="44.20448" lon="5.41112">
        <ele>766</ele>
        <time>2026-05-13T11:53:13.000Z</time>
      </trkpt>
      <trkpt lat="44.2045" lon="5.41111">
        <ele>766</ele>
        <time>2026-05-13T11:53:14.000Z</time>
      </trkpt>
      <trkpt lat="44.2045" lon="5.41109">
        <ele>766</ele>
        <time>2026-05-13T11:53:15.000Z</time>
      </trkpt>
      <trkpt lat="44.20452" lon="5.41108">
        <ele>766</ele>
        <time>2026-05-13T11:53:16.000Z</time>
      </trkpt>
      <trkpt lat="44.20453" lon="5.41106">
        <ele>767</ele>
        <time>2026-05-13T11:53:17.000Z</time>
      </trkpt>
      <trkpt lat="44.20455" lon="5.41104">
        <ele>767</ele>
        <time>2026-05-13T11:53:18.000Z</time>
      </trkpt>
      <trkpt lat="44.20456" lon="5.41103">
        <ele>767</ele>
        <time>2026-05-13T11:53:19.000Z</time>
      </trkpt>
      <trkpt lat="44.20457" lon="5.41101">
        <ele>767</ele>
        <time>2026-05-13T11:53:20.000Z</time>
      </trkpt>
      <trkpt lat="44.20459" lon="5.411">
        <ele>767</ele>
        <time>2026-05-13T11:53:21.000Z</time>
      </trkpt>
      <trkpt lat="44.2046" lon="5.41099">
        <ele>767</ele>
        <time>2026-05-13T11:53:22.000Z</time>
      </trkpt>
      <trkpt lat="44.20462" lon="5.41097">
        <ele>767</ele>
        <time>2026-05-13T11:53:23.000Z</time>
      </trkpt>
      <trkpt lat="44.20463" lon="5.41096">
        <ele>768</ele>
        <time>2026-05-13T11:53:24.000Z</time>
      </trkpt>
      <trkpt lat="44.20464" lon="5.41096">
        <ele>768</ele>
        <time>2026-05-13T11:53:25.000Z</time>
      </trkpt>
      <trkpt lat="44.20466" lon="5.41095">
        <ele>769</ele>
        <time>2026-05-13T11:53:26.000Z</time>
      </trkpt>
      <trkpt lat="44.20467" lon="5.41093">
        <ele>769</ele>
        <time>2026-05-13T11:53:27.000Z</time>
      </trkpt>
      <trkpt lat="44.20469" lon="5.41091">
        <ele>769</ele>
        <time>2026-05-13T11:53:28.000Z</time>
      </trkpt>
      <trkpt lat="44.2047" lon="5.4109">
        <ele>769</ele>
        <time>2026-05-13T11:53:29.000Z</time>
      </trkpt>
      <trkpt lat="44.20472" lon="5.4109">
        <ele>769</ele>
        <time>2026-05-13T11:53:30.000Z</time>
      </trkpt>
      <trkpt lat="44.20473" lon="5.41088">
        <ele>769</ele>
        <time>2026-05-13T11:53:31.000Z</time>
      </trkpt>
      <trkpt lat="44.20475" lon="5.41087">
        <ele>769</ele>
        <time>2026-05-13T11:53:32.000Z</time>
      </trkpt>
      <trkpt lat="44.20476" lon="5.41085">
        <ele>769</ele>
        <time>2026-05-13T11:53:33.000Z</time>
      </trkpt>
      <trkpt lat="44.20477" lon="5.41083">
        <ele>769</ele>
        <time>2026-05-13T11:53:34.000Z</time>
      </trkpt>
      <trkpt lat="44.20479" lon="5.41082">
        <ele>769</ele>
        <time>2026-05-13T11:53:35.000Z</time>
      </trkpt>
      <trkpt lat="44.2048" lon="5.41081">
        <ele>770</ele>
        <time>2026-05-13T11:53:36.000Z</time>
      </trkpt>
      <trkpt lat="44.20481" lon="5.4108">
        <ele>770</ele>
        <time>2026-05-13T11:53:37.000Z</time>
      </trkpt>
      <trkpt lat="44.20483" lon="5.41079">
        <ele>769</ele>
        <time>2026-05-13T11:53:38.000Z</time>
      </trkpt>
      <trkpt lat="44.20484" lon="5.41077">
        <ele>770</ele>
        <time>2026-05-13T11:53:39.000Z</time>
      </trkpt>
      <trkpt lat="44.20486" lon="5.41075">
        <ele>770</ele>
        <time>2026-05-13T11:53:40.000Z</time>
      </trkpt>
      <trkpt lat="44.20487" lon="5.41074">
        <ele>770</ele>
        <time>2026-05-13T11:53:41.000Z</time>
      </trkpt>
      <trkpt lat="44.20487" lon="5.41073">
        <ele>770</ele>
        <time>2026-05-13T11:53:42.000Z</time>
      </trkpt>
      <trkpt lat="44.20489" lon="5.41072">
        <ele>771</ele>
        <time>2026-05-13T11:53:43.000Z</time>
      </trkpt>
      <trkpt lat="44.20491" lon="5.41072">
        <ele>771</ele>
        <time>2026-05-13T11:53:44.000Z</time>
      </trkpt>
      <trkpt lat="44.20492" lon="5.41071">
        <ele>771</ele>
        <time>2026-05-13T11:53:45.000Z</time>
      </trkpt>
      <trkpt lat="44.20493" lon="5.41072">
        <ele>771</ele>
        <time>2026-05-13T11:53:46.000Z</time>
      </trkpt>
      <trkpt lat="44.20495" lon="5.41071">
        <ele>771</ele>
        <time>2026-05-13T11:53:47.000Z</time>
      </trkpt>
      <trkpt lat="44.20496" lon="5.41071">
        <ele>771</ele>
        <time>2026-05-13T11:53:48.000Z</time>
      </trkpt>
      <trkpt lat="44.20497" lon="5.41071">
        <ele>771</ele>
        <time>2026-05-13T11:53:49.000Z</time>
      </trkpt>
      <trkpt lat="44.20499" lon="5.41071">
        <ele>771</ele>
        <time>2026-05-13T11:53:50.000Z</time>
      </trkpt>
      <trkpt lat="44.205" lon="5.41072">
        <ele>772</ele>
        <time>2026-05-13T11:53:51.000Z</time>
      </trkpt>
      <trkpt lat="44.20501" lon="5.41073">
        <ele>772</ele>
        <time>2026-05-13T11:53:52.000Z</time>
      </trkpt>
      <trkpt lat="44.20503" lon="5.41074">
        <ele>772</ele>
        <time>2026-05-13T11:53:53.000Z</time>
      </trkpt>
      <trkpt lat="44.20504" lon="5.41075">
        <ele>772</ele>
        <time>2026-05-13T11:53:54.000Z</time>
      </trkpt>
      <trkpt lat="44.20505" lon="5.41077">
        <ele>773</ele>
        <time>2026-05-13T11:53:55.000Z</time>
      </trkpt>
      <trkpt lat="44.20507" lon="5.41078">
        <ele>772</ele>
        <time>2026-05-13T11:53:56.000Z</time>
      </trkpt>
      <trkpt lat="44.20508" lon="5.41079">
        <ele>772</ele>
        <time>2026-05-13T11:53:57.000Z</time>
      </trkpt>
      <trkpt lat="44.20509" lon="5.4108">
        <ele>772</ele>
        <time>2026-05-13T11:53:58.000Z</time>
      </trkpt>
      <trkpt lat="44.2051" lon="5.41081">
        <ele>773</ele>
        <time>2026-05-13T11:53:59.000Z</time>
      </trkpt>
      <trkpt lat="44.20511" lon="5.41083">
        <ele>773</ele>
        <time>2026-05-13T11:54:00.000Z</time>
      </trkpt>
      <trkpt lat="44.20513" lon="5.41084">
        <ele>773</ele>
        <time>2026-05-13T11:54:01.000Z</time>
      </trkpt>
      <trkpt lat="44.20514" lon="5.41085">
        <ele>774</ele>
        <time>2026-05-13T11:54:02.000Z</time>
      </trkpt>
      <trkpt lat="44.20514" lon="5.41086">
        <ele>774</ele>
        <time>2026-05-13T11:54:03.000Z</time>
      </trkpt>
      <trkpt lat="44.20516" lon="5.41086">
        <ele>773</ele>
        <time>2026-05-13T11:54:04.000Z</time>
      </trkpt>
      <trkpt lat="44.20517" lon="5.41087">
        <ele>773</ele>
        <time>2026-05-13T11:54:05.000Z</time>
      </trkpt>
      <trkpt lat="44.20519" lon="5.41088">
        <ele>773</ele>
        <time>2026-05-13T11:54:06.000Z</time>
      </trkpt>
      <trkpt lat="44.2052" lon="5.41089">
        <ele>773</ele>
        <time>2026-05-13T11:54:07.000Z</time>
      </trkpt>
      <trkpt lat="44.20521" lon="5.41089">
        <ele>773</ele>
        <time>2026-05-13T11:54:08.000Z</time>
      </trkpt>
      <trkpt lat="44.20523" lon="5.41088">
        <ele>773</ele>
        <time>2026-05-13T11:54:09.000Z</time>
      </trkpt>
      <trkpt lat="44.20524" lon="5.41087">
        <ele>773</ele>
        <time>2026-05-13T11:54:10.000Z</time>
      </trkpt>
      <trkpt lat="44.20525" lon="5.41086">
        <ele>773</ele>
        <time>2026-05-13T11:54:11.000Z</time>
      </trkpt>
      <trkpt lat="44.20526" lon="5.41084">
        <ele>773</ele>
        <time>2026-05-13T11:54:12.000Z</time>
      </trkpt>
      <trkpt lat="44.20527" lon="5.41082">
        <ele>773</ele>
        <time>2026-05-13T11:54:13.000Z</time>
      </trkpt>
      <trkpt lat="44.20528" lon="5.4108">
        <ele>774</ele>
        <time>2026-05-13T11:54:14.000Z</time>
      </trkpt>
      <trkpt lat="44.20528" lon="5.41078">
        <ele>775</ele>
        <time>2026-05-13T11:54:15.000Z</time>
      </trkpt>
      <trkpt lat="44.20529" lon="5.41076">
        <ele>775</ele>
        <time>2026-05-13T11:54:16.000Z</time>
      </trkpt>
      <trkpt lat="44.20528" lon="5.41073">
        <ele>776</ele>
        <time>2026-05-13T11:54:17.000Z</time>
      </trkpt>
      <trkpt lat="44.20528" lon="5.4107">
        <ele>776</ele>
        <time>2026-05-13T11:54:18.000Z</time>
      </trkpt>
      <trkpt lat="44.20528" lon="5.41068">
        <ele>776</ele>
        <time>2026-05-13T11:54:19.000Z</time>
      </trkpt>
      <trkpt lat="44.20528" lon="5.41066">
        <ele>776</ele>
        <time>2026-05-13T11:54:20.000Z</time>
      </trkpt>
      <trkpt lat="44.20528" lon="5.41064">
        <ele>776</ele>
        <time>2026-05-13T11:54:21.000Z</time>
      </trkpt>
      <trkpt lat="44.20527" lon="5.41062">
        <ele>776</ele>
        <time>2026-05-13T11:54:22.000Z</time>
      </trkpt>
      <trkpt lat="44.20527" lon="5.4106">
        <ele>775</ele>
        <time>2026-05-13T11:54:23.000Z</time>
      </trkpt>
      <trkpt lat="44.20527" lon="5.41058">
        <ele>776</ele>
        <time>2026-05-13T11:54:24.000Z</time>
      </trkpt>
      <trkpt lat="44.20527" lon="5.41055">
        <ele>777</ele>
        <time>2026-05-13T11:54:25.000Z</time>
      </trkpt>
      <trkpt lat="44.20527" lon="5.41054">
        <ele>777</ele>
        <time>2026-05-13T11:54:26.000Z</time>
      </trkpt>
      <trkpt lat="44.20527" lon="5.41051">
        <ele>777</ele>
        <time>2026-05-13T11:54:27.000Z</time>
      </trkpt>
      <trkpt lat="44.20527" lon="5.41049">
        <ele>777</ele>
        <time>2026-05-13T11:54:28.000Z</time>
      </trkpt>
      <trkpt lat="44.20527" lon="5.41046">
        <ele>777</ele>
        <time>2026-05-13T11:54:29.000Z</time>
      </trkpt>
      <trkpt lat="44.20527" lon="5.41044">
        <ele>777</ele>
        <time>2026-05-13T11:54:30.000Z</time>
      </trkpt>
      <trkpt lat="44.20527" lon="5.41042">
        <ele>777</ele>
        <time>2026-05-13T11:54:31.000Z</time>
      </trkpt>
      <trkpt lat="44.20527" lon="5.4104">
        <ele>777</ele>
        <time>2026-05-13T11:54:32.000Z</time>
      </trkpt>
      <trkpt lat="44.20527" lon="5.41038">
        <ele>777</ele>
        <time>2026-05-13T11:54:33.000Z</time>
      </trkpt>
      <trkpt lat="44.20527" lon="5.41036">
        <ele>777</ele>
        <time>2026-05-13T11:54:34.000Z</time>
      </trkpt>
      <trkpt lat="44.20527" lon="5.41034">
        <ele>777</ele>
        <time>2026-05-13T11:54:35.000Z</time>
      </trkpt>
      <trkpt lat="44.20527" lon="5.41031">
        <ele>778</ele>
        <time>2026-05-13T11:54:36.000Z</time>
      </trkpt>
      <trkpt lat="44.20527" lon="5.41029">
        <ele>778</ele>
        <time>2026-05-13T11:54:37.000Z</time>
      </trkpt>
      <trkpt lat="44.20527" lon="5.41026">
        <ele>779</ele>
        <time>2026-05-13T11:54:38.000Z</time>
      </trkpt>
      <trkpt lat="44.20527" lon="5.41024">
        <ele>779</ele>
        <time>2026-05-13T11:54:39.000Z</time>
      </trkpt>
      <trkpt lat="44.20527" lon="5.41021">
        <ele>779</ele>
        <time>2026-05-13T11:54:40.000Z</time>
      </trkpt>
      <trkpt lat="44.20526" lon="5.41019">
        <ele>779</ele>
        <time>2026-05-13T11:54:41.000Z</time>
      </trkpt>
      <trkpt lat="44.20527" lon="5.41017">
        <ele>779</ele>
        <time>2026-05-13T11:54:42.000Z</time>
      </trkpt>
      <trkpt lat="44.20527" lon="5.41014">
        <ele>779</ele>
        <time>2026-05-13T11:54:43.000Z</time>
      </trkpt>
      <trkpt lat="44.20527" lon="5.41012">
        <ele>779</ele>
        <time>2026-05-13T11:54:44.000Z</time>
      </trkpt>
      <trkpt lat="44.20527" lon="5.4101">
        <ele>778</ele>
        <time>2026-05-13T11:54:45.000Z</time>
      </trkpt>
      <trkpt lat="44.20527" lon="5.41008">
        <ele>779</ele>
        <time>2026-05-13T11:54:46.000Z</time>
      </trkpt>
      <trkpt lat="44.20527" lon="5.41006">
        <ele>779</ele>
        <time>2026-05-13T11:54:47.000Z</time>
      </trkpt>
      <trkpt lat="44.20528" lon="5.41004">
        <ele>778</ele>
        <time>2026-05-13T11:54:48.000Z</time>
      </trkpt>
      <trkpt lat="44.20528" lon="5.41002">
        <ele>779</ele>
        <time>2026-05-13T11:54:49.000Z</time>
      </trkpt>
      <trkpt lat="44.20528" lon="5.41">
        <ele>779</ele>
        <time>2026-05-13T11:54:50.000Z</time>
      </trkpt>
      <trkpt lat="44.20528" lon="5.40998">
        <ele>779</ele>
        <time>2026-05-13T11:54:51.000Z</time>
      </trkpt>
      <trkpt lat="44.20528" lon="5.40996">
        <ele>779</ele>
        <time>2026-05-13T11:54:52.000Z</time>
      </trkpt>
      <trkpt lat="44.20528" lon="5.40994">
        <ele>779</ele>
        <time>2026-05-13T11:54:53.000Z</time>
      </trkpt>
      <trkpt lat="44.20529" lon="5.40992">
        <ele>779</ele>
        <time>2026-05-13T11:54:54.000Z</time>
      </trkpt>
      <trkpt lat="44.20529" lon="5.4099">
        <ele>779</ele>
        <time>2026-05-13T11:54:55.000Z</time>
      </trkpt>
      <trkpt lat="44.20529" lon="5.40988">
        <ele>780</ele>
        <time>2026-05-13T11:54:56.000Z</time>
      </trkpt>
      <trkpt lat="44.20529" lon="5.40987">
        <ele>780</ele>
        <time>2026-05-13T11:54:57.000Z</time>
      </trkpt>
      <trkpt lat="44.20529" lon="5.40985">
        <ele>780</ele>
        <time>2026-05-13T11:54:58.000Z</time>
      </trkpt>
      <trkpt lat="44.2053" lon="5.40982">
        <ele>780</ele>
        <time>2026-05-13T11:54:59.000Z</time>
      </trkpt>
      <trkpt lat="44.2053" lon="5.4098">
        <ele>780</ele>
        <time>2026-05-13T11:55:00.000Z</time>
      </trkpt>
      <trkpt lat="44.20529" lon="5.40978">
        <ele>780</ele>
        <time>2026-05-13T11:55:01.000Z</time>
      </trkpt>
      <trkpt lat="44.2053" lon="5.40976">
        <ele>780</ele>
        <time>2026-05-13T11:55:02.000Z</time>
      </trkpt>
      <trkpt lat="44.2053" lon="5.40974">
        <ele>780</ele>
        <time>2026-05-13T11:55:03.000Z</time>
      </trkpt>
      <trkpt lat="44.2053" lon="5.40971">
        <ele>781</ele>
        <time>2026-05-13T11:55:04.000Z</time>
      </trkpt>
      <trkpt lat="44.20529" lon="5.40969">
        <ele>781</ele>
        <time>2026-05-13T11:55:05.000Z</time>
      </trkpt>
      <trkpt lat="44.20529" lon="5.40967">
        <ele>781</ele>
        <time>2026-05-13T11:55:06.000Z</time>
      </trkpt>
      <trkpt lat="44.20529" lon="5.40965">
        <ele>781</ele>
        <time>2026-05-13T11:55:07.000Z</time>
      </trkpt>
      <trkpt lat="44.20529" lon="5.40962">
        <ele>780</ele>
        <time>2026-05-13T11:55:08.000Z</time>
      </trkpt>
      <trkpt lat="44.2053" lon="5.4096">
        <ele>780</ele>
        <time>2026-05-13T11:55:09.000Z</time>
      </trkpt>
      <trkpt lat="44.2053" lon="5.40958">
        <ele>781</ele>
        <time>2026-05-13T11:55:10.000Z</time>
      </trkpt>
      <trkpt lat="44.2053" lon="5.40955">
        <ele>781</ele>
        <time>2026-05-13T11:55:11.000Z</time>
      </trkpt>
      <trkpt lat="44.2053" lon="5.40953">
        <ele>781</ele>
        <time>2026-05-13T11:55:12.000Z</time>
      </trkpt>
      <trkpt lat="44.2053" lon="5.40951">
        <ele>781</ele>
        <time>2026-05-13T11:55:13.000Z</time>
      </trkpt>
      <trkpt lat="44.2053" lon="5.40949">
        <ele>781</ele>
        <time>2026-05-13T11:55:14.000Z</time>
      </trkpt>
      <trkpt lat="44.20529" lon="5.40947">
        <ele>782</ele>
        <time>2026-05-13T11:55:15.000Z</time>
      </trkpt>
      <trkpt lat="44.20529" lon="5.40945">
        <ele>782</ele>
        <time>2026-05-13T11:55:16.000Z</time>
      </trkpt>
      <trkpt lat="44.20529" lon="5.40943">
        <ele>782</ele>
        <time>2026-05-13T11:55:17.000Z</time>
      </trkpt>
      <trkpt lat="44.20529" lon="5.40941">
        <ele>782</ele>
        <time>2026-05-13T11:55:18.000Z</time>
      </trkpt>
      <trkpt lat="44.2053" lon="5.40939">
        <ele>782</ele>
        <time>2026-05-13T11:55:19.000Z</time>
      </trkpt>
      <trkpt lat="44.2053" lon="5.40937">
        <ele>781</ele>
        <time>2026-05-13T11:55:20.000Z</time>
      </trkpt>
      <trkpt lat="44.2053" lon="5.40935">
        <ele>782</ele>
        <time>2026-05-13T11:55:21.000Z</time>
      </trkpt>
      <trkpt lat="44.20531" lon="5.40932">
        <ele>782</ele>
        <time>2026-05-13T11:55:22.000Z</time>
      </trkpt>
      <trkpt lat="44.20531" lon="5.40931">
        <ele>782</ele>
        <time>2026-05-13T11:55:23.000Z</time>
      </trkpt>
      <trkpt lat="44.20531" lon="5.40928">
        <ele>782</ele>
        <time>2026-05-13T11:55:24.000Z</time>
      </trkpt>
      <trkpt lat="44.2053" lon="5.40926">
        <ele>782</ele>
        <time>2026-05-13T11:55:25.000Z</time>
      </trkpt>
      <trkpt lat="44.2053" lon="5.40924">
        <ele>782</ele>
        <time>2026-05-13T11:55:26.000Z</time>
      </trkpt>
      <trkpt lat="44.2053" lon="5.40921">
        <ele>782</ele>
        <time>2026-05-13T11:55:27.000Z</time>
      </trkpt>
      <trkpt lat="44.2053" lon="5.40919">
        <ele>783</ele>
        <time>2026-05-13T11:55:28.000Z</time>
      </trkpt>
      <trkpt lat="44.2053" lon="5.40917">
        <ele>783</ele>
        <time>2026-05-13T11:55:29.000Z</time>
      </trkpt>
      <trkpt lat="44.20529" lon="5.40915">
        <ele>783</ele>
        <time>2026-05-13T11:55:30.000Z</time>
      </trkpt>
      <trkpt lat="44.20529" lon="5.40913">
        <ele>783</ele>
        <time>2026-05-13T11:55:31.000Z</time>
      </trkpt>
      <trkpt lat="44.20529" lon="5.4091">
        <ele>784</ele>
        <time>2026-05-13T11:55:32.000Z</time>
      </trkpt>
      <trkpt lat="44.20529" lon="5.40908">
        <ele>783</ele>
        <time>2026-05-13T11:55:33.000Z</time>
      </trkpt>
      <trkpt lat="44.20528" lon="5.40906">
        <ele>784</ele>
        <time>2026-05-13T11:55:34.000Z</time>
      </trkpt>
      <trkpt lat="44.20528" lon="5.40904">
        <ele>784</ele>
        <time>2026-05-13T11:55:35.000Z</time>
      </trkpt>
      <trkpt lat="44.20528" lon="5.40903">
        <ele>784</ele>
        <time>2026-05-13T11:55:36.000Z</time>
      </trkpt>
      <trkpt lat="44.20528" lon="5.40901">
        <ele>785</ele>
        <time>2026-05-13T11:55:37.000Z</time>
      </trkpt>
      <trkpt lat="44.20527" lon="5.40898">
        <ele>785</ele>
        <time>2026-05-13T11:55:38.000Z</time>
      </trkpt>
      <trkpt lat="44.20527" lon="5.40897">
        <ele>785</ele>
        <time>2026-05-13T11:55:39.000Z</time>
      </trkpt>
      <trkpt lat="44.20527" lon="5.40895">
        <ele>786</ele>
        <time>2026-05-13T11:55:40.000Z</time>
      </trkpt>
      <trkpt lat="44.20527" lon="5.40892">
        <ele>786</ele>
        <time>2026-05-13T11:55:41.000Z</time>
      </trkpt>
      <trkpt lat="44.20528" lon="5.4089">
        <ele>785</ele>
        <time>2026-05-13T11:55:42.000Z</time>
      </trkpt>
      <trkpt lat="44.20529" lon="5.40889">
        <ele>785</ele>
        <time>2026-05-13T11:55:43.000Z</time>
      </trkpt>
      <trkpt lat="44.20529" lon="5.40887">
        <ele>785</ele>
        <time>2026-05-13T11:55:44.000Z</time>
      </trkpt>
      <trkpt lat="44.2053" lon="5.40884">
        <ele>786</ele>
        <time>2026-05-13T11:55:45.000Z</time>
      </trkpt>
      <trkpt lat="44.2053" lon="5.40882">
        <ele>786</ele>
        <time>2026-05-13T11:55:46.000Z</time>
      </trkpt>
      <trkpt lat="44.20531" lon="5.40881">
        <ele>785</ele>
        <time>2026-05-13T11:55:47.000Z</time>
      </trkpt>
      <trkpt lat="44.20532" lon="5.4088">
        <ele>786</ele>
        <time>2026-05-13T11:55:48.000Z</time>
      </trkpt>
      <trkpt lat="44.20533" lon="5.40878">
        <ele>786</ele>
        <time>2026-05-13T11:55:49.000Z</time>
      </trkpt>
      <trkpt lat="44.20534" lon="5.40876">
        <ele>786</ele>
        <time>2026-05-13T11:55:50.000Z</time>
      </trkpt>
      <trkpt lat="44.20535" lon="5.40875">
        <ele>785</ele>
        <time>2026-05-13T11:55:51.000Z</time>
      </trkpt>
      <trkpt lat="44.20536" lon="5.40874">
        <ele>785</ele>
        <time>2026-05-13T11:55:52.000Z</time>
      </trkpt>
      <trkpt lat="44.20538" lon="5.40873">
        <ele>785</ele>
        <time>2026-05-13T11:55:53.000Z</time>
      </trkpt>
      <trkpt lat="44.20539" lon="5.40871">
        <ele>785</ele>
        <time>2026-05-13T11:55:54.000Z</time>
      </trkpt>
      <trkpt lat="44.20541" lon="5.4087">
        <ele>785</ele>
        <time>2026-05-13T11:55:55.000Z</time>
      </trkpt>
      <trkpt lat="44.20542" lon="5.40869">
        <ele>785</ele>
        <time>2026-05-13T11:55:56.000Z</time>
      </trkpt>
      <trkpt lat="44.20543" lon="5.40868">
        <ele>785</ele>
        <time>2026-05-13T11:55:57.000Z</time>
      </trkpt>
      <trkpt lat="44.20545" lon="5.40867">
        <ele>785</ele>
        <time>2026-05-13T11:55:58.000Z</time>
      </trkpt>
      <trkpt lat="44.20546" lon="5.40866">
        <ele>785</ele>
        <time>2026-05-13T11:55:59.000Z</time>
      </trkpt>
      <trkpt lat="44.20547" lon="5.40865">
        <ele>785</ele>
        <time>2026-05-13T11:56:00.000Z</time>
      </trkpt>
      <trkpt lat="44.20548" lon="5.40864">
        <ele>785</ele>
        <time>2026-05-13T11:56:01.000Z</time>
      </trkpt>
      <trkpt lat="44.2055" lon="5.40863">
        <ele>785</ele>
        <time>2026-05-13T11:56:02.000Z</time>
      </trkpt>
      <trkpt lat="44.20551" lon="5.40861">
        <ele>785</ele>
        <time>2026-05-13T11:56:03.000Z</time>
      </trkpt>
      <trkpt lat="44.20552" lon="5.40859">
        <ele>785</ele>
        <time>2026-05-13T11:56:04.000Z</time>
      </trkpt>
      <trkpt lat="44.20552" lon="5.40856">
        <ele>786</ele>
        <time>2026-05-13T11:56:05.000Z</time>
      </trkpt>
      <trkpt lat="44.20553" lon="5.40855">
        <ele>786</ele>
        <time>2026-05-13T11:56:06.000Z</time>
      </trkpt>
      <trkpt lat="44.20553" lon="5.40853">
        <ele>786</ele>
        <time>2026-05-13T11:56:07.000Z</time>
      </trkpt>
      <trkpt lat="44.20553" lon="5.40851">
        <ele>786</ele>
        <time>2026-05-13T11:56:08.000Z</time>
      </trkpt>
      <trkpt lat="44.20553" lon="5.40849">
        <ele>786</ele>
        <time>2026-05-13T11:56:09.000Z</time>
      </trkpt>
      <trkpt lat="44.20553" lon="5.40847">
        <ele>787</ele>
        <time>2026-05-13T11:56:10.000Z</time>
      </trkpt>
      <trkpt lat="44.20553" lon="5.40845">
        <ele>787</ele>
        <time>2026-05-13T11:56:11.000Z</time>
      </trkpt>
      <trkpt lat="44.20552" lon="5.40843">
        <ele>788</ele>
        <time>2026-05-13T11:56:12.000Z</time>
      </trkpt>
      <trkpt lat="44.20551" lon="5.40842">
        <ele>788</ele>
        <time>2026-05-13T11:56:13.000Z</time>
      </trkpt>
      <trkpt lat="44.20551" lon="5.4084">
        <ele>788</ele>
        <time>2026-05-13T11:56:14.000Z</time>
      </trkpt>
      <trkpt lat="44.2055" lon="5.40838">
        <ele>788</ele>
        <time>2026-05-13T11:56:15.000Z</time>
      </trkpt>
      <trkpt lat="44.20549" lon="5.40836">
        <ele>788</ele>
        <time>2026-05-13T11:56:16.000Z</time>
      </trkpt>
      <trkpt lat="44.20548" lon="5.40834">
        <ele>788</ele>
        <time>2026-05-13T11:56:17.000Z</time>
      </trkpt>
      <trkpt lat="44.20547" lon="5.40832">
        <ele>788</ele>
        <time>2026-05-13T11:56:18.000Z</time>
      </trkpt>
      <trkpt lat="44.20546" lon="5.40831">
        <ele>788</ele>
        <time>2026-05-13T11:56:19.000Z</time>
      </trkpt>
      <trkpt lat="44.20545" lon="5.40829">
        <ele>788</ele>
        <time>2026-05-13T11:56:20.000Z</time>
      </trkpt>
      <trkpt lat="44.20544" lon="5.40828">
        <ele>789</ele>
        <time>2026-05-13T11:56:21.000Z</time>
      </trkpt>
      <trkpt lat="44.20544" lon="5.40826">
        <ele>789</ele>
        <time>2026-05-13T11:56:22.000Z</time>
      </trkpt>
      <trkpt lat="44.20543" lon="5.40825">
        <ele>789</ele>
        <time>2026-05-13T11:56:23.000Z</time>
      </trkpt>
      <trkpt lat="44.20542" lon="5.40823">
        <ele>789</ele>
        <time>2026-05-13T11:56:24.000Z</time>
      </trkpt>
      <trkpt lat="44.20541" lon="5.4082">
        <ele>789</ele>
        <time>2026-05-13T11:56:25.000Z</time>
      </trkpt>
      <trkpt lat="44.20541" lon="5.40819">
        <ele>789</ele>
        <time>2026-05-13T11:56:26.000Z</time>
      </trkpt>
      <trkpt lat="44.2054" lon="5.40817">
        <ele>790</ele>
        <time>2026-05-13T11:56:27.000Z</time>
      </trkpt>
      <trkpt lat="44.20539" lon="5.40815">
        <ele>790</ele>
        <time>2026-05-13T11:56:28.000Z</time>
      </trkpt>
      <trkpt lat="44.20539" lon="5.40813">
        <ele>790</ele>
        <time>2026-05-13T11:56:29.000Z</time>
      </trkpt>
      <trkpt lat="44.20538" lon="5.40811">
        <ele>791</ele>
        <time>2026-05-13T11:56:30.000Z</time>
      </trkpt>
      <trkpt lat="44.20538" lon="5.40809">
        <ele>791</ele>
        <time>2026-05-13T11:56:31.000Z</time>
      </trkpt>
      <trkpt lat="44.20538" lon="5.40807">
        <ele>791</ele>
        <time>2026-05-13T11:56:32.000Z</time>
      </trkpt>
      <trkpt lat="44.20537" lon="5.40805">
        <ele>791</ele>
        <time>2026-05-13T11:56:33.000Z</time>
      </trkpt>
      <trkpt lat="44.20537" lon="5.40803">
        <ele>792</ele>
        <time>2026-05-13T11:56:34.000Z</time>
      </trkpt>
      <trkpt lat="44.20537" lon="5.40801">
        <ele>791</ele>
        <time>2026-05-13T11:56:35.000Z</time>
      </trkpt>
      <trkpt lat="44.20536" lon="5.40799">
        <ele>791</ele>
        <time>2026-05-13T11:56:36.000Z</time>
      </trkpt>
      <trkpt lat="44.20536" lon="5.40797">
        <ele>791</ele>
        <time>2026-05-13T11:56:37.000Z</time>
      </trkpt>
      <trkpt lat="44.20536" lon="5.40795">
        <ele>791</ele>
        <time>2026-05-13T11:56:38.000Z</time>
      </trkpt>
      <trkpt lat="44.20537" lon="5.40794">
        <ele>791</ele>
        <time>2026-05-13T11:56:39.000Z</time>
      </trkpt>
      <trkpt lat="44.20537" lon="5.40792">
        <ele>791</ele>
        <time>2026-05-13T11:56:40.000Z</time>
      </trkpt>
      <trkpt lat="44.20538" lon="5.4079">
        <ele>791</ele>
        <time>2026-05-13T11:56:41.000Z</time>
      </trkpt>
      <trkpt lat="44.20539" lon="5.40788">
        <ele>791</ele>
        <time>2026-05-13T11:56:42.000Z</time>
      </trkpt>
      <trkpt lat="44.20539" lon="5.40786">
        <ele>791</ele>
        <time>2026-05-13T11:56:43.000Z</time>
      </trkpt>
      <trkpt lat="44.20539" lon="5.40785">
        <ele>792</ele>
        <time>2026-05-13T11:56:44.000Z</time>
      </trkpt>
      <trkpt lat="44.20541" lon="5.40784">
        <ele>792</ele>
        <time>2026-05-13T11:56:45.000Z</time>
      </trkpt>
      <trkpt lat="44.20542" lon="5.40783">
        <ele>792</ele>
        <time>2026-05-13T11:56:46.000Z</time>
      </trkpt>
      <trkpt lat="44.20543" lon="5.40782">
        <ele>792</ele>
        <time>2026-05-13T11:56:47.000Z</time>
      </trkpt>
      <trkpt lat="44.20544" lon="5.40781">
        <ele>792</ele>
        <time>2026-05-13T11:56:48.000Z</time>
      </trkpt>
      <trkpt lat="44.20546" lon="5.4078">
        <ele>792</ele>
        <time>2026-05-13T11:56:49.000Z</time>
      </trkpt>
      <trkpt lat="44.20547" lon="5.40779">
        <ele>792</ele>
        <time>2026-05-13T11:56:50.000Z</time>
      </trkpt>
      <trkpt lat="44.20549" lon="5.40778">
        <ele>792</ele>
        <time>2026-05-13T11:56:51.000Z</time>
      </trkpt>
      <trkpt lat="44.2055" lon="5.40777">
        <ele>793</ele>
        <time>2026-05-13T11:56:52.000Z</time>
      </trkpt>
      <trkpt lat="44.20551" lon="5.40776">
        <ele>792</ele>
        <time>2026-05-13T11:56:53.000Z</time>
      </trkpt>
      <trkpt lat="44.20553" lon="5.40775">
        <ele>793</ele>
        <time>2026-05-13T11:56:54.000Z</time>
      </trkpt>
      <trkpt lat="44.20554" lon="5.40773">
        <ele>793</ele>
        <time>2026-05-13T11:56:55.000Z</time>
      </trkpt>
      <trkpt lat="44.20555" lon="5.40773">
        <ele>793</ele>
        <time>2026-05-13T11:56:56.000Z</time>
      </trkpt>
      <trkpt lat="44.20557" lon="5.40771">
        <ele>793</ele>
        <time>2026-05-13T11:56:57.000Z</time>
      </trkpt>
      <trkpt lat="44.20557" lon="5.4077">
        <ele>793</ele>
        <time>2026-05-13T11:56:58.000Z</time>
      </trkpt>
      <trkpt lat="44.20558" lon="5.40769">
        <ele>793</ele>
        <time>2026-05-13T11:56:59.000Z</time>
      </trkpt>
      <trkpt lat="44.2056" lon="5.40768">
        <ele>793</ele>
        <time>2026-05-13T11:57:00.000Z</time>
      </trkpt>
      <trkpt lat="44.20561" lon="5.40766">
        <ele>793</ele>
        <time>2026-05-13T11:57:01.000Z</time>
      </trkpt>
      <trkpt lat="44.20562" lon="5.40765">
        <ele>793</ele>
        <time>2026-05-13T11:57:02.000Z</time>
      </trkpt>
      <trkpt lat="44.20563" lon="5.40763">
        <ele>793</ele>
        <time>2026-05-13T11:57:03.000Z</time>
      </trkpt>
      <trkpt lat="44.20564" lon="5.40762">
        <ele>793</ele>
        <time>2026-05-13T11:57:04.000Z</time>
      </trkpt>
      <trkpt lat="44.20565" lon="5.4076">
        <ele>793</ele>
        <time>2026-05-13T11:57:05.000Z</time>
      </trkpt>
      <trkpt lat="44.20567" lon="5.40759">
        <ele>793</ele>
        <time>2026-05-13T11:57:06.000Z</time>
      </trkpt>
      <trkpt lat="44.20568" lon="5.40757">
        <ele>793</ele>
        <time>2026-05-13T11:57:07.000Z</time>
      </trkpt>
      <trkpt lat="44.20569" lon="5.40756">
        <ele>793</ele>
        <time>2026-05-13T11:57:08.000Z</time>
      </trkpt>
      <trkpt lat="44.2057" lon="5.40756">
        <ele>794</ele>
        <time>2026-05-13T11:57:09.000Z</time>
      </trkpt>
      <trkpt lat="44.20572" lon="5.40756">
        <ele>794</ele>
        <time>2026-05-13T11:57:10.000Z</time>
      </trkpt>
      <trkpt lat="44.20573" lon="5.40756">
        <ele>794</ele>
        <time>2026-05-13T11:57:11.000Z</time>
      </trkpt>
      <trkpt lat="44.20575" lon="5.40756">
        <ele>795</ele>
        <time>2026-05-13T11:57:12.000Z</time>
      </trkpt>
      <trkpt lat="44.20577" lon="5.40756">
        <ele>794</ele>
        <time>2026-05-13T11:57:13.000Z</time>
      </trkpt>
      <trkpt lat="44.20579" lon="5.40756">
        <ele>794</ele>
        <time>2026-05-13T11:57:14.000Z</time>
      </trkpt>
      <trkpt lat="44.20581" lon="5.40756">
        <ele>794</ele>
        <time>2026-05-13T11:57:15.000Z</time>
      </trkpt>
      <trkpt lat="44.20583" lon="5.40756">
        <ele>794</ele>
        <time>2026-05-13T11:57:16.000Z</time>
      </trkpt>
      <trkpt lat="44.20585" lon="5.40756">
        <ele>794</ele>
        <time>2026-05-13T11:57:17.000Z</time>
      </trkpt>
      <trkpt lat="44.20587" lon="5.40756">
        <ele>794</ele>
        <time>2026-05-13T11:57:18.000Z</time>
      </trkpt>
      <trkpt lat="44.2059" lon="5.40756">
        <ele>794</ele>
        <time>2026-05-13T11:57:19.000Z</time>
      </trkpt>
      <trkpt lat="44.20592" lon="5.40756">
        <ele>794</ele>
        <time>2026-05-13T11:57:20.000Z</time>
      </trkpt>
      <trkpt lat="44.20594" lon="5.40756">
        <ele>794</ele>
        <time>2026-05-13T11:57:21.000Z</time>
      </trkpt>
      <trkpt lat="44.20596" lon="5.40756">
        <ele>794</ele>
        <time>2026-05-13T11:57:22.000Z</time>
      </trkpt>
      <trkpt lat="44.20598" lon="5.40755">
        <ele>795</ele>
        <time>2026-05-13T11:57:23.000Z</time>
      </trkpt>
      <trkpt lat="44.206" lon="5.40755">
        <ele>795</ele>
        <time>2026-05-13T11:57:24.000Z</time>
      </trkpt>
      <trkpt lat="44.20602" lon="5.40754">
        <ele>795</ele>
        <time>2026-05-13T11:57:25.000Z</time>
      </trkpt>
      <trkpt lat="44.20604" lon="5.40753">
        <ele>795</ele>
        <time>2026-05-13T11:57:26.000Z</time>
      </trkpt>
      <trkpt lat="44.20606" lon="5.40752">
        <ele>795</ele>
        <time>2026-05-13T11:57:27.000Z</time>
      </trkpt>
      <trkpt lat="44.20608" lon="5.4075">
        <ele>796</ele>
        <time>2026-05-13T11:57:28.000Z</time>
      </trkpt>
      <trkpt lat="44.2061" lon="5.40749">
        <ele>796</ele>
        <time>2026-05-13T11:57:29.000Z</time>
      </trkpt>
      <trkpt lat="44.20611" lon="5.40748">
        <ele>796</ele>
        <time>2026-05-13T11:57:30.000Z</time>
      </trkpt>
      <trkpt lat="44.20613" lon="5.40746">
        <ele>796</ele>
        <time>2026-05-13T11:57:31.000Z</time>
      </trkpt>
      <trkpt lat="44.20614" lon="5.40744">
        <ele>796</ele>
        <time>2026-05-13T11:57:32.000Z</time>
      </trkpt>
      <trkpt lat="44.20616" lon="5.40743">
        <ele>796</ele>
        <time>2026-05-13T11:57:33.000Z</time>
      </trkpt>
      <trkpt lat="44.20617" lon="5.40741">
        <ele>796</ele>
        <time>2026-05-13T11:57:34.000Z</time>
      </trkpt>
      <trkpt lat="44.20619" lon="5.40739">
        <ele>796</ele>
        <time>2026-05-13T11:57:35.000Z</time>
      </trkpt>
      <trkpt lat="44.20621" lon="5.40737">
        <ele>796</ele>
        <time>2026-05-13T11:57:36.000Z</time>
      </trkpt>
      <trkpt lat="44.20622" lon="5.40735">
        <ele>796</ele>
        <time>2026-05-13T11:57:37.000Z</time>
      </trkpt>
      <trkpt lat="44.20623" lon="5.40732">
        <ele>796</ele>
        <time>2026-05-13T11:57:38.000Z</time>
      </trkpt>
      <trkpt lat="44.20625" lon="5.4073">
        <ele>796</ele>
        <time>2026-05-13T11:57:39.000Z</time>
      </trkpt>
      <trkpt lat="44.20626" lon="5.40728">
        <ele>797</ele>
        <time>2026-05-13T11:57:40.000Z</time>
      </trkpt>
      <trkpt lat="44.20627" lon="5.40725">
        <ele>797</ele>
        <time>2026-05-13T11:57:41.000Z</time>
      </trkpt>
      <trkpt lat="44.20628" lon="5.40723">
        <ele>796</ele>
        <time>2026-05-13T11:57:42.000Z</time>
      </trkpt>
      <trkpt lat="44.20629" lon="5.40721">
        <ele>796</ele>
        <time>2026-05-13T11:57:43.000Z</time>
      </trkpt>
      <trkpt lat="44.2063" lon="5.40718">
        <ele>796</ele>
        <time>2026-05-13T11:57:44.000Z</time>
      </trkpt>
      <trkpt lat="44.20632" lon="5.40716">
        <ele>796</ele>
        <time>2026-05-13T11:57:45.000Z</time>
      </trkpt>
      <trkpt lat="44.20633" lon="5.40713">
        <ele>796</ele>
        <time>2026-05-13T11:57:46.000Z</time>
      </trkpt>
      <trkpt lat="44.20634" lon="5.40711">
        <ele>797</ele>
        <time>2026-05-13T11:57:47.000Z</time>
      </trkpt>
      <trkpt lat="44.20635" lon="5.40708">
        <ele>796</ele>
        <time>2026-05-13T11:57:48.000Z</time>
      </trkpt>
      <trkpt lat="44.20635" lon="5.40705">
        <ele>796</ele>
        <time>2026-05-13T11:57:49.000Z</time>
      </trkpt>
      <trkpt lat="44.20637" lon="5.40703">
        <ele>797</ele>
        <time>2026-05-13T11:57:50.000Z</time>
      </trkpt>
      <trkpt lat="44.20638" lon="5.407">
        <ele>797</ele>
        <time>2026-05-13T11:57:51.000Z</time>
      </trkpt>
      <trkpt lat="44.20639" lon="5.40697">
        <ele>797</ele>
        <time>2026-05-13T11:57:52.000Z</time>
      </trkpt>
      <trkpt lat="44.2064" lon="5.40694">
        <ele>797</ele>
        <time>2026-05-13T11:57:53.000Z</time>
      </trkpt>
      <trkpt lat="44.20642" lon="5.40691">
        <ele>797</ele>
        <time>2026-05-13T11:57:54.000Z</time>
      </trkpt>
      <trkpt lat="44.20644" lon="5.40689">
        <ele>797</ele>
        <time>2026-05-13T11:57:55.000Z</time>
      </trkpt>
      <trkpt lat="44.20645" lon="5.40687">
        <ele>797</ele>
        <time>2026-05-13T11:57:56.000Z</time>
      </trkpt>
      <trkpt lat="44.20647" lon="5.40685">
        <ele>797</ele>
        <time>2026-05-13T11:57:57.000Z</time>
      </trkpt>
      <trkpt lat="44.20649" lon="5.40684">
        <ele>797</ele>
        <time>2026-05-13T11:57:58.000Z</time>
      </trkpt>
      <trkpt lat="44.20651" lon="5.40683">
        <ele>797</ele>
        <time>2026-05-13T11:57:59.000Z</time>
      </trkpt>
      <trkpt lat="44.20653" lon="5.40682">
        <ele>797</ele>
        <time>2026-05-13T11:58:00.000Z</time>
      </trkpt>
      <trkpt lat="44.20655" lon="5.40683">
        <ele>798</ele>
        <time>2026-05-13T11:58:01.000Z</time>
      </trkpt>
      <trkpt lat="44.20657" lon="5.40683">
        <ele>798</ele>
        <time>2026-05-13T11:58:02.000Z</time>
      </trkpt>
      <trkpt lat="44.20659" lon="5.40685">
        <ele>798</ele>
        <time>2026-05-13T11:58:03.000Z</time>
      </trkpt>
      <trkpt lat="44.20661" lon="5.40686">
        <ele>798</ele>
        <time>2026-05-13T11:58:04.000Z</time>
      </trkpt>
      <trkpt lat="44.20663" lon="5.40688">
        <ele>798</ele>
        <time>2026-05-13T11:58:05.000Z</time>
      </trkpt>
      <trkpt lat="44.20665" lon="5.4069">
        <ele>799</ele>
        <time>2026-05-13T11:58:06.000Z</time>
      </trkpt>
      <trkpt lat="44.20667" lon="5.40693">
        <ele>799</ele>
        <time>2026-05-13T11:58:07.000Z</time>
      </trkpt>
      <trkpt lat="44.20669" lon="5.40695">
        <ele>799</ele>
        <time>2026-05-13T11:58:08.000Z</time>
      </trkpt>
      <trkpt lat="44.20672" lon="5.40697">
        <ele>798</ele>
        <time>2026-05-13T11:58:09.000Z</time>
      </trkpt>
      <trkpt lat="44.20674" lon="5.40699">
        <ele>799</ele>
        <time>2026-05-13T11:58:10.000Z</time>
      </trkpt>
      <trkpt lat="44.20676" lon="5.40702">
        <ele>799</ele>
        <time>2026-05-13T11:58:11.000Z</time>
      </trkpt>
      <trkpt lat="44.20679" lon="5.40704">
        <ele>799</ele>
        <time>2026-05-13T11:58:12.000Z</time>
      </trkpt>
      <trkpt lat="44.20681" lon="5.40707">
        <ele>799</ele>
        <time>2026-05-13T11:58:13.000Z</time>
      </trkpt>
      <trkpt lat="44.20683" lon="5.4071">
        <ele>799</ele>
        <time>2026-05-13T11:58:14.000Z</time>
      </trkpt>
      <trkpt lat="44.20685" lon="5.40712">
        <ele>799</ele>
        <time>2026-05-13T11:58:15.000Z</time>
      </trkpt>
      <trkpt lat="44.20686" lon="5.40715">
        <ele>799</ele>
        <time>2026-05-13T11:58:16.000Z</time>
      </trkpt>
      <trkpt lat="44.20688" lon="5.40717">
        <ele>799</ele>
        <time>2026-05-13T11:58:17.000Z</time>
      </trkpt>
      <trkpt lat="44.20689" lon="5.4072">
        <ele>799</ele>
        <time>2026-05-13T11:58:18.000Z</time>
      </trkpt>
      <trkpt lat="44.20691" lon="5.40723">
        <ele>799</ele>
        <time>2026-05-13T11:58:19.000Z</time>
      </trkpt>
      <trkpt lat="44.20692" lon="5.40727">
        <ele>799</ele>
        <time>2026-05-13T11:58:20.000Z</time>
      </trkpt>
      <trkpt lat="44.20693" lon="5.4073">
        <ele>799</ele>
        <time>2026-05-13T11:58:21.000Z</time>
      </trkpt>
      <trkpt lat="44.20694" lon="5.40733">
        <ele>799</ele>
        <time>2026-05-13T11:58:22.000Z</time>
      </trkpt>
      <trkpt lat="44.20695" lon="5.40735">
        <ele>798</ele>
        <time>2026-05-13T11:58:23.000Z</time>
      </trkpt>
      <trkpt lat="44.20696" lon="5.40738">
        <ele>798</ele>
        <time>2026-05-13T11:58:24.000Z</time>
      </trkpt>
      <trkpt lat="44.20697" lon="5.40741">
        <ele>797</ele>
        <time>2026-05-13T11:58:25.000Z</time>
      </trkpt>
      <trkpt lat="44.20698" lon="5.40744">
        <ele>798</ele>
        <time>2026-05-13T11:58:26.000Z</time>
      </trkpt>
      <trkpt lat="44.20699" lon="5.40746">
        <ele>798</ele>
        <time>2026-05-13T11:58:27.000Z</time>
      </trkpt>
      <trkpt lat="44.20699" lon="5.40749">
        <ele>798</ele>
        <time>2026-05-13T11:58:28.000Z</time>
      </trkpt>
      <trkpt lat="44.207" lon="5.40752">
        <ele>798</ele>
        <time>2026-05-13T11:58:29.000Z</time>
      </trkpt>
      <trkpt lat="44.20702" lon="5.40755">
        <ele>798</ele>
        <time>2026-05-13T11:58:30.000Z</time>
      </trkpt>
      <trkpt lat="44.20703" lon="5.40759">
        <ele>799</ele>
        <time>2026-05-13T11:58:31.000Z</time>
      </trkpt>
      <trkpt lat="44.20705" lon="5.40761">
        <ele>799</ele>
        <time>2026-05-13T11:58:32.000Z</time>
      </trkpt>
      <trkpt lat="44.20707" lon="5.40763">
        <ele>799</ele>
        <time>2026-05-13T11:58:33.000Z</time>
      </trkpt>
      <trkpt lat="44.2071" lon="5.40765">
        <ele>799</ele>
        <time>2026-05-13T11:58:34.000Z</time>
      </trkpt>
      <trkpt lat="44.20713" lon="5.40765">
        <ele>799</ele>
        <time>2026-05-13T11:58:35.000Z</time>
      </trkpt>
      <trkpt lat="44.20716" lon="5.40766">
        <ele>799</ele>
        <time>2026-05-13T11:58:36.000Z</time>
      </trkpt>
      <trkpt lat="44.20719" lon="5.40766">
        <ele>799</ele>
        <time>2026-05-13T11:58:37.000Z</time>
      </trkpt>
      <trkpt lat="44.20721" lon="5.40767">
        <ele>800</ele>
        <time>2026-05-13T11:58:38.000Z</time>
      </trkpt>
      <trkpt lat="44.20724" lon="5.40767">
        <ele>800</ele>
        <time>2026-05-13T11:58:39.000Z</time>
      </trkpt>
      <trkpt lat="44.20726" lon="5.40767">
        <ele>799</ele>
        <time>2026-05-13T11:58:40.000Z</time>
      </trkpt>
      <trkpt lat="44.20729" lon="5.40767">
        <ele>800</ele>
        <time>2026-05-13T11:58:41.000Z</time>
      </trkpt>
      <trkpt lat="44.20731" lon="5.40767">
        <ele>800</ele>
        <time>2026-05-13T11:58:42.000Z</time>
      </trkpt>
      <trkpt lat="44.20733" lon="5.40767">
        <ele>800</ele>
        <time>2026-05-13T11:58:43.000Z</time>
      </trkpt>
      <trkpt lat="44.20735" lon="5.40767">
        <ele>800</ele>
        <time>2026-05-13T11:58:44.000Z</time>
      </trkpt>
      <trkpt lat="44.20738" lon="5.40768">
        <ele>800</ele>
        <time>2026-05-13T11:58:45.000Z</time>
      </trkpt>
      <trkpt lat="44.2074" lon="5.40769">
        <ele>801</ele>
        <time>2026-05-13T11:58:46.000Z</time>
      </trkpt>
      <trkpt lat="44.20743" lon="5.40769">
        <ele>801</ele>
        <time>2026-05-13T11:58:47.000Z</time>
      </trkpt>
      <trkpt lat="44.20745" lon="5.4077">
        <ele>801</ele>
        <time>2026-05-13T11:58:48.000Z</time>
      </trkpt>
      <trkpt lat="44.20747" lon="5.40771">
        <ele>801</ele>
        <time>2026-05-13T11:58:49.000Z</time>
      </trkpt>
      <trkpt lat="44.20749" lon="5.40773">
        <ele>801</ele>
        <time>2026-05-13T11:58:50.000Z</time>
      </trkpt>
      <trkpt lat="44.20751" lon="5.40774">
        <ele>801</ele>
        <time>2026-05-13T11:58:51.000Z</time>
      </trkpt>
      <trkpt lat="44.20753" lon="5.40774">
        <ele>801</ele>
        <time>2026-05-13T11:58:52.000Z</time>
      </trkpt>
      <trkpt lat="44.20755" lon="5.40774">
        <ele>802</ele>
        <time>2026-05-13T11:58:53.000Z</time>
      </trkpt>
      <trkpt lat="44.20758" lon="5.40775">
        <ele>802</ele>
        <time>2026-05-13T11:58:54.000Z</time>
      </trkpt>
      <trkpt lat="44.2076" lon="5.40775">
        <ele>802</ele>
        <time>2026-05-13T11:58:55.000Z</time>
      </trkpt>
      <trkpt lat="44.20762" lon="5.40775">
        <ele>802</ele>
        <time>2026-05-13T11:58:56.000Z</time>
      </trkpt>
      <trkpt lat="44.20765" lon="5.40775">
        <ele>802</ele>
        <time>2026-05-13T11:58:57.000Z</time>
      </trkpt>
      <trkpt lat="44.20767" lon="5.40775">
        <ele>802</ele>
        <time>2026-05-13T11:58:58.000Z</time>
      </trkpt>
      <trkpt lat="44.2077" lon="5.40774">
        <ele>802</ele>
        <time>2026-05-13T11:58:59.000Z</time>
      </trkpt>
      <trkpt lat="44.20772" lon="5.40773">
        <ele>803</ele>
        <time>2026-05-13T11:59:00.000Z</time>
      </trkpt>
      <trkpt lat="44.20774" lon="5.4077">
        <ele>803</ele>
        <time>2026-05-13T11:59:01.000Z</time>
      </trkpt>
      <trkpt lat="44.20776" lon="5.40768">
        <ele>803</ele>
        <time>2026-05-13T11:59:02.000Z</time>
      </trkpt>
      <trkpt lat="44.20778" lon="5.40766">
        <ele>804</ele>
        <time>2026-05-13T11:59:03.000Z</time>
      </trkpt>
      <trkpt lat="44.2078" lon="5.40763">
        <ele>804</ele>
        <time>2026-05-13T11:59:04.000Z</time>
      </trkpt>
      <trkpt lat="44.20781" lon="5.4076">
        <ele>805</ele>
        <time>2026-05-13T11:59:05.000Z</time>
      </trkpt>
      <trkpt lat="44.20783" lon="5.40758">
        <ele>805</ele>
        <time>2026-05-13T11:59:06.000Z</time>
      </trkpt>
      <trkpt lat="44.20784" lon="5.40755">
        <ele>805</ele>
        <time>2026-05-13T11:59:07.000Z</time>
      </trkpt>
      <trkpt lat="44.20785" lon="5.40751">
        <ele>805</ele>
        <time>2026-05-13T11:59:08.000Z</time>
      </trkpt>
      <trkpt lat="44.20785" lon="5.40748">
        <ele>805</ele>
        <time>2026-05-13T11:59:09.000Z</time>
      </trkpt>
      <trkpt lat="44.20785" lon="5.40745">
        <ele>805</ele>
        <time>2026-05-13T11:59:10.000Z</time>
      </trkpt>
      <trkpt lat="44.20786" lon="5.40743">
        <ele>805</ele>
        <time>2026-05-13T11:59:11.000Z</time>
      </trkpt>
      <trkpt lat="44.20787" lon="5.40741">
        <ele>805</ele>
        <time>2026-05-13T11:59:12.000Z</time>
      </trkpt>
      <trkpt lat="44.20788" lon="5.40738">
        <ele>805</ele>
        <time>2026-05-13T11:59:13.000Z</time>
      </trkpt>
      <trkpt lat="44.20788" lon="5.40736">
        <ele>805</ele>
        <time>2026-05-13T11:59:14.000Z</time>
      </trkpt>
      <trkpt lat="44.20789" lon="5.40733">
        <ele>805</ele>
        <time>2026-05-13T11:59:15.000Z</time>
      </trkpt>
      <trkpt lat="44.2079" lon="5.4073">
        <ele>805</ele>
        <time>2026-05-13T11:59:16.000Z</time>
      </trkpt>
      <trkpt lat="44.20791" lon="5.40728">
        <ele>805</ele>
        <time>2026-05-13T11:59:17.000Z</time>
      </trkpt>
      <trkpt lat="44.20792" lon="5.40726">
        <ele>805</ele>
        <time>2026-05-13T11:59:18.000Z</time>
      </trkpt>
      <trkpt lat="44.20793" lon="5.40723">
        <ele>805</ele>
        <time>2026-05-13T11:59:19.000Z</time>
      </trkpt>
      <trkpt lat="44.20794" lon="5.40721">
        <ele>805</ele>
        <time>2026-05-13T11:59:20.000Z</time>
      </trkpt>
      <trkpt lat="44.20795" lon="5.40718">
        <ele>804</ele>
        <time>2026-05-13T11:59:21.000Z</time>
      </trkpt>
      <trkpt lat="44.20795" lon="5.40716">
        <ele>805</ele>
        <time>2026-05-13T11:59:22.000Z</time>
      </trkpt>
      <trkpt lat="44.20796" lon="5.40714">
        <ele>805</ele>
        <time>2026-05-13T11:59:23.000Z</time>
      </trkpt>
      <trkpt lat="44.20797" lon="5.40712">
        <ele>805</ele>
        <time>2026-05-13T11:59:24.000Z</time>
      </trkpt>
      <trkpt lat="44.20799" lon="5.40711">
        <ele>805</ele>
        <time>2026-05-13T11:59:25.000Z</time>
      </trkpt>
      <trkpt lat="44.208" lon="5.40709">
        <ele>806</ele>
        <time>2026-05-13T11:59:26.000Z</time>
      </trkpt>
      <trkpt lat="44.20801" lon="5.40707">
        <ele>806</ele>
        <time>2026-05-13T11:59:27.000Z</time>
      </trkpt>
      <trkpt lat="44.20802" lon="5.40706">
        <ele>806</ele>
        <time>2026-05-13T11:59:28.000Z</time>
      </trkpt>
      <trkpt lat="44.20804" lon="5.40705">
        <ele>806</ele>
        <time>2026-05-13T11:59:29.000Z</time>
      </trkpt>
      <trkpt lat="44.20806" lon="5.40704">
        <ele>806</ele>
        <time>2026-05-13T11:59:30.000Z</time>
      </trkpt>
      <trkpt lat="44.20808" lon="5.40703">
        <ele>807</ele>
        <time>2026-05-13T11:59:31.000Z</time>
      </trkpt>
      <trkpt lat="44.20809" lon="5.40703">
        <ele>807</ele>
        <time>2026-05-13T11:59:32.000Z</time>
      </trkpt>
      <trkpt lat="44.2081" lon="5.40702">
        <ele>807</ele>
        <time>2026-05-13T11:59:33.000Z</time>
      </trkpt>
      <trkpt lat="44.20812" lon="5.40701">
        <ele>807</ele>
        <time>2026-05-13T11:59:34.000Z</time>
      </trkpt>
      <trkpt lat="44.20814" lon="5.40701">
        <ele>807</ele>
        <time>2026-05-13T11:59:35.000Z</time>
      </trkpt>
      <trkpt lat="44.20815" lon="5.40701">
        <ele>807</ele>
        <time>2026-05-13T11:59:36.000Z</time>
      </trkpt>
      <trkpt lat="44.20817" lon="5.40701">
        <ele>808</ele>
        <time>2026-05-13T11:59:37.000Z</time>
      </trkpt>
      <trkpt lat="44.20819" lon="5.40701">
        <ele>808</ele>
        <time>2026-05-13T11:59:38.000Z</time>
      </trkpt>
      <trkpt lat="44.20821" lon="5.40701">
        <ele>808</ele>
        <time>2026-05-13T11:59:39.000Z</time>
      </trkpt>
      <trkpt lat="44.20823" lon="5.40701">
        <ele>808</ele>
        <time>2026-05-13T11:59:40.000Z</time>
      </trkpt>
      <trkpt lat="44.20824" lon="5.40701">
        <ele>808</ele>
        <time>2026-05-13T11:59:41.000Z</time>
      </trkpt>
      <trkpt lat="44.20826" lon="5.40701">
        <ele>809</ele>
        <time>2026-05-13T11:59:42.000Z</time>
      </trkpt>
      <trkpt lat="44.20828" lon="5.40702">
        <ele>808</ele>
        <time>2026-05-13T11:59:43.000Z</time>
      </trkpt>
      <trkpt lat="44.20829" lon="5.40703">
        <ele>809</ele>
        <time>2026-05-13T11:59:44.000Z</time>
      </trkpt>
      <trkpt lat="44.20831" lon="5.40703">
        <ele>809</ele>
        <time>2026-05-13T11:59:45.000Z</time>
      </trkpt>
      <trkpt lat="44.20832" lon="5.40704">
        <ele>809</ele>
        <time>2026-05-13T11:59:46.000Z</time>
      </trkpt>
      <trkpt lat="44.20834" lon="5.40704">
        <ele>809</ele>
        <time>2026-05-13T11:59:47.000Z</time>
      </trkpt>
      <trkpt lat="44.20835" lon="5.40705">
        <ele>809</ele>
        <time>2026-05-13T11:59:48.000Z</time>
      </trkpt>
      <trkpt lat="44.20837" lon="5.40705">
        <ele>810</ele>
        <time>2026-05-13T11:59:49.000Z</time>
      </trkpt>
      <trkpt lat="44.20838" lon="5.40706">
        <ele>810</ele>
        <time>2026-05-13T11:59:50.000Z</time>
      </trkpt>
      <trkpt lat="44.2084" lon="5.40706">
        <ele>810</ele>
        <time>2026-05-13T11:59:51.000Z</time>
      </trkpt>
      <trkpt lat="44.20841" lon="5.40706">
        <ele>810</ele>
        <time>2026-05-13T11:59:52.000Z</time>
      </trkpt>
      <trkpt lat="44.20843" lon="5.40705">
        <ele>810</ele>
        <time>2026-05-13T11:59:53.000Z</time>
      </trkpt>
      <trkpt lat="44.20844" lon="5.40705">
        <ele>810</ele>
        <time>2026-05-13T11:59:54.000Z</time>
      </trkpt>
      <trkpt lat="44.20846" lon="5.40704">
        <ele>810</ele>
        <time>2026-05-13T11:59:55.000Z</time>
      </trkpt>
      <trkpt lat="44.20848" lon="5.40703">
        <ele>810</ele>
        <time>2026-05-13T11:59:56.000Z</time>
      </trkpt>
      <trkpt lat="44.2085" lon="5.40702">
        <ele>811</ele>
        <time>2026-05-13T11:59:57.000Z</time>
      </trkpt>
      <trkpt lat="44.20851" lon="5.407">
        <ele>811</ele>
        <time>2026-05-13T11:59:58.000Z</time>
      </trkpt>
      <trkpt lat="44.20852" lon="5.40698">
        <ele>811</ele>
        <time>2026-05-13T11:59:59.000Z</time>
      </trkpt>
      <trkpt lat="44.20852" lon="5.40696">
        <ele>812</ele>
        <time>2026-05-13T12:00:00.000Z</time>
      </trkpt>
      <trkpt lat="44.20851" lon="5.40693">
        <ele>811</ele>
        <time>2026-05-13T12:00:01.000Z</time>
      </trkpt>
      <trkpt lat="44.2085" lon="5.40691">
        <ele>811</ele>
        <time>2026-05-13T12:00:02.000Z</time>
      </trkpt>
      <trkpt lat="44.20849" lon="5.40688">
        <ele>811</ele>
        <time>2026-05-13T12:00:03.000Z</time>
      </trkpt>
      <trkpt lat="44.20848" lon="5.40686">
        <ele>811</ele>
        <time>2026-05-13T12:00:04.000Z</time>
      </trkpt>
      <trkpt lat="44.20847" lon="5.40684">
        <ele>811</ele>
        <time>2026-05-13T12:00:05.000Z</time>
      </trkpt>
      <trkpt lat="44.20845" lon="5.40682">
        <ele>811</ele>
        <time>2026-05-13T12:00:06.000Z</time>
      </trkpt>
      <trkpt lat="44.20844" lon="5.4068">
        <ele>811</ele>
        <time>2026-05-13T12:00:07.000Z</time>
      </trkpt>
      <trkpt lat="44.20842" lon="5.40678">
        <ele>811</ele>
        <time>2026-05-13T12:00:08.000Z</time>
      </trkpt>
      <trkpt lat="44.2084" lon="5.40676">
        <ele>811</ele>
        <time>2026-05-13T12:00:09.000Z</time>
      </trkpt>
      <trkpt lat="44.20838" lon="5.40675">
        <ele>811</ele>
        <time>2026-05-13T12:00:10.000Z</time>
      </trkpt>
      <trkpt lat="44.20837" lon="5.40674">
        <ele>810</ele>
        <time>2026-05-13T12:00:11.000Z</time>
      </trkpt>
      <trkpt lat="44.20835" lon="5.40672">
        <ele>811</ele>
        <time>2026-05-13T12:00:12.000Z</time>
      </trkpt>
      <trkpt lat="44.20834" lon="5.40671">
        <ele>811</ele>
        <time>2026-05-13T12:00:13.000Z</time>
      </trkpt>
      <trkpt lat="44.20832" lon="5.40669">
        <ele>810</ele>
        <time>2026-05-13T12:00:14.000Z</time>
      </trkpt>
      <trkpt lat="44.20831" lon="5.40667">
        <ele>811</ele>
        <time>2026-05-13T12:00:15.000Z</time>
      </trkpt>
      <trkpt lat="44.20829" lon="5.40665">
        <ele>811</ele>
        <time>2026-05-13T12:00:16.000Z</time>
      </trkpt>
      <trkpt lat="44.20827" lon="5.40663">
        <ele>811</ele>
        <time>2026-05-13T12:00:17.000Z</time>
      </trkpt>
      <trkpt lat="44.20826" lon="5.40661">
        <ele>811</ele>
        <time>2026-05-13T12:00:18.000Z</time>
      </trkpt>
      <trkpt lat="44.20824" lon="5.4066">
        <ele>811</ele>
        <time>2026-05-13T12:00:19.000Z</time>
      </trkpt>
      <trkpt lat="44.20822" lon="5.40658">
        <ele>810</ele>
        <time>2026-05-13T12:00:20.000Z</time>
      </trkpt>
      <trkpt lat="44.2082" lon="5.40656">
        <ele>810</ele>
        <time>2026-05-13T12:00:21.000Z</time>
      </trkpt>
      <trkpt lat="44.20818" lon="5.40653">
        <ele>810</ele>
        <time>2026-05-13T12:00:22.000Z</time>
      </trkpt>
      <trkpt lat="44.20817" lon="5.40652">
        <ele>810</ele>
        <time>2026-05-13T12:00:23.000Z</time>
      </trkpt>
      <trkpt lat="44.20815" lon="5.40649">
        <ele>811</ele>
        <time>2026-05-13T12:00:24.000Z</time>
      </trkpt>
      <trkpt lat="44.20814" lon="5.40647">
        <ele>811</ele>
        <time>2026-05-13T12:00:25.000Z</time>
      </trkpt>
      <trkpt lat="44.20812" lon="5.40645">
        <ele>811</ele>
        <time>2026-05-13T12:00:26.000Z</time>
      </trkpt>
      <trkpt lat="44.20811" lon="5.40643">
        <ele>811</ele>
        <time>2026-05-13T12:00:27.000Z</time>
      </trkpt>
      <trkpt lat="44.20809" lon="5.40641">
        <ele>812</ele>
        <time>2026-05-13T12:00:28.000Z</time>
      </trkpt>
      <trkpt lat="44.20807" lon="5.40639">
        <ele>812</ele>
        <time>2026-05-13T12:00:29.000Z</time>
      </trkpt>
      <trkpt lat="44.20806" lon="5.40636">
        <ele>812</ele>
        <time>2026-05-13T12:00:30.000Z</time>
      </trkpt>
      <trkpt lat="44.20804" lon="5.40634">
        <ele>811</ele>
        <time>2026-05-13T12:00:31.000Z</time>
      </trkpt>
      <trkpt lat="44.20802" lon="5.40631">
        <ele>811</ele>
        <time>2026-05-13T12:00:32.000Z</time>
      </trkpt>
      <trkpt lat="44.208" lon="5.40629">
        <ele>811</ele>
        <time>2026-05-13T12:00:33.000Z</time>
      </trkpt>
      <trkpt lat="44.20799" lon="5.40626">
        <ele>811</ele>
        <time>2026-05-13T12:00:34.000Z</time>
      </trkpt>
      <trkpt lat="44.20797" lon="5.40624">
        <ele>811</ele>
        <time>2026-05-13T12:00:35.000Z</time>
      </trkpt>
      <trkpt lat="44.20796" lon="5.40621">
        <ele>812</ele>
        <time>2026-05-13T12:00:36.000Z</time>
      </trkpt>
      <trkpt lat="44.20795" lon="5.40618">
        <ele>812</ele>
        <time>2026-05-13T12:00:37.000Z</time>
      </trkpt>
      <trkpt lat="44.20794" lon="5.40615">
        <ele>812</ele>
        <time>2026-05-13T12:00:38.000Z</time>
      </trkpt>
      <trkpt lat="44.20793" lon="5.40611">
        <ele>812</ele>
        <time>2026-05-13T12:00:39.000Z</time>
      </trkpt>
      <trkpt lat="44.20793" lon="5.40608">
        <ele>811</ele>
        <time>2026-05-13T12:00:40.000Z</time>
      </trkpt>
      <trkpt lat="44.20793" lon="5.40605">
        <ele>812</ele>
        <time>2026-05-13T12:00:41.000Z</time>
      </trkpt>
      <trkpt lat="44.20794" lon="5.40602">
        <ele>812</ele>
        <time>2026-05-13T12:00:42.000Z</time>
      </trkpt>
      <trkpt lat="44.20795" lon="5.40599">
        <ele>812</ele>
        <time>2026-05-13T12:00:43.000Z</time>
      </trkpt>
      <trkpt lat="44.20796" lon="5.40597">
        <ele>812</ele>
        <time>2026-05-13T12:00:44.000Z</time>
      </trkpt>
      <trkpt lat="44.20798" lon="5.40595">
        <ele>813</ele>
        <time>2026-05-13T12:00:45.000Z</time>
      </trkpt>
      <trkpt lat="44.20799" lon="5.40593">
        <ele>812</ele>
        <time>2026-05-13T12:00:46.000Z</time>
      </trkpt>
      <trkpt lat="44.208" lon="5.40591">
        <ele>812</ele>
        <time>2026-05-13T12:00:47.000Z</time>
      </trkpt>
      <trkpt lat="44.20802" lon="5.4059">
        <ele>812</ele>
        <time>2026-05-13T12:00:48.000Z</time>
      </trkpt>
      <trkpt lat="44.20804" lon="5.40589">
        <ele>812</ele>
        <time>2026-05-13T12:00:49.000Z</time>
      </trkpt>
      <trkpt lat="44.20806" lon="5.40588">
        <ele>812</ele>
        <time>2026-05-13T12:00:50.000Z</time>
      </trkpt>
      <trkpt lat="44.20808" lon="5.40587">
        <ele>812</ele>
        <time>2026-05-13T12:00:51.000Z</time>
      </trkpt>
      <trkpt lat="44.20809" lon="5.40585">
        <ele>813</ele>
        <time>2026-05-13T12:00:52.000Z</time>
      </trkpt>
      <trkpt lat="44.20811" lon="5.40583">
        <ele>813</ele>
        <time>2026-05-13T12:00:53.000Z</time>
      </trkpt>
      <trkpt lat="44.20813" lon="5.40581">
        <ele>813</ele>
        <time>2026-05-13T12:00:54.000Z</time>
      </trkpt>
      <trkpt lat="44.20815" lon="5.4058">
        <ele>814</ele>
        <time>2026-05-13T12:00:55.000Z</time>
      </trkpt>
      <trkpt lat="44.20817" lon="5.40578">
        <ele>814</ele>
        <time>2026-05-13T12:00:56.000Z</time>
      </trkpt>
      <trkpt lat="44.20819" lon="5.40576">
        <ele>814</ele>
        <time>2026-05-13T12:00:57.000Z</time>
      </trkpt>
      <trkpt lat="44.2082" lon="5.40574">
        <ele>814</ele>
        <time>2026-05-13T12:00:58.000Z</time>
      </trkpt>
      <trkpt lat="44.20821" lon="5.40572">
        <ele>814</ele>
        <time>2026-05-13T12:00:59.000Z</time>
      </trkpt>
      <trkpt lat="44.20822" lon="5.4057">
        <ele>814</ele>
        <time>2026-05-13T12:01:00.000Z</time>
      </trkpt>
      <trkpt lat="44.20824" lon="5.40568">
        <ele>814</ele>
        <time>2026-05-13T12:01:01.000Z</time>
      </trkpt>
      <trkpt lat="44.20825" lon="5.40567">
        <ele>814</ele>
        <time>2026-05-13T12:01:02.000Z</time>
      </trkpt>
      <trkpt lat="44.20826" lon="5.40565">
        <ele>815</ele>
        <time>2026-05-13T12:01:03.000Z</time>
      </trkpt>
      <trkpt lat="44.20827" lon="5.40563">
        <ele>815</ele>
        <time>2026-05-13T12:01:04.000Z</time>
      </trkpt>
      <trkpt lat="44.20828" lon="5.40561">
        <ele>815</ele>
        <time>2026-05-13T12:01:05.000Z</time>
      </trkpt>
      <trkpt lat="44.20829" lon="5.40558">
        <ele>815</ele>
        <time>2026-05-13T12:01:06.000Z</time>
      </trkpt>
      <trkpt lat="44.2083" lon="5.40557">
        <ele>815</ele>
        <time>2026-05-13T12:01:07.000Z</time>
      </trkpt>
      <trkpt lat="44.20832" lon="5.40555">
        <ele>815</ele>
        <time>2026-05-13T12:01:08.000Z</time>
      </trkpt>
      <trkpt lat="44.20833" lon="5.40553">
        <ele>815</ele>
        <time>2026-05-13T12:01:09.000Z</time>
      </trkpt>
      <trkpt lat="44.20834" lon="5.40551">
        <ele>815</ele>
        <time>2026-05-13T12:01:10.000Z</time>
      </trkpt>
      <trkpt lat="44.20835" lon="5.40549">
        <ele>815</ele>
        <time>2026-05-13T12:01:11.000Z</time>
      </trkpt>
      <trkpt lat="44.20836" lon="5.40547">
        <ele>815</ele>
        <time>2026-05-13T12:01:12.000Z</time>
      </trkpt>
      <trkpt lat="44.20838" lon="5.40545">
        <ele>815</ele>
        <time>2026-05-13T12:01:13.000Z</time>
      </trkpt>
      <trkpt lat="44.20839" lon="5.40544">
        <ele>815</ele>
        <time>2026-05-13T12:01:14.000Z</time>
      </trkpt>
      <trkpt lat="44.2084" lon="5.40542">
        <ele>815</ele>
        <time>2026-05-13T12:01:15.000Z</time>
      </trkpt>
      <trkpt lat="44.20841" lon="5.40539">
        <ele>815</ele>
        <time>2026-05-13T12:01:16.000Z</time>
      </trkpt>
      <trkpt lat="44.20843" lon="5.40537">
        <ele>815</ele>
        <time>2026-05-13T12:01:17.000Z</time>
      </trkpt>
      <trkpt lat="44.20843" lon="5.40536">
        <ele>815</ele>
        <time>2026-05-13T12:01:18.000Z</time>
      </trkpt>
      <trkpt lat="44.20845" lon="5.40534">
        <ele>815</ele>
        <time>2026-05-13T12:01:19.000Z</time>
      </trkpt>
      <trkpt lat="44.20846" lon="5.40532">
        <ele>814</ele>
        <time>2026-05-13T12:01:20.000Z</time>
      </trkpt>
      <trkpt lat="44.20847" lon="5.4053">
        <ele>815</ele>
        <time>2026-05-13T12:01:21.000Z</time>
      </trkpt>
      <trkpt lat="44.20848" lon="5.40527">
        <ele>815</ele>
        <time>2026-05-13T12:01:22.000Z</time>
      </trkpt>
      <trkpt lat="44.2085" lon="5.40525">
        <ele>815</ele>
        <time>2026-05-13T12:01:23.000Z</time>
      </trkpt>
      <trkpt lat="44.20851" lon="5.40523">
        <ele>815</ele>
        <time>2026-05-13T12:01:24.000Z</time>
      </trkpt>
      <trkpt lat="44.20853" lon="5.40521">
        <ele>815</ele>
        <time>2026-05-13T12:01:25.000Z</time>
      </trkpt>
      <trkpt lat="44.20854" lon="5.40519">
        <ele>815</ele>
        <time>2026-05-13T12:01:26.000Z</time>
      </trkpt>
      <trkpt lat="44.20856" lon="5.40516">
        <ele>816</ele>
        <time>2026-05-13T12:01:27.000Z</time>
      </trkpt>
      <trkpt lat="44.20857" lon="5.40513">
        <ele>816</ele>
        <time>2026-05-13T12:01:28.000Z</time>
      </trkpt>
      <trkpt lat="44.20858" lon="5.4051">
        <ele>816</ele>
        <time>2026-05-13T12:01:29.000Z</time>
      </trkpt>
      <trkpt lat="44.20859" lon="5.40507">
        <ele>816</ele>
        <time>2026-05-13T12:01:30.000Z</time>
      </trkpt>
      <trkpt lat="44.20861" lon="5.40505">
        <ele>816</ele>
        <time>2026-05-13T12:01:31.000Z</time>
      </trkpt>
      <trkpt lat="44.20862" lon="5.40502">
        <ele>816</ele>
        <time>2026-05-13T12:01:32.000Z</time>
      </trkpt>
      <trkpt lat="44.20863" lon="5.405">
        <ele>816</ele>
        <time>2026-05-13T12:01:33.000Z</time>
      </trkpt>
      <trkpt lat="44.20864" lon="5.40498">
        <ele>817</ele>
        <time>2026-05-13T12:01:34.000Z</time>
      </trkpt>
      <trkpt lat="44.20865" lon="5.40494">
        <ele>816</ele>
        <time>2026-05-13T12:01:35.000Z</time>
      </trkpt>
      <trkpt lat="44.20865" lon="5.40491">
        <ele>817</ele>
        <time>2026-05-13T12:01:36.000Z</time>
      </trkpt>
      <trkpt lat="44.20866" lon="5.40488">
        <ele>817</ele>
        <time>2026-05-13T12:01:37.000Z</time>
      </trkpt>
      <trkpt lat="44.20866" lon="5.40485">
        <ele>817</ele>
        <time>2026-05-13T12:01:38.000Z</time>
      </trkpt>
      <trkpt lat="44.20866" lon="5.40482">
        <ele>817</ele>
        <time>2026-05-13T12:01:39.000Z</time>
      </trkpt>
      <trkpt lat="44.20867" lon="5.40479">
        <ele>817</ele>
        <time>2026-05-13T12:01:40.000Z</time>
      </trkpt>
      <trkpt lat="44.20868" lon="5.40476">
        <ele>818</ele>
        <time>2026-05-13T12:01:41.000Z</time>
      </trkpt>
      <trkpt lat="44.20869" lon="5.40473">
        <ele>818</ele>
        <time>2026-05-13T12:01:42.000Z</time>
      </trkpt>
      <trkpt lat="44.2087" lon="5.40471">
        <ele>819</ele>
        <time>2026-05-13T12:01:43.000Z</time>
      </trkpt>
      <trkpt lat="44.20872" lon="5.40469">
        <ele>819</ele>
        <time>2026-05-13T12:01:44.000Z</time>
      </trkpt>
      <trkpt lat="44.20874" lon="5.40468">
        <ele>819</ele>
        <time>2026-05-13T12:01:45.000Z</time>
      </trkpt>
      <trkpt lat="44.20876" lon="5.40466">
        <ele>819</ele>
        <time>2026-05-13T12:01:46.000Z</time>
      </trkpt>
      <trkpt lat="44.20878" lon="5.40466">
        <ele>819</ele>
        <time>2026-05-13T12:01:47.000Z</time>
      </trkpt>
      <trkpt lat="44.2088" lon="5.40466">
        <ele>819</ele>
        <time>2026-05-13T12:01:48.000Z</time>
      </trkpt>
      <trkpt lat="44.20883" lon="5.40467">
        <ele>819</ele>
        <time>2026-05-13T12:01:49.000Z</time>
      </trkpt>
      <trkpt lat="44.20885" lon="5.40467">
        <ele>819</ele>
        <time>2026-05-13T12:01:50.000Z</time>
      </trkpt>
      <trkpt lat="44.20887" lon="5.40468">
        <ele>819</ele>
        <time>2026-05-13T12:01:51.000Z</time>
      </trkpt>
      <trkpt lat="44.20889" lon="5.40468">
        <ele>819</ele>
        <time>2026-05-13T12:01:52.000Z</time>
      </trkpt>
      <trkpt lat="44.2089" lon="5.40469">
        <ele>819</ele>
        <time>2026-05-13T12:01:53.000Z</time>
      </trkpt>
      <trkpt lat="44.20892" lon="5.4047">
        <ele>820</ele>
        <time>2026-05-13T12:01:54.000Z</time>
      </trkpt>
      <trkpt lat="44.20894" lon="5.4047">
        <ele>820</ele>
        <time>2026-05-13T12:01:55.000Z</time>
      </trkpt>
      <trkpt lat="44.20896" lon="5.4047">
        <ele>820</ele>
        <time>2026-05-13T12:01:56.000Z</time>
      </trkpt>
      <trkpt lat="44.20898" lon="5.4047">
        <ele>820</ele>
        <time>2026-05-13T12:01:57.000Z</time>
      </trkpt>
      <trkpt lat="44.20899" lon="5.4047">
        <ele>820</ele>
        <time>2026-05-13T12:01:58.000Z</time>
      </trkpt>
      <trkpt lat="44.20901" lon="5.40469">
        <ele>820</ele>
        <time>2026-05-13T12:01:59.000Z</time>
      </trkpt>
      <trkpt lat="44.20903" lon="5.40468">
        <ele>821</ele>
        <time>2026-05-13T12:02:00.000Z</time>
      </trkpt>
      <trkpt lat="44.20904" lon="5.40467">
        <ele>821</ele>
        <time>2026-05-13T12:02:01.000Z</time>
      </trkpt>
      <trkpt lat="44.20906" lon="5.40465">
        <ele>821</ele>
        <time>2026-05-13T12:02:02.000Z</time>
      </trkpt>
      <trkpt lat="44.20907" lon="5.40463">
        <ele>821</ele>
        <time>2026-05-13T12:02:03.000Z</time>
      </trkpt>
      <trkpt lat="44.20908" lon="5.40461">
        <ele>821</ele>
        <time>2026-05-13T12:02:04.000Z</time>
      </trkpt>
      <trkpt lat="44.20909" lon="5.40458">
        <ele>821</ele>
        <time>2026-05-13T12:02:05.000Z</time>
      </trkpt>
      <trkpt lat="44.20909" lon="5.40456">
        <ele>820</ele>
        <time>2026-05-13T12:02:06.000Z</time>
      </trkpt>
      <trkpt lat="44.2091" lon="5.40453">
        <ele>820</ele>
        <time>2026-05-13T12:02:07.000Z</time>
      </trkpt>
      <trkpt lat="44.2091" lon="5.40451">
        <ele>820</ele>
        <time>2026-05-13T12:02:08.000Z</time>
      </trkpt>
      <trkpt lat="44.2091" lon="5.40449">
        <ele>820</ele>
        <time>2026-05-13T12:02:09.000Z</time>
      </trkpt>
      <trkpt lat="44.20911" lon="5.40447">
        <ele>819</ele>
        <time>2026-05-13T12:02:10.000Z</time>
      </trkpt>
      <trkpt lat="44.20912" lon="5.40444">
        <ele>820</ele>
        <time>2026-05-13T12:02:11.000Z</time>
      </trkpt>
      <trkpt lat="44.20912" lon="5.40442">
        <ele>820</ele>
        <time>2026-05-13T12:02:12.000Z</time>
      </trkpt>
      <trkpt lat="44.20913" lon="5.40439">
        <ele>820</ele>
        <time>2026-05-13T12:02:13.000Z</time>
      </trkpt>
      <trkpt lat="44.20913" lon="5.40437">
        <ele>820</ele>
        <time>2026-05-13T12:02:14.000Z</time>
      </trkpt>
      <trkpt lat="44.20914" lon="5.40435">
        <ele>821</ele>
        <time>2026-05-13T12:02:15.000Z</time>
      </trkpt>
      <trkpt lat="44.20915" lon="5.40434">
        <ele>822</ele>
        <time>2026-05-13T12:02:16.000Z</time>
      </trkpt>
      <trkpt lat="44.20916" lon="5.40431">
        <ele>822</ele>
        <time>2026-05-13T12:02:17.000Z</time>
      </trkpt>
      <trkpt lat="44.20917" lon="5.40429">
        <ele>822</ele>
        <time>2026-05-13T12:02:18.000Z</time>
      </trkpt>
      <trkpt lat="44.20917" lon="5.40428">
        <ele>822</ele>
        <time>2026-05-13T12:02:19.000Z</time>
      </trkpt>
      <trkpt lat="44.20918" lon="5.40426">
        <ele>822</ele>
        <time>2026-05-13T12:02:20.000Z</time>
      </trkpt>
      <trkpt lat="44.2092" lon="5.40425">
        <ele>823</ele>
        <time>2026-05-13T12:02:21.000Z</time>
      </trkpt>
      <trkpt lat="44.20921" lon="5.40424">
        <ele>823</ele>
        <time>2026-05-13T12:02:22.000Z</time>
      </trkpt>
      <trkpt lat="44.20922" lon="5.40422">
        <ele>823</ele>
        <time>2026-05-13T12:02:23.000Z</time>
      </trkpt>
      <trkpt lat="44.20923" lon="5.4042">
        <ele>824</ele>
        <time>2026-05-13T12:02:24.000Z</time>
      </trkpt>
      <trkpt lat="44.20925" lon="5.40418">
        <ele>823</ele>
        <time>2026-05-13T12:02:25.000Z</time>
      </trkpt>
      <trkpt lat="44.20926" lon="5.40417">
        <ele>824</ele>
        <time>2026-05-13T12:02:26.000Z</time>
      </trkpt>
      <trkpt lat="44.20928" lon="5.40416">
        <ele>824</ele>
        <time>2026-05-13T12:02:27.000Z</time>
      </trkpt>
      <trkpt lat="44.20929" lon="5.40414">
        <ele>824</ele>
        <time>2026-05-13T12:02:28.000Z</time>
      </trkpt>
      <trkpt lat="44.2093" lon="5.40412">
        <ele>825</ele>
        <time>2026-05-13T12:02:29.000Z</time>
      </trkpt>
      <trkpt lat="44.2093" lon="5.4041">
        <ele>825</ele>
        <time>2026-05-13T12:02:30.000Z</time>
      </trkpt>
      <trkpt lat="44.20931" lon="5.4041">
        <ele>825</ele>
        <time>2026-05-13T12:02:31.000Z</time>
      </trkpt>
      <trkpt lat="44.20932" lon="5.40408">
        <ele>825</ele>
        <time>2026-05-13T12:02:32.000Z</time>
      </trkpt>
      <trkpt lat="44.20933" lon="5.40407">
        <ele>825</ele>
        <time>2026-05-13T12:02:33.000Z</time>
      </trkpt>
      <trkpt lat="44.20934" lon="5.40405">
        <ele>826</ele>
        <time>2026-05-13T12:02:34.000Z</time>
      </trkpt>
      <trkpt lat="44.20935" lon="5.40404">
        <ele>826</ele>
        <time>2026-05-13T12:02:35.000Z</time>
      </trkpt>
      <trkpt lat="44.20936" lon="5.40402">
        <ele>826</ele>
        <time>2026-05-13T12:02:36.000Z</time>
      </trkpt>
      <trkpt lat="44.20937" lon="5.40401">
        <ele>827</ele>
        <time>2026-05-13T12:02:37.000Z</time>
      </trkpt>
      <trkpt lat="44.20938" lon="5.40399">
        <ele>826</ele>
        <time>2026-05-13T12:02:38.000Z</time>
      </trkpt>
      <trkpt lat="44.20939" lon="5.40397">
        <ele>826</ele>
        <time>2026-05-13T12:02:39.000Z</time>
      </trkpt>
      <trkpt lat="44.2094" lon="5.40396">
        <ele>827</ele>
        <time>2026-05-13T12:02:40.000Z</time>
      </trkpt>
      <trkpt lat="44.20941" lon="5.40395">
        <ele>827</ele>
        <time>2026-05-13T12:02:41.000Z</time>
      </trkpt>
      <trkpt lat="44.20942" lon="5.40394">
        <ele>827</ele>
        <time>2026-05-13T12:02:42.000Z</time>
      </trkpt>
      <trkpt lat="44.20944" lon="5.40393">
        <ele>827</ele>
        <time>2026-05-13T12:02:43.000Z</time>
      </trkpt>
      <trkpt lat="44.20945" lon="5.40392">
        <ele>828</ele>
        <time>2026-05-13T12:02:44.000Z</time>
      </trkpt>
      <trkpt lat="44.20946" lon="5.4039">
        <ele>828</ele>
        <time>2026-05-13T12:02:45.000Z</time>
      </trkpt>
      <trkpt lat="44.20947" lon="5.40389">
        <ele>828</ele>
        <time>2026-05-13T12:02:46.000Z</time>
      </trkpt>
      <trkpt lat="44.20948" lon="5.40387">
        <ele>827</ele>
        <time>2026-05-13T12:02:47.000Z</time>
      </trkpt>
      <trkpt lat="44.20949" lon="5.40386">
        <ele>827</ele>
        <time>2026-05-13T12:02:48.000Z</time>
      </trkpt>
      <trkpt lat="44.20951" lon="5.40384">
        <ele>827</ele>
        <time>2026-05-13T12:02:49.000Z</time>
      </trkpt>
      <trkpt lat="44.20952" lon="5.40382">
        <ele>828</ele>
        <time>2026-05-13T12:02:50.000Z</time>
      </trkpt>
      <trkpt lat="44.20953" lon="5.40381">
        <ele>828</ele>
        <time>2026-05-13T12:02:51.000Z</time>
      </trkpt>
      <trkpt lat="44.20954" lon="5.40379">
        <ele>828</ele>
        <time>2026-05-13T12:02:52.000Z</time>
      </trkpt>
      <trkpt lat="44.20955" lon="5.40377">
        <ele>828</ele>
        <time>2026-05-13T12:02:53.000Z</time>
      </trkpt>
      <trkpt lat="44.20957" lon="5.40375">
        <ele>828</ele>
        <time>2026-05-13T12:02:54.000Z</time>
      </trkpt>
      <trkpt lat="44.20958" lon="5.40374">
        <ele>829</ele>
        <time>2026-05-13T12:02:55.000Z</time>
      </trkpt>
      <trkpt lat="44.20959" lon="5.40372">
        <ele>828</ele>
        <time>2026-05-13T12:02:56.000Z</time>
      </trkpt>
      <trkpt lat="44.2096" lon="5.40371">
        <ele>829</ele>
        <time>2026-05-13T12:02:57.000Z</time>
      </trkpt>
      <trkpt lat="44.20961" lon="5.40369">
        <ele>829</ele>
        <time>2026-05-13T12:02:58.000Z</time>
      </trkpt>
      <trkpt lat="44.20962" lon="5.40368">
        <ele>828</ele>
        <time>2026-05-13T12:02:59.000Z</time>
      </trkpt>
      <trkpt lat="44.20963" lon="5.40366">
        <ele>828</ele>
        <time>2026-05-13T12:03:00.000Z</time>
      </trkpt>
      <trkpt lat="44.20964" lon="5.40365">
        <ele>828</ele>
        <time>2026-05-13T12:03:01.000Z</time>
      </trkpt>
      <trkpt lat="44.20964" lon="5.40363">
        <ele>828</ele>
        <time>2026-05-13T12:03:02.000Z</time>
      </trkpt>
      <trkpt lat="44.20965" lon="5.40361">
        <ele>828</ele>
        <time>2026-05-13T12:03:03.000Z</time>
      </trkpt>
      <trkpt lat="44.20966" lon="5.40359">
        <ele>828</ele>
        <time>2026-05-13T12:03:04.000Z</time>
      </trkpt>
      <trkpt lat="44.20967" lon="5.40356">
        <ele>828</ele>
        <time>2026-05-13T12:03:05.000Z</time>
      </trkpt>
      <trkpt lat="44.20967" lon="5.40354">
        <ele>828</ele>
        <time>2026-05-13T12:03:06.000Z</time>
      </trkpt>
      <trkpt lat="44.20968" lon="5.40352">
        <ele>829</ele>
        <time>2026-05-13T12:03:07.000Z</time>
      </trkpt>
      <trkpt lat="44.20969" lon="5.4035">
        <ele>829</ele>
        <time>2026-05-13T12:03:08.000Z</time>
      </trkpt>
      <trkpt lat="44.20971" lon="5.40348">
        <ele>829</ele>
        <time>2026-05-13T12:03:09.000Z</time>
      </trkpt>
      <trkpt lat="44.20972" lon="5.40346">
        <ele>830</ele>
        <time>2026-05-13T12:03:10.000Z</time>
      </trkpt>
      <trkpt lat="44.20973" lon="5.40344">
        <ele>830</ele>
        <time>2026-05-13T12:03:11.000Z</time>
      </trkpt>
      <trkpt lat="44.20975" lon="5.40343">
        <ele>830</ele>
        <time>2026-05-13T12:03:12.000Z</time>
      </trkpt>
      <trkpt lat="44.20976" lon="5.40341">
        <ele>830</ele>
        <time>2026-05-13T12:03:13.000Z</time>
      </trkpt>
      <trkpt lat="44.20977" lon="5.4034">
        <ele>831</ele>
        <time>2026-05-13T12:03:14.000Z</time>
      </trkpt>
      <trkpt lat="44.20979" lon="5.40338">
        <ele>831</ele>
        <time>2026-05-13T12:03:15.000Z</time>
      </trkpt>
      <trkpt lat="44.2098" lon="5.40336">
        <ele>831</ele>
        <time>2026-05-13T12:03:16.000Z</time>
      </trkpt>
      <trkpt lat="44.20981" lon="5.40335">
        <ele>831</ele>
        <time>2026-05-13T12:03:17.000Z</time>
      </trkpt>
      <trkpt lat="44.20983" lon="5.40333">
        <ele>832</ele>
        <time>2026-05-13T12:03:18.000Z</time>
      </trkpt>
      <trkpt lat="44.20984" lon="5.40331">
        <ele>832</ele>
        <time>2026-05-13T12:03:19.000Z</time>
      </trkpt>
      <trkpt lat="44.20985" lon="5.40329">
        <ele>832</ele>
        <time>2026-05-13T12:03:20.000Z</time>
      </trkpt>
      <trkpt lat="44.20987" lon="5.40327">
        <ele>832</ele>
        <time>2026-05-13T12:03:21.000Z</time>
      </trkpt>
      <trkpt lat="44.20988" lon="5.40325">
        <ele>832</ele>
        <time>2026-05-13T12:03:22.000Z</time>
      </trkpt>
      <trkpt lat="44.20989" lon="5.40323">
        <ele>832</ele>
        <time>2026-05-13T12:03:23.000Z</time>
      </trkpt>
      <trkpt lat="44.2099" lon="5.4032">
        <ele>832</ele>
        <time>2026-05-13T12:03:24.000Z</time>
      </trkpt>
      <trkpt lat="44.20991" lon="5.40318">
        <ele>832</ele>
        <time>2026-05-13T12:03:25.000Z</time>
      </trkpt>
      <trkpt lat="44.20992" lon="5.40315">
        <ele>832</ele>
        <time>2026-05-13T12:03:26.000Z</time>
      </trkpt>
      <trkpt lat="44.20993" lon="5.40313">
        <ele>832</ele>
        <time>2026-05-13T12:03:27.000Z</time>
      </trkpt>
      <trkpt lat="44.20995" lon="5.4031">
        <ele>832</ele>
        <time>2026-05-13T12:03:28.000Z</time>
      </trkpt>
      <trkpt lat="44.20996" lon="5.40308">
        <ele>832</ele>
        <time>2026-05-13T12:03:29.000Z</time>
      </trkpt>
      <trkpt lat="44.20998" lon="5.40305">
        <ele>832</ele>
        <time>2026-05-13T12:03:30.000Z</time>
      </trkpt>
      <trkpt lat="44.20999" lon="5.40303">
        <ele>832</ele>
        <time>2026-05-13T12:03:31.000Z</time>
      </trkpt>
      <trkpt lat="44.21" lon="5.40301">
        <ele>832</ele>
        <time>2026-05-13T12:03:32.000Z</time>
      </trkpt>
      <trkpt lat="44.21002" lon="5.40298">
        <ele>832</ele>
        <time>2026-05-13T12:03:33.000Z</time>
      </trkpt>
      <trkpt lat="44.21003" lon="5.40295">
        <ele>832</ele>
        <time>2026-05-13T12:03:34.000Z</time>
      </trkpt>
      <trkpt lat="44.21004" lon="5.40293">
        <ele>832</ele>
        <time>2026-05-13T12:03:35.000Z</time>
      </trkpt>
      <trkpt lat="44.21006" lon="5.40291">
        <ele>832</ele>
        <time>2026-05-13T12:03:36.000Z</time>
      </trkpt>
      <trkpt lat="44.21008" lon="5.40289">
        <ele>832</ele>
        <time>2026-05-13T12:03:37.000Z</time>
      </trkpt>
      <trkpt lat="44.21011" lon="5.40288">
        <ele>832</ele>
        <time>2026-05-13T12:03:38.000Z</time>
      </trkpt>
      <trkpt lat="44.21013" lon="5.40288">
        <ele>832</ele>
        <time>2026-05-13T12:03:39.000Z</time>
      </trkpt>
      <trkpt lat="44.21016" lon="5.40287">
        <ele>832</ele>
        <time>2026-05-13T12:03:40.000Z</time>
      </trkpt>
      <trkpt lat="44.21019" lon="5.40286">
        <ele>832</ele>
        <time>2026-05-13T12:03:41.000Z</time>
      </trkpt>
      <trkpt lat="44.21022" lon="5.40287">
        <ele>832</ele>
        <time>2026-05-13T12:03:42.000Z</time>
      </trkpt>
      <trkpt lat="44.21025" lon="5.40289">
        <ele>831</ele>
        <time>2026-05-13T12:03:43.000Z</time>
      </trkpt>
      <trkpt lat="44.21027" lon="5.40291">
        <ele>831</ele>
        <time>2026-05-13T12:03:44.000Z</time>
      </trkpt>
      <trkpt lat="44.2103" lon="5.40295">
        <ele>831</ele>
        <time>2026-05-13T12:03:45.000Z</time>
      </trkpt>
      <trkpt lat="44.21032" lon="5.40298">
        <ele>831</ele>
        <time>2026-05-13T12:03:46.000Z</time>
      </trkpt>
      <trkpt lat="44.21034" lon="5.40302">
        <ele>831</ele>
        <time>2026-05-13T12:03:47.000Z</time>
      </trkpt>
      <trkpt lat="44.21035" lon="5.40307">
        <ele>830</ele>
        <time>2026-05-13T12:03:48.000Z</time>
      </trkpt>
      <trkpt lat="44.21036" lon="5.40311">
        <ele>830</ele>
        <time>2026-05-13T12:03:49.000Z</time>
      </trkpt>
      <trkpt lat="44.21036" lon="5.40316">
        <ele>831</ele>
        <time>2026-05-13T12:03:50.000Z</time>
      </trkpt>
      <trkpt lat="44.21036" lon="5.40321">
        <ele>830</ele>
        <time>2026-05-13T12:03:51.000Z</time>
      </trkpt>
      <trkpt lat="44.21036" lon="5.40326">
        <ele>830</ele>
        <time>2026-05-13T12:03:52.000Z</time>
      </trkpt>
      <trkpt lat="44.21037" lon="5.40331">
        <ele>830</ele>
        <time>2026-05-13T12:03:53.000Z</time>
      </trkpt>
      <trkpt lat="44.21038" lon="5.40335">
        <ele>830</ele>
        <time>2026-05-13T12:03:54.000Z</time>
      </trkpt>
      <trkpt lat="44.2104" lon="5.40338">
        <ele>830</ele>
        <time>2026-05-13T12:03:55.000Z</time>
      </trkpt>
      <trkpt lat="44.21042" lon="5.40341">
        <ele>830</ele>
        <time>2026-05-13T12:03:56.000Z</time>
      </trkpt>
      <trkpt lat="44.21045" lon="5.40342">
        <ele>830</ele>
        <time>2026-05-13T12:03:57.000Z</time>
      </trkpt>
      <trkpt lat="44.21048" lon="5.40341">
        <ele>830</ele>
        <time>2026-05-13T12:03:58.000Z</time>
      </trkpt>
      <trkpt lat="44.2105" lon="5.40339">
        <ele>830</ele>
        <time>2026-05-13T12:03:59.000Z</time>
      </trkpt>
      <trkpt lat="44.21052" lon="5.40337">
        <ele>830</ele>
        <time>2026-05-13T12:04:00.000Z</time>
      </trkpt>
      <trkpt lat="44.21054" lon="5.40335">
        <ele>830</ele>
        <time>2026-05-13T12:04:01.000Z</time>
      </trkpt>
      <trkpt lat="44.21055" lon="5.40333">
        <ele>830</ele>
        <time>2026-05-13T12:04:02.000Z</time>
      </trkpt>
      <trkpt lat="44.21056" lon="5.4033">
        <ele>830</ele>
        <time>2026-05-13T12:04:03.000Z</time>
      </trkpt>
      <trkpt lat="44.21057" lon="5.40327">
        <ele>830</ele>
        <time>2026-05-13T12:04:04.000Z</time>
      </trkpt>
      <trkpt lat="44.21058" lon="5.40324">
        <ele>831</ele>
        <time>2026-05-13T12:04:05.000Z</time>
      </trkpt>
      <trkpt lat="44.21058" lon="5.40321">
        <ele>831</ele>
        <time>2026-05-13T12:04:06.000Z</time>
      </trkpt>
      <trkpt lat="44.21059" lon="5.40318">
        <ele>831</ele>
        <time>2026-05-13T12:04:07.000Z</time>
      </trkpt>
      <trkpt lat="44.2106" lon="5.40315">
        <ele>831</ele>
        <time>2026-05-13T12:04:08.000Z</time>
      </trkpt>
      <trkpt lat="44.21061" lon="5.40312">
        <ele>831</ele>
        <time>2026-05-13T12:04:09.000Z</time>
      </trkpt>
      <trkpt lat="44.21061" lon="5.40309">
        <ele>831</ele>
        <time>2026-05-13T12:04:10.000Z</time>
      </trkpt>
      <trkpt lat="44.21061" lon="5.40306">
        <ele>831</ele>
        <time>2026-05-13T12:04:11.000Z</time>
      </trkpt>
      <trkpt lat="44.21061" lon="5.40303">
        <ele>831</ele>
        <time>2026-05-13T12:04:12.000Z</time>
      </trkpt>
      <trkpt lat="44.21061" lon="5.40299">
        <ele>831</ele>
        <time>2026-05-13T12:04:13.000Z</time>
      </trkpt>
      <trkpt lat="44.21061" lon="5.40296">
        <ele>832</ele>
        <time>2026-05-13T12:04:14.000Z</time>
      </trkpt>
      <trkpt lat="44.21061" lon="5.40292">
        <ele>832</ele>
        <time>2026-05-13T12:04:15.000Z</time>
      </trkpt>
      <trkpt lat="44.21061" lon="5.40289">
        <ele>832</ele>
        <time>2026-05-13T12:04:16.000Z</time>
      </trkpt>
      <trkpt lat="44.21061" lon="5.40285">
        <ele>832</ele>
        <time>2026-05-13T12:04:17.000Z</time>
      </trkpt>
      <trkpt lat="44.21062" lon="5.40282">
        <ele>832</ele>
        <time>2026-05-13T12:04:18.000Z</time>
      </trkpt>
      <trkpt lat="44.21062" lon="5.40279">
        <ele>833</ele>
        <time>2026-05-13T12:04:19.000Z</time>
      </trkpt>
      <trkpt lat="44.21062" lon="5.40277">
        <ele>833</ele>
        <time>2026-05-13T12:04:20.000Z</time>
      </trkpt>
      <trkpt lat="44.21063" lon="5.40274">
        <ele>833</ele>
        <time>2026-05-13T12:04:21.000Z</time>
      </trkpt>
      <trkpt lat="44.21063" lon="5.40271">
        <ele>833</ele>
        <time>2026-05-13T12:04:22.000Z</time>
      </trkpt>
      <trkpt lat="44.21062" lon="5.40269">
        <ele>833</ele>
        <time>2026-05-13T12:04:23.000Z</time>
      </trkpt>
      <trkpt lat="44.21062" lon="5.40266">
        <ele>833</ele>
        <time>2026-05-13T12:04:24.000Z</time>
      </trkpt>
      <trkpt lat="44.21062" lon="5.40263">
        <ele>833</ele>
        <time>2026-05-13T12:04:25.000Z</time>
      </trkpt>
      <trkpt lat="44.21062" lon="5.4026">
        <ele>833</ele>
        <time>2026-05-13T12:04:26.000Z</time>
      </trkpt>
      <trkpt lat="44.21062" lon="5.40257">
        <ele>833</ele>
        <time>2026-05-13T12:04:27.000Z</time>
      </trkpt>
      <trkpt lat="44.21063" lon="5.40254">
        <ele>833</ele>
        <time>2026-05-13T12:04:28.000Z</time>
      </trkpt>
      <trkpt lat="44.21063" lon="5.40251">
        <ele>834</ele>
        <time>2026-05-13T12:04:29.000Z</time>
      </trkpt>
      <trkpt lat="44.21064" lon="5.40248">
        <ele>834</ele>
        <time>2026-05-13T12:04:30.000Z</time>
      </trkpt>
      <trkpt lat="44.21064" lon="5.40245">
        <ele>835</ele>
        <time>2026-05-13T12:04:31.000Z</time>
      </trkpt>
      <trkpt lat="44.21064" lon="5.40242">
        <ele>836</ele>
        <time>2026-05-13T12:04:32.000Z</time>
      </trkpt>
      <trkpt lat="44.21064" lon="5.40239">
        <ele>836</ele>
        <time>2026-05-13T12:04:33.000Z</time>
      </trkpt>
      <trkpt lat="44.21065" lon="5.40236">
        <ele>836</ele>
        <time>2026-05-13T12:04:34.000Z</time>
      </trkpt>
      <trkpt lat="44.21067" lon="5.40234">
        <ele>836</ele>
        <time>2026-05-13T12:04:35.000Z</time>
      </trkpt>
      <trkpt lat="44.21067" lon="5.40231">
        <ele>836</ele>
        <time>2026-05-13T12:04:36.000Z</time>
      </trkpt>
      <trkpt lat="44.21068" lon="5.40227">
        <ele>836</ele>
        <time>2026-05-13T12:04:37.000Z</time>
      </trkpt>
      <trkpt lat="44.21069" lon="5.40224">
        <ele>836</ele>
        <time>2026-05-13T12:04:38.000Z</time>
      </trkpt>
      <trkpt lat="44.21069" lon="5.40221">
        <ele>836</ele>
        <time>2026-05-13T12:04:39.000Z</time>
      </trkpt>
      <trkpt lat="44.2107" lon="5.40219">
        <ele>836</ele>
        <time>2026-05-13T12:04:40.000Z</time>
      </trkpt>
      <trkpt lat="44.21071" lon="5.40217">
        <ele>836</ele>
        <time>2026-05-13T12:04:41.000Z</time>
      </trkpt>
      <trkpt lat="44.21073" lon="5.40215">
        <ele>836</ele>
        <time>2026-05-13T12:04:42.000Z</time>
      </trkpt>
      <trkpt lat="44.21074" lon="5.40213">
        <ele>836</ele>
        <time>2026-05-13T12:04:43.000Z</time>
      </trkpt>
      <trkpt lat="44.21076" lon="5.4021">
        <ele>836</ele>
        <time>2026-05-13T12:04:44.000Z</time>
      </trkpt>
      <trkpt lat="44.21077" lon="5.40209">
        <ele>836</ele>
        <time>2026-05-13T12:04:45.000Z</time>
      </trkpt>
      <trkpt lat="44.21079" lon="5.40207">
        <ele>836</ele>
        <time>2026-05-13T12:04:46.000Z</time>
      </trkpt>
      <trkpt lat="44.21082" lon="5.40205">
        <ele>836</ele>
        <time>2026-05-13T12:04:47.000Z</time>
      </trkpt>
      <trkpt lat="44.21084" lon="5.40203">
        <ele>836</ele>
        <time>2026-05-13T12:04:48.000Z</time>
      </trkpt>
      <trkpt lat="44.21086" lon="5.40202">
        <ele>836</ele>
        <time>2026-05-13T12:04:49.000Z</time>
      </trkpt>
      <trkpt lat="44.21088" lon="5.40201">
        <ele>836</ele>
        <time>2026-05-13T12:04:50.000Z</time>
      </trkpt>
      <trkpt lat="44.2109" lon="5.402">
        <ele>836</ele>
        <time>2026-05-13T12:04:51.000Z</time>
      </trkpt>
      <trkpt lat="44.21092" lon="5.40199">
        <ele>836</ele>
        <time>2026-05-13T12:04:52.000Z</time>
      </trkpt>
      <trkpt lat="44.21095" lon="5.40198">
        <ele>836</ele>
        <time>2026-05-13T12:04:53.000Z</time>
      </trkpt>
      <trkpt lat="44.21097" lon="5.40198">
        <ele>836</ele>
        <time>2026-05-13T12:04:54.000Z</time>
      </trkpt>
      <trkpt lat="44.211" lon="5.40199">
        <ele>836</ele>
        <time>2026-05-13T12:04:55.000Z</time>
      </trkpt>
      <trkpt lat="44.21102" lon="5.402">
        <ele>835</ele>
        <time>2026-05-13T12:04:56.000Z</time>
      </trkpt>
      <trkpt lat="44.21104" lon="5.40201">
        <ele>835</ele>
        <time>2026-05-13T12:04:57.000Z</time>
      </trkpt>
      <trkpt lat="44.21106" lon="5.40202">
        <ele>836</ele>
        <time>2026-05-13T12:04:58.000Z</time>
      </trkpt>
      <trkpt lat="44.21109" lon="5.40204">
        <ele>836</ele>
        <time>2026-05-13T12:04:59.000Z</time>
      </trkpt>
      <trkpt lat="44.21111" lon="5.40205">
        <ele>836</ele>
        <time>2026-05-13T12:05:00.000Z</time>
      </trkpt>
      <trkpt lat="44.21112" lon="5.40206">
        <ele>837</ele>
        <time>2026-05-13T12:05:01.000Z</time>
      </trkpt>
      <trkpt lat="44.21114" lon="5.40208">
        <ele>837</ele>
        <time>2026-05-13T12:05:02.000Z</time>
      </trkpt>
      <trkpt lat="44.21115" lon="5.40211">
        <ele>837</ele>
        <time>2026-05-13T12:05:03.000Z</time>
      </trkpt>
      <trkpt lat="44.21117" lon="5.40213">
        <ele>837</ele>
        <time>2026-05-13T12:05:04.000Z</time>
      </trkpt>
      <trkpt lat="44.21118" lon="5.40215">
        <ele>837</ele>
        <time>2026-05-13T12:05:05.000Z</time>
      </trkpt>
      <trkpt lat="44.2112" lon="5.40218">
        <ele>838</ele>
        <time>2026-05-13T12:05:06.000Z</time>
      </trkpt>
      <trkpt lat="44.2112" lon="5.40222">
        <ele>838</ele>
        <time>2026-05-13T12:05:07.000Z</time>
      </trkpt>
      <trkpt lat="44.21121" lon="5.40226">
        <ele>838</ele>
        <time>2026-05-13T12:05:08.000Z</time>
      </trkpt>
      <trkpt lat="44.21121" lon="5.40229">
        <ele>838</ele>
        <time>2026-05-13T12:05:09.000Z</time>
      </trkpt>
      <trkpt lat="44.21122" lon="5.40232">
        <ele>838</ele>
        <time>2026-05-13T12:05:10.000Z</time>
      </trkpt>
      <trkpt lat="44.21123" lon="5.40235">
        <ele>838</ele>
        <time>2026-05-13T12:05:11.000Z</time>
      </trkpt>
      <trkpt lat="44.21123" lon="5.40238">
        <ele>838</ele>
        <time>2026-05-13T12:05:12.000Z</time>
      </trkpt>
      <trkpt lat="44.21124" lon="5.40241">
        <ele>838</ele>
        <time>2026-05-13T12:05:13.000Z</time>
      </trkpt>
      <trkpt lat="44.21125" lon="5.40245">
        <ele>839</ele>
        <time>2026-05-13T12:05:14.000Z</time>
      </trkpt>
      <trkpt lat="44.21126" lon="5.40247">
        <ele>839</ele>
        <time>2026-05-13T12:05:15.000Z</time>
      </trkpt>
      <trkpt lat="44.21127" lon="5.40251">
        <ele>839</ele>
        <time>2026-05-13T12:05:16.000Z</time>
      </trkpt>
      <trkpt lat="44.21128" lon="5.40254">
        <ele>839</ele>
        <time>2026-05-13T12:05:17.000Z</time>
      </trkpt>
      <trkpt lat="44.21129" lon="5.40257">
        <ele>839</ele>
        <time>2026-05-13T12:05:18.000Z</time>
      </trkpt>
      <trkpt lat="44.21131" lon="5.4026">
        <ele>839</ele>
        <time>2026-05-13T12:05:19.000Z</time>
      </trkpt>
      <trkpt lat="44.21133" lon="5.40263">
        <ele>840</ele>
        <time>2026-05-13T12:05:20.000Z</time>
      </trkpt>
      <trkpt lat="44.21134" lon="5.40265">
        <ele>840</ele>
        <time>2026-05-13T12:05:21.000Z</time>
      </trkpt>
      <trkpt lat="44.21135" lon="5.40268">
        <ele>840</ele>
        <time>2026-05-13T12:05:22.000Z</time>
      </trkpt>
      <trkpt lat="44.21137" lon="5.40271">
        <ele>840</ele>
        <time>2026-05-13T12:05:23.000Z</time>
      </trkpt>
      <trkpt lat="44.21139" lon="5.40273">
        <ele>840</ele>
        <time>2026-05-13T12:05:24.000Z</time>
      </trkpt>
      <trkpt lat="44.21141" lon="5.40275">
        <ele>840</ele>
        <time>2026-05-13T12:05:25.000Z</time>
      </trkpt>
      <trkpt lat="44.21143" lon="5.40277">
        <ele>840</ele>
        <time>2026-05-13T12:05:26.000Z</time>
      </trkpt>
      <trkpt lat="44.21145" lon="5.40279">
        <ele>840</ele>
        <time>2026-05-13T12:05:27.000Z</time>
      </trkpt>
      <trkpt lat="44.21148" lon="5.4028">
        <ele>840</ele>
        <time>2026-05-13T12:05:28.000Z</time>
      </trkpt>
      <trkpt lat="44.2115" lon="5.40281">
        <ele>840</ele>
        <time>2026-05-13T12:05:29.000Z</time>
      </trkpt>
      <trkpt lat="44.21153" lon="5.40282">
        <ele>840</ele>
        <time>2026-05-13T12:05:30.000Z</time>
      </trkpt>
      <trkpt lat="44.21155" lon="5.40283">
        <ele>840</ele>
        <time>2026-05-13T12:05:31.000Z</time>
      </trkpt>
      <trkpt lat="44.21158" lon="5.40283">
        <ele>840</ele>
        <time>2026-05-13T12:05:32.000Z</time>
      </trkpt>
      <trkpt lat="44.2116" lon="5.40283">
        <ele>840</ele>
        <time>2026-05-13T12:05:33.000Z</time>
      </trkpt>
      <trkpt lat="44.21162" lon="5.40283">
        <ele>840</ele>
        <time>2026-05-13T12:05:34.000Z</time>
      </trkpt>
      <trkpt lat="44.21164" lon="5.40283">
        <ele>840</ele>
        <time>2026-05-13T12:05:35.000Z</time>
      </trkpt>
      <trkpt lat="44.21167" lon="5.40284">
        <ele>840</ele>
        <time>2026-05-13T12:05:36.000Z</time>
      </trkpt>
      <trkpt lat="44.21169" lon="5.40285">
        <ele>840</ele>
        <time>2026-05-13T12:05:37.000Z</time>
      </trkpt>
      <trkpt lat="44.21172" lon="5.40286">
        <ele>840</ele>
        <time>2026-05-13T12:05:38.000Z</time>
      </trkpt>
      <trkpt lat="44.21175" lon="5.40287">
        <ele>840</ele>
        <time>2026-05-13T12:05:39.000Z</time>
      </trkpt>
      <trkpt lat="44.21177" lon="5.40288">
        <ele>840</ele>
        <time>2026-05-13T12:05:40.000Z</time>
      </trkpt>
      <trkpt lat="44.2118" lon="5.40289">
        <ele>840</ele>
        <time>2026-05-13T12:05:41.000Z</time>
      </trkpt>
      <trkpt lat="44.21182" lon="5.40291">
        <ele>841</ele>
        <time>2026-05-13T12:05:42.000Z</time>
      </trkpt>
      <trkpt lat="44.21184" lon="5.40294">
        <ele>840</ele>
        <time>2026-05-13T12:05:43.000Z</time>
      </trkpt>
      <trkpt lat="44.21186" lon="5.40296">
        <ele>840</ele>
        <time>2026-05-13T12:05:44.000Z</time>
      </trkpt>
      <trkpt lat="44.21189" lon="5.40297">
        <ele>840</ele>
        <time>2026-05-13T12:05:45.000Z</time>
      </trkpt>
      <trkpt lat="44.21192" lon="5.40298">
        <ele>840</ele>
        <time>2026-05-13T12:05:46.000Z</time>
      </trkpt>
      <trkpt lat="44.21194" lon="5.40298">
        <ele>840</ele>
        <time>2026-05-13T12:05:47.000Z</time>
      </trkpt>
      <trkpt lat="44.21197" lon="5.40296">
        <ele>840</ele>
        <time>2026-05-13T12:05:48.000Z</time>
      </trkpt>
      <trkpt lat="44.21199" lon="5.40294">
        <ele>841</ele>
        <time>2026-05-13T12:05:49.000Z</time>
      </trkpt>
      <trkpt lat="44.21201" lon="5.4029">
        <ele>841</ele>
        <time>2026-05-13T12:05:50.000Z</time>
      </trkpt>
      <trkpt lat="44.21202" lon="5.40287">
        <ele>841</ele>
        <time>2026-05-13T12:05:51.000Z</time>
      </trkpt>
      <trkpt lat="44.21202" lon="5.40283">
        <ele>840</ele>
        <time>2026-05-13T12:05:52.000Z</time>
      </trkpt>
      <trkpt lat="44.21202" lon="5.40279">
        <ele>840</ele>
        <time>2026-05-13T12:05:53.000Z</time>
      </trkpt>
      <trkpt lat="44.21201" lon="5.40276">
        <ele>840</ele>
        <time>2026-05-13T12:05:54.000Z</time>
      </trkpt>
      <trkpt lat="44.212" lon="5.40272">
        <ele>839</ele>
        <time>2026-05-13T12:05:55.000Z</time>
      </trkpt>
      <trkpt lat="44.21199" lon="5.40269">
        <ele>839</ele>
        <time>2026-05-13T12:05:56.000Z</time>
      </trkpt>
      <trkpt lat="44.21197" lon="5.40265">
        <ele>840</ele>
        <time>2026-05-13T12:05:57.000Z</time>
      </trkpt>
      <trkpt lat="44.21195" lon="5.40263">
        <ele>840</ele>
        <time>2026-05-13T12:05:58.000Z</time>
      </trkpt>
      <trkpt lat="44.21193" lon="5.40261">
        <ele>840</ele>
        <time>2026-05-13T12:05:59.000Z</time>
      </trkpt>
      <trkpt lat="44.21191" lon="5.40258">
        <ele>840</ele>
        <time>2026-05-13T12:06:00.000Z</time>
      </trkpt>
      <trkpt lat="44.21189" lon="5.40256">
        <ele>840</ele>
        <time>2026-05-13T12:06:01.000Z</time>
      </trkpt>
      <trkpt lat="44.21187" lon="5.40253">
        <ele>841</ele>
        <time>2026-05-13T12:06:02.000Z</time>
      </trkpt>
      <trkpt lat="44.21185" lon="5.4025">
        <ele>841</ele>
        <time>2026-05-13T12:06:03.000Z</time>
      </trkpt>
      <trkpt lat="44.21184" lon="5.40247">
        <ele>841</ele>
        <time>2026-05-13T12:06:04.000Z</time>
      </trkpt>
      <trkpt lat="44.21182" lon="5.40243">
        <ele>841</ele>
        <time>2026-05-13T12:06:05.000Z</time>
      </trkpt>
      <trkpt lat="44.21182" lon="5.40239">
        <ele>841</ele>
        <time>2026-05-13T12:06:06.000Z</time>
      </trkpt>
      <trkpt lat="44.21182" lon="5.40235">
        <ele>842</ele>
        <time>2026-05-13T12:06:07.000Z</time>
      </trkpt>
      <trkpt lat="44.21182" lon="5.40232">
        <ele>842</ele>
        <time>2026-05-13T12:06:08.000Z</time>
      </trkpt>
      <trkpt lat="44.21182" lon="5.40228">
        <ele>842</ele>
        <time>2026-05-13T12:06:09.000Z</time>
      </trkpt>
      <trkpt lat="44.21183" lon="5.40224">
        <ele>842</ele>
        <time>2026-05-13T12:06:10.000Z</time>
      </trkpt>
      <trkpt lat="44.21183" lon="5.40221">
        <ele>842</ele>
        <time>2026-05-13T12:06:11.000Z</time>
      </trkpt>
      <trkpt lat="44.21184" lon="5.40217">
        <ele>842</ele>
        <time>2026-05-13T12:06:12.000Z</time>
      </trkpt>
      <trkpt lat="44.21185" lon="5.40215">
        <ele>843</ele>
        <time>2026-05-13T12:06:13.000Z</time>
      </trkpt>
      <trkpt lat="44.21186" lon="5.40212">
        <ele>843</ele>
        <time>2026-05-13T12:06:14.000Z</time>
      </trkpt>
      <trkpt lat="44.21186" lon="5.40209">
        <ele>844</ele>
        <time>2026-05-13T12:06:15.000Z</time>
      </trkpt>
      <trkpt lat="44.21187" lon="5.40206">
        <ele>844</ele>
        <time>2026-05-13T12:06:16.000Z</time>
      </trkpt>
      <trkpt lat="44.21188" lon="5.40203">
        <ele>844</ele>
        <time>2026-05-13T12:06:17.000Z</time>
      </trkpt>
      <trkpt lat="44.21189" lon="5.402">
        <ele>844</ele>
        <time>2026-05-13T12:06:18.000Z</time>
      </trkpt>
      <trkpt lat="44.2119" lon="5.40197">
        <ele>844</ele>
        <time>2026-05-13T12:06:19.000Z</time>
      </trkpt>
      <trkpt lat="44.21191" lon="5.40194">
        <ele>844</ele>
        <time>2026-05-13T12:06:20.000Z</time>
      </trkpt>
      <trkpt lat="44.21191" lon="5.4019">
        <ele>845</ele>
        <time>2026-05-13T12:06:21.000Z</time>
      </trkpt>
      <trkpt lat="44.21192" lon="5.40187">
        <ele>845</ele>
        <time>2026-05-13T12:06:22.000Z</time>
      </trkpt>
      <trkpt lat="44.21193" lon="5.40185">
        <ele>845</ele>
        <time>2026-05-13T12:06:23.000Z</time>
      </trkpt>
      <trkpt lat="44.21194" lon="5.40181">
        <ele>845</ele>
        <time>2026-05-13T12:06:24.000Z</time>
      </trkpt>
      <trkpt lat="44.21194" lon="5.40178">
        <ele>845</ele>
        <time>2026-05-13T12:06:25.000Z</time>
      </trkpt>
      <trkpt lat="44.21195" lon="5.40175">
        <ele>845</ele>
        <time>2026-05-13T12:06:26.000Z</time>
      </trkpt>
      <trkpt lat="44.21195" lon="5.40172">
        <ele>845</ele>
        <time>2026-05-13T12:06:27.000Z</time>
      </trkpt>
      <trkpt lat="44.21196" lon="5.40169">
        <ele>845</ele>
        <time>2026-05-13T12:06:28.000Z</time>
      </trkpt>
      <trkpt lat="44.21196" lon="5.40165">
        <ele>845</ele>
        <time>2026-05-13T12:06:29.000Z</time>
      </trkpt>
      <trkpt lat="44.21196" lon="5.40161">
        <ele>846</ele>
        <time>2026-05-13T12:06:30.000Z</time>
      </trkpt>
      <trkpt lat="44.21196" lon="5.40158">
        <ele>846</ele>
        <time>2026-05-13T12:06:31.000Z</time>
      </trkpt>
      <trkpt lat="44.21196" lon="5.40154">
        <ele>846</ele>
        <time>2026-05-13T12:06:32.000Z</time>
      </trkpt>
      <trkpt lat="44.21196" lon="5.40151">
        <ele>846</ele>
        <time>2026-05-13T12:06:33.000Z</time>
      </trkpt>
      <trkpt lat="44.21196" lon="5.40147">
        <ele>847</ele>
        <time>2026-05-13T12:06:34.000Z</time>
      </trkpt>
      <trkpt lat="44.21196" lon="5.40144">
        <ele>847</ele>
        <time>2026-05-13T12:06:35.000Z</time>
      </trkpt>
      <trkpt lat="44.21195" lon="5.4014">
        <ele>847</ele>
        <time>2026-05-13T12:06:36.000Z</time>
      </trkpt>
      <trkpt lat="44.21195" lon="5.40138">
        <ele>847</ele>
        <time>2026-05-13T12:06:37.000Z</time>
      </trkpt>
      <trkpt lat="44.21195" lon="5.40134">
        <ele>847</ele>
        <time>2026-05-13T12:06:38.000Z</time>
      </trkpt>
      <trkpt lat="44.21195" lon="5.40131">
        <ele>846</ele>
        <time>2026-05-13T12:06:39.000Z</time>
      </trkpt>
      <trkpt lat="44.21194" lon="5.40127">
        <ele>846</ele>
        <time>2026-05-13T12:06:40.000Z</time>
      </trkpt>
      <trkpt lat="44.21194" lon="5.40124">
        <ele>846</ele>
        <time>2026-05-13T12:06:41.000Z</time>
      </trkpt>
      <trkpt lat="44.21194" lon="5.4012">
        <ele>847</ele>
        <time>2026-05-13T12:06:42.000Z</time>
      </trkpt>
      <trkpt lat="44.21194" lon="5.40117">
        <ele>846</ele>
        <time>2026-05-13T12:06:43.000Z</time>
      </trkpt>
      <trkpt lat="44.21193" lon="5.40114">
        <ele>847</ele>
        <time>2026-05-13T12:06:44.000Z</time>
      </trkpt>
      <trkpt lat="44.21192" lon="5.40111">
        <ele>847</ele>
        <time>2026-05-13T12:06:45.000Z</time>
      </trkpt>
      <trkpt lat="44.21192" lon="5.40108">
        <ele>847</ele>
        <time>2026-05-13T12:06:46.000Z</time>
      </trkpt>
      <trkpt lat="44.21192" lon="5.40105">
        <ele>847</ele>
        <time>2026-05-13T12:06:47.000Z</time>
      </trkpt>
      <trkpt lat="44.21192" lon="5.40101">
        <ele>847</ele>
        <time>2026-05-13T12:06:48.000Z</time>
      </trkpt>
      <trkpt lat="44.21191" lon="5.40098">
        <ele>847</ele>
        <time>2026-05-13T12:06:49.000Z</time>
      </trkpt>
      <trkpt lat="44.21191" lon="5.40095">
        <ele>847</ele>
        <time>2026-05-13T12:06:50.000Z</time>
      </trkpt>
      <trkpt lat="44.21191" lon="5.40092">
        <ele>847</ele>
        <time>2026-05-13T12:06:51.000Z</time>
      </trkpt>
      <trkpt lat="44.21191" lon="5.40089">
        <ele>847</ele>
        <time>2026-05-13T12:06:52.000Z</time>
      </trkpt>
      <trkpt lat="44.21191" lon="5.40086">
        <ele>847</ele>
        <time>2026-05-13T12:06:53.000Z</time>
      </trkpt>
      <trkpt lat="44.21191" lon="5.40083">
        <ele>847</ele>
        <time>2026-05-13T12:06:54.000Z</time>
      </trkpt>
      <trkpt lat="44.21191" lon="5.4008">
        <ele>847</ele>
        <time>2026-05-13T12:06:55.000Z</time>
      </trkpt>
      <trkpt lat="44.21191" lon="5.40076">
        <ele>847</ele>
        <time>2026-05-13T12:06:56.000Z</time>
      </trkpt>
      <trkpt lat="44.21191" lon="5.40073">
        <ele>847</ele>
        <time>2026-05-13T12:06:57.000Z</time>
      </trkpt>
      <trkpt lat="44.21191" lon="5.4007">
        <ele>848</ele>
        <time>2026-05-13T12:06:58.000Z</time>
      </trkpt>
      <trkpt lat="44.21192" lon="5.40066">
        <ele>848</ele>
        <time>2026-05-13T12:06:59.000Z</time>
      </trkpt>
      <trkpt lat="44.21192" lon="5.40062">
        <ele>848</ele>
        <time>2026-05-13T12:07:00.000Z</time>
      </trkpt>
      <trkpt lat="44.21193" lon="5.4006">
        <ele>848</ele>
        <time>2026-05-13T12:07:01.000Z</time>
      </trkpt>
      <trkpt lat="44.21193" lon="5.40056">
        <ele>848</ele>
        <time>2026-05-13T12:07:02.000Z</time>
      </trkpt>
      <trkpt lat="44.21194" lon="5.40054">
        <ele>848</ele>
        <time>2026-05-13T12:07:03.000Z</time>
      </trkpt>
      <trkpt lat="44.21194" lon="5.40051">
        <ele>848</ele>
        <time>2026-05-13T12:07:04.000Z</time>
      </trkpt>
      <trkpt lat="44.21195" lon="5.40048">
        <ele>848</ele>
        <time>2026-05-13T12:07:05.000Z</time>
      </trkpt>
      <trkpt lat="44.21196" lon="5.40046">
        <ele>848</ele>
        <time>2026-05-13T12:07:06.000Z</time>
      </trkpt>
      <trkpt lat="44.21197" lon="5.40044">
        <ele>848</ele>
        <time>2026-05-13T12:07:07.000Z</time>
      </trkpt>
      <trkpt lat="44.21198" lon="5.40041">
        <ele>848</ele>
        <time>2026-05-13T12:07:08.000Z</time>
      </trkpt>
      <trkpt lat="44.21199" lon="5.40038">
        <ele>848</ele>
        <time>2026-05-13T12:07:09.000Z</time>
      </trkpt>
      <trkpt lat="44.212" lon="5.40035">
        <ele>847</ele>
        <time>2026-05-13T12:07:10.000Z</time>
      </trkpt>
      <trkpt lat="44.21201" lon="5.40033">
        <ele>847</ele>
        <time>2026-05-13T12:07:11.000Z</time>
      </trkpt>
      <trkpt lat="44.21203" lon="5.4003">
        <ele>847</ele>
        <time>2026-05-13T12:07:12.000Z</time>
      </trkpt>
      <trkpt lat="44.21204" lon="5.40027">
        <ele>847</ele>
        <time>2026-05-13T12:07:13.000Z</time>
      </trkpt>
      <trkpt lat="44.21205" lon="5.40025">
        <ele>847</ele>
        <time>2026-05-13T12:07:14.000Z</time>
      </trkpt>
      <trkpt lat="44.21206" lon="5.40022">
        <ele>847</ele>
        <time>2026-05-13T12:07:15.000Z</time>
      </trkpt>
      <trkpt lat="44.21207" lon="5.4002">
        <ele>847</ele>
        <time>2026-05-13T12:07:16.000Z</time>
      </trkpt>
      <trkpt lat="44.21208" lon="5.40017">
        <ele>847</ele>
        <time>2026-05-13T12:07:17.000Z</time>
      </trkpt>
      <trkpt lat="44.21209" lon="5.40014">
        <ele>848</ele>
        <time>2026-05-13T12:07:18.000Z</time>
      </trkpt>
      <trkpt lat="44.2121" lon="5.40012">
        <ele>847</ele>
        <time>2026-05-13T12:07:19.000Z</time>
      </trkpt>
      <trkpt lat="44.21211" lon="5.40009">
        <ele>847</ele>
        <time>2026-05-13T12:07:20.000Z</time>
      </trkpt>
      <trkpt lat="44.21212" lon="5.40007">
        <ele>848</ele>
        <time>2026-05-13T12:07:21.000Z</time>
      </trkpt>
      <trkpt lat="44.21214" lon="5.40004">
        <ele>848</ele>
        <time>2026-05-13T12:07:22.000Z</time>
      </trkpt>
      <trkpt lat="44.21215" lon="5.40001">
        <ele>848</ele>
        <time>2026-05-13T12:07:23.000Z</time>
      </trkpt>
      <trkpt lat="44.21216" lon="5.4">
        <ele>848</ele>
        <time>2026-05-13T12:07:24.000Z</time>
      </trkpt>
      <trkpt lat="44.21217" lon="5.39997">
        <ele>848</ele>
        <time>2026-05-13T12:07:25.000Z</time>
      </trkpt>
      <trkpt lat="44.21218" lon="5.39995">
        <ele>848</ele>
        <time>2026-05-13T12:07:26.000Z</time>
      </trkpt>
      <trkpt lat="44.21219" lon="5.39993">
        <ele>848</ele>
        <time>2026-05-13T12:07:27.000Z</time>
      </trkpt>
      <trkpt lat="44.2122" lon="5.3999">
        <ele>848</ele>
        <time>2026-05-13T12:07:28.000Z</time>
      </trkpt>
      <trkpt lat="44.2122" lon="5.39988">
        <ele>848</ele>
        <time>2026-05-13T12:07:29.000Z</time>
      </trkpt>
      <trkpt lat="44.21221" lon="5.39985">
        <ele>848</ele>
        <time>2026-05-13T12:07:30.000Z</time>
      </trkpt>
      <trkpt lat="44.21222" lon="5.39984">
        <ele>848</ele>
        <time>2026-05-13T12:07:31.000Z</time>
      </trkpt>
      <trkpt lat="44.21223" lon="5.39982">
        <ele>848</ele>
        <time>2026-05-13T12:07:32.000Z</time>
      </trkpt>
      <trkpt lat="44.21224" lon="5.39979">
        <ele>848</ele>
        <time>2026-05-13T12:07:33.000Z</time>
      </trkpt>
      <trkpt lat="44.21225" lon="5.39976">
        <ele>848</ele>
        <time>2026-05-13T12:07:34.000Z</time>
      </trkpt>
      <trkpt lat="44.21225" lon="5.39975">
        <ele>848</ele>
        <time>2026-05-13T12:07:35.000Z</time>
      </trkpt>
      <trkpt lat="44.21226" lon="5.39973">
        <ele>848</ele>
        <time>2026-05-13T12:07:36.000Z</time>
      </trkpt>
      <trkpt lat="44.21227" lon="5.3997">
        <ele>848</ele>
        <time>2026-05-13T12:07:37.000Z</time>
      </trkpt>
      <trkpt lat="44.21228" lon="5.39968">
        <ele>847</ele>
        <time>2026-05-13T12:07:38.000Z</time>
      </trkpt>
      <trkpt lat="44.21229" lon="5.39966">
        <ele>847</ele>
        <time>2026-05-13T12:07:39.000Z</time>
      </trkpt>
      <trkpt lat="44.21229" lon="5.39964">
        <ele>848</ele>
        <time>2026-05-13T12:07:40.000Z</time>
      </trkpt>
      <trkpt lat="44.2123" lon="5.39961">
        <ele>848</ele>
        <time>2026-05-13T12:07:41.000Z</time>
      </trkpt>
      <trkpt lat="44.21231" lon="5.39959">
        <ele>848</ele>
        <time>2026-05-13T12:07:42.000Z</time>
      </trkpt>
      <trkpt lat="44.21232" lon="5.39956">
        <ele>848</ele>
        <time>2026-05-13T12:07:43.000Z</time>
      </trkpt>
      <trkpt lat="44.21233" lon="5.39954">
        <ele>848</ele>
        <time>2026-05-13T12:07:44.000Z</time>
      </trkpt>
      <trkpt lat="44.21234" lon="5.39952">
        <ele>848</ele>
        <time>2026-05-13T12:07:45.000Z</time>
      </trkpt>
      <trkpt lat="44.21235" lon="5.3995">
        <ele>848</ele>
        <time>2026-05-13T12:07:46.000Z</time>
      </trkpt>
      <trkpt lat="44.21237" lon="5.39948">
        <ele>848</ele>
        <time>2026-05-13T12:07:47.000Z</time>
      </trkpt>
      <trkpt lat="44.21238" lon="5.39946">
        <ele>848</ele>
        <time>2026-05-13T12:07:48.000Z</time>
      </trkpt>
      <trkpt lat="44.21239" lon="5.39944">
        <ele>848</ele>
        <time>2026-05-13T12:07:49.000Z</time>
      </trkpt>
      <trkpt lat="44.21239" lon="5.39942">
        <ele>848</ele>
        <time>2026-05-13T12:07:50.000Z</time>
      </trkpt>
      <trkpt lat="44.21241" lon="5.3994">
        <ele>849</ele>
        <time>2026-05-13T12:07:51.000Z</time>
      </trkpt>
      <trkpt lat="44.21242" lon="5.39938">
        <ele>849</ele>
        <time>2026-05-13T12:07:52.000Z</time>
      </trkpt>
      <trkpt lat="44.21243" lon="5.39938">
        <ele>849</ele>
        <time>2026-05-13T12:07:53.000Z</time>
      </trkpt>
      <trkpt lat="44.21244" lon="5.39938">
        <ele>849</ele>
        <time>2026-05-13T12:07:54.000Z</time>
      </trkpt>
      <trkpt lat="44.21246" lon="5.39938">
        <ele>849</ele>
        <time>2026-05-13T12:07:55.000Z</time>
      </trkpt>
      <trkpt lat="44.21247" lon="5.39936">
        <ele>849</ele>
        <time>2026-05-13T12:07:56.000Z</time>
      </trkpt>
      <trkpt lat="44.21248" lon="5.39934">
        <ele>849</ele>
        <time>2026-05-13T12:07:57.000Z</time>
      </trkpt>
      <trkpt lat="44.21249" lon="5.39932">
        <ele>850</ele>
        <time>2026-05-13T12:07:58.000Z</time>
      </trkpt>
      <trkpt lat="44.2125" lon="5.39931">
        <ele>850</ele>
        <time>2026-05-13T12:07:59.000Z</time>
      </trkpt>
      <trkpt lat="44.21252" lon="5.39929">
        <ele>851</ele>
        <time>2026-05-13T12:08:00.000Z</time>
      </trkpt>
      <trkpt lat="44.21253" lon="5.39928">
        <ele>851</ele>
        <time>2026-05-13T12:08:01.000Z</time>
      </trkpt>
      <trkpt lat="44.21255" lon="5.39926">
        <ele>850</ele>
        <time>2026-05-13T12:08:02.000Z</time>
      </trkpt>
      <trkpt lat="44.21256" lon="5.39924">
        <ele>851</ele>
        <time>2026-05-13T12:08:03.000Z</time>
      </trkpt>
      <trkpt lat="44.21258" lon="5.39923">
        <ele>850</ele>
        <time>2026-05-13T12:08:04.000Z</time>
      </trkpt>
      <trkpt lat="44.21259" lon="5.39922">
        <ele>850</ele>
        <time>2026-05-13T12:08:05.000Z</time>
      </trkpt>
      <trkpt lat="44.21261" lon="5.3992">
        <ele>850</ele>
        <time>2026-05-13T12:08:06.000Z</time>
      </trkpt>
      <trkpt lat="44.21262" lon="5.39919">
        <ele>849</ele>
        <time>2026-05-13T12:08:07.000Z</time>
      </trkpt>
      <trkpt lat="44.21264" lon="5.39918">
        <ele>849</ele>
        <time>2026-05-13T12:08:08.000Z</time>
      </trkpt>
      <trkpt lat="44.21266" lon="5.39916">
        <ele>850</ele>
        <time>2026-05-13T12:08:09.000Z</time>
      </trkpt>
      <trkpt lat="44.21268" lon="5.39915">
        <ele>850</ele>
        <time>2026-05-13T12:08:10.000Z</time>
      </trkpt>
      <trkpt lat="44.2127" lon="5.39914">
        <ele>850</ele>
        <time>2026-05-13T12:08:11.000Z</time>
      </trkpt>
      <trkpt lat="44.21272" lon="5.39913">
        <ele>850</ele>
        <time>2026-05-13T12:08:12.000Z</time>
      </trkpt>
      <trkpt lat="44.21274" lon="5.39913">
        <ele>851</ele>
        <time>2026-05-13T12:08:13.000Z</time>
      </trkpt>
      <trkpt lat="44.21276" lon="5.39913">
        <ele>851</ele>
        <time>2026-05-13T12:08:14.000Z</time>
      </trkpt>
      <trkpt lat="44.21278" lon="5.39913">
        <ele>851</ele>
        <time>2026-05-13T12:08:15.000Z</time>
      </trkpt>
      <trkpt lat="44.2128" lon="5.39914">
        <ele>852</ele>
        <time>2026-05-13T12:08:16.000Z</time>
      </trkpt>
      <trkpt lat="44.21283" lon="5.39915">
        <ele>852</ele>
        <time>2026-05-13T12:08:17.000Z</time>
      </trkpt>
      <trkpt lat="44.21285" lon="5.39915">
        <ele>852</ele>
        <time>2026-05-13T12:08:18.000Z</time>
      </trkpt>
      <trkpt lat="44.21287" lon="5.39915">
        <ele>852</ele>
        <time>2026-05-13T12:08:19.000Z</time>
      </trkpt>
      <trkpt lat="44.21289" lon="5.39914">
        <ele>852</ele>
        <time>2026-05-13T12:08:20.000Z</time>
      </trkpt>
      <trkpt lat="44.21291" lon="5.39914">
        <ele>853</ele>
        <time>2026-05-13T12:08:21.000Z</time>
      </trkpt>
      <trkpt lat="44.21293" lon="5.39913">
        <ele>853</ele>
        <time>2026-05-13T12:08:22.000Z</time>
      </trkpt>
      <trkpt lat="44.21295" lon="5.39913">
        <ele>853</ele>
        <time>2026-05-13T12:08:23.000Z</time>
      </trkpt>
      <trkpt lat="44.21297" lon="5.39912">
        <ele>853</ele>
        <time>2026-05-13T12:08:24.000Z</time>
      </trkpt>
      <trkpt lat="44.21299" lon="5.39911">
        <ele>853</ele>
        <time>2026-05-13T12:08:25.000Z</time>
      </trkpt>
      <trkpt lat="44.21301" lon="5.3991">
        <ele>853</ele>
        <time>2026-05-13T12:08:26.000Z</time>
      </trkpt>
      <trkpt lat="44.21303" lon="5.39909">
        <ele>852</ele>
        <time>2026-05-13T12:08:27.000Z</time>
      </trkpt>
      <trkpt lat="44.21305" lon="5.39907">
        <ele>852</ele>
        <time>2026-05-13T12:08:28.000Z</time>
      </trkpt>
      <trkpt lat="44.21306" lon="5.39905">
        <ele>852</ele>
        <time>2026-05-13T12:08:29.000Z</time>
      </trkpt>
      <trkpt lat="44.21308" lon="5.39904">
        <ele>852</ele>
        <time>2026-05-13T12:08:30.000Z</time>
      </trkpt>
      <trkpt lat="44.2131" lon="5.39902">
        <ele>852</ele>
        <time>2026-05-13T12:08:31.000Z</time>
      </trkpt>
      <trkpt lat="44.21311" lon="5.39901">
        <ele>852</ele>
        <time>2026-05-13T12:08:32.000Z</time>
      </trkpt>
      <trkpt lat="44.21313" lon="5.39899">
        <ele>852</ele>
        <time>2026-05-13T12:08:33.000Z</time>
      </trkpt>
      <trkpt lat="44.21314" lon="5.39897">
        <ele>853</ele>
        <time>2026-05-13T12:08:34.000Z</time>
      </trkpt>
      <trkpt lat="44.21316" lon="5.39896">
        <ele>853</ele>
        <time>2026-05-13T12:08:35.000Z</time>
      </trkpt>
      <trkpt lat="44.21317" lon="5.39894">
        <ele>853</ele>
        <time>2026-05-13T12:08:36.000Z</time>
      </trkpt>
      <trkpt lat="44.21319" lon="5.39893">
        <ele>853</ele>
        <time>2026-05-13T12:08:37.000Z</time>
      </trkpt>
      <trkpt lat="44.2132" lon="5.39892">
        <ele>853</ele>
        <time>2026-05-13T12:08:38.000Z</time>
      </trkpt>
      <trkpt lat="44.21322" lon="5.39891">
        <ele>853</ele>
        <time>2026-05-13T12:08:39.000Z</time>
      </trkpt>
      <trkpt lat="44.21323" lon="5.39889">
        <ele>853</ele>
        <time>2026-05-13T12:08:40.000Z</time>
      </trkpt>
      <trkpt lat="44.21325" lon="5.39887">
        <ele>852</ele>
        <time>2026-05-13T12:08:41.000Z</time>
      </trkpt>
      <trkpt lat="44.21327" lon="5.39886">
        <ele>853</ele>
        <time>2026-05-13T12:08:42.000Z</time>
      </trkpt>
      <trkpt lat="44.21329" lon="5.39885">
        <ele>853</ele>
        <time>2026-05-13T12:08:43.000Z</time>
      </trkpt>
      <trkpt lat="44.21331" lon="5.39883">
        <ele>853</ele>
        <time>2026-05-13T12:08:44.000Z</time>
      </trkpt>
      <trkpt lat="44.21332" lon="5.39881">
        <ele>853</ele>
        <time>2026-05-13T12:08:45.000Z</time>
      </trkpt>
      <trkpt lat="44.21333" lon="5.3988">
        <ele>854</ele>
        <time>2026-05-13T12:08:46.000Z</time>
      </trkpt>
      <trkpt lat="44.21335" lon="5.39879">
        <ele>854</ele>
        <time>2026-05-13T12:08:47.000Z</time>
      </trkpt>
      <trkpt lat="44.21336" lon="5.39878">
        <ele>854</ele>
        <time>2026-05-13T12:08:48.000Z</time>
      </trkpt>
      <trkpt lat="44.21338" lon="5.39877">
        <ele>854</ele>
        <time>2026-05-13T12:08:49.000Z</time>
      </trkpt>
      <trkpt lat="44.2134" lon="5.39876">
        <ele>854</ele>
        <time>2026-05-13T12:08:50.000Z</time>
      </trkpt>
      <trkpt lat="44.21341" lon="5.39874">
        <ele>854</ele>
        <time>2026-05-13T12:08:51.000Z</time>
      </trkpt>
      <trkpt lat="44.21343" lon="5.39873">
        <ele>855</ele>
        <time>2026-05-13T12:08:52.000Z</time>
      </trkpt>
      <trkpt lat="44.21344" lon="5.39872">
        <ele>855</ele>
        <time>2026-05-13T12:08:53.000Z</time>
      </trkpt>
      <trkpt lat="44.21345" lon="5.39871">
        <ele>855</ele>
        <time>2026-05-13T12:08:54.000Z</time>
      </trkpt>
      <trkpt lat="44.21347" lon="5.3987">
        <ele>855</ele>
        <time>2026-05-13T12:08:55.000Z</time>
      </trkpt>
      <trkpt lat="44.21348" lon="5.39869">
        <ele>855</ele>
        <time>2026-05-13T12:08:56.000Z</time>
      </trkpt>
      <trkpt lat="44.2135" lon="5.39868">
        <ele>855</ele>
        <time>2026-05-13T12:08:57.000Z</time>
      </trkpt>
      <trkpt lat="44.21352" lon="5.39867">
        <ele>855</ele>
        <time>2026-05-13T12:08:58.000Z</time>
      </trkpt>
      <trkpt lat="44.21354" lon="5.39866">
        <ele>855</ele>
        <time>2026-05-13T12:08:59.000Z</time>
      </trkpt>
      <trkpt lat="44.21355" lon="5.39865">
        <ele>855</ele>
        <time>2026-05-13T12:09:00.000Z</time>
      </trkpt>
      <trkpt lat="44.21357" lon="5.39863">
        <ele>856</ele>
        <time>2026-05-13T12:09:01.000Z</time>
      </trkpt>
      <trkpt lat="44.21358" lon="5.39862">
        <ele>856</ele>
        <time>2026-05-13T12:09:02.000Z</time>
      </trkpt>
      <trkpt lat="44.2136" lon="5.39861">
        <ele>856</ele>
        <time>2026-05-13T12:09:03.000Z</time>
      </trkpt>
      <trkpt lat="44.21361" lon="5.3986">
        <ele>857</ele>
        <time>2026-05-13T12:09:04.000Z</time>
      </trkpt>
      <trkpt lat="44.21363" lon="5.39859">
        <ele>857</ele>
        <time>2026-05-13T12:09:05.000Z</time>
      </trkpt>
      <trkpt lat="44.21364" lon="5.39858">
        <ele>857</ele>
        <time>2026-05-13T12:09:06.000Z</time>
      </trkpt>
      <trkpt lat="44.21366" lon="5.39856">
        <ele>857</ele>
        <time>2026-05-13T12:09:07.000Z</time>
      </trkpt>
      <trkpt lat="44.21368" lon="5.39855">
        <ele>857</ele>
        <time>2026-05-13T12:09:08.000Z</time>
      </trkpt>
      <trkpt lat="44.21369" lon="5.39854">
        <ele>857</ele>
        <time>2026-05-13T12:09:09.000Z</time>
      </trkpt>
      <trkpt lat="44.2137" lon="5.39854">
        <ele>858</ele>
        <time>2026-05-13T12:09:10.000Z</time>
      </trkpt>
      <trkpt lat="44.21372" lon="5.39853">
        <ele>858</ele>
        <time>2026-05-13T12:09:11.000Z</time>
      </trkpt>
      <trkpt lat="44.21373" lon="5.39851">
        <ele>858</ele>
        <time>2026-05-13T12:09:12.000Z</time>
      </trkpt>
      <trkpt lat="44.21374" lon="5.3985">
        <ele>858</ele>
        <time>2026-05-13T12:09:13.000Z</time>
      </trkpt>
      <trkpt lat="44.21376" lon="5.39849">
        <ele>858</ele>
        <time>2026-05-13T12:09:14.000Z</time>
      </trkpt>
      <trkpt lat="44.21378" lon="5.39848">
        <ele>858</ele>
        <time>2026-05-13T12:09:15.000Z</time>
      </trkpt>
      <trkpt lat="44.21379" lon="5.39847">
        <ele>858</ele>
        <time>2026-05-13T12:09:16.000Z</time>
      </trkpt>
      <trkpt lat="44.2138" lon="5.39846">
        <ele>858</ele>
        <time>2026-05-13T12:09:17.000Z</time>
      </trkpt>
      <trkpt lat="44.21381" lon="5.39845">
        <ele>859</ele>
        <time>2026-05-13T12:09:18.000Z</time>
      </trkpt>
      <trkpt lat="44.21383" lon="5.39844">
        <ele>859</ele>
        <time>2026-05-13T12:09:19.000Z</time>
      </trkpt>
      <trkpt lat="44.21384" lon="5.39843">
        <ele>859</ele>
        <time>2026-05-13T12:09:20.000Z</time>
      </trkpt>
      <trkpt lat="44.21386" lon="5.39842">
        <ele>859</ele>
        <time>2026-05-13T12:09:21.000Z</time>
      </trkpt>
      <trkpt lat="44.21387" lon="5.39841">
        <ele>859</ele>
        <time>2026-05-13T12:09:22.000Z</time>
      </trkpt>
      <trkpt lat="44.21388" lon="5.39841">
        <ele>859</ele>
        <time>2026-05-13T12:09:23.000Z</time>
      </trkpt>
      <trkpt lat="44.21389" lon="5.3984">
        <ele>859</ele>
        <time>2026-05-13T12:09:24.000Z</time>
      </trkpt>
      <trkpt lat="44.2139" lon="5.3984">
        <ele>859</ele>
        <time>2026-05-13T12:09:25.000Z</time>
      </trkpt>
      <trkpt lat="44.21392" lon="5.39839">
        <ele>859</ele>
        <time>2026-05-13T12:09:26.000Z</time>
      </trkpt>
      <trkpt lat="44.21393" lon="5.39838">
        <ele>859</ele>
        <time>2026-05-13T12:09:27.000Z</time>
      </trkpt>
      <trkpt lat="44.21395" lon="5.39837">
        <ele>859</ele>
        <time>2026-05-13T12:09:28.000Z</time>
      </trkpt>
      <trkpt lat="44.21396" lon="5.39836">
        <ele>860</ele>
        <time>2026-05-13T12:09:29.000Z</time>
      </trkpt>
      <trkpt lat="44.21398" lon="5.39835">
        <ele>860</ele>
        <time>2026-05-13T12:09:30.000Z</time>
      </trkpt>
      <trkpt lat="44.21399" lon="5.39835">
        <ele>860</ele>
        <time>2026-05-13T12:09:31.000Z</time>
      </trkpt>
      <trkpt lat="44.21401" lon="5.39834">
        <ele>860</ele>
        <time>2026-05-13T12:09:32.000Z</time>
      </trkpt>
      <trkpt lat="44.21402" lon="5.39833">
        <ele>861</ele>
        <time>2026-05-13T12:09:33.000Z</time>
      </trkpt>
      <trkpt lat="44.21404" lon="5.39832">
        <ele>861</ele>
        <time>2026-05-13T12:09:34.000Z</time>
      </trkpt>
      <trkpt lat="44.21405" lon="5.39831">
        <ele>861</ele>
        <time>2026-05-13T12:09:35.000Z</time>
      </trkpt>
      <trkpt lat="44.21406" lon="5.3983">
        <ele>862</ele>
        <time>2026-05-13T12:09:36.000Z</time>
      </trkpt>
      <trkpt lat="44.21408" lon="5.39829">
        <ele>862</ele>
        <time>2026-05-13T12:09:37.000Z</time>
      </trkpt>
      <trkpt lat="44.21409" lon="5.39829">
        <ele>862</ele>
        <time>2026-05-13T12:09:38.000Z</time>
      </trkpt>
      <trkpt lat="44.21411" lon="5.39828">
        <ele>862</ele>
        <time>2026-05-13T12:09:39.000Z</time>
      </trkpt>
      <trkpt lat="44.21412" lon="5.39827">
        <ele>862</ele>
        <time>2026-05-13T12:09:40.000Z</time>
      </trkpt>
      <trkpt lat="44.21413" lon="5.39826">
        <ele>862</ele>
        <time>2026-05-13T12:09:41.000Z</time>
      </trkpt>
      <trkpt lat="44.21415" lon="5.39826">
        <ele>862</ele>
        <time>2026-05-13T12:09:42.000Z</time>
      </trkpt>
      <trkpt lat="44.21416" lon="5.39825">
        <ele>862</ele>
        <time>2026-05-13T12:09:43.000Z</time>
      </trkpt>
      <trkpt lat="44.21417" lon="5.39825">
        <ele>862</ele>
        <time>2026-05-13T12:09:44.000Z</time>
      </trkpt>
      <trkpt lat="44.21419" lon="5.39824">
        <ele>862</ele>
        <time>2026-05-13T12:09:45.000Z</time>
      </trkpt>
      <trkpt lat="44.2142" lon="5.39823">
        <ele>862</ele>
        <time>2026-05-13T12:09:46.000Z</time>
      </trkpt>
      <trkpt lat="44.21421" lon="5.39822">
        <ele>862</ele>
        <time>2026-05-13T12:09:47.000Z</time>
      </trkpt>
      <trkpt lat="44.21423" lon="5.39821">
        <ele>862</ele>
        <time>2026-05-13T12:09:48.000Z</time>
      </trkpt>
      <trkpt lat="44.21424" lon="5.3982">
        <ele>863</ele>
        <time>2026-05-13T12:09:49.000Z</time>
      </trkpt>
      <trkpt lat="44.21425" lon="5.39819">
        <ele>863</ele>
        <time>2026-05-13T12:09:50.000Z</time>
      </trkpt>
      <trkpt lat="44.21427" lon="5.39819">
        <ele>864</ele>
        <time>2026-05-13T12:09:51.000Z</time>
      </trkpt>
      <trkpt lat="44.21428" lon="5.39818">
        <ele>864</ele>
        <time>2026-05-13T12:09:52.000Z</time>
      </trkpt>
      <trkpt lat="44.21429" lon="5.39817">
        <ele>864</ele>
        <time>2026-05-13T12:09:53.000Z</time>
      </trkpt>
      <trkpt lat="44.2143" lon="5.39816">
        <ele>864</ele>
        <time>2026-05-13T12:09:54.000Z</time>
      </trkpt>
      <trkpt lat="44.21432" lon="5.39815">
        <ele>865</ele>
        <time>2026-05-13T12:09:55.000Z</time>
      </trkpt>
      <trkpt lat="44.21432" lon="5.39814">
        <ele>865</ele>
        <time>2026-05-13T12:09:56.000Z</time>
      </trkpt>
      <trkpt lat="44.21434" lon="5.39813">
        <ele>865</ele>
        <time>2026-05-13T12:09:57.000Z</time>
      </trkpt>
      <trkpt lat="44.21435" lon="5.39812">
        <ele>865</ele>
        <time>2026-05-13T12:09:58.000Z</time>
      </trkpt>
      <trkpt lat="44.21436" lon="5.39811">
        <ele>865</ele>
        <time>2026-05-13T12:09:59.000Z</time>
      </trkpt>
      <trkpt lat="44.21437" lon="5.3981">
        <ele>865</ele>
        <time>2026-05-13T12:10:00.000Z</time>
      </trkpt>
      <trkpt lat="44.21439" lon="5.3981">
        <ele>865</ele>
        <time>2026-05-13T12:10:01.000Z</time>
      </trkpt>
      <trkpt lat="44.2144" lon="5.39808">
        <ele>865</ele>
        <time>2026-05-13T12:10:02.000Z</time>
      </trkpt>
      <trkpt lat="44.21442" lon="5.39807">
        <ele>865</ele>
        <time>2026-05-13T12:10:03.000Z</time>
      </trkpt>
      <trkpt lat="44.21443" lon="5.39806">
        <ele>865</ele>
        <time>2026-05-13T12:10:04.000Z</time>
      </trkpt>
      <trkpt lat="44.21444" lon="5.39806">
        <ele>866</ele>
        <time>2026-05-13T12:10:05.000Z</time>
      </trkpt>
      <trkpt lat="44.21446" lon="5.39805">
        <ele>865</ele>
        <time>2026-05-13T12:10:06.000Z</time>
      </trkpt>
      <trkpt lat="44.21447" lon="5.39804">
        <ele>866</ele>
        <time>2026-05-13T12:10:07.000Z</time>
      </trkpt>
      <trkpt lat="44.21449" lon="5.39804">
        <ele>866</ele>
        <time>2026-05-13T12:10:08.000Z</time>
      </trkpt>
      <trkpt lat="44.2145" lon="5.39803">
        <ele>865</ele>
        <time>2026-05-13T12:10:09.000Z</time>
      </trkpt>
      <trkpt lat="44.21452" lon="5.39802">
        <ele>866</ele>
        <time>2026-05-13T12:10:10.000Z</time>
      </trkpt>
      <trkpt lat="44.21453" lon="5.39801">
        <ele>866</ele>
        <time>2026-05-13T12:10:11.000Z</time>
      </trkpt>
      <trkpt lat="44.21455" lon="5.398">
        <ele>866</ele>
        <time>2026-05-13T12:10:12.000Z</time>
      </trkpt>
      <trkpt lat="44.21456" lon="5.39799">
        <ele>866</ele>
        <time>2026-05-13T12:10:13.000Z</time>
      </trkpt>
      <trkpt lat="44.21457" lon="5.39799">
        <ele>866</ele>
        <time>2026-05-13T12:10:14.000Z</time>
      </trkpt>
      <trkpt lat="44.21459" lon="5.39799">
        <ele>866</ele>
        <time>2026-05-13T12:10:15.000Z</time>
      </trkpt>
      <trkpt lat="44.21461" lon="5.39798">
        <ele>866</ele>
        <time>2026-05-13T12:10:16.000Z</time>
      </trkpt>
      <trkpt lat="44.21462" lon="5.39798">
        <ele>867</ele>
        <time>2026-05-13T12:10:17.000Z</time>
      </trkpt>
      <trkpt lat="44.21464" lon="5.39797">
        <ele>867</ele>
        <time>2026-05-13T12:10:18.000Z</time>
      </trkpt>
      <trkpt lat="44.21465" lon="5.39797">
        <ele>867</ele>
        <time>2026-05-13T12:10:19.000Z</time>
      </trkpt>
      <trkpt lat="44.21467" lon="5.39796">
        <ele>867</ele>
        <time>2026-05-13T12:10:20.000Z</time>
      </trkpt>
      <trkpt lat="44.21469" lon="5.39796">
        <ele>867</ele>
        <time>2026-05-13T12:10:21.000Z</time>
      </trkpt>
      <trkpt lat="44.21471" lon="5.39796">
        <ele>867</ele>
        <time>2026-05-13T12:10:22.000Z</time>
      </trkpt>
      <trkpt lat="44.21472" lon="5.39797">
        <ele>867</ele>
        <time>2026-05-13T12:10:23.000Z</time>
      </trkpt>
      <trkpt lat="44.21474" lon="5.39797">
        <ele>867</ele>
        <time>2026-05-13T12:10:24.000Z</time>
      </trkpt>
      <trkpt lat="44.21476" lon="5.39797">
        <ele>868</ele>
        <time>2026-05-13T12:10:25.000Z</time>
      </trkpt>
      <trkpt lat="44.21477" lon="5.39797">
        <ele>868</ele>
        <time>2026-05-13T12:10:26.000Z</time>
      </trkpt>
      <trkpt lat="44.21478" lon="5.39797">
        <ele>868</ele>
        <time>2026-05-13T12:10:27.000Z</time>
      </trkpt>
      <trkpt lat="44.2148" lon="5.39797">
        <ele>868</ele>
        <time>2026-05-13T12:10:28.000Z</time>
      </trkpt>
      <trkpt lat="44.21482" lon="5.39797">
        <ele>868</ele>
        <time>2026-05-13T12:10:29.000Z</time>
      </trkpt>
      <trkpt lat="44.21483" lon="5.39798">
        <ele>868</ele>
        <time>2026-05-13T12:10:30.000Z</time>
      </trkpt>
      <trkpt lat="44.21485" lon="5.39798">
        <ele>868</ele>
        <time>2026-05-13T12:10:31.000Z</time>
      </trkpt>
      <trkpt lat="44.21487" lon="5.39799">
        <ele>868</ele>
        <time>2026-05-13T12:10:32.000Z</time>
      </trkpt>
      <trkpt lat="44.21488" lon="5.398">
        <ele>869</ele>
        <time>2026-05-13T12:10:33.000Z</time>
      </trkpt>
      <trkpt lat="44.2149" lon="5.398">
        <ele>869</ele>
        <time>2026-05-13T12:10:34.000Z</time>
      </trkpt>
      <trkpt lat="44.21491" lon="5.398">
        <ele>869</ele>
        <time>2026-05-13T12:10:35.000Z</time>
      </trkpt>
      <trkpt lat="44.21493" lon="5.398">
        <ele>869</ele>
        <time>2026-05-13T12:10:36.000Z</time>
      </trkpt>
      <trkpt lat="44.21494" lon="5.398">
        <ele>869</ele>
        <time>2026-05-13T12:10:37.000Z</time>
      </trkpt>
      <trkpt lat="44.21496" lon="5.398">
        <ele>869</ele>
        <time>2026-05-13T12:10:38.000Z</time>
      </trkpt>
      <trkpt lat="44.21498" lon="5.398">
        <ele>869</ele>
        <time>2026-05-13T12:10:39.000Z</time>
      </trkpt>
      <trkpt lat="44.21499" lon="5.398">
        <ele>869</ele>
        <time>2026-05-13T12:10:40.000Z</time>
      </trkpt>
      <trkpt lat="44.21501" lon="5.398">
        <ele>869</ele>
        <time>2026-05-13T12:10:41.000Z</time>
      </trkpt>
      <trkpt lat="44.21504" lon="5.39799">
        <ele>869</ele>
        <time>2026-05-13T12:10:42.000Z</time>
      </trkpt>
      <trkpt lat="44.21506" lon="5.39799">
        <ele>870</ele>
        <time>2026-05-13T12:10:43.000Z</time>
      </trkpt>
      <trkpt lat="44.21509" lon="5.39797">
        <ele>870</ele>
        <time>2026-05-13T12:10:44.000Z</time>
      </trkpt>
      <trkpt lat="44.21511" lon="5.39795">
        <ele>870</ele>
        <time>2026-05-13T12:10:45.000Z</time>
      </trkpt>
      <trkpt lat="44.21513" lon="5.39792">
        <ele>870</ele>
        <time>2026-05-13T12:10:46.000Z</time>
      </trkpt>
      <trkpt lat="44.21514" lon="5.39789">
        <ele>870</ele>
        <time>2026-05-13T12:10:47.000Z</time>
      </trkpt>
      <trkpt lat="44.21514" lon="5.39787">
        <ele>870</ele>
        <time>2026-05-13T12:10:48.000Z</time>
      </trkpt>
      <trkpt lat="44.21514" lon="5.39784">
        <ele>870</ele>
        <time>2026-05-13T12:10:49.000Z</time>
      </trkpt>
      <trkpt lat="44.21514" lon="5.39781">
        <ele>870</ele>
        <time>2026-05-13T12:10:50.000Z</time>
      </trkpt>
      <trkpt lat="44.21515" lon="5.39778">
        <ele>870</ele>
        <time>2026-05-13T12:10:51.000Z</time>
      </trkpt>
      <trkpt lat="44.21515" lon="5.39775">
        <ele>870</ele>
        <time>2026-05-13T12:10:52.000Z</time>
      </trkpt>
      <trkpt lat="44.21515" lon="5.39772">
        <ele>870</ele>
        <time>2026-05-13T12:10:53.000Z</time>
      </trkpt>
      <trkpt lat="44.21514" lon="5.39769">
        <ele>870</ele>
        <time>2026-05-13T12:10:54.000Z</time>
      </trkpt>
      <trkpt lat="44.21513" lon="5.39766">
        <ele>870</ele>
        <time>2026-05-13T12:10:55.000Z</time>
      </trkpt>
      <trkpt lat="44.21511" lon="5.39763">
        <ele>870</ele>
        <time>2026-05-13T12:10:56.000Z</time>
      </trkpt>
      <trkpt lat="44.2151" lon="5.39761">
        <ele>870</ele>
        <time>2026-05-13T12:10:57.000Z</time>
      </trkpt>
      <trkpt lat="44.21509" lon="5.39758">
        <ele>871</ele>
        <time>2026-05-13T12:10:58.000Z</time>
      </trkpt>
      <trkpt lat="44.21508" lon="5.39755">
        <ele>872</ele>
        <time>2026-05-13T12:10:59.000Z</time>
      </trkpt>
      <trkpt lat="44.21506" lon="5.39753">
        <ele>872</ele>
        <time>2026-05-13T12:11:00.000Z</time>
      </trkpt>
      <trkpt lat="44.21504" lon="5.3975">
        <ele>872</ele>
        <time>2026-05-13T12:11:01.000Z</time>
      </trkpt>
      <trkpt lat="44.21503" lon="5.39747">
        <ele>872</ele>
        <time>2026-05-13T12:11:02.000Z</time>
      </trkpt>
      <trkpt lat="44.21501" lon="5.39745">
        <ele>873</ele>
        <time>2026-05-13T12:11:03.000Z</time>
      </trkpt>
      <trkpt lat="44.21499" lon="5.39742">
        <ele>873</ele>
        <time>2026-05-13T12:11:04.000Z</time>
      </trkpt>
      <trkpt lat="44.21498" lon="5.39739">
        <ele>873</ele>
        <time>2026-05-13T12:11:05.000Z</time>
      </trkpt>
      <trkpt lat="44.21496" lon="5.39736">
        <ele>873</ele>
        <time>2026-05-13T12:11:06.000Z</time>
      </trkpt>
      <trkpt lat="44.21495" lon="5.39733">
        <ele>873</ele>
        <time>2026-05-13T12:11:07.000Z</time>
      </trkpt>
      <trkpt lat="44.21494" lon="5.39731">
        <ele>873</ele>
        <time>2026-05-13T12:11:08.000Z</time>
      </trkpt>
      <trkpt lat="44.21493" lon="5.39729">
        <ele>873</ele>
        <time>2026-05-13T12:11:09.000Z</time>
      </trkpt>
      <trkpt lat="44.21492" lon="5.39727">
        <ele>873</ele>
        <time>2026-05-13T12:11:10.000Z</time>
      </trkpt>
      <trkpt lat="44.21491" lon="5.39724">
        <ele>873</ele>
        <time>2026-05-13T12:11:11.000Z</time>
      </trkpt>
      <trkpt lat="44.2149" lon="5.39722">
        <ele>873</ele>
        <time>2026-05-13T12:11:12.000Z</time>
      </trkpt>
      <trkpt lat="44.21489" lon="5.3972">
        <ele>874</ele>
        <time>2026-05-13T12:11:13.000Z</time>
      </trkpt>
      <trkpt lat="44.21488" lon="5.39717">
        <ele>874</ele>
        <time>2026-05-13T12:11:14.000Z</time>
      </trkpt>
      <trkpt lat="44.21487" lon="5.39715">
        <ele>875</ele>
        <time>2026-05-13T12:11:15.000Z</time>
      </trkpt>
      <trkpt lat="44.21486" lon="5.39712">
        <ele>875</ele>
        <time>2026-05-13T12:11:16.000Z</time>
      </trkpt>
      <trkpt lat="44.21485" lon="5.3971">
        <ele>875</ele>
        <time>2026-05-13T12:11:17.000Z</time>
      </trkpt>
      <trkpt lat="44.21484" lon="5.39707">
        <ele>876</ele>
        <time>2026-05-13T12:11:18.000Z</time>
      </trkpt>
      <trkpt lat="44.21484" lon="5.39705">
        <ele>876</ele>
        <time>2026-05-13T12:11:19.000Z</time>
      </trkpt>
      <trkpt lat="44.21483" lon="5.39703">
        <ele>876</ele>
        <time>2026-05-13T12:11:20.000Z</time>
      </trkpt>
      <trkpt lat="44.21482" lon="5.39702">
        <ele>876</ele>
        <time>2026-05-13T12:11:21.000Z</time>
      </trkpt>
      <trkpt lat="44.21481" lon="5.397">
        <ele>877</ele>
        <time>2026-05-13T12:11:22.000Z</time>
      </trkpt>
      <trkpt lat="44.21481" lon="5.39697">
        <ele>876</ele>
        <time>2026-05-13T12:11:23.000Z</time>
      </trkpt>
      <trkpt lat="44.2148" lon="5.39695">
        <ele>876</ele>
        <time>2026-05-13T12:11:24.000Z</time>
      </trkpt>
      <trkpt lat="44.2148" lon="5.39692">
        <ele>876</ele>
        <time>2026-05-13T12:11:25.000Z</time>
      </trkpt>
      <trkpt lat="44.2148" lon="5.3969">
        <ele>876</ele>
        <time>2026-05-13T12:11:26.000Z</time>
      </trkpt>
      <trkpt lat="44.2148" lon="5.39688">
        <ele>876</ele>
        <time>2026-05-13T12:11:27.000Z</time>
      </trkpt>
      <trkpt lat="44.21479" lon="5.39686">
        <ele>877</ele>
        <time>2026-05-13T12:11:28.000Z</time>
      </trkpt>
      <trkpt lat="44.21479" lon="5.39683">
        <ele>877</ele>
        <time>2026-05-13T12:11:29.000Z</time>
      </trkpt>
      <trkpt lat="44.21478" lon="5.3968">
        <ele>877</ele>
        <time>2026-05-13T12:11:30.000Z</time>
      </trkpt>
      <trkpt lat="44.21478" lon="5.39677">
        <ele>877</ele>
        <time>2026-05-13T12:11:31.000Z</time>
      </trkpt>
      <trkpt lat="44.21478" lon="5.39674">
        <ele>877</ele>
        <time>2026-05-13T12:11:32.000Z</time>
      </trkpt>
      <trkpt lat="44.21478" lon="5.39672">
        <ele>877</ele>
        <time>2026-05-13T12:11:33.000Z</time>
      </trkpt>
      <trkpt lat="44.21478" lon="5.39669">
        <ele>877</ele>
        <time>2026-05-13T12:11:34.000Z</time>
      </trkpt>
      <trkpt lat="44.21478" lon="5.39666">
        <ele>876</ele>
        <time>2026-05-13T12:11:35.000Z</time>
      </trkpt>
      <trkpt lat="44.21477" lon="5.39663">
        <ele>876</ele>
        <time>2026-05-13T12:11:36.000Z</time>
      </trkpt>
      <trkpt lat="44.21478" lon="5.39659">
        <ele>877</ele>
        <time>2026-05-13T12:11:37.000Z</time>
      </trkpt>
      <trkpt lat="44.21479" lon="5.39655">
        <ele>876</ele>
        <time>2026-05-13T12:11:38.000Z</time>
      </trkpt>
      <trkpt lat="44.21479" lon="5.39651">
        <ele>877</ele>
        <time>2026-05-13T12:11:39.000Z</time>
      </trkpt>
      <trkpt lat="44.2148" lon="5.39648">
        <ele>877</ele>
        <time>2026-05-13T12:11:40.000Z</time>
      </trkpt>
      <trkpt lat="44.2148" lon="5.39644">
        <ele>877</ele>
        <time>2026-05-13T12:11:41.000Z</time>
      </trkpt>
      <trkpt lat="44.2148" lon="5.39641">
        <ele>877</ele>
        <time>2026-05-13T12:11:42.000Z</time>
      </trkpt>
      <trkpt lat="44.21481" lon="5.39638">
        <ele>877</ele>
        <time>2026-05-13T12:11:43.000Z</time>
      </trkpt>
      <trkpt lat="44.21481" lon="5.39634">
        <ele>877</ele>
        <time>2026-05-13T12:11:44.000Z</time>
      </trkpt>
      <trkpt lat="44.21482" lon="5.3963">
        <ele>877</ele>
        <time>2026-05-13T12:11:45.000Z</time>
      </trkpt>
      <trkpt lat="44.21482" lon="5.39626">
        <ele>877</ele>
        <time>2026-05-13T12:11:46.000Z</time>
      </trkpt>
      <trkpt lat="44.21483" lon="5.39622">
        <ele>878</ele>
        <time>2026-05-13T12:11:47.000Z</time>
      </trkpt>
      <trkpt lat="44.21483" lon="5.39619">
        <ele>877</ele>
        <time>2026-05-13T12:11:48.000Z</time>
      </trkpt>
      <trkpt lat="44.21484" lon="5.39616">
        <ele>878</ele>
        <time>2026-05-13T12:11:49.000Z</time>
      </trkpt>
      <trkpt lat="44.21485" lon="5.39613">
        <ele>878</ele>
        <time>2026-05-13T12:11:50.000Z</time>
      </trkpt>
      <trkpt lat="44.21486" lon="5.39609">
        <ele>878</ele>
        <time>2026-05-13T12:11:51.000Z</time>
      </trkpt>
      <trkpt lat="44.21486" lon="5.39606">
        <ele>879</ele>
        <time>2026-05-13T12:11:52.000Z</time>
      </trkpt>
      <trkpt lat="44.21486" lon="5.39603">
        <ele>879</ele>
        <time>2026-05-13T12:11:53.000Z</time>
      </trkpt>
      <trkpt lat="44.21487" lon="5.396">
        <ele>879</ele>
        <time>2026-05-13T12:11:54.000Z</time>
      </trkpt>
      <trkpt lat="44.21488" lon="5.39596">
        <ele>879</ele>
        <time>2026-05-13T12:11:55.000Z</time>
      </trkpt>
      <trkpt lat="44.21488" lon="5.39593">
        <ele>879</ele>
        <time>2026-05-13T12:11:56.000Z</time>
      </trkpt>
      <trkpt lat="44.21488" lon="5.39589">
        <ele>880</ele>
        <time>2026-05-13T12:11:57.000Z</time>
      </trkpt>
      <trkpt lat="44.21489" lon="5.39586">
        <ele>880</ele>
        <time>2026-05-13T12:11:58.000Z</time>
      </trkpt>
      <trkpt lat="44.21489" lon="5.39582">
        <ele>880</ele>
        <time>2026-05-13T12:11:59.000Z</time>
      </trkpt>
      <trkpt lat="44.2149" lon="5.39579">
        <ele>881</ele>
        <time>2026-05-13T12:12:00.000Z</time>
      </trkpt>
      <trkpt lat="44.21491" lon="5.39575">
        <ele>881</ele>
        <time>2026-05-13T12:12:01.000Z</time>
      </trkpt>
      <trkpt lat="44.21491" lon="5.39572">
        <ele>881</ele>
        <time>2026-05-13T12:12:02.000Z</time>
      </trkpt>
      <trkpt lat="44.21491" lon="5.39568">
        <ele>882</ele>
        <time>2026-05-13T12:12:03.000Z</time>
      </trkpt>
      <trkpt lat="44.21492" lon="5.39564">
        <ele>881</ele>
        <time>2026-05-13T12:12:04.000Z</time>
      </trkpt>
      <trkpt lat="44.21493" lon="5.39561">
        <ele>882</ele>
        <time>2026-05-13T12:12:05.000Z</time>
      </trkpt>
      <trkpt lat="44.21494" lon="5.39558">
        <ele>882</ele>
        <time>2026-05-13T12:12:06.000Z</time>
      </trkpt>
      <trkpt lat="44.21494" lon="5.39554">
        <ele>881</ele>
        <time>2026-05-13T12:12:07.000Z</time>
      </trkpt>
      <trkpt lat="44.21495" lon="5.39551">
        <ele>882</ele>
        <time>2026-05-13T12:12:08.000Z</time>
      </trkpt>
      <trkpt lat="44.21497" lon="5.39547">
        <ele>882</ele>
        <time>2026-05-13T12:12:09.000Z</time>
      </trkpt>
      <trkpt lat="44.21498" lon="5.39544">
        <ele>882</ele>
        <time>2026-05-13T12:12:10.000Z</time>
      </trkpt>
      <trkpt lat="44.21498" lon="5.39541">
        <ele>881</ele>
        <time>2026-05-13T12:12:11.000Z</time>
      </trkpt>
      <trkpt lat="44.21499" lon="5.39537">
        <ele>881</ele>
        <time>2026-05-13T12:12:12.000Z</time>
      </trkpt>
      <trkpt lat="44.215" lon="5.39535">
        <ele>881</ele>
        <time>2026-05-13T12:12:13.000Z</time>
      </trkpt>
      <trkpt lat="44.21501" lon="5.39531">
        <ele>881</ele>
        <time>2026-05-13T12:12:14.000Z</time>
      </trkpt>
      <trkpt lat="44.21502" lon="5.39528">
        <ele>881</ele>
        <time>2026-05-13T12:12:15.000Z</time>
      </trkpt>
      <trkpt lat="44.21502" lon="5.39524">
        <ele>881</ele>
        <time>2026-05-13T12:12:16.000Z</time>
      </trkpt>
      <trkpt lat="44.21503" lon="5.39521">
        <ele>882</ele>
        <time>2026-05-13T12:12:17.000Z</time>
      </trkpt>
      <trkpt lat="44.21504" lon="5.39518">
        <ele>882</ele>
        <time>2026-05-13T12:12:18.000Z</time>
      </trkpt>
      <trkpt lat="44.21505" lon="5.39515">
        <ele>882</ele>
        <time>2026-05-13T12:12:19.000Z</time>
      </trkpt>
      <trkpt lat="44.21506" lon="5.39513">
        <ele>881</ele>
        <time>2026-05-13T12:12:20.000Z</time>
      </trkpt>
      <trkpt lat="44.21506" lon="5.39509">
        <ele>881</ele>
        <time>2026-05-13T12:12:21.000Z</time>
      </trkpt>
      <trkpt lat="44.21507" lon="5.39506">
        <ele>881</ele>
        <time>2026-05-13T12:12:22.000Z</time>
      </trkpt>
      <trkpt lat="44.21508" lon="5.39502">
        <ele>882</ele>
        <time>2026-05-13T12:12:23.000Z</time>
      </trkpt>
      <trkpt lat="44.21509" lon="5.39499">
        <ele>881</ele>
        <time>2026-05-13T12:12:24.000Z</time>
      </trkpt>
      <trkpt lat="44.2151" lon="5.39496">
        <ele>881</ele>
        <time>2026-05-13T12:12:25.000Z</time>
      </trkpt>
      <trkpt lat="44.2151" lon="5.39493">
        <ele>881</ele>
        <time>2026-05-13T12:12:26.000Z</time>
      </trkpt>
      <trkpt lat="44.21511" lon="5.3949">
        <ele>881</ele>
        <time>2026-05-13T12:12:27.000Z</time>
      </trkpt>
      <trkpt lat="44.21511" lon="5.39488">
        <ele>881</ele>
        <time>2026-05-13T12:12:28.000Z</time>
      </trkpt>
      <trkpt lat="44.21512" lon="5.39485">
        <ele>882</ele>
        <time>2026-05-13T12:12:29.000Z</time>
      </trkpt>
      <trkpt lat="44.21512" lon="5.39482">
        <ele>882</ele>
        <time>2026-05-13T12:12:30.000Z</time>
      </trkpt>
      <trkpt lat="44.21513" lon="5.39479">
        <ele>882</ele>
        <time>2026-05-13T12:12:31.000Z</time>
      </trkpt>
      <trkpt lat="44.21514" lon="5.39476">
        <ele>882</ele>
        <time>2026-05-13T12:12:32.000Z</time>
      </trkpt>
      <trkpt lat="44.21515" lon="5.39473">
        <ele>881</ele>
        <time>2026-05-13T12:12:33.000Z</time>
      </trkpt>
      <trkpt lat="44.21516" lon="5.3947">
        <ele>881</ele>
        <time>2026-05-13T12:12:34.000Z</time>
      </trkpt>
      <trkpt lat="44.21517" lon="5.39467">
        <ele>882</ele>
        <time>2026-05-13T12:12:35.000Z</time>
      </trkpt>
      <trkpt lat="44.21518" lon="5.39464">
        <ele>882</ele>
        <time>2026-05-13T12:12:36.000Z</time>
      </trkpt>
      <trkpt lat="44.21519" lon="5.39461">
        <ele>882</ele>
        <time>2026-05-13T12:12:37.000Z</time>
      </trkpt>
      <trkpt lat="44.2152" lon="5.39458">
        <ele>881</ele>
        <time>2026-05-13T12:12:38.000Z</time>
      </trkpt>
      <trkpt lat="44.21522" lon="5.39454">
        <ele>882</ele>
        <time>2026-05-13T12:12:39.000Z</time>
      </trkpt>
      <trkpt lat="44.21523" lon="5.39451">
        <ele>882</ele>
        <time>2026-05-13T12:12:40.000Z</time>
      </trkpt>
      <trkpt lat="44.21524" lon="5.39449">
        <ele>882</ele>
        <time>2026-05-13T12:12:41.000Z</time>
      </trkpt>
      <trkpt lat="44.21525" lon="5.39446">
        <ele>882</ele>
        <time>2026-05-13T12:12:42.000Z</time>
      </trkpt>
      <trkpt lat="44.21526" lon="5.39443">
        <ele>882</ele>
        <time>2026-05-13T12:12:43.000Z</time>
      </trkpt>
      <trkpt lat="44.21528" lon="5.3944">
        <ele>882</ele>
        <time>2026-05-13T12:12:44.000Z</time>
      </trkpt>
      <trkpt lat="44.21529" lon="5.39438">
        <ele>882</ele>
        <time>2026-05-13T12:12:45.000Z</time>
      </trkpt>
      <trkpt lat="44.21529" lon="5.39434">
        <ele>882</ele>
        <time>2026-05-13T12:12:46.000Z</time>
      </trkpt>
      <trkpt lat="44.2153" lon="5.39431">
        <ele>882</ele>
        <time>2026-05-13T12:12:47.000Z</time>
      </trkpt>
      <trkpt lat="44.2153" lon="5.39428">
        <ele>883</ele>
        <time>2026-05-13T12:12:48.000Z</time>
      </trkpt>
      <trkpt lat="44.2153" lon="5.39424">
        <ele>882</ele>
        <time>2026-05-13T12:12:49.000Z</time>
      </trkpt>
      <trkpt lat="44.2153" lon="5.39421">
        <ele>883</ele>
        <time>2026-05-13T12:12:50.000Z</time>
      </trkpt>
      <trkpt lat="44.2153" lon="5.39418">
        <ele>883</ele>
        <time>2026-05-13T12:12:51.000Z</time>
      </trkpt>
      <trkpt lat="44.21531" lon="5.39416">
        <ele>883</ele>
        <time>2026-05-13T12:12:52.000Z</time>
      </trkpt>
      <trkpt lat="44.21531" lon="5.39413">
        <ele>883</ele>
        <time>2026-05-13T12:12:53.000Z</time>
      </trkpt>
      <trkpt lat="44.21531" lon="5.3941">
        <ele>883</ele>
        <time>2026-05-13T12:12:54.000Z</time>
      </trkpt>
      <trkpt lat="44.21531" lon="5.39407">
        <ele>883</ele>
        <time>2026-05-13T12:12:55.000Z</time>
      </trkpt>
      <trkpt lat="44.21531" lon="5.39404">
        <ele>883</ele>
        <time>2026-05-13T12:12:56.000Z</time>
      </trkpt>
      <trkpt lat="44.21532" lon="5.39401">
        <ele>884</ele>
        <time>2026-05-13T12:12:57.000Z</time>
      </trkpt>
      <trkpt lat="44.21532" lon="5.39398">
        <ele>884</ele>
        <time>2026-05-13T12:12:58.000Z</time>
      </trkpt>
      <trkpt lat="44.21532" lon="5.39395">
        <ele>884</ele>
        <time>2026-05-13T12:12:59.000Z</time>
      </trkpt>
      <trkpt lat="44.21533" lon="5.39392">
        <ele>885</ele>
        <time>2026-05-13T12:13:00.000Z</time>
      </trkpt>
      <trkpt lat="44.21533" lon="5.39389">
        <ele>885</ele>
        <time>2026-05-13T12:13:01.000Z</time>
      </trkpt>
      <trkpt lat="44.21534" lon="5.39386">
        <ele>886</ele>
        <time>2026-05-13T12:13:02.000Z</time>
      </trkpt>
      <trkpt lat="44.21534" lon="5.39383">
        <ele>886</ele>
        <time>2026-05-13T12:13:03.000Z</time>
      </trkpt>
      <trkpt lat="44.21535" lon="5.3938">
        <ele>886</ele>
        <time>2026-05-13T12:13:04.000Z</time>
      </trkpt>
      <trkpt lat="44.21535" lon="5.39378">
        <ele>886</ele>
        <time>2026-05-13T12:13:05.000Z</time>
      </trkpt>
      <trkpt lat="44.21536" lon="5.39375">
        <ele>886</ele>
        <time>2026-05-13T12:13:06.000Z</time>
      </trkpt>
      <trkpt lat="44.21537" lon="5.39373">
        <ele>886</ele>
        <time>2026-05-13T12:13:07.000Z</time>
      </trkpt>
      <trkpt lat="44.21538" lon="5.3937">
        <ele>886</ele>
        <time>2026-05-13T12:13:08.000Z</time>
      </trkpt>
      <trkpt lat="44.21539" lon="5.39368">
        <ele>885</ele>
        <time>2026-05-13T12:13:09.000Z</time>
      </trkpt>
      <trkpt lat="44.2154" lon="5.39365">
        <ele>885</ele>
        <time>2026-05-13T12:13:10.000Z</time>
      </trkpt>
      <trkpt lat="44.21541" lon="5.39363">
        <ele>884</ele>
        <time>2026-05-13T12:13:11.000Z</time>
      </trkpt>
      <trkpt lat="44.21542" lon="5.39361">
        <ele>884</ele>
        <time>2026-05-13T12:13:12.000Z</time>
      </trkpt>
      <trkpt lat="44.21543" lon="5.39358">
        <ele>884</ele>
        <time>2026-05-13T12:13:13.000Z</time>
      </trkpt>
      <trkpt lat="44.21544" lon="5.39355">
        <ele>884</ele>
        <time>2026-05-13T12:13:14.000Z</time>
      </trkpt>
      <trkpt lat="44.21545" lon="5.39352">
        <ele>885</ele>
        <time>2026-05-13T12:13:15.000Z</time>
      </trkpt>
      <trkpt lat="44.21546" lon="5.3935">
        <ele>885</ele>
        <time>2026-05-13T12:13:16.000Z</time>
      </trkpt>
      <trkpt lat="44.21547" lon="5.39347">
        <ele>885</ele>
        <time>2026-05-13T12:13:17.000Z</time>
      </trkpt>
      <trkpt lat="44.21548" lon="5.39345">
        <ele>885</ele>
        <time>2026-05-13T12:13:18.000Z</time>
      </trkpt>
      <trkpt lat="44.21549" lon="5.39343">
        <ele>886</ele>
        <time>2026-05-13T12:13:19.000Z</time>
      </trkpt>
      <trkpt lat="44.2155" lon="5.39341">
        <ele>886</ele>
        <time>2026-05-13T12:13:20.000Z</time>
      </trkpt>
      <trkpt lat="44.2155" lon="5.39339">
        <ele>886</ele>
        <time>2026-05-13T12:13:21.000Z</time>
      </trkpt>
      <trkpt lat="44.21551" lon="5.39337">
        <ele>886</ele>
        <time>2026-05-13T12:13:22.000Z</time>
      </trkpt>
      <trkpt lat="44.21552" lon="5.39335">
        <ele>886</ele>
        <time>2026-05-13T12:13:23.000Z</time>
      </trkpt>
      <trkpt lat="44.21553" lon="5.39334">
        <ele>887</ele>
        <time>2026-05-13T12:13:24.000Z</time>
      </trkpt>
      <trkpt lat="44.21554" lon="5.39332">
        <ele>887</ele>
        <time>2026-05-13T12:13:25.000Z</time>
      </trkpt>
      <trkpt lat="44.21555" lon="5.39331">
        <ele>887</ele>
        <time>2026-05-13T12:13:26.000Z</time>
      </trkpt>
      <trkpt lat="44.21556" lon="5.39329">
        <ele>887</ele>
        <time>2026-05-13T12:13:27.000Z</time>
      </trkpt>
      <trkpt lat="44.21558" lon="5.39327">
        <ele>887</ele>
        <time>2026-05-13T12:13:28.000Z</time>
      </trkpt>
      <trkpt lat="44.2156" lon="5.39326">
        <ele>887</ele>
        <time>2026-05-13T12:13:29.000Z</time>
      </trkpt>
      <trkpt lat="44.21561" lon="5.39324">
        <ele>887</ele>
        <time>2026-05-13T12:13:30.000Z</time>
      </trkpt>
      <trkpt lat="44.21563" lon="5.39323">
        <ele>887</ele>
        <time>2026-05-13T12:13:31.000Z</time>
      </trkpt>
      <trkpt lat="44.21565" lon="5.39322">
        <ele>887</ele>
        <time>2026-05-13T12:13:32.000Z</time>
      </trkpt>
      <trkpt lat="44.21566" lon="5.39321">
        <ele>887</ele>
        <time>2026-05-13T12:13:33.000Z</time>
      </trkpt>
      <trkpt lat="44.21568" lon="5.39319">
        <ele>887</ele>
        <time>2026-05-13T12:13:34.000Z</time>
      </trkpt>
      <trkpt lat="44.21569" lon="5.39317">
        <ele>888</ele>
        <time>2026-05-13T12:13:35.000Z</time>
      </trkpt>
      <trkpt lat="44.21571" lon="5.39317">
        <ele>888</ele>
        <time>2026-05-13T12:13:36.000Z</time>
      </trkpt>
      <trkpt lat="44.21572" lon="5.39317">
        <ele>887</ele>
        <time>2026-05-13T12:13:37.000Z</time>
      </trkpt>
      <trkpt lat="44.21574" lon="5.39316">
        <ele>887</ele>
        <time>2026-05-13T12:13:38.000Z</time>
      </trkpt>
      <trkpt lat="44.21575" lon="5.39314">
        <ele>887</ele>
        <time>2026-05-13T12:13:39.000Z</time>
      </trkpt>
      <trkpt lat="44.21575" lon="5.39312">
        <ele>888</ele>
        <time>2026-05-13T12:13:40.000Z</time>
      </trkpt>
      <trkpt lat="44.21577" lon="5.3931">
        <ele>888</ele>
        <time>2026-05-13T12:13:41.000Z</time>
      </trkpt>
      <trkpt lat="44.21578" lon="5.39309">
        <ele>888</ele>
        <time>2026-05-13T12:13:42.000Z</time>
      </trkpt>
      <trkpt lat="44.2158" lon="5.39307">
        <ele>888</ele>
        <time>2026-05-13T12:13:43.000Z</time>
      </trkpt>
      <trkpt lat="44.21582" lon="5.39305">
        <ele>888</ele>
        <time>2026-05-13T12:13:44.000Z</time>
      </trkpt>
      <trkpt lat="44.21583" lon="5.39304">
        <ele>888</ele>
        <time>2026-05-13T12:13:45.000Z</time>
      </trkpt>
      <trkpt lat="44.21585" lon="5.39303">
        <ele>889</ele>
        <time>2026-05-13T12:13:46.000Z</time>
      </trkpt>
      <trkpt lat="44.21586" lon="5.39302">
        <ele>889</ele>
        <time>2026-05-13T12:13:47.000Z</time>
      </trkpt>
      <trkpt lat="44.21588" lon="5.39302">
        <ele>889</ele>
        <time>2026-05-13T12:13:48.000Z</time>
      </trkpt>
      <trkpt lat="44.2159" lon="5.39302">
        <ele>889</ele>
        <time>2026-05-13T12:13:49.000Z</time>
      </trkpt>
      <trkpt lat="44.21592" lon="5.39303">
        <ele>890</ele>
        <time>2026-05-13T12:13:50.000Z</time>
      </trkpt>
      <trkpt lat="44.21594" lon="5.39304">
        <ele>890</ele>
        <time>2026-05-13T12:13:51.000Z</time>
      </trkpt>
      <trkpt lat="44.21596" lon="5.39304">
        <ele>890</ele>
        <time>2026-05-13T12:13:52.000Z</time>
      </trkpt>
      <trkpt lat="44.21597" lon="5.39305">
        <ele>890</ele>
        <time>2026-05-13T12:13:53.000Z</time>
      </trkpt>
      <trkpt lat="44.21598" lon="5.39305">
        <ele>890</ele>
        <time>2026-05-13T12:13:54.000Z</time>
      </trkpt>
      <trkpt lat="44.21599" lon="5.39306">
        <ele>890</ele>
        <time>2026-05-13T12:13:55.000Z</time>
      </trkpt>
      <trkpt lat="44.21601" lon="5.39307">
        <ele>891</ele>
        <time>2026-05-13T12:13:56.000Z</time>
      </trkpt>
      <trkpt lat="44.21602" lon="5.39308">
        <ele>891</ele>
        <time>2026-05-13T12:13:57.000Z</time>
      </trkpt>
      <trkpt lat="44.21603" lon="5.39309">
        <ele>891</ele>
        <time>2026-05-13T12:13:58.000Z</time>
      </trkpt>
      <trkpt lat="44.21604" lon="5.39308">
        <ele>891</ele>
        <time>2026-05-13T12:13:59.000Z</time>
      </trkpt>
      <trkpt lat="44.21606" lon="5.39308">
        <ele>891</ele>
        <time>2026-05-13T12:14:00.000Z</time>
      </trkpt>
      <trkpt lat="44.21607" lon="5.39308">
        <ele>891</ele>
        <time>2026-05-13T12:14:01.000Z</time>
      </trkpt>
      <trkpt lat="44.21608" lon="5.39308">
        <ele>891</ele>
        <time>2026-05-13T12:14:02.000Z</time>
      </trkpt>
      <trkpt lat="44.2161" lon="5.39307">
        <ele>891</ele>
        <time>2026-05-13T12:14:03.000Z</time>
      </trkpt>
      <trkpt lat="44.21611" lon="5.39308">
        <ele>891</ele>
        <time>2026-05-13T12:14:04.000Z</time>
      </trkpt>
      <trkpt lat="44.21612" lon="5.39308">
        <ele>892</ele>
        <time>2026-05-13T12:14:05.000Z</time>
      </trkpt>
      <trkpt lat="44.21614" lon="5.39308">
        <ele>892</ele>
        <time>2026-05-13T12:14:06.000Z</time>
      </trkpt>
      <trkpt lat="44.21616" lon="5.39307">
        <ele>892</ele>
        <time>2026-05-13T12:14:07.000Z</time>
      </trkpt>
      <trkpt lat="44.21617" lon="5.39306">
        <ele>892</ele>
        <time>2026-05-13T12:14:08.000Z</time>
      </trkpt>
      <trkpt lat="44.21619" lon="5.39306">
        <ele>892</ele>
        <time>2026-05-13T12:14:09.000Z</time>
      </trkpt>
      <trkpt lat="44.21621" lon="5.39306">
        <ele>892</ele>
        <time>2026-05-13T12:14:10.000Z</time>
      </trkpt>
      <trkpt lat="44.21622" lon="5.39306">
        <ele>893</ele>
        <time>2026-05-13T12:14:11.000Z</time>
      </trkpt>
      <trkpt lat="44.21624" lon="5.39306">
        <ele>893</ele>
        <time>2026-05-13T12:14:12.000Z</time>
      </trkpt>
      <trkpt lat="44.21626" lon="5.39306">
        <ele>893</ele>
        <time>2026-05-13T12:14:13.000Z</time>
      </trkpt>
      <trkpt lat="44.21627" lon="5.39306">
        <ele>893</ele>
        <time>2026-05-13T12:14:14.000Z</time>
      </trkpt>
      <trkpt lat="44.21628" lon="5.39305">
        <ele>893</ele>
        <time>2026-05-13T12:14:15.000Z</time>
      </trkpt>
      <trkpt lat="44.2163" lon="5.39305">
        <ele>893</ele>
        <time>2026-05-13T12:14:16.000Z</time>
      </trkpt>
      <trkpt lat="44.21632" lon="5.39304">
        <ele>893</ele>
        <time>2026-05-13T12:14:17.000Z</time>
      </trkpt>
      <trkpt lat="44.21633" lon="5.39304">
        <ele>893</ele>
        <time>2026-05-13T12:14:18.000Z</time>
      </trkpt>
      <trkpt lat="44.21635" lon="5.39304">
        <ele>893</ele>
        <time>2026-05-13T12:14:19.000Z</time>
      </trkpt>
      <trkpt lat="44.21636" lon="5.39304">
        <ele>894</ele>
        <time>2026-05-13T12:14:20.000Z</time>
      </trkpt>
      <trkpt lat="44.21638" lon="5.39304">
        <ele>894</ele>
        <time>2026-05-13T12:14:21.000Z</time>
      </trkpt>
      <trkpt lat="44.2164" lon="5.39304">
        <ele>894</ele>
        <time>2026-05-13T12:14:22.000Z</time>
      </trkpt>
      <trkpt lat="44.21641" lon="5.39304">
        <ele>894</ele>
        <time>2026-05-13T12:14:23.000Z</time>
      </trkpt>
      <trkpt lat="44.21643" lon="5.39304">
        <ele>894</ele>
        <time>2026-05-13T12:14:24.000Z</time>
      </trkpt>
      <trkpt lat="44.21644" lon="5.39305">
        <ele>894</ele>
        <time>2026-05-13T12:14:25.000Z</time>
      </trkpt>
      <trkpt lat="44.21645" lon="5.39305">
        <ele>894</ele>
        <time>2026-05-13T12:14:26.000Z</time>
      </trkpt>
      <trkpt lat="44.21647" lon="5.39305">
        <ele>894</ele>
        <time>2026-05-13T12:14:27.000Z</time>
      </trkpt>
      <trkpt lat="44.21648" lon="5.39305">
        <ele>894</ele>
        <time>2026-05-13T12:14:28.000Z</time>
      </trkpt>
      <trkpt lat="44.21649" lon="5.39304">
        <ele>893</ele>
        <time>2026-05-13T12:14:29.000Z</time>
      </trkpt>
      <trkpt lat="44.2165" lon="5.39302">
        <ele>893</ele>
        <time>2026-05-13T12:14:30.000Z</time>
      </trkpt>
      <trkpt lat="44.21648" lon="5.39301">
        <ele>893</ele>
        <time>2026-05-13T12:14:31.000Z</time>
      </trkpt>
      <trkpt lat="44.21647" lon="5.39301">
        <ele>893</ele>
        <time>2026-05-13T12:14:32.000Z</time>
      </trkpt>
      <trkpt lat="44.21646" lon="5.39302">
        <ele>893</ele>
        <time>2026-05-13T12:14:33.000Z</time>
      </trkpt>
      <trkpt lat="44.21645" lon="5.39303">
        <ele>893</ele>
        <time>2026-05-13T12:14:34.000Z</time>
      </trkpt>
      <trkpt lat="44.21644" lon="5.39303">
        <ele>894</ele>
        <time>2026-05-13T12:14:35.000Z</time>
      </trkpt>
      <trkpt lat="44.21642" lon="5.39302">
        <ele>894</ele>
        <time>2026-05-13T12:14:36.000Z</time>
      </trkpt>
      <trkpt lat="44.21641" lon="5.39302">
        <ele>894</ele>
        <time>2026-05-13T12:14:37.000Z</time>
      </trkpt>
      <trkpt lat="44.21639" lon="5.39303">
        <ele>894</ele>
        <time>2026-05-13T12:14:38.000Z</time>
      </trkpt>
      <trkpt lat="44.21637" lon="5.39304">
        <ele>894</ele>
        <time>2026-05-13T12:14:39.000Z</time>
      </trkpt>
      <trkpt lat="44.21634" lon="5.39304">
        <ele>894</ele>
        <time>2026-05-13T12:14:40.000Z</time>
      </trkpt>
      <trkpt lat="44.21631" lon="5.39305">
        <ele>894</ele>
        <time>2026-05-13T12:14:41.000Z</time>
      </trkpt>
      <trkpt lat="44.21628" lon="5.39306">
        <ele>894</ele>
        <time>2026-05-13T12:14:42.000Z</time>
      </trkpt>
      <trkpt lat="44.21626" lon="5.39308">
        <ele>894</ele>
        <time>2026-05-13T12:14:43.000Z</time>
      </trkpt>
      <trkpt lat="44.21622" lon="5.39309">
        <ele>893</ele>
        <time>2026-05-13T12:14:44.000Z</time>
      </trkpt>
      <trkpt lat="44.21618" lon="5.3931">
        <ele>893</ele>
        <time>2026-05-13T12:14:45.000Z</time>
      </trkpt>
      <trkpt lat="44.21615" lon="5.3931">
        <ele>894</ele>
        <time>2026-05-13T12:14:46.000Z</time>
      </trkpt>
      <trkpt lat="44.21612" lon="5.39311">
        <ele>893</ele>
        <time>2026-05-13T12:14:47.000Z</time>
      </trkpt>
      <trkpt lat="44.21608" lon="5.39313">
        <ele>893</ele>
        <time>2026-05-13T12:14:48.000Z</time>
      </trkpt>
      <trkpt lat="44.21604" lon="5.39313">
        <ele>893</ele>
        <time>2026-05-13T12:14:49.000Z</time>
      </trkpt>
      <trkpt lat="44.21601" lon="5.39314">
        <ele>893</ele>
        <time>2026-05-13T12:14:50.000Z</time>
      </trkpt>
      <trkpt lat="44.21598" lon="5.39313">
        <ele>892</ele>
        <time>2026-05-13T12:14:51.000Z</time>
      </trkpt>
      <trkpt lat="44.21595" lon="5.39311">
        <ele>892</ele>
        <time>2026-05-13T12:14:52.000Z</time>
      </trkpt>
      <trkpt lat="44.21592" lon="5.39308">
        <ele>892</ele>
        <time>2026-05-13T12:14:53.000Z</time>
      </trkpt>
      <trkpt lat="44.21591" lon="5.39306">
        <ele>891</ele>
        <time>2026-05-13T12:14:54.000Z</time>
      </trkpt>
      <trkpt lat="44.21591" lon="5.39303">
        <ele>891</ele>
        <time>2026-05-13T12:14:55.000Z</time>
      </trkpt>
      <trkpt lat="44.21592" lon="5.39301">
        <ele>891</ele>
        <time>2026-05-13T12:14:56.000Z</time>
      </trkpt>
      <trkpt lat="44.21592" lon="5.39299">
        <ele>891</ele>
        <time>2026-05-13T12:14:57.000Z</time>
      </trkpt>
      <trkpt lat="44.21593" lon="5.39297">
        <ele>892</ele>
        <time>2026-05-13T12:14:58.000Z</time>
      </trkpt>
      <trkpt lat="44.21594" lon="5.39294">
        <ele>891</ele>
        <time>2026-05-13T12:14:59.000Z</time>
      </trkpt>
      <trkpt lat="44.21596" lon="5.39293">
        <ele>891</ele>
        <time>2026-05-13T12:15:00.000Z</time>
      </trkpt>
      <trkpt lat="44.21598" lon="5.39293">
        <ele>891</ele>
        <time>2026-05-13T12:15:01.000Z</time>
      </trkpt>
      <trkpt lat="44.21599" lon="5.39291">
        <ele>891</ele>
        <time>2026-05-13T12:15:02.000Z</time>
      </trkpt>
      <trkpt lat="44.21601" lon="5.3929">
        <ele>891</ele>
        <time>2026-05-13T12:15:03.000Z</time>
      </trkpt>
      <trkpt lat="44.21603" lon="5.3929">
        <ele>891</ele>
        <time>2026-05-13T12:15:04.000Z</time>
      </trkpt>
      <trkpt lat="44.21605" lon="5.3929">
        <ele>891</ele>
        <time>2026-05-13T12:15:05.000Z</time>
      </trkpt>
      <trkpt lat="44.21606" lon="5.39289">
        <ele>891</ele>
        <time>2026-05-13T12:15:06.000Z</time>
      </trkpt>
      <trkpt lat="44.21608" lon="5.39288">
        <ele>891</ele>
        <time>2026-05-13T12:15:07.000Z</time>
      </trkpt>
      <trkpt lat="44.2161" lon="5.39288">
        <ele>891</ele>
        <time>2026-05-13T12:15:08.000Z</time>
      </trkpt>
      <trkpt lat="44.21612" lon="5.39286">
        <ele>891</ele>
        <time>2026-05-13T12:15:09.000Z</time>
      </trkpt>
      <trkpt lat="44.21613" lon="5.39286">
        <ele>891</ele>
        <time>2026-05-13T12:15:10.000Z</time>
      </trkpt>
      <trkpt lat="44.21615" lon="5.39285">
        <ele>891</ele>
        <time>2026-05-13T12:15:11.000Z</time>
      </trkpt>
      <trkpt lat="44.21618" lon="5.39285">
        <ele>891</ele>
        <time>2026-05-13T12:15:12.000Z</time>
      </trkpt>
      <trkpt lat="44.2162" lon="5.39284">
        <ele>891</ele>
        <time>2026-05-13T12:15:13.000Z</time>
      </trkpt>
      <trkpt lat="44.21622" lon="5.39284">
        <ele>891</ele>
        <time>2026-05-13T12:15:14.000Z</time>
      </trkpt>
      <trkpt lat="44.21624" lon="5.39285">
        <ele>891</ele>
        <time>2026-05-13T12:15:15.000Z</time>
      </trkpt>
      <trkpt lat="44.21626" lon="5.39285">
        <ele>891</ele>
        <time>2026-05-13T12:15:16.000Z</time>
      </trkpt>
      <trkpt lat="44.21628" lon="5.39285">
        <ele>891</ele>
        <time>2026-05-13T12:15:17.000Z</time>
      </trkpt>
      <trkpt lat="44.21631" lon="5.39285">
        <ele>891</ele>
        <time>2026-05-13T12:15:18.000Z</time>
      </trkpt>
      <trkpt lat="44.21633" lon="5.39285">
        <ele>891</ele>
        <time>2026-05-13T12:15:19.000Z</time>
      </trkpt>
      <trkpt lat="44.21635" lon="5.39285">
        <ele>891</ele>
        <time>2026-05-13T12:15:20.000Z</time>
      </trkpt>
      <trkpt lat="44.21638" lon="5.39285">
        <ele>892</ele>
        <time>2026-05-13T12:15:21.000Z</time>
      </trkpt>
      <trkpt lat="44.2164" lon="5.39285">
        <ele>892</ele>
        <time>2026-05-13T12:15:22.000Z</time>
      </trkpt>
      <trkpt lat="44.21641" lon="5.39286">
        <ele>892</ele>
        <time>2026-05-13T12:15:23.000Z</time>
      </trkpt>
      <trkpt lat="44.21643" lon="5.39285">
        <ele>892</ele>
        <time>2026-05-13T12:15:24.000Z</time>
      </trkpt>
      <trkpt lat="44.21646" lon="5.39286">
        <ele>892</ele>
        <time>2026-05-13T12:15:25.000Z</time>
      </trkpt>
      <trkpt lat="44.21648" lon="5.39286">
        <ele>892</ele>
        <time>2026-05-13T12:15:26.000Z</time>
      </trkpt>
      <trkpt lat="44.2165" lon="5.39286">
        <ele>892</ele>
        <time>2026-05-13T12:15:27.000Z</time>
      </trkpt>
      <trkpt lat="44.21652" lon="5.39286">
        <ele>892</ele>
        <time>2026-05-13T12:15:28.000Z</time>
      </trkpt>
      <trkpt lat="44.21653" lon="5.39286">
        <ele>892</ele>
        <time>2026-05-13T12:15:29.000Z</time>
      </trkpt>
      <trkpt lat="44.21654" lon="5.39286">
        <ele>892</ele>
        <time>2026-05-13T12:15:30.000Z</time>
      </trkpt>
      <trkpt lat="44.21656" lon="5.39287">
        <ele>892</ele>
        <time>2026-05-13T12:15:31.000Z</time>
      </trkpt>
      <trkpt lat="44.21658" lon="5.39287">
        <ele>892</ele>
        <time>2026-05-13T12:15:32.000Z</time>
      </trkpt>
      <trkpt lat="44.2166" lon="5.39287">
        <ele>892</ele>
        <time>2026-05-13T12:15:33.000Z</time>
      </trkpt>
      <trkpt lat="44.21662" lon="5.39287">
        <ele>892</ele>
        <time>2026-05-13T12:15:34.000Z</time>
      </trkpt>
      <trkpt lat="44.21664" lon="5.39288">
        <ele>893</ele>
        <time>2026-05-13T12:15:35.000Z</time>
      </trkpt>
      <trkpt lat="44.21666" lon="5.39288">
        <ele>893</ele>
        <time>2026-05-13T12:15:36.000Z</time>
      </trkpt>
      <trkpt lat="44.21669" lon="5.39288">
        <ele>893</ele>
        <time>2026-05-13T12:15:37.000Z</time>
      </trkpt>
      <trkpt lat="44.21671" lon="5.39288">
        <ele>893</ele>
        <time>2026-05-13T12:15:38.000Z</time>
      </trkpt>
      <trkpt lat="44.21673" lon="5.39288">
        <ele>893</ele>
        <time>2026-05-13T12:15:39.000Z</time>
      </trkpt>
      <trkpt lat="44.21675" lon="5.39288">
        <ele>893</ele>
        <time>2026-05-13T12:15:40.000Z</time>
      </trkpt>
      <trkpt lat="44.21677" lon="5.39289">
        <ele>892</ele>
        <time>2026-05-13T12:15:41.000Z</time>
      </trkpt>
      <trkpt lat="44.21679" lon="5.39288">
        <ele>893</ele>
        <time>2026-05-13T12:15:42.000Z</time>
      </trkpt>
      <trkpt lat="44.21681" lon="5.39288">
        <ele>893</ele>
        <time>2026-05-13T12:15:43.000Z</time>
      </trkpt>
      <trkpt lat="44.21683" lon="5.39288">
        <ele>893</ele>
        <time>2026-05-13T12:15:44.000Z</time>
      </trkpt>
      <trkpt lat="44.21685" lon="5.39288">
        <ele>893</ele>
        <time>2026-05-13T12:15:45.000Z</time>
      </trkpt>
      <trkpt lat="44.21687" lon="5.39288">
        <ele>893</ele>
        <time>2026-05-13T12:15:46.000Z</time>
      </trkpt>
      <trkpt lat="44.21689" lon="5.39289">
        <ele>894</ele>
        <time>2026-05-13T12:15:47.000Z</time>
      </trkpt>
      <trkpt lat="44.21692" lon="5.39289">
        <ele>894</ele>
        <time>2026-05-13T12:15:48.000Z</time>
      </trkpt>
      <trkpt lat="44.21693" lon="5.3929">
        <ele>894</ele>
        <time>2026-05-13T12:15:49.000Z</time>
      </trkpt>
      <trkpt lat="44.21696" lon="5.3929">
        <ele>894</ele>
        <time>2026-05-13T12:15:50.000Z</time>
      </trkpt>
      <trkpt lat="44.21698" lon="5.39291">
        <ele>894</ele>
        <time>2026-05-13T12:15:51.000Z</time>
      </trkpt>
      <trkpt lat="44.217" lon="5.39291">
        <ele>894</ele>
        <time>2026-05-13T12:15:52.000Z</time>
      </trkpt>
      <trkpt lat="44.21702" lon="5.39291">
        <ele>894</ele>
        <time>2026-05-13T12:15:53.000Z</time>
      </trkpt>
      <trkpt lat="44.21704" lon="5.39291">
        <ele>894</ele>
        <time>2026-05-13T12:15:54.000Z</time>
      </trkpt>
      <trkpt lat="44.21706" lon="5.39291">
        <ele>894</ele>
        <time>2026-05-13T12:15:55.000Z</time>
      </trkpt>
      <trkpt lat="44.21707" lon="5.39292">
        <ele>894</ele>
        <time>2026-05-13T12:15:56.000Z</time>
      </trkpt>
      <trkpt lat="44.21709" lon="5.39291">
        <ele>894</ele>
        <time>2026-05-13T12:15:57.000Z</time>
      </trkpt>
      <trkpt lat="44.21712" lon="5.39292">
        <ele>894</ele>
        <time>2026-05-13T12:15:58.000Z</time>
      </trkpt>
      <trkpt lat="44.21714" lon="5.39292">
        <ele>894</ele>
        <time>2026-05-13T12:15:59.000Z</time>
      </trkpt>
      <trkpt lat="44.21716" lon="5.39291">
        <ele>894</ele>
        <time>2026-05-13T12:16:00.000Z</time>
      </trkpt>
      <trkpt lat="44.21718" lon="5.39291">
        <ele>894</ele>
        <time>2026-05-13T12:16:01.000Z</time>
      </trkpt>
      <trkpt lat="44.2172" lon="5.39292">
        <ele>894</ele>
        <time>2026-05-13T12:16:02.000Z</time>
      </trkpt>
      <trkpt lat="44.21722" lon="5.39292">
        <ele>894</ele>
        <time>2026-05-13T12:16:03.000Z</time>
      </trkpt>
      <trkpt lat="44.21724" lon="5.39293">
        <ele>894</ele>
        <time>2026-05-13T12:16:04.000Z</time>
      </trkpt>
      <trkpt lat="44.21727" lon="5.39294">
        <ele>894</ele>
        <time>2026-05-13T12:16:05.000Z</time>
      </trkpt>
      <trkpt lat="44.21729" lon="5.39294">
        <ele>894</ele>
        <time>2026-05-13T12:16:06.000Z</time>
      </trkpt>
      <trkpt lat="44.21731" lon="5.39294">
        <ele>894</ele>
        <time>2026-05-13T12:16:07.000Z</time>
      </trkpt>
      <trkpt lat="44.21733" lon="5.39295">
        <ele>894</ele>
        <time>2026-05-13T12:16:08.000Z</time>
      </trkpt>
      <trkpt lat="44.21735" lon="5.39295">
        <ele>894</ele>
        <time>2026-05-13T12:16:09.000Z</time>
      </trkpt>
      <trkpt lat="44.21737" lon="5.39295">
        <ele>894</ele>
        <time>2026-05-13T12:16:10.000Z</time>
      </trkpt>
      <trkpt lat="44.21739" lon="5.39296">
        <ele>894</ele>
        <time>2026-05-13T12:16:11.000Z</time>
      </trkpt>
      <trkpt lat="44.21741" lon="5.39296">
        <ele>894</ele>
        <time>2026-05-13T12:16:12.000Z</time>
      </trkpt>
      <trkpt lat="44.21742" lon="5.39297">
        <ele>894</ele>
        <time>2026-05-13T12:16:13.000Z</time>
      </trkpt>
      <trkpt lat="44.21744" lon="5.39298">
        <ele>895</ele>
        <time>2026-05-13T12:16:14.000Z</time>
      </trkpt>
      <trkpt lat="44.21746" lon="5.39299">
        <ele>895</ele>
        <time>2026-05-13T12:16:15.000Z</time>
      </trkpt>
      <trkpt lat="44.21747" lon="5.39299">
        <ele>895</ele>
        <time>2026-05-13T12:16:16.000Z</time>
      </trkpt>
      <trkpt lat="44.2175" lon="5.393">
        <ele>894</ele>
        <time>2026-05-13T12:16:17.000Z</time>
      </trkpt>
      <trkpt lat="44.21752" lon="5.393">
        <ele>895</ele>
        <time>2026-05-13T12:16:18.000Z</time>
      </trkpt>
      <trkpt lat="44.21754" lon="5.393">
        <ele>894</ele>
        <time>2026-05-13T12:16:19.000Z</time>
      </trkpt>
      <trkpt lat="44.21756" lon="5.39301">
        <ele>894</ele>
        <time>2026-05-13T12:16:20.000Z</time>
      </trkpt>
      <trkpt lat="44.21758" lon="5.39301">
        <ele>894</ele>
        <time>2026-05-13T12:16:21.000Z</time>
      </trkpt>
      <trkpt lat="44.2176" lon="5.39302">
        <ele>895</ele>
        <time>2026-05-13T12:16:22.000Z</time>
      </trkpt>
      <trkpt lat="44.21762" lon="5.39303">
        <ele>894</ele>
        <time>2026-05-13T12:16:23.000Z</time>
      </trkpt>
      <trkpt lat="44.21764" lon="5.39304">
        <ele>895</ele>
        <time>2026-05-13T12:16:24.000Z</time>
      </trkpt>
      <trkpt lat="44.21765" lon="5.39305">
        <ele>895</ele>
        <time>2026-05-13T12:16:25.000Z</time>
      </trkpt>
      <trkpt lat="44.21767" lon="5.39305">
        <ele>895</ele>
        <time>2026-05-13T12:16:26.000Z</time>
      </trkpt>
      <trkpt lat="44.21769" lon="5.39305">
        <ele>895</ele>
        <time>2026-05-13T12:16:27.000Z</time>
      </trkpt>
      <trkpt lat="44.2177" lon="5.39306">
        <ele>896</ele>
        <time>2026-05-13T12:16:28.000Z</time>
      </trkpt>
      <trkpt lat="44.21772" lon="5.39306">
        <ele>896</ele>
        <time>2026-05-13T12:16:29.000Z</time>
      </trkpt>
      <trkpt lat="44.21774" lon="5.39306">
        <ele>897</ele>
        <time>2026-05-13T12:16:30.000Z</time>
      </trkpt>
      <trkpt lat="44.21776" lon="5.39306">
        <ele>896</ele>
        <time>2026-05-13T12:16:31.000Z</time>
      </trkpt>
      <trkpt lat="44.21779" lon="5.39307">
        <ele>895</ele>
        <time>2026-05-13T12:16:32.000Z</time>
      </trkpt>
      <trkpt lat="44.21781" lon="5.39307">
        <ele>895</ele>
        <time>2026-05-13T12:16:33.000Z</time>
      </trkpt>
      <trkpt lat="44.21783" lon="5.39306">
        <ele>896</ele>
        <time>2026-05-13T12:16:34.000Z</time>
      </trkpt>
      <trkpt lat="44.21785" lon="5.39307">
        <ele>897</ele>
        <time>2026-05-13T12:16:35.000Z</time>
      </trkpt>
      <trkpt lat="44.21786" lon="5.39307">
        <ele>898</ele>
        <time>2026-05-13T12:16:36.000Z</time>
      </trkpt>
      <trkpt lat="44.21788" lon="5.39307">
        <ele>898</ele>
        <time>2026-05-13T12:16:37.000Z</time>
      </trkpt>
      <trkpt lat="44.21789" lon="5.39307">
        <ele>898</ele>
        <time>2026-05-13T12:16:38.000Z</time>
      </trkpt>
      <trkpt lat="44.2179" lon="5.39307">
        <ele>899</ele>
        <time>2026-05-13T12:16:39.000Z</time>
      </trkpt>
      <trkpt lat="44.21791" lon="5.39308">
        <ele>899</ele>
        <time>2026-05-13T12:16:40.000Z</time>
      </trkpt>
      <trkpt lat="44.21793" lon="5.39308">
        <ele>899</ele>
        <time>2026-05-13T12:16:41.000Z</time>
      </trkpt>
      <trkpt lat="44.21795" lon="5.39308">
        <ele>899</ele>
        <time>2026-05-13T12:16:42.000Z</time>
      </trkpt>
      <trkpt lat="44.21796" lon="5.39308">
        <ele>899</ele>
        <time>2026-05-13T12:16:43.000Z</time>
      </trkpt>
      <trkpt lat="44.21798" lon="5.39309">
        <ele>899</ele>
        <time>2026-05-13T12:16:44.000Z</time>
      </trkpt>
      <trkpt lat="44.218" lon="5.39309">
        <ele>899</ele>
        <time>2026-05-13T12:16:45.000Z</time>
      </trkpt>
      <trkpt lat="44.21802" lon="5.39309">
        <ele>899</ele>
        <time>2026-05-13T12:16:46.000Z</time>
      </trkpt>
      <trkpt lat="44.21804" lon="5.39309">
        <ele>898</ele>
        <time>2026-05-13T12:16:47.000Z</time>
      </trkpt>
      <trkpt lat="44.21806" lon="5.39309">
        <ele>899</ele>
        <time>2026-05-13T12:16:48.000Z</time>
      </trkpt>
      <trkpt lat="44.21807" lon="5.39309">
        <ele>899</ele>
        <time>2026-05-13T12:16:49.000Z</time>
      </trkpt>
      <trkpt lat="44.21809" lon="5.39309">
        <ele>899</ele>
        <time>2026-05-13T12:16:50.000Z</time>
      </trkpt>
      <trkpt lat="44.21811" lon="5.3931">
        <ele>899</ele>
        <time>2026-05-13T12:16:51.000Z</time>
      </trkpt>
      <trkpt lat="44.21813" lon="5.3931">
        <ele>900</ele>
        <time>2026-05-13T12:16:52.000Z</time>
      </trkpt>
      <trkpt lat="44.21815" lon="5.3931">
        <ele>900</ele>
        <time>2026-05-13T12:16:53.000Z</time>
      </trkpt>
      <trkpt lat="44.21817" lon="5.3931">
        <ele>900</ele>
        <time>2026-05-13T12:16:54.000Z</time>
      </trkpt>
      <trkpt lat="44.21819" lon="5.39309">
        <ele>900</ele>
        <time>2026-05-13T12:16:55.000Z</time>
      </trkpt>
      <trkpt lat="44.2182" lon="5.39308">
        <ele>900</ele>
        <time>2026-05-13T12:16:56.000Z</time>
      </trkpt>
      <trkpt lat="44.21822" lon="5.39307">
        <ele>900</ele>
        <time>2026-05-13T12:16:57.000Z</time>
      </trkpt>
      <trkpt lat="44.21823" lon="5.39305">
        <ele>900</ele>
        <time>2026-05-13T12:16:58.000Z</time>
      </trkpt>
      <trkpt lat="44.21825" lon="5.39304">
        <ele>900</ele>
        <time>2026-05-13T12:16:59.000Z</time>
      </trkpt>
      <trkpt lat="44.21826" lon="5.39302">
        <ele>900</ele>
        <time>2026-05-13T12:17:00.000Z</time>
      </trkpt>
      <trkpt lat="44.21828" lon="5.39301">
        <ele>900</ele>
        <time>2026-05-13T12:17:01.000Z</time>
      </trkpt>
      <trkpt lat="44.21829" lon="5.39301">
        <ele>901</ele>
        <time>2026-05-13T12:17:02.000Z</time>
      </trkpt>
      <trkpt lat="44.2183" lon="5.393">
        <ele>901</ele>
        <time>2026-05-13T12:17:03.000Z</time>
      </trkpt>
      <trkpt lat="44.21831" lon="5.39299">
        <ele>900</ele>
        <time>2026-05-13T12:17:04.000Z</time>
      </trkpt>
      <trkpt lat="44.21833" lon="5.393">
        <ele>900</ele>
        <time>2026-05-13T12:17:05.000Z</time>
      </trkpt>
      <trkpt lat="44.21834" lon="5.393">
        <ele>901</ele>
        <time>2026-05-13T12:17:06.000Z</time>
      </trkpt>
      <trkpt lat="44.21835" lon="5.393">
        <ele>901</ele>
        <time>2026-05-13T12:17:07.000Z</time>
      </trkpt>
      <trkpt lat="44.21836" lon="5.39299">
        <ele>901</ele>
        <time>2026-05-13T12:17:08.000Z</time>
      </trkpt>
      <trkpt lat="44.21837" lon="5.39299">
        <ele>900</ele>
        <time>2026-05-13T12:17:09.000Z</time>
      </trkpt>
      <trkpt lat="44.21838" lon="5.39299">
        <ele>901</ele>
        <time>2026-05-13T12:17:10.000Z</time>
      </trkpt>
      <trkpt lat="44.2184" lon="5.39299">
        <ele>901</ele>
        <time>2026-05-13T12:17:11.000Z</time>
      </trkpt>
      <trkpt lat="44.21841" lon="5.39299">
        <ele>901</ele>
        <time>2026-05-13T12:17:12.000Z</time>
      </trkpt>
      <trkpt lat="44.21842" lon="5.393">
        <ele>901</ele>
        <time>2026-05-13T12:17:13.000Z</time>
      </trkpt>
      <trkpt lat="44.21843" lon="5.39301">
        <ele>902</ele>
        <time>2026-05-13T12:17:14.000Z</time>
      </trkpt>
      <trkpt lat="44.21844" lon="5.39301">
        <ele>901</ele>
        <time>2026-05-13T12:17:15.000Z</time>
      </trkpt>
      <trkpt lat="44.21845" lon="5.39301">
        <ele>901</ele>
        <time>2026-05-13T12:17:16.000Z</time>
      </trkpt>
      <trkpt lat="44.21846" lon="5.39302">
        <ele>901</ele>
        <time>2026-05-13T12:17:17.000Z</time>
      </trkpt>
      <trkpt lat="44.21847" lon="5.39303">
        <ele>901</ele>
        <time>2026-05-13T12:17:18.000Z</time>
      </trkpt>
      <trkpt lat="44.21848" lon="5.39304">
        <ele>901</ele>
        <time>2026-05-13T12:17:19.000Z</time>
      </trkpt>
      <trkpt lat="44.21849" lon="5.39305">
        <ele>901</ele>
        <time>2026-05-13T12:17:20.000Z</time>
      </trkpt>
      <trkpt lat="44.2185" lon="5.39305">
        <ele>901</ele>
        <time>2026-05-13T12:17:21.000Z</time>
      </trkpt>
      <trkpt lat="44.21851" lon="5.39306">
        <ele>901</ele>
        <time>2026-05-13T12:17:22.000Z</time>
      </trkpt>
      <trkpt lat="44.21852" lon="5.39307">
        <ele>901</ele>
        <time>2026-05-13T12:17:23.000Z</time>
      </trkpt>
      <trkpt lat="44.21854" lon="5.39308">
        <ele>901</ele>
        <time>2026-05-13T12:17:24.000Z</time>
      </trkpt>
      <trkpt lat="44.21855" lon="5.39308">
        <ele>901</ele>
        <time>2026-05-13T12:17:25.000Z</time>
      </trkpt>
      <trkpt lat="44.21856" lon="5.39309">
        <ele>901</ele>
        <time>2026-05-13T12:17:26.000Z</time>
      </trkpt>
      <trkpt lat="44.21857" lon="5.39309">
        <ele>902</ele>
        <time>2026-05-13T12:17:27.000Z</time>
      </trkpt>
      <trkpt lat="44.21859" lon="5.3931">
        <ele>903</ele>
        <time>2026-05-13T12:17:28.000Z</time>
      </trkpt>
      <trkpt lat="44.2186" lon="5.3931">
        <ele>903</ele>
        <time>2026-05-13T12:17:29.000Z</time>
      </trkpt>
      <trkpt lat="44.21861" lon="5.39311">
        <ele>903</ele>
        <time>2026-05-13T12:17:30.000Z</time>
      </trkpt>
      <trkpt lat="44.21862" lon="5.39311">
        <ele>903</ele>
        <time>2026-05-13T12:17:31.000Z</time>
      </trkpt>
      <trkpt lat="44.21863" lon="5.39311">
        <ele>903</ele>
        <time>2026-05-13T12:17:32.000Z</time>
      </trkpt>
      <trkpt lat="44.21864" lon="5.39312">
        <ele>903</ele>
        <time>2026-05-13T12:17:33.000Z</time>
      </trkpt>
      <trkpt lat="44.21865" lon="5.39311">
        <ele>903</ele>
        <time>2026-05-13T12:17:34.000Z</time>
      </trkpt>
      <trkpt lat="44.21866" lon="5.39312">
        <ele>904</ele>
        <time>2026-05-13T12:17:35.000Z</time>
      </trkpt>
      <trkpt lat="44.21867" lon="5.39312">
        <ele>904</ele>
        <time>2026-05-13T12:17:36.000Z</time>
      </trkpt>
      <trkpt lat="44.21869" lon="5.39312">
        <ele>904</ele>
        <time>2026-05-13T12:17:37.000Z</time>
      </trkpt>
      <trkpt lat="44.2187" lon="5.39313">
        <ele>905</ele>
        <time>2026-05-13T12:17:38.000Z</time>
      </trkpt>
      <trkpt lat="44.21871" lon="5.39313">
        <ele>905</ele>
        <time>2026-05-13T12:17:39.000Z</time>
      </trkpt>
      <trkpt lat="44.21872" lon="5.39313">
        <ele>905</ele>
        <time>2026-05-13T12:17:40.000Z</time>
      </trkpt>
      <trkpt lat="44.21873" lon="5.39313">
        <ele>905</ele>
        <time>2026-05-13T12:17:41.000Z</time>
      </trkpt>
      <trkpt lat="44.21875" lon="5.39313">
        <ele>905</ele>
        <time>2026-05-13T12:17:42.000Z</time>
      </trkpt>
      <trkpt lat="44.21876" lon="5.39313">
        <ele>905</ele>
        <time>2026-05-13T12:17:43.000Z</time>
      </trkpt>
      <trkpt lat="44.21877" lon="5.39313">
        <ele>905</ele>
        <time>2026-05-13T12:17:44.000Z</time>
      </trkpt>
      <trkpt lat="44.21879" lon="5.39314">
        <ele>905</ele>
        <time>2026-05-13T12:17:45.000Z</time>
      </trkpt>
      <trkpt lat="44.2188" lon="5.39314">
        <ele>905</ele>
        <time>2026-05-13T12:17:46.000Z</time>
      </trkpt>
      <trkpt lat="44.21881" lon="5.39315">
        <ele>906</ele>
        <time>2026-05-13T12:17:47.000Z</time>
      </trkpt>
      <trkpt lat="44.21881" lon="5.39314">
        <ele>906</ele>
        <time>2026-05-13T12:17:48.000Z</time>
      </trkpt>
      <trkpt lat="44.21882" lon="5.39314">
        <ele>906</ele>
        <time>2026-05-13T12:17:49.000Z</time>
      </trkpt>
      <trkpt lat="44.21883" lon="5.39315">
        <ele>906</ele>
        <time>2026-05-13T12:17:50.000Z</time>
      </trkpt>
      <trkpt lat="44.21884" lon="5.39315">
        <ele>907</ele>
        <time>2026-05-13T12:17:51.000Z</time>
      </trkpt>
      <trkpt lat="44.21885" lon="5.39315">
        <ele>907</ele>
        <time>2026-05-13T12:17:52.000Z</time>
      </trkpt>
      <trkpt lat="44.21886" lon="5.39316">
        <ele>907</ele>
        <time>2026-05-13T12:17:53.000Z</time>
      </trkpt>
      <trkpt lat="44.21887" lon="5.39316">
        <ele>908</ele>
        <time>2026-05-13T12:17:54.000Z</time>
      </trkpt>
      <trkpt lat="44.21888" lon="5.39317">
        <ele>908</ele>
        <time>2026-05-13T12:17:55.000Z</time>
      </trkpt>
      <trkpt lat="44.21889" lon="5.39317">
        <ele>909</ele>
        <time>2026-05-13T12:17:56.000Z</time>
      </trkpt>
      <trkpt lat="44.2189" lon="5.39317">
        <ele>909</ele>
        <time>2026-05-13T12:17:57.000Z</time>
      </trkpt>
      <trkpt lat="44.21892" lon="5.39317">
        <ele>909</ele>
        <time>2026-05-13T12:17:58.000Z</time>
      </trkpt>
      <trkpt lat="44.21893" lon="5.39318">
        <ele>910</ele>
        <time>2026-05-13T12:17:59.000Z</time>
      </trkpt>
      <trkpt lat="44.21895" lon="5.39318">
        <ele>910</ele>
        <time>2026-05-13T12:18:00.000Z</time>
      </trkpt>
      <trkpt lat="44.21896" lon="5.39318">
        <ele>910</ele>
        <time>2026-05-13T12:18:01.000Z</time>
      </trkpt>
      <trkpt lat="44.21897" lon="5.39317">
        <ele>910</ele>
        <time>2026-05-13T12:18:02.000Z</time>
      </trkpt>
      <trkpt lat="44.21898" lon="5.39318">
        <ele>911</ele>
        <time>2026-05-13T12:18:03.000Z</time>
      </trkpt>
      <trkpt lat="44.21899" lon="5.39317">
        <ele>911</ele>
        <time>2026-05-13T12:18:04.000Z</time>
      </trkpt>
      <trkpt lat="44.219" lon="5.39318">
        <ele>912</ele>
        <time>2026-05-13T12:18:05.000Z</time>
      </trkpt>
      <trkpt lat="44.21901" lon="5.39318">
        <ele>912</ele>
        <time>2026-05-13T12:18:06.000Z</time>
      </trkpt>
      <trkpt lat="44.21902" lon="5.39319">
        <ele>912</ele>
        <time>2026-05-13T12:18:07.000Z</time>
      </trkpt>
      <trkpt lat="44.21903" lon="5.39319">
        <ele>912</ele>
        <time>2026-05-13T12:18:08.000Z</time>
      </trkpt>
      <trkpt lat="44.21903" lon="5.3932">
        <ele>912</ele>
        <time>2026-05-13T12:18:09.000Z</time>
      </trkpt>
      <trkpt lat="44.21904" lon="5.3932">
        <ele>911</ele>
        <time>2026-05-13T12:18:10.000Z</time>
      </trkpt>
      <trkpt lat="44.21905" lon="5.3932">
        <ele>911</ele>
        <time>2026-05-13T12:18:11.000Z</time>
      </trkpt>
      <trkpt lat="44.21906" lon="5.39321">
        <ele>911</ele>
        <time>2026-05-13T12:18:12.000Z</time>
      </trkpt>
      <trkpt lat="44.21907" lon="5.39321">
        <ele>911</ele>
        <time>2026-05-13T12:18:13.000Z</time>
      </trkpt>
      <trkpt lat="44.21908" lon="5.39321">
        <ele>911</ele>
        <time>2026-05-13T12:18:14.000Z</time>
      </trkpt>
      <trkpt lat="44.21909" lon="5.39322">
        <ele>911</ele>
        <time>2026-05-13T12:18:15.000Z</time>
      </trkpt>
      <trkpt lat="44.2191" lon="5.39322">
        <ele>911</ele>
        <time>2026-05-13T12:18:16.000Z</time>
      </trkpt>
      <trkpt lat="44.2191" lon="5.39323">
        <ele>911</ele>
        <time>2026-05-13T12:18:17.000Z</time>
      </trkpt>
      <trkpt lat="44.21911" lon="5.39323">
        <ele>911</ele>
        <time>2026-05-13T12:18:18.000Z</time>
      </trkpt>
      <trkpt lat="44.21912" lon="5.39323">
        <ele>911</ele>
        <time>2026-05-13T12:18:19.000Z</time>
      </trkpt>
      <trkpt lat="44.21913" lon="5.39324">
        <ele>911</ele>
        <time>2026-05-13T12:18:20.000Z</time>
      </trkpt>
      <trkpt lat="44.21914" lon="5.39324">
        <ele>912</ele>
        <time>2026-05-13T12:18:21.000Z</time>
      </trkpt>
      <trkpt lat="44.21915" lon="5.39325">
        <ele>912</ele>
        <time>2026-05-13T12:18:22.000Z</time>
      </trkpt>
      <trkpt lat="44.21915" lon="5.39326">
        <ele>912</ele>
        <time>2026-05-13T12:18:23.000Z</time>
      </trkpt>
      <trkpt lat="44.21916" lon="5.39326">
        <ele>913</ele>
        <time>2026-05-13T12:18:24.000Z</time>
      </trkpt>
      <trkpt lat="44.21917" lon="5.39326">
        <ele>913</ele>
        <time>2026-05-13T12:18:25.000Z</time>
      </trkpt>
      <trkpt lat="44.21918" lon="5.39327">
        <ele>912</ele>
        <time>2026-05-13T12:18:26.000Z</time>
      </trkpt>
      <trkpt lat="44.21919" lon="5.39327">
        <ele>913</ele>
        <time>2026-05-13T12:18:27.000Z</time>
      </trkpt>
      <trkpt lat="44.2192" lon="5.39327">
        <ele>913</ele>
        <time>2026-05-13T12:18:28.000Z</time>
      </trkpt>
      <trkpt lat="44.21921" lon="5.39328">
        <ele>914</ele>
        <time>2026-05-13T12:18:29.000Z</time>
      </trkpt>
      <trkpt lat="44.21923" lon="5.39328">
        <ele>914</ele>
        <time>2026-05-13T12:18:30.000Z</time>
      </trkpt>
      <trkpt lat="44.21924" lon="5.39328">
        <ele>915</ele>
        <time>2026-05-13T12:18:31.000Z</time>
      </trkpt>
      <trkpt lat="44.21926" lon="5.39329">
        <ele>915</ele>
        <time>2026-05-13T12:18:32.000Z</time>
      </trkpt>
      <trkpt lat="44.21926" lon="5.3933">
        <ele>915</ele>
        <time>2026-05-13T12:18:33.000Z</time>
      </trkpt>
      <trkpt lat="44.21927" lon="5.39329">
        <ele>914</ele>
        <time>2026-05-13T12:18:34.000Z</time>
      </trkpt>
      <trkpt lat="44.21928" lon="5.39329">
        <ele>915</ele>
        <time>2026-05-13T12:18:35.000Z</time>
      </trkpt>
      <trkpt lat="44.2193" lon="5.39329">
        <ele>915</ele>
        <time>2026-05-13T12:18:36.000Z</time>
      </trkpt>
      <trkpt lat="44.21931" lon="5.39329">
        <ele>915</ele>
        <time>2026-05-13T12:18:37.000Z</time>
      </trkpt>
      <trkpt lat="44.21932" lon="5.39329">
        <ele>915</ele>
        <time>2026-05-13T12:18:38.000Z</time>
      </trkpt>
      <trkpt lat="44.21933" lon="5.39329">
        <ele>915</ele>
        <time>2026-05-13T12:18:39.000Z</time>
      </trkpt>
      <trkpt lat="44.21935" lon="5.39329">
        <ele>915</ele>
        <time>2026-05-13T12:18:40.000Z</time>
      </trkpt>
      <trkpt lat="44.21936" lon="5.39328">
        <ele>916</ele>
        <time>2026-05-13T12:18:41.000Z</time>
      </trkpt>
      <trkpt lat="44.21936" lon="5.39328">
        <ele>916</ele>
        <time>2026-05-13T12:18:42.000Z</time>
      </trkpt>
      <trkpt lat="44.21937" lon="5.39328">
        <ele>916</ele>
        <time>2026-05-13T12:18:43.000Z</time>
      </trkpt>
      <trkpt lat="44.21938" lon="5.39329">
        <ele>915</ele>
        <time>2026-05-13T12:18:44.000Z</time>
      </trkpt>
      <trkpt lat="44.21939" lon="5.3933">
        <ele>916</ele>
        <time>2026-05-13T12:18:45.000Z</time>
      </trkpt>
      <trkpt lat="44.2194" lon="5.39331">
        <ele>916</ele>
        <time>2026-05-13T12:18:46.000Z</time>
      </trkpt>
      <trkpt lat="44.21941" lon="5.39331">
        <ele>915</ele>
        <time>2026-05-13T12:18:47.000Z</time>
      </trkpt>
      <trkpt lat="44.21942" lon="5.39331">
        <ele>916</ele>
        <time>2026-05-13T12:18:48.000Z</time>
      </trkpt>
      <trkpt lat="44.21943" lon="5.39332">
        <ele>916</ele>
        <time>2026-05-13T12:18:49.000Z</time>
      </trkpt>
      <trkpt lat="44.21944" lon="5.39332">
        <ele>916</ele>
        <time>2026-05-13T12:18:50.000Z</time>
      </trkpt>
      <trkpt lat="44.21944" lon="5.39332">
        <ele>916</ele>
        <time>2026-05-13T12:18:51.000Z</time>
      </trkpt>
      <trkpt lat="44.21945" lon="5.39332">
        <ele>917</ele>
        <time>2026-05-13T12:18:52.000Z</time>
      </trkpt>
      <trkpt lat="44.21946" lon="5.39333">
        <ele>917</ele>
        <time>2026-05-13T12:18:53.000Z</time>
      </trkpt>
      <trkpt lat="44.21947" lon="5.39334">
        <ele>917</ele>
        <time>2026-05-13T12:18:54.000Z</time>
      </trkpt>
      <trkpt lat="44.21948" lon="5.39335">
        <ele>917</ele>
        <time>2026-05-13T12:18:55.000Z</time>
      </trkpt>
      <trkpt lat="44.21949" lon="5.39336">
        <ele>917</ele>
        <time>2026-05-13T12:18:56.000Z</time>
      </trkpt>
      <trkpt lat="44.21949" lon="5.39336">
        <ele>918</ele>
        <time>2026-05-13T12:18:57.000Z</time>
      </trkpt>
      <trkpt lat="44.2195" lon="5.39337">
        <ele>918</ele>
        <time>2026-05-13T12:18:58.000Z</time>
      </trkpt>
      <trkpt lat="44.21951" lon="5.39337">
        <ele>919</ele>
        <time>2026-05-13T12:18:59.000Z</time>
      </trkpt>
      <trkpt lat="44.21952" lon="5.39338">
        <ele>918</ele>
        <time>2026-05-13T12:19:00.000Z</time>
      </trkpt>
      <trkpt lat="44.21952" lon="5.39339">
        <ele>918</ele>
        <time>2026-05-13T12:19:01.000Z</time>
      </trkpt>
      <trkpt lat="44.21953" lon="5.3934">
        <ele>919</ele>
        <time>2026-05-13T12:19:02.000Z</time>
      </trkpt>
      <trkpt lat="44.21954" lon="5.39341">
        <ele>919</ele>
        <time>2026-05-13T12:19:03.000Z</time>
      </trkpt>
      <trkpt lat="44.21955" lon="5.39342">
        <ele>920</ele>
        <time>2026-05-13T12:19:04.000Z</time>
      </trkpt>
      <trkpt lat="44.21955" lon="5.39343">
        <ele>920</ele>
        <time>2026-05-13T12:19:05.000Z</time>
      </trkpt>
      <trkpt lat="44.21956" lon="5.39343">
        <ele>920</ele>
        <time>2026-05-13T12:19:06.000Z</time>
      </trkpt>
      <trkpt lat="44.21958" lon="5.39343">
        <ele>920</ele>
        <time>2026-05-13T12:19:07.000Z</time>
      </trkpt>
      <trkpt lat="44.21959" lon="5.39344">
        <ele>920</ele>
        <time>2026-05-13T12:19:08.000Z</time>
      </trkpt>
      <trkpt lat="44.21961" lon="5.39344">
        <ele>920</ele>
        <time>2026-05-13T12:19:09.000Z</time>
      </trkpt>
      <trkpt lat="44.21961" lon="5.39344">
        <ele>920</ele>
        <time>2026-05-13T12:19:10.000Z</time>
      </trkpt>
      <trkpt lat="44.21962" lon="5.39345">
        <ele>920</ele>
        <time>2026-05-13T12:19:11.000Z</time>
      </trkpt>
      <trkpt lat="44.21963" lon="5.39346">
        <ele>920</ele>
        <time>2026-05-13T12:19:12.000Z</time>
      </trkpt>
      <trkpt lat="44.21964" lon="5.39347">
        <ele>920</ele>
        <time>2026-05-13T12:19:13.000Z</time>
      </trkpt>
      <trkpt lat="44.21964" lon="5.39348">
        <ele>921</ele>
        <time>2026-05-13T12:19:14.000Z</time>
      </trkpt>
      <trkpt lat="44.21965" lon="5.39349">
        <ele>921</ele>
        <time>2026-05-13T12:19:15.000Z</time>
      </trkpt>
      <trkpt lat="44.21966" lon="5.3935">
        <ele>921</ele>
        <time>2026-05-13T12:19:16.000Z</time>
      </trkpt>
      <trkpt lat="44.21967" lon="5.39351">
        <ele>922</ele>
        <time>2026-05-13T12:19:17.000Z</time>
      </trkpt>
      <trkpt lat="44.21968" lon="5.39351">
        <ele>922</ele>
        <time>2026-05-13T12:19:18.000Z</time>
      </trkpt>
      <trkpt lat="44.2197" lon="5.39352">
        <ele>922</ele>
        <time>2026-05-13T12:19:19.000Z</time>
      </trkpt>
      <trkpt lat="44.2197" lon="5.39352">
        <ele>923</ele>
        <time>2026-05-13T12:19:20.000Z</time>
      </trkpt>
      <trkpt lat="44.21972" lon="5.39352">
        <ele>923</ele>
        <time>2026-05-13T12:19:21.000Z</time>
      </trkpt>
      <trkpt lat="44.21973" lon="5.39352">
        <ele>923</ele>
        <time>2026-05-13T12:19:22.000Z</time>
      </trkpt>
      <trkpt lat="44.21973" lon="5.39353">
        <ele>923</ele>
        <time>2026-05-13T12:19:23.000Z</time>
      </trkpt>
      <trkpt lat="44.21974" lon="5.39354">
        <ele>923</ele>
        <time>2026-05-13T12:19:24.000Z</time>
      </trkpt>
      <trkpt lat="44.21975" lon="5.39355">
        <ele>923</ele>
        <time>2026-05-13T12:19:25.000Z</time>
      </trkpt>
      <trkpt lat="44.21975" lon="5.39356">
        <ele>924</ele>
        <time>2026-05-13T12:19:26.000Z</time>
      </trkpt>
      <trkpt lat="44.21975" lon="5.39358">
        <ele>924</ele>
        <time>2026-05-13T12:19:27.000Z</time>
      </trkpt>
      <trkpt lat="44.21976" lon="5.39359">
        <ele>924</ele>
        <time>2026-05-13T12:19:28.000Z</time>
      </trkpt>
      <trkpt lat="44.21976" lon="5.3936">
        <ele>924</ele>
        <time>2026-05-13T12:19:29.000Z</time>
      </trkpt>
      <trkpt lat="44.21977" lon="5.39361">
        <ele>924</ele>
        <time>2026-05-13T12:19:30.000Z</time>
      </trkpt>
      <trkpt lat="44.21978" lon="5.39362">
        <ele>924</ele>
        <time>2026-05-13T12:19:31.000Z</time>
      </trkpt>
      <trkpt lat="44.21978" lon="5.3936">
        <ele>924</ele>
        <time>2026-05-13T12:19:32.000Z</time>
      </trkpt>
      <trkpt lat="44.21978" lon="5.39359">
        <ele>923</ele>
        <time>2026-05-13T12:19:33.000Z</time>
      </trkpt>
      <trkpt lat="44.21977" lon="5.39357">
        <ele>923</ele>
        <time>2026-05-13T12:19:34.000Z</time>
      </trkpt>
      <trkpt lat="44.21976" lon="5.39356">
        <ele>923</ele>
        <time>2026-05-13T12:19:35.000Z</time>
      </trkpt>
      <trkpt lat="44.21975" lon="5.39356">
        <ele>923</ele>
        <time>2026-05-13T12:19:36.000Z</time>
      </trkpt>
      <trkpt lat="44.21973" lon="5.39355">
        <ele>923</ele>
        <time>2026-05-13T12:19:37.000Z</time>
      </trkpt>
      <trkpt lat="44.21971" lon="5.39354">
        <ele>923</ele>
        <time>2026-05-13T12:19:38.000Z</time>
      </trkpt>
      <trkpt lat="44.2197" lon="5.39353">
        <ele>923</ele>
        <time>2026-05-13T12:19:39.000Z</time>
      </trkpt>
      <trkpt lat="44.21968" lon="5.39352">
        <ele>923</ele>
        <time>2026-05-13T12:19:40.000Z</time>
      </trkpt>
      <trkpt lat="44.21968" lon="5.39351">
        <ele>923</ele>
        <time>2026-05-13T12:19:41.000Z</time>
      </trkpt>
      <trkpt lat="44.21966" lon="5.39349">
        <ele>923</ele>
        <time>2026-05-13T12:19:42.000Z</time>
      </trkpt>
      <trkpt lat="44.21965" lon="5.39349">
        <ele>923</ele>
        <time>2026-05-13T12:19:43.000Z</time>
      </trkpt>
      <trkpt lat="44.21964" lon="5.39348">
        <ele>923</ele>
        <time>2026-05-13T12:19:44.000Z</time>
      </trkpt>
      <trkpt lat="44.21962" lon="5.39347">
        <ele>924</ele>
        <time>2026-05-13T12:19:45.000Z</time>
      </trkpt>
      <trkpt lat="44.21961" lon="5.39346">
        <ele>924</ele>
        <time>2026-05-13T12:19:46.000Z</time>
      </trkpt>
      <trkpt lat="44.2196" lon="5.39346">
        <ele>924</ele>
        <time>2026-05-13T12:19:47.000Z</time>
      </trkpt>
      <trkpt lat="44.21959" lon="5.39346">
        <ele>924</ele>
        <time>2026-05-13T12:19:48.000Z</time>
      </trkpt>
      <trkpt lat="44.21959" lon="5.39346">
        <ele>924</ele>
        <time>2026-05-13T12:19:49.000Z</time>
      </trkpt>
      <trkpt lat="44.21958" lon="5.39346">
        <ele>924</ele>
        <time>2026-05-13T12:19:50.000Z</time>
      </trkpt>
      <trkpt lat="44.21958" lon="5.39345">
        <ele>924</ele>
        <time>2026-05-13T12:19:51.000Z</time>
      </trkpt>
      <trkpt lat="44.21957" lon="5.39343">
        <ele>924</ele>
        <time>2026-05-13T12:19:52.000Z</time>
      </trkpt>
      <trkpt lat="44.21957" lon="5.39343">
        <ele>923</ele>
        <time>2026-05-13T12:19:53.000Z</time>
      </trkpt>
      <trkpt lat="44.21957" lon="5.39343">
        <ele>923</ele>
        <time>2026-05-13T12:19:54.000Z</time>
      </trkpt>
      <trkpt lat="44.21957" lon="5.39344">
        <ele>923</ele>
        <time>2026-05-13T12:19:55.000Z</time>
      </trkpt>
      <trkpt lat="44.21956" lon="5.39345">
        <ele>922</ele>
        <time>2026-05-13T12:19:56.000Z</time>
      </trkpt>
      <trkpt lat="44.21956" lon="5.39346">
        <ele>922</ele>
        <time>2026-05-13T12:19:57.000Z</time>
      </trkpt>
      <trkpt lat="44.21956" lon="5.39348">
        <ele>922</ele>
        <time>2026-05-13T12:19:58.000Z</time>
      </trkpt>
      <trkpt lat="44.21956" lon="5.39349">
        <ele>923</ele>
        <time>2026-05-13T12:19:59.000Z</time>
      </trkpt>
      <trkpt lat="44.21956" lon="5.3935">
        <ele>922</ele>
        <time>2026-05-13T12:20:00.000Z</time>
      </trkpt>
      <trkpt lat="44.21957" lon="5.3935">
        <ele>922</ele>
        <time>2026-05-13T12:20:01.000Z</time>
      </trkpt>
      <trkpt lat="44.21958" lon="5.39351">
        <ele>922</ele>
        <time>2026-05-13T12:20:02.000Z</time>
      </trkpt>
      <trkpt lat="44.2196" lon="5.39351">
        <ele>922</ele>
        <time>2026-05-13T12:20:03.000Z</time>
      </trkpt>
      <trkpt lat="44.21961" lon="5.39351">
        <ele>922</ele>
        <time>2026-05-13T12:20:04.000Z</time>
      </trkpt>
      <trkpt lat="44.21962" lon="5.39351">
        <ele>922</ele>
        <time>2026-05-13T12:20:05.000Z</time>
      </trkpt>
      <trkpt lat="44.21963" lon="5.39351">
        <ele>922</ele>
        <time>2026-05-13T12:20:06.000Z</time>
      </trkpt>
      <trkpt lat="44.21964" lon="5.39351">
        <ele>922</ele>
        <time>2026-05-13T12:20:07.000Z</time>
      </trkpt>
      <trkpt lat="44.21965" lon="5.3935">
        <ele>922</ele>
        <time>2026-05-13T12:20:08.000Z</time>
      </trkpt>
      <trkpt lat="44.21966" lon="5.39351">
        <ele>922</ele>
        <time>2026-05-13T12:20:09.000Z</time>
      </trkpt>
      <trkpt lat="44.21967" lon="5.39352">
        <ele>923</ele>
        <time>2026-05-13T12:20:10.000Z</time>
      </trkpt>
      <trkpt lat="44.21969" lon="5.39352">
        <ele>923</ele>
        <time>2026-05-13T12:20:11.000Z</time>
      </trkpt>
      <trkpt lat="44.2197" lon="5.39352">
        <ele>923</ele>
        <time>2026-05-13T12:20:12.000Z</time>
      </trkpt>
      <trkpt lat="44.21971" lon="5.39352">
        <ele>923</ele>
        <time>2026-05-13T12:20:13.000Z</time>
      </trkpt>
      <trkpt lat="44.21972" lon="5.39353">
        <ele>923</ele>
        <time>2026-05-13T12:20:14.000Z</time>
      </trkpt>
      <trkpt lat="44.21973" lon="5.39354">
        <ele>923</ele>
        <time>2026-05-13T12:20:15.000Z</time>
      </trkpt>
      <trkpt lat="44.21973" lon="5.39355">
        <ele>924</ele>
        <time>2026-05-13T12:20:16.000Z</time>
      </trkpt>
      <trkpt lat="44.21974" lon="5.39357">
        <ele>923</ele>
        <time>2026-05-13T12:20:17.000Z</time>
      </trkpt>
      <trkpt lat="44.21975" lon="5.39358">
        <ele>924</ele>
        <time>2026-05-13T12:20:18.000Z</time>
      </trkpt>
      <trkpt lat="44.21976" lon="5.39359">
        <ele>923</ele>
        <time>2026-05-13T12:20:19.000Z</time>
      </trkpt>
      <trkpt lat="44.21977" lon="5.3936">
        <ele>923</ele>
        <time>2026-05-13T12:20:20.000Z</time>
      </trkpt>
      <trkpt lat="44.21978" lon="5.3936">
        <ele>923</ele>
        <time>2026-05-13T12:20:21.000Z</time>
      </trkpt>
      <trkpt lat="44.21979" lon="5.39362">
        <ele>923</ele>
        <time>2026-05-13T12:20:22.000Z</time>
      </trkpt>
      <trkpt lat="44.2198" lon="5.39363">
        <ele>924</ele>
        <time>2026-05-13T12:20:23.000Z</time>
      </trkpt>
      <trkpt lat="44.21982" lon="5.39363">
        <ele>924</ele>
        <time>2026-05-13T12:20:24.000Z</time>
      </trkpt>
      <trkpt lat="44.21983" lon="5.39364">
        <ele>924</ele>
        <time>2026-05-13T12:20:25.000Z</time>
      </trkpt>
      <trkpt lat="44.21984" lon="5.39366">
        <ele>925</ele>
        <time>2026-05-13T12:20:26.000Z</time>
      </trkpt>
      <trkpt lat="44.21985" lon="5.39367">
        <ele>925</ele>
        <time>2026-05-13T12:20:27.000Z</time>
      </trkpt>
      <trkpt lat="44.21986" lon="5.39367">
        <ele>925</ele>
        <time>2026-05-13T12:20:28.000Z</time>
      </trkpt>
      <trkpt lat="44.21987" lon="5.39367">
        <ele>925</ele>
        <time>2026-05-13T12:20:29.000Z</time>
      </trkpt>
      <trkpt lat="44.21988" lon="5.39368">
        <ele>925</ele>
        <time>2026-05-13T12:20:30.000Z</time>
      </trkpt>
      <trkpt lat="44.2199" lon="5.39369">
        <ele>925</ele>
        <time>2026-05-13T12:20:31.000Z</time>
      </trkpt>
      <trkpt lat="44.21991" lon="5.39369">
        <ele>926</ele>
        <time>2026-05-13T12:20:32.000Z</time>
      </trkpt>
      <trkpt lat="44.21992" lon="5.3937">
        <ele>926</ele>
        <time>2026-05-13T12:20:33.000Z</time>
      </trkpt>
      <trkpt lat="44.21992" lon="5.39371">
        <ele>926</ele>
        <time>2026-05-13T12:20:34.000Z</time>
      </trkpt>
      <trkpt lat="44.21993" lon="5.39372">
        <ele>926</ele>
        <time>2026-05-13T12:20:35.000Z</time>
      </trkpt>
      <trkpt lat="44.21994" lon="5.39373">
        <ele>926</ele>
        <time>2026-05-13T12:20:36.000Z</time>
      </trkpt>
      <trkpt lat="44.21996" lon="5.39373">
        <ele>927</ele>
        <time>2026-05-13T12:20:37.000Z</time>
      </trkpt>
      <trkpt lat="44.21997" lon="5.39373">
        <ele>927</ele>
        <time>2026-05-13T12:20:38.000Z</time>
      </trkpt>
      <trkpt lat="44.21998" lon="5.39374">
        <ele>927</ele>
        <time>2026-05-13T12:20:39.000Z</time>
      </trkpt>
      <trkpt lat="44.21999" lon="5.39375">
        <ele>927</ele>
        <time>2026-05-13T12:20:40.000Z</time>
      </trkpt>
      <trkpt lat="44.22001" lon="5.39375">
        <ele>927</ele>
        <time>2026-05-13T12:20:41.000Z</time>
      </trkpt>
      <trkpt lat="44.22002" lon="5.39376">
        <ele>927</ele>
        <time>2026-05-13T12:20:42.000Z</time>
      </trkpt>
      <trkpt lat="44.22003" lon="5.39376">
        <ele>927</ele>
        <time>2026-05-13T12:20:43.000Z</time>
      </trkpt>
      <trkpt lat="44.22004" lon="5.39377">
        <ele>926</ele>
        <time>2026-05-13T12:20:44.000Z</time>
      </trkpt>
      <trkpt lat="44.22005" lon="5.39378">
        <ele>926</ele>
        <time>2026-05-13T12:20:45.000Z</time>
      </trkpt>
      <trkpt lat="44.22006" lon="5.39379">
        <ele>927</ele>
        <time>2026-05-13T12:20:46.000Z</time>
      </trkpt>
      <trkpt lat="44.22007" lon="5.3938">
        <ele>927</ele>
        <time>2026-05-13T12:20:47.000Z</time>
      </trkpt>
      <trkpt lat="44.22008" lon="5.3938">
        <ele>927</ele>
        <time>2026-05-13T12:20:48.000Z</time>
      </trkpt>
      <trkpt lat="44.22009" lon="5.39381">
        <ele>927</ele>
        <time>2026-05-13T12:20:49.000Z</time>
      </trkpt>
      <trkpt lat="44.2201" lon="5.39382">
        <ele>927</ele>
        <time>2026-05-13T12:20:50.000Z</time>
      </trkpt>
      <trkpt lat="44.22011" lon="5.39383">
        <ele>928</ele>
        <time>2026-05-13T12:20:51.000Z</time>
      </trkpt>
      <trkpt lat="44.22012" lon="5.39384">
        <ele>928</ele>
        <time>2026-05-13T12:20:52.000Z</time>
      </trkpt>
      <trkpt lat="44.22013" lon="5.39386">
        <ele>928</ele>
        <time>2026-05-13T12:20:53.000Z</time>
      </trkpt>
      <trkpt lat="44.22013" lon="5.39387">
        <ele>928</ele>
        <time>2026-05-13T12:20:54.000Z</time>
      </trkpt>
      <trkpt lat="44.22015" lon="5.39388">
        <ele>928</ele>
        <time>2026-05-13T12:20:55.000Z</time>
      </trkpt>
      <trkpt lat="44.22016" lon="5.39389">
        <ele>929</ele>
        <time>2026-05-13T12:20:56.000Z</time>
      </trkpt>
      <trkpt lat="44.22017" lon="5.39389">
        <ele>928</ele>
        <time>2026-05-13T12:20:57.000Z</time>
      </trkpt>
      <trkpt lat="44.22018" lon="5.3939">
        <ele>928</ele>
        <time>2026-05-13T12:20:58.000Z</time>
      </trkpt>
      <trkpt lat="44.22019" lon="5.39391">
        <ele>928</ele>
        <time>2026-05-13T12:20:59.000Z</time>
      </trkpt>
      <trkpt lat="44.22021" lon="5.39391">
        <ele>928</ele>
        <time>2026-05-13T12:21:00.000Z</time>
      </trkpt>
      <trkpt lat="44.22022" lon="5.39392">
        <ele>928</ele>
        <time>2026-05-13T12:21:01.000Z</time>
      </trkpt>
      <trkpt lat="44.22023" lon="5.39392">
        <ele>928</ele>
        <time>2026-05-13T12:21:02.000Z</time>
      </trkpt>
      <trkpt lat="44.22024" lon="5.39394">
        <ele>928</ele>
        <time>2026-05-13T12:21:03.000Z</time>
      </trkpt>
      <trkpt lat="44.22025" lon="5.39395">
        <ele>929</ele>
        <time>2026-05-13T12:21:04.000Z</time>
      </trkpt>
      <trkpt lat="44.22026" lon="5.39396">
        <ele>929</ele>
        <time>2026-05-13T12:21:05.000Z</time>
      </trkpt>
      <trkpt lat="44.22027" lon="5.39397">
        <ele>929</ele>
        <time>2026-05-13T12:21:06.000Z</time>
      </trkpt>
      <trkpt lat="44.22029" lon="5.39398">
        <ele>930</ele>
        <time>2026-05-13T12:21:07.000Z</time>
      </trkpt>
      <trkpt lat="44.22029" lon="5.39399">
        <ele>930</ele>
        <time>2026-05-13T12:21:08.000Z</time>
      </trkpt>
      <trkpt lat="44.2203" lon="5.394">
        <ele>931</ele>
        <time>2026-05-13T12:21:09.000Z</time>
      </trkpt>
      <trkpt lat="44.22031" lon="5.39401">
        <ele>931</ele>
        <time>2026-05-13T12:21:10.000Z</time>
      </trkpt>
      <trkpt lat="44.22032" lon="5.39402">
        <ele>931</ele>
        <time>2026-05-13T12:21:11.000Z</time>
      </trkpt>
      <trkpt lat="44.22033" lon="5.39403">
        <ele>931</ele>
        <time>2026-05-13T12:21:12.000Z</time>
      </trkpt>
      <trkpt lat="44.22034" lon="5.39404">
        <ele>931</ele>
        <time>2026-05-13T12:21:13.000Z</time>
      </trkpt>
      <trkpt lat="44.22036" lon="5.39404">
        <ele>930</ele>
        <time>2026-05-13T12:21:14.000Z</time>
      </trkpt>
      <trkpt lat="44.22037" lon="5.39405">
        <ele>930</ele>
        <time>2026-05-13T12:21:15.000Z</time>
      </trkpt>
      <trkpt lat="44.22037" lon="5.39405">
        <ele>931</ele>
        <time>2026-05-13T12:21:16.000Z</time>
      </trkpt>
      <trkpt lat="44.22038" lon="5.39406">
        <ele>931</ele>
        <time>2026-05-13T12:21:17.000Z</time>
      </trkpt>
      <trkpt lat="44.2204" lon="5.39407">
        <ele>931</ele>
        <time>2026-05-13T12:21:18.000Z</time>
      </trkpt>
      <trkpt lat="44.22041" lon="5.39408">
        <ele>931</ele>
        <time>2026-05-13T12:21:19.000Z</time>
      </trkpt>
      <trkpt lat="44.22042" lon="5.39409">
        <ele>932</ele>
        <time>2026-05-13T12:21:20.000Z</time>
      </trkpt>
      <trkpt lat="44.22042" lon="5.39409">
        <ele>932</ele>
        <time>2026-05-13T12:21:21.000Z</time>
      </trkpt>
      <trkpt lat="44.22044" lon="5.3941">
        <ele>932</ele>
        <time>2026-05-13T12:21:22.000Z</time>
      </trkpt>
      <trkpt lat="44.22045" lon="5.3941">
        <ele>932</ele>
        <time>2026-05-13T12:21:23.000Z</time>
      </trkpt>
      <trkpt lat="44.22046" lon="5.39411">
        <ele>932</ele>
        <time>2026-05-13T12:21:24.000Z</time>
      </trkpt>
      <trkpt lat="44.22047" lon="5.39412">
        <ele>932</ele>
        <time>2026-05-13T12:21:25.000Z</time>
      </trkpt>
      <trkpt lat="44.22048" lon="5.39414">
        <ele>932</ele>
        <time>2026-05-13T12:21:26.000Z</time>
      </trkpt>
      <trkpt lat="44.22049" lon="5.39414">
        <ele>932</ele>
        <time>2026-05-13T12:21:27.000Z</time>
      </trkpt>
      <trkpt lat="44.2205" lon="5.39415">
        <ele>932</ele>
        <time>2026-05-13T12:21:28.000Z</time>
      </trkpt>
      <trkpt lat="44.22051" lon="5.39417">
        <ele>933</ele>
        <time>2026-05-13T12:21:29.000Z</time>
      </trkpt>
      <trkpt lat="44.22052" lon="5.39418">
        <ele>932</ele>
        <time>2026-05-13T12:21:30.000Z</time>
      </trkpt>
      <trkpt lat="44.22053" lon="5.39419">
        <ele>932</ele>
        <time>2026-05-13T12:21:31.000Z</time>
      </trkpt>
      <trkpt lat="44.22054" lon="5.3942">
        <ele>933</ele>
        <time>2026-05-13T12:21:32.000Z</time>
      </trkpt>
      <trkpt lat="44.22056" lon="5.39421">
        <ele>933</ele>
        <time>2026-05-13T12:21:33.000Z</time>
      </trkpt>
      <trkpt lat="44.22057" lon="5.39422">
        <ele>934</ele>
        <time>2026-05-13T12:21:34.000Z</time>
      </trkpt>
      <trkpt lat="44.22058" lon="5.39422">
        <ele>934</ele>
        <time>2026-05-13T12:21:35.000Z</time>
      </trkpt>
      <trkpt lat="44.22059" lon="5.39423">
        <ele>934</ele>
        <time>2026-05-13T12:21:36.000Z</time>
      </trkpt>
      <trkpt lat="44.2206" lon="5.39424">
        <ele>934</ele>
        <time>2026-05-13T12:21:37.000Z</time>
      </trkpt>
      <trkpt lat="44.22061" lon="5.39424">
        <ele>935</ele>
        <time>2026-05-13T12:21:38.000Z</time>
      </trkpt>
      <trkpt lat="44.22062" lon="5.39425">
        <ele>935</ele>
        <time>2026-05-13T12:21:39.000Z</time>
      </trkpt>
      <trkpt lat="44.22063" lon="5.39426">
        <ele>935</ele>
        <time>2026-05-13T12:21:40.000Z</time>
      </trkpt>
      <trkpt lat="44.22064" lon="5.39426">
        <ele>935</ele>
        <time>2026-05-13T12:21:41.000Z</time>
      </trkpt>
      <trkpt lat="44.22065" lon="5.39427">
        <ele>935</ele>
        <time>2026-05-13T12:21:42.000Z</time>
      </trkpt>
      <trkpt lat="44.22066" lon="5.39428">
        <ele>936</ele>
        <time>2026-05-13T12:21:43.000Z</time>
      </trkpt>
      <trkpt lat="44.22068" lon="5.39428">
        <ele>936</ele>
        <time>2026-05-13T12:21:44.000Z</time>
      </trkpt>
      <trkpt lat="44.22069" lon="5.39429">
        <ele>936</ele>
        <time>2026-05-13T12:21:45.000Z</time>
      </trkpt>
      <trkpt lat="44.2207" lon="5.3943">
        <ele>936</ele>
        <time>2026-05-13T12:21:46.000Z</time>
      </trkpt>
      <trkpt lat="44.22071" lon="5.39431">
        <ele>937</ele>
        <time>2026-05-13T12:21:47.000Z</time>
      </trkpt>
      <trkpt lat="44.22072" lon="5.39432">
        <ele>937</ele>
        <time>2026-05-13T12:21:48.000Z</time>
      </trkpt>
      <trkpt lat="44.22073" lon="5.39433">
        <ele>937</ele>
        <time>2026-05-13T12:21:49.000Z</time>
      </trkpt>
      <trkpt lat="44.22074" lon="5.39433">
        <ele>936</ele>
        <time>2026-05-13T12:21:50.000Z</time>
      </trkpt>
      <trkpt lat="44.22075" lon="5.39434">
        <ele>937</ele>
        <time>2026-05-13T12:21:51.000Z</time>
      </trkpt>
      <trkpt lat="44.22076" lon="5.39434">
        <ele>937</ele>
        <time>2026-05-13T12:21:52.000Z</time>
      </trkpt>
      <trkpt lat="44.22077" lon="5.39435">
        <ele>937</ele>
        <time>2026-05-13T12:21:53.000Z</time>
      </trkpt>
      <trkpt lat="44.22078" lon="5.39436">
        <ele>938</ele>
        <time>2026-05-13T12:21:54.000Z</time>
      </trkpt>
      <trkpt lat="44.22079" lon="5.39437">
        <ele>938</ele>
        <time>2026-05-13T12:21:55.000Z</time>
      </trkpt>
      <trkpt lat="44.2208" lon="5.39438">
        <ele>938</ele>
        <time>2026-05-13T12:21:56.000Z</time>
      </trkpt>
      <trkpt lat="44.22081" lon="5.39439">
        <ele>938</ele>
        <time>2026-05-13T12:21:57.000Z</time>
      </trkpt>
      <trkpt lat="44.22082" lon="5.39439">
        <ele>938</ele>
        <time>2026-05-13T12:21:58.000Z</time>
      </trkpt>
      <trkpt lat="44.22083" lon="5.3944">
        <ele>938</ele>
        <time>2026-05-13T12:21:59.000Z</time>
      </trkpt>
      <trkpt lat="44.22083" lon="5.3944">
        <ele>938</ele>
        <time>2026-05-13T12:22:00.000Z</time>
      </trkpt>
      <trkpt lat="44.22084" lon="5.39441">
        <ele>939</ele>
        <time>2026-05-13T12:22:01.000Z</time>
      </trkpt>
      <trkpt lat="44.22085" lon="5.39441">
        <ele>939</ele>
        <time>2026-05-13T12:22:02.000Z</time>
      </trkpt>
      <trkpt lat="44.22086" lon="5.39441">
        <ele>939</ele>
        <time>2026-05-13T12:22:03.000Z</time>
      </trkpt>
      <trkpt lat="44.22087" lon="5.39441">
        <ele>939</ele>
        <time>2026-05-13T12:22:04.000Z</time>
      </trkpt>
      <trkpt lat="44.22088" lon="5.39442">
        <ele>939</ele>
        <time>2026-05-13T12:22:05.000Z</time>
      </trkpt>
      <trkpt lat="44.22089" lon="5.39442">
        <ele>939</ele>
        <time>2026-05-13T12:22:06.000Z</time>
      </trkpt>
      <trkpt lat="44.2209" lon="5.39443">
        <ele>939</ele>
        <time>2026-05-13T12:22:07.000Z</time>
      </trkpt>
      <trkpt lat="44.22091" lon="5.39443">
        <ele>939</ele>
        <time>2026-05-13T12:22:08.000Z</time>
      </trkpt>
      <trkpt lat="44.22092" lon="5.39444">
        <ele>939</ele>
        <time>2026-05-13T12:22:09.000Z</time>
      </trkpt>
      <trkpt lat="44.22093" lon="5.39445">
        <ele>939</ele>
        <time>2026-05-13T12:22:10.000Z</time>
      </trkpt>
      <trkpt lat="44.22093" lon="5.39446">
        <ele>938</ele>
        <time>2026-05-13T12:22:11.000Z</time>
      </trkpt>
      <trkpt lat="44.22093" lon="5.39447">
        <ele>939</ele>
        <time>2026-05-13T12:22:12.000Z</time>
      </trkpt>
      <trkpt lat="44.22094" lon="5.39448">
        <ele>939</ele>
        <time>2026-05-13T12:22:13.000Z</time>
      </trkpt>
      <trkpt lat="44.22095" lon="5.39449">
        <ele>940</ele>
        <time>2026-05-13T12:22:14.000Z</time>
      </trkpt>
      <trkpt lat="44.22096" lon="5.39449">
        <ele>940</ele>
        <time>2026-05-13T12:22:15.000Z</time>
      </trkpt>
      <trkpt lat="44.22097" lon="5.3945">
        <ele>940</ele>
        <time>2026-05-13T12:22:16.000Z</time>
      </trkpt>
      <trkpt lat="44.22098" lon="5.3945">
        <ele>940</ele>
        <time>2026-05-13T12:22:17.000Z</time>
      </trkpt>
      <trkpt lat="44.22099" lon="5.39451">
        <ele>940</ele>
        <time>2026-05-13T12:22:18.000Z</time>
      </trkpt>
      <trkpt lat="44.221" lon="5.39451">
        <ele>941</ele>
        <time>2026-05-13T12:22:19.000Z</time>
      </trkpt>
      <trkpt lat="44.22101" lon="5.39452">
        <ele>941</ele>
        <time>2026-05-13T12:22:20.000Z</time>
      </trkpt>
      <trkpt lat="44.22102" lon="5.39453">
        <ele>941</ele>
        <time>2026-05-13T12:22:21.000Z</time>
      </trkpt>
      <trkpt lat="44.22103" lon="5.39454">
        <ele>941</ele>
        <time>2026-05-13T12:22:22.000Z</time>
      </trkpt>
      <trkpt lat="44.22104" lon="5.39454">
        <ele>941</ele>
        <time>2026-05-13T12:22:23.000Z</time>
      </trkpt>
      <trkpt lat="44.22106" lon="5.39454">
        <ele>941</ele>
        <time>2026-05-13T12:22:24.000Z</time>
      </trkpt>
      <trkpt lat="44.22107" lon="5.39454">
        <ele>940</ele>
        <time>2026-05-13T12:22:25.000Z</time>
      </trkpt>
      <trkpt lat="44.22107" lon="5.39455">
        <ele>940</ele>
        <time>2026-05-13T12:22:26.000Z</time>
      </trkpt>
      <trkpt lat="44.22108" lon="5.39456">
        <ele>940</ele>
        <time>2026-05-13T12:22:27.000Z</time>
      </trkpt>
      <trkpt lat="44.22109" lon="5.39458">
        <ele>940</ele>
        <time>2026-05-13T12:22:28.000Z</time>
      </trkpt>
      <trkpt lat="44.2211" lon="5.39458">
        <ele>940</ele>
        <time>2026-05-13T12:22:29.000Z</time>
      </trkpt>
      <trkpt lat="44.2211" lon="5.39459">
        <ele>940</ele>
        <time>2026-05-13T12:22:30.000Z</time>
      </trkpt>
      <trkpt lat="44.22112" lon="5.3946">
        <ele>941</ele>
        <time>2026-05-13T12:22:31.000Z</time>
      </trkpt>
      <trkpt lat="44.22112" lon="5.39461">
        <ele>940</ele>
        <time>2026-05-13T12:22:32.000Z</time>
      </trkpt>
      <trkpt lat="44.22113" lon="5.39461">
        <ele>940</ele>
        <time>2026-05-13T12:22:33.000Z</time>
      </trkpt>
      <trkpt lat="44.22114" lon="5.39462">
        <ele>941</ele>
        <time>2026-05-13T12:22:34.000Z</time>
      </trkpt>
      <trkpt lat="44.22115" lon="5.39463">
        <ele>941</ele>
        <time>2026-05-13T12:22:35.000Z</time>
      </trkpt>
      <trkpt lat="44.22116" lon="5.39463">
        <ele>940</ele>
        <time>2026-05-13T12:22:36.000Z</time>
      </trkpt>
      <trkpt lat="44.22117" lon="5.39464">
        <ele>941</ele>
        <time>2026-05-13T12:22:37.000Z</time>
      </trkpt>
      <trkpt lat="44.22117" lon="5.39465">
        <ele>941</ele>
        <time>2026-05-13T12:22:38.000Z</time>
      </trkpt>
      <trkpt lat="44.22118" lon="5.39466">
        <ele>941</ele>
        <time>2026-05-13T12:22:39.000Z</time>
      </trkpt>
      <trkpt lat="44.22119" lon="5.39467">
        <ele>941</ele>
        <time>2026-05-13T12:22:40.000Z</time>
      </trkpt>
      <trkpt lat="44.2212" lon="5.39467">
        <ele>941</ele>
        <time>2026-05-13T12:22:41.000Z</time>
      </trkpt>
      <trkpt lat="44.22121" lon="5.39468">
        <ele>942</ele>
        <time>2026-05-13T12:22:42.000Z</time>
      </trkpt>
      <trkpt lat="44.22122" lon="5.39468">
        <ele>942</ele>
        <time>2026-05-13T12:22:43.000Z</time>
      </trkpt>
      <trkpt lat="44.22123" lon="5.39469">
        <ele>941</ele>
        <time>2026-05-13T12:22:44.000Z</time>
      </trkpt>
      <trkpt lat="44.22124" lon="5.3947">
        <ele>941</ele>
        <time>2026-05-13T12:22:45.000Z</time>
      </trkpt>
      <trkpt lat="44.22125" lon="5.3947">
        <ele>941</ele>
        <time>2026-05-13T12:22:46.000Z</time>
      </trkpt>
      <trkpt lat="44.22126" lon="5.39471">
        <ele>941</ele>
        <time>2026-05-13T12:22:47.000Z</time>
      </trkpt>
      <trkpt lat="44.22127" lon="5.39471">
        <ele>942</ele>
        <time>2026-05-13T12:22:48.000Z</time>
      </trkpt>
      <trkpt lat="44.22127" lon="5.39471">
        <ele>941</ele>
        <time>2026-05-13T12:22:49.000Z</time>
      </trkpt>
      <trkpt lat="44.22128" lon="5.39471">
        <ele>941</ele>
        <time>2026-05-13T12:22:50.000Z</time>
      </trkpt>
      <trkpt lat="44.22129" lon="5.39472">
        <ele>941</ele>
        <time>2026-05-13T12:22:51.000Z</time>
      </trkpt>
      <trkpt lat="44.22129" lon="5.39473">
        <ele>941</ele>
        <time>2026-05-13T12:22:52.000Z</time>
      </trkpt>
      <trkpt lat="44.22131" lon="5.39474">
        <ele>941</ele>
        <time>2026-05-13T12:22:53.000Z</time>
      </trkpt>
      <trkpt lat="44.22132" lon="5.39475">
        <ele>942</ele>
        <time>2026-05-13T12:22:54.000Z</time>
      </trkpt>
      <trkpt lat="44.22133" lon="5.39475">
        <ele>942</ele>
        <time>2026-05-13T12:22:55.000Z</time>
      </trkpt>
      <trkpt lat="44.22134" lon="5.39476">
        <ele>943</ele>
        <time>2026-05-13T12:22:56.000Z</time>
      </trkpt>
      <trkpt lat="44.22134" lon="5.39476">
        <ele>943</ele>
        <time>2026-05-13T12:22:57.000Z</time>
      </trkpt>
      <trkpt lat="44.22135" lon="5.39477">
        <ele>943</ele>
        <time>2026-05-13T12:22:58.000Z</time>
      </trkpt>
      <trkpt lat="44.22136" lon="5.39477">
        <ele>944</ele>
        <time>2026-05-13T12:22:59.000Z</time>
      </trkpt>
      <trkpt lat="44.22137" lon="5.39477">
        <ele>943</ele>
        <time>2026-05-13T12:23:00.000Z</time>
      </trkpt>
      <trkpt lat="44.22138" lon="5.39478">
        <ele>943</ele>
        <time>2026-05-13T12:23:01.000Z</time>
      </trkpt>
      <trkpt lat="44.22139" lon="5.39478">
        <ele>944</ele>
        <time>2026-05-13T12:23:02.000Z</time>
      </trkpt>
      <trkpt lat="44.2214" lon="5.39479">
        <ele>944</ele>
        <time>2026-05-13T12:23:03.000Z</time>
      </trkpt>
      <trkpt lat="44.22141" lon="5.39479">
        <ele>944</ele>
        <time>2026-05-13T12:23:04.000Z</time>
      </trkpt>
      <trkpt lat="44.22142" lon="5.3948">
        <ele>944</ele>
        <time>2026-05-13T12:23:05.000Z</time>
      </trkpt>
      <trkpt lat="44.22143" lon="5.39481">
        <ele>945</ele>
        <time>2026-05-13T12:23:06.000Z</time>
      </trkpt>
      <trkpt lat="44.22144" lon="5.39481">
        <ele>945</ele>
        <time>2026-05-13T12:23:07.000Z</time>
      </trkpt>
      <trkpt lat="44.22145" lon="5.39481">
        <ele>945</ele>
        <time>2026-05-13T12:23:08.000Z</time>
      </trkpt>
      <trkpt lat="44.22146" lon="5.39481">
        <ele>944</ele>
        <time>2026-05-13T12:23:09.000Z</time>
      </trkpt>
      <trkpt lat="44.22147" lon="5.39482">
        <ele>945</ele>
        <time>2026-05-13T12:23:10.000Z</time>
      </trkpt>
      <trkpt lat="44.22148" lon="5.39482">
        <ele>945</ele>
        <time>2026-05-13T12:23:11.000Z</time>
      </trkpt>
      <trkpt lat="44.22149" lon="5.39483">
        <ele>946</ele>
        <time>2026-05-13T12:23:12.000Z</time>
      </trkpt>
      <trkpt lat="44.22151" lon="5.39484">
        <ele>946</ele>
        <time>2026-05-13T12:23:13.000Z</time>
      </trkpt>
      <trkpt lat="44.22152" lon="5.39485">
        <ele>946</ele>
        <time>2026-05-13T12:23:14.000Z</time>
      </trkpt>
      <trkpt lat="44.22154" lon="5.39485">
        <ele>947</ele>
        <time>2026-05-13T12:23:15.000Z</time>
      </trkpt>
      <trkpt lat="44.22155" lon="5.39485">
        <ele>947</ele>
        <time>2026-05-13T12:23:16.000Z</time>
      </trkpt>
      <trkpt lat="44.22156" lon="5.39486">
        <ele>946</ele>
        <time>2026-05-13T12:23:17.000Z</time>
      </trkpt>
      <trkpt lat="44.22157" lon="5.39486">
        <ele>946</ele>
        <time>2026-05-13T12:23:18.000Z</time>
      </trkpt>
      <trkpt lat="44.22158" lon="5.39486">
        <ele>947</ele>
        <time>2026-05-13T12:23:19.000Z</time>
      </trkpt>
      <trkpt lat="44.22159" lon="5.39487">
        <ele>947</ele>
        <time>2026-05-13T12:23:20.000Z</time>
      </trkpt>
      <trkpt lat="44.2216" lon="5.39488">
        <ele>947</ele>
        <time>2026-05-13T12:23:21.000Z</time>
      </trkpt>
      <trkpt lat="44.2216" lon="5.39489">
        <ele>947</ele>
        <time>2026-05-13T12:23:22.000Z</time>
      </trkpt>
      <trkpt lat="44.22162" lon="5.3949">
        <ele>947</ele>
        <time>2026-05-13T12:23:23.000Z</time>
      </trkpt>
      <trkpt lat="44.22163" lon="5.3949">
        <ele>948</ele>
        <time>2026-05-13T12:23:24.000Z</time>
      </trkpt>
      <trkpt lat="44.22163" lon="5.39491">
        <ele>948</ele>
        <time>2026-05-13T12:23:25.000Z</time>
      </trkpt>
      <trkpt lat="44.22164" lon="5.39492">
        <ele>948</ele>
        <time>2026-05-13T12:23:26.000Z</time>
      </trkpt>
      <trkpt lat="44.22165" lon="5.39492">
        <ele>948</ele>
        <time>2026-05-13T12:23:27.000Z</time>
      </trkpt>
      <trkpt lat="44.22166" lon="5.39493">
        <ele>949</ele>
        <time>2026-05-13T12:23:28.000Z</time>
      </trkpt>
      <trkpt lat="44.22168" lon="5.39493">
        <ele>949</ele>
        <time>2026-05-13T12:23:29.000Z</time>
      </trkpt>
      <trkpt lat="44.22169" lon="5.39493">
        <ele>949</ele>
        <time>2026-05-13T12:23:30.000Z</time>
      </trkpt>
      <trkpt lat="44.22169" lon="5.39494">
        <ele>949</ele>
        <time>2026-05-13T12:23:31.000Z</time>
      </trkpt>
      <trkpt lat="44.2217" lon="5.39495">
        <ele>949</ele>
        <time>2026-05-13T12:23:32.000Z</time>
      </trkpt>
      <trkpt lat="44.22171" lon="5.39495">
        <ele>949</ele>
        <time>2026-05-13T12:23:33.000Z</time>
      </trkpt>
      <trkpt lat="44.22172" lon="5.39496">
        <ele>950</ele>
        <time>2026-05-13T12:23:34.000Z</time>
      </trkpt>
      <trkpt lat="44.22172" lon="5.39497">
        <ele>950</ele>
        <time>2026-05-13T12:23:35.000Z</time>
      </trkpt>
      <trkpt lat="44.22173" lon="5.39498">
        <ele>949</ele>
        <time>2026-05-13T12:23:36.000Z</time>
      </trkpt>
      <trkpt lat="44.22175" lon="5.39498">
        <ele>949</ele>
        <time>2026-05-13T12:23:37.000Z</time>
      </trkpt>
      <trkpt lat="44.22176" lon="5.39498">
        <ele>949</ele>
        <time>2026-05-13T12:23:38.000Z</time>
      </trkpt>
      <trkpt lat="44.22177" lon="5.39498">
        <ele>950</ele>
        <time>2026-05-13T12:23:39.000Z</time>
      </trkpt>
      <trkpt lat="44.22178" lon="5.39498">
        <ele>950</ele>
        <time>2026-05-13T12:23:40.000Z</time>
      </trkpt>
      <trkpt lat="44.22179" lon="5.39498">
        <ele>949</ele>
        <time>2026-05-13T12:23:41.000Z</time>
      </trkpt>
      <trkpt lat="44.22179" lon="5.39499">
        <ele>950</ele>
        <time>2026-05-13T12:23:42.000Z</time>
      </trkpt>
      <trkpt lat="44.2218" lon="5.39499">
        <ele>950</ele>
        <time>2026-05-13T12:23:43.000Z</time>
      </trkpt>
      <trkpt lat="44.2218" lon="5.395">
        <ele>950</ele>
        <time>2026-05-13T12:23:44.000Z</time>
      </trkpt>
      <trkpt lat="44.22181" lon="5.395">
        <ele>950</ele>
        <time>2026-05-13T12:23:45.000Z</time>
      </trkpt>
      <trkpt lat="44.22182" lon="5.39501">
        <ele>950</ele>
        <time>2026-05-13T12:23:46.000Z</time>
      </trkpt>
      <trkpt lat="44.22183" lon="5.39502">
        <ele>950</ele>
        <time>2026-05-13T12:23:47.000Z</time>
      </trkpt>
      <trkpt lat="44.22184" lon="5.39502">
        <ele>950</ele>
        <time>2026-05-13T12:23:48.000Z</time>
      </trkpt>
      <trkpt lat="44.22186" lon="5.39502">
        <ele>950</ele>
        <time>2026-05-13T12:23:49.000Z</time>
      </trkpt>
      <trkpt lat="44.22187" lon="5.39503">
        <ele>951</ele>
        <time>2026-05-13T12:23:50.000Z</time>
      </trkpt>
      <trkpt lat="44.22188" lon="5.39503">
        <ele>951</ele>
        <time>2026-05-13T12:23:51.000Z</time>
      </trkpt>
      <trkpt lat="44.22189" lon="5.39504">
        <ele>951</ele>
        <time>2026-05-13T12:23:52.000Z</time>
      </trkpt>
      <trkpt lat="44.22189" lon="5.39505">
        <ele>952</ele>
        <time>2026-05-13T12:23:53.000Z</time>
      </trkpt>
      <trkpt lat="44.2219" lon="5.39506">
        <ele>952</ele>
        <time>2026-05-13T12:23:54.000Z</time>
      </trkpt>
      <trkpt lat="44.22191" lon="5.39506">
        <ele>952</ele>
        <time>2026-05-13T12:23:55.000Z</time>
      </trkpt>
      <trkpt lat="44.22192" lon="5.39507">
        <ele>952</ele>
        <time>2026-05-13T12:23:56.000Z</time>
      </trkpt>
      <trkpt lat="44.22193" lon="5.39507">
        <ele>952</ele>
        <time>2026-05-13T12:23:57.000Z</time>
      </trkpt>
      <trkpt lat="44.22194" lon="5.39507">
        <ele>952</ele>
        <time>2026-05-13T12:23:58.000Z</time>
      </trkpt>
      <trkpt lat="44.22195" lon="5.39507">
        <ele>952</ele>
        <time>2026-05-13T12:23:59.000Z</time>
      </trkpt>
      <trkpt lat="44.22195" lon="5.39507">
        <ele>952</ele>
        <time>2026-05-13T12:24:00.000Z</time>
      </trkpt>
      <trkpt lat="44.22196" lon="5.39507">
        <ele>952</ele>
        <time>2026-05-13T12:24:01.000Z</time>
      </trkpt>
      <trkpt lat="44.22197" lon="5.39508">
        <ele>952</ele>
        <time>2026-05-13T12:24:02.000Z</time>
      </trkpt>
      <trkpt lat="44.22198" lon="5.39508">
        <ele>952</ele>
        <time>2026-05-13T12:24:03.000Z</time>
      </trkpt>
      <trkpt lat="44.22199" lon="5.39508">
        <ele>952</ele>
        <time>2026-05-13T12:24:04.000Z</time>
      </trkpt>
      <trkpt lat="44.222" lon="5.39509">
        <ele>952</ele>
        <time>2026-05-13T12:24:05.000Z</time>
      </trkpt>
      <trkpt lat="44.22201" lon="5.39509">
        <ele>953</ele>
        <time>2026-05-13T12:24:06.000Z</time>
      </trkpt>
      <trkpt lat="44.22202" lon="5.39509">
        <ele>952</ele>
        <time>2026-05-13T12:24:07.000Z</time>
      </trkpt>
      <trkpt lat="44.22202" lon="5.39509">
        <ele>952</ele>
        <time>2026-05-13T12:24:08.000Z</time>
      </trkpt>
      <trkpt lat="44.22203" lon="5.3951">
        <ele>952</ele>
        <time>2026-05-13T12:24:09.000Z</time>
      </trkpt>
      <trkpt lat="44.22204" lon="5.3951">
        <ele>953</ele>
        <time>2026-05-13T12:24:10.000Z</time>
      </trkpt>
      <trkpt lat="44.22205" lon="5.39511">
        <ele>952</ele>
        <time>2026-05-13T12:24:11.000Z</time>
      </trkpt>
      <trkpt lat="44.22205" lon="5.39512">
        <ele>953</ele>
        <time>2026-05-13T12:24:12.000Z</time>
      </trkpt>
      <trkpt lat="44.22206" lon="5.39512">
        <ele>954</ele>
        <time>2026-05-13T12:24:13.000Z</time>
      </trkpt>
      <trkpt lat="44.22207" lon="5.39513">
        <ele>954</ele>
        <time>2026-05-13T12:24:14.000Z</time>
      </trkpt>
      <trkpt lat="44.22208" lon="5.39514">
        <ele>954</ele>
        <time>2026-05-13T12:24:15.000Z</time>
      </trkpt>
      <trkpt lat="44.2221" lon="5.39514">
        <ele>954</ele>
        <time>2026-05-13T12:24:16.000Z</time>
      </trkpt>
      <trkpt lat="44.22211" lon="5.39514">
        <ele>955</ele>
        <time>2026-05-13T12:24:17.000Z</time>
      </trkpt>
      <trkpt lat="44.22212" lon="5.39514">
        <ele>955</ele>
        <time>2026-05-13T12:24:18.000Z</time>
      </trkpt>
      <trkpt lat="44.22212" lon="5.39515">
        <ele>956</ele>
        <time>2026-05-13T12:24:19.000Z</time>
      </trkpt>
      <trkpt lat="44.22213" lon="5.39516">
        <ele>956</ele>
        <time>2026-05-13T12:24:20.000Z</time>
      </trkpt>
      <trkpt lat="44.22214" lon="5.39516">
        <ele>957</ele>
        <time>2026-05-13T12:24:21.000Z</time>
      </trkpt>
      <trkpt lat="44.22215" lon="5.39516">
        <ele>957</ele>
        <time>2026-05-13T12:24:22.000Z</time>
      </trkpt>
      <trkpt lat="44.22216" lon="5.39516">
        <ele>957</ele>
        <time>2026-05-13T12:24:23.000Z</time>
      </trkpt>
      <trkpt lat="44.22217" lon="5.39515">
        <ele>956</ele>
        <time>2026-05-13T12:24:24.000Z</time>
      </trkpt>
      <trkpt lat="44.22218" lon="5.39515">
        <ele>956</ele>
        <time>2026-05-13T12:24:25.000Z</time>
      </trkpt>
      <trkpt lat="44.2222" lon="5.39514">
        <ele>956</ele>
        <time>2026-05-13T12:24:26.000Z</time>
      </trkpt>
      <trkpt lat="44.2222" lon="5.39514">
        <ele>956</ele>
        <time>2026-05-13T12:24:27.000Z</time>
      </trkpt>
      <trkpt lat="44.22221" lon="5.39514">
        <ele>956</ele>
        <time>2026-05-13T12:24:28.000Z</time>
      </trkpt>
      <trkpt lat="44.22222" lon="5.39514">
        <ele>956</ele>
        <time>2026-05-13T12:24:29.000Z</time>
      </trkpt>
      <trkpt lat="44.22222" lon="5.39513">
        <ele>957</ele>
        <time>2026-05-13T12:24:30.000Z</time>
      </trkpt>
      <trkpt lat="44.22223" lon="5.39512">
        <ele>956</ele>
        <time>2026-05-13T12:24:31.000Z</time>
      </trkpt>
      <trkpt lat="44.22223" lon="5.39512">
        <ele>956</ele>
        <time>2026-05-13T12:24:32.000Z</time>
      </trkpt>
      <trkpt lat="44.22224" lon="5.39513">
        <ele>956</ele>
        <time>2026-05-13T12:24:33.000Z</time>
      </trkpt>
      <trkpt lat="44.22225" lon="5.39512">
        <ele>956</ele>
        <time>2026-05-13T12:24:34.000Z</time>
      </trkpt>
      <trkpt lat="44.22225" lon="5.39512">
        <ele>955</ele>
        <time>2026-05-13T12:24:35.000Z</time>
      </trkpt>
      <trkpt lat="44.22226" lon="5.39512">
        <ele>955</ele>
        <time>2026-05-13T12:24:36.000Z</time>
      </trkpt>
      <trkpt lat="44.22228" lon="5.39513">
        <ele>956</ele>
        <time>2026-05-13T12:24:37.000Z</time>
      </trkpt>
      <trkpt lat="44.22229" lon="5.39514">
        <ele>955</ele>
        <time>2026-05-13T12:24:38.000Z</time>
      </trkpt>
      <trkpt lat="44.22229" lon="5.39515">
        <ele>955</ele>
        <time>2026-05-13T12:24:39.000Z</time>
      </trkpt>
      <trkpt lat="44.2223" lon="5.39516">
        <ele>955</ele>
        <time>2026-05-13T12:24:40.000Z</time>
      </trkpt>
      <trkpt lat="44.2223" lon="5.39517">
        <ele>956</ele>
        <time>2026-05-13T12:24:41.000Z</time>
      </trkpt>
      <trkpt lat="44.22232" lon="5.39518">
        <ele>956</ele>
        <time>2026-05-13T12:24:42.000Z</time>
      </trkpt>
      <trkpt lat="44.22232" lon="5.39519">
        <ele>956</ele>
        <time>2026-05-13T12:24:43.000Z</time>
      </trkpt>
      <trkpt lat="44.22233" lon="5.3952">
        <ele>956</ele>
        <time>2026-05-13T12:24:44.000Z</time>
      </trkpt>
      <trkpt lat="44.22234" lon="5.39521">
        <ele>957</ele>
        <time>2026-05-13T12:24:45.000Z</time>
      </trkpt>
      <trkpt lat="44.22234" lon="5.39521">
        <ele>957</ele>
        <time>2026-05-13T12:24:46.000Z</time>
      </trkpt>
      <trkpt lat="44.22235" lon="5.39521">
        <ele>957</ele>
        <time>2026-05-13T12:24:47.000Z</time>
      </trkpt>
      <trkpt lat="44.22236" lon="5.39521">
        <ele>958</ele>
        <time>2026-05-13T12:24:48.000Z</time>
      </trkpt>
      <trkpt lat="44.22236" lon="5.39522">
        <ele>958</ele>
        <time>2026-05-13T12:24:49.000Z</time>
      </trkpt>
      <trkpt lat="44.22237" lon="5.39523">
        <ele>958</ele>
        <time>2026-05-13T12:24:50.000Z</time>
      </trkpt>
      <trkpt lat="44.22239" lon="5.39522">
        <ele>958</ele>
        <time>2026-05-13T12:24:51.000Z</time>
      </trkpt>
      <trkpt lat="44.2224" lon="5.39522">
        <ele>959</ele>
        <time>2026-05-13T12:24:52.000Z</time>
      </trkpt>
      <trkpt lat="44.22241" lon="5.39522">
        <ele>959</ele>
        <time>2026-05-13T12:24:53.000Z</time>
      </trkpt>
      <trkpt lat="44.22242" lon="5.39522">
        <ele>959</ele>
        <time>2026-05-13T12:24:54.000Z</time>
      </trkpt>
      <trkpt lat="44.22243" lon="5.39522">
        <ele>959</ele>
        <time>2026-05-13T12:24:55.000Z</time>
      </trkpt>
      <trkpt lat="44.22244" lon="5.39522">
        <ele>959</ele>
        <time>2026-05-13T12:24:56.000Z</time>
      </trkpt>
      <trkpt lat="44.22244" lon="5.39522">
        <ele>959</ele>
        <time>2026-05-13T12:24:57.000Z</time>
      </trkpt>
      <trkpt lat="44.22245" lon="5.39522">
        <ele>959</ele>
        <time>2026-05-13T12:24:58.000Z</time>
      </trkpt>
      <trkpt lat="44.22246" lon="5.39522">
        <ele>959</ele>
        <time>2026-05-13T12:24:59.000Z</time>
      </trkpt>
      <trkpt lat="44.22247" lon="5.39522">
        <ele>959</ele>
        <time>2026-05-13T12:25:00.000Z</time>
      </trkpt>
      <trkpt lat="44.22249" lon="5.39522">
        <ele>959</ele>
        <time>2026-05-13T12:25:01.000Z</time>
      </trkpt>
      <trkpt lat="44.2225" lon="5.39522">
        <ele>959</ele>
        <time>2026-05-13T12:25:02.000Z</time>
      </trkpt>
      <trkpt lat="44.22251" lon="5.39522">
        <ele>959</ele>
        <time>2026-05-13T12:25:03.000Z</time>
      </trkpt>
      <trkpt lat="44.22252" lon="5.39522">
        <ele>959</ele>
        <time>2026-05-13T12:25:04.000Z</time>
      </trkpt>
      <trkpt lat="44.22253" lon="5.39522">
        <ele>959</ele>
        <time>2026-05-13T12:25:05.000Z</time>
      </trkpt>
      <trkpt lat="44.22254" lon="5.39522">
        <ele>959</ele>
        <time>2026-05-13T12:25:06.000Z</time>
      </trkpt>
      <trkpt lat="44.22255" lon="5.39522">
        <ele>960</ele>
        <time>2026-05-13T12:25:07.000Z</time>
      </trkpt>
      <trkpt lat="44.22256" lon="5.39522">
        <ele>960</ele>
        <time>2026-05-13T12:25:08.000Z</time>
      </trkpt>
      <trkpt lat="44.22257" lon="5.39522">
        <ele>960</ele>
        <time>2026-05-13T12:25:09.000Z</time>
      </trkpt>
      <trkpt lat="44.22257" lon="5.39522">
        <ele>960</ele>
        <time>2026-05-13T12:25:10.000Z</time>
      </trkpt>
      <trkpt lat="44.22258" lon="5.39522">
        <ele>961</ele>
        <time>2026-05-13T12:25:11.000Z</time>
      </trkpt>
      <trkpt lat="44.2226" lon="5.39522">
        <ele>961</ele>
        <time>2026-05-13T12:25:12.000Z</time>
      </trkpt>
      <trkpt lat="44.2226" lon="5.39522">
        <ele>962</ele>
        <time>2026-05-13T12:25:13.000Z</time>
      </trkpt>
      <trkpt lat="44.22261" lon="5.39522">
        <ele>962</ele>
        <time>2026-05-13T12:25:14.000Z</time>
      </trkpt>
      <trkpt lat="44.22263" lon="5.39523">
        <ele>962</ele>
        <time>2026-05-13T12:25:15.000Z</time>
      </trkpt>
      <trkpt lat="44.22263" lon="5.39524">
        <ele>962</ele>
        <time>2026-05-13T12:25:16.000Z</time>
      </trkpt>
      <trkpt lat="44.22264" lon="5.39524">
        <ele>962</ele>
        <time>2026-05-13T12:25:17.000Z</time>
      </trkpt>
      <trkpt lat="44.22265" lon="5.39525">
        <ele>962</ele>
        <time>2026-05-13T12:25:18.000Z</time>
      </trkpt>
      <trkpt lat="44.22266" lon="5.39525">
        <ele>962</ele>
        <time>2026-05-13T12:25:19.000Z</time>
      </trkpt>
      <trkpt lat="44.22266" lon="5.39525">
        <ele>962</ele>
        <time>2026-05-13T12:25:20.000Z</time>
      </trkpt>
      <trkpt lat="44.22267" lon="5.39526">
        <ele>963</ele>
        <time>2026-05-13T12:25:21.000Z</time>
      </trkpt>
      <trkpt lat="44.22268" lon="5.39526">
        <ele>963</ele>
        <time>2026-05-13T12:25:22.000Z</time>
      </trkpt>
      <trkpt lat="44.22269" lon="5.39527">
        <ele>963</ele>
        <time>2026-05-13T12:25:23.000Z</time>
      </trkpt>
      <trkpt lat="44.2227" lon="5.39528">
        <ele>962</ele>
        <time>2026-05-13T12:25:24.000Z</time>
      </trkpt>
      <trkpt lat="44.22271" lon="5.39529">
        <ele>962</ele>
        <time>2026-05-13T12:25:25.000Z</time>
      </trkpt>
      <trkpt lat="44.22272" lon="5.39528">
        <ele>962</ele>
        <time>2026-05-13T12:25:26.000Z</time>
      </trkpt>
      <trkpt lat="44.22273" lon="5.39528">
        <ele>962</ele>
        <time>2026-05-13T12:25:27.000Z</time>
      </trkpt>
      <trkpt lat="44.22274" lon="5.39529">
        <ele>963</ele>
        <time>2026-05-13T12:25:28.000Z</time>
      </trkpt>
      <trkpt lat="44.22275" lon="5.3953">
        <ele>963</ele>
        <time>2026-05-13T12:25:29.000Z</time>
      </trkpt>
      <trkpt lat="44.22276" lon="5.3953">
        <ele>963</ele>
        <time>2026-05-13T12:25:30.000Z</time>
      </trkpt>
      <trkpt lat="44.22278" lon="5.3953">
        <ele>963</ele>
        <time>2026-05-13T12:25:31.000Z</time>
      </trkpt>
      <trkpt lat="44.22279" lon="5.39529">
        <ele>963</ele>
        <time>2026-05-13T12:25:32.000Z</time>
      </trkpt>
      <trkpt lat="44.2228" lon="5.39528">
        <ele>962</ele>
        <time>2026-05-13T12:25:33.000Z</time>
      </trkpt>
      <trkpt lat="44.22281" lon="5.39528">
        <ele>963</ele>
        <time>2026-05-13T12:25:34.000Z</time>
      </trkpt>
      <trkpt lat="44.22282" lon="5.39528">
        <ele>963</ele>
        <time>2026-05-13T12:25:35.000Z</time>
      </trkpt>
      <trkpt lat="44.22282" lon="5.39528">
        <ele>963</ele>
        <time>2026-05-13T12:25:36.000Z</time>
      </trkpt>
      <trkpt lat="44.22283" lon="5.39527">
        <ele>964</ele>
        <time>2026-05-13T12:25:37.000Z</time>
      </trkpt>
      <trkpt lat="44.22284" lon="5.39526">
        <ele>964</ele>
        <time>2026-05-13T12:25:38.000Z</time>
      </trkpt>
      <trkpt lat="44.22285" lon="5.39526">
        <ele>964</ele>
        <time>2026-05-13T12:25:39.000Z</time>
      </trkpt>
      <trkpt lat="44.22286" lon="5.39526">
        <ele>964</ele>
        <time>2026-05-13T12:25:40.000Z</time>
      </trkpt>
      <trkpt lat="44.22287" lon="5.39526">
        <ele>964</ele>
        <time>2026-05-13T12:25:41.000Z</time>
      </trkpt>
      <trkpt lat="44.22289" lon="5.39527">
        <ele>964</ele>
        <time>2026-05-13T12:25:42.000Z</time>
      </trkpt>
      <trkpt lat="44.22289" lon="5.39527">
        <ele>965</ele>
        <time>2026-05-13T12:25:43.000Z</time>
      </trkpt>
      <trkpt lat="44.2229" lon="5.39526">
        <ele>965</ele>
        <time>2026-05-13T12:25:44.000Z</time>
      </trkpt>
      <trkpt lat="44.22291" lon="5.39526">
        <ele>964</ele>
        <time>2026-05-13T12:25:45.000Z</time>
      </trkpt>
      <trkpt lat="44.22292" lon="5.39526">
        <ele>964</ele>
        <time>2026-05-13T12:25:46.000Z</time>
      </trkpt>
      <trkpt lat="44.22293" lon="5.39525">
        <ele>964</ele>
        <time>2026-05-13T12:25:47.000Z</time>
      </trkpt>
      <trkpt lat="44.22294" lon="5.39524">
        <ele>965</ele>
        <time>2026-05-13T12:25:48.000Z</time>
      </trkpt>
      <trkpt lat="44.22294" lon="5.39524">
        <ele>965</ele>
        <time>2026-05-13T12:25:49.000Z</time>
      </trkpt>
      <trkpt lat="44.22295" lon="5.39524">
        <ele>965</ele>
        <time>2026-05-13T12:25:50.000Z</time>
      </trkpt>
      <trkpt lat="44.22297" lon="5.39524">
        <ele>965</ele>
        <time>2026-05-13T12:25:51.000Z</time>
      </trkpt>
      <trkpt lat="44.22298" lon="5.39525">
        <ele>965</ele>
        <time>2026-05-13T12:25:52.000Z</time>
      </trkpt>
      <trkpt lat="44.22299" lon="5.39525">
        <ele>965</ele>
        <time>2026-05-13T12:25:53.000Z</time>
      </trkpt>
      <trkpt lat="44.22299" lon="5.39525">
        <ele>966</ele>
        <time>2026-05-13T12:25:54.000Z</time>
      </trkpt>
      <trkpt lat="44.223" lon="5.39525">
        <ele>966</ele>
        <time>2026-05-13T12:25:55.000Z</time>
      </trkpt>
      <trkpt lat="44.22301" lon="5.39526">
        <ele>967</ele>
        <time>2026-05-13T12:25:56.000Z</time>
      </trkpt>
      <trkpt lat="44.22302" lon="5.39527">
        <ele>967</ele>
        <time>2026-05-13T12:25:57.000Z</time>
      </trkpt>
      <trkpt lat="44.22303" lon="5.39528">
        <ele>968</ele>
        <time>2026-05-13T12:25:58.000Z</time>
      </trkpt>
      <trkpt lat="44.22304" lon="5.39528">
        <ele>968</ele>
        <time>2026-05-13T12:25:59.000Z</time>
      </trkpt>
      <trkpt lat="44.22305" lon="5.39529">
        <ele>968</ele>
        <time>2026-05-13T12:26:00.000Z</time>
      </trkpt>
      <trkpt lat="44.22306" lon="5.39529">
        <ele>968</ele>
        <time>2026-05-13T12:26:01.000Z</time>
      </trkpt>
      <trkpt lat="44.22308" lon="5.3953">
        <ele>968</ele>
        <time>2026-05-13T12:26:02.000Z</time>
      </trkpt>
      <trkpt lat="44.22309" lon="5.3953">
        <ele>968</ele>
        <time>2026-05-13T12:26:03.000Z</time>
      </trkpt>
      <trkpt lat="44.2231" lon="5.3953">
        <ele>968</ele>
        <time>2026-05-13T12:26:04.000Z</time>
      </trkpt>
      <trkpt lat="44.22311" lon="5.3953">
        <ele>969</ele>
        <time>2026-05-13T12:26:05.000Z</time>
      </trkpt>
      <trkpt lat="44.22312" lon="5.3953">
        <ele>970</ele>
        <time>2026-05-13T12:26:06.000Z</time>
      </trkpt>
      <trkpt lat="44.22313" lon="5.39529">
        <ele>970</ele>
        <time>2026-05-13T12:26:07.000Z</time>
      </trkpt>
      <trkpt lat="44.22314" lon="5.39529">
        <ele>971</ele>
        <time>2026-05-13T12:26:08.000Z</time>
      </trkpt>
      <trkpt lat="44.22315" lon="5.39529">
        <ele>971</ele>
        <time>2026-05-13T12:26:09.000Z</time>
      </trkpt>
      <trkpt lat="44.22316" lon="5.39529">
        <ele>971</ele>
        <time>2026-05-13T12:26:10.000Z</time>
      </trkpt>
      <trkpt lat="44.22317" lon="5.39529">
        <ele>970</ele>
        <time>2026-05-13T12:26:11.000Z</time>
      </trkpt>
      <trkpt lat="44.22318" lon="5.39529">
        <ele>970</ele>
        <time>2026-05-13T12:26:12.000Z</time>
      </trkpt>
      <trkpt lat="44.22319" lon="5.39529">
        <ele>970</ele>
        <time>2026-05-13T12:26:13.000Z</time>
      </trkpt>
      <trkpt lat="44.2232" lon="5.39528">
        <ele>970</ele>
        <time>2026-05-13T12:26:14.000Z</time>
      </trkpt>
      <trkpt lat="44.22321" lon="5.39528">
        <ele>970</ele>
        <time>2026-05-13T12:26:15.000Z</time>
      </trkpt>
      <trkpt lat="44.22322" lon="5.39529">
        <ele>970</ele>
        <time>2026-05-13T12:26:16.000Z</time>
      </trkpt>
      <trkpt lat="44.22323" lon="5.39529">
        <ele>970</ele>
        <time>2026-05-13T12:26:17.000Z</time>
      </trkpt>
      <trkpt lat="44.22323" lon="5.39529">
        <ele>970</ele>
        <time>2026-05-13T12:26:18.000Z</time>
      </trkpt>
      <trkpt lat="44.22324" lon="5.39529">
        <ele>970</ele>
        <time>2026-05-13T12:26:19.000Z</time>
      </trkpt>
      <trkpt lat="44.22324" lon="5.39529">
        <ele>969</ele>
        <time>2026-05-13T12:26:20.000Z</time>
      </trkpt>
      <trkpt lat="44.22325" lon="5.39529">
        <ele>970</ele>
        <time>2026-05-13T12:26:21.000Z</time>
      </trkpt>
      <trkpt lat="44.22326" lon="5.39529">
        <ele>970</ele>
        <time>2026-05-13T12:26:22.000Z</time>
      </trkpt>
      <trkpt lat="44.22327" lon="5.39529">
        <ele>971</ele>
        <time>2026-05-13T12:26:23.000Z</time>
      </trkpt>
      <trkpt lat="44.22328" lon="5.39528">
        <ele>971</ele>
        <time>2026-05-13T12:26:24.000Z</time>
      </trkpt>
      <trkpt lat="44.22329" lon="5.39528">
        <ele>971</ele>
        <time>2026-05-13T12:26:25.000Z</time>
      </trkpt>
      <trkpt lat="44.2233" lon="5.39528">
        <ele>971</ele>
        <time>2026-05-13T12:26:26.000Z</time>
      </trkpt>
      <trkpt lat="44.22331" lon="5.39527">
        <ele>971</ele>
        <time>2026-05-13T12:26:27.000Z</time>
      </trkpt>
      <trkpt lat="44.22331" lon="5.39527">
        <ele>972</ele>
        <time>2026-05-13T12:26:28.000Z</time>
      </trkpt>
      <trkpt lat="44.22332" lon="5.39527">
        <ele>972</ele>
        <time>2026-05-13T12:26:29.000Z</time>
      </trkpt>
      <trkpt lat="44.22334" lon="5.39527">
        <ele>972</ele>
        <time>2026-05-13T12:26:30.000Z</time>
      </trkpt>
      <trkpt lat="44.22335" lon="5.39526">
        <ele>972</ele>
        <time>2026-05-13T12:26:31.000Z</time>
      </trkpt>
      <trkpt lat="44.22336" lon="5.39525">
        <ele>972</ele>
        <time>2026-05-13T12:26:32.000Z</time>
      </trkpt>
      <trkpt lat="44.22337" lon="5.39526">
        <ele>973</ele>
        <time>2026-05-13T12:26:33.000Z</time>
      </trkpt>
      <trkpt lat="44.22338" lon="5.39527">
        <ele>972</ele>
        <time>2026-05-13T12:26:34.000Z</time>
      </trkpt>
      <trkpt lat="44.22338" lon="5.39526">
        <ele>972</ele>
        <time>2026-05-13T12:26:35.000Z</time>
      </trkpt>
      <trkpt lat="44.22339" lon="5.39526">
        <ele>972</ele>
        <time>2026-05-13T12:26:36.000Z</time>
      </trkpt>
      <trkpt lat="44.2234" lon="5.39525">
        <ele>972</ele>
        <time>2026-05-13T12:26:37.000Z</time>
      </trkpt>
      <trkpt lat="44.22341" lon="5.39525">
        <ele>972</ele>
        <time>2026-05-13T12:26:38.000Z</time>
      </trkpt>
      <trkpt lat="44.22342" lon="5.39525">
        <ele>972</ele>
        <time>2026-05-13T12:26:39.000Z</time>
      </trkpt>
      <trkpt lat="44.22343" lon="5.39525">
        <ele>972</ele>
        <time>2026-05-13T12:26:40.000Z</time>
      </trkpt>
      <trkpt lat="44.22344" lon="5.39525">
        <ele>972</ele>
        <time>2026-05-13T12:26:41.000Z</time>
      </trkpt>
      <trkpt lat="44.22345" lon="5.39525">
        <ele>973</ele>
        <time>2026-05-13T12:26:42.000Z</time>
      </trkpt>
      <trkpt lat="44.22346" lon="5.39525">
        <ele>972</ele>
        <time>2026-05-13T12:26:43.000Z</time>
      </trkpt>
      <trkpt lat="44.22347" lon="5.39525">
        <ele>972</ele>
        <time>2026-05-13T12:26:44.000Z</time>
      </trkpt>
      <trkpt lat="44.22348" lon="5.39524">
        <ele>973</ele>
        <time>2026-05-13T12:26:45.000Z</time>
      </trkpt>
      <trkpt lat="44.22348" lon="5.39524">
        <ele>973</ele>
        <time>2026-05-13T12:26:46.000Z</time>
      </trkpt>
      <trkpt lat="44.2235" lon="5.39524">
        <ele>973</ele>
        <time>2026-05-13T12:26:47.000Z</time>
      </trkpt>
      <trkpt lat="44.22351" lon="5.39523">
        <ele>973</ele>
        <time>2026-05-13T12:26:48.000Z</time>
      </trkpt>
      <trkpt lat="44.22352" lon="5.39524">
        <ele>973</ele>
        <time>2026-05-13T12:26:49.000Z</time>
      </trkpt>
      <trkpt lat="44.22352" lon="5.39523">
        <ele>973</ele>
        <time>2026-05-13T12:26:50.000Z</time>
      </trkpt>
      <trkpt lat="44.22354" lon="5.39523">
        <ele>973</ele>
        <time>2026-05-13T12:26:51.000Z</time>
      </trkpt>
      <trkpt lat="44.22355" lon="5.39522">
        <ele>974</ele>
        <time>2026-05-13T12:26:52.000Z</time>
      </trkpt>
      <trkpt lat="44.22356" lon="5.39522">
        <ele>974</ele>
        <time>2026-05-13T12:26:53.000Z</time>
      </trkpt>
      <trkpt lat="44.22356" lon="5.39522">
        <ele>974</ele>
        <time>2026-05-13T12:26:54.000Z</time>
      </trkpt>
      <trkpt lat="44.22357" lon="5.39521">
        <ele>974</ele>
        <time>2026-05-13T12:26:55.000Z</time>
      </trkpt>
      <trkpt lat="44.22358" lon="5.39522">
        <ele>975</ele>
        <time>2026-05-13T12:26:56.000Z</time>
      </trkpt>
      <trkpt lat="44.22359" lon="5.39522">
        <ele>975</ele>
        <time>2026-05-13T12:26:57.000Z</time>
      </trkpt>
      <trkpt lat="44.2236" lon="5.39522">
        <ele>975</ele>
        <time>2026-05-13T12:26:58.000Z</time>
      </trkpt>
      <trkpt lat="44.22361" lon="5.3952">
        <ele>975</ele>
        <time>2026-05-13T12:26:59.000Z</time>
      </trkpt>
      <trkpt lat="44.22362" lon="5.3952">
        <ele>976</ele>
        <time>2026-05-13T12:27:00.000Z</time>
      </trkpt>
      <trkpt lat="44.22363" lon="5.3952">
        <ele>975</ele>
        <time>2026-05-13T12:27:01.000Z</time>
      </trkpt>
      <trkpt lat="44.22364" lon="5.3952">
        <ele>976</ele>
        <time>2026-05-13T12:27:02.000Z</time>
      </trkpt>
      <trkpt lat="44.22365" lon="5.39521">
        <ele>976</ele>
        <time>2026-05-13T12:27:03.000Z</time>
      </trkpt>
      <trkpt lat="44.22365" lon="5.39521">
        <ele>976</ele>
        <time>2026-05-13T12:27:04.000Z</time>
      </trkpt>
      <trkpt lat="44.22366" lon="5.39521">
        <ele>976</ele>
        <time>2026-05-13T12:27:05.000Z</time>
      </trkpt>
      <trkpt lat="44.22367" lon="5.39522">
        <ele>976</ele>
        <time>2026-05-13T12:27:06.000Z</time>
      </trkpt>
      <trkpt lat="44.22368" lon="5.39522">
        <ele>976</ele>
        <time>2026-05-13T12:27:07.000Z</time>
      </trkpt>
      <trkpt lat="44.22369" lon="5.39522">
        <ele>976</ele>
        <time>2026-05-13T12:27:08.000Z</time>
      </trkpt>
      <trkpt lat="44.2237" lon="5.39522">
        <ele>976</ele>
        <time>2026-05-13T12:27:09.000Z</time>
      </trkpt>
      <trkpt lat="44.22371" lon="5.39522">
        <ele>976</ele>
        <time>2026-05-13T12:27:10.000Z</time>
      </trkpt>
      <trkpt lat="44.22372" lon="5.39523">
        <ele>977</ele>
        <time>2026-05-13T12:27:11.000Z</time>
      </trkpt>
      <trkpt lat="44.22373" lon="5.39523">
        <ele>977</ele>
        <time>2026-05-13T12:27:12.000Z</time>
      </trkpt>
      <trkpt lat="44.22374" lon="5.39523">
        <ele>977</ele>
        <time>2026-05-13T12:27:13.000Z</time>
      </trkpt>
      <trkpt lat="44.22375" lon="5.39524">
        <ele>977</ele>
        <time>2026-05-13T12:27:14.000Z</time>
      </trkpt>
      <trkpt lat="44.22376" lon="5.39524">
        <ele>978</ele>
        <time>2026-05-13T12:27:15.000Z</time>
      </trkpt>
      <trkpt lat="44.22377" lon="5.39524">
        <ele>978</ele>
        <time>2026-05-13T12:27:16.000Z</time>
      </trkpt>
      <trkpt lat="44.22379" lon="5.39524">
        <ele>979</ele>
        <time>2026-05-13T12:27:17.000Z</time>
      </trkpt>
      <trkpt lat="44.2238" lon="5.39525">
        <ele>980</ele>
        <time>2026-05-13T12:27:18.000Z</time>
      </trkpt>
      <trkpt lat="44.22381" lon="5.39525">
        <ele>980</ele>
        <time>2026-05-13T12:27:19.000Z</time>
      </trkpt>
      <trkpt lat="44.22382" lon="5.39526">
        <ele>980</ele>
        <time>2026-05-13T12:27:20.000Z</time>
      </trkpt>
      <trkpt lat="44.22382" lon="5.39526">
        <ele>981</ele>
        <time>2026-05-13T12:27:21.000Z</time>
      </trkpt>
      <trkpt lat="44.22384" lon="5.39527">
        <ele>981</ele>
        <time>2026-05-13T12:27:22.000Z</time>
      </trkpt>
      <trkpt lat="44.22384" lon="5.39527">
        <ele>981</ele>
        <time>2026-05-13T12:27:23.000Z</time>
      </trkpt>
      <trkpt lat="44.22385" lon="5.39527">
        <ele>981</ele>
        <time>2026-05-13T12:27:24.000Z</time>
      </trkpt>
      <trkpt lat="44.22386" lon="5.39528">
        <ele>981</ele>
        <time>2026-05-13T12:27:25.000Z</time>
      </trkpt>
      <trkpt lat="44.22387" lon="5.39528">
        <ele>981</ele>
        <time>2026-05-13T12:27:26.000Z</time>
      </trkpt>
      <trkpt lat="44.22388" lon="5.39529">
        <ele>981</ele>
        <time>2026-05-13T12:27:27.000Z</time>
      </trkpt>
      <trkpt lat="44.22389" lon="5.39529">
        <ele>981</ele>
        <time>2026-05-13T12:27:28.000Z</time>
      </trkpt>
      <trkpt lat="44.22389" lon="5.3953">
        <ele>982</ele>
        <time>2026-05-13T12:27:29.000Z</time>
      </trkpt>
      <trkpt lat="44.22389" lon="5.39531">
        <ele>982</ele>
        <time>2026-05-13T12:27:30.000Z</time>
      </trkpt>
      <trkpt lat="44.22389" lon="5.39532">
        <ele>982</ele>
        <time>2026-05-13T12:27:31.000Z</time>
      </trkpt>
      <trkpt lat="44.2239" lon="5.39534">
        <ele>982</ele>
        <time>2026-05-13T12:27:32.000Z</time>
      </trkpt>
      <trkpt lat="44.22391" lon="5.39535">
        <ele>983</ele>
        <time>2026-05-13T12:27:33.000Z</time>
      </trkpt>
      <trkpt lat="44.22391" lon="5.39536">
        <ele>983</ele>
        <time>2026-05-13T12:27:34.000Z</time>
      </trkpt>
      <trkpt lat="44.22392" lon="5.39538">
        <ele>983</ele>
        <time>2026-05-13T12:27:35.000Z</time>
      </trkpt>
      <trkpt lat="44.22392" lon="5.39539">
        <ele>984</ele>
        <time>2026-05-13T12:27:36.000Z</time>
      </trkpt>
      <trkpt lat="44.22393" lon="5.39541">
        <ele>984</ele>
        <time>2026-05-13T12:27:37.000Z</time>
      </trkpt>
      <trkpt lat="44.22393" lon="5.39542">
        <ele>984</ele>
        <time>2026-05-13T12:27:38.000Z</time>
      </trkpt>
      <trkpt lat="44.22394" lon="5.39544">
        <ele>985</ele>
        <time>2026-05-13T12:27:39.000Z</time>
      </trkpt>
      <trkpt lat="44.22395" lon="5.39545">
        <ele>985</ele>
        <time>2026-05-13T12:27:40.000Z</time>
      </trkpt>
      <trkpt lat="44.22396" lon="5.39546">
        <ele>985</ele>
        <time>2026-05-13T12:27:41.000Z</time>
      </trkpt>
      <trkpt lat="44.22397" lon="5.39547">
        <ele>985</ele>
        <time>2026-05-13T12:27:42.000Z</time>
      </trkpt>
      <trkpt lat="44.22398" lon="5.39547">
        <ele>985</ele>
        <time>2026-05-13T12:27:43.000Z</time>
      </trkpt>
      <trkpt lat="44.22399" lon="5.39546">
        <ele>984</ele>
        <time>2026-05-13T12:27:44.000Z</time>
      </trkpt>
      <trkpt lat="44.224" lon="5.39546">
        <ele>985</ele>
        <time>2026-05-13T12:27:45.000Z</time>
      </trkpt>
      <trkpt lat="44.22401" lon="5.39547">
        <ele>985</ele>
        <time>2026-05-13T12:27:46.000Z</time>
      </trkpt>
      <trkpt lat="44.22401" lon="5.39547">
        <ele>985</ele>
        <time>2026-05-13T12:27:47.000Z</time>
      </trkpt>
      <trkpt lat="44.22403" lon="5.39547">
        <ele>985</ele>
        <time>2026-05-13T12:27:48.000Z</time>
      </trkpt>
      <trkpt lat="44.22403" lon="5.39548">
        <ele>986</ele>
        <time>2026-05-13T12:27:49.000Z</time>
      </trkpt>
      <trkpt lat="44.22404" lon="5.39548">
        <ele>986</ele>
        <time>2026-05-13T12:27:50.000Z</time>
      </trkpt>
      <trkpt lat="44.22405" lon="5.39548">
        <ele>986</ele>
        <time>2026-05-13T12:27:51.000Z</time>
      </trkpt>
      <trkpt lat="44.22406" lon="5.39548">
        <ele>987</ele>
        <time>2026-05-13T12:27:52.000Z</time>
      </trkpt>
      <trkpt lat="44.22407" lon="5.39548">
        <ele>987</ele>
        <time>2026-05-13T12:27:53.000Z</time>
      </trkpt>
      <trkpt lat="44.22408" lon="5.39548">
        <ele>988</ele>
        <time>2026-05-13T12:27:54.000Z</time>
      </trkpt>
      <trkpt lat="44.22409" lon="5.39549">
        <ele>988</ele>
        <time>2026-05-13T12:27:55.000Z</time>
      </trkpt>
      <trkpt lat="44.2241" lon="5.39549">
        <ele>989</ele>
        <time>2026-05-13T12:27:56.000Z</time>
      </trkpt>
      <trkpt lat="44.2241" lon="5.39549">
        <ele>989</ele>
        <time>2026-05-13T12:27:57.000Z</time>
      </trkpt>
      <trkpt lat="44.22411" lon="5.39549">
        <ele>988</ele>
        <time>2026-05-13T12:27:58.000Z</time>
      </trkpt>
      <trkpt lat="44.22412" lon="5.39548">
        <ele>989</ele>
        <time>2026-05-13T12:27:59.000Z</time>
      </trkpt>
      <trkpt lat="44.22413" lon="5.39549">
        <ele>988</ele>
        <time>2026-05-13T12:28:00.000Z</time>
      </trkpt>
      <trkpt lat="44.22414" lon="5.39549">
        <ele>988</ele>
        <time>2026-05-13T12:28:01.000Z</time>
      </trkpt>
      <trkpt lat="44.22415" lon="5.39549">
        <ele>988</ele>
        <time>2026-05-13T12:28:02.000Z</time>
      </trkpt>
      <trkpt lat="44.22415" lon="5.39549">
        <ele>988</ele>
        <time>2026-05-13T12:28:03.000Z</time>
      </trkpt>
      <trkpt lat="44.22416" lon="5.39549">
        <ele>988</ele>
        <time>2026-05-13T12:28:04.000Z</time>
      </trkpt>
      <trkpt lat="44.22417" lon="5.39549">
        <ele>988</ele>
        <time>2026-05-13T12:28:05.000Z</time>
      </trkpt>
      <trkpt lat="44.22418" lon="5.3955">
        <ele>989</ele>
        <time>2026-05-13T12:28:06.000Z</time>
      </trkpt>
      <trkpt lat="44.22419" lon="5.3955">
        <ele>989</ele>
        <time>2026-05-13T12:28:07.000Z</time>
      </trkpt>
      <trkpt lat="44.2242" lon="5.3955">
        <ele>989</ele>
        <time>2026-05-13T12:28:08.000Z</time>
      </trkpt>
      <trkpt lat="44.22421" lon="5.39551">
        <ele>988</ele>
        <time>2026-05-13T12:28:09.000Z</time>
      </trkpt>
      <trkpt lat="44.22421" lon="5.39552">
        <ele>988</ele>
        <time>2026-05-13T12:28:10.000Z</time>
      </trkpt>
      <trkpt lat="44.22421" lon="5.39553">
        <ele>989</ele>
        <time>2026-05-13T12:28:11.000Z</time>
      </trkpt>
      <trkpt lat="44.22422" lon="5.39554">
        <ele>989</ele>
        <time>2026-05-13T12:28:12.000Z</time>
      </trkpt>
      <trkpt lat="44.22423" lon="5.39555">
        <ele>989</ele>
        <time>2026-05-13T12:28:13.000Z</time>
      </trkpt>
      <trkpt lat="44.22423" lon="5.39555">
        <ele>989</ele>
        <time>2026-05-13T12:28:14.000Z</time>
      </trkpt>
      <trkpt lat="44.22424" lon="5.39556">
        <ele>989</ele>
        <time>2026-05-13T12:28:15.000Z</time>
      </trkpt>
      <trkpt lat="44.22424" lon="5.39556">
        <ele>990</ele>
        <time>2026-05-13T12:28:16.000Z</time>
      </trkpt>
      <trkpt lat="44.22426" lon="5.39557">
        <ele>989</ele>
        <time>2026-05-13T12:28:17.000Z</time>
      </trkpt>
      <trkpt lat="44.22426" lon="5.39558">
        <ele>989</ele>
        <time>2026-05-13T12:28:18.000Z</time>
      </trkpt>
      <trkpt lat="44.22427" lon="5.39558">
        <ele>990</ele>
        <time>2026-05-13T12:28:19.000Z</time>
      </trkpt>
      <trkpt lat="44.22427" lon="5.39558">
        <ele>990</ele>
        <time>2026-05-13T12:28:20.000Z</time>
      </trkpt>
      <trkpt lat="44.22428" lon="5.39559">
        <ele>990</ele>
        <time>2026-05-13T12:28:21.000Z</time>
      </trkpt>
      <trkpt lat="44.22429" lon="5.39559">
        <ele>990</ele>
        <time>2026-05-13T12:28:22.000Z</time>
      </trkpt>
      <trkpt lat="44.2243" lon="5.39559">
        <ele>990</ele>
        <time>2026-05-13T12:28:23.000Z</time>
      </trkpt>
      <trkpt lat="44.2243" lon="5.3956">
        <ele>990</ele>
        <time>2026-05-13T12:28:24.000Z</time>
      </trkpt>
      <trkpt lat="44.22431" lon="5.3956">
        <ele>991</ele>
        <time>2026-05-13T12:28:25.000Z</time>
      </trkpt>
      <trkpt lat="44.22432" lon="5.39561">
        <ele>992</ele>
        <time>2026-05-13T12:28:26.000Z</time>
      </trkpt>
      <trkpt lat="44.22432" lon="5.39561">
        <ele>992</ele>
        <time>2026-05-13T12:28:27.000Z</time>
      </trkpt>
      <trkpt lat="44.22433" lon="5.39562">
        <ele>992</ele>
        <time>2026-05-13T12:28:28.000Z</time>
      </trkpt>
      <trkpt lat="44.22435" lon="5.39563">
        <ele>993</ele>
        <time>2026-05-13T12:28:29.000Z</time>
      </trkpt>
      <trkpt lat="44.22436" lon="5.39563">
        <ele>993</ele>
        <time>2026-05-13T12:28:30.000Z</time>
      </trkpt>
      <trkpt lat="44.22437" lon="5.39563">
        <ele>994</ele>
        <time>2026-05-13T12:28:31.000Z</time>
      </trkpt>
      <trkpt lat="44.22437" lon="5.39564">
        <ele>994</ele>
        <time>2026-05-13T12:28:32.000Z</time>
      </trkpt>
      <trkpt lat="44.22439" lon="5.39564">
        <ele>994</ele>
        <time>2026-05-13T12:28:33.000Z</time>
      </trkpt>
      <trkpt lat="44.2244" lon="5.39564">
        <ele>994</ele>
        <time>2026-05-13T12:28:34.000Z</time>
      </trkpt>
      <trkpt lat="44.22442" lon="5.39564">
        <ele>994</ele>
        <time>2026-05-13T12:28:35.000Z</time>
      </trkpt>
      <trkpt lat="44.22443" lon="5.39565">
        <ele>993</ele>
        <time>2026-05-13T12:28:36.000Z</time>
      </trkpt>
      <trkpt lat="44.22444" lon="5.39564">
        <ele>993</ele>
        <time>2026-05-13T12:28:37.000Z</time>
      </trkpt>
      <trkpt lat="44.22445" lon="5.39565">
        <ele>993</ele>
        <time>2026-05-13T12:28:38.000Z</time>
      </trkpt>
      <trkpt lat="44.22446" lon="5.39566">
        <ele>994</ele>
        <time>2026-05-13T12:28:39.000Z</time>
      </trkpt>
      <trkpt lat="44.22447" lon="5.39566">
        <ele>994</ele>
        <time>2026-05-13T12:28:40.000Z</time>
      </trkpt>
      <trkpt lat="44.22448" lon="5.39567">
        <ele>995</ele>
        <time>2026-05-13T12:28:41.000Z</time>
      </trkpt>
      <trkpt lat="44.22449" lon="5.39567">
        <ele>995</ele>
        <time>2026-05-13T12:28:42.000Z</time>
      </trkpt>
      <trkpt lat="44.2245" lon="5.39568">
        <ele>995</ele>
        <time>2026-05-13T12:28:43.000Z</time>
      </trkpt>
      <trkpt lat="44.22451" lon="5.39569">
        <ele>996</ele>
        <time>2026-05-13T12:28:44.000Z</time>
      </trkpt>
      <trkpt lat="44.22451" lon="5.39569">
        <ele>995</ele>
        <time>2026-05-13T12:28:45.000Z</time>
      </trkpt>
      <trkpt lat="44.22452" lon="5.39568">
        <ele>995</ele>
        <time>2026-05-13T12:28:46.000Z</time>
      </trkpt>
      <trkpt lat="44.22453" lon="5.39568">
        <ele>994</ele>
        <time>2026-05-13T12:28:47.000Z</time>
      </trkpt>
      <trkpt lat="44.22454" lon="5.39569">
        <ele>994</ele>
        <time>2026-05-13T12:28:48.000Z</time>
      </trkpt>
      <trkpt lat="44.22454" lon="5.39569">
        <ele>994</ele>
        <time>2026-05-13T12:28:49.000Z</time>
      </trkpt>
      <trkpt lat="44.22455" lon="5.3957">
        <ele>994</ele>
        <time>2026-05-13T12:28:50.000Z</time>
      </trkpt>
      <trkpt lat="44.22456" lon="5.3957">
        <ele>994</ele>
        <time>2026-05-13T12:28:51.000Z</time>
      </trkpt>
      <trkpt lat="44.22457" lon="5.3957">
        <ele>994</ele>
        <time>2026-05-13T12:28:52.000Z</time>
      </trkpt>
      <trkpt lat="44.22457" lon="5.3957">
        <ele>993</ele>
        <time>2026-05-13T12:28:53.000Z</time>
      </trkpt>
      <trkpt lat="44.22458" lon="5.39571">
        <ele>993</ele>
        <time>2026-05-13T12:28:54.000Z</time>
      </trkpt>
      <trkpt lat="44.22458" lon="5.39572">
        <ele>993</ele>
        <time>2026-05-13T12:28:55.000Z</time>
      </trkpt>
      <trkpt lat="44.22459" lon="5.39572">
        <ele>993</ele>
        <time>2026-05-13T12:28:56.000Z</time>
      </trkpt>
      <trkpt lat="44.22459" lon="5.39573">
        <ele>994</ele>
        <time>2026-05-13T12:28:57.000Z</time>
      </trkpt>
      <trkpt lat="44.2246" lon="5.39573">
        <ele>994</ele>
        <time>2026-05-13T12:28:58.000Z</time>
      </trkpt>
      <trkpt lat="44.22461" lon="5.39574">
        <ele>994</ele>
        <time>2026-05-13T12:28:59.000Z</time>
      </trkpt>
      <trkpt lat="44.22462" lon="5.39574">
        <ele>994</ele>
        <time>2026-05-13T12:29:00.000Z</time>
      </trkpt>
      <trkpt lat="44.22463" lon="5.39575">
        <ele>995</ele>
        <time>2026-05-13T12:29:01.000Z</time>
      </trkpt>
      <trkpt lat="44.22464" lon="5.39576">
        <ele>995</ele>
        <time>2026-05-13T12:29:02.000Z</time>
      </trkpt>
      <trkpt lat="44.22465" lon="5.39576">
        <ele>995</ele>
        <time>2026-05-13T12:29:03.000Z</time>
      </trkpt>
      <trkpt lat="44.22466" lon="5.39576">
        <ele>994</ele>
        <time>2026-05-13T12:29:04.000Z</time>
      </trkpt>
      <trkpt lat="44.22467" lon="5.39576">
        <ele>995</ele>
        <time>2026-05-13T12:29:05.000Z</time>
      </trkpt>
      <trkpt lat="44.22468" lon="5.39576">
        <ele>995</ele>
        <time>2026-05-13T12:29:06.000Z</time>
      </trkpt>
      <trkpt lat="44.22469" lon="5.39576">
        <ele>995</ele>
        <time>2026-05-13T12:29:07.000Z</time>
      </trkpt>
      <trkpt lat="44.22469" lon="5.39576">
        <ele>995</ele>
        <time>2026-05-13T12:29:08.000Z</time>
      </trkpt>
      <trkpt lat="44.2247" lon="5.39575">
        <ele>995</ele>
        <time>2026-05-13T12:29:09.000Z</time>
      </trkpt>
      <trkpt lat="44.2247" lon="5.39575">
        <ele>995</ele>
        <time>2026-05-13T12:29:10.000Z</time>
      </trkpt>
      <trkpt lat="44.22471" lon="5.39575">
        <ele>996</ele>
        <time>2026-05-13T12:29:11.000Z</time>
      </trkpt>
      <trkpt lat="44.22472" lon="5.39575">
        <ele>996</ele>
        <time>2026-05-13T12:29:12.000Z</time>
      </trkpt>
      <trkpt lat="44.22473" lon="5.39576">
        <ele>996</ele>
        <time>2026-05-13T12:29:13.000Z</time>
      </trkpt>
      <trkpt lat="44.22474" lon="5.39575">
        <ele>996</ele>
        <time>2026-05-13T12:29:14.000Z</time>
      </trkpt>
      <trkpt lat="44.22476" lon="5.39576">
        <ele>996</ele>
        <time>2026-05-13T12:29:15.000Z</time>
      </trkpt>
      <trkpt lat="44.22476" lon="5.39576">
        <ele>997</ele>
        <time>2026-05-13T12:29:16.000Z</time>
      </trkpt>
      <trkpt lat="44.22477" lon="5.39576">
        <ele>997</ele>
        <time>2026-05-13T12:29:17.000Z</time>
      </trkpt>
      <trkpt lat="44.22478" lon="5.39577">
        <ele>997</ele>
        <time>2026-05-13T12:29:18.000Z</time>
      </trkpt>
      <trkpt lat="44.22479" lon="5.39577">
        <ele>997</ele>
        <time>2026-05-13T12:29:19.000Z</time>
      </trkpt>
      <trkpt lat="44.2248" lon="5.39578">
        <ele>998</ele>
        <time>2026-05-13T12:29:20.000Z</time>
      </trkpt>
      <trkpt lat="44.22481" lon="5.3958">
        <ele>998</ele>
        <time>2026-05-13T12:29:21.000Z</time>
      </trkpt>
      <trkpt lat="44.22481" lon="5.39581">
        <ele>998</ele>
        <time>2026-05-13T12:29:22.000Z</time>
      </trkpt>
      <trkpt lat="44.22482" lon="5.39581">
        <ele>998</ele>
        <time>2026-05-13T12:29:23.000Z</time>
      </trkpt>
      <trkpt lat="44.22483" lon="5.39581">
        <ele>999</ele>
        <time>2026-05-13T12:29:24.000Z</time>
      </trkpt>
      <trkpt lat="44.22484" lon="5.39581">
        <ele>998</ele>
        <time>2026-05-13T12:29:25.000Z</time>
      </trkpt>
      <trkpt lat="44.22485" lon="5.39581">
        <ele>999</ele>
        <time>2026-05-13T12:29:26.000Z</time>
      </trkpt>
      <trkpt lat="44.22486" lon="5.39581">
        <ele>999</ele>
        <time>2026-05-13T12:29:27.000Z</time>
      </trkpt>
      <trkpt lat="44.22487" lon="5.39581">
        <ele>999</ele>
        <time>2026-05-13T12:29:28.000Z</time>
      </trkpt>
      <trkpt lat="44.22488" lon="5.39582">
        <ele>999</ele>
        <time>2026-05-13T12:29:29.000Z</time>
      </trkpt>
      <trkpt lat="44.22489" lon="5.39583">
        <ele>1000</ele>
        <time>2026-05-13T12:29:30.000Z</time>
      </trkpt>
      <trkpt lat="44.2249" lon="5.39583">
        <ele>1000</ele>
        <time>2026-05-13T12:29:31.000Z</time>
      </trkpt>
      <trkpt lat="44.2249" lon="5.39583">
        <ele>999</ele>
        <time>2026-05-13T12:29:32.000Z</time>
      </trkpt>
      <trkpt lat="44.22491" lon="5.39584">
        <ele>999</ele>
        <time>2026-05-13T12:29:33.000Z</time>
      </trkpt>
      <trkpt lat="44.22492" lon="5.39585">
        <ele>999</ele>
        <time>2026-05-13T12:29:34.000Z</time>
      </trkpt>
      <trkpt lat="44.22493" lon="5.39585">
        <ele>999</ele>
        <time>2026-05-13T12:29:35.000Z</time>
      </trkpt>
      <trkpt lat="44.22494" lon="5.39586">
        <ele>999</ele>
        <time>2026-05-13T12:29:36.000Z</time>
      </trkpt>
      <trkpt lat="44.22494" lon="5.39586">
        <ele>999</ele>
        <time>2026-05-13T12:29:37.000Z</time>
      </trkpt>
      <trkpt lat="44.22495" lon="5.39587">
        <ele>1000</ele>
        <time>2026-05-13T12:29:38.000Z</time>
      </trkpt>
      <trkpt lat="44.22496" lon="5.39588">
        <ele>1000</ele>
        <time>2026-05-13T12:29:39.000Z</time>
      </trkpt>
      <trkpt lat="44.22497" lon="5.39588">
        <ele>999</ele>
        <time>2026-05-13T12:29:40.000Z</time>
      </trkpt>
      <trkpt lat="44.22498" lon="5.39588">
        <ele>1000</ele>
        <time>2026-05-13T12:29:41.000Z</time>
      </trkpt>
      <trkpt lat="44.22499" lon="5.39588">
        <ele>1001</ele>
        <time>2026-05-13T12:29:42.000Z</time>
      </trkpt>
      <trkpt lat="44.225" lon="5.39589">
        <ele>1001</ele>
        <time>2026-05-13T12:29:43.000Z</time>
      </trkpt>
      <trkpt lat="44.22501" lon="5.39589">
        <ele>1002</ele>
        <time>2026-05-13T12:29:44.000Z</time>
      </trkpt>
      <trkpt lat="44.22502" lon="5.3959">
        <ele>1002</ele>
        <time>2026-05-13T12:29:45.000Z</time>
      </trkpt>
      <trkpt lat="44.22502" lon="5.39591">
        <ele>1003</ele>
        <time>2026-05-13T12:29:46.000Z</time>
      </trkpt>
      <trkpt lat="44.22503" lon="5.39592">
        <ele>1003</ele>
        <time>2026-05-13T12:29:47.000Z</time>
      </trkpt>
      <trkpt lat="44.22504" lon="5.39593">
        <ele>1003</ele>
        <time>2026-05-13T12:29:48.000Z</time>
      </trkpt>
      <trkpt lat="44.22505" lon="5.39593">
        <ele>1003</ele>
        <time>2026-05-13T12:29:49.000Z</time>
      </trkpt>
      <trkpt lat="44.22505" lon="5.39594">
        <ele>1004</ele>
        <time>2026-05-13T12:29:50.000Z</time>
      </trkpt>
      <trkpt lat="44.22507" lon="5.39594">
        <ele>1005</ele>
        <time>2026-05-13T12:29:51.000Z</time>
      </trkpt>
      <trkpt lat="44.22508" lon="5.39594">
        <ele>1005</ele>
        <time>2026-05-13T12:29:52.000Z</time>
      </trkpt>
      <trkpt lat="44.22508" lon="5.39595">
        <ele>1005</ele>
        <time>2026-05-13T12:29:53.000Z</time>
      </trkpt>
      <trkpt lat="44.22509" lon="5.39595">
        <ele>1005</ele>
        <time>2026-05-13T12:29:54.000Z</time>
      </trkpt>
      <trkpt lat="44.2251" lon="5.39595">
        <ele>1005</ele>
        <time>2026-05-13T12:29:55.000Z</time>
      </trkpt>
      <trkpt lat="44.2251" lon="5.39595">
        <ele>1006</ele>
        <time>2026-05-13T12:29:56.000Z</time>
      </trkpt>
      <trkpt lat="44.22511" lon="5.39596">
        <ele>1006</ele>
        <time>2026-05-13T12:29:57.000Z</time>
      </trkpt>
      <trkpt lat="44.22512" lon="5.39598">
        <ele>1006</ele>
        <time>2026-05-13T12:29:58.000Z</time>
      </trkpt>
      <trkpt lat="44.22514" lon="5.39598">
        <ele>1006</ele>
        <time>2026-05-13T12:29:59.000Z</time>
      </trkpt>
      <trkpt lat="44.22515" lon="5.39599">
        <ele>1006</ele>
        <time>2026-05-13T12:30:00.000Z</time>
      </trkpt>
      <trkpt lat="44.22515" lon="5.39599">
        <ele>1006</ele>
        <time>2026-05-13T12:30:01.000Z</time>
      </trkpt>
      <trkpt lat="44.22516" lon="5.39599">
        <ele>1006</ele>
        <time>2026-05-13T12:30:02.000Z</time>
      </trkpt>
      <trkpt lat="44.22517" lon="5.396">
        <ele>1006</ele>
        <time>2026-05-13T12:30:03.000Z</time>
      </trkpt>
      <trkpt lat="44.22518" lon="5.39601">
        <ele>1006</ele>
        <time>2026-05-13T12:30:04.000Z</time>
      </trkpt>
      <trkpt lat="44.22518" lon="5.39602">
        <ele>1007</ele>
        <time>2026-05-13T12:30:05.000Z</time>
      </trkpt>
      <trkpt lat="44.22519" lon="5.39603">
        <ele>1007</ele>
        <time>2026-05-13T12:30:06.000Z</time>
      </trkpt>
      <trkpt lat="44.22519" lon="5.39604">
        <ele>1008</ele>
        <time>2026-05-13T12:30:07.000Z</time>
      </trkpt>
      <trkpt lat="44.22519" lon="5.39604">
        <ele>1008</ele>
        <time>2026-05-13T12:30:08.000Z</time>
      </trkpt>
      <trkpt lat="44.2252" lon="5.39604">
        <ele>1007</ele>
        <time>2026-05-13T12:30:09.000Z</time>
      </trkpt>
      <trkpt lat="44.2252" lon="5.39605">
        <ele>1008</ele>
        <time>2026-05-13T12:30:10.000Z</time>
      </trkpt>
      <trkpt lat="44.22521" lon="5.39606">
        <ele>1008</ele>
        <time>2026-05-13T12:30:11.000Z</time>
      </trkpt>
      <trkpt lat="44.22522" lon="5.39607">
        <ele>1008</ele>
        <time>2026-05-13T12:30:12.000Z</time>
      </trkpt>
      <trkpt lat="44.22522" lon="5.39608">
        <ele>1008</ele>
        <time>2026-05-13T12:30:13.000Z</time>
      </trkpt>
      <trkpt lat="44.22523" lon="5.39609">
        <ele>1008</ele>
        <time>2026-05-13T12:30:14.000Z</time>
      </trkpt>
      <trkpt lat="44.22523" lon="5.39611">
        <ele>1008</ele>
        <time>2026-05-13T12:30:15.000Z</time>
      </trkpt>
      <trkpt lat="44.22523" lon="5.39611">
        <ele>1008</ele>
        <time>2026-05-13T12:30:16.000Z</time>
      </trkpt>
      <trkpt lat="44.22523" lon="5.39613">
        <ele>1008</ele>
        <time>2026-05-13T12:30:17.000Z</time>
      </trkpt>
      <trkpt lat="44.22524" lon="5.39614">
        <ele>1008</ele>
        <time>2026-05-13T12:30:18.000Z</time>
      </trkpt>
      <trkpt lat="44.22524" lon="5.39615">
        <ele>1009</ele>
        <time>2026-05-13T12:30:19.000Z</time>
      </trkpt>
      <trkpt lat="44.22525" lon="5.39616">
        <ele>1009</ele>
        <time>2026-05-13T12:30:20.000Z</time>
      </trkpt>
      <trkpt lat="44.22526" lon="5.39617">
        <ele>1009</ele>
        <time>2026-05-13T12:30:21.000Z</time>
      </trkpt>
      <trkpt lat="44.22527" lon="5.39617">
        <ele>1008</ele>
        <time>2026-05-13T12:30:22.000Z</time>
      </trkpt>
      <trkpt lat="44.22528" lon="5.39617">
        <ele>1009</ele>
        <time>2026-05-13T12:30:23.000Z</time>
      </trkpt>
      <trkpt lat="44.22529" lon="5.39618">
        <ele>1009</ele>
        <time>2026-05-13T12:30:24.000Z</time>
      </trkpt>
      <trkpt lat="44.2253" lon="5.39619">
        <ele>1009</ele>
        <time>2026-05-13T12:30:25.000Z</time>
      </trkpt>
      <trkpt lat="44.2253" lon="5.39619">
        <ele>1009</ele>
        <time>2026-05-13T12:30:26.000Z</time>
      </trkpt>
      <trkpt lat="44.22531" lon="5.3962">
        <ele>1009</ele>
        <time>2026-05-13T12:30:27.000Z</time>
      </trkpt>
      <trkpt lat="44.22532" lon="5.3962">
        <ele>1009</ele>
        <time>2026-05-13T12:30:28.000Z</time>
      </trkpt>
      <trkpt lat="44.22532" lon="5.39621">
        <ele>1009</ele>
        <time>2026-05-13T12:30:29.000Z</time>
      </trkpt>
      <trkpt lat="44.22533" lon="5.39622">
        <ele>1008</ele>
        <time>2026-05-13T12:30:30.000Z</time>
      </trkpt>
      <trkpt lat="44.22533" lon="5.39623">
        <ele>1009</ele>
        <time>2026-05-13T12:30:31.000Z</time>
      </trkpt>
      <trkpt lat="44.22534" lon="5.39624">
        <ele>1009</ele>
        <time>2026-05-13T12:30:32.000Z</time>
      </trkpt>
      <trkpt lat="44.22534" lon="5.39626">
        <ele>1010</ele>
        <time>2026-05-13T12:30:33.000Z</time>
      </trkpt>
      <trkpt lat="44.22535" lon="5.39627">
        <ele>1010</ele>
        <time>2026-05-13T12:30:34.000Z</time>
      </trkpt>
      <trkpt lat="44.22536" lon="5.39628">
        <ele>1010</ele>
        <time>2026-05-13T12:30:35.000Z</time>
      </trkpt>
      <trkpt lat="44.22537" lon="5.39629">
        <ele>1010</ele>
        <time>2026-05-13T12:30:36.000Z</time>
      </trkpt>
      <trkpt lat="44.22538" lon="5.3963">
        <ele>1010</ele>
        <time>2026-05-13T12:30:37.000Z</time>
      </trkpt>
      <trkpt lat="44.22539" lon="5.39631">
        <ele>1011</ele>
        <time>2026-05-13T12:30:38.000Z</time>
      </trkpt>
      <trkpt lat="44.22539" lon="5.39632">
        <ele>1012</ele>
        <time>2026-05-13T12:30:39.000Z</time>
      </trkpt>
      <trkpt lat="44.2254" lon="5.39632">
        <ele>1013</ele>
        <time>2026-05-13T12:30:40.000Z</time>
      </trkpt>
      <trkpt lat="44.22541" lon="5.39633">
        <ele>1013</ele>
        <time>2026-05-13T12:30:41.000Z</time>
      </trkpt>
      <trkpt lat="44.22541" lon="5.39634">
        <ele>1013</ele>
        <time>2026-05-13T12:30:42.000Z</time>
      </trkpt>
      <trkpt lat="44.22542" lon="5.39635">
        <ele>1013</ele>
        <time>2026-05-13T12:30:43.000Z</time>
      </trkpt>
      <trkpt lat="44.22543" lon="5.39636">
        <ele>1014</ele>
        <time>2026-05-13T12:30:44.000Z</time>
      </trkpt>
      <trkpt lat="44.22543" lon="5.39637">
        <ele>1014</ele>
        <time>2026-05-13T12:30:45.000Z</time>
      </trkpt>
      <trkpt lat="44.22544" lon="5.39638">
        <ele>1015</ele>
        <time>2026-05-13T12:30:46.000Z</time>
      </trkpt>
      <trkpt lat="44.22545" lon="5.3964">
        <ele>1015</ele>
        <time>2026-05-13T12:30:47.000Z</time>
      </trkpt>
      <trkpt lat="44.22545" lon="5.3964">
        <ele>1015</ele>
        <time>2026-05-13T12:30:48.000Z</time>
      </trkpt>
      <trkpt lat="44.22546" lon="5.39641">
        <ele>1015</ele>
        <time>2026-05-13T12:30:49.000Z</time>
      </trkpt>
      <trkpt lat="44.22546" lon="5.39643">
        <ele>1014</ele>
        <time>2026-05-13T12:30:50.000Z</time>
      </trkpt>
      <trkpt lat="44.22547" lon="5.39644">
        <ele>1014</ele>
        <time>2026-05-13T12:30:51.000Z</time>
      </trkpt>
      <trkpt lat="44.22547" lon="5.39644">
        <ele>1014</ele>
        <time>2026-05-13T12:30:52.000Z</time>
      </trkpt>
      <trkpt lat="44.22547" lon="5.39644">
        <ele>1014</ele>
        <time>2026-05-13T12:30:53.000Z</time>
      </trkpt>
      <trkpt lat="44.22547" lon="5.39644">
        <ele>1014</ele>
        <time>2026-05-13T12:30:54.000Z</time>
      </trkpt>
      <trkpt lat="44.22547" lon="5.39644">
        <ele>1015</ele>
        <time>2026-05-13T12:30:55.000Z</time>
      </trkpt>
      <trkpt lat="44.22548" lon="5.39644">
        <ele>1015</ele>
        <time>2026-05-13T12:30:56.000Z</time>
      </trkpt>
      <trkpt lat="44.22549" lon="5.39646">
        <ele>1014</ele>
        <time>2026-05-13T12:30:57.000Z</time>
      </trkpt>
      <trkpt lat="44.2255" lon="5.39646">
        <ele>1014</ele>
        <time>2026-05-13T12:30:58.000Z</time>
      </trkpt>
      <trkpt lat="44.22551" lon="5.39646">
        <ele>1014</ele>
        <time>2026-05-13T12:30:59.000Z</time>
      </trkpt>
      <trkpt lat="44.22551" lon="5.39647">
        <ele>1013</ele>
        <time>2026-05-13T12:31:00.000Z</time>
      </trkpt>
      <trkpt lat="44.22552" lon="5.39648">
        <ele>1013</ele>
        <time>2026-05-13T12:31:01.000Z</time>
      </trkpt>
      <trkpt lat="44.22553" lon="5.39648">
        <ele>1014</ele>
        <time>2026-05-13T12:31:02.000Z</time>
      </trkpt>
      <trkpt lat="44.22553" lon="5.39649">
        <ele>1013</ele>
        <time>2026-05-13T12:31:03.000Z</time>
      </trkpt>
      <trkpt lat="44.22554" lon="5.3965">
        <ele>1014</ele>
        <time>2026-05-13T12:31:04.000Z</time>
      </trkpt>
      <trkpt lat="44.22555" lon="5.39651">
        <ele>1014</ele>
        <time>2026-05-13T12:31:05.000Z</time>
      </trkpt>
      <trkpt lat="44.22556" lon="5.39652">
        <ele>1014</ele>
        <time>2026-05-13T12:31:06.000Z</time>
      </trkpt>
      <trkpt lat="44.22556" lon="5.39653">
        <ele>1014</ele>
        <time>2026-05-13T12:31:07.000Z</time>
      </trkpt>
      <trkpt lat="44.22557" lon="5.39654">
        <ele>1014</ele>
        <time>2026-05-13T12:31:08.000Z</time>
      </trkpt>
      <trkpt lat="44.22557" lon="5.39656">
        <ele>1013</ele>
        <time>2026-05-13T12:31:09.000Z</time>
      </trkpt>
      <trkpt lat="44.22558" lon="5.39657">
        <ele>1013</ele>
        <time>2026-05-13T12:31:10.000Z</time>
      </trkpt>
      <trkpt lat="44.22558" lon="5.39659">
        <ele>1012</ele>
        <time>2026-05-13T12:31:11.000Z</time>
      </trkpt>
      <trkpt lat="44.22559" lon="5.3966">
        <ele>1013</ele>
        <time>2026-05-13T12:31:12.000Z</time>
      </trkpt>
      <trkpt lat="44.22559" lon="5.3966">
        <ele>1013</ele>
        <time>2026-05-13T12:31:13.000Z</time>
      </trkpt>
      <trkpt lat="44.2256" lon="5.39661">
        <ele>1014</ele>
        <time>2026-05-13T12:31:14.000Z</time>
      </trkpt>
      <trkpt lat="44.22561" lon="5.39662">
        <ele>1015</ele>
        <time>2026-05-13T12:31:15.000Z</time>
      </trkpt>
      <trkpt lat="44.22562" lon="5.39662">
        <ele>1015</ele>
        <time>2026-05-13T12:31:16.000Z</time>
      </trkpt>
      <trkpt lat="44.22563" lon="5.39663">
        <ele>1015</ele>
        <time>2026-05-13T12:31:17.000Z</time>
      </trkpt>
      <trkpt lat="44.22563" lon="5.39663">
        <ele>1016</ele>
        <time>2026-05-13T12:31:18.000Z</time>
      </trkpt>
      <trkpt lat="44.22564" lon="5.39664">
        <ele>1016</ele>
        <time>2026-05-13T12:31:19.000Z</time>
      </trkpt>
      <trkpt lat="44.22565" lon="5.39665">
        <ele>1016</ele>
        <time>2026-05-13T12:31:20.000Z</time>
      </trkpt>
      <trkpt lat="44.22565" lon="5.39665">
        <ele>1016</ele>
        <time>2026-05-13T12:31:21.000Z</time>
      </trkpt>
      <trkpt lat="44.22566" lon="5.39666">
        <ele>1016</ele>
        <time>2026-05-13T12:31:22.000Z</time>
      </trkpt>
      <trkpt lat="44.22566" lon="5.39667">
        <ele>1016</ele>
        <time>2026-05-13T12:31:23.000Z</time>
      </trkpt>
      <trkpt lat="44.22567" lon="5.39668">
        <ele>1016</ele>
        <time>2026-05-13T12:31:24.000Z</time>
      </trkpt>
      <trkpt lat="44.22568" lon="5.39668">
        <ele>1016</ele>
        <time>2026-05-13T12:31:25.000Z</time>
      </trkpt>
      <trkpt lat="44.22569" lon="5.39669">
        <ele>1016</ele>
        <time>2026-05-13T12:31:26.000Z</time>
      </trkpt>
      <trkpt lat="44.2257" lon="5.3967">
        <ele>1016</ele>
        <time>2026-05-13T12:31:27.000Z</time>
      </trkpt>
      <trkpt lat="44.22571" lon="5.39671">
        <ele>1016</ele>
        <time>2026-05-13T12:31:28.000Z</time>
      </trkpt>
      <trkpt lat="44.22572" lon="5.39672">
        <ele>1016</ele>
        <time>2026-05-13T12:31:29.000Z</time>
      </trkpt>
      <trkpt lat="44.22573" lon="5.39672">
        <ele>1017</ele>
        <time>2026-05-13T12:31:30.000Z</time>
      </trkpt>
      <trkpt lat="44.22574" lon="5.39673">
        <ele>1017</ele>
        <time>2026-05-13T12:31:31.000Z</time>
      </trkpt>
      <trkpt lat="44.22574" lon="5.39674">
        <ele>1018</ele>
        <time>2026-05-13T12:31:32.000Z</time>
      </trkpt>
      <trkpt lat="44.22575" lon="5.39674">
        <ele>1018</ele>
        <time>2026-05-13T12:31:33.000Z</time>
      </trkpt>
      <trkpt lat="44.22576" lon="5.39674">
        <ele>1018</ele>
        <time>2026-05-13T12:31:34.000Z</time>
      </trkpt>
      <trkpt lat="44.22577" lon="5.39675">
        <ele>1017</ele>
        <time>2026-05-13T12:31:35.000Z</time>
      </trkpt>
      <trkpt lat="44.22578" lon="5.39676">
        <ele>1017</ele>
        <time>2026-05-13T12:31:36.000Z</time>
      </trkpt>
      <trkpt lat="44.2258" lon="5.39677">
        <ele>1017</ele>
        <time>2026-05-13T12:31:37.000Z</time>
      </trkpt>
      <trkpt lat="44.2258" lon="5.39677">
        <ele>1017</ele>
        <time>2026-05-13T12:31:38.000Z</time>
      </trkpt>
      <trkpt lat="44.2258" lon="5.39678">
        <ele>1017</ele>
        <time>2026-05-13T12:31:39.000Z</time>
      </trkpt>
      <trkpt lat="44.22582" lon="5.39678">
        <ele>1017</ele>
        <time>2026-05-13T12:31:40.000Z</time>
      </trkpt>
      <trkpt lat="44.22583" lon="5.39678">
        <ele>1017</ele>
        <time>2026-05-13T12:31:41.000Z</time>
      </trkpt>
      <trkpt lat="44.22583" lon="5.39679">
        <ele>1017</ele>
        <time>2026-05-13T12:31:42.000Z</time>
      </trkpt>
      <trkpt lat="44.22585" lon="5.3968">
        <ele>1017</ele>
        <time>2026-05-13T12:31:43.000Z</time>
      </trkpt>
      <trkpt lat="44.22586" lon="5.3968">
        <ele>1017</ele>
        <time>2026-05-13T12:31:44.000Z</time>
      </trkpt>
      <trkpt lat="44.22587" lon="5.39681">
        <ele>1017</ele>
        <time>2026-05-13T12:31:45.000Z</time>
      </trkpt>
      <trkpt lat="44.22588" lon="5.39682">
        <ele>1018</ele>
        <time>2026-05-13T12:31:46.000Z</time>
      </trkpt>
      <trkpt lat="44.22589" lon="5.39683">
        <ele>1018</ele>
        <time>2026-05-13T12:31:47.000Z</time>
      </trkpt>
      <trkpt lat="44.2259" lon="5.39683">
        <ele>1018</ele>
        <time>2026-05-13T12:31:48.000Z</time>
      </trkpt>
      <trkpt lat="44.22591" lon="5.39684">
        <ele>1019</ele>
        <time>2026-05-13T12:31:49.000Z</time>
      </trkpt>
      <trkpt lat="44.22592" lon="5.39685">
        <ele>1019</ele>
        <time>2026-05-13T12:31:50.000Z</time>
      </trkpt>
      <trkpt lat="44.22593" lon="5.39686">
        <ele>1019</ele>
        <time>2026-05-13T12:31:51.000Z</time>
      </trkpt>
      <trkpt lat="44.22594" lon="5.39687">
        <ele>1019</ele>
        <time>2026-05-13T12:31:52.000Z</time>
      </trkpt>
      <trkpt lat="44.22594" lon="5.39688">
        <ele>1020</ele>
        <time>2026-05-13T12:31:53.000Z</time>
      </trkpt>
      <trkpt lat="44.22595" lon="5.39689">
        <ele>1020</ele>
        <time>2026-05-13T12:31:54.000Z</time>
      </trkpt>
      <trkpt lat="44.22597" lon="5.39689">
        <ele>1020</ele>
        <time>2026-05-13T12:31:55.000Z</time>
      </trkpt>
      <trkpt lat="44.22597" lon="5.39691">
        <ele>1020</ele>
        <time>2026-05-13T12:31:56.000Z</time>
      </trkpt>
      <trkpt lat="44.22598" lon="5.39691">
        <ele>1020</ele>
        <time>2026-05-13T12:31:57.000Z</time>
      </trkpt>
      <trkpt lat="44.22598" lon="5.39692">
        <ele>1020</ele>
        <time>2026-05-13T12:31:58.000Z</time>
      </trkpt>
      <trkpt lat="44.226" lon="5.39693">
        <ele>1020</ele>
        <time>2026-05-13T12:31:59.000Z</time>
      </trkpt>
      <trkpt lat="44.226" lon="5.39694">
        <ele>1020</ele>
        <time>2026-05-13T12:32:00.000Z</time>
      </trkpt>
      <trkpt lat="44.22601" lon="5.39695">
        <ele>1020</ele>
        <time>2026-05-13T12:32:01.000Z</time>
      </trkpt>
      <trkpt lat="44.22602" lon="5.39695">
        <ele>1020</ele>
        <time>2026-05-13T12:32:02.000Z</time>
      </trkpt>
      <trkpt lat="44.22602" lon="5.39696">
        <ele>1020</ele>
        <time>2026-05-13T12:32:03.000Z</time>
      </trkpt>
      <trkpt lat="44.22603" lon="5.39697">
        <ele>1020</ele>
        <time>2026-05-13T12:32:04.000Z</time>
      </trkpt>
      <trkpt lat="44.22604" lon="5.39698">
        <ele>1020</ele>
        <time>2026-05-13T12:32:05.000Z</time>
      </trkpt>
      <trkpt lat="44.22605" lon="5.39698">
        <ele>1021</ele>
        <time>2026-05-13T12:32:06.000Z</time>
      </trkpt>
      <trkpt lat="44.22605" lon="5.39699">
        <ele>1021</ele>
        <time>2026-05-13T12:32:07.000Z</time>
      </trkpt>
      <trkpt lat="44.22606" lon="5.397">
        <ele>1020</ele>
        <time>2026-05-13T12:32:08.000Z</time>
      </trkpt>
      <trkpt lat="44.22607" lon="5.39701">
        <ele>1021</ele>
        <time>2026-05-13T12:32:09.000Z</time>
      </trkpt>
      <trkpt lat="44.22608" lon="5.39702">
        <ele>1021</ele>
        <time>2026-05-13T12:32:10.000Z</time>
      </trkpt>
      <trkpt lat="44.22608" lon="5.39703">
        <ele>1021</ele>
        <time>2026-05-13T12:32:11.000Z</time>
      </trkpt>
      <trkpt lat="44.2261" lon="5.39704">
        <ele>1021</ele>
        <time>2026-05-13T12:32:12.000Z</time>
      </trkpt>
      <trkpt lat="44.2261" lon="5.39705">
        <ele>1021</ele>
        <time>2026-05-13T12:32:13.000Z</time>
      </trkpt>
      <trkpt lat="44.22611" lon="5.39706">
        <ele>1022</ele>
        <time>2026-05-13T12:32:14.000Z</time>
      </trkpt>
      <trkpt lat="44.22612" lon="5.39707">
        <ele>1022</ele>
        <time>2026-05-13T12:32:15.000Z</time>
      </trkpt>
      <trkpt lat="44.22612" lon="5.39708">
        <ele>1022</ele>
        <time>2026-05-13T12:32:16.000Z</time>
      </trkpt>
      <trkpt lat="44.22613" lon="5.39708">
        <ele>1023</ele>
        <time>2026-05-13T12:32:17.000Z</time>
      </trkpt>
      <trkpt lat="44.22614" lon="5.39709">
        <ele>1022</ele>
        <time>2026-05-13T12:32:18.000Z</time>
      </trkpt>
      <trkpt lat="44.22615" lon="5.3971">
        <ele>1022</ele>
        <time>2026-05-13T12:32:19.000Z</time>
      </trkpt>
      <trkpt lat="44.22616" lon="5.39711">
        <ele>1022</ele>
        <time>2026-05-13T12:32:20.000Z</time>
      </trkpt>
      <trkpt lat="44.22617" lon="5.39712">
        <ele>1022</ele>
        <time>2026-05-13T12:32:21.000Z</time>
      </trkpt>
      <trkpt lat="44.22618" lon="5.39712">
        <ele>1022</ele>
        <time>2026-05-13T12:32:22.000Z</time>
      </trkpt>
      <trkpt lat="44.22619" lon="5.39713">
        <ele>1022</ele>
        <time>2026-05-13T12:32:23.000Z</time>
      </trkpt>
      <trkpt lat="44.2262" lon="5.39713">
        <ele>1022</ele>
        <time>2026-05-13T12:32:24.000Z</time>
      </trkpt>
      <trkpt lat="44.22621" lon="5.39714">
        <ele>1023</ele>
        <time>2026-05-13T12:32:25.000Z</time>
      </trkpt>
      <trkpt lat="44.22622" lon="5.39715">
        <ele>1023</ele>
        <time>2026-05-13T12:32:26.000Z</time>
      </trkpt>
      <trkpt lat="44.22623" lon="5.39715">
        <ele>1022</ele>
        <time>2026-05-13T12:32:27.000Z</time>
      </trkpt>
      <trkpt lat="44.22624" lon="5.39715">
        <ele>1022</ele>
        <time>2026-05-13T12:32:28.000Z</time>
      </trkpt>
      <trkpt lat="44.22626" lon="5.39716">
        <ele>1022</ele>
        <time>2026-05-13T12:32:29.000Z</time>
      </trkpt>
      <trkpt lat="44.22627" lon="5.39716">
        <ele>1023</ele>
        <time>2026-05-13T12:32:30.000Z</time>
      </trkpt>
      <trkpt lat="44.22628" lon="5.39717">
        <ele>1023</ele>
        <time>2026-05-13T12:32:31.000Z</time>
      </trkpt>
      <trkpt lat="44.2263" lon="5.39717">
        <ele>1023</ele>
        <time>2026-05-13T12:32:32.000Z</time>
      </trkpt>
      <trkpt lat="44.22631" lon="5.39717">
        <ele>1023</ele>
        <time>2026-05-13T12:32:33.000Z</time>
      </trkpt>
      <trkpt lat="44.22633" lon="5.39717">
        <ele>1023</ele>
        <time>2026-05-13T12:32:34.000Z</time>
      </trkpt>
      <trkpt lat="44.22634" lon="5.39717">
        <ele>1023</ele>
        <time>2026-05-13T12:32:35.000Z</time>
      </trkpt>
      <trkpt lat="44.22635" lon="5.39717">
        <ele>1024</ele>
        <time>2026-05-13T12:32:36.000Z</time>
      </trkpt>
      <trkpt lat="44.22636" lon="5.39716">
        <ele>1024</ele>
        <time>2026-05-13T12:32:37.000Z</time>
      </trkpt>
      <trkpt lat="44.22637" lon="5.39716">
        <ele>1024</ele>
        <time>2026-05-13T12:32:38.000Z</time>
      </trkpt>
      <trkpt lat="44.22638" lon="5.39716">
        <ele>1025</ele>
        <time>2026-05-13T12:32:39.000Z</time>
      </trkpt>
      <trkpt lat="44.22638" lon="5.39716">
        <ele>1024</ele>
        <time>2026-05-13T12:32:40.000Z</time>
      </trkpt>
      <trkpt lat="44.22639" lon="5.39716">
        <ele>1025</ele>
        <time>2026-05-13T12:32:41.000Z</time>
      </trkpt>
      <trkpt lat="44.2264" lon="5.39717">
        <ele>1024</ele>
        <time>2026-05-13T12:32:42.000Z</time>
      </trkpt>
      <trkpt lat="44.2264" lon="5.39717">
        <ele>1024</ele>
        <time>2026-05-13T12:32:43.000Z</time>
      </trkpt>
      <trkpt lat="44.22641" lon="5.39719">
        <ele>1023</ele>
        <time>2026-05-13T12:32:44.000Z</time>
      </trkpt>
      <trkpt lat="44.22641" lon="5.3972">
        <ele>1024</ele>
        <time>2026-05-13T12:32:45.000Z</time>
      </trkpt>
      <trkpt lat="44.22641" lon="5.39721">
        <ele>1024</ele>
        <time>2026-05-13T12:32:46.000Z</time>
      </trkpt>
      <trkpt lat="44.22642" lon="5.39722">
        <ele>1024</ele>
        <time>2026-05-13T12:32:47.000Z</time>
      </trkpt>
      <trkpt lat="44.22642" lon="5.39723">
        <ele>1024</ele>
        <time>2026-05-13T12:32:48.000Z</time>
      </trkpt>
      <trkpt lat="44.22643" lon="5.39723">
        <ele>1024</ele>
        <time>2026-05-13T12:32:49.000Z</time>
      </trkpt>
      <trkpt lat="44.22643" lon="5.39725">
        <ele>1024</ele>
        <time>2026-05-13T12:32:50.000Z</time>
      </trkpt>
      <trkpt lat="44.22644" lon="5.39725">
        <ele>1024</ele>
        <time>2026-05-13T12:32:51.000Z</time>
      </trkpt>
      <trkpt lat="44.22645" lon="5.39726">
        <ele>1024</ele>
        <time>2026-05-13T12:32:52.000Z</time>
      </trkpt>
      <trkpt lat="44.22647" lon="5.39727">
        <ele>1024</ele>
        <time>2026-05-13T12:32:53.000Z</time>
      </trkpt>
      <trkpt lat="44.22648" lon="5.39726">
        <ele>1024</ele>
        <time>2026-05-13T12:32:54.000Z</time>
      </trkpt>
      <trkpt lat="44.22649" lon="5.39728">
        <ele>1023</ele>
        <time>2026-05-13T12:32:55.000Z</time>
      </trkpt>
      <trkpt lat="44.2265" lon="5.39728">
        <ele>1024</ele>
        <time>2026-05-13T12:32:56.000Z</time>
      </trkpt>
      <trkpt lat="44.22651" lon="5.39729">
        <ele>1024</ele>
        <time>2026-05-13T12:32:57.000Z</time>
      </trkpt>
      <trkpt lat="44.22653" lon="5.39729">
        <ele>1024</ele>
        <time>2026-05-13T12:32:58.000Z</time>
      </trkpt>
      <trkpt lat="44.22653" lon="5.3973">
        <ele>1024</ele>
        <time>2026-05-13T12:32:59.000Z</time>
      </trkpt>
      <trkpt lat="44.22655" lon="5.39731">
        <ele>1024</ele>
        <time>2026-05-13T12:33:00.000Z</time>
      </trkpt>
      <trkpt lat="44.22656" lon="5.39732">
        <ele>1025</ele>
        <time>2026-05-13T12:33:01.000Z</time>
      </trkpt>
      <trkpt lat="44.22656" lon="5.39733">
        <ele>1025</ele>
        <time>2026-05-13T12:33:02.000Z</time>
      </trkpt>
      <trkpt lat="44.22656" lon="5.39734">
        <ele>1025</ele>
        <time>2026-05-13T12:33:03.000Z</time>
      </trkpt>
      <trkpt lat="44.22658" lon="5.39735">
        <ele>1024</ele>
        <time>2026-05-13T12:33:04.000Z</time>
      </trkpt>
      <trkpt lat="44.22659" lon="5.39735">
        <ele>1024</ele>
        <time>2026-05-13T12:33:05.000Z</time>
      </trkpt>
      <trkpt lat="44.2266" lon="5.39735">
        <ele>1024</ele>
        <time>2026-05-13T12:33:06.000Z</time>
      </trkpt>
      <trkpt lat="44.22661" lon="5.39737">
        <ele>1024</ele>
        <time>2026-05-13T12:33:07.000Z</time>
      </trkpt>
      <trkpt lat="44.22661" lon="5.39737">
        <ele>1024</ele>
        <time>2026-05-13T12:33:08.000Z</time>
      </trkpt>
      <trkpt lat="44.22662" lon="5.39739">
        <ele>1024</ele>
        <time>2026-05-13T12:33:09.000Z</time>
      </trkpt>
      <trkpt lat="44.22663" lon="5.39739">
        <ele>1025</ele>
        <time>2026-05-13T12:33:10.000Z</time>
      </trkpt>
      <trkpt lat="44.22664" lon="5.3974">
        <ele>1025</ele>
        <time>2026-05-13T12:33:11.000Z</time>
      </trkpt>
      <trkpt lat="44.22664" lon="5.39741">
        <ele>1025</ele>
        <time>2026-05-13T12:33:12.000Z</time>
      </trkpt>
      <trkpt lat="44.22665" lon="5.39742">
        <ele>1026</ele>
        <time>2026-05-13T12:33:13.000Z</time>
      </trkpt>
      <trkpt lat="44.22666" lon="5.39742">
        <ele>1026</ele>
        <time>2026-05-13T12:33:14.000Z</time>
      </trkpt>
      <trkpt lat="44.22667" lon="5.39744">
        <ele>1027</ele>
        <time>2026-05-13T12:33:15.000Z</time>
      </trkpt>
      <trkpt lat="44.22668" lon="5.39745">
        <ele>1027</ele>
        <time>2026-05-13T12:33:16.000Z</time>
      </trkpt>
      <trkpt lat="44.22669" lon="5.39747">
        <ele>1027</ele>
        <time>2026-05-13T12:33:17.000Z</time>
      </trkpt>
      <trkpt lat="44.2267" lon="5.39748">
        <ele>1027</ele>
        <time>2026-05-13T12:33:18.000Z</time>
      </trkpt>
      <trkpt lat="44.22671" lon="5.39749">
        <ele>1027</ele>
        <time>2026-05-13T12:33:19.000Z</time>
      </trkpt>
      <trkpt lat="44.22672" lon="5.3975">
        <ele>1027</ele>
        <time>2026-05-13T12:33:20.000Z</time>
      </trkpt>
      <trkpt lat="44.22673" lon="5.39751">
        <ele>1028</ele>
        <time>2026-05-13T12:33:21.000Z</time>
      </trkpt>
      <trkpt lat="44.22673" lon="5.39752">
        <ele>1028</ele>
        <time>2026-05-13T12:33:22.000Z</time>
      </trkpt>
      <trkpt lat="44.22674" lon="5.39754">
        <ele>1029</ele>
        <time>2026-05-13T12:33:23.000Z</time>
      </trkpt>
      <trkpt lat="44.22675" lon="5.39754">
        <ele>1030</ele>
        <time>2026-05-13T12:33:24.000Z</time>
      </trkpt>
      <trkpt lat="44.22676" lon="5.39755">
        <ele>1030</ele>
        <time>2026-05-13T12:33:25.000Z</time>
      </trkpt>
      <trkpt lat="44.22676" lon="5.39757">
        <ele>1030</ele>
        <time>2026-05-13T12:33:26.000Z</time>
      </trkpt>
      <trkpt lat="44.22677" lon="5.39758">
        <ele>1030</ele>
        <time>2026-05-13T12:33:27.000Z</time>
      </trkpt>
      <trkpt lat="44.22677" lon="5.39759">
        <ele>1029</ele>
        <time>2026-05-13T12:33:28.000Z</time>
      </trkpt>
      <trkpt lat="44.22678" lon="5.3976">
        <ele>1030</ele>
        <time>2026-05-13T12:33:29.000Z</time>
      </trkpt>
      <trkpt lat="44.22679" lon="5.39762">
        <ele>1030</ele>
        <time>2026-05-13T12:33:30.000Z</time>
      </trkpt>
      <trkpt lat="44.2268" lon="5.39763">
        <ele>1030</ele>
        <time>2026-05-13T12:33:31.000Z</time>
      </trkpt>
      <trkpt lat="44.22681" lon="5.39764">
        <ele>1030</ele>
        <time>2026-05-13T12:33:32.000Z</time>
      </trkpt>
      <trkpt lat="44.22682" lon="5.39764">
        <ele>1030</ele>
        <time>2026-05-13T12:33:33.000Z</time>
      </trkpt>
      <trkpt lat="44.22683" lon="5.39765">
        <ele>1030</ele>
        <time>2026-05-13T12:33:34.000Z</time>
      </trkpt>
      <trkpt lat="44.22684" lon="5.39766">
        <ele>1031</ele>
        <time>2026-05-13T12:33:35.000Z</time>
      </trkpt>
      <trkpt lat="44.22685" lon="5.39767">
        <ele>1031</ele>
        <time>2026-05-13T12:33:36.000Z</time>
      </trkpt>
      <trkpt lat="44.22686" lon="5.39768">
        <ele>1031</ele>
        <time>2026-05-13T12:33:37.000Z</time>
      </trkpt>
      <trkpt lat="44.22687" lon="5.39769">
        <ele>1031</ele>
        <time>2026-05-13T12:33:38.000Z</time>
      </trkpt>
      <trkpt lat="44.22688" lon="5.39769">
        <ele>1031</ele>
        <time>2026-05-13T12:33:39.000Z</time>
      </trkpt>
      <trkpt lat="44.2269" lon="5.3977">
        <ele>1031</ele>
        <time>2026-05-13T12:33:40.000Z</time>
      </trkpt>
      <trkpt lat="44.2269" lon="5.3977">
        <ele>1030</ele>
        <time>2026-05-13T12:33:41.000Z</time>
      </trkpt>
      <trkpt lat="44.22692" lon="5.39772">
        <ele>1031</ele>
        <time>2026-05-13T12:33:42.000Z</time>
      </trkpt>
      <trkpt lat="44.22693" lon="5.39773">
        <ele>1032</ele>
        <time>2026-05-13T12:33:43.000Z</time>
      </trkpt>
      <trkpt lat="44.22694" lon="5.39773">
        <ele>1031</ele>
        <time>2026-05-13T12:33:44.000Z</time>
      </trkpt>
      <trkpt lat="44.22695" lon="5.39774">
        <ele>1031</ele>
        <time>2026-05-13T12:33:45.000Z</time>
      </trkpt>
      <trkpt lat="44.22696" lon="5.39775">
        <ele>1032</ele>
        <time>2026-05-13T12:33:46.000Z</time>
      </trkpt>
      <trkpt lat="44.22697" lon="5.39776">
        <ele>1032</ele>
        <time>2026-05-13T12:33:47.000Z</time>
      </trkpt>
      <trkpt lat="44.22697" lon="5.39777">
        <ele>1033</ele>
        <time>2026-05-13T12:33:48.000Z</time>
      </trkpt>
      <trkpt lat="44.22698" lon="5.39778">
        <ele>1033</ele>
        <time>2026-05-13T12:33:49.000Z</time>
      </trkpt>
      <trkpt lat="44.22699" lon="5.39778">
        <ele>1033</ele>
        <time>2026-05-13T12:33:50.000Z</time>
      </trkpt>
      <trkpt lat="44.227" lon="5.39779">
        <ele>1033</ele>
        <time>2026-05-13T12:33:51.000Z</time>
      </trkpt>
      <trkpt lat="44.227" lon="5.3978">
        <ele>1033</ele>
        <time>2026-05-13T12:33:52.000Z</time>
      </trkpt>
      <trkpt lat="44.22701" lon="5.39781">
        <ele>1033</ele>
        <time>2026-05-13T12:33:53.000Z</time>
      </trkpt>
      <trkpt lat="44.22701" lon="5.39783">
        <ele>1033</ele>
        <time>2026-05-13T12:33:54.000Z</time>
      </trkpt>
      <trkpt lat="44.22702" lon="5.39784">
        <ele>1033</ele>
        <time>2026-05-13T12:33:55.000Z</time>
      </trkpt>
      <trkpt lat="44.22702" lon="5.39784">
        <ele>1033</ele>
        <time>2026-05-13T12:33:56.000Z</time>
      </trkpt>
      <trkpt lat="44.22703" lon="5.39786">
        <ele>1033</ele>
        <time>2026-05-13T12:33:57.000Z</time>
      </trkpt>
      <trkpt lat="44.22703" lon="5.39787">
        <ele>1034</ele>
        <time>2026-05-13T12:33:58.000Z</time>
      </trkpt>
      <trkpt lat="44.22704" lon="5.39788">
        <ele>1034</ele>
        <time>2026-05-13T12:33:59.000Z</time>
      </trkpt>
      <trkpt lat="44.22705" lon="5.39789">
        <ele>1034</ele>
        <time>2026-05-13T12:34:00.000Z</time>
      </trkpt>
      <trkpt lat="44.22705" lon="5.39791">
        <ele>1034</ele>
        <time>2026-05-13T12:34:01.000Z</time>
      </trkpt>
      <trkpt lat="44.22706" lon="5.39792">
        <ele>1034</ele>
        <time>2026-05-13T12:34:02.000Z</time>
      </trkpt>
      <trkpt lat="44.22707" lon="5.39793">
        <ele>1035</ele>
        <time>2026-05-13T12:34:03.000Z</time>
      </trkpt>
      <trkpt lat="44.22708" lon="5.39793">
        <ele>1035</ele>
        <time>2026-05-13T12:34:04.000Z</time>
      </trkpt>
      <trkpt lat="44.22709" lon="5.39794">
        <ele>1035</ele>
        <time>2026-05-13T12:34:05.000Z</time>
      </trkpt>
      <trkpt lat="44.22709" lon="5.39795">
        <ele>1035</ele>
        <time>2026-05-13T12:34:06.000Z</time>
      </trkpt>
      <trkpt lat="44.2271" lon="5.39797">
        <ele>1035</ele>
        <time>2026-05-13T12:34:07.000Z</time>
      </trkpt>
      <trkpt lat="44.22711" lon="5.39798">
        <ele>1035</ele>
        <time>2026-05-13T12:34:08.000Z</time>
      </trkpt>
      <trkpt lat="44.22711" lon="5.39799">
        <ele>1035</ele>
        <time>2026-05-13T12:34:09.000Z</time>
      </trkpt>
      <trkpt lat="44.22712" lon="5.398">
        <ele>1036</ele>
        <time>2026-05-13T12:34:10.000Z</time>
      </trkpt>
      <trkpt lat="44.22713" lon="5.39801">
        <ele>1035</ele>
        <time>2026-05-13T12:34:11.000Z</time>
      </trkpt>
      <trkpt lat="44.22713" lon="5.39802">
        <ele>1036</ele>
        <time>2026-05-13T12:34:12.000Z</time>
      </trkpt>
      <trkpt lat="44.22714" lon="5.39804">
        <ele>1036</ele>
        <time>2026-05-13T12:34:13.000Z</time>
      </trkpt>
      <trkpt lat="44.22714" lon="5.39805">
        <ele>1036</ele>
        <time>2026-05-13T12:34:14.000Z</time>
      </trkpt>
      <trkpt lat="44.22715" lon="5.39806">
        <ele>1036</ele>
        <time>2026-05-13T12:34:15.000Z</time>
      </trkpt>
      <trkpt lat="44.22715" lon="5.39808">
        <ele>1037</ele>
        <time>2026-05-13T12:34:16.000Z</time>
      </trkpt>
      <trkpt lat="44.22716" lon="5.39809">
        <ele>1037</ele>
        <time>2026-05-13T12:34:17.000Z</time>
      </trkpt>
      <trkpt lat="44.22717" lon="5.3981">
        <ele>1037</ele>
        <time>2026-05-13T12:34:18.000Z</time>
      </trkpt>
      <trkpt lat="44.22718" lon="5.39811">
        <ele>1037</ele>
        <time>2026-05-13T12:34:19.000Z</time>
      </trkpt>
      <trkpt lat="44.22719" lon="5.39812">
        <ele>1038</ele>
        <time>2026-05-13T12:34:20.000Z</time>
      </trkpt>
      <trkpt lat="44.2272" lon="5.39813">
        <ele>1038</ele>
        <time>2026-05-13T12:34:21.000Z</time>
      </trkpt>
      <trkpt lat="44.2272" lon="5.39814">
        <ele>1039</ele>
        <time>2026-05-13T12:34:22.000Z</time>
      </trkpt>
      <trkpt lat="44.22721" lon="5.39816">
        <ele>1039</ele>
        <time>2026-05-13T12:34:23.000Z</time>
      </trkpt>
      <trkpt lat="44.22721" lon="5.39817">
        <ele>1039</ele>
        <time>2026-05-13T12:34:24.000Z</time>
      </trkpt>
      <trkpt lat="44.22722" lon="5.39819">
        <ele>1039</ele>
        <time>2026-05-13T12:34:25.000Z</time>
      </trkpt>
      <trkpt lat="44.22723" lon="5.39821">
        <ele>1039</ele>
        <time>2026-05-13T12:34:26.000Z</time>
      </trkpt>
      <trkpt lat="44.22723" lon="5.39822">
        <ele>1040</ele>
        <time>2026-05-13T12:34:27.000Z</time>
      </trkpt>
      <trkpt lat="44.22724" lon="5.39823">
        <ele>1040</ele>
        <time>2026-05-13T12:34:28.000Z</time>
      </trkpt>
      <trkpt lat="44.22725" lon="5.39824">
        <ele>1040</ele>
        <time>2026-05-13T12:34:29.000Z</time>
      </trkpt>
      <trkpt lat="44.22726" lon="5.39825">
        <ele>1040</ele>
        <time>2026-05-13T12:34:30.000Z</time>
      </trkpt>
      <trkpt lat="44.22727" lon="5.39825">
        <ele>1040</ele>
        <time>2026-05-13T12:34:31.000Z</time>
      </trkpt>
      <trkpt lat="44.22727" lon="5.39826">
        <ele>1040</ele>
        <time>2026-05-13T12:34:32.000Z</time>
      </trkpt>
      <trkpt lat="44.22728" lon="5.39827">
        <ele>1040</ele>
        <time>2026-05-13T12:34:33.000Z</time>
      </trkpt>
      <trkpt lat="44.22729" lon="5.39828">
        <ele>1040</ele>
        <time>2026-05-13T12:34:34.000Z</time>
      </trkpt>
      <trkpt lat="44.22729" lon="5.39829">
        <ele>1040</ele>
        <time>2026-05-13T12:34:35.000Z</time>
      </trkpt>
      <trkpt lat="44.2273" lon="5.3983">
        <ele>1041</ele>
        <time>2026-05-13T12:34:36.000Z</time>
      </trkpt>
      <trkpt lat="44.2273" lon="5.39831">
        <ele>1041</ele>
        <time>2026-05-13T12:34:37.000Z</time>
      </trkpt>
      <trkpt lat="44.2273" lon="5.39833">
        <ele>1042</ele>
        <time>2026-05-13T12:34:38.000Z</time>
      </trkpt>
      <trkpt lat="44.22731" lon="5.39834">
        <ele>1042</ele>
        <time>2026-05-13T12:34:39.000Z</time>
      </trkpt>
      <trkpt lat="44.22731" lon="5.39835">
        <ele>1042</ele>
        <time>2026-05-13T12:34:40.000Z</time>
      </trkpt>
      <trkpt lat="44.22732" lon="5.39836">
        <ele>1041</ele>
        <time>2026-05-13T12:34:41.000Z</time>
      </trkpt>
      <trkpt lat="44.22733" lon="5.39837">
        <ele>1041</ele>
        <time>2026-05-13T12:34:42.000Z</time>
      </trkpt>
      <trkpt lat="44.22734" lon="5.39838">
        <ele>1042</ele>
        <time>2026-05-13T12:34:43.000Z</time>
      </trkpt>
      <trkpt lat="44.22734" lon="5.39838">
        <ele>1042</ele>
        <time>2026-05-13T12:34:44.000Z</time>
      </trkpt>
      <trkpt lat="44.22735" lon="5.3984">
        <ele>1042</ele>
        <time>2026-05-13T12:34:45.000Z</time>
      </trkpt>
      <trkpt lat="44.22736" lon="5.39841">
        <ele>1043</ele>
        <time>2026-05-13T12:34:46.000Z</time>
      </trkpt>
      <trkpt lat="44.22736" lon="5.39843">
        <ele>1043</ele>
        <time>2026-05-13T12:34:47.000Z</time>
      </trkpt>
      <trkpt lat="44.22737" lon="5.39844">
        <ele>1043</ele>
        <time>2026-05-13T12:34:48.000Z</time>
      </trkpt>
      <trkpt lat="44.22737" lon="5.39844">
        <ele>1043</ele>
        <time>2026-05-13T12:34:49.000Z</time>
      </trkpt>
      <trkpt lat="44.22738" lon="5.39846">
        <ele>1043</ele>
        <time>2026-05-13T12:34:50.000Z</time>
      </trkpt>
      <trkpt lat="44.22739" lon="5.39847">
        <ele>1043</ele>
        <time>2026-05-13T12:34:51.000Z</time>
      </trkpt>
      <trkpt lat="44.2274" lon="5.39847">
        <ele>1043</ele>
        <time>2026-05-13T12:34:52.000Z</time>
      </trkpt>
      <trkpt lat="44.22741" lon="5.39847">
        <ele>1043</ele>
        <time>2026-05-13T12:34:53.000Z</time>
      </trkpt>
      <trkpt lat="44.22742" lon="5.39848">
        <ele>1043</ele>
        <time>2026-05-13T12:34:54.000Z</time>
      </trkpt>
      <trkpt lat="44.22743" lon="5.39849">
        <ele>1043</ele>
        <time>2026-05-13T12:34:55.000Z</time>
      </trkpt>
      <trkpt lat="44.22744" lon="5.3985">
        <ele>1043</ele>
        <time>2026-05-13T12:34:56.000Z</time>
      </trkpt>
      <trkpt lat="44.22745" lon="5.39851">
        <ele>1043</ele>
        <time>2026-05-13T12:34:57.000Z</time>
      </trkpt>
      <trkpt lat="44.22746" lon="5.39852">
        <ele>1043</ele>
        <time>2026-05-13T12:34:58.000Z</time>
      </trkpt>
      <trkpt lat="44.22747" lon="5.39853">
        <ele>1043</ele>
        <time>2026-05-13T12:34:59.000Z</time>
      </trkpt>
      <trkpt lat="44.22747" lon="5.39854">
        <ele>1044</ele>
        <time>2026-05-13T12:35:00.000Z</time>
      </trkpt>
      <trkpt lat="44.22748" lon="5.39856">
        <ele>1044</ele>
        <time>2026-05-13T12:35:01.000Z</time>
      </trkpt>
      <trkpt lat="44.22749" lon="5.39857">
        <ele>1044</ele>
        <time>2026-05-13T12:35:02.000Z</time>
      </trkpt>
      <trkpt lat="44.22749" lon="5.39858">
        <ele>1044</ele>
        <time>2026-05-13T12:35:03.000Z</time>
      </trkpt>
      <trkpt lat="44.2275" lon="5.39859">
        <ele>1044</ele>
        <time>2026-05-13T12:35:04.000Z</time>
      </trkpt>
      <trkpt lat="44.22751" lon="5.3986">
        <ele>1044</ele>
        <time>2026-05-13T12:35:05.000Z</time>
      </trkpt>
      <trkpt lat="44.22751" lon="5.39862">
        <ele>1045</ele>
        <time>2026-05-13T12:35:06.000Z</time>
      </trkpt>
      <trkpt lat="44.22751" lon="5.39864">
        <ele>1045</ele>
        <time>2026-05-13T12:35:07.000Z</time>
      </trkpt>
      <trkpt lat="44.22751" lon="5.39864">
        <ele>1044</ele>
        <time>2026-05-13T12:35:08.000Z</time>
      </trkpt>
      <trkpt lat="44.22751" lon="5.39866">
        <ele>1044</ele>
        <time>2026-05-13T12:35:09.000Z</time>
      </trkpt>
      <trkpt lat="44.22751" lon="5.39868">
        <ele>1044</ele>
        <time>2026-05-13T12:35:10.000Z</time>
      </trkpt>
      <trkpt lat="44.22751" lon="5.3987">
        <ele>1044</ele>
        <time>2026-05-13T12:35:11.000Z</time>
      </trkpt>
      <trkpt lat="44.22752" lon="5.39871">
        <ele>1044</ele>
        <time>2026-05-13T12:35:12.000Z</time>
      </trkpt>
      <trkpt lat="44.22752" lon="5.39873">
        <ele>1044</ele>
        <time>2026-05-13T12:35:13.000Z</time>
      </trkpt>
      <trkpt lat="44.22752" lon="5.39874">
        <ele>1045</ele>
        <time>2026-05-13T12:35:14.000Z</time>
      </trkpt>
      <trkpt lat="44.22753" lon="5.39876">
        <ele>1045</ele>
        <time>2026-05-13T12:35:15.000Z</time>
      </trkpt>
      <trkpt lat="44.22753" lon="5.39878">
        <ele>1045</ele>
        <time>2026-05-13T12:35:16.000Z</time>
      </trkpt>
      <trkpt lat="44.22753" lon="5.39879">
        <ele>1045</ele>
        <time>2026-05-13T12:35:17.000Z</time>
      </trkpt>
      <trkpt lat="44.22754" lon="5.3988">
        <ele>1046</ele>
        <time>2026-05-13T12:35:18.000Z</time>
      </trkpt>
      <trkpt lat="44.22754" lon="5.39881">
        <ele>1046</ele>
        <time>2026-05-13T12:35:19.000Z</time>
      </trkpt>
      <trkpt lat="44.22755" lon="5.39882">
        <ele>1046</ele>
        <time>2026-05-13T12:35:20.000Z</time>
      </trkpt>
      <trkpt lat="44.22755" lon="5.39883">
        <ele>1047</ele>
        <time>2026-05-13T12:35:21.000Z</time>
      </trkpt>
      <trkpt lat="44.22756" lon="5.39884">
        <ele>1047</ele>
        <time>2026-05-13T12:35:22.000Z</time>
      </trkpt>
      <trkpt lat="44.22756" lon="5.39886">
        <ele>1047</ele>
        <time>2026-05-13T12:35:23.000Z</time>
      </trkpt>
      <trkpt lat="44.22756" lon="5.39887">
        <ele>1047</ele>
        <time>2026-05-13T12:35:24.000Z</time>
      </trkpt>
      <trkpt lat="44.22756" lon="5.39888">
        <ele>1047</ele>
        <time>2026-05-13T12:35:25.000Z</time>
      </trkpt>
      <trkpt lat="44.22757" lon="5.3989">
        <ele>1046</ele>
        <time>2026-05-13T12:35:26.000Z</time>
      </trkpt>
      <trkpt lat="44.22758" lon="5.39891">
        <ele>1047</ele>
        <time>2026-05-13T12:35:27.000Z</time>
      </trkpt>
      <trkpt lat="44.22759" lon="5.39893">
        <ele>1047</ele>
        <time>2026-05-13T12:35:28.000Z</time>
      </trkpt>
      <trkpt lat="44.2276" lon="5.39894">
        <ele>1047</ele>
        <time>2026-05-13T12:35:29.000Z</time>
      </trkpt>
      <trkpt lat="44.2276" lon="5.39895">
        <ele>1047</ele>
        <time>2026-05-13T12:35:30.000Z</time>
      </trkpt>
      <trkpt lat="44.22761" lon="5.39896">
        <ele>1047</ele>
        <time>2026-05-13T12:35:31.000Z</time>
      </trkpt>
      <trkpt lat="44.22761" lon="5.39898">
        <ele>1047</ele>
        <time>2026-05-13T12:35:32.000Z</time>
      </trkpt>
      <trkpt lat="44.22761" lon="5.39899">
        <ele>1048</ele>
        <time>2026-05-13T12:35:33.000Z</time>
      </trkpt>
      <trkpt lat="44.22762" lon="5.399">
        <ele>1048</ele>
        <time>2026-05-13T12:35:34.000Z</time>
      </trkpt>
      <trkpt lat="44.22762" lon="5.39901">
        <ele>1048</ele>
        <time>2026-05-13T12:35:35.000Z</time>
      </trkpt>
      <trkpt lat="44.22763" lon="5.39901">
        <ele>1047</ele>
        <time>2026-05-13T12:35:36.000Z</time>
      </trkpt>
      <trkpt lat="44.22763" lon="5.39902">
        <ele>1047</ele>
        <time>2026-05-13T12:35:37.000Z</time>
      </trkpt>
      <trkpt lat="44.22764" lon="5.39903">
        <ele>1047</ele>
        <time>2026-05-13T12:35:38.000Z</time>
      </trkpt>
      <trkpt lat="44.22764" lon="5.39904">
        <ele>1047</ele>
        <time>2026-05-13T12:35:39.000Z</time>
      </trkpt>
      <trkpt lat="44.22766" lon="5.39905">
        <ele>1047</ele>
        <time>2026-05-13T12:35:40.000Z</time>
      </trkpt>
      <trkpt lat="44.22767" lon="5.39905">
        <ele>1047</ele>
        <time>2026-05-13T12:35:41.000Z</time>
      </trkpt>
      <trkpt lat="44.22768" lon="5.39906">
        <ele>1048</ele>
        <time>2026-05-13T12:35:42.000Z</time>
      </trkpt>
      <trkpt lat="44.22769" lon="5.39906">
        <ele>1048</ele>
        <time>2026-05-13T12:35:43.000Z</time>
      </trkpt>
      <trkpt lat="44.2277" lon="5.39907">
        <ele>1048</ele>
        <time>2026-05-13T12:35:44.000Z</time>
      </trkpt>
      <trkpt lat="44.22771" lon="5.39908">
        <ele>1048</ele>
        <time>2026-05-13T12:35:45.000Z</time>
      </trkpt>
      <trkpt lat="44.22772" lon="5.39907">
        <ele>1048</ele>
        <time>2026-05-13T12:35:46.000Z</time>
      </trkpt>
      <trkpt lat="44.22772" lon="5.39907">
        <ele>1048</ele>
        <time>2026-05-13T12:35:47.000Z</time>
      </trkpt>
      <trkpt lat="44.22772" lon="5.39907">
        <ele>1048</ele>
        <time>2026-05-13T12:35:48.000Z</time>
      </trkpt>
      <trkpt lat="44.22772" lon="5.39907">
        <ele>1048</ele>
        <time>2026-05-13T12:35:49.000Z</time>
      </trkpt>
      <trkpt lat="44.22772" lon="5.39907">
        <ele>1048</ele>
        <time>2026-05-13T12:35:50.000Z</time>
      </trkpt>
      <trkpt lat="44.22772" lon="5.39907">
        <ele>1048</ele>
        <time>2026-05-13T12:35:51.000Z</time>
      </trkpt>
      <trkpt lat="44.22772" lon="5.39907">
        <ele>1048</ele>
        <time>2026-05-13T12:35:52.000Z</time>
      </trkpt>
      <trkpt lat="44.22772" lon="5.39907">
        <ele>1048</ele>
        <time>2026-05-13T12:35:53.000Z</time>
      </trkpt>
      <trkpt lat="44.22772" lon="5.39907">
        <ele>1048</ele>
        <time>2026-05-13T12:35:54.000Z</time>
      </trkpt>
      <trkpt lat="44.22772" lon="5.39907">
        <ele>1048</ele>
        <time>2026-05-13T12:35:55.000Z</time>
      </trkpt>
      <trkpt lat="44.22772" lon="5.39907">
        <ele>1048</ele>
        <time>2026-05-13T12:35:56.000Z</time>
      </trkpt>
      <trkpt lat="44.22772" lon="5.39907">
        <ele>1048</ele>
        <time>2026-05-13T12:35:57.000Z</time>
      </trkpt>
      <trkpt lat="44.22772" lon="5.39907">
        <ele>1048</ele>
        <time>2026-05-13T12:35:58.000Z</time>
      </trkpt>
      <trkpt lat="44.22772" lon="5.39907">
        <ele>1048</ele>
        <time>2026-05-13T12:35:59.000Z</time>
      </trkpt>
      <trkpt lat="44.22772" lon="5.39907">
        <ele>1048</ele>
        <time>2026-05-13T12:36:00.000Z</time>
      </trkpt>
      <trkpt lat="44.22772" lon="5.39907">
        <ele>1048</ele>
        <time>2026-05-13T12:36:01.000Z</time>
      </trkpt>
      <trkpt lat="44.22772" lon="5.39907">
        <ele>1047</ele>
        <time>2026-05-13T12:36:02.000Z</time>
      </trkpt>
      <trkpt lat="44.22772" lon="5.39909">
        <ele>1047</ele>
        <time>2026-05-13T12:36:03.000Z</time>
      </trkpt>
      <trkpt lat="44.22772" lon="5.39909">
        <ele>1048</ele>
        <time>2026-05-13T12:36:04.000Z</time>
      </trkpt>
      <trkpt lat="44.22772" lon="5.39909">
        <ele>1047</ele>
        <time>2026-05-13T12:36:05.000Z</time>
      </trkpt>
      <trkpt lat="44.22772" lon="5.3991">
        <ele>1048</ele>
        <time>2026-05-13T12:36:06.000Z</time>
      </trkpt>
      <trkpt lat="44.22771" lon="5.3991">
        <ele>1047</ele>
        <time>2026-05-13T12:36:07.000Z</time>
      </trkpt>
      <trkpt lat="44.22771" lon="5.39909">
        <ele>1047</ele>
        <time>2026-05-13T12:36:08.000Z</time>
      </trkpt>
      <trkpt lat="44.22772" lon="5.39909">
        <ele>1047</ele>
        <time>2026-05-13T12:36:09.000Z</time>
      </trkpt>
      <trkpt lat="44.22772" lon="5.3991">
        <ele>1047</ele>
        <time>2026-05-13T12:36:10.000Z</time>
      </trkpt>
      <trkpt lat="44.22772" lon="5.39911">
        <ele>1047</ele>
        <time>2026-05-13T12:36:11.000Z</time>
      </trkpt>
      <trkpt lat="44.22773" lon="5.39912">
        <ele>1047</ele>
        <time>2026-05-13T12:36:12.000Z</time>
      </trkpt>
      <trkpt lat="44.22773" lon="5.39913">
        <ele>1047</ele>
        <time>2026-05-13T12:36:13.000Z</time>
      </trkpt>
      <trkpt lat="44.22774" lon="5.39915">
        <ele>1047</ele>
        <time>2026-05-13T12:36:14.000Z</time>
      </trkpt>
      <trkpt lat="44.22775" lon="5.39915">
        <ele>1046</ele>
        <time>2026-05-13T12:36:15.000Z</time>
      </trkpt>
      <trkpt lat="44.22776" lon="5.39916">
        <ele>1047</ele>
        <time>2026-05-13T12:36:16.000Z</time>
      </trkpt>
      <trkpt lat="44.22776" lon="5.39916">
        <ele>1046</ele>
        <time>2026-05-13T12:36:17.000Z</time>
      </trkpt>
      <trkpt lat="44.22776" lon="5.39917">
        <ele>1046</ele>
        <time>2026-05-13T12:36:18.000Z</time>
      </trkpt>
      <trkpt lat="44.22777" lon="5.39918">
        <ele>1046</ele>
        <time>2026-05-13T12:36:19.000Z</time>
      </trkpt>
      <trkpt lat="44.22777" lon="5.39919">
        <ele>1046</ele>
        <time>2026-05-13T12:36:20.000Z</time>
      </trkpt>
      <trkpt lat="44.22777" lon="5.3992">
        <ele>1046</ele>
        <time>2026-05-13T12:36:21.000Z</time>
      </trkpt>
      <trkpt lat="44.22777" lon="5.39921">
        <ele>1046</ele>
        <time>2026-05-13T12:36:22.000Z</time>
      </trkpt>
      <trkpt lat="44.22778" lon="5.3992">
        <ele>1045</ele>
        <time>2026-05-13T12:36:23.000Z</time>
      </trkpt>
      <trkpt lat="44.22778" lon="5.39921">
        <ele>1046</ele>
        <time>2026-05-13T12:36:24.000Z</time>
      </trkpt>
      <trkpt lat="44.22779" lon="5.3992">
        <ele>1046</ele>
        <time>2026-05-13T12:36:25.000Z</time>
      </trkpt>
      <trkpt lat="44.22779" lon="5.3992">
        <ele>1046</ele>
        <time>2026-05-13T12:36:26.000Z</time>
      </trkpt>
      <trkpt lat="44.2278" lon="5.39921">
        <ele>1046</ele>
        <time>2026-05-13T12:36:27.000Z</time>
      </trkpt>
      <trkpt lat="44.2278" lon="5.39921">
        <ele>1045</ele>
        <time>2026-05-13T12:36:28.000Z</time>
      </trkpt>
      <trkpt lat="44.22781" lon="5.39922">
        <ele>1045</ele>
        <time>2026-05-13T12:36:29.000Z</time>
      </trkpt>
      <trkpt lat="44.22781" lon="5.39923">
        <ele>1045</ele>
        <time>2026-05-13T12:36:30.000Z</time>
      </trkpt>
      <trkpt lat="44.22782" lon="5.39923">
        <ele>1044</ele>
        <time>2026-05-13T12:36:31.000Z</time>
      </trkpt>
      <trkpt lat="44.22782" lon="5.39924">
        <ele>1043</ele>
        <time>2026-05-13T12:36:32.000Z</time>
      </trkpt>
      <trkpt lat="44.22783" lon="5.39926">
        <ele>1043</ele>
        <time>2026-05-13T12:36:33.000Z</time>
      </trkpt>
      <trkpt lat="44.22783" lon="5.39926">
        <ele>1043</ele>
        <time>2026-05-13T12:36:34.000Z</time>
      </trkpt>
      <trkpt lat="44.22784" lon="5.39926">
        <ele>1042</ele>
        <time>2026-05-13T12:36:35.000Z</time>
      </trkpt>
      <trkpt lat="44.22784" lon="5.39928">
        <ele>1042</ele>
        <time>2026-05-13T12:36:36.000Z</time>
      </trkpt>
      <trkpt lat="44.22784" lon="5.39928">
        <ele>1042</ele>
        <time>2026-05-13T12:36:37.000Z</time>
      </trkpt>
      <trkpt lat="44.22784" lon="5.39929">
        <ele>1042</ele>
        <time>2026-05-13T12:36:38.000Z</time>
      </trkpt>
      <trkpt lat="44.22784" lon="5.3993">
        <ele>1041</ele>
        <time>2026-05-13T12:36:39.000Z</time>
      </trkpt>
      <trkpt lat="44.22784" lon="5.3993">
        <ele>1041</ele>
        <time>2026-05-13T12:36:40.000Z</time>
      </trkpt>
      <trkpt lat="44.22784" lon="5.3993">
        <ele>1041</ele>
        <time>2026-05-13T12:36:41.000Z</time>
      </trkpt>
      <trkpt lat="44.22784" lon="5.3993">
        <ele>1041</ele>
        <time>2026-05-13T12:36:42.000Z</time>
      </trkpt>
      <trkpt lat="44.22784" lon="5.3993">
        <ele>1041</ele>
        <time>2026-05-13T12:36:43.000Z</time>
      </trkpt>
      <trkpt lat="44.22784" lon="5.3993">
        <ele>1041</ele>
        <time>2026-05-13T12:36:44.000Z</time>
      </trkpt>
      <trkpt lat="44.22784" lon="5.3993">
        <ele>1041</ele>
        <time>2026-05-13T12:36:45.000Z</time>
      </trkpt>
      <trkpt lat="44.22784" lon="5.3993">
        <ele>1041</ele>
        <time>2026-05-13T12:36:46.000Z</time>
      </trkpt>
      <trkpt lat="44.22784" lon="5.3993">
        <ele>1041</ele>
        <time>2026-05-13T12:36:47.000Z</time>
      </trkpt>
      <trkpt lat="44.22784" lon="5.3993">
        <ele>1041</ele>
        <time>2026-05-13T12:36:48.000Z</time>
      </trkpt>
      <trkpt lat="44.22784" lon="5.3993">
        <ele>1041</ele>
        <time>2026-05-13T12:36:49.000Z</time>
      </trkpt>
      <trkpt lat="44.22784" lon="5.3993">
        <ele>1041</ele>
        <time>2026-05-13T12:36:50.000Z</time>
      </trkpt>
      <trkpt lat="44.22784" lon="5.3993">
        <ele>1041</ele>
        <time>2026-05-13T12:36:51.000Z</time>
      </trkpt>
      <trkpt lat="44.22784" lon="5.3993">
        <ele>1041</ele>
        <time>2026-05-13T12:36:52.000Z</time>
      </trkpt>
      <trkpt lat="44.22784" lon="5.3993">
        <ele>1041</ele>
        <time>2026-05-13T12:36:53.000Z</time>
      </trkpt>
      <trkpt lat="44.22784" lon="5.3993">
        <ele>1041</ele>
        <time>2026-05-13T12:36:54.000Z</time>
      </trkpt>
      <trkpt lat="44.22784" lon="5.3993">
        <ele>1041</ele>
        <time>2026-05-13T12:36:55.000Z</time>
      </trkpt>
      <trkpt lat="44.22784" lon="5.3993">
        <ele>1041</ele>
        <time>2026-05-13T12:36:56.000Z</time>
      </trkpt>
      <trkpt lat="44.22784" lon="5.3993">
        <ele>1041</ele>
        <time>2026-05-13T12:36:57.000Z</time>
      </trkpt>
      <trkpt lat="44.22784" lon="5.3993">
        <ele>1041</ele>
        <time>2026-05-13T12:36:58.000Z</time>
      </trkpt>
      <trkpt lat="44.22784" lon="5.3993">
        <ele>1041</ele>
        <time>2026-05-13T12:36:59.000Z</time>
      </trkpt>
      <trkpt lat="44.22784" lon="5.3993">
        <ele>1041</ele>
        <time>2026-05-13T12:37:00.000Z</time>
      </trkpt>
      <trkpt lat="44.22784" lon="5.3993">
        <ele>1041</ele>
        <time>2026-05-13T12:37:01.000Z</time>
      </trkpt>
      <trkpt lat="44.22784" lon="5.3993">
        <ele>1041</ele>
        <time>2026-05-13T12:37:02.000Z</time>
      </trkpt>
      <trkpt lat="44.22784" lon="5.3993">
        <ele>1041</ele>
        <time>2026-05-13T12:37:03.000Z</time>
      </trkpt>
      <trkpt lat="44.22784" lon="5.3993">
        <ele>1041</ele>
        <time>2026-05-13T12:37:04.000Z</time>
      </trkpt>
      <trkpt lat="44.22784" lon="5.3993">
        <ele>1041</ele>
        <time>2026-05-13T12:37:05.000Z</time>
      </trkpt>
      <trkpt lat="44.22784" lon="5.3993">
        <ele>1041</ele>
        <time>2026-05-13T12:37:06.000Z</time>
      </trkpt>
      <trkpt lat="44.22784" lon="5.3993">
        <ele>1041</ele>
        <time>2026-05-13T12:37:07.000Z</time>
      </trkpt>
      <trkpt lat="44.22784" lon="5.3993">
        <ele>1041</ele>
        <time>2026-05-13T12:37:08.000Z</time>
      </trkpt>
      <trkpt lat="44.22784" lon="5.3993">
        <ele>1041</ele>
        <time>2026-05-13T12:37:09.000Z</time>
      </trkpt>
      <trkpt lat="44.22784" lon="5.3993">
        <ele>1041</ele>
        <time>2026-05-13T12:37:10.000Z</time>
      </trkpt>
      <trkpt lat="44.22784" lon="5.3993">
        <ele>1041</ele>
        <time>2026-05-13T12:37:11.000Z</time>
      </trkpt>
      <trkpt lat="44.22784" lon="5.3993">
        <ele>1041</ele>
        <time>2026-05-13T12:37:12.000Z</time>
      </trkpt>
      <trkpt lat="44.22784" lon="5.3993">
        <ele>1041</ele>
        <time>2026-05-13T12:37:13.000Z</time>
      </trkpt>
      <trkpt lat="44.22784" lon="5.39929">
        <ele>1041</ele>
        <time>2026-05-13T12:37:14.000Z</time>
      </trkpt>
      <trkpt lat="44.22784" lon="5.3993">
        <ele>1041</ele>
        <time>2026-05-13T12:37:15.000Z</time>
      </trkpt>
      <trkpt lat="44.22784" lon="5.39929">
        <ele>1041</ele>
        <time>2026-05-13T12:37:16.000Z</time>
      </trkpt>
      <trkpt lat="44.22784" lon="5.3993">
        <ele>1041</ele>
        <time>2026-05-13T12:37:17.000Z</time>
      </trkpt>
      <trkpt lat="44.22785" lon="5.3993">
        <ele>1041</ele>
        <time>2026-05-13T12:37:18.000Z</time>
      </trkpt>
      <trkpt lat="44.22785" lon="5.3993">
        <ele>1041</ele>
        <time>2026-05-13T12:37:19.000Z</time>
      </trkpt>
      <trkpt lat="44.22786" lon="5.39929">
        <ele>1041</ele>
        <time>2026-05-13T12:37:20.000Z</time>
      </trkpt>
      <trkpt lat="44.22786" lon="5.39929">
        <ele>1041</ele>
        <time>2026-05-13T12:37:21.000Z</time>
      </trkpt>
      <trkpt lat="44.22786" lon="5.39929">
        <ele>1041</ele>
        <time>2026-05-13T12:37:22.000Z</time>
      </trkpt>
      <trkpt lat="44.22787" lon="5.39928">
        <ele>1041</ele>
        <time>2026-05-13T12:37:23.000Z</time>
      </trkpt>
      <trkpt lat="44.22787" lon="5.39928">
        <ele>1041</ele>
        <time>2026-05-13T12:37:24.000Z</time>
      </trkpt>
      <trkpt lat="44.22787" lon="5.39928">
        <ele>1041</ele>
        <time>2026-05-13T12:37:25.000Z</time>
      </trkpt>
      <trkpt lat="44.22787" lon="5.39929">
        <ele>1041</ele>
        <time>2026-05-13T12:37:26.000Z</time>
      </trkpt>
      <trkpt lat="44.22786" lon="5.39929">
        <ele>1042</ele>
        <time>2026-05-13T12:37:27.000Z</time>
      </trkpt>
      <trkpt lat="44.22786" lon="5.39929">
        <ele>1041</ele>
        <time>2026-05-13T12:37:28.000Z</time>
      </trkpt>
      <trkpt lat="44.22785" lon="5.39928">
        <ele>1041</ele>
        <time>2026-05-13T12:37:29.000Z</time>
      </trkpt>
      <trkpt lat="44.22785" lon="5.39928">
        <ele>1041</ele>
        <time>2026-05-13T12:37:30.000Z</time>
      </trkpt>
      <trkpt lat="44.22785" lon="5.39928">
        <ele>1041</ele>
        <time>2026-05-13T12:37:31.000Z</time>
      </trkpt>
      <trkpt lat="44.22785" lon="5.39928">
        <ele>1041</ele>
        <time>2026-05-13T12:37:32.000Z</time>
      </trkpt>
      <trkpt lat="44.22785" lon="5.39928">
        <ele>1041</ele>
        <time>2026-05-13T12:37:33.000Z</time>
      </trkpt>
      <trkpt lat="44.22785" lon="5.39928">
        <ele>1041</ele>
        <time>2026-05-13T12:37:34.000Z</time>
      </trkpt>
      <trkpt lat="44.22785" lon="5.39928">
        <ele>1041</ele>
        <time>2026-05-13T12:37:35.000Z</time>
      </trkpt>
      <trkpt lat="44.22785" lon="5.39928">
        <ele>1041</ele>
        <time>2026-05-13T12:37:36.000Z</time>
      </trkpt>
      <trkpt lat="44.22785" lon="5.39928">
        <ele>1041</ele>
        <time>2026-05-13T12:37:37.000Z</time>
      </trkpt>
      <trkpt lat="44.22785" lon="5.39928">
        <ele>1041</ele>
        <time>2026-05-13T12:37:38.000Z</time>
      </trkpt>
      <trkpt lat="44.22785" lon="5.39928">
        <ele>1041</ele>
        <time>2026-05-13T12:37:39.000Z</time>
      </trkpt>
      <trkpt lat="44.22785" lon="5.39928">
        <ele>1041</ele>
        <time>2026-05-13T12:37:40.000Z</time>
      </trkpt>
      <trkpt lat="44.22785" lon="5.39928">
        <ele>1041</ele>
        <time>2026-05-13T12:37:41.000Z</time>
      </trkpt>
      <trkpt lat="44.22785" lon="5.39928">
        <ele>1041</ele>
        <time>2026-05-13T12:37:42.000Z</time>
      </trkpt>
      <trkpt lat="44.22785" lon="5.39928">
        <ele>1041</ele>
        <time>2026-05-13T12:37:43.000Z</time>
      </trkpt>
      <trkpt lat="44.22785" lon="5.39928">
        <ele>1041</ele>
        <time>2026-05-13T12:37:44.000Z</time>
      </trkpt>
      <trkpt lat="44.22785" lon="5.39928">
        <ele>1041</ele>
        <time>2026-05-13T12:37:45.000Z</time>
      </trkpt>
      <trkpt lat="44.22785" lon="5.39928">
        <ele>1041</ele>
        <time>2026-05-13T12:37:46.000Z</time>
      </trkpt>
      <trkpt lat="44.22785" lon="5.39928">
        <ele>1041</ele>
        <time>2026-05-13T12:37:47.000Z</time>
      </trkpt>
      <trkpt lat="44.22785" lon="5.39928">
        <ele>1041</ele>
        <time>2026-05-13T12:37:48.000Z</time>
      </trkpt>
      <trkpt lat="44.22785" lon="5.39928">
        <ele>1041</ele>
        <time>2026-05-13T12:37:49.000Z</time>
      </trkpt>
      <trkpt lat="44.22785" lon="5.39928">
        <ele>1041</ele>
        <time>2026-05-13T12:37:50.000Z</time>
      </trkpt>
      <trkpt lat="44.22785" lon="5.39928">
        <ele>1041</ele>
        <time>2026-05-13T12:37:51.000Z</time>
      </trkpt>
      <trkpt lat="44.22785" lon="5.39928">
        <ele>1041</ele>
        <time>2026-05-13T12:37:52.000Z</time>
      </trkpt>
      <trkpt lat="44.22785" lon="5.39928">
        <ele>1041</ele>
        <time>2026-05-13T12:37:53.000Z</time>
      </trkpt>
      <trkpt lat="44.22785" lon="5.39928">
        <ele>1041</ele>
        <time>2026-05-13T12:37:54.000Z</time>
      </trkpt>
      <trkpt lat="44.22785" lon="5.39928">
        <ele>1041</ele>
        <time>2026-05-13T12:37:55.000Z</time>
      </trkpt>
      <trkpt lat="44.22785" lon="5.39928">
        <ele>1041</ele>
        <time>2026-05-13T12:37:56.000Z</time>
      </trkpt>
      <trkpt lat="44.22785" lon="5.39928">
        <ele>1041</ele>
        <time>2026-05-13T12:37:57.000Z</time>
      </trkpt>
      <trkpt lat="44.22785" lon="5.39928">
        <ele>1041</ele>
        <time>2026-05-13T12:37:58.000Z</time>
      </trkpt>
      <trkpt lat="44.22785" lon="5.39928">
        <ele>1041</ele>
        <time>2026-05-13T12:37:59.000Z</time>
      </trkpt>
      <trkpt lat="44.22785" lon="5.39928">
        <ele>1041</ele>
        <time>2026-05-13T12:38:00.000Z</time>
      </trkpt>
      <trkpt lat="44.22785" lon="5.39928">
        <ele>1041</ele>
        <time>2026-05-13T12:38:01.000Z</time>
      </trkpt>
      <trkpt lat="44.22785" lon="5.39928">
        <ele>1041</ele>
        <time>2026-05-13T12:38:02.000Z</time>
      </trkpt>
      <trkpt lat="44.22785" lon="5.39928">
        <ele>1041</ele>
        <time>2026-05-13T12:38:03.000Z</time>
      </trkpt>
      <trkpt lat="44.22785" lon="5.39928">
        <ele>1041</ele>
        <time>2026-05-13T12:38:04.000Z</time>
      </trkpt>
      <trkpt lat="44.22785" lon="5.39928">
        <ele>1041</ele>
        <time>2026-05-13T12:38:05.000Z</time>
      </trkpt>
      <trkpt lat="44.22785" lon="5.39928">
        <ele>1041</ele>
        <time>2026-05-13T12:38:06.000Z</time>
      </trkpt>
      <trkpt lat="44.22785" lon="5.39928">
        <ele>1041</ele>
        <time>2026-05-13T12:38:07.000Z</time>
      </trkpt>
      <trkpt lat="44.22785" lon="5.39929">
        <ele>1041</ele>
        <time>2026-05-13T12:38:08.000Z</time>
      </trkpt>
      <trkpt lat="44.22786" lon="5.39929">
        <ele>1041</ele>
        <time>2026-05-13T12:38:09.000Z</time>
      </trkpt>
      <trkpt lat="44.22785" lon="5.39929">
        <ele>1040</ele>
        <time>2026-05-13T12:38:10.000Z</time>
      </trkpt>
      <trkpt lat="44.22785" lon="5.39928">
        <ele>1040</ele>
        <time>2026-05-13T12:38:11.000Z</time>
      </trkpt>
      <trkpt lat="44.22785" lon="5.39929">
        <ele>1040</ele>
        <time>2026-05-13T12:38:12.000Z</time>
      </trkpt>
      <trkpt lat="44.22785" lon="5.39929">
        <ele>1040</ele>
        <time>2026-05-13T12:38:13.000Z</time>
      </trkpt>
      <trkpt lat="44.22785" lon="5.39929">
        <ele>1040</ele>
        <time>2026-05-13T12:38:14.000Z</time>
      </trkpt>
      <trkpt lat="44.22785" lon="5.39929">
        <ele>1040</ele>
        <time>2026-05-13T12:38:15.000Z</time>
      </trkpt>
      <trkpt lat="44.22785" lon="5.39929">
        <ele>1040</ele>
        <time>2026-05-13T12:38:16.000Z</time>
      </trkpt>
      <trkpt lat="44.22785" lon="5.39929">
        <ele>1040</ele>
        <time>2026-05-13T12:38:17.000Z</time>
      </trkpt>
      <trkpt lat="44.22785" lon="5.39928">
        <ele>1040</ele>
        <time>2026-05-13T12:38:18.000Z</time>
      </trkpt>
      <trkpt lat="44.22786" lon="5.39929">
        <ele>1041</ele>
        <time>2026-05-13T12:38:19.000Z</time>
      </trkpt>
      <trkpt lat="44.22786" lon="5.39929">
        <ele>1041</ele>
        <time>2026-05-13T12:38:20.000Z</time>
      </trkpt>
      <trkpt lat="44.22786" lon="5.39929">
        <ele>1041</ele>
        <time>2026-05-13T12:38:21.000Z</time>
      </trkpt>
      <trkpt lat="44.22786" lon="5.39929">
        <ele>1041</ele>
        <time>2026-05-13T12:38:22.000Z</time>
      </trkpt>
      <trkpt lat="44.22786" lon="5.39929">
        <ele>1041</ele>
        <time>2026-05-13T12:38:23.000Z</time>
      </trkpt>
      <trkpt lat="44.22786" lon="5.39929">
        <ele>1041</ele>
        <time>2026-05-13T12:38:24.000Z</time>
      </trkpt>
      <trkpt lat="44.22786" lon="5.39929">
        <ele>1040</ele>
        <time>2026-05-13T12:38:25.000Z</time>
      </trkpt>
      <trkpt lat="44.22786" lon="5.39929">
        <ele>1040</ele>
        <time>2026-05-13T12:38:26.000Z</time>
      </trkpt>
      <trkpt lat="44.22786" lon="5.39929">
        <ele>1040</ele>
        <time>2026-05-13T12:38:27.000Z</time>
      </trkpt>
      <trkpt lat="44.22786" lon="5.39929">
        <ele>1040</ele>
        <time>2026-05-13T12:38:28.000Z</time>
      </trkpt>
      <trkpt lat="44.22786" lon="5.39929">
        <ele>1040</ele>
        <time>2026-05-13T12:38:29.000Z</time>
      </trkpt>
      <trkpt lat="44.22786" lon="5.39929">
        <ele>1040</ele>
        <time>2026-05-13T12:38:30.000Z</time>
      </trkpt>
      <trkpt lat="44.22786" lon="5.39929">
        <ele>1040</ele>
        <time>2026-05-13T12:38:31.000Z</time>
      </trkpt>
      <trkpt lat="44.22786" lon="5.39929">
        <ele>1040</ele>
        <time>2026-05-13T12:38:32.000Z</time>
      </trkpt>
      <trkpt lat="44.22786" lon="5.39929">
        <ele>1040</ele>
        <time>2026-05-13T12:38:33.000Z</time>
      </trkpt>
      <trkpt lat="44.22786" lon="5.39929">
        <ele>1040</ele>
        <time>2026-05-13T12:38:34.000Z</time>
      </trkpt>
      <trkpt lat="44.22786" lon="5.39929">
        <ele>1040</ele>
        <time>2026-05-13T12:38:35.000Z</time>
      </trkpt>
      <trkpt lat="44.22786" lon="5.39929">
        <ele>1040</ele>
        <time>2026-05-13T12:38:36.000Z</time>
      </trkpt>
      <trkpt lat="44.22786" lon="5.39929">
        <ele>1040</ele>
        <time>2026-05-13T12:38:37.000Z</time>
      </trkpt>
      <trkpt lat="44.22786" lon="5.39929">
        <ele>1040</ele>
        <time>2026-05-13T12:38:38.000Z</time>
      </trkpt>
      <trkpt lat="44.22786" lon="5.39929">
        <ele>1040</ele>
        <time>2026-05-13T12:38:39.000Z</time>
      </trkpt>
      <trkpt lat="44.22786" lon="5.39929">
        <ele>1040</ele>
        <time>2026-05-13T12:38:40.000Z</time>
      </trkpt>
      <trkpt lat="44.22786" lon="5.39929">
        <ele>1040</ele>
        <time>2026-05-13T12:38:41.000Z</time>
      </trkpt>
      <trkpt lat="44.22786" lon="5.39929">
        <ele>1040</ele>
        <time>2026-05-13T12:38:42.000Z</time>
      </trkpt>
      <trkpt lat="44.22786" lon="5.39929">
        <ele>1040</ele>
        <time>2026-05-13T12:38:43.000Z</time>
      </trkpt>
      <trkpt lat="44.22786" lon="5.39929">
        <ele>1040</ele>
        <time>2026-05-13T12:38:44.000Z</time>
      </trkpt>
      <trkpt lat="44.22786" lon="5.39929">
        <ele>1040</ele>
        <time>2026-05-13T12:38:45.000Z</time>
      </trkpt>
      <trkpt lat="44.22786" lon="5.39929">
        <ele>1040</ele>
        <time>2026-05-13T12:38:46.000Z</time>
      </trkpt>
      <trkpt lat="44.22786" lon="5.39929">
        <ele>1040</ele>
        <time>2026-05-13T12:38:47.000Z</time>
      </trkpt>
      <trkpt lat="44.22786" lon="5.39929">
        <ele>1040</ele>
        <time>2026-05-13T12:38:48.000Z</time>
      </trkpt>
      <trkpt lat="44.22786" lon="5.39929">
        <ele>1040</ele>
        <time>2026-05-13T12:38:49.000Z</time>
      </trkpt>
      <trkpt lat="44.22786" lon="5.39929">
        <ele>1040</ele>
        <time>2026-05-13T12:38:50.000Z</time>
      </trkpt>
      <trkpt lat="44.22786" lon="5.39929">
        <ele>1040</ele>
        <time>2026-05-13T12:38:51.000Z</time>
      </trkpt>
      <trkpt lat="44.22786" lon="5.39929">
        <ele>1040</ele>
        <time>2026-05-13T12:38:52.000Z</time>
      </trkpt>
      <trkpt lat="44.22786" lon="5.39929">
        <ele>1040</ele>
        <time>2026-05-13T12:38:53.000Z</time>
      </trkpt>
      <trkpt lat="44.22786" lon="5.39929">
        <ele>1040</ele>
        <time>2026-05-13T12:38:54.000Z</time>
      </trkpt>
      <trkpt lat="44.22786" lon="5.39929">
        <ele>1040</ele>
        <time>2026-05-13T12:38:55.000Z</time>
      </trkpt>
      <trkpt lat="44.22786" lon="5.39929">
        <ele>1040</ele>
        <time>2026-05-13T12:38:56.000Z</time>
      </trkpt>
      <trkpt lat="44.22786" lon="5.39929">
        <ele>1040</ele>
        <time>2026-05-13T12:38:57.000Z</time>
      </trkpt>
      <trkpt lat="44.22786" lon="5.39929">
        <ele>1040</ele>
        <time>2026-05-13T12:38:58.000Z</time>
      </trkpt>
      <trkpt lat="44.22786" lon="5.39929">
        <ele>1040</ele>
        <time>2026-05-13T12:38:59.000Z</time>
      </trkpt>
      <trkpt lat="44.22786" lon="5.39929">
        <ele>1040</ele>
        <time>2026-05-13T12:39:00.000Z</time>
      </trkpt>
      <trkpt lat="44.22786" lon="5.39929">
        <ele>1040</ele>
        <time>2026-05-13T12:39:01.000Z</time>
      </trkpt>
      <trkpt lat="44.22786" lon="5.39929">
        <ele>1040</ele>
        <time>2026-05-13T12:39:02.000Z</time>
      </trkpt>
      <trkpt lat="44.22786" lon="5.39929">
        <ele>1040</ele>
        <time>2026-05-13T12:39:03.000Z</time>
      </trkpt>
      <trkpt lat="44.22786" lon="5.39929">
        <ele>1040</ele>
        <time>2026-05-13T12:39:04.000Z</time>
      </trkpt>
      <trkpt lat="44.22786" lon="5.39929">
        <ele>1040</ele>
        <time>2026-05-13T12:39:05.000Z</time>
      </trkpt>
      <trkpt lat="44.22786" lon="5.39929">
        <ele>1040</ele>
        <time>2026-05-13T12:39:06.000Z</time>
      </trkpt>
      <trkpt lat="44.22786" lon="5.39929">
        <ele>1040</ele>
        <time>2026-05-13T12:39:07.000Z</time>
      </trkpt>
      <trkpt lat="44.22786" lon="5.39929">
        <ele>1040</ele>
        <time>2026-05-13T12:39:08.000Z</time>
      </trkpt>
      <trkpt lat="44.22786" lon="5.39929">
        <ele>1040</ele>
        <time>2026-05-13T12:39:09.000Z</time>
      </trkpt>
      <trkpt lat="44.22786" lon="5.39929">
        <ele>1040</ele>
        <time>2026-05-13T12:39:10.000Z</time>
      </trkpt>
      <trkpt lat="44.22786" lon="5.39929">
        <ele>1040</ele>
        <time>2026-05-13T12:39:11.000Z</time>
      </trkpt>
      <trkpt lat="44.22786" lon="5.39929">
        <ele>1040</ele>
        <time>2026-05-13T12:39:12.000Z</time>
      </trkpt>
      <trkpt lat="44.22786" lon="5.39929">
        <ele>1040</ele>
        <time>2026-05-13T12:39:13.000Z</time>
      </trkpt>
      <trkpt lat="44.22786" lon="5.39929">
        <ele>1040</ele>
        <time>2026-05-13T12:39:14.000Z</time>
      </trkpt>
      <trkpt lat="44.22786" lon="5.39929">
        <ele>1040</ele>
        <time>2026-05-13T12:39:15.000Z</time>
      </trkpt>
      <trkpt lat="44.22786" lon="5.39929">
        <ele>1040</ele>
        <time>2026-05-13T12:39:16.000Z</time>
      </trkpt>
      <trkpt lat="44.22786" lon="5.39929">
        <ele>1040</ele>
        <time>2026-05-13T12:39:17.000Z</time>
      </trkpt>
      <trkpt lat="44.22786" lon="5.39929">
        <ele>1040</ele>
        <time>2026-05-13T12:39:18.000Z</time>
      </trkpt>
      <trkpt lat="44.22786" lon="5.39929">
        <ele>1040</ele>
        <time>2026-05-13T12:39:19.000Z</time>
      </trkpt>
      <trkpt lat="44.22786" lon="5.39929">
        <ele>1040</ele>
        <time>2026-05-13T12:39:20.000Z</time>
      </trkpt>
      <trkpt lat="44.22786" lon="5.39929">
        <ele>1040</ele>
        <time>2026-05-13T12:39:21.000Z</time>
      </trkpt>
      <trkpt lat="44.22786" lon="5.39929">
        <ele>1040</ele>
        <time>2026-05-13T12:39:22.000Z</time>
      </trkpt>
      <trkpt lat="44.22786" lon="5.39929">
        <ele>1040</ele>
        <time>2026-05-13T12:39:23.000Z</time>
      </trkpt>
      <trkpt lat="44.22786" lon="5.39929">
        <ele>1040</ele>
        <time>2026-05-13T12:39:24.000Z</time>
      </trkpt>
      <trkpt lat="44.22786" lon="5.39929">
        <ele>1040</ele>
        <time>2026-05-13T12:39:25.000Z</time>
      </trkpt>
      <trkpt lat="44.22786" lon="5.39929">
        <ele>1040</ele>
        <time>2026-05-13T12:39:26.000Z</time>
      </trkpt>
      <trkpt lat="44.22786" lon="5.39929">
        <ele>1040</ele>
        <time>2026-05-13T12:39:27.000Z</time>
      </trkpt>
      <trkpt lat="44.22786" lon="5.39929">
        <ele>1040</ele>
        <time>2026-05-13T12:39:28.000Z</time>
      </trkpt>
      <trkpt lat="44.22786" lon="5.39929">
        <ele>1040</ele>
        <time>2026-05-13T12:39:29.000Z</time>
      </trkpt>
      <trkpt lat="44.22786" lon="5.39929">
        <ele>1040</ele>
        <time>2026-05-13T12:39:30.000Z</time>
      </trkpt>
      <trkpt lat="44.22786" lon="5.39929">
        <ele>1040</ele>
        <time>2026-05-13T12:39:31.000Z</time>
      </trkpt>
      <trkpt lat="44.22786" lon="5.39929">
        <ele>1040</ele>
        <time>2026-05-13T12:39:32.000Z</time>
      </trkpt>
      <trkpt lat="44.22786" lon="5.39929">
        <ele>1040</ele>
        <time>2026-05-13T12:39:33.000Z</time>
      </trkpt>
      <trkpt lat="44.22786" lon="5.39929">
        <ele>1040</ele>
        <time>2026-05-13T12:39:34.000Z</time>
      </trkpt>
      <trkpt lat="44.22786" lon="5.39929">
        <ele>1040</ele>
        <time>2026-05-13T12:39:35.000Z</time>
      </trkpt>
      <trkpt lat="44.22786" lon="5.39929">
        <ele>1040</ele>
        <time>2026-05-13T12:39:36.000Z</time>
      </trkpt>
      <trkpt lat="44.22786" lon="5.39929">
        <ele>1040</ele>
        <time>2026-05-13T12:39:37.000Z</time>
      </trkpt>
      <trkpt lat="44.22786" lon="5.39929">
        <ele>1040</ele>
        <time>2026-05-13T12:39:38.000Z</time>
      </trkpt>
      <trkpt lat="44.22786" lon="5.39929">
        <ele>1040</ele>
        <time>2026-05-13T12:39:39.000Z</time>
      </trkpt>
      <trkpt lat="44.22786" lon="5.39929">
        <ele>1040</ele>
        <time>2026-05-13T12:39:40.000Z</time>
      </trkpt>
      <trkpt lat="44.22786" lon="5.39929">
        <ele>1040</ele>
        <time>2026-05-13T12:39:41.000Z</time>
      </trkpt>
      <trkpt lat="44.22786" lon="5.39929">
        <ele>1040</ele>
        <time>2026-05-13T12:39:42.000Z</time>
      </trkpt>
      <trkpt lat="44.22786" lon="5.39929">
        <ele>1040</ele>
        <time>2026-05-13T12:39:43.000Z</time>
      </trkpt>
      <trkpt lat="44.22786" lon="5.39929">
        <ele>1040</ele>
        <time>2026-05-13T12:39:44.000Z</time>
      </trkpt>
      <trkpt lat="44.22786" lon="5.39929">
        <ele>1040</ele>
        <time>2026-05-13T12:39:45.000Z</time>
      </trkpt>
      <trkpt lat="44.22786" lon="5.39929">
        <ele>1040</ele>
        <time>2026-05-13T12:39:46.000Z</time>
      </trkpt>
      <trkpt lat="44.22786" lon="5.39929">
        <ele>1040</ele>
        <time>2026-05-13T12:39:47.000Z</time>
      </trkpt>
      <trkpt lat="44.22786" lon="5.39929">
        <ele>1040</ele>
        <time>2026-05-13T12:39:48.000Z</time>
      </trkpt>
      <trkpt lat="44.22786" lon="5.39929">
        <ele>1040</ele>
        <time>2026-05-13T12:39:49.000Z</time>
      </trkpt>
      <trkpt lat="44.22786" lon="5.39929">
        <ele>1040</ele>
        <time>2026-05-13T12:39:50.000Z</time>
      </trkpt>
      <trkpt lat="44.22786" lon="5.39929">
        <ele>1040</ele>
        <time>2026-05-13T12:39:51.000Z</time>
      </trkpt>
      <trkpt lat="44.22786" lon="5.39929">
        <ele>1040</ele>
        <time>2026-05-13T12:39:52.000Z</time>
      </trkpt>
      <trkpt lat="44.22786" lon="5.39929">
        <ele>1040</ele>
        <time>2026-05-13T12:39:53.000Z</time>
      </trkpt>
      <trkpt lat="44.22786" lon="5.39929">
        <ele>1040</ele>
        <time>2026-05-13T12:39:54.000Z</time>
      </trkpt>
      <trkpt lat="44.22786" lon="5.39929">
        <ele>1040</ele>
        <time>2026-05-13T12:39:55.000Z</time>
      </trkpt>
      <trkpt lat="44.22786" lon="5.39929">
        <ele>1040</ele>
        <time>2026-05-13T12:39:56.000Z</time>
      </trkpt>
      <trkpt lat="44.22786" lon="5.39929">
        <ele>1040</ele>
        <time>2026-05-13T12:39:57.000Z</time>
      </trkpt>
      <trkpt lat="44.22786" lon="5.39929">
        <ele>1040</ele>
        <time>2026-05-13T12:39:58.000Z</time>
      </trkpt>
      <trkpt lat="44.22786" lon="5.39929">
        <ele>1040</ele>
        <time>2026-05-13T12:39:59.000Z</time>
      </trkpt>
      <trkpt lat="44.22786" lon="5.39929">
        <ele>1040</ele>
        <time>2026-05-13T12:40:00.000Z</time>
      </trkpt>
      <trkpt lat="44.22786" lon="5.39929">
        <ele>1040</ele>
        <time>2026-05-13T12:40:01.000Z</time>
      </trkpt>
      <trkpt lat="44.22786" lon="5.39929">
        <ele>1040</ele>
        <time>2026-05-13T12:40:02.000Z</time>
      </trkpt>
      <trkpt lat="44.22786" lon="5.39929">
        <ele>1040</ele>
        <time>2026-05-13T12:40:03.000Z</time>
      </trkpt>
      <trkpt lat="44.22786" lon="5.39929">
        <ele>1040</ele>
        <time>2026-05-13T12:40:04.000Z</time>
      </trkpt>
      <trkpt lat="44.22786" lon="5.39929">
        <ele>1040</ele>
        <time>2026-05-13T12:40:05.000Z</time>
      </trkpt>
      <trkpt lat="44.22786" lon="5.39929">
        <ele>1040</ele>
        <time>2026-05-13T12:40:06.000Z</time>
      </trkpt>
      <trkpt lat="44.22786" lon="5.39929">
        <ele>1040</ele>
        <time>2026-05-13T12:40:07.000Z</time>
      </trkpt>
      <trkpt lat="44.22786" lon="5.39929">
        <ele>1040</ele>
        <time>2026-05-13T12:40:08.000Z</time>
      </trkpt>
      <trkpt lat="44.22786" lon="5.39929">
        <ele>1040</ele>
        <time>2026-05-13T12:40:09.000Z</time>
      </trkpt>
      <trkpt lat="44.22786" lon="5.39929">
        <ele>1040</ele>
        <time>2026-05-13T12:40:10.000Z</time>
      </trkpt>
      <trkpt lat="44.22786" lon="5.39929">
        <ele>1040</ele>
        <time>2026-05-13T12:40:11.000Z</time>
      </trkpt>
      <trkpt lat="44.22786" lon="5.39929">
        <ele>1040</ele>
        <time>2026-05-13T12:40:12.000Z</time>
      </trkpt>
      <trkpt lat="44.22786" lon="5.39929">
        <ele>1040</ele>
        <time>2026-05-13T12:40:13.000Z</time>
      </trkpt>
      <trkpt lat="44.22786" lon="5.39929">
        <ele>1040</ele>
        <time>2026-05-13T12:40:14.000Z</time>
      </trkpt>
      <trkpt lat="44.22786" lon="5.39929">
        <ele>1040</ele>
        <time>2026-05-13T12:40:15.000Z</time>
      </trkpt>
      <trkpt lat="44.22786" lon="5.39929">
        <ele>1040</ele>
        <time>2026-05-13T12:40:16.000Z</time>
      </trkpt>
      <trkpt lat="44.22786" lon="5.39929">
        <ele>1040</ele>
        <time>2026-05-13T12:40:17.000Z</time>
      </trkpt>
      <trkpt lat="44.22786" lon="5.39929">
        <ele>1040</ele>
        <time>2026-05-13T12:40:18.000Z</time>
      </trkpt>
      <trkpt lat="44.22786" lon="5.39929">
        <ele>1040</ele>
        <time>2026-05-13T12:40:19.000Z</time>
      </trkpt>
      <trkpt lat="44.22786" lon="5.39929">
        <ele>1040</ele>
        <time>2026-05-13T12:40:20.000Z</time>
      </trkpt>
      <trkpt lat="44.22786" lon="5.39929">
        <ele>1040</ele>
        <time>2026-05-13T12:40:21.000Z</time>
      </trkpt>
      <trkpt lat="44.22786" lon="5.39929">
        <ele>1040</ele>
        <time>2026-05-13T12:40:22.000Z</time>
      </trkpt>
      <trkpt lat="44.22786" lon="5.39929">
        <ele>1040</ele>
        <time>2026-05-13T12:40:23.000Z</time>
      </trkpt>
      <trkpt lat="44.22786" lon="5.39929">
        <ele>1040</ele>
        <time>2026-05-13T12:40:24.000Z</time>
      </trkpt>
      <trkpt lat="44.22786" lon="5.39929">
        <ele>1040</ele>
        <time>2026-05-13T12:40:25.000Z</time>
      </trkpt>
      <trkpt lat="44.22786" lon="5.39929">
        <ele>1040</ele>
        <time>2026-05-13T12:40:26.000Z</time>
      </trkpt>
      <trkpt lat="44.22786" lon="5.39929">
        <ele>1040</ele>
        <time>2026-05-13T12:40:27.000Z</time>
      </trkpt>
      <trkpt lat="44.22786" lon="5.39929">
        <ele>1040</ele>
        <time>2026-05-13T12:40:28.000Z</time>
      </trkpt>
      <trkpt lat="44.22786" lon="5.39929">
        <ele>1040</ele>
        <time>2026-05-13T12:40:29.000Z</time>
      </trkpt>
      <trkpt lat="44.22786" lon="5.39929">
        <ele>1040</ele>
        <time>2026-05-13T12:40:30.000Z</time>
      </trkpt>
      <trkpt lat="44.22786" lon="5.39929">
        <ele>1040</ele>
        <time>2026-05-13T12:40:31.000Z</time>
      </trkpt>
      <trkpt lat="44.22786" lon="5.39929">
        <ele>1040</ele>
        <time>2026-05-13T12:40:32.000Z</time>
      </trkpt>
      <trkpt lat="44.22786" lon="5.39929">
        <ele>1040</ele>
        <time>2026-05-13T12:40:33.000Z</time>
      </trkpt>
      <trkpt lat="44.22786" lon="5.39929">
        <ele>1040</ele>
        <time>2026-05-13T12:40:34.000Z</time>
      </trkpt>
      <trkpt lat="44.22786" lon="5.39929">
        <ele>1040</ele>
        <time>2026-05-13T12:40:35.000Z</time>
      </trkpt>
      <trkpt lat="44.22786" lon="5.39929">
        <ele>1040</ele>
        <time>2026-05-13T12:40:36.000Z</time>
      </trkpt>
      <trkpt lat="44.22786" lon="5.39929">
        <ele>1040</ele>
        <time>2026-05-13T12:40:37.000Z</time>
      </trkpt>
      <trkpt lat="44.22786" lon="5.39929">
        <ele>1040</ele>
        <time>2026-05-13T12:40:38.000Z</time>
      </trkpt>
      <trkpt lat="44.22786" lon="5.39929">
        <ele>1040</ele>
        <time>2026-05-13T12:40:39.000Z</time>
      </trkpt>
      <trkpt lat="44.22786" lon="5.39929">
        <ele>1040</ele>
        <time>2026-05-13T12:40:40.000Z</time>
      </trkpt>
      <trkpt lat="44.22786" lon="5.39929">
        <ele>1040</ele>
        <time>2026-05-13T12:40:41.000Z</time>
      </trkpt>
      <trkpt lat="44.22786" lon="5.39929">
        <ele>1040</ele>
        <time>2026-05-13T12:40:42.000Z</time>
      </trkpt>
      <trkpt lat="44.22786" lon="5.39929">
        <ele>1040</ele>
        <time>2026-05-13T12:40:43.000Z</time>
      </trkpt>
      <trkpt lat="44.22786" lon="5.39929">
        <ele>1040</ele>
        <time>2026-05-13T12:40:44.000Z</time>
      </trkpt>
      <trkpt lat="44.22786" lon="5.39929">
        <ele>1040</ele>
        <time>2026-05-13T12:40:45.000Z</time>
      </trkpt>
      <trkpt lat="44.22786" lon="5.3993">
        <ele>1040</ele>
        <time>2026-05-13T12:40:46.000Z</time>
      </trkpt>
      <trkpt lat="44.22786" lon="5.3993">
        <ele>1041</ele>
        <time>2026-05-13T12:40:47.000Z</time>
      </trkpt>
      <trkpt lat="44.22786" lon="5.3993">
        <ele>1041</ele>
        <time>2026-05-13T12:40:48.000Z</time>
      </trkpt>
      <trkpt lat="44.22786" lon="5.3993">
        <ele>1041</ele>
        <time>2026-05-13T12:40:49.000Z</time>
      </trkpt>
      <trkpt lat="44.22786" lon="5.3993">
        <ele>1041</ele>
        <time>2026-05-13T12:40:50.000Z</time>
      </trkpt>
      <trkpt lat="44.22786" lon="5.3993">
        <ele>1041</ele>
        <time>2026-05-13T12:40:51.000Z</time>
      </trkpt>
      <trkpt lat="44.22786" lon="5.3993">
        <ele>1041</ele>
        <time>2026-05-13T12:40:52.000Z</time>
      </trkpt>
      <trkpt lat="44.22786" lon="5.3993">
        <ele>1041</ele>
        <time>2026-05-13T12:40:53.000Z</time>
      </trkpt>
      <trkpt lat="44.22786" lon="5.3993">
        <ele>1041</ele>
        <time>2026-05-13T12:40:54.000Z</time>
      </trkpt>
      <trkpt lat="44.22786" lon="5.3993">
        <ele>1041</ele>
        <time>2026-05-13T12:40:55.000Z</time>
      </trkpt>
      <trkpt lat="44.22786" lon="5.3993">
        <ele>1041</ele>
        <time>2026-05-13T12:40:56.000Z</time>
      </trkpt>
      <trkpt lat="44.22786" lon="5.3993">
        <ele>1041</ele>
        <time>2026-05-13T12:40:57.000Z</time>
      </trkpt>
      <trkpt lat="44.22786" lon="5.3993">
        <ele>1041</ele>
        <time>2026-05-13T12:40:58.000Z</time>
      </trkpt>
      <trkpt lat="44.22786" lon="5.3993">
        <ele>1041</ele>
        <time>2026-05-13T12:40:59.000Z</time>
      </trkpt>
      <trkpt lat="44.22786" lon="5.3993">
        <ele>1041</ele>
        <time>2026-05-13T12:41:00.000Z</time>
      </trkpt>
      <trkpt lat="44.22786" lon="5.3993">
        <ele>1041</ele>
        <time>2026-05-13T12:41:01.000Z</time>
      </trkpt>
      <trkpt lat="44.22786" lon="5.3993">
        <ele>1042</ele>
        <time>2026-05-13T12:41:02.000Z</time>
      </trkpt>
      <trkpt lat="44.22787" lon="5.3993">
        <ele>1042</ele>
        <time>2026-05-13T12:41:03.000Z</time>
      </trkpt>
      <trkpt lat="44.22787" lon="5.3993">
        <ele>1041</ele>
        <time>2026-05-13T12:41:04.000Z</time>
      </trkpt>
      <trkpt lat="44.22787" lon="5.3993">
        <ele>1041</ele>
        <time>2026-05-13T12:41:05.000Z</time>
      </trkpt>
      <trkpt lat="44.22787" lon="5.3993">
        <ele>1042</ele>
        <time>2026-05-13T12:41:06.000Z</time>
      </trkpt>
      <trkpt lat="44.22786" lon="5.3993">
        <ele>1042</ele>
        <time>2026-05-13T12:41:07.000Z</time>
      </trkpt>
      <trkpt lat="44.22786" lon="5.3993">
        <ele>1043</ele>
        <time>2026-05-13T12:41:08.000Z</time>
      </trkpt>
      <trkpt lat="44.22787" lon="5.3993">
        <ele>1043</ele>
        <time>2026-05-13T12:41:09.000Z</time>
      </trkpt>
      <trkpt lat="44.22788" lon="5.39931">
        <ele>1043</ele>
        <time>2026-05-13T12:41:10.000Z</time>
      </trkpt>
      <trkpt lat="44.22789" lon="5.3993">
        <ele>1043</ele>
        <time>2026-05-13T12:41:11.000Z</time>
      </trkpt>
      <trkpt lat="44.2279" lon="5.3993">
        <ele>1043</ele>
        <time>2026-05-13T12:41:12.000Z</time>
      </trkpt>
      <trkpt lat="44.2279" lon="5.3993">
        <ele>1043</ele>
        <time>2026-05-13T12:41:13.000Z</time>
      </trkpt>
      <trkpt lat="44.2279" lon="5.3993">
        <ele>1042</ele>
        <time>2026-05-13T12:41:14.000Z</time>
      </trkpt>
      <trkpt lat="44.22791" lon="5.3993">
        <ele>1042</ele>
        <time>2026-05-13T12:41:15.000Z</time>
      </trkpt>
      <trkpt lat="44.2279" lon="5.39929">
        <ele>1042</ele>
        <time>2026-05-13T12:41:16.000Z</time>
      </trkpt>
      <trkpt lat="44.2279" lon="5.39929">
        <ele>1042</ele>
        <time>2026-05-13T12:41:17.000Z</time>
      </trkpt>
      <trkpt lat="44.2279" lon="5.39929">
        <ele>1043</ele>
        <time>2026-05-13T12:41:18.000Z</time>
      </trkpt>
      <trkpt lat="44.2279" lon="5.39928">
        <ele>1043</ele>
        <time>2026-05-13T12:41:19.000Z</time>
      </trkpt>
      <trkpt lat="44.22791" lon="5.39927">
        <ele>1043</ele>
        <time>2026-05-13T12:41:20.000Z</time>
      </trkpt>
      <trkpt lat="44.22791" lon="5.39926">
        <ele>1044</ele>
        <time>2026-05-13T12:41:21.000Z</time>
      </trkpt>
      <trkpt lat="44.22792" lon="5.39927">
        <ele>1044</ele>
        <time>2026-05-13T12:41:22.000Z</time>
      </trkpt>
      <trkpt lat="44.22792" lon="5.39927">
        <ele>1044</ele>
        <time>2026-05-13T12:41:23.000Z</time>
      </trkpt>
      <trkpt lat="44.22793" lon="5.39928">
        <ele>1044</ele>
        <time>2026-05-13T12:41:24.000Z</time>
      </trkpt>
      <trkpt lat="44.22793" lon="5.39928">
        <ele>1045</ele>
        <time>2026-05-13T12:41:25.000Z</time>
      </trkpt>
      <trkpt lat="44.22794" lon="5.39928">
        <ele>1045</ele>
        <time>2026-05-13T12:41:26.000Z</time>
      </trkpt>
      <trkpt lat="44.22794" lon="5.39928">
        <ele>1045</ele>
        <time>2026-05-13T12:41:27.000Z</time>
      </trkpt>
      <trkpt lat="44.22794" lon="5.39928">
        <ele>1045</ele>
        <time>2026-05-13T12:41:28.000Z</time>
      </trkpt>
      <trkpt lat="44.22794" lon="5.39928">
        <ele>1045</ele>
        <time>2026-05-13T12:41:29.000Z</time>
      </trkpt>
      <trkpt lat="44.22794" lon="5.39928">
        <ele>1045</ele>
        <time>2026-05-13T12:41:30.000Z</time>
      </trkpt>
      <trkpt lat="44.22794" lon="5.39928">
        <ele>1045</ele>
        <time>2026-05-13T12:41:31.000Z</time>
      </trkpt>
      <trkpt lat="44.22794" lon="5.39928">
        <ele>1045</ele>
        <time>2026-05-13T12:41:32.000Z</time>
      </trkpt>
      <trkpt lat="44.22794" lon="5.39928">
        <ele>1045</ele>
        <time>2026-05-13T12:41:33.000Z</time>
      </trkpt>
      <trkpt lat="44.22794" lon="5.39928">
        <ele>1045</ele>
        <time>2026-05-13T12:41:34.000Z</time>
      </trkpt>
      <trkpt lat="44.22794" lon="5.39928">
        <ele>1045</ele>
        <time>2026-05-13T12:41:35.000Z</time>
      </trkpt>
      <trkpt lat="44.22794" lon="5.39928">
        <ele>1045</ele>
        <time>2026-05-13T12:41:36.000Z</time>
      </trkpt>
      <trkpt lat="44.22794" lon="5.39928">
        <ele>1045</ele>
        <time>2026-05-13T12:41:37.000Z</time>
      </trkpt>
      <trkpt lat="44.22794" lon="5.39928">
        <ele>1045</ele>
        <time>2026-05-13T12:41:38.000Z</time>
      </trkpt>
      <trkpt lat="44.22794" lon="5.39928">
        <ele>1045</ele>
        <time>2026-05-13T12:41:39.000Z</time>
      </trkpt>
      <trkpt lat="44.22794" lon="5.39928">
        <ele>1044</ele>
        <time>2026-05-13T12:41:40.000Z</time>
      </trkpt>
      <trkpt lat="44.22794" lon="5.39928">
        <ele>1044</ele>
        <time>2026-05-13T12:41:41.000Z</time>
      </trkpt>
      <trkpt lat="44.22794" lon="5.39927">
        <ele>1044</ele>
        <time>2026-05-13T12:41:42.000Z</time>
      </trkpt>
      <trkpt lat="44.22795" lon="5.39926">
        <ele>1044</ele>
        <time>2026-05-13T12:41:43.000Z</time>
      </trkpt>
      <trkpt lat="44.22796" lon="5.39926">
        <ele>1043</ele>
        <time>2026-05-13T12:41:44.000Z</time>
      </trkpt>
      <trkpt lat="44.22797" lon="5.39926">
        <ele>1043</ele>
        <time>2026-05-13T12:41:45.000Z</time>
      </trkpt>
      <trkpt lat="44.22798" lon="5.39926">
        <ele>1043</ele>
        <time>2026-05-13T12:41:46.000Z</time>
      </trkpt>
      <trkpt lat="44.22798" lon="5.39927">
        <ele>1043</ele>
        <time>2026-05-13T12:41:47.000Z</time>
      </trkpt>
      <trkpt lat="44.22799" lon="5.39927">
        <ele>1042</ele>
        <time>2026-05-13T12:41:48.000Z</time>
      </trkpt>
      <trkpt lat="44.22799" lon="5.39927">
        <ele>1042</ele>
        <time>2026-05-13T12:41:49.000Z</time>
      </trkpt>
      <trkpt lat="44.22799" lon="5.39927">
        <ele>1042</ele>
        <time>2026-05-13T12:41:50.000Z</time>
      </trkpt>
      <trkpt lat="44.22799" lon="5.39927">
        <ele>1042</ele>
        <time>2026-05-13T12:41:51.000Z</time>
      </trkpt>
      <trkpt lat="44.22799" lon="5.39927">
        <ele>1042</ele>
        <time>2026-05-13T12:41:52.000Z</time>
      </trkpt>
      <trkpt lat="44.22799" lon="5.39927">
        <ele>1042</ele>
        <time>2026-05-13T12:41:53.000Z</time>
      </trkpt>
      <trkpt lat="44.22799" lon="5.39927">
        <ele>1042</ele>
        <time>2026-05-13T12:41:54.000Z</time>
      </trkpt>
      <trkpt lat="44.22799" lon="5.39927">
        <ele>1042</ele>
        <time>2026-05-13T12:41:55.000Z</time>
      </trkpt>
      <trkpt lat="44.22799" lon="5.39927">
        <ele>1042</ele>
        <time>2026-05-13T12:41:56.000Z</time>
      </trkpt>
      <trkpt lat="44.22799" lon="5.39927">
        <ele>1042</ele>
        <time>2026-05-13T12:41:57.000Z</time>
      </trkpt>
      <trkpt lat="44.22799" lon="5.39927">
        <ele>1042</ele>
        <time>2026-05-13T12:41:58.000Z</time>
      </trkpt>
      <trkpt lat="44.22799" lon="5.39927">
        <ele>1042</ele>
        <time>2026-05-13T12:41:59.000Z</time>
      </trkpt>
      <trkpt lat="44.22799" lon="5.39927">
        <ele>1042</ele>
        <time>2026-05-13T12:42:00.000Z</time>
      </trkpt>
      <trkpt lat="44.22799" lon="5.39927">
        <ele>1042</ele>
        <time>2026-05-13T12:42:01.000Z</time>
      </trkpt>
      <trkpt lat="44.22799" lon="5.39927">
        <ele>1042</ele>
        <time>2026-05-13T12:42:02.000Z</time>
      </trkpt>
      <trkpt lat="44.22799" lon="5.39927">
        <ele>1042</ele>
        <time>2026-05-13T12:42:03.000Z</time>
      </trkpt>
      <trkpt lat="44.22799" lon="5.39927">
        <ele>1042</ele>
        <time>2026-05-13T12:42:04.000Z</time>
      </trkpt>
      <trkpt lat="44.22799" lon="5.39927">
        <ele>1042</ele>
        <time>2026-05-13T12:42:05.000Z</time>
      </trkpt>
      <trkpt lat="44.22799" lon="5.39927">
        <ele>1042</ele>
        <time>2026-05-13T12:42:06.000Z</time>
      </trkpt>
      <trkpt lat="44.22799" lon="5.39927">
        <ele>1042</ele>
        <time>2026-05-13T12:42:07.000Z</time>
      </trkpt>
      <trkpt lat="44.22799" lon="5.39927">
        <ele>1042</ele>
        <time>2026-05-13T12:42:08.000Z</time>
      </trkpt>
      <trkpt lat="44.22799" lon="5.39927">
        <ele>1042</ele>
        <time>2026-05-13T12:42:09.000Z</time>
      </trkpt>
      <trkpt lat="44.22799" lon="5.39927">
        <ele>1042</ele>
        <time>2026-05-13T12:42:10.000Z</time>
      </trkpt>
      <trkpt lat="44.22799" lon="5.39927">
        <ele>1042</ele>
        <time>2026-05-13T12:42:11.000Z</time>
      </trkpt>
      <trkpt lat="44.22799" lon="5.39927">
        <ele>1042</ele>
        <time>2026-05-13T12:42:12.000Z</time>
      </trkpt>
      <trkpt lat="44.22799" lon="5.39927">
        <ele>1042</ele>
        <time>2026-05-13T12:42:13.000Z</time>
      </trkpt>
      <trkpt lat="44.22799" lon="5.39927">
        <ele>1042</ele>
        <time>2026-05-13T12:42:14.000Z</time>
      </trkpt>
      <trkpt lat="44.22799" lon="5.39927">
        <ele>1043</ele>
        <time>2026-05-13T12:42:15.000Z</time>
      </trkpt>
      <trkpt lat="44.22799" lon="5.39928">
        <ele>1043</ele>
        <time>2026-05-13T12:42:16.000Z</time>
      </trkpt>
      <trkpt lat="44.22799" lon="5.39929">
        <ele>1043</ele>
        <time>2026-05-13T12:42:17.000Z</time>
      </trkpt>
      <trkpt lat="44.228" lon="5.39929">
        <ele>1043</ele>
        <time>2026-05-13T12:42:18.000Z</time>
      </trkpt>
      <trkpt lat="44.22801" lon="5.3993">
        <ele>1043</ele>
        <time>2026-05-13T12:42:19.000Z</time>
      </trkpt>
      <trkpt lat="44.22801" lon="5.39929">
        <ele>1043</ele>
        <time>2026-05-13T12:42:20.000Z</time>
      </trkpt>
      <trkpt lat="44.22801" lon="5.39929">
        <ele>1043</ele>
        <time>2026-05-13T12:42:21.000Z</time>
      </trkpt>
      <trkpt lat="44.22801" lon="5.39929">
        <ele>1043</ele>
        <time>2026-05-13T12:42:22.000Z</time>
      </trkpt>
      <trkpt lat="44.22802" lon="5.39929">
        <ele>1043</ele>
        <time>2026-05-13T12:42:23.000Z</time>
      </trkpt>
      <trkpt lat="44.22802" lon="5.39929">
        <ele>1043</ele>
        <time>2026-05-13T12:42:24.000Z</time>
      </trkpt>
      <trkpt lat="44.22802" lon="5.39929">
        <ele>1043</ele>
        <time>2026-05-13T12:42:25.000Z</time>
      </trkpt>
      <trkpt lat="44.22803" lon="5.39929">
        <ele>1043</ele>
        <time>2026-05-13T12:42:26.000Z</time>
      </trkpt>
      <trkpt lat="44.22803" lon="5.39929">
        <ele>1043</ele>
        <time>2026-05-13T12:42:27.000Z</time>
      </trkpt>
      <trkpt lat="44.22803" lon="5.39929">
        <ele>1043</ele>
        <time>2026-05-13T12:42:28.000Z</time>
      </trkpt>
      <trkpt lat="44.22803" lon="5.39929">
        <ele>1043</ele>
        <time>2026-05-13T12:42:29.000Z</time>
      </trkpt>
      <trkpt lat="44.22803" lon="5.39929">
        <ele>1043</ele>
        <time>2026-05-13T12:42:30.000Z</time>
      </trkpt>
      <trkpt lat="44.22803" lon="5.39929">
        <ele>1043</ele>
        <time>2026-05-13T12:42:31.000Z</time>
      </trkpt>
      <trkpt lat="44.22803" lon="5.39929">
        <ele>1043</ele>
        <time>2026-05-13T12:42:32.000Z</time>
      </trkpt>
      <trkpt lat="44.22803" lon="5.39929">
        <ele>1043</ele>
        <time>2026-05-13T12:42:33.000Z</time>
      </trkpt>
      <trkpt lat="44.22803" lon="5.39929">
        <ele>1043</ele>
        <time>2026-05-13T12:42:34.000Z</time>
      </trkpt>
      <trkpt lat="44.22802" lon="5.39929">
        <ele>1043</ele>
        <time>2026-05-13T12:42:35.000Z</time>
      </trkpt>
      <trkpt lat="44.22802" lon="5.39929">
        <ele>1043</ele>
        <time>2026-05-13T12:42:36.000Z</time>
      </trkpt>
      <trkpt lat="44.22802" lon="5.39929">
        <ele>1043</ele>
        <time>2026-05-13T12:42:37.000Z</time>
      </trkpt>
      <trkpt lat="44.22801" lon="5.3993">
        <ele>1043</ele>
        <time>2026-05-13T12:42:38.000Z</time>
      </trkpt>
      <trkpt lat="44.22801" lon="5.3993">
        <ele>1043</ele>
        <time>2026-05-13T12:42:39.000Z</time>
      </trkpt>
      <trkpt lat="44.22801" lon="5.3993">
        <ele>1043</ele>
        <time>2026-05-13T12:42:40.000Z</time>
      </trkpt>
      <trkpt lat="44.22801" lon="5.3993">
        <ele>1043</ele>
        <time>2026-05-13T12:42:41.000Z</time>
      </trkpt>
      <trkpt lat="44.22801" lon="5.3993">
        <ele>1043</ele>
        <time>2026-05-13T12:42:42.000Z</time>
      </trkpt>
      <trkpt lat="44.22801" lon="5.3993">
        <ele>1043</ele>
        <time>2026-05-13T12:42:43.000Z</time>
      </trkpt>
      <trkpt lat="44.22801" lon="5.3993">
        <ele>1043</ele>
        <time>2026-05-13T12:42:44.000Z</time>
      </trkpt>
      <trkpt lat="44.22801" lon="5.3993">
        <ele>1043</ele>
        <time>2026-05-13T12:42:45.000Z</time>
      </trkpt>
      <trkpt lat="44.22801" lon="5.3993">
        <ele>1043</ele>
        <time>2026-05-13T12:42:46.000Z</time>
      </trkpt>
      <trkpt lat="44.22801" lon="5.3993">
        <ele>1043</ele>
        <time>2026-05-13T12:42:47.000Z</time>
      </trkpt>
      <trkpt lat="44.22801" lon="5.3993">
        <ele>1043</ele>
        <time>2026-05-13T12:42:48.000Z</time>
      </trkpt>
      <trkpt lat="44.22801" lon="5.3993">
        <ele>1043</ele>
        <time>2026-05-13T12:42:49.000Z</time>
      </trkpt>
      <trkpt lat="44.22801" lon="5.3993">
        <ele>1043</ele>
        <time>2026-05-13T12:42:50.000Z</time>
      </trkpt>
      <trkpt lat="44.22801" lon="5.3993">
        <ele>1043</ele>
        <time>2026-05-13T12:42:51.000Z</time>
      </trkpt>
      <trkpt lat="44.22801" lon="5.3993">
        <ele>1043</ele>
        <time>2026-05-13T12:42:52.000Z</time>
      </trkpt>
      <trkpt lat="44.22801" lon="5.3993">
        <ele>1043</ele>
        <time>2026-05-13T12:42:53.000Z</time>
      </trkpt>
      <trkpt lat="44.22801" lon="5.3993">
        <ele>1043</ele>
        <time>2026-05-13T12:42:54.000Z</time>
      </trkpt>
      <trkpt lat="44.22801" lon="5.3993">
        <ele>1043</ele>
        <time>2026-05-13T12:42:55.000Z</time>
      </trkpt>
      <trkpt lat="44.22801" lon="5.3993">
        <ele>1043</ele>
        <time>2026-05-13T12:42:56.000Z</time>
      </trkpt>
      <trkpt lat="44.22801" lon="5.3993">
        <ele>1043</ele>
        <time>2026-05-13T12:42:57.000Z</time>
      </trkpt>
      <trkpt lat="44.22801" lon="5.3993">
        <ele>1043</ele>
        <time>2026-05-13T12:42:58.000Z</time>
      </trkpt>
      <trkpt lat="44.22801" lon="5.3993">
        <ele>1043</ele>
        <time>2026-05-13T12:42:59.000Z</time>
      </trkpt>
      <trkpt lat="44.22801" lon="5.3993">
        <ele>1043</ele>
        <time>2026-05-13T12:43:00.000Z</time>
      </trkpt>
      <trkpt lat="44.22801" lon="5.3993">
        <ele>1043</ele>
        <time>2026-05-13T12:43:01.000Z</time>
      </trkpt>
      <trkpt lat="44.22801" lon="5.3993">
        <ele>1043</ele>
        <time>2026-05-13T12:43:02.000Z</time>
      </trkpt>
      <trkpt lat="44.22801" lon="5.3993">
        <ele>1043</ele>
        <time>2026-05-13T12:43:03.000Z</time>
      </trkpt>
      <trkpt lat="44.22801" lon="5.3993">
        <ele>1043</ele>
        <time>2026-05-13T12:43:04.000Z</time>
      </trkpt>
      <trkpt lat="44.22801" lon="5.3993">
        <ele>1043</ele>
        <time>2026-05-13T12:43:05.000Z</time>
      </trkpt>
      <trkpt lat="44.22801" lon="5.3993">
        <ele>1043</ele>
        <time>2026-05-13T12:43:06.000Z</time>
      </trkpt>
      <trkpt lat="44.22801" lon="5.3993">
        <ele>1043</ele>
        <time>2026-05-13T12:43:07.000Z</time>
      </trkpt>
      <trkpt lat="44.22801" lon="5.3993">
        <ele>1043</ele>
        <time>2026-05-13T12:43:08.000Z</time>
      </trkpt>
      <trkpt lat="44.22801" lon="5.3993">
        <ele>1043</ele>
        <time>2026-05-13T12:43:09.000Z</time>
      </trkpt>
      <trkpt lat="44.22801" lon="5.3993">
        <ele>1043</ele>
        <time>2026-05-13T12:43:10.000Z</time>
      </trkpt>
      <trkpt lat="44.22801" lon="5.3993">
        <ele>1043</ele>
        <time>2026-05-13T12:43:11.000Z</time>
      </trkpt>
      <trkpt lat="44.22801" lon="5.3993">
        <ele>1043</ele>
        <time>2026-05-13T12:43:12.000Z</time>
      </trkpt>
      <trkpt lat="44.22801" lon="5.3993">
        <ele>1043</ele>
        <time>2026-05-13T12:43:13.000Z</time>
      </trkpt>
      <trkpt lat="44.22801" lon="5.39931">
        <ele>1043</ele>
        <time>2026-05-13T12:43:14.000Z</time>
      </trkpt>
      <trkpt lat="44.22801" lon="5.39931">
        <ele>1043</ele>
        <time>2026-05-13T12:43:15.000Z</time>
      </trkpt>
      <trkpt lat="44.22801" lon="5.39931">
        <ele>1043</ele>
        <time>2026-05-13T12:43:16.000Z</time>
      </trkpt>
      <trkpt lat="44.228" lon="5.39931">
        <ele>1043</ele>
        <time>2026-05-13T12:43:17.000Z</time>
      </trkpt>
      <trkpt lat="44.228" lon="5.39931">
        <ele>1043</ele>
        <time>2026-05-13T12:43:18.000Z</time>
      </trkpt>
      <trkpt lat="44.228" lon="5.39931">
        <ele>1043</ele>
        <time>2026-05-13T12:43:19.000Z</time>
      </trkpt>
      <trkpt lat="44.228" lon="5.39931">
        <ele>1043</ele>
        <time>2026-05-13T12:43:20.000Z</time>
      </trkpt>
      <trkpt lat="44.228" lon="5.39931">
        <ele>1043</ele>
        <time>2026-05-13T12:43:21.000Z</time>
      </trkpt>
      <trkpt lat="44.228" lon="5.39931">
        <ele>1043</ele>
        <time>2026-05-13T12:43:22.000Z</time>
      </trkpt>
      <trkpt lat="44.228" lon="5.39931">
        <ele>1043</ele>
        <time>2026-05-13T12:43:23.000Z</time>
      </trkpt>
      <trkpt lat="44.228" lon="5.39931">
        <ele>1043</ele>
        <time>2026-05-13T12:43:24.000Z</time>
      </trkpt>
      <trkpt lat="44.228" lon="5.39931">
        <ele>1043</ele>
        <time>2026-05-13T12:43:25.000Z</time>
      </trkpt>
      <trkpt lat="44.228" lon="5.39931">
        <ele>1043</ele>
        <time>2026-05-13T12:43:26.000Z</time>
      </trkpt>
      <trkpt lat="44.228" lon="5.39931">
        <ele>1043</ele>
        <time>2026-05-13T12:43:27.000Z</time>
      </trkpt>
      <trkpt lat="44.228" lon="5.39931">
        <ele>1043</ele>
        <time>2026-05-13T12:43:28.000Z</time>
      </trkpt>
      <trkpt lat="44.228" lon="5.39931">
        <ele>1043</ele>
        <time>2026-05-13T12:43:29.000Z</time>
      </trkpt>
      <trkpt lat="44.228" lon="5.39931">
        <ele>1043</ele>
        <time>2026-05-13T12:43:30.000Z</time>
      </trkpt>
      <trkpt lat="44.228" lon="5.39931">
        <ele>1043</ele>
        <time>2026-05-13T12:43:31.000Z</time>
      </trkpt>
      <trkpt lat="44.228" lon="5.39931">
        <ele>1043</ele>
        <time>2026-05-13T12:43:32.000Z</time>
      </trkpt>
      <trkpt lat="44.228" lon="5.39931">
        <ele>1043</ele>
        <time>2026-05-13T12:43:33.000Z</time>
      </trkpt>
      <trkpt lat="44.228" lon="5.39931">
        <ele>1043</ele>
        <time>2026-05-13T12:43:34.000Z</time>
      </trkpt>
      <trkpt lat="44.228" lon="5.39931">
        <ele>1043</ele>
        <time>2026-05-13T12:43:35.000Z</time>
      </trkpt>
      <trkpt lat="44.228" lon="5.39931">
        <ele>1043</ele>
        <time>2026-05-13T12:43:36.000Z</time>
      </trkpt>
      <trkpt lat="44.228" lon="5.39931">
        <ele>1043</ele>
        <time>2026-05-13T12:43:37.000Z</time>
      </trkpt>
      <trkpt lat="44.228" lon="5.39931">
        <ele>1043</ele>
        <time>2026-05-13T12:43:38.000Z</time>
      </trkpt>
      <trkpt lat="44.228" lon="5.39931">
        <ele>1043</ele>
        <time>2026-05-13T12:43:39.000Z</time>
      </trkpt>
      <trkpt lat="44.228" lon="5.39931">
        <ele>1043</ele>
        <time>2026-05-13T12:43:40.000Z</time>
      </trkpt>
      <trkpt lat="44.228" lon="5.39931">
        <ele>1044</ele>
        <time>2026-05-13T12:43:41.000Z</time>
      </trkpt>
      <trkpt lat="44.228" lon="5.39931">
        <ele>1045</ele>
        <time>2026-05-13T12:43:42.000Z</time>
      </trkpt>
      <trkpt lat="44.228" lon="5.39932">
        <ele>1045</ele>
        <time>2026-05-13T12:43:43.000Z</time>
      </trkpt>
      <trkpt lat="44.22799" lon="5.39933">
        <ele>1046</ele>
        <time>2026-05-13T12:43:44.000Z</time>
      </trkpt>
      <trkpt lat="44.22799" lon="5.39933">
        <ele>1046</ele>
        <time>2026-05-13T12:43:45.000Z</time>
      </trkpt>
      <trkpt lat="44.22799" lon="5.39933">
        <ele>1046</ele>
        <time>2026-05-13T12:43:46.000Z</time>
      </trkpt>
      <trkpt lat="44.22799" lon="5.39933">
        <ele>1046</ele>
        <time>2026-05-13T12:43:47.000Z</time>
      </trkpt>
      <trkpt lat="44.22799" lon="5.39933">
        <ele>1046</ele>
        <time>2026-05-13T12:43:48.000Z</time>
      </trkpt>
      <trkpt lat="44.22799" lon="5.39933">
        <ele>1046</ele>
        <time>2026-05-13T12:43:49.000Z</time>
      </trkpt>
      <trkpt lat="44.22799" lon="5.39933">
        <ele>1046</ele>
        <time>2026-05-13T12:43:50.000Z</time>
      </trkpt>
      <trkpt lat="44.22799" lon="5.39933">
        <ele>1046</ele>
        <time>2026-05-13T12:43:51.000Z</time>
      </trkpt>
      <trkpt lat="44.22799" lon="5.39933">
        <ele>1046</ele>
        <time>2026-05-13T12:43:52.000Z</time>
      </trkpt>
      <trkpt lat="44.22798" lon="5.39933">
        <ele>1045</ele>
        <time>2026-05-13T12:43:53.000Z</time>
      </trkpt>
      <trkpt lat="44.22798" lon="5.39933">
        <ele>1045</ele>
        <time>2026-05-13T12:43:54.000Z</time>
      </trkpt>
      <trkpt lat="44.22798" lon="5.39933">
        <ele>1045</ele>
        <time>2026-05-13T12:43:55.000Z</time>
      </trkpt>
      <trkpt lat="44.22798" lon="5.39933">
        <ele>1045</ele>
        <time>2026-05-13T12:43:56.000Z</time>
      </trkpt>
      <trkpt lat="44.22798" lon="5.39933">
        <ele>1045</ele>
        <time>2026-05-13T12:43:57.000Z</time>
      </trkpt>
      <trkpt lat="44.22798" lon="5.39933">
        <ele>1045</ele>
        <time>2026-05-13T12:43:58.000Z</time>
      </trkpt>
      <trkpt lat="44.22798" lon="5.39933">
        <ele>1045</ele>
        <time>2026-05-13T12:43:59.000Z</time>
      </trkpt>
      <trkpt lat="44.22798" lon="5.39933">
        <ele>1045</ele>
        <time>2026-05-13T12:44:00.000Z</time>
      </trkpt>
      <trkpt lat="44.22798" lon="5.39933">
        <ele>1045</ele>
        <time>2026-05-13T12:44:01.000Z</time>
      </trkpt>
      <trkpt lat="44.22798" lon="5.39933">
        <ele>1045</ele>
        <time>2026-05-13T12:44:02.000Z</time>
      </trkpt>
      <trkpt lat="44.22798" lon="5.39933">
        <ele>1045</ele>
        <time>2026-05-13T12:44:03.000Z</time>
      </trkpt>
      <trkpt lat="44.22798" lon="5.39933">
        <ele>1045</ele>
        <time>2026-05-13T12:44:04.000Z</time>
      </trkpt>
      <trkpt lat="44.22798" lon="5.39933">
        <ele>1045</ele>
        <time>2026-05-13T12:44:05.000Z</time>
      </trkpt>
      <trkpt lat="44.22798" lon="5.39933">
        <ele>1045</ele>
        <time>2026-05-13T12:44:06.000Z</time>
      </trkpt>
      <trkpt lat="44.22798" lon="5.39933">
        <ele>1045</ele>
        <time>2026-05-13T12:44:07.000Z</time>
      </trkpt>
      <trkpt lat="44.22798" lon="5.39933">
        <ele>1045</ele>
        <time>2026-05-13T12:44:08.000Z</time>
      </trkpt>
      <trkpt lat="44.22798" lon="5.39933">
        <ele>1045</ele>
        <time>2026-05-13T12:44:09.000Z</time>
      </trkpt>
      <trkpt lat="44.22798" lon="5.39933">
        <ele>1045</ele>
        <time>2026-05-13T12:44:10.000Z</time>
      </trkpt>
      <trkpt lat="44.22798" lon="5.39933">
        <ele>1045</ele>
        <time>2026-05-13T12:44:11.000Z</time>
      </trkpt>
      <trkpt lat="44.22798" lon="5.39933">
        <ele>1045</ele>
        <time>2026-05-13T12:44:12.000Z</time>
      </trkpt>
      <trkpt lat="44.22798" lon="5.39933">
        <ele>1045</ele>
        <time>2026-05-13T12:44:13.000Z</time>
      </trkpt>
      <trkpt lat="44.22798" lon="5.39933">
        <ele>1045</ele>
        <time>2026-05-13T12:44:14.000Z</time>
      </trkpt>
      <trkpt lat="44.22798" lon="5.39933">
        <ele>1045</ele>
        <time>2026-05-13T12:44:15.000Z</time>
      </trkpt>
      <trkpt lat="44.22798" lon="5.39933">
        <ele>1045</ele>
        <time>2026-05-13T12:44:16.000Z</time>
      </trkpt>
      <trkpt lat="44.22798" lon="5.39933">
        <ele>1045</ele>
        <time>2026-05-13T12:44:17.000Z</time>
      </trkpt>
      <trkpt lat="44.22798" lon="5.39933">
        <ele>1045</ele>
        <time>2026-05-13T12:44:18.000Z</time>
      </trkpt>
      <trkpt lat="44.22798" lon="5.39933">
        <ele>1045</ele>
        <time>2026-05-13T12:44:19.000Z</time>
      </trkpt>
      <trkpt lat="44.22798" lon="5.39933">
        <ele>1045</ele>
        <time>2026-05-13T12:44:20.000Z</time>
      </trkpt>
      <trkpt lat="44.22798" lon="5.39933">
        <ele>1045</ele>
        <time>2026-05-13T12:44:21.000Z</time>
      </trkpt>
      <trkpt lat="44.22798" lon="5.39933">
        <ele>1045</ele>
        <time>2026-05-13T12:44:22.000Z</time>
      </trkpt>
      <trkpt lat="44.22798" lon="5.39933">
        <ele>1045</ele>
        <time>2026-05-13T12:44:23.000Z</time>
      </trkpt>
      <trkpt lat="44.22798" lon="5.39933">
        <ele>1045</ele>
        <time>2026-05-13T12:44:24.000Z</time>
      </trkpt>
      <trkpt lat="44.22798" lon="5.39933">
        <ele>1045</ele>
        <time>2026-05-13T12:44:25.000Z</time>
      </trkpt>
      <trkpt lat="44.22798" lon="5.39933">
        <ele>1045</ele>
        <time>2026-05-13T12:44:26.000Z</time>
      </trkpt>
      <trkpt lat="44.22798" lon="5.39933">
        <ele>1045</ele>
        <time>2026-05-13T12:44:27.000Z</time>
      </trkpt>
      <trkpt lat="44.22798" lon="5.39933">
        <ele>1045</ele>
        <time>2026-05-13T12:44:28.000Z</time>
      </trkpt>
      <trkpt lat="44.22798" lon="5.39933">
        <ele>1045</ele>
        <time>2026-05-13T12:44:29.000Z</time>
      </trkpt>
      <trkpt lat="44.22798" lon="5.39933">
        <ele>1045</ele>
        <time>2026-05-13T12:44:30.000Z</time>
      </trkpt>
      <trkpt lat="44.22798" lon="5.39933">
        <ele>1045</ele>
        <time>2026-05-13T12:44:31.000Z</time>
      </trkpt>
      <trkpt lat="44.22798" lon="5.39933">
        <ele>1045</ele>
        <time>2026-05-13T12:44:32.000Z</time>
      </trkpt>
      <trkpt lat="44.22798" lon="5.39933">
        <ele>1045</ele>
        <time>2026-05-13T12:44:33.000Z</time>
      </trkpt>
      <trkpt lat="44.22798" lon="5.39933">
        <ele>1045</ele>
        <time>2026-05-13T12:44:34.000Z</time>
      </trkpt>
      <trkpt lat="44.22798" lon="5.39933">
        <ele>1045</ele>
        <time>2026-05-13T12:44:35.000Z</time>
      </trkpt>
      <trkpt lat="44.22798" lon="5.39933">
        <ele>1045</ele>
        <time>2026-05-13T12:44:36.000Z</time>
      </trkpt>
      <trkpt lat="44.22798" lon="5.39933">
        <ele>1045</ele>
        <time>2026-05-13T12:44:37.000Z</time>
      </trkpt>
      <trkpt lat="44.22798" lon="5.39933">
        <ele>1045</ele>
        <time>2026-05-13T12:44:38.000Z</time>
      </trkpt>
      <trkpt lat="44.22798" lon="5.39933">
        <ele>1045</ele>
        <time>2026-05-13T12:44:39.000Z</time>
      </trkpt>
      <trkpt lat="44.22798" lon="5.39933">
        <ele>1045</ele>
        <time>2026-05-13T12:44:40.000Z</time>
      </trkpt>
      <trkpt lat="44.22798" lon="5.39933">
        <ele>1045</ele>
        <time>2026-05-13T12:44:41.000Z</time>
      </trkpt>
      <trkpt lat="44.22798" lon="5.39933">
        <ele>1045</ele>
        <time>2026-05-13T12:44:42.000Z</time>
      </trkpt>
      <trkpt lat="44.22798" lon="5.39933">
        <ele>1045</ele>
        <time>2026-05-13T12:44:43.000Z</time>
      </trkpt>
      <trkpt lat="44.22798" lon="5.39933">
        <ele>1045</ele>
        <time>2026-05-13T12:44:44.000Z</time>
      </trkpt>
      <trkpt lat="44.22798" lon="5.39933">
        <ele>1045</ele>
        <time>2026-05-13T12:44:45.000Z</time>
      </trkpt>
      <trkpt lat="44.22798" lon="5.39933">
        <ele>1045</ele>
        <time>2026-05-13T12:44:46.000Z</time>
      </trkpt>
      <trkpt lat="44.22798" lon="5.39933">
        <ele>1045</ele>
        <time>2026-05-13T12:44:47.000Z</time>
      </trkpt>
      <trkpt lat="44.22798" lon="5.39933">
        <ele>1045</ele>
        <time>2026-05-13T12:44:48.000Z</time>
      </trkpt>
      <trkpt lat="44.22798" lon="5.39933">
        <ele>1045</ele>
        <time>2026-05-13T12:44:49.000Z</time>
      </trkpt>
      <trkpt lat="44.22798" lon="5.39933">
        <ele>1045</ele>
        <time>2026-05-13T12:44:50.000Z</time>
      </trkpt>
      <trkpt lat="44.22798" lon="5.39933">
        <ele>1045</ele>
        <time>2026-05-13T12:44:51.000Z</time>
      </trkpt>
      <trkpt lat="44.22798" lon="5.39933">
        <ele>1045</ele>
        <time>2026-05-13T12:44:52.000Z</time>
      </trkpt>
      <trkpt lat="44.22798" lon="5.39933">
        <ele>1045</ele>
        <time>2026-05-13T12:44:53.000Z</time>
      </trkpt>
      <trkpt lat="44.22798" lon="5.39933">
        <ele>1045</ele>
        <time>2026-05-13T12:44:54.000Z</time>
      </trkpt>
      <trkpt lat="44.22798" lon="5.39933">
        <ele>1045</ele>
        <time>2026-05-13T12:44:55.000Z</time>
      </trkpt>
      <trkpt lat="44.22798" lon="5.39933">
        <ele>1045</ele>
        <time>2026-05-13T12:44:56.000Z</time>
      </trkpt>
      <trkpt lat="44.22798" lon="5.39933">
        <ele>1045</ele>
        <time>2026-05-13T12:44:57.000Z</time>
      </trkpt>
      <trkpt lat="44.22798" lon="5.39933">
        <ele>1045</ele>
        <time>2026-05-13T12:44:58.000Z</time>
      </trkpt>
      <trkpt lat="44.22798" lon="5.39933">
        <ele>1045</ele>
        <time>2026-05-13T12:44:59.000Z</time>
      </trkpt>
      <trkpt lat="44.22798" lon="5.39933">
        <ele>1045</ele>
        <time>2026-05-13T12:45:00.000Z</time>
      </trkpt>
      <trkpt lat="44.22798" lon="5.39933">
        <ele>1045</ele>
        <time>2026-05-13T12:45:01.000Z</time>
      </trkpt>
      <trkpt lat="44.22798" lon="5.39933">
        <ele>1045</ele>
        <time>2026-05-13T12:45:02.000Z</time>
      </trkpt>
      <trkpt lat="44.22798" lon="5.39933">
        <ele>1045</ele>
        <time>2026-05-13T12:45:03.000Z</time>
      </trkpt>
      <trkpt lat="44.22798" lon="5.39933">
        <ele>1045</ele>
        <time>2026-05-13T12:45:04.000Z</time>
      </trkpt>
      <trkpt lat="44.22798" lon="5.39933">
        <ele>1045</ele>
        <time>2026-05-13T12:45:05.000Z</time>
      </trkpt>
      <trkpt lat="44.22798" lon="5.39933">
        <ele>1045</ele>
        <time>2026-05-13T12:45:06.000Z</time>
      </trkpt>
      <trkpt lat="44.22798" lon="5.39933">
        <ele>1045</ele>
        <time>2026-05-13T12:45:07.000Z</time>
      </trkpt>
      <trkpt lat="44.22798" lon="5.39933">
        <ele>1045</ele>
        <time>2026-05-13T12:45:08.000Z</time>
      </trkpt>
      <trkpt lat="44.22798" lon="5.39933">
        <ele>1045</ele>
        <time>2026-05-13T12:45:09.000Z</time>
      </trkpt>
      <trkpt lat="44.22798" lon="5.39933">
        <ele>1045</ele>
        <time>2026-05-13T12:45:10.000Z</time>
      </trkpt>
      <trkpt lat="44.22798" lon="5.39933">
        <ele>1045</ele>
        <time>2026-05-13T12:45:11.000Z</time>
      </trkpt>
      <trkpt lat="44.22798" lon="5.39933">
        <ele>1045</ele>
        <time>2026-05-13T12:45:12.000Z</time>
      </trkpt>
      <trkpt lat="44.22798" lon="5.39933">
        <ele>1045</ele>
        <time>2026-05-13T12:45:13.000Z</time>
      </trkpt>
      <trkpt lat="44.22798" lon="5.39933">
        <ele>1045</ele>
        <time>2026-05-13T12:45:14.000Z</time>
      </trkpt>
      <trkpt lat="44.22798" lon="5.39933">
        <ele>1045</ele>
        <time>2026-05-13T12:45:15.000Z</time>
      </trkpt>
      <trkpt lat="44.22798" lon="5.39933">
        <ele>1045</ele>
        <time>2026-05-13T12:45:16.000Z</time>
      </trkpt>
      <trkpt lat="44.22798" lon="5.39933">
        <ele>1045</ele>
        <time>2026-05-13T12:45:17.000Z</time>
      </trkpt>
      <trkpt lat="44.22798" lon="5.39933">
        <ele>1045</ele>
        <time>2026-05-13T12:45:18.000Z</time>
      </trkpt>
      <trkpt lat="44.22798" lon="5.39933">
        <ele>1045</ele>
        <time>2026-05-13T12:45:19.000Z</time>
      </trkpt>
      <trkpt lat="44.22798" lon="5.39933">
        <ele>1045</ele>
        <time>2026-05-13T12:45:20.000Z</time>
      </trkpt>
      <trkpt lat="44.22798" lon="5.39933">
        <ele>1045</ele>
        <time>2026-05-13T12:45:21.000Z</time>
      </trkpt>
      <trkpt lat="44.22798" lon="5.39933">
        <ele>1045</ele>
        <time>2026-05-13T12:45:22.000Z</time>
      </trkpt>
      <trkpt lat="44.22798" lon="5.39933">
        <ele>1045</ele>
        <time>2026-05-13T12:45:23.000Z</time>
      </trkpt>
      <trkpt lat="44.22798" lon="5.39933">
        <ele>1045</ele>
        <time>2026-05-13T12:45:24.000Z</time>
      </trkpt>
      <trkpt lat="44.22798" lon="5.39933">
        <ele>1045</ele>
        <time>2026-05-13T12:45:25.000Z</time>
      </trkpt>
      <trkpt lat="44.22798" lon="5.39933">
        <ele>1045</ele>
        <time>2026-05-13T12:45:26.000Z</time>
      </trkpt>
      <trkpt lat="44.22798" lon="5.39933">
        <ele>1045</ele>
        <time>2026-05-13T12:45:27.000Z</time>
      </trkpt>
      <trkpt lat="44.22798" lon="5.39933">
        <ele>1045</ele>
        <time>2026-05-13T12:45:28.000Z</time>
      </trkpt>
      <trkpt lat="44.22798" lon="5.39933">
        <ele>1045</ele>
        <time>2026-05-13T12:45:29.000Z</time>
      </trkpt>
      <trkpt lat="44.22798" lon="5.39933">
        <ele>1045</ele>
        <time>2026-05-13T12:45:30.000Z</time>
      </trkpt>
      <trkpt lat="44.22798" lon="5.39933">
        <ele>1045</ele>
        <time>2026-05-13T12:45:31.000Z</time>
      </trkpt>
      <trkpt lat="44.22798" lon="5.39933">
        <ele>1045</ele>
        <time>2026-05-13T12:45:32.000Z</time>
      </trkpt>
      <trkpt lat="44.22798" lon="5.39933">
        <ele>1045</ele>
        <time>2026-05-13T12:45:33.000Z</time>
      </trkpt>
      <trkpt lat="44.22798" lon="5.39933">
        <ele>1045</ele>
        <time>2026-05-13T12:45:34.000Z</time>
      </trkpt>
      <trkpt lat="44.22798" lon="5.39933">
        <ele>1045</ele>
        <time>2026-05-13T12:45:35.000Z</time>
      </trkpt>
      <trkpt lat="44.22798" lon="5.39933">
        <ele>1045</ele>
        <time>2026-05-13T12:45:36.000Z</time>
      </trkpt>
      <trkpt lat="44.22798" lon="5.39933">
        <ele>1045</ele>
        <time>2026-05-13T12:45:37.000Z</time>
      </trkpt>
      <trkpt lat="44.22798" lon="5.39933">
        <ele>1045</ele>
        <time>2026-05-13T12:45:38.000Z</time>
      </trkpt>
      <trkpt lat="44.22798" lon="5.39933">
        <ele>1045</ele>
        <time>2026-05-13T12:45:39.000Z</time>
      </trkpt>
      <trkpt lat="44.22798" lon="5.39933">
        <ele>1045</ele>
        <time>2026-05-13T12:45:40.000Z</time>
      </trkpt>
      <trkpt lat="44.22798" lon="5.39933">
        <ele>1045</ele>
        <time>2026-05-13T12:45:41.000Z</time>
      </trkpt>
      <trkpt lat="44.22798" lon="5.39933">
        <ele>1045</ele>
        <time>2026-05-13T12:45:42.000Z</time>
      </trkpt>
      <trkpt lat="44.22798" lon="5.39933">
        <ele>1045</ele>
        <time>2026-05-13T12:45:43.000Z</time>
      </trkpt>
      <trkpt lat="44.22798" lon="5.39933">
        <ele>1045</ele>
        <time>2026-05-13T12:45:44.000Z</time>
      </trkpt>
      <trkpt lat="44.22798" lon="5.39933">
        <ele>1045</ele>
        <time>2026-05-13T12:45:45.000Z</time>
      </trkpt>
      <trkpt lat="44.22798" lon="5.39933">
        <ele>1045</ele>
        <time>2026-05-13T12:45:46.000Z</time>
      </trkpt>
      <trkpt lat="44.22798" lon="5.39933">
        <ele>1045</ele>
        <time>2026-05-13T12:45:47.000Z</time>
      </trkpt>
      <trkpt lat="44.22798" lon="5.39933">
        <ele>1045</ele>
        <time>2026-05-13T12:45:48.000Z</time>
      </trkpt>
      <trkpt lat="44.22798" lon="5.39933">
        <ele>1045</ele>
        <time>2026-05-13T12:45:49.000Z</time>
      </trkpt>
      <trkpt lat="44.22798" lon="5.39933">
        <ele>1045</ele>
        <time>2026-05-13T12:45:50.000Z</time>
      </trkpt>
      <trkpt lat="44.22798" lon="5.39933">
        <ele>1045</ele>
        <time>2026-05-13T12:45:51.000Z</time>
      </trkpt>
      <trkpt lat="44.22798" lon="5.39933">
        <ele>1045</ele>
        <time>2026-05-13T12:45:52.000Z</time>
      </trkpt>
      <trkpt lat="44.22798" lon="5.39933">
        <ele>1045</ele>
        <time>2026-05-13T12:45:53.000Z</time>
      </trkpt>
      <trkpt lat="44.22798" lon="5.39933">
        <ele>1045</ele>
        <time>2026-05-13T12:45:54.000Z</time>
      </trkpt>
      <trkpt lat="44.22798" lon="5.39933">
        <ele>1045</ele>
        <time>2026-05-13T12:45:55.000Z</time>
      </trkpt>
      <trkpt lat="44.22798" lon="5.39933">
        <ele>1045</ele>
        <time>2026-05-13T12:45:56.000Z</time>
      </trkpt>
      <trkpt lat="44.22798" lon="5.39933">
        <ele>1045</ele>
        <time>2026-05-13T12:45:57.000Z</time>
      </trkpt>
      <trkpt lat="44.22798" lon="5.39933">
        <ele>1045</ele>
        <time>2026-05-13T12:45:58.000Z</time>
      </trkpt>
      <trkpt lat="44.22798" lon="5.39933">
        <ele>1045</ele>
        <time>2026-05-13T12:45:59.000Z</time>
      </trkpt>
      <trkpt lat="44.22798" lon="5.39933">
        <ele>1045</ele>
        <time>2026-05-13T12:46:00.000Z</time>
      </trkpt>
      <trkpt lat="44.22798" lon="5.39933">
        <ele>1045</ele>
        <time>2026-05-13T12:46:01.000Z</time>
      </trkpt>
      <trkpt lat="44.22798" lon="5.39933">
        <ele>1045</ele>
        <time>2026-05-13T12:46:02.000Z</time>
      </trkpt>
      <trkpt lat="44.22798" lon="5.39933">
        <ele>1045</ele>
        <time>2026-05-13T12:46:03.000Z</time>
      </trkpt>
      <trkpt lat="44.22798" lon="5.39933">
        <ele>1045</ele>
        <time>2026-05-13T12:46:04.000Z</time>
      </trkpt>
      <trkpt lat="44.22798" lon="5.39933">
        <ele>1045</ele>
        <time>2026-05-13T12:46:05.000Z</time>
      </trkpt>
      <trkpt lat="44.22798" lon="5.39933">
        <ele>1045</ele>
        <time>2026-05-13T12:46:06.000Z</time>
      </trkpt>
      <trkpt lat="44.22798" lon="5.39933">
        <ele>1045</ele>
        <time>2026-05-13T12:46:07.000Z</time>
      </trkpt>
      <trkpt lat="44.22798" lon="5.39933">
        <ele>1045</ele>
        <time>2026-05-13T12:46:08.000Z</time>
      </trkpt>
      <trkpt lat="44.22798" lon="5.39933">
        <ele>1045</ele>
        <time>2026-05-13T12:46:09.000Z</time>
      </trkpt>
      <trkpt lat="44.22798" lon="5.39933">
        <ele>1045</ele>
        <time>2026-05-13T12:46:10.000Z</time>
      </trkpt>
      <trkpt lat="44.22798" lon="5.39933">
        <ele>1045</ele>
        <time>2026-05-13T12:46:11.000Z</time>
      </trkpt>
      <trkpt lat="44.22798" lon="5.39933">
        <ele>1045</ele>
        <time>2026-05-13T12:46:12.000Z</time>
      </trkpt>
      <trkpt lat="44.22798" lon="5.39933">
        <ele>1045</ele>
        <time>2026-05-13T12:46:13.000Z</time>
      </trkpt>
      <trkpt lat="44.22798" lon="5.39933">
        <ele>1045</ele>
        <time>2026-05-13T12:46:14.000Z</time>
      </trkpt>
      <trkpt lat="44.22798" lon="5.39933">
        <ele>1045</ele>
        <time>2026-05-13T12:46:15.000Z</time>
      </trkpt>
      <trkpt lat="44.22798" lon="5.39933">
        <ele>1045</ele>
        <time>2026-05-13T12:46:16.000Z</time>
      </trkpt>
      <trkpt lat="44.22798" lon="5.39933">
        <ele>1045</ele>
        <time>2026-05-13T12:46:17.000Z</time>
      </trkpt>
      <trkpt lat="44.22798" lon="5.39933">
        <ele>1045</ele>
        <time>2026-05-13T12:46:18.000Z</time>
      </trkpt>
      <trkpt lat="44.22798" lon="5.39933">
        <ele>1045</ele>
        <time>2026-05-13T12:46:19.000Z</time>
      </trkpt>
      <trkpt lat="44.22798" lon="5.39933">
        <ele>1045</ele>
        <time>2026-05-13T12:46:20.000Z</time>
      </trkpt>
      <trkpt lat="44.22798" lon="5.39933">
        <ele>1045</ele>
        <time>2026-05-13T12:46:21.000Z</time>
      </trkpt>
      <trkpt lat="44.22798" lon="5.39933">
        <ele>1045</ele>
        <time>2026-05-13T12:46:22.000Z</time>
      </trkpt>
      <trkpt lat="44.22798" lon="5.39933">
        <ele>1045</ele>
        <time>2026-05-13T12:46:23.000Z</time>
      </trkpt>
      <trkpt lat="44.22798" lon="5.39933">
        <ele>1045</ele>
        <time>2026-05-13T12:46:24.000Z</time>
      </trkpt>
      <trkpt lat="44.22798" lon="5.39933">
        <ele>1045</ele>
        <time>2026-05-13T12:46:25.000Z</time>
      </trkpt>
      <trkpt lat="44.22798" lon="5.39933">
        <ele>1045</ele>
        <time>2026-05-13T12:46:26.000Z</time>
      </trkpt>
      <trkpt lat="44.22798" lon="5.39933">
        <ele>1045</ele>
        <time>2026-05-13T12:46:27.000Z</time>
      </trkpt>
      <trkpt lat="44.22798" lon="5.39933">
        <ele>1045</ele>
        <time>2026-05-13T12:46:28.000Z</time>
      </trkpt>
      <trkpt lat="44.22798" lon="5.39933">
        <ele>1045</ele>
        <time>2026-05-13T12:46:29.000Z</time>
      </trkpt>
      <trkpt lat="44.22798" lon="5.39933">
        <ele>1045</ele>
        <time>2026-05-13T12:46:30.000Z</time>
      </trkpt>
      <trkpt lat="44.22798" lon="5.39933">
        <ele>1045</ele>
        <time>2026-05-13T12:46:31.000Z</time>
      </trkpt>
      <trkpt lat="44.22798" lon="5.39933">
        <ele>1045</ele>
        <time>2026-05-13T12:46:32.000Z</time>
      </trkpt>
      <trkpt lat="44.22798" lon="5.39933">
        <ele>1045</ele>
        <time>2026-05-13T12:46:33.000Z</time>
      </trkpt>
      <trkpt lat="44.22798" lon="5.39933">
        <ele>1045</ele>
        <time>2026-05-13T12:46:34.000Z</time>
      </trkpt>
      <trkpt lat="44.22798" lon="5.39933">
        <ele>1045</ele>
        <time>2026-05-13T12:46:35.000Z</time>
      </trkpt>
      <trkpt lat="44.22798" lon="5.39933">
        <ele>1045</ele>
        <time>2026-05-13T12:46:36.000Z</time>
      </trkpt>
      <trkpt lat="44.22798" lon="5.39933">
        <ele>1045</ele>
        <time>2026-05-13T12:46:37.000Z</time>
      </trkpt>
      <trkpt lat="44.22798" lon="5.39933">
        <ele>1045</ele>
        <time>2026-05-13T12:46:38.000Z</time>
      </trkpt>
      <trkpt lat="44.22798" lon="5.39933">
        <ele>1045</ele>
        <time>2026-05-13T12:46:39.000Z</time>
      </trkpt>
      <trkpt lat="44.22798" lon="5.39933">
        <ele>1045</ele>
        <time>2026-05-13T12:46:40.000Z</time>
      </trkpt>
      <trkpt lat="44.22798" lon="5.39933">
        <ele>1045</ele>
        <time>2026-05-13T12:46:41.000Z</time>
      </trkpt>
      <trkpt lat="44.22798" lon="5.39933">
        <ele>1045</ele>
        <time>2026-05-13T12:46:42.000Z</time>
      </trkpt>
      <trkpt lat="44.22798" lon="5.39933">
        <ele>1045</ele>
        <time>2026-05-13T12:46:43.000Z</time>
      </trkpt>
      <trkpt lat="44.22798" lon="5.39933">
        <ele>1045</ele>
        <time>2026-05-13T12:46:44.000Z</time>
      </trkpt>
      <trkpt lat="44.22798" lon="5.39933">
        <ele>1045</ele>
        <time>2026-05-13T12:46:45.000Z</time>
      </trkpt>
      <trkpt lat="44.22798" lon="5.39933">
        <ele>1045</ele>
        <time>2026-05-13T12:46:46.000Z</time>
      </trkpt>
      <trkpt lat="44.22798" lon="5.39933">
        <ele>1045</ele>
        <time>2026-05-13T12:46:47.000Z</time>
      </trkpt>
      <trkpt lat="44.22798" lon="5.39933">
        <ele>1045</ele>
        <time>2026-05-13T12:46:48.000Z</time>
      </trkpt>
      <trkpt lat="44.22798" lon="5.39933">
        <ele>1045</ele>
        <time>2026-05-13T12:46:49.000Z</time>
      </trkpt>
      <trkpt lat="44.22798" lon="5.39933">
        <ele>1045</ele>
        <time>2026-05-13T12:46:50.000Z</time>
      </trkpt>
      <trkpt lat="44.22798" lon="5.39933">
        <ele>1045</ele>
        <time>2026-05-13T12:46:51.000Z</time>
      </trkpt>
      <trkpt lat="44.22798" lon="5.39933">
        <ele>1045</ele>
        <time>2026-05-13T12:46:52.000Z</time>
      </trkpt>
      <trkpt lat="44.22798" lon="5.39933">
        <ele>1045</ele>
        <time>2026-05-13T12:46:53.000Z</time>
      </trkpt>
      <trkpt lat="44.22798" lon="5.39933">
        <ele>1045</ele>
        <time>2026-05-13T12:46:54.000Z</time>
      </trkpt>
      <trkpt lat="44.22798" lon="5.39933">
        <ele>1045</ele>
        <time>2026-05-13T12:46:55.000Z</time>
      </trkpt>
      <trkpt lat="44.22798" lon="5.39933">
        <ele>1045</ele>
        <time>2026-05-13T12:46:56.000Z</time>
      </trkpt>
      <trkpt lat="44.22798" lon="5.39933">
        <ele>1045</ele>
        <time>2026-05-13T12:46:57.000Z</time>
      </trkpt>
      <trkpt lat="44.22798" lon="5.39933">
        <ele>1045</ele>
        <time>2026-05-13T12:46:58.000Z</time>
      </trkpt>
      <trkpt lat="44.22798" lon="5.39933">
        <ele>1045</ele>
        <time>2026-05-13T12:46:59.000Z</time>
      </trkpt>
      <trkpt lat="44.22798" lon="5.39933">
        <ele>1045</ele>
        <time>2026-05-13T12:47:00.000Z</time>
      </trkpt>
      <trkpt lat="44.22798" lon="5.39933">
        <ele>1045</ele>
        <time>2026-05-13T12:47:01.000Z</time>
      </trkpt>
      <trkpt lat="44.22798" lon="5.39933">
        <ele>1045</ele>
        <time>2026-05-13T12:47:02.000Z</time>
      </trkpt>
      <trkpt lat="44.22798" lon="5.39933">
        <ele>1045</ele>
        <time>2026-05-13T12:47:03.000Z</time>
      </trkpt>
      <trkpt lat="44.22798" lon="5.39933">
        <ele>1045</ele>
        <time>2026-05-13T12:47:04.000Z</time>
      </trkpt>
      <trkpt lat="44.22798" lon="5.39933">
        <ele>1045</ele>
        <time>2026-05-13T12:47:05.000Z</time>
      </trkpt>
      <trkpt lat="44.22798" lon="5.39933">
        <ele>1045</ele>
        <time>2026-05-13T12:47:06.000Z</time>
      </trkpt>
      <trkpt lat="44.22798" lon="5.39933">
        <ele>1045</ele>
        <time>2026-05-13T12:47:07.000Z</time>
      </trkpt>
      <trkpt lat="44.22798" lon="5.39933">
        <ele>1045</ele>
        <time>2026-05-13T12:47:08.000Z</time>
      </trkpt>
      <trkpt lat="44.22798" lon="5.39933">
        <ele>1045</ele>
        <time>2026-05-13T12:47:09.000Z</time>
      </trkpt>
      <trkpt lat="44.22798" lon="5.39933">
        <ele>1045</ele>
        <time>2026-05-13T12:47:10.000Z</time>
      </trkpt>
      <trkpt lat="44.22798" lon="5.39933">
        <ele>1045</ele>
        <time>2026-05-13T12:47:11.000Z</time>
      </trkpt>
      <trkpt lat="44.22798" lon="5.39933">
        <ele>1045</ele>
        <time>2026-05-13T12:47:12.000Z</time>
      </trkpt>
      <trkpt lat="44.22798" lon="5.39933">
        <ele>1045</ele>
        <time>2026-05-13T12:47:13.000Z</time>
      </trkpt>
      <trkpt lat="44.22798" lon="5.39933">
        <ele>1045</ele>
        <time>2026-05-13T12:47:14.000Z</time>
      </trkpt>
      <trkpt lat="44.22798" lon="5.39933">
        <ele>1045</ele>
        <time>2026-05-13T12:47:15.000Z</time>
      </trkpt>
      <trkpt lat="44.22798" lon="5.39933">
        <ele>1045</ele>
        <time>2026-05-13T12:47:16.000Z</time>
      </trkpt>
      <trkpt lat="44.22798" lon="5.39933">
        <ele>1045</ele>
        <time>2026-05-13T12:47:17.000Z</time>
      </trkpt>
      <trkpt lat="44.22798" lon="5.39933">
        <ele>1045</ele>
        <time>2026-05-13T12:47:18.000Z</time>
      </trkpt>
      <trkpt lat="44.22798" lon="5.39933">
        <ele>1045</ele>
        <time>2026-05-13T12:47:19.000Z</time>
      </trkpt>
      <trkpt lat="44.22798" lon="5.39933">
        <ele>1045</ele>
        <time>2026-05-13T12:47:20.000Z</time>
      </trkpt>
      <trkpt lat="44.22798" lon="5.39933">
        <ele>1045</ele>
        <time>2026-05-13T12:47:21.000Z</time>
      </trkpt>
      <trkpt lat="44.22798" lon="5.39933">
        <ele>1045</ele>
        <time>2026-05-13T12:47:22.000Z</time>
      </trkpt>
      <trkpt lat="44.22798" lon="5.39933">
        <ele>1045</ele>
        <time>2026-05-13T12:47:23.000Z</time>
      </trkpt>
      <trkpt lat="44.22798" lon="5.39933">
        <ele>1045</ele>
        <time>2026-05-13T12:47:24.000Z</time>
      </trkpt>
      <trkpt lat="44.22798" lon="5.39933">
        <ele>1045</ele>
        <time>2026-05-13T12:47:25.000Z</time>
      </trkpt>
      <trkpt lat="44.22798" lon="5.39933">
        <ele>1045</ele>
        <time>2026-05-13T12:47:26.000Z</time>
      </trkpt>
      <trkpt lat="44.22798" lon="5.39933">
        <ele>1045</ele>
        <time>2026-05-13T12:47:27.000Z</time>
      </trkpt>
      <trkpt lat="44.22798" lon="5.39933">
        <ele>1045</ele>
        <time>2026-05-13T12:47:28.000Z</time>
      </trkpt>
      <trkpt lat="44.22798" lon="5.39933">
        <ele>1045</ele>
        <time>2026-05-13T12:47:29.000Z</time>
      </trkpt>
      <trkpt lat="44.22798" lon="5.39933">
        <ele>1045</ele>
        <time>2026-05-13T12:47:30.000Z</time>
      </trkpt>
      <trkpt lat="44.22798" lon="5.39933">
        <ele>1045</ele>
        <time>2026-05-13T12:47:31.000Z</time>
      </trkpt>
      <trkpt lat="44.22798" lon="5.39933">
        <ele>1045</ele>
        <time>2026-05-13T12:47:32.000Z</time>
      </trkpt>
      <trkpt lat="44.22798" lon="5.39933">
        <ele>1045</ele>
        <time>2026-05-13T12:47:33.000Z</time>
      </trkpt>
      <trkpt lat="44.22798" lon="5.39933">
        <ele>1045</ele>
        <time>2026-05-13T12:47:34.000Z</time>
      </trkpt>
      <trkpt lat="44.22798" lon="5.39933">
        <ele>1045</ele>
        <time>2026-05-13T12:47:35.000Z</time>
      </trkpt>
      <trkpt lat="44.22798" lon="5.39933">
        <ele>1045</ele>
        <time>2026-05-13T12:47:36.000Z</time>
      </trkpt>
      <trkpt lat="44.22798" lon="5.39933">
        <ele>1045</ele>
        <time>2026-05-13T12:47:37.000Z</time>
      </trkpt>
      <trkpt lat="44.22798" lon="5.39933">
        <ele>1045</ele>
        <time>2026-05-13T12:47:38.000Z</time>
      </trkpt>
      <trkpt lat="44.22798" lon="5.39933">
        <ele>1045</ele>
        <time>2026-05-13T12:47:39.000Z</time>
      </trkpt>
      <trkpt lat="44.22798" lon="5.39933">
        <ele>1045</ele>
        <time>2026-05-13T12:47:40.000Z</time>
      </trkpt>
      <trkpt lat="44.22798" lon="5.39933">
        <ele>1045</ele>
        <time>2026-05-13T12:47:41.000Z</time>
      </trkpt>
      <trkpt lat="44.22798" lon="5.39933">
        <ele>1045</ele>
        <time>2026-05-13T12:47:42.000Z</time>
      </trkpt>
      <trkpt lat="44.22798" lon="5.39933">
        <ele>1045</ele>
        <time>2026-05-13T12:47:43.000Z</time>
      </trkpt>
      <trkpt lat="44.22798" lon="5.39933">
        <ele>1045</ele>
        <time>2026-05-13T12:47:44.000Z</time>
      </trkpt>
      <trkpt lat="44.22798" lon="5.39933">
        <ele>1045</ele>
        <time>2026-05-13T12:47:45.000Z</time>
      </trkpt>
      <trkpt lat="44.22798" lon="5.39933">
        <ele>1045</ele>
        <time>2026-05-13T12:47:46.000Z</time>
      </trkpt>
      <trkpt lat="44.22798" lon="5.39933">
        <ele>1045</ele>
        <time>2026-05-13T12:47:47.000Z</time>
      </trkpt>
      <trkpt lat="44.22798" lon="5.39933">
        <ele>1045</ele>
        <time>2026-05-13T12:47:48.000Z</time>
      </trkpt>
      <trkpt lat="44.22798" lon="5.39933">
        <ele>1045</ele>
        <time>2026-05-13T12:47:49.000Z</time>
      </trkpt>
      <trkpt lat="44.22798" lon="5.39933">
        <ele>1045</ele>
        <time>2026-05-13T12:47:50.000Z</time>
      </trkpt>
      <trkpt lat="44.22798" lon="5.39933">
        <ele>1045</ele>
        <time>2026-05-13T12:47:51.000Z</time>
      </trkpt>
      <trkpt lat="44.22798" lon="5.39933">
        <ele>1045</ele>
        <time>2026-05-13T12:47:52.000Z</time>
      </trkpt>
      <trkpt lat="44.22798" lon="5.39933">
        <ele>1045</ele>
        <time>2026-05-13T12:47:53.000Z</time>
      </trkpt>
      <trkpt lat="44.22798" lon="5.39933">
        <ele>1045</ele>
        <time>2026-05-13T12:47:54.000Z</time>
      </trkpt>
      <trkpt lat="44.22798" lon="5.39933">
        <ele>1045</ele>
        <time>2026-05-13T12:47:55.000Z</time>
      </trkpt>
      <trkpt lat="44.22798" lon="5.39933">
        <ele>1045</ele>
        <time>2026-05-13T12:47:56.000Z</time>
      </trkpt>
      <trkpt lat="44.22798" lon="5.39933">
        <ele>1045</ele>
        <time>2026-05-13T12:47:57.000Z</time>
      </trkpt>
      <trkpt lat="44.22798" lon="5.39933">
        <ele>1045</ele>
        <time>2026-05-13T12:47:58.000Z</time>
      </trkpt>
      <trkpt lat="44.22798" lon="5.39933">
        <ele>1045</ele>
        <time>2026-05-13T12:47:59.000Z</time>
      </trkpt>
      <trkpt lat="44.22798" lon="5.39933">
        <ele>1045</ele>
        <time>2026-05-13T12:48:00.000Z</time>
      </trkpt>
      <trkpt lat="44.22798" lon="5.39933">
        <ele>1045</ele>
        <time>2026-05-13T12:48:01.000Z</time>
      </trkpt>
      <trkpt lat="44.22798" lon="5.39933">
        <ele>1045</ele>
        <time>2026-05-13T12:48:02.000Z</time>
      </trkpt>
      <trkpt lat="44.22798" lon="5.39933">
        <ele>1045</ele>
        <time>2026-05-13T12:48:03.000Z</time>
      </trkpt>
      <trkpt lat="44.22798" lon="5.39933">
        <ele>1045</ele>
        <time>2026-05-13T12:48:04.000Z</time>
      </trkpt>
      <trkpt lat="44.22798" lon="5.39933">
        <ele>1045</ele>
        <time>2026-05-13T12:48:05.000Z</time>
      </trkpt>
      <trkpt lat="44.22798" lon="5.39933">
        <ele>1045</ele>
        <time>2026-05-13T12:48:06.000Z</time>
      </trkpt>
      <trkpt lat="44.22798" lon="5.39933">
        <ele>1045</ele>
        <time>2026-05-13T12:48:07.000Z</time>
      </trkpt>
      <trkpt lat="44.22798" lon="5.39933">
        <ele>1045</ele>
        <time>2026-05-13T12:48:08.000Z</time>
      </trkpt>
      <trkpt lat="44.22798" lon="5.39933">
        <ele>1045</ele>
        <time>2026-05-13T12:48:09.000Z</time>
      </trkpt>
      <trkpt lat="44.22798" lon="5.39933">
        <ele>1045</ele>
        <time>2026-05-13T12:48:10.000Z</time>
      </trkpt>
      <trkpt lat="44.22798" lon="5.39933">
        <ele>1045</ele>
        <time>2026-05-13T12:48:11.000Z</time>
      </trkpt>
      <trkpt lat="44.22798" lon="5.39933">
        <ele>1045</ele>
        <time>2026-05-13T12:48:12.000Z</time>
      </trkpt>
      <trkpt lat="44.22798" lon="5.39933">
        <ele>1045</ele>
        <time>2026-05-13T12:48:13.000Z</time>
      </trkpt>
      <trkpt lat="44.22798" lon="5.39933">
        <ele>1045</ele>
        <time>2026-05-13T12:48:14.000Z</time>
      </trkpt>
      <trkpt lat="44.22798" lon="5.39933">
        <ele>1045</ele>
        <time>2026-05-13T12:48:15.000Z</time>
      </trkpt>
      <trkpt lat="44.22798" lon="5.39933">
        <ele>1045</ele>
        <time>2026-05-13T12:48:16.000Z</time>
      </trkpt>
      <trkpt lat="44.22798" lon="5.39933">
        <ele>1045</ele>
        <time>2026-05-13T12:48:17.000Z</time>
      </trkpt>
      <trkpt lat="44.22798" lon="5.39933">
        <ele>1045</ele>
        <time>2026-05-13T12:48:18.000Z</time>
      </trkpt>
      <trkpt lat="44.22798" lon="5.39933">
        <ele>1045</ele>
        <time>2026-05-13T12:48:19.000Z</time>
      </trkpt>
      <trkpt lat="44.22798" lon="5.39933">
        <ele>1045</ele>
        <time>2026-05-13T12:48:20.000Z</time>
      </trkpt>
      <trkpt lat="44.22798" lon="5.39933">
        <ele>1045</ele>
        <time>2026-05-13T12:48:21.000Z</time>
      </trkpt>
      <trkpt lat="44.22798" lon="5.39933">
        <ele>1045</ele>
        <time>2026-05-13T12:48:22.000Z</time>
      </trkpt>
      <trkpt lat="44.22798" lon="5.39933">
        <ele>1045</ele>
        <time>2026-05-13T12:48:23.000Z</time>
      </trkpt>
      <trkpt lat="44.22798" lon="5.39933">
        <ele>1045</ele>
        <time>2026-05-13T12:48:24.000Z</time>
      </trkpt>
      <trkpt lat="44.22798" lon="5.39933">
        <ele>1045</ele>
        <time>2026-05-13T12:48:25.000Z</time>
      </trkpt>
      <trkpt lat="44.22798" lon="5.39933">
        <ele>1045</ele>
        <time>2026-05-13T12:48:26.000Z</time>
      </trkpt>
      <trkpt lat="44.22798" lon="5.39933">
        <ele>1045</ele>
        <time>2026-05-13T12:48:27.000Z</time>
      </trkpt>
      <trkpt lat="44.22798" lon="5.39933">
        <ele>1045</ele>
        <time>2026-05-13T12:48:28.000Z</time>
      </trkpt>
      <trkpt lat="44.22798" lon="5.39933">
        <ele>1045</ele>
        <time>2026-05-13T12:48:29.000Z</time>
      </trkpt>
      <trkpt lat="44.22798" lon="5.39933">
        <ele>1045</ele>
        <time>2026-05-13T12:48:30.000Z</time>
      </trkpt>
      <trkpt lat="44.22798" lon="5.39933">
        <ele>1045</ele>
        <time>2026-05-13T12:48:31.000Z</time>
      </trkpt>
      <trkpt lat="44.22798" lon="5.39933">
        <ele>1045</ele>
        <time>2026-05-13T12:48:32.000Z</time>
      </trkpt>
      <trkpt lat="44.22798" lon="5.39933">
        <ele>1045</ele>
        <time>2026-05-13T12:48:33.000Z</time>
      </trkpt>
      <trkpt lat="44.22798" lon="5.39933">
        <ele>1045</ele>
        <time>2026-05-13T12:48:34.000Z</time>
      </trkpt>
      <trkpt lat="44.22798" lon="5.39933">
        <ele>1044</ele>
        <time>2026-05-13T12:48:35.000Z</time>
      </trkpt>
      <trkpt lat="44.22798" lon="5.39933">
        <ele>1043</ele>
        <time>2026-05-13T12:48:36.000Z</time>
      </trkpt>
      <trkpt lat="44.22797" lon="5.39933">
        <ele>1043</ele>
        <time>2026-05-13T12:48:37.000Z</time>
      </trkpt>
      <trkpt lat="44.22796" lon="5.39933">
        <ele>1043</ele>
        <time>2026-05-13T12:48:38.000Z</time>
      </trkpt>
      <trkpt lat="44.22796" lon="5.39932">
        <ele>1043</ele>
        <time>2026-05-13T12:48:39.000Z</time>
      </trkpt>
      <trkpt lat="44.22796" lon="5.39931">
        <ele>1043</ele>
        <time>2026-05-13T12:48:40.000Z</time>
      </trkpt>
      <trkpt lat="44.22795" lon="5.3993">
        <ele>1044</ele>
        <time>2026-05-13T12:48:41.000Z</time>
      </trkpt>
      <trkpt lat="44.22795" lon="5.3993">
        <ele>1044</ele>
        <time>2026-05-13T12:48:42.000Z</time>
      </trkpt>
      <trkpt lat="44.22794" lon="5.39929">
        <ele>1044</ele>
        <time>2026-05-13T12:48:43.000Z</time>
      </trkpt>
      <trkpt lat="44.22794" lon="5.39928">
        <ele>1044</ele>
        <time>2026-05-13T12:48:44.000Z</time>
      </trkpt>
      <trkpt lat="44.22793" lon="5.39928">
        <ele>1044</ele>
        <time>2026-05-13T12:48:45.000Z</time>
      </trkpt>
      <trkpt lat="44.22792" lon="5.39928">
        <ele>1044</ele>
        <time>2026-05-13T12:48:46.000Z</time>
      </trkpt>
      <trkpt lat="44.22791" lon="5.39929">
        <ele>1044</ele>
        <time>2026-05-13T12:48:47.000Z</time>
      </trkpt>
      <trkpt lat="44.22791" lon="5.39929">
        <ele>1044</ele>
        <time>2026-05-13T12:48:48.000Z</time>
      </trkpt>
      <trkpt lat="44.2279" lon="5.39929">
        <ele>1044</ele>
        <time>2026-05-13T12:48:49.000Z</time>
      </trkpt>
      <trkpt lat="44.2279" lon="5.39929">
        <ele>1044</ele>
        <time>2026-05-13T12:48:50.000Z</time>
      </trkpt>
      <trkpt lat="44.22789" lon="5.3993">
        <ele>1044</ele>
        <time>2026-05-13T12:48:51.000Z</time>
      </trkpt>
      <trkpt lat="44.22788" lon="5.3993">
        <ele>1044</ele>
        <time>2026-05-13T12:48:52.000Z</time>
      </trkpt>
      <trkpt lat="44.22789" lon="5.39931">
        <ele>1044</ele>
        <time>2026-05-13T12:48:53.000Z</time>
      </trkpt>
      <trkpt lat="44.22789" lon="5.39931">
        <ele>1043</ele>
        <time>2026-05-13T12:48:54.000Z</time>
      </trkpt>
      <trkpt lat="44.22789" lon="5.39931">
        <ele>1044</ele>
        <time>2026-05-13T12:48:55.000Z</time>
      </trkpt>
      <trkpt lat="44.22788" lon="5.39931">
        <ele>1044</ele>
        <time>2026-05-13T12:48:56.000Z</time>
      </trkpt>
      <trkpt lat="44.22788" lon="5.39931">
        <ele>1044</ele>
        <time>2026-05-13T12:48:57.000Z</time>
      </trkpt>
      <trkpt lat="44.22787" lon="5.39931">
        <ele>1044</ele>
        <time>2026-05-13T12:48:58.000Z</time>
      </trkpt>
      <trkpt lat="44.22786" lon="5.39931">
        <ele>1044</ele>
        <time>2026-05-13T12:48:59.000Z</time>
      </trkpt>
      <trkpt lat="44.22787" lon="5.3993">
        <ele>1044</ele>
        <time>2026-05-13T12:49:00.000Z</time>
      </trkpt>
      <trkpt lat="44.22787" lon="5.3993">
        <ele>1044</ele>
        <time>2026-05-13T12:49:01.000Z</time>
      </trkpt>
      <trkpt lat="44.22787" lon="5.39929">
        <ele>1045</ele>
        <time>2026-05-13T12:49:02.000Z</time>
      </trkpt>
      <trkpt lat="44.22787" lon="5.39929">
        <ele>1045</ele>
        <time>2026-05-13T12:49:03.000Z</time>
      </trkpt>
      <trkpt lat="44.22787" lon="5.39929">
        <ele>1045</ele>
        <time>2026-05-13T12:49:04.000Z</time>
      </trkpt>
      <trkpt lat="44.22786" lon="5.39929">
        <ele>1045</ele>
        <time>2026-05-13T12:49:05.000Z</time>
      </trkpt>
      <trkpt lat="44.22787" lon="5.39928">
        <ele>1045</ele>
        <time>2026-05-13T12:49:06.000Z</time>
      </trkpt>
      <trkpt lat="44.22786" lon="5.39928">
        <ele>1045</ele>
        <time>2026-05-13T12:49:07.000Z</time>
      </trkpt>
      <trkpt lat="44.22787" lon="5.3993">
        <ele>1045</ele>
        <time>2026-05-13T12:49:08.000Z</time>
      </trkpt>
      <trkpt lat="44.22786" lon="5.3993">
        <ele>1045</ele>
        <time>2026-05-13T12:49:09.000Z</time>
      </trkpt>
      <trkpt lat="44.22786" lon="5.3993">
        <ele>1045</ele>
        <time>2026-05-13T12:49:10.000Z</time>
      </trkpt>
      <trkpt lat="44.22786" lon="5.3993">
        <ele>1045</ele>
        <time>2026-05-13T12:49:11.000Z</time>
      </trkpt>
      <trkpt lat="44.22786" lon="5.39931">
        <ele>1045</ele>
        <time>2026-05-13T12:49:12.000Z</time>
      </trkpt>
      <trkpt lat="44.22786" lon="5.3993">
        <ele>1045</ele>
        <time>2026-05-13T12:49:13.000Z</time>
      </trkpt>
      <trkpt lat="44.22786" lon="5.3993">
        <ele>1045</ele>
        <time>2026-05-13T12:49:14.000Z</time>
      </trkpt>
      <trkpt lat="44.22785" lon="5.3993">
        <ele>1045</ele>
        <time>2026-05-13T12:49:15.000Z</time>
      </trkpt>
      <trkpt lat="44.22785" lon="5.3993">
        <ele>1045</ele>
        <time>2026-05-13T12:49:16.000Z</time>
      </trkpt>
      <trkpt lat="44.22785" lon="5.3993">
        <ele>1045</ele>
        <time>2026-05-13T12:49:17.000Z</time>
      </trkpt>
      <trkpt lat="44.22786" lon="5.3993">
        <ele>1045</ele>
        <time>2026-05-13T12:49:18.000Z</time>
      </trkpt>
      <trkpt lat="44.22785" lon="5.3993">
        <ele>1045</ele>
        <time>2026-05-13T12:49:19.000Z</time>
      </trkpt>
      <trkpt lat="44.22785" lon="5.3993">
        <ele>1045</ele>
        <time>2026-05-13T12:49:20.000Z</time>
      </trkpt>
      <trkpt lat="44.22785" lon="5.3993">
        <ele>1045</ele>
        <time>2026-05-13T12:49:21.000Z</time>
      </trkpt>
      <trkpt lat="44.22784" lon="5.3993">
        <ele>1044</ele>
        <time>2026-05-13T12:49:22.000Z</time>
      </trkpt>
      <trkpt lat="44.22784" lon="5.3993">
        <ele>1044</ele>
        <time>2026-05-13T12:49:23.000Z</time>
      </trkpt>
      <trkpt lat="44.22784" lon="5.39932">
        <ele>1045</ele>
        <time>2026-05-13T12:49:24.000Z</time>
      </trkpt>
      <trkpt lat="44.22785" lon="5.39932">
        <ele>1045</ele>
        <time>2026-05-13T12:49:25.000Z</time>
      </trkpt>
      <trkpt lat="44.22786" lon="5.39933">
        <ele>1045</ele>
        <time>2026-05-13T12:49:26.000Z</time>
      </trkpt>
      <trkpt lat="44.22787" lon="5.39933">
        <ele>1045</ele>
        <time>2026-05-13T12:49:27.000Z</time>
      </trkpt>
      <trkpt lat="44.22788" lon="5.39932">
        <ele>1045</ele>
        <time>2026-05-13T12:49:28.000Z</time>
      </trkpt>
      <trkpt lat="44.22789" lon="5.39931">
        <ele>1045</ele>
        <time>2026-05-13T12:49:29.000Z</time>
      </trkpt>
      <trkpt lat="44.2279" lon="5.3993">
        <ele>1045</ele>
        <time>2026-05-13T12:49:30.000Z</time>
      </trkpt>
      <trkpt lat="44.22791" lon="5.39929">
        <ele>1045</ele>
        <time>2026-05-13T12:49:31.000Z</time>
      </trkpt>
      <trkpt lat="44.22791" lon="5.39928">
        <ele>1045</ele>
        <time>2026-05-13T12:49:32.000Z</time>
      </trkpt>
      <trkpt lat="44.22792" lon="5.39928">
        <ele>1045</ele>
        <time>2026-05-13T12:49:33.000Z</time>
      </trkpt>
      <trkpt lat="44.22793" lon="5.39928">
        <ele>1045</ele>
        <time>2026-05-13T12:49:34.000Z</time>
      </trkpt>
      <trkpt lat="44.22793" lon="5.39928">
        <ele>1044</ele>
        <time>2026-05-13T12:49:35.000Z</time>
      </trkpt>
      <trkpt lat="44.22794" lon="5.39928">
        <ele>1044</ele>
        <time>2026-05-13T12:49:36.000Z</time>
      </trkpt>
      <trkpt lat="44.22794" lon="5.39927">
        <ele>1044</ele>
        <time>2026-05-13T12:49:37.000Z</time>
      </trkpt>
      <trkpt lat="44.22795" lon="5.39928">
        <ele>1044</ele>
        <time>2026-05-13T12:49:38.000Z</time>
      </trkpt>
      <trkpt lat="44.22795" lon="5.39928">
        <ele>1044</ele>
        <time>2026-05-13T12:49:39.000Z</time>
      </trkpt>
      <trkpt lat="44.22795" lon="5.39928">
        <ele>1044</ele>
        <time>2026-05-13T12:49:40.000Z</time>
      </trkpt>
      <trkpt lat="44.22795" lon="5.39928">
        <ele>1043</ele>
        <time>2026-05-13T12:49:41.000Z</time>
      </trkpt>
      <trkpt lat="44.22795" lon="5.39928">
        <ele>1042</ele>
        <time>2026-05-13T12:49:42.000Z</time>
      </trkpt>
      <trkpt lat="44.22795" lon="5.39928">
        <ele>1042</ele>
        <time>2026-05-13T12:49:43.000Z</time>
      </trkpt>
      <trkpt lat="44.22795" lon="5.39928">
        <ele>1042</ele>
        <time>2026-05-13T12:49:44.000Z</time>
      </trkpt>
      <trkpt lat="44.22795" lon="5.39928">
        <ele>1042</ele>
        <time>2026-05-13T12:49:45.000Z</time>
      </trkpt>
      <trkpt lat="44.22795" lon="5.39928">
        <ele>1042</ele>
        <time>2026-05-13T12:49:46.000Z</time>
      </trkpt>
      <trkpt lat="44.22795" lon="5.39928">
        <ele>1042</ele>
        <time>2026-05-13T12:49:47.000Z</time>
      </trkpt>
      <trkpt lat="44.22796" lon="5.39928">
        <ele>1042</ele>
        <time>2026-05-13T12:49:48.000Z</time>
      </trkpt>
      <trkpt lat="44.22796" lon="5.39929">
        <ele>1042</ele>
        <time>2026-05-13T12:49:49.000Z</time>
      </trkpt>
      <trkpt lat="44.22796" lon="5.39929">
        <ele>1042</ele>
        <time>2026-05-13T12:49:50.000Z</time>
      </trkpt>
      <trkpt lat="44.22797" lon="5.39929">
        <ele>1042</ele>
        <time>2026-05-13T12:49:51.000Z</time>
      </trkpt>
      <trkpt lat="44.22797" lon="5.39928">
        <ele>1041</ele>
        <time>2026-05-13T12:49:52.000Z</time>
      </trkpt>
      <trkpt lat="44.22797" lon="5.39928">
        <ele>1041</ele>
        <time>2026-05-13T12:49:53.000Z</time>
      </trkpt>
      <trkpt lat="44.22797" lon="5.39928">
        <ele>1041</ele>
        <time>2026-05-13T12:49:54.000Z</time>
      </trkpt>
      <trkpt lat="44.22797" lon="5.39929">
        <ele>1041</ele>
        <time>2026-05-13T12:49:55.000Z</time>
      </trkpt>
      <trkpt lat="44.22796" lon="5.39929">
        <ele>1041</ele>
        <time>2026-05-13T12:49:56.000Z</time>
      </trkpt>
      <trkpt lat="44.22796" lon="5.39929">
        <ele>1041</ele>
        <time>2026-05-13T12:49:57.000Z</time>
      </trkpt>
      <trkpt lat="44.22796" lon="5.39929">
        <ele>1041</ele>
        <time>2026-05-13T12:49:58.000Z</time>
      </trkpt>
      <trkpt lat="44.22795" lon="5.39928">
        <ele>1041</ele>
        <time>2026-05-13T12:49:59.000Z</time>
      </trkpt>
      <trkpt lat="44.22795" lon="5.39929">
        <ele>1041</ele>
        <time>2026-05-13T12:50:00.000Z</time>
      </trkpt>
      <trkpt lat="44.22795" lon="5.39929">
        <ele>1041</ele>
        <time>2026-05-13T12:50:01.000Z</time>
      </trkpt>
      <trkpt lat="44.22795" lon="5.39929">
        <ele>1041</ele>
        <time>2026-05-13T12:50:02.000Z</time>
      </trkpt>
      <trkpt lat="44.22795" lon="5.39929">
        <ele>1041</ele>
        <time>2026-05-13T12:50:03.000Z</time>
      </trkpt>
      <trkpt lat="44.22795" lon="5.39929">
        <ele>1041</ele>
        <time>2026-05-13T12:50:04.000Z</time>
      </trkpt>
      <trkpt lat="44.22795" lon="5.39929">
        <ele>1041</ele>
        <time>2026-05-13T12:50:05.000Z</time>
      </trkpt>
      <trkpt lat="44.22795" lon="5.39929">
        <ele>1041</ele>
        <time>2026-05-13T12:50:06.000Z</time>
      </trkpt>
      <trkpt lat="44.22795" lon="5.39929">
        <ele>1041</ele>
        <time>2026-05-13T12:50:07.000Z</time>
      </trkpt>
      <trkpt lat="44.22796" lon="5.39928">
        <ele>1042</ele>
        <time>2026-05-13T12:50:08.000Z</time>
      </trkpt>
      <trkpt lat="44.22796" lon="5.39929">
        <ele>1042</ele>
        <time>2026-05-13T12:50:09.000Z</time>
      </trkpt>
      <trkpt lat="44.22796" lon="5.39929">
        <ele>1042</ele>
        <time>2026-05-13T12:50:10.000Z</time>
      </trkpt>
      <trkpt lat="44.22796" lon="5.39929">
        <ele>1042</ele>
        <time>2026-05-13T12:50:11.000Z</time>
      </trkpt>
      <trkpt lat="44.22796" lon="5.39929">
        <ele>1042</ele>
        <time>2026-05-13T12:50:12.000Z</time>
      </trkpt>
      <trkpt lat="44.22796" lon="5.39929">
        <ele>1042</ele>
        <time>2026-05-13T12:50:13.000Z</time>
      </trkpt>
      <trkpt lat="44.22796" lon="5.39929">
        <ele>1042</ele>
        <time>2026-05-13T12:50:14.000Z</time>
      </trkpt>
      <trkpt lat="44.22796" lon="5.39929">
        <ele>1042</ele>
        <time>2026-05-13T12:50:15.000Z</time>
      </trkpt>
      <trkpt lat="44.22796" lon="5.39929">
        <ele>1042</ele>
        <time>2026-05-13T12:50:16.000Z</time>
      </trkpt>
      <trkpt lat="44.22796" lon="5.39929">
        <ele>1042</ele>
        <time>2026-05-13T12:50:17.000Z</time>
      </trkpt>
      <trkpt lat="44.22796" lon="5.39929">
        <ele>1042</ele>
        <time>2026-05-13T12:50:18.000Z</time>
      </trkpt>
      <trkpt lat="44.22796" lon="5.39929">
        <ele>1042</ele>
        <time>2026-05-13T12:50:19.000Z</time>
      </trkpt>
      <trkpt lat="44.22796" lon="5.39929">
        <ele>1042</ele>
        <time>2026-05-13T12:50:20.000Z</time>
      </trkpt>
      <trkpt lat="44.22796" lon="5.39929">
        <ele>1042</ele>
        <time>2026-05-13T12:50:21.000Z</time>
      </trkpt>
      <trkpt lat="44.22796" lon="5.39929">
        <ele>1042</ele>
        <time>2026-05-13T12:50:22.000Z</time>
      </trkpt>
      <trkpt lat="44.22796" lon="5.39929">
        <ele>1042</ele>
        <time>2026-05-13T12:50:23.000Z</time>
      </trkpt>
      <trkpt lat="44.22796" lon="5.39929">
        <ele>1042</ele>
        <time>2026-05-13T12:50:24.000Z</time>
      </trkpt>
      <trkpt lat="44.22796" lon="5.39929">
        <ele>1042</ele>
        <time>2026-05-13T12:50:25.000Z</time>
      </trkpt>
      <trkpt lat="44.22796" lon="5.39929">
        <ele>1042</ele>
        <time>2026-05-13T12:50:26.000Z</time>
      </trkpt>
      <trkpt lat="44.22796" lon="5.39929">
        <ele>1042</ele>
        <time>2026-05-13T12:50:27.000Z</time>
      </trkpt>
      <trkpt lat="44.22796" lon="5.39929">
        <ele>1042</ele>
        <time>2026-05-13T12:50:28.000Z</time>
      </trkpt>
      <trkpt lat="44.22796" lon="5.39929">
        <ele>1042</ele>
        <time>2026-05-13T12:50:29.000Z</time>
      </trkpt>
      <trkpt lat="44.22796" lon="5.39929">
        <ele>1042</ele>
        <time>2026-05-13T12:50:30.000Z</time>
      </trkpt>
      <trkpt lat="44.22796" lon="5.39929">
        <ele>1042</ele>
        <time>2026-05-13T12:50:31.000Z</time>
      </trkpt>
      <trkpt lat="44.22796" lon="5.39929">
        <ele>1042</ele>
        <time>2026-05-13T12:50:32.000Z</time>
      </trkpt>
      <trkpt lat="44.22796" lon="5.39929">
        <ele>1042</ele>
        <time>2026-05-13T12:50:33.000Z</time>
      </trkpt>
      <trkpt lat="44.22796" lon="5.39929">
        <ele>1042</ele>
        <time>2026-05-13T12:50:34.000Z</time>
      </trkpt>
      <trkpt lat="44.22796" lon="5.39929">
        <ele>1042</ele>
        <time>2026-05-13T12:50:35.000Z</time>
      </trkpt>
      <trkpt lat="44.22796" lon="5.39929">
        <ele>1042</ele>
        <time>2026-05-13T12:50:36.000Z</time>
      </trkpt>
      <trkpt lat="44.22796" lon="5.39929">
        <ele>1042</ele>
        <time>2026-05-13T12:50:37.000Z</time>
      </trkpt>
      <trkpt lat="44.22796" lon="5.39929">
        <ele>1042</ele>
        <time>2026-05-13T12:50:38.000Z</time>
      </trkpt>
      <trkpt lat="44.22796" lon="5.39929">
        <ele>1042</ele>
        <time>2026-05-13T12:50:39.000Z</time>
      </trkpt>
      <trkpt lat="44.22796" lon="5.39929">
        <ele>1042</ele>
        <time>2026-05-13T12:50:40.000Z</time>
      </trkpt>
      <trkpt lat="44.22796" lon="5.39929">
        <ele>1042</ele>
        <time>2026-05-13T12:50:41.000Z</time>
      </trkpt>
      <trkpt lat="44.22796" lon="5.39929">
        <ele>1042</ele>
        <time>2026-05-13T12:50:42.000Z</time>
      </trkpt>
      <trkpt lat="44.22796" lon="5.39929">
        <ele>1042</ele>
        <time>2026-05-13T12:50:43.000Z</time>
      </trkpt>
      <trkpt lat="44.22796" lon="5.39929">
        <ele>1042</ele>
        <time>2026-05-13T12:50:44.000Z</time>
      </trkpt>
      <trkpt lat="44.22796" lon="5.39929">
        <ele>1042</ele>
        <time>2026-05-13T12:50:45.000Z</time>
      </trkpt>
      <trkpt lat="44.22796" lon="5.39929">
        <ele>1042</ele>
        <time>2026-05-13T12:50:46.000Z</time>
      </trkpt>
      <trkpt lat="44.22796" lon="5.39929">
        <ele>1042</ele>
        <time>2026-05-13T12:50:47.000Z</time>
      </trkpt>
      <trkpt lat="44.22796" lon="5.39929">
        <ele>1042</ele>
        <time>2026-05-13T12:50:48.000Z</time>
      </trkpt>
      <trkpt lat="44.22796" lon="5.39929">
        <ele>1042</ele>
        <time>2026-05-13T12:50:49.000Z</time>
      </trkpt>
      <trkpt lat="44.22796" lon="5.39929">
        <ele>1042</ele>
        <time>2026-05-13T12:50:50.000Z</time>
      </trkpt>
      <trkpt lat="44.22796" lon="5.39929">
        <ele>1042</ele>
        <time>2026-05-13T12:50:51.000Z</time>
      </trkpt>
      <trkpt lat="44.22796" lon="5.39929">
        <ele>1042</ele>
        <time>2026-05-13T12:50:52.000Z</time>
      </trkpt>
      <trkpt lat="44.22796" lon="5.39929">
        <ele>1042</ele>
        <time>2026-05-13T12:50:53.000Z</time>
      </trkpt>
      <trkpt lat="44.22796" lon="5.39929">
        <ele>1042</ele>
        <time>2026-05-13T12:50:54.000Z</time>
      </trkpt>
      <trkpt lat="44.22796" lon="5.39929">
        <ele>1042</ele>
        <time>2026-05-13T12:50:55.000Z</time>
      </trkpt>
      <trkpt lat="44.22796" lon="5.39929">
        <ele>1042</ele>
        <time>2026-05-13T12:50:56.000Z</time>
      </trkpt>
      <trkpt lat="44.22796" lon="5.39929">
        <ele>1042</ele>
        <time>2026-05-13T12:50:57.000Z</time>
      </trkpt>
      <trkpt lat="44.22796" lon="5.39929">
        <ele>1042</ele>
        <time>2026-05-13T12:50:58.000Z</time>
      </trkpt>
      <trkpt lat="44.22796" lon="5.39929">
        <ele>1042</ele>
        <time>2026-05-13T12:50:59.000Z</time>
      </trkpt>
      <trkpt lat="44.22796" lon="5.39929">
        <ele>1042</ele>
        <time>2026-05-13T12:51:00.000Z</time>
      </trkpt>
      <trkpt lat="44.22796" lon="5.39929">
        <ele>1042</ele>
        <time>2026-05-13T12:51:01.000Z</time>
      </trkpt>
      <trkpt lat="44.22796" lon="5.39929">
        <ele>1042</ele>
        <time>2026-05-13T12:51:02.000Z</time>
      </trkpt>
      <trkpt lat="44.22796" lon="5.39929">
        <ele>1042</ele>
        <time>2026-05-13T12:51:03.000Z</time>
      </trkpt>
      <trkpt lat="44.22796" lon="5.39929">
        <ele>1042</ele>
        <time>2026-05-13T12:51:04.000Z</time>
      </trkpt>
      <trkpt lat="44.22796" lon="5.39929">
        <ele>1042</ele>
        <time>2026-05-13T12:51:05.000Z</time>
      </trkpt>
      <trkpt lat="44.22796" lon="5.39929">
        <ele>1042</ele>
        <time>2026-05-13T12:51:06.000Z</time>
      </trkpt>
      <trkpt lat="44.22796" lon="5.39929">
        <ele>1042</ele>
        <time>2026-05-13T12:51:07.000Z</time>
      </trkpt>
      <trkpt lat="44.22796" lon="5.39929">
        <ele>1042</ele>
        <time>2026-05-13T12:51:08.000Z</time>
      </trkpt>
      <trkpt lat="44.22796" lon="5.39929">
        <ele>1042</ele>
        <time>2026-05-13T12:51:09.000Z</time>
      </trkpt>
      <trkpt lat="44.22796" lon="5.39929">
        <ele>1042</ele>
        <time>2026-05-13T12:51:10.000Z</time>
      </trkpt>
      <trkpt lat="44.22796" lon="5.39929">
        <ele>1042</ele>
        <time>2026-05-13T12:51:11.000Z</time>
      </trkpt>
      <trkpt lat="44.22796" lon="5.39929">
        <ele>1042</ele>
        <time>2026-05-13T12:51:12.000Z</time>
      </trkpt>
      <trkpt lat="44.22796" lon="5.39929">
        <ele>1042</ele>
        <time>2026-05-13T12:51:13.000Z</time>
      </trkpt>
      <trkpt lat="44.22796" lon="5.39929">
        <ele>1042</ele>
        <time>2026-05-13T12:51:14.000Z</time>
      </trkpt>
      <trkpt lat="44.22796" lon="5.39929">
        <ele>1042</ele>
        <time>2026-05-13T12:51:15.000Z</time>
      </trkpt>
      <trkpt lat="44.22796" lon="5.39929">
        <ele>1042</ele>
        <time>2026-05-13T12:51:16.000Z</time>
      </trkpt>
      <trkpt lat="44.22796" lon="5.39929">
        <ele>1042</ele>
        <time>2026-05-13T12:51:17.000Z</time>
      </trkpt>
      <trkpt lat="44.22796" lon="5.39929">
        <ele>1042</ele>
        <time>2026-05-13T12:51:18.000Z</time>
      </trkpt>
      <trkpt lat="44.22796" lon="5.39929">
        <ele>1042</ele>
        <time>2026-05-13T12:51:19.000Z</time>
      </trkpt>
      <trkpt lat="44.22796" lon="5.39929">
        <ele>1042</ele>
        <time>2026-05-13T12:51:20.000Z</time>
      </trkpt>
      <trkpt lat="44.22796" lon="5.39929">
        <ele>1042</ele>
        <time>2026-05-13T12:51:21.000Z</time>
      </trkpt>
      <trkpt lat="44.22796" lon="5.39929">
        <ele>1042</ele>
        <time>2026-05-13T12:51:22.000Z</time>
      </trkpt>
      <trkpt lat="44.22796" lon="5.39929">
        <ele>1042</ele>
        <time>2026-05-13T12:51:23.000Z</time>
      </trkpt>
      <trkpt lat="44.22796" lon="5.39929">
        <ele>1042</ele>
        <time>2026-05-13T12:51:24.000Z</time>
      </trkpt>
      <trkpt lat="44.22796" lon="5.39929">
        <ele>1042</ele>
        <time>2026-05-13T12:51:25.000Z</time>
      </trkpt>
      <trkpt lat="44.22796" lon="5.39929">
        <ele>1042</ele>
        <time>2026-05-13T12:51:26.000Z</time>
      </trkpt>
      <trkpt lat="44.22796" lon="5.39929">
        <ele>1042</ele>
        <time>2026-05-13T12:51:27.000Z</time>
      </trkpt>
      <trkpt lat="44.22796" lon="5.39929">
        <ele>1042</ele>
        <time>2026-05-13T12:51:28.000Z</time>
      </trkpt>
      <trkpt lat="44.22796" lon="5.39929">
        <ele>1042</ele>
        <time>2026-05-13T12:51:29.000Z</time>
      </trkpt>
      <trkpt lat="44.22796" lon="5.39929">
        <ele>1042</ele>
        <time>2026-05-13T12:51:30.000Z</time>
      </trkpt>
      <trkpt lat="44.22796" lon="5.39929">
        <ele>1042</ele>
        <time>2026-05-13T12:51:31.000Z</time>
      </trkpt>
      <trkpt lat="44.22796" lon="5.39929">
        <ele>1042</ele>
        <time>2026-05-13T12:51:32.000Z</time>
      </trkpt>
      <trkpt lat="44.22796" lon="5.39929">
        <ele>1042</ele>
        <time>2026-05-13T12:51:33.000Z</time>
      </trkpt>
      <trkpt lat="44.22796" lon="5.39929">
        <ele>1042</ele>
        <time>2026-05-13T12:51:34.000Z</time>
      </trkpt>
      <trkpt lat="44.22796" lon="5.39929">
        <ele>1042</ele>
        <time>2026-05-13T12:51:35.000Z</time>
      </trkpt>
      <trkpt lat="44.22796" lon="5.39929">
        <ele>1042</ele>
        <time>2026-05-13T12:51:36.000Z</time>
      </trkpt>
      <trkpt lat="44.22796" lon="5.39929">
        <ele>1042</ele>
        <time>2026-05-13T12:51:37.000Z</time>
      </trkpt>
      <trkpt lat="44.22796" lon="5.39929">
        <ele>1042</ele>
        <time>2026-05-13T12:51:38.000Z</time>
      </trkpt>
      <trkpt lat="44.22796" lon="5.39929">
        <ele>1042</ele>
        <time>2026-05-13T12:51:39.000Z</time>
      </trkpt>
      <trkpt lat="44.22796" lon="5.39929">
        <ele>1042</ele>
        <time>2026-05-13T12:51:40.000Z</time>
      </trkpt>
      <trkpt lat="44.22796" lon="5.39929">
        <ele>1042</ele>
        <time>2026-05-13T12:51:41.000Z</time>
      </trkpt>
      <trkpt lat="44.22796" lon="5.39929">
        <ele>1042</ele>
        <time>2026-05-13T12:51:42.000Z</time>
      </trkpt>
      <trkpt lat="44.22796" lon="5.39929">
        <ele>1042</ele>
        <time>2026-05-13T12:51:43.000Z</time>
      </trkpt>
      <trkpt lat="44.22796" lon="5.39929">
        <ele>1042</ele>
        <time>2026-05-13T12:51:44.000Z</time>
      </trkpt>
      <trkpt lat="44.22796" lon="5.39929">
        <ele>1042</ele>
        <time>2026-05-13T12:51:45.000Z</time>
      </trkpt>
      <trkpt lat="44.22796" lon="5.39929">
        <ele>1042</ele>
        <time>2026-05-13T12:51:46.000Z</time>
      </trkpt>
      <trkpt lat="44.22796" lon="5.39929">
        <ele>1042</ele>
        <time>2026-05-13T12:51:47.000Z</time>
      </trkpt>
      <trkpt lat="44.22796" lon="5.39929">
        <ele>1042</ele>
        <time>2026-05-13T12:51:48.000Z</time>
      </trkpt>
      <trkpt lat="44.22796" lon="5.39929">
        <ele>1042</ele>
        <time>2026-05-13T12:51:49.000Z</time>
      </trkpt>
      <trkpt lat="44.22796" lon="5.39929">
        <ele>1042</ele>
        <time>2026-05-13T12:51:50.000Z</time>
      </trkpt>
      <trkpt lat="44.22796" lon="5.39929">
        <ele>1042</ele>
        <time>2026-05-13T12:51:51.000Z</time>
      </trkpt>
      <trkpt lat="44.22796" lon="5.39929">
        <ele>1042</ele>
        <time>2026-05-13T12:51:52.000Z</time>
      </trkpt>
      <trkpt lat="44.22796" lon="5.39929">
        <ele>1042</ele>
        <time>2026-05-13T12:51:53.000Z</time>
      </trkpt>
      <trkpt lat="44.22796" lon="5.39929">
        <ele>1042</ele>
        <time>2026-05-13T12:51:54.000Z</time>
      </trkpt>
      <trkpt lat="44.22796" lon="5.39929">
        <ele>1042</ele>
        <time>2026-05-13T12:51:55.000Z</time>
      </trkpt>
      <trkpt lat="44.22796" lon="5.39929">
        <ele>1042</ele>
        <time>2026-05-13T12:51:56.000Z</time>
      </trkpt>
      <trkpt lat="44.22796" lon="5.39929">
        <ele>1042</ele>
        <time>2026-05-13T12:51:57.000Z</time>
      </trkpt>
      <trkpt lat="44.22796" lon="5.39929">
        <ele>1042</ele>
        <time>2026-05-13T12:51:58.000Z</time>
      </trkpt>
      <trkpt lat="44.22796" lon="5.39929">
        <ele>1042</ele>
        <time>2026-05-13T12:51:59.000Z</time>
      </trkpt>
      <trkpt lat="44.22796" lon="5.39929">
        <ele>1042</ele>
        <time>2026-05-13T12:52:00.000Z</time>
      </trkpt>
      <trkpt lat="44.22796" lon="5.39929">
        <ele>1042</ele>
        <time>2026-05-13T12:52:01.000Z</time>
      </trkpt>
      <trkpt lat="44.22796" lon="5.39929">
        <ele>1042</ele>
        <time>2026-05-13T12:52:02.000Z</time>
      </trkpt>
      <trkpt lat="44.22796" lon="5.39929">
        <ele>1042</ele>
        <time>2026-05-13T12:52:03.000Z</time>
      </trkpt>
      <trkpt lat="44.22796" lon="5.39929">
        <ele>1042</ele>
        <time>2026-05-13T12:52:04.000Z</time>
      </trkpt>
      <trkpt lat="44.22796" lon="5.39929">
        <ele>1042</ele>
        <time>2026-05-13T12:52:05.000Z</time>
      </trkpt>
      <trkpt lat="44.22796" lon="5.39929">
        <ele>1042</ele>
        <time>2026-05-13T12:52:06.000Z</time>
      </trkpt>
      <trkpt lat="44.22796" lon="5.39929">
        <ele>1042</ele>
        <time>2026-05-13T12:52:07.000Z</time>
      </trkpt>
      <trkpt lat="44.22796" lon="5.39929">
        <ele>1042</ele>
        <time>2026-05-13T12:52:08.000Z</time>
      </trkpt>
      <trkpt lat="44.22796" lon="5.39929">
        <ele>1042</ele>
        <time>2026-05-13T12:52:09.000Z</time>
      </trkpt>
      <trkpt lat="44.22796" lon="5.39929">
        <ele>1042</ele>
        <time>2026-05-13T12:52:10.000Z</time>
      </trkpt>
      <trkpt lat="44.22796" lon="5.39929">
        <ele>1042</ele>
        <time>2026-05-13T12:52:11.000Z</time>
      </trkpt>
      <trkpt lat="44.22796" lon="5.39929">
        <ele>1042</ele>
        <time>2026-05-13T12:52:12.000Z</time>
      </trkpt>
      <trkpt lat="44.22796" lon="5.39929">
        <ele>1042</ele>
        <time>2026-05-13T12:52:13.000Z</time>
      </trkpt>
      <trkpt lat="44.22796" lon="5.39929">
        <ele>1042</ele>
        <time>2026-05-13T12:52:14.000Z</time>
      </trkpt>
      <trkpt lat="44.22796" lon="5.39929">
        <ele>1042</ele>
        <time>2026-05-13T12:52:15.000Z</time>
      </trkpt>
      <trkpt lat="44.22796" lon="5.39929">
        <ele>1042</ele>
        <time>2026-05-13T12:52:16.000Z</time>
      </trkpt>
      <trkpt lat="44.22795" lon="5.39929">
        <ele>1042</ele>
        <time>2026-05-13T12:52:17.000Z</time>
      </trkpt>
      <trkpt lat="44.22795" lon="5.39928">
        <ele>1042</ele>
        <time>2026-05-13T12:52:18.000Z</time>
      </trkpt>
      <trkpt lat="44.22795" lon="5.39928">
        <ele>1042</ele>
        <time>2026-05-13T12:52:19.000Z</time>
      </trkpt>
      <trkpt lat="44.22795" lon="5.39928">
        <ele>1042</ele>
        <time>2026-05-13T12:52:20.000Z</time>
      </trkpt>
      <trkpt lat="44.22795" lon="5.39928">
        <ele>1042</ele>
        <time>2026-05-13T12:52:21.000Z</time>
      </trkpt>
      <trkpt lat="44.22795" lon="5.39928">
        <ele>1042</ele>
        <time>2026-05-13T12:52:22.000Z</time>
      </trkpt>
      <trkpt lat="44.22795" lon="5.39928">
        <ele>1042</ele>
        <time>2026-05-13T12:52:23.000Z</time>
      </trkpt>
      <trkpt lat="44.22795" lon="5.39928">
        <ele>1042</ele>
        <time>2026-05-13T12:52:24.000Z</time>
      </trkpt>
      <trkpt lat="44.22795" lon="5.39928">
        <ele>1042</ele>
        <time>2026-05-13T12:52:25.000Z</time>
      </trkpt>
      <trkpt lat="44.22795" lon="5.39928">
        <ele>1042</ele>
        <time>2026-05-13T12:52:26.000Z</time>
      </trkpt>
      <trkpt lat="44.22795" lon="5.39928">
        <ele>1042</ele>
        <time>2026-05-13T12:52:27.000Z</time>
      </trkpt>
      <trkpt lat="44.22795" lon="5.39928">
        <ele>1042</ele>
        <time>2026-05-13T12:52:28.000Z</time>
      </trkpt>
      <trkpt lat="44.22795" lon="5.39928">
        <ele>1042</ele>
        <time>2026-05-13T12:52:29.000Z</time>
      </trkpt>
      <trkpt lat="44.22795" lon="5.39928">
        <ele>1042</ele>
        <time>2026-05-13T12:52:30.000Z</time>
      </trkpt>
      <trkpt lat="44.22795" lon="5.39928">
        <ele>1042</ele>
        <time>2026-05-13T12:52:31.000Z</time>
      </trkpt>
      <trkpt lat="44.22795" lon="5.39928">
        <ele>1042</ele>
        <time>2026-05-13T12:52:32.000Z</time>
      </trkpt>
      <trkpt lat="44.22795" lon="5.39928">
        <ele>1042</ele>
        <time>2026-05-13T12:52:33.000Z</time>
      </trkpt>
      <trkpt lat="44.22795" lon="5.39928">
        <ele>1042</ele>
        <time>2026-05-13T12:52:34.000Z</time>
      </trkpt>
      <trkpt lat="44.22795" lon="5.39928">
        <ele>1042</ele>
        <time>2026-05-13T12:52:35.000Z</time>
      </trkpt>
      <trkpt lat="44.22795" lon="5.39928">
        <ele>1042</ele>
        <time>2026-05-13T12:52:36.000Z</time>
      </trkpt>
      <trkpt lat="44.22795" lon="5.39928">
        <ele>1042</ele>
        <time>2026-05-13T12:52:37.000Z</time>
      </trkpt>
      <trkpt lat="44.22795" lon="5.39928">
        <ele>1042</ele>
        <time>2026-05-13T12:52:38.000Z</time>
      </trkpt>
      <trkpt lat="44.22795" lon="5.39928">
        <ele>1042</ele>
        <time>2026-05-13T12:52:39.000Z</time>
      </trkpt>
      <trkpt lat="44.22795" lon="5.39928">
        <ele>1042</ele>
        <time>2026-05-13T12:52:40.000Z</time>
      </trkpt>
      <trkpt lat="44.22795" lon="5.39928">
        <ele>1042</ele>
        <time>2026-05-13T12:52:41.000Z</time>
      </trkpt>
      <trkpt lat="44.22795" lon="5.39928">
        <ele>1042</ele>
        <time>2026-05-13T12:52:42.000Z</time>
      </trkpt>
      <trkpt lat="44.22795" lon="5.39928">
        <ele>1042</ele>
        <time>2026-05-13T12:52:43.000Z</time>
      </trkpt>
      <trkpt lat="44.22795" lon="5.39928">
        <ele>1042</ele>
        <time>2026-05-13T12:52:44.000Z</time>
      </trkpt>
      <trkpt lat="44.22795" lon="5.39928">
        <ele>1042</ele>
        <time>2026-05-13T12:52:45.000Z</time>
      </trkpt>
      <trkpt lat="44.22795" lon="5.39928">
        <ele>1042</ele>
        <time>2026-05-13T12:52:46.000Z</time>
      </trkpt>
      <trkpt lat="44.22795" lon="5.39928">
        <ele>1042</ele>
        <time>2026-05-13T12:52:47.000Z</time>
      </trkpt>
      <trkpt lat="44.22795" lon="5.39928">
        <ele>1042</ele>
        <time>2026-05-13T12:52:48.000Z</time>
      </trkpt>
      <trkpt lat="44.22795" lon="5.39928">
        <ele>1042</ele>
        <time>2026-05-13T12:52:49.000Z</time>
      </trkpt>
      <trkpt lat="44.22795" lon="5.39928">
        <ele>1042</ele>
        <time>2026-05-13T12:52:50.000Z</time>
      </trkpt>
      <trkpt lat="44.22795" lon="5.39928">
        <ele>1042</ele>
        <time>2026-05-13T12:52:51.000Z</time>
      </trkpt>
      <trkpt lat="44.22795" lon="5.39928">
        <ele>1042</ele>
        <time>2026-05-13T12:52:52.000Z</time>
      </trkpt>
      <trkpt lat="44.22795" lon="5.39928">
        <ele>1042</ele>
        <time>2026-05-13T12:52:53.000Z</time>
      </trkpt>
      <trkpt lat="44.22795" lon="5.39928">
        <ele>1042</ele>
        <time>2026-05-13T12:52:54.000Z</time>
      </trkpt>
      <trkpt lat="44.22795" lon="5.39928">
        <ele>1042</ele>
        <time>2026-05-13T12:52:55.000Z</time>
      </trkpt>
      <trkpt lat="44.22795" lon="5.39928">
        <ele>1042</ele>
        <time>2026-05-13T12:52:56.000Z</time>
      </trkpt>
      <trkpt lat="44.22795" lon="5.39928">
        <ele>1042</ele>
        <time>2026-05-13T12:52:57.000Z</time>
      </trkpt>
      <trkpt lat="44.22795" lon="5.39928">
        <ele>1042</ele>
        <time>2026-05-13T12:52:58.000Z</time>
      </trkpt>
      <trkpt lat="44.22795" lon="5.39928">
        <ele>1042</ele>
        <time>2026-05-13T12:52:59.000Z</time>
      </trkpt>
      <trkpt lat="44.22795" lon="5.39928">
        <ele>1042</ele>
        <time>2026-05-13T12:53:00.000Z</time>
      </trkpt>
      <trkpt lat="44.22795" lon="5.39928">
        <ele>1042</ele>
        <time>2026-05-13T12:53:01.000Z</time>
      </trkpt>
      <trkpt lat="44.22795" lon="5.39928">
        <ele>1042</ele>
        <time>2026-05-13T12:53:02.000Z</time>
      </trkpt>
      <trkpt lat="44.22795" lon="5.39928">
        <ele>1042</ele>
        <time>2026-05-13T12:53:03.000Z</time>
      </trkpt>
      <trkpt lat="44.22795" lon="5.39928">
        <ele>1042</ele>
        <time>2026-05-13T12:53:04.000Z</time>
      </trkpt>
      <trkpt lat="44.22795" lon="5.39928">
        <ele>1042</ele>
        <time>2026-05-13T12:53:05.000Z</time>
      </trkpt>
      <trkpt lat="44.22795" lon="5.39928">
        <ele>1042</ele>
        <time>2026-05-13T12:53:06.000Z</time>
      </trkpt>
      <trkpt lat="44.22795" lon="5.39928">
        <ele>1042</ele>
        <time>2026-05-13T12:53:07.000Z</time>
      </trkpt>
      <trkpt lat="44.22795" lon="5.39928">
        <ele>1042</ele>
        <time>2026-05-13T12:53:08.000Z</time>
      </trkpt>
      <trkpt lat="44.22795" lon="5.39928">
        <ele>1042</ele>
        <time>2026-05-13T12:53:09.000Z</time>
      </trkpt>
      <trkpt lat="44.22795" lon="5.39928">
        <ele>1042</ele>
        <time>2026-05-13T12:53:10.000Z</time>
      </trkpt>
      <trkpt lat="44.22795" lon="5.39928">
        <ele>1042</ele>
        <time>2026-05-13T12:53:11.000Z</time>
      </trkpt>
      <trkpt lat="44.22795" lon="5.39928">
        <ele>1042</ele>
        <time>2026-05-13T12:53:12.000Z</time>
      </trkpt>
      <trkpt lat="44.22795" lon="5.39928">
        <ele>1042</ele>
        <time>2026-05-13T12:53:13.000Z</time>
      </trkpt>
      <trkpt lat="44.22795" lon="5.39928">
        <ele>1042</ele>
        <time>2026-05-13T12:53:14.000Z</time>
      </trkpt>
      <trkpt lat="44.22795" lon="5.39928">
        <ele>1042</ele>
        <time>2026-05-13T12:53:15.000Z</time>
      </trkpt>
      <trkpt lat="44.22795" lon="5.39928">
        <ele>1042</ele>
        <time>2026-05-13T12:53:16.000Z</time>
      </trkpt>
      <trkpt lat="44.22795" lon="5.39928">
        <ele>1042</ele>
        <time>2026-05-13T12:53:17.000Z</time>
      </trkpt>
      <trkpt lat="44.22795" lon="5.39928">
        <ele>1042</ele>
        <time>2026-05-13T12:53:18.000Z</time>
      </trkpt>
      <trkpt lat="44.22795" lon="5.39928">
        <ele>1042</ele>
        <time>2026-05-13T12:53:19.000Z</time>
      </trkpt>
      <trkpt lat="44.22795" lon="5.39928">
        <ele>1042</ele>
        <time>2026-05-13T12:53:20.000Z</time>
      </trkpt>
      <trkpt lat="44.22795" lon="5.39928">
        <ele>1042</ele>
        <time>2026-05-13T12:53:21.000Z</time>
      </trkpt>
      <trkpt lat="44.22795" lon="5.39928">
        <ele>1042</ele>
        <time>2026-05-13T12:53:22.000Z</time>
      </trkpt>
      <trkpt lat="44.22795" lon="5.39928">
        <ele>1042</ele>
        <time>2026-05-13T12:53:23.000Z</time>
      </trkpt>
      <trkpt lat="44.22795" lon="5.39928">
        <ele>1042</ele>
        <time>2026-05-13T12:53:24.000Z</time>
      </trkpt>
      <trkpt lat="44.22795" lon="5.39928">
        <ele>1042</ele>
        <time>2026-05-13T12:53:25.000Z</time>
      </trkpt>
      <trkpt lat="44.22795" lon="5.39928">
        <ele>1042</ele>
        <time>2026-05-13T12:53:26.000Z</time>
      </trkpt>
      <trkpt lat="44.22795" lon="5.39928">
        <ele>1042</ele>
        <time>2026-05-13T12:53:27.000Z</time>
      </trkpt>
      <trkpt lat="44.22795" lon="5.39928">
        <ele>1042</ele>
        <time>2026-05-13T12:53:28.000Z</time>
      </trkpt>
      <trkpt lat="44.22795" lon="5.39928">
        <ele>1042</ele>
        <time>2026-05-13T12:53:29.000Z</time>
      </trkpt>
      <trkpt lat="44.22795" lon="5.39928">
        <ele>1042</ele>
        <time>2026-05-13T12:53:30.000Z</time>
      </trkpt>
      <trkpt lat="44.22795" lon="5.39928">
        <ele>1042</ele>
        <time>2026-05-13T12:53:31.000Z</time>
      </trkpt>
      <trkpt lat="44.22795" lon="5.39928">
        <ele>1042</ele>
        <time>2026-05-13T12:53:32.000Z</time>
      </trkpt>
      <trkpt lat="44.22795" lon="5.39928">
        <ele>1042</ele>
        <time>2026-05-13T12:53:33.000Z</time>
      </trkpt>
      <trkpt lat="44.22795" lon="5.39928">
        <ele>1042</ele>
        <time>2026-05-13T12:53:34.000Z</time>
      </trkpt>
      <trkpt lat="44.22795" lon="5.39928">
        <ele>1042</ele>
        <time>2026-05-13T12:53:35.000Z</time>
      </trkpt>
      <trkpt lat="44.22795" lon="5.39928">
        <ele>1042</ele>
        <time>2026-05-13T12:53:36.000Z</time>
      </trkpt>
      <trkpt lat="44.22795" lon="5.39928">
        <ele>1042</ele>
        <time>2026-05-13T12:53:37.000Z</time>
      </trkpt>
      <trkpt lat="44.22795" lon="5.39928">
        <ele>1042</ele>
        <time>2026-05-13T12:53:38.000Z</time>
      </trkpt>
      <trkpt lat="44.22795" lon="5.39928">
        <ele>1042</ele>
        <time>2026-05-13T12:53:39.000Z</time>
      </trkpt>
      <trkpt lat="44.22795" lon="5.39928">
        <ele>1042</ele>
        <time>2026-05-13T12:53:40.000Z</time>
      </trkpt>
      <trkpt lat="44.22795" lon="5.39928">
        <ele>1042</ele>
        <time>2026-05-13T12:53:41.000Z</time>
      </trkpt>
      <trkpt lat="44.22795" lon="5.39928">
        <ele>1042</ele>
        <time>2026-05-13T12:53:42.000Z</time>
      </trkpt>
      <trkpt lat="44.22795" lon="5.39928">
        <ele>1042</ele>
        <time>2026-05-13T12:53:43.000Z</time>
      </trkpt>
      <trkpt lat="44.22795" lon="5.39928">
        <ele>1042</ele>
        <time>2026-05-13T12:53:44.000Z</time>
      </trkpt>
      <trkpt lat="44.22795" lon="5.39928">
        <ele>1042</ele>
        <time>2026-05-13T12:53:45.000Z</time>
      </trkpt>
      <trkpt lat="44.22795" lon="5.39928">
        <ele>1042</ele>
        <time>2026-05-13T12:53:46.000Z</time>
      </trkpt>
      <trkpt lat="44.22795" lon="5.39928">
        <ele>1042</ele>
        <time>2026-05-13T12:53:47.000Z</time>
      </trkpt>
      <trkpt lat="44.22795" lon="5.39928">
        <ele>1042</ele>
        <time>2026-05-13T12:53:48.000Z</time>
      </trkpt>
      <trkpt lat="44.22795" lon="5.39928">
        <ele>1042</ele>
        <time>2026-05-13T12:53:49.000Z</time>
      </trkpt>
      <trkpt lat="44.22795" lon="5.39928">
        <ele>1042</ele>
        <time>2026-05-13T12:53:50.000Z</time>
      </trkpt>
      <trkpt lat="44.22795" lon="5.39928">
        <ele>1042</ele>
        <time>2026-05-13T12:53:51.000Z</time>
      </trkpt>
      <trkpt lat="44.22795" lon="5.39928">
        <ele>1042</ele>
        <time>2026-05-13T12:53:52.000Z</time>
      </trkpt>
      <trkpt lat="44.22795" lon="5.39928">
        <ele>1042</ele>
        <time>2026-05-13T12:53:53.000Z</time>
      </trkpt>
      <trkpt lat="44.22795" lon="5.39928">
        <ele>1042</ele>
        <time>2026-05-13T12:53:54.000Z</time>
      </trkpt>
      <trkpt lat="44.22795" lon="5.39928">
        <ele>1042</ele>
        <time>2026-05-13T12:53:55.000Z</time>
      </trkpt>
      <trkpt lat="44.22795" lon="5.39928">
        <ele>1042</ele>
        <time>2026-05-13T12:53:56.000Z</time>
      </trkpt>
      <trkpt lat="44.22795" lon="5.39928">
        <ele>1042</ele>
        <time>2026-05-13T12:53:57.000Z</time>
      </trkpt>
      <trkpt lat="44.22795" lon="5.39928">
        <ele>1042</ele>
        <time>2026-05-13T12:53:58.000Z</time>
      </trkpt>
      <trkpt lat="44.22795" lon="5.39928">
        <ele>1042</ele>
        <time>2026-05-13T12:53:59.000Z</time>
      </trkpt>
      <trkpt lat="44.22795" lon="5.39928">
        <ele>1042</ele>
        <time>2026-05-13T12:54:00.000Z</time>
      </trkpt>
      <trkpt lat="44.22795" lon="5.39928">
        <ele>1042</ele>
        <time>2026-05-13T12:54:01.000Z</time>
      </trkpt>
      <trkpt lat="44.22795" lon="5.39928">
        <ele>1042</ele>
        <time>2026-05-13T12:54:02.000Z</time>
      </trkpt>
      <trkpt lat="44.22795" lon="5.39928">
        <ele>1042</ele>
        <time>2026-05-13T12:54:03.000Z</time>
      </trkpt>
      <trkpt lat="44.22795" lon="5.39928">
        <ele>1042</ele>
        <time>2026-05-13T12:54:04.000Z</time>
      </trkpt>
      <trkpt lat="44.22795" lon="5.39928">
        <ele>1042</ele>
        <time>2026-05-13T12:54:05.000Z</time>
      </trkpt>
      <trkpt lat="44.22795" lon="5.39928">
        <ele>1042</ele>
        <time>2026-05-13T12:54:06.000Z</time>
      </trkpt>
      <trkpt lat="44.22795" lon="5.39928">
        <ele>1042</ele>
        <time>2026-05-13T12:54:07.000Z</time>
      </trkpt>
      <trkpt lat="44.22795" lon="5.39928">
        <ele>1042</ele>
        <time>2026-05-13T12:54:08.000Z</time>
      </trkpt>
      <trkpt lat="44.22795" lon="5.39928">
        <ele>1042</ele>
        <time>2026-05-13T12:54:09.000Z</time>
      </trkpt>
      <trkpt lat="44.22795" lon="5.39928">
        <ele>1042</ele>
        <time>2026-05-13T12:54:10.000Z</time>
      </trkpt>
      <trkpt lat="44.22795" lon="5.39928">
        <ele>1042</ele>
        <time>2026-05-13T12:54:11.000Z</time>
      </trkpt>
      <trkpt lat="44.22795" lon="5.39928">
        <ele>1042</ele>
        <time>2026-05-13T12:54:12.000Z</time>
      </trkpt>
      <trkpt lat="44.22795" lon="5.39928">
        <ele>1042</ele>
        <time>2026-05-13T12:54:13.000Z</time>
      </trkpt>
      <trkpt lat="44.22795" lon="5.39928">
        <ele>1042</ele>
        <time>2026-05-13T12:54:14.000Z</time>
      </trkpt>
      <trkpt lat="44.22795" lon="5.39928">
        <ele>1042</ele>
        <time>2026-05-13T12:54:15.000Z</time>
      </trkpt>
      <trkpt lat="44.22795" lon="5.39928">
        <ele>1042</ele>
        <time>2026-05-13T12:54:16.000Z</time>
      </trkpt>
      <trkpt lat="44.22795" lon="5.39928">
        <ele>1042</ele>
        <time>2026-05-13T12:54:17.000Z</time>
      </trkpt>
      <trkpt lat="44.22795" lon="5.39928">
        <ele>1042</ele>
        <time>2026-05-13T12:54:18.000Z</time>
      </trkpt>
      <trkpt lat="44.22795" lon="5.39928">
        <ele>1042</ele>
        <time>2026-05-13T12:54:19.000Z</time>
      </trkpt>
      <trkpt lat="44.22795" lon="5.39928">
        <ele>1042</ele>
        <time>2026-05-13T12:54:20.000Z</time>
      </trkpt>
      <trkpt lat="44.22795" lon="5.39928">
        <ele>1042</ele>
        <time>2026-05-13T12:54:21.000Z</time>
      </trkpt>
      <trkpt lat="44.22795" lon="5.39928">
        <ele>1042</ele>
        <time>2026-05-13T12:54:22.000Z</time>
      </trkpt>
      <trkpt lat="44.22795" lon="5.39928">
        <ele>1042</ele>
        <time>2026-05-13T12:54:23.000Z</time>
      </trkpt>
      <trkpt lat="44.22795" lon="5.39928">
        <ele>1042</ele>
        <time>2026-05-13T12:54:24.000Z</time>
      </trkpt>
      <trkpt lat="44.22795" lon="5.39928">
        <ele>1042</ele>
        <time>2026-05-13T12:54:25.000Z</time>
      </trkpt>
      <trkpt lat="44.22795" lon="5.39928">
        <ele>1042</ele>
        <time>2026-05-13T12:54:26.000Z</time>
      </trkpt>
      <trkpt lat="44.22795" lon="5.39928">
        <ele>1042</ele>
        <time>2026-05-13T12:54:27.000Z</time>
      </trkpt>
      <trkpt lat="44.22795" lon="5.39928">
        <ele>1042</ele>
        <time>2026-05-13T12:54:28.000Z</time>
      </trkpt>
      <trkpt lat="44.22795" lon="5.39928">
        <ele>1042</ele>
        <time>2026-05-13T12:54:29.000Z</time>
      </trkpt>
      <trkpt lat="44.22795" lon="5.39928">
        <ele>1042</ele>
        <time>2026-05-13T12:54:30.000Z</time>
      </trkpt>
      <trkpt lat="44.22795" lon="5.39928">
        <ele>1042</ele>
        <time>2026-05-13T12:54:31.000Z</time>
      </trkpt>
      <trkpt lat="44.22795" lon="5.39928">
        <ele>1042</ele>
        <time>2026-05-13T12:54:32.000Z</time>
      </trkpt>
      <trkpt lat="44.22795" lon="5.39928">
        <ele>1042</ele>
        <time>2026-05-13T12:54:33.000Z</time>
      </trkpt>
      <trkpt lat="44.22795" lon="5.39928">
        <ele>1042</ele>
        <time>2026-05-13T12:54:34.000Z</time>
      </trkpt>
      <trkpt lat="44.22795" lon="5.39928">
        <ele>1042</ele>
        <time>2026-05-13T12:54:35.000Z</time>
      </trkpt>
      <trkpt lat="44.22795" lon="5.39928">
        <ele>1042</ele>
        <time>2026-05-13T12:54:36.000Z</time>
      </trkpt>
      <trkpt lat="44.22795" lon="5.39928">
        <ele>1042</ele>
        <time>2026-05-13T12:54:37.000Z</time>
      </trkpt>
      <trkpt lat="44.22795" lon="5.39928">
        <ele>1042</ele>
        <time>2026-05-13T12:54:38.000Z</time>
      </trkpt>
      <trkpt lat="44.22795" lon="5.39928">
        <ele>1042</ele>
        <time>2026-05-13T12:54:39.000Z</time>
      </trkpt>
      <trkpt lat="44.22795" lon="5.39928">
        <ele>1042</ele>
        <time>2026-05-13T12:54:40.000Z</time>
      </trkpt>
      <trkpt lat="44.22795" lon="5.39928">
        <ele>1042</ele>
        <time>2026-05-13T12:54:41.000Z</time>
      </trkpt>
      <trkpt lat="44.22795" lon="5.39928">
        <ele>1042</ele>
        <time>2026-05-13T12:54:42.000Z</time>
      </trkpt>
      <trkpt lat="44.22795" lon="5.39928">
        <ele>1042</ele>
        <time>2026-05-13T12:54:43.000Z</time>
      </trkpt>
      <trkpt lat="44.22795" lon="5.39928">
        <ele>1042</ele>
        <time>2026-05-13T12:54:44.000Z</time>
      </trkpt>
      <trkpt lat="44.22795" lon="5.39928">
        <ele>1042</ele>
        <time>2026-05-13T12:54:45.000Z</time>
      </trkpt>
      <trkpt lat="44.22795" lon="5.39928">
        <ele>1042</ele>
        <time>2026-05-13T12:54:46.000Z</time>
      </trkpt>
      <trkpt lat="44.22795" lon="5.39928">
        <ele>1042</ele>
        <time>2026-05-13T12:54:47.000Z</time>
      </trkpt>
      <trkpt lat="44.22795" lon="5.39928">
        <ele>1042</ele>
        <time>2026-05-13T12:54:48.000Z</time>
      </trkpt>
      <trkpt lat="44.22795" lon="5.39928">
        <ele>1042</ele>
        <time>2026-05-13T12:54:49.000Z</time>
      </trkpt>
      <trkpt lat="44.22795" lon="5.39928">
        <ele>1042</ele>
        <time>2026-05-13T12:54:50.000Z</time>
      </trkpt>
      <trkpt lat="44.22795" lon="5.39928">
        <ele>1042</ele>
        <time>2026-05-13T12:54:51.000Z</time>
      </trkpt>
      <trkpt lat="44.22795" lon="5.39928">
        <ele>1042</ele>
        <time>2026-05-13T12:54:52.000Z</time>
      </trkpt>
      <trkpt lat="44.22795" lon="5.39928">
        <ele>1042</ele>
        <time>2026-05-13T12:54:53.000Z</time>
      </trkpt>
      <trkpt lat="44.22795" lon="5.39928">
        <ele>1042</ele>
        <time>2026-05-13T12:54:54.000Z</time>
      </trkpt>
      <trkpt lat="44.22795" lon="5.39928">
        <ele>1042</ele>
        <time>2026-05-13T12:54:55.000Z</time>
      </trkpt>
      <trkpt lat="44.22795" lon="5.39928">
        <ele>1042</ele>
        <time>2026-05-13T12:54:56.000Z</time>
      </trkpt>
      <trkpt lat="44.22795" lon="5.39928">
        <ele>1042</ele>
        <time>2026-05-13T12:54:57.000Z</time>
      </trkpt>
      <trkpt lat="44.22795" lon="5.39928">
        <ele>1042</ele>
        <time>2026-05-13T12:54:58.000Z</time>
      </trkpt>
      <trkpt lat="44.22795" lon="5.39928">
        <ele>1042</ele>
        <time>2026-05-13T12:54:59.000Z</time>
      </trkpt>
      <trkpt lat="44.22795" lon="5.39928">
        <ele>1042</ele>
        <time>2026-05-13T12:55:00.000Z</time>
      </trkpt>
      <trkpt lat="44.22795" lon="5.39928">
        <ele>1042</ele>
        <time>2026-05-13T12:55:01.000Z</time>
      </trkpt>
      <trkpt lat="44.22795" lon="5.39928">
        <ele>1042</ele>
        <time>2026-05-13T12:55:02.000Z</time>
      </trkpt>
      <trkpt lat="44.22795" lon="5.39928">
        <ele>1042</ele>
        <time>2026-05-13T12:55:03.000Z</time>
      </trkpt>
      <trkpt lat="44.22795" lon="5.39928">
        <ele>1042</ele>
        <time>2026-05-13T12:55:04.000Z</time>
      </trkpt>
      <trkpt lat="44.22795" lon="5.39928">
        <ele>1042</ele>
        <time>2026-05-13T12:55:05.000Z</time>
      </trkpt>
      <trkpt lat="44.22795" lon="5.39928">
        <ele>1042</ele>
        <time>2026-05-13T12:55:06.000Z</time>
      </trkpt>
      <trkpt lat="44.22795" lon="5.39928">
        <ele>1042</ele>
        <time>2026-05-13T12:55:07.000Z</time>
      </trkpt>
      <trkpt lat="44.22795" lon="5.39928">
        <ele>1042</ele>
        <time>2026-05-13T12:55:08.000Z</time>
      </trkpt>
      <trkpt lat="44.22795" lon="5.39928">
        <ele>1042</ele>
        <time>2026-05-13T12:55:09.000Z</time>
      </trkpt>
      <trkpt lat="44.22795" lon="5.39928">
        <ele>1042</ele>
        <time>2026-05-13T12:55:10.000Z</time>
      </trkpt>
      <trkpt lat="44.22795" lon="5.39928">
        <ele>1042</ele>
        <time>2026-05-13T12:55:11.000Z</time>
      </trkpt>
      <trkpt lat="44.22795" lon="5.39928">
        <ele>1042</ele>
        <time>2026-05-13T12:55:12.000Z</time>
      </trkpt>
      <trkpt lat="44.22795" lon="5.39928">
        <ele>1042</ele>
        <time>2026-05-13T12:55:13.000Z</time>
      </trkpt>
      <trkpt lat="44.22795" lon="5.39928">
        <ele>1042</ele>
        <time>2026-05-13T12:55:14.000Z</time>
      </trkpt>
      <trkpt lat="44.22795" lon="5.39928">
        <ele>1042</ele>
        <time>2026-05-13T12:55:15.000Z</time>
      </trkpt>
      <trkpt lat="44.22795" lon="5.39928">
        <ele>1042</ele>
        <time>2026-05-13T12:55:16.000Z</time>
      </trkpt>
      <trkpt lat="44.22795" lon="5.39928">
        <ele>1042</ele>
        <time>2026-05-13T12:55:17.000Z</time>
      </trkpt>
      <trkpt lat="44.22795" lon="5.39928">
        <ele>1042</ele>
        <time>2026-05-13T12:55:18.000Z</time>
      </trkpt>
      <trkpt lat="44.22795" lon="5.39928">
        <ele>1042</ele>
        <time>2026-05-13T12:55:19.000Z</time>
      </trkpt>
      <trkpt lat="44.22795" lon="5.39928">
        <ele>1042</ele>
        <time>2026-05-13T12:55:20.000Z</time>
      </trkpt>
      <trkpt lat="44.22795" lon="5.39928">
        <ele>1042</ele>
        <time>2026-05-13T12:55:21.000Z</time>
      </trkpt>
      <trkpt lat="44.22795" lon="5.39928">
        <ele>1042</ele>
        <time>2026-05-13T12:55:22.000Z</time>
      </trkpt>
      <trkpt lat="44.22795" lon="5.39928">
        <ele>1042</ele>
        <time>2026-05-13T12:55:23.000Z</time>
      </trkpt>
      <trkpt lat="44.22795" lon="5.39928">
        <ele>1042</ele>
        <time>2026-05-13T12:55:24.000Z</time>
      </trkpt>
      <trkpt lat="44.22795" lon="5.39928">
        <ele>1042</ele>
        <time>2026-05-13T12:55:25.000Z</time>
      </trkpt>
      <trkpt lat="44.22795" lon="5.39928">
        <ele>1042</ele>
        <time>2026-05-13T12:55:26.000Z</time>
      </trkpt>
      <trkpt lat="44.22795" lon="5.39928">
        <ele>1042</ele>
        <time>2026-05-13T12:55:27.000Z</time>
      </trkpt>
      <trkpt lat="44.22795" lon="5.39928">
        <ele>1042</ele>
        <time>2026-05-13T12:55:28.000Z</time>
      </trkpt>
      <trkpt lat="44.22795" lon="5.39928">
        <ele>1042</ele>
        <time>2026-05-13T12:55:29.000Z</time>
      </trkpt>
      <trkpt lat="44.22795" lon="5.39928">
        <ele>1042</ele>
        <time>2026-05-13T12:55:30.000Z</time>
      </trkpt>
      <trkpt lat="44.22795" lon="5.39928">
        <ele>1042</ele>
        <time>2026-05-13T12:55:31.000Z</time>
      </trkpt>
      <trkpt lat="44.22795" lon="5.39928">
        <ele>1042</ele>
        <time>2026-05-13T12:55:32.000Z</time>
      </trkpt>
      <trkpt lat="44.22795" lon="5.39928">
        <ele>1042</ele>
        <time>2026-05-13T12:55:33.000Z</time>
      </trkpt>
      <trkpt lat="44.22795" lon="5.39928">
        <ele>1042</ele>
        <time>2026-05-13T12:55:34.000Z</time>
      </trkpt>
      <trkpt lat="44.22795" lon="5.39928">
        <ele>1042</ele>
        <time>2026-05-13T12:55:35.000Z</time>
      </trkpt>
      <trkpt lat="44.22795" lon="5.39928">
        <ele>1042</ele>
        <time>2026-05-13T12:55:36.000Z</time>
      </trkpt>
      <trkpt lat="44.22795" lon="5.39928">
        <ele>1042</ele>
        <time>2026-05-13T12:55:37.000Z</time>
      </trkpt>
      <trkpt lat="44.22795" lon="5.39928">
        <ele>1042</ele>
        <time>2026-05-13T12:55:38.000Z</time>
      </trkpt>
      <trkpt lat="44.22795" lon="5.39928">
        <ele>1042</ele>
        <time>2026-05-13T12:55:39.000Z</time>
      </trkpt>
      <trkpt lat="44.22795" lon="5.39928">
        <ele>1042</ele>
        <time>2026-05-13T12:55:40.000Z</time>
      </trkpt>
      <trkpt lat="44.22795" lon="5.39928">
        <ele>1042</ele>
        <time>2026-05-13T12:55:41.000Z</time>
      </trkpt>
      <trkpt lat="44.22795" lon="5.39928">
        <ele>1042</ele>
        <time>2026-05-13T12:55:42.000Z</time>
      </trkpt>
      <trkpt lat="44.22795" lon="5.39928">
        <ele>1042</ele>
        <time>2026-05-13T12:55:43.000Z</time>
      </trkpt>
      <trkpt lat="44.22795" lon="5.39928">
        <ele>1042</ele>
        <time>2026-05-13T12:55:44.000Z</time>
      </trkpt>
      <trkpt lat="44.22795" lon="5.39928">
        <ele>1042</ele>
        <time>2026-05-13T12:55:45.000Z</time>
      </trkpt>
      <trkpt lat="44.22795" lon="5.39928">
        <ele>1042</ele>
        <time>2026-05-13T12:55:46.000Z</time>
      </trkpt>
      <trkpt lat="44.22795" lon="5.39928">
        <ele>1042</ele>
        <time>2026-05-13T12:55:47.000Z</time>
      </trkpt>
      <trkpt lat="44.22795" lon="5.39928">
        <ele>1042</ele>
        <time>2026-05-13T12:55:48.000Z</time>
      </trkpt>
      <trkpt lat="44.22795" lon="5.39928">
        <ele>1042</ele>
        <time>2026-05-13T12:55:49.000Z</time>
      </trkpt>
      <trkpt lat="44.22795" lon="5.39928">
        <ele>1042</ele>
        <time>2026-05-13T12:55:50.000Z</time>
      </trkpt>
      <trkpt lat="44.22795" lon="5.39928">
        <ele>1042</ele>
        <time>2026-05-13T12:55:51.000Z</time>
      </trkpt>
      <trkpt lat="44.22795" lon="5.39928">
        <ele>1042</ele>
        <time>2026-05-13T12:55:52.000Z</time>
      </trkpt>
      <trkpt lat="44.22795" lon="5.39928">
        <ele>1042</ele>
        <time>2026-05-13T12:55:53.000Z</time>
      </trkpt>
      <trkpt lat="44.22795" lon="5.39928">
        <ele>1042</ele>
        <time>2026-05-13T12:55:54.000Z</time>
      </trkpt>
      <trkpt lat="44.22795" lon="5.39928">
        <ele>1042</ele>
        <time>2026-05-13T12:55:55.000Z</time>
      </trkpt>
      <trkpt lat="44.22795" lon="5.39928">
        <ele>1042</ele>
        <time>2026-05-13T12:55:56.000Z</time>
      </trkpt>
      <trkpt lat="44.22795" lon="5.39928">
        <ele>1042</ele>
        <time>2026-05-13T12:55:57.000Z</time>
      </trkpt>
      <trkpt lat="44.22795" lon="5.39928">
        <ele>1042</ele>
        <time>2026-05-13T12:55:58.000Z</time>
      </trkpt>
      <trkpt lat="44.22795" lon="5.39928">
        <ele>1042</ele>
        <time>2026-05-13T12:55:59.000Z</time>
      </trkpt>
      <trkpt lat="44.22795" lon="5.39928">
        <ele>1042</ele>
        <time>2026-05-13T12:56:00.000Z</time>
      </trkpt>
      <trkpt lat="44.22795" lon="5.39928">
        <ele>1042</ele>
        <time>2026-05-13T12:56:01.000Z</time>
      </trkpt>
      <trkpt lat="44.22795" lon="5.39928">
        <ele>1042</ele>
        <time>2026-05-13T12:56:02.000Z</time>
      </trkpt>
      <trkpt lat="44.22795" lon="5.39928">
        <ele>1042</ele>
        <time>2026-05-13T12:56:03.000Z</time>
      </trkpt>
      <trkpt lat="44.22795" lon="5.39928">
        <ele>1042</ele>
        <time>2026-05-13T12:56:04.000Z</time>
      </trkpt>
      <trkpt lat="44.22795" lon="5.39928">
        <ele>1042</ele>
        <time>2026-05-13T12:56:05.000Z</time>
      </trkpt>
      <trkpt lat="44.22795" lon="5.39928">
        <ele>1042</ele>
        <time>2026-05-13T12:56:06.000Z</time>
      </trkpt>
      <trkpt lat="44.22795" lon="5.39928">
        <ele>1042</ele>
        <time>2026-05-13T12:56:07.000Z</time>
      </trkpt>
      <trkpt lat="44.22795" lon="5.39928">
        <ele>1042</ele>
        <time>2026-05-13T12:56:08.000Z</time>
      </trkpt>
      <trkpt lat="44.22795" lon="5.39928">
        <ele>1042</ele>
        <time>2026-05-13T12:56:09.000Z</time>
      </trkpt>
      <trkpt lat="44.22795" lon="5.39928">
        <ele>1042</ele>
        <time>2026-05-13T12:56:10.000Z</time>
      </trkpt>
      <trkpt lat="44.22795" lon="5.39928">
        <ele>1042</ele>
        <time>2026-05-13T12:56:11.000Z</time>
      </trkpt>
      <trkpt lat="44.22795" lon="5.39928">
        <ele>1042</ele>
        <time>2026-05-13T12:56:12.000Z</time>
      </trkpt>
      <trkpt lat="44.22795" lon="5.39928">
        <ele>1042</ele>
        <time>2026-05-13T12:56:13.000Z</time>
      </trkpt>
      <trkpt lat="44.22795" lon="5.39928">
        <ele>1042</ele>
        <time>2026-05-13T12:56:14.000Z</time>
      </trkpt>
      <trkpt lat="44.22795" lon="5.39928">
        <ele>1042</ele>
        <time>2026-05-13T12:56:15.000Z</time>
      </trkpt>
      <trkpt lat="44.22795" lon="5.39928">
        <ele>1042</ele>
        <time>2026-05-13T12:56:16.000Z</time>
      </trkpt>
      <trkpt lat="44.22795" lon="5.39928">
        <ele>1042</ele>
        <time>2026-05-13T12:56:17.000Z</time>
      </trkpt>
      <trkpt lat="44.22795" lon="5.39928">
        <ele>1042</ele>
        <time>2026-05-13T12:56:18.000Z</time>
      </trkpt>
      <trkpt lat="44.22795" lon="5.39928">
        <ele>1042</ele>
        <time>2026-05-13T12:56:19.000Z</time>
      </trkpt>
      <trkpt lat="44.22795" lon="5.39928">
        <ele>1042</ele>
        <time>2026-05-13T12:56:20.000Z</time>
      </trkpt>
      <trkpt lat="44.22795" lon="5.39928">
        <ele>1042</ele>
        <time>2026-05-13T12:56:21.000Z</time>
      </trkpt>
      <trkpt lat="44.22795" lon="5.39928">
        <ele>1042</ele>
        <time>2026-05-13T12:56:22.000Z</time>
      </trkpt>
      <trkpt lat="44.22795" lon="5.39928">
        <ele>1042</ele>
        <time>2026-05-13T12:56:23.000Z</time>
      </trkpt>
      <trkpt lat="44.22795" lon="5.39928">
        <ele>1042</ele>
        <time>2026-05-13T12:56:24.000Z</time>
      </trkpt>
      <trkpt lat="44.22795" lon="5.39928">
        <ele>1042</ele>
        <time>2026-05-13T12:56:25.000Z</time>
      </trkpt>
      <trkpt lat="44.22795" lon="5.39928">
        <ele>1042</ele>
        <time>2026-05-13T12:56:26.000Z</time>
      </trkpt>
      <trkpt lat="44.22795" lon="5.39928">
        <ele>1042</ele>
        <time>2026-05-13T12:56:27.000Z</time>
      </trkpt>
      <trkpt lat="44.22795" lon="5.39928">
        <ele>1042</ele>
        <time>2026-05-13T12:56:28.000Z</time>
      </trkpt>
      <trkpt lat="44.22795" lon="5.39928">
        <ele>1042</ele>
        <time>2026-05-13T12:56:29.000Z</time>
      </trkpt>
      <trkpt lat="44.22795" lon="5.39928">
        <ele>1042</ele>
        <time>2026-05-13T12:56:30.000Z</time>
      </trkpt>
      <trkpt lat="44.22795" lon="5.39928">
        <ele>1042</ele>
        <time>2026-05-13T12:56:31.000Z</time>
      </trkpt>
      <trkpt lat="44.22795" lon="5.39928">
        <ele>1042</ele>
        <time>2026-05-13T12:56:32.000Z</time>
      </trkpt>
      <trkpt lat="44.22795" lon="5.39928">
        <ele>1042</ele>
        <time>2026-05-13T12:56:33.000Z</time>
      </trkpt>
      <trkpt lat="44.22795" lon="5.39928">
        <ele>1042</ele>
        <time>2026-05-13T12:56:34.000Z</time>
      </trkpt>
      <trkpt lat="44.22795" lon="5.39928">
        <ele>1042</ele>
        <time>2026-05-13T12:56:35.000Z</time>
      </trkpt>
      <trkpt lat="44.22795" lon="5.39928">
        <ele>1042</ele>
        <time>2026-05-13T12:56:36.000Z</time>
      </trkpt>
      <trkpt lat="44.22795" lon="5.39928">
        <ele>1042</ele>
        <time>2026-05-13T12:56:37.000Z</time>
      </trkpt>
      <trkpt lat="44.22795" lon="5.39928">
        <ele>1042</ele>
        <time>2026-05-13T12:56:38.000Z</time>
      </trkpt>
      <trkpt lat="44.22795" lon="5.39928">
        <ele>1042</ele>
        <time>2026-05-13T12:56:39.000Z</time>
      </trkpt>
      <trkpt lat="44.22795" lon="5.39928">
        <ele>1042</ele>
        <time>2026-05-13T12:56:40.000Z</time>
      </trkpt>
      <trkpt lat="44.22795" lon="5.39928">
        <ele>1042</ele>
        <time>2026-05-13T12:56:41.000Z</time>
      </trkpt>
      <trkpt lat="44.22796" lon="5.39929">
        <ele>1042</ele>
        <time>2026-05-13T12:56:42.000Z</time>
      </trkpt>
      <trkpt lat="44.22796" lon="5.39929">
        <ele>1042</ele>
        <time>2026-05-13T12:56:43.000Z</time>
      </trkpt>
      <trkpt lat="44.22796" lon="5.39929">
        <ele>1042</ele>
        <time>2026-05-13T12:56:44.000Z</time>
      </trkpt>
      <trkpt lat="44.22796" lon="5.39929">
        <ele>1042</ele>
        <time>2026-05-13T12:56:45.000Z</time>
      </trkpt>
      <trkpt lat="44.22796" lon="5.39929">
        <ele>1042</ele>
        <time>2026-05-13T12:56:46.000Z</time>
      </trkpt>
      <trkpt lat="44.22796" lon="5.39929">
        <ele>1042</ele>
        <time>2026-05-13T12:56:47.000Z</time>
      </trkpt>
      <trkpt lat="44.22796" lon="5.39929">
        <ele>1042</ele>
        <time>2026-05-13T12:56:48.000Z</time>
      </trkpt>
      <trkpt lat="44.22796" lon="5.39929">
        <ele>1042</ele>
        <time>2026-05-13T12:56:49.000Z</time>
      </trkpt>
      <trkpt lat="44.22796" lon="5.39929">
        <ele>1042</ele>
        <time>2026-05-13T12:56:50.000Z</time>
      </trkpt>
      <trkpt lat="44.22796" lon="5.39929">
        <ele>1042</ele>
        <time>2026-05-13T12:56:51.000Z</time>
      </trkpt>
      <trkpt lat="44.22796" lon="5.39929">
        <ele>1042</ele>
        <time>2026-05-13T12:56:52.000Z</time>
      </trkpt>
      <trkpt lat="44.22796" lon="5.39929">
        <ele>1042</ele>
        <time>2026-05-13T12:56:53.000Z</time>
      </trkpt>
      <trkpt lat="44.22796" lon="5.39929">
        <ele>1042</ele>
        <time>2026-05-13T12:56:54.000Z</time>
      </trkpt>
      <trkpt lat="44.22796" lon="5.39929">
        <ele>1042</ele>
        <time>2026-05-13T12:56:55.000Z</time>
      </trkpt>
      <trkpt lat="44.22796" lon="5.39929">
        <ele>1042</ele>
        <time>2026-05-13T12:56:56.000Z</time>
      </trkpt>
      <trkpt lat="44.22796" lon="5.39929">
        <ele>1042</ele>
        <time>2026-05-13T12:56:57.000Z</time>
      </trkpt>
      <trkpt lat="44.22796" lon="5.39929">
        <ele>1042</ele>
        <time>2026-05-13T12:56:58.000Z</time>
      </trkpt>
      <trkpt lat="44.22796" lon="5.39929">
        <ele>1042</ele>
        <time>2026-05-13T12:56:59.000Z</time>
      </trkpt>
      <trkpt lat="44.22796" lon="5.39929">
        <ele>1042</ele>
        <time>2026-05-13T12:57:00.000Z</time>
      </trkpt>
      <trkpt lat="44.22796" lon="5.39929">
        <ele>1042</ele>
        <time>2026-05-13T12:57:01.000Z</time>
      </trkpt>
      <trkpt lat="44.22796" lon="5.39929">
        <ele>1042</ele>
        <time>2026-05-13T12:57:02.000Z</time>
      </trkpt>
      <trkpt lat="44.22796" lon="5.39929">
        <ele>1042</ele>
        <time>2026-05-13T12:57:03.000Z</time>
      </trkpt>
      <trkpt lat="44.22796" lon="5.39929">
        <ele>1042</ele>
        <time>2026-05-13T12:57:04.000Z</time>
      </trkpt>
      <trkpt lat="44.22796" lon="5.39929">
        <ele>1042</ele>
        <time>2026-05-13T12:57:05.000Z</time>
      </trkpt>
      <trkpt lat="44.22796" lon="5.39929">
        <ele>1042</ele>
        <time>2026-05-13T12:57:06.000Z</time>
      </trkpt>
      <trkpt lat="44.22796" lon="5.39929">
        <ele>1042</ele>
        <time>2026-05-13T12:57:07.000Z</time>
      </trkpt>
      <trkpt lat="44.22796" lon="5.39929">
        <ele>1042</ele>
        <time>2026-05-13T12:57:08.000Z</time>
      </trkpt>
      <trkpt lat="44.22796" lon="5.39929">
        <ele>1042</ele>
        <time>2026-05-13T12:57:09.000Z</time>
      </trkpt>
      <trkpt lat="44.22796" lon="5.39929">
        <ele>1042</ele>
        <time>2026-05-13T12:57:10.000Z</time>
      </trkpt>
      <trkpt lat="44.22796" lon="5.3993">
        <ele>1042</ele>
        <time>2026-05-13T12:57:11.000Z</time>
      </trkpt>
      <trkpt lat="44.22796" lon="5.3993">
        <ele>1042</ele>
        <time>2026-05-13T12:57:12.000Z</time>
      </trkpt>
      <trkpt lat="44.22795" lon="5.39931">
        <ele>1042</ele>
        <time>2026-05-13T12:57:13.000Z</time>
      </trkpt>
      <trkpt lat="44.22795" lon="5.3993">
        <ele>1043</ele>
        <time>2026-05-13T12:57:14.000Z</time>
      </trkpt>
      <trkpt lat="44.22795" lon="5.39929">
        <ele>1042</ele>
        <time>2026-05-13T12:57:15.000Z</time>
      </trkpt>
      <trkpt lat="44.22795" lon="5.39928">
        <ele>1043</ele>
        <time>2026-05-13T12:57:16.000Z</time>
      </trkpt>
      <trkpt lat="44.22795" lon="5.39928">
        <ele>1043</ele>
        <time>2026-05-13T12:57:17.000Z</time>
      </trkpt>
      <trkpt lat="44.22795" lon="5.39928">
        <ele>1043</ele>
        <time>2026-05-13T12:57:18.000Z</time>
      </trkpt>
      <trkpt lat="44.22795" lon="5.39928">
        <ele>1043</ele>
        <time>2026-05-13T12:57:19.000Z</time>
      </trkpt>
      <trkpt lat="44.22795" lon="5.39928">
        <ele>1043</ele>
        <time>2026-05-13T12:57:20.000Z</time>
      </trkpt>
      <trkpt lat="44.22795" lon="5.39928">
        <ele>1043</ele>
        <time>2026-05-13T12:57:21.000Z</time>
      </trkpt>
      <trkpt lat="44.22795" lon="5.39928">
        <ele>1043</ele>
        <time>2026-05-13T12:57:22.000Z</time>
      </trkpt>
      <trkpt lat="44.22795" lon="5.39928">
        <ele>1043</ele>
        <time>2026-05-13T12:57:23.000Z</time>
      </trkpt>
      <trkpt lat="44.22795" lon="5.39928">
        <ele>1043</ele>
        <time>2026-05-13T12:57:24.000Z</time>
      </trkpt>
      <trkpt lat="44.22795" lon="5.39928">
        <ele>1043</ele>
        <time>2026-05-13T12:57:25.000Z</time>
      </trkpt>
      <trkpt lat="44.22795" lon="5.39928">
        <ele>1043</ele>
        <time>2026-05-13T12:57:26.000Z</time>
      </trkpt>
      <trkpt lat="44.22795" lon="5.39928">
        <ele>1043</ele>
        <time>2026-05-13T12:57:27.000Z</time>
      </trkpt>
      <trkpt lat="44.22795" lon="5.39928">
        <ele>1043</ele>
        <time>2026-05-13T12:57:28.000Z</time>
      </trkpt>
      <trkpt lat="44.22795" lon="5.39928">
        <ele>1043</ele>
        <time>2026-05-13T12:57:29.000Z</time>
      </trkpt>
      <trkpt lat="44.22794" lon="5.39928">
        <ele>1042</ele>
        <time>2026-05-13T12:57:30.000Z</time>
      </trkpt>
      <trkpt lat="44.22794" lon="5.39928">
        <ele>1042</ele>
        <time>2026-05-13T12:57:31.000Z</time>
      </trkpt>
      <trkpt lat="44.22794" lon="5.39928">
        <ele>1042</ele>
        <time>2026-05-13T12:57:32.000Z</time>
      </trkpt>
      <trkpt lat="44.22795" lon="5.39928">
        <ele>1042</ele>
        <time>2026-05-13T12:57:33.000Z</time>
      </trkpt>
      <trkpt lat="44.22795" lon="5.39927">
        <ele>1042</ele>
        <time>2026-05-13T12:57:34.000Z</time>
      </trkpt>
      <trkpt lat="44.22795" lon="5.39927">
        <ele>1042</ele>
        <time>2026-05-13T12:57:35.000Z</time>
      </trkpt>
      <trkpt lat="44.22793" lon="5.39937">
        <ele>1036</ele>
        <time>2026-05-13T12:57:42.000Z</time>
      </trkpt>
      <trkpt lat="44.22793" lon="5.39937">
        <ele>1036</ele>
        <time>2026-05-13T12:57:43.000Z</time>
      </trkpt>
      <trkpt lat="44.22793" lon="5.39937">
        <ele>1036</ele>
        <time>2026-05-13T12:57:44.000Z</time>
      </trkpt>
      <trkpt lat="44.22793" lon="5.39937">
        <ele>1036</ele>
        <time>2026-05-13T12:57:45.000Z</time>
      </trkpt>
      <trkpt lat="44.22793" lon="5.39937">
        <ele>1036</ele>
        <time>2026-05-13T12:57:46.000Z</time>
      </trkpt>
      <trkpt lat="44.22793" lon="5.39937">
        <ele>1036</ele>
        <time>2026-05-13T12:57:47.000Z</time>
      </trkpt>
      <trkpt lat="44.22793" lon="5.39937">
        <ele>1036</ele>
        <time>2026-05-13T12:57:48.000Z</time>
      </trkpt>
      <trkpt lat="44.22793" lon="5.39937">
        <ele>1036</ele>
        <time>2026-05-13T12:57:49.000Z</time>
      </trkpt>
      <trkpt lat="44.22793" lon="5.39937">
        <ele>1036</ele>
        <time>2026-05-13T12:57:50.000Z</time>
      </trkpt>
      <trkpt lat="44.22793" lon="5.39937">
        <ele>1036</ele>
        <time>2026-05-13T12:57:51.000Z</time>
      </trkpt>
      <trkpt lat="44.22793" lon="5.39937">
        <ele>1036</ele>
        <time>2026-05-13T12:57:52.000Z</time>
      </trkpt>
      <trkpt lat="44.22793" lon="5.39937">
        <ele>1036</ele>
        <time>2026-05-13T12:57:53.000Z</time>
      </trkpt>
      <trkpt lat="44.22793" lon="5.39937">
        <ele>1036</ele>
        <time>2026-05-13T12:57:54.000Z</time>
      </trkpt>
      <trkpt lat="44.22793" lon="5.39937">
        <ele>1036</ele>
        <time>2026-05-13T12:57:55.000Z</time>
      </trkpt>
      <trkpt lat="44.22793" lon="5.39937">
        <ele>1036</ele>
        <time>2026-05-13T12:57:56.000Z</time>
      </trkpt>
      <trkpt lat="44.22793" lon="5.39937">
        <ele>1036</ele>
        <time>2026-05-13T12:57:57.000Z</time>
      </trkpt>
      <trkpt lat="44.22793" lon="5.39937">
        <ele>1036</ele>
        <time>2026-05-13T12:57:58.000Z</time>
      </trkpt>
      <trkpt lat="44.22793" lon="5.39937">
        <ele>1036</ele>
        <time>2026-05-13T12:57:59.000Z</time>
      </trkpt>
      <trkpt lat="44.22793" lon="5.39937">
        <ele>1036</ele>
        <time>2026-05-13T12:58:00.000Z</time>
      </trkpt>
      <trkpt lat="44.22793" lon="5.39937">
        <ele>1036</ele>
        <time>2026-05-13T12:58:01.000Z</time>
      </trkpt>
      <trkpt lat="44.22793" lon="5.39937">
        <ele>1036</ele>
        <time>2026-05-13T12:58:02.000Z</time>
      </trkpt>
      <trkpt lat="44.22793" lon="5.39937">
        <ele>1036</ele>
        <time>2026-05-13T12:58:03.000Z</time>
      </trkpt>
      <trkpt lat="44.22793" lon="5.39937">
        <ele>1036</ele>
        <time>2026-05-13T12:58:04.000Z</time>
      </trkpt>
      <trkpt lat="44.22793" lon="5.39937">
        <ele>1036</ele>
        <time>2026-05-13T12:58:05.000Z</time>
      </trkpt>
      <trkpt lat="44.22793" lon="5.39937">
        <ele>1036</ele>
        <time>2026-05-13T12:58:06.000Z</time>
      </trkpt>
      <trkpt lat="44.22793" lon="5.39937">
        <ele>1036</ele>
        <time>2026-05-13T12:58:07.000Z</time>
      </trkpt>
      <trkpt lat="44.22793" lon="5.39937">
        <ele>1036</ele>
        <time>2026-05-13T12:58:08.000Z</time>
      </trkpt>
      <trkpt lat="44.22793" lon="5.39937">
        <ele>1036</ele>
        <time>2026-05-13T12:58:09.000Z</time>
      </trkpt>
      <trkpt lat="44.22793" lon="5.39937">
        <ele>1036</ele>
        <time>2026-05-13T12:58:10.000Z</time>
      </trkpt>
      <trkpt lat="44.22793" lon="5.39937">
        <ele>1036</ele>
        <time>2026-05-13T12:58:11.000Z</time>
      </trkpt>
      <trkpt lat="44.22793" lon="5.39937">
        <ele>1036</ele>
        <time>2026-05-13T12:58:12.000Z</time>
      </trkpt>
      <trkpt lat="44.22793" lon="5.39937">
        <ele>1036</ele>
        <time>2026-05-13T12:58:13.000Z</time>
      </trkpt>
      <trkpt lat="44.22793" lon="5.39937">
        <ele>1036</ele>
        <time>2026-05-13T12:58:14.000Z</time>
      </trkpt>
      <trkpt lat="44.22793" lon="5.39937">
        <ele>1036</ele>
        <time>2026-05-13T12:58:15.000Z</time>
      </trkpt>
      <trkpt lat="44.22793" lon="5.39937">
        <ele>1036</ele>
        <time>2026-05-13T12:58:16.000Z</time>
      </trkpt>
      <trkpt lat="44.22793" lon="5.39937">
        <ele>1036</ele>
        <time>2026-05-13T12:58:17.000Z</time>
      </trkpt>
      <trkpt lat="44.22793" lon="5.39937">
        <ele>1036</ele>
        <time>2026-05-13T12:58:18.000Z</time>
      </trkpt>
      <trkpt lat="44.22793" lon="5.39937">
        <ele>1036</ele>
        <time>2026-05-13T12:58:19.000Z</time>
      </trkpt>
      <trkpt lat="44.22793" lon="5.39937">
        <ele>1036</ele>
        <time>2026-05-13T12:58:20.000Z</time>
      </trkpt>
      <trkpt lat="44.22793" lon="5.39937">
        <ele>1036</ele>
        <time>2026-05-13T12:58:21.000Z</time>
      </trkpt>
      <trkpt lat="44.22793" lon="5.39937">
        <ele>1036</ele>
        <time>2026-05-13T12:58:22.000Z</time>
      </trkpt>
      <trkpt lat="44.22793" lon="5.39937">
        <ele>1036</ele>
        <time>2026-05-13T12:58:23.000Z</time>
      </trkpt>
      <trkpt lat="44.22793" lon="5.39937">
        <ele>1036</ele>
        <time>2026-05-13T12:58:24.000Z</time>
      </trkpt>
      <trkpt lat="44.22793" lon="5.39937">
        <ele>1036</ele>
        <time>2026-05-13T12:58:25.000Z</time>
      </trkpt>
      <trkpt lat="44.22793" lon="5.39937">
        <ele>1036</ele>
        <time>2026-05-13T12:58:26.000Z</time>
      </trkpt>
      <trkpt lat="44.22793" lon="5.39937">
        <ele>1036</ele>
        <time>2026-05-13T12:58:27.000Z</time>
      </trkpt>
      <trkpt lat="44.22796" lon="5.39929">
        <ele>1042</ele>
        <time>2026-05-13T12:58:28.000Z</time>
      </trkpt>
      <trkpt lat="44.22795" lon="5.39929">
        <ele>1041</ele>
        <time>2026-05-13T12:58:29.000Z</time>
      </trkpt>
      <trkpt lat="44.22794" lon="5.39929">
        <ele>1039</ele>
        <time>2026-05-13T12:58:30.000Z</time>
      </trkpt>
      <trkpt lat="44.22793" lon="5.39929">
        <ele>1038</ele>
        <time>2026-05-13T12:58:31.000Z</time>
      </trkpt>
      <trkpt lat="44.22794" lon="5.39928">
        <ele>1040</ele>
        <time>2026-05-13T12:58:32.000Z</time>
      </trkpt>
      <trkpt lat="44.22793" lon="5.39929">
        <ele>1040</ele>
        <time>2026-05-13T12:58:33.000Z</time>
      </trkpt>
      <trkpt lat="44.22793" lon="5.39929">
        <ele>1040</ele>
        <time>2026-05-13T12:58:34.000Z</time>
      </trkpt>
      <trkpt lat="44.22795" lon="5.39929">
        <ele>1041</ele>
        <time>2026-05-13T12:58:35.000Z</time>
      </trkpt>
      <trkpt lat="44.22795" lon="5.39928">
        <ele>1041</ele>
        <time>2026-05-13T12:58:36.000Z</time>
      </trkpt>
      <trkpt lat="44.22795" lon="5.39927">
        <ele>1041</ele>
        <time>2026-05-13T12:58:37.000Z</time>
      </trkpt>
      <trkpt lat="44.22796" lon="5.39927">
        <ele>1041</ele>
        <time>2026-05-13T12:58:38.000Z</time>
      </trkpt>
      <trkpt lat="44.22796" lon="5.39925">
        <ele>1041</ele>
        <time>2026-05-13T12:58:39.000Z</time>
      </trkpt>
      <trkpt lat="44.22796" lon="5.39924">
        <ele>1042</ele>
        <time>2026-05-13T12:58:40.000Z</time>
      </trkpt>
      <trkpt lat="44.22797" lon="5.39923">
        <ele>1042</ele>
        <time>2026-05-13T12:58:41.000Z</time>
      </trkpt>
      <trkpt lat="44.22796" lon="5.39922">
        <ele>1042</ele>
        <time>2026-05-13T12:58:42.000Z</time>
      </trkpt>
      <trkpt lat="44.22797" lon="5.39921">
        <ele>1043</ele>
        <time>2026-05-13T12:58:43.000Z</time>
      </trkpt>
      <trkpt lat="44.22797" lon="5.39921">
        <ele>1043</ele>
        <time>2026-05-13T12:58:44.000Z</time>
      </trkpt>
      <trkpt lat="44.22797" lon="5.3992">
        <ele>1044</ele>
        <time>2026-05-13T12:58:45.000Z</time>
      </trkpt>
      <trkpt lat="44.22797" lon="5.3992">
        <ele>1044</ele>
        <time>2026-05-13T12:58:46.000Z</time>
      </trkpt>
      <trkpt lat="44.22797" lon="5.39919">
        <ele>1043</ele>
        <time>2026-05-13T12:58:47.000Z</time>
      </trkpt>
      <trkpt lat="44.22797" lon="5.39917">
        <ele>1044</ele>
        <time>2026-05-13T12:58:48.000Z</time>
      </trkpt>
      <trkpt lat="44.22797" lon="5.39917">
        <ele>1044</ele>
        <time>2026-05-13T12:58:49.000Z</time>
      </trkpt>
      <trkpt lat="44.22797" lon="5.39916">
        <ele>1045</ele>
        <time>2026-05-13T12:58:50.000Z</time>
      </trkpt>
      <trkpt lat="44.22797" lon="5.39915">
        <ele>1045</ele>
        <time>2026-05-13T12:58:51.000Z</time>
      </trkpt>
      <trkpt lat="44.22797" lon="5.39914">
        <ele>1045</ele>
        <time>2026-05-13T12:58:52.000Z</time>
      </trkpt>
      <trkpt lat="44.22797" lon="5.39913">
        <ele>1045</ele>
        <time>2026-05-13T12:58:53.000Z</time>
      </trkpt>
      <trkpt lat="44.22796" lon="5.39913">
        <ele>1045</ele>
        <time>2026-05-13T12:58:54.000Z</time>
      </trkpt>
      <trkpt lat="44.22796" lon="5.39912">
        <ele>1046</ele>
        <time>2026-05-13T12:58:55.000Z</time>
      </trkpt>
      <trkpt lat="44.22795" lon="5.39911">
        <ele>1045</ele>
        <time>2026-05-13T12:58:56.000Z</time>
      </trkpt>
      <trkpt lat="44.22795" lon="5.39911">
        <ele>1046</ele>
        <time>2026-05-13T12:58:57.000Z</time>
      </trkpt>
      <trkpt lat="44.22794" lon="5.3991">
        <ele>1046</ele>
        <time>2026-05-13T12:58:58.000Z</time>
      </trkpt>
      <trkpt lat="44.22794" lon="5.39909">
        <ele>1047</ele>
        <time>2026-05-13T12:58:59.000Z</time>
      </trkpt>
      <trkpt lat="44.22793" lon="5.39909">
        <ele>1047</ele>
        <time>2026-05-13T12:59:00.000Z</time>
      </trkpt>
      <trkpt lat="44.22792" lon="5.39909">
        <ele>1046</ele>
        <time>2026-05-13T12:59:01.000Z</time>
      </trkpt>
      <trkpt lat="44.22792" lon="5.39908">
        <ele>1047</ele>
        <time>2026-05-13T12:59:02.000Z</time>
      </trkpt>
      <trkpt lat="44.22791" lon="5.39908">
        <ele>1047</ele>
        <time>2026-05-13T12:59:03.000Z</time>
      </trkpt>
      <trkpt lat="44.22791" lon="5.39908">
        <ele>1046</ele>
        <time>2026-05-13T12:59:04.000Z</time>
      </trkpt>
      <trkpt lat="44.2279" lon="5.39907">
        <ele>1047</ele>
        <time>2026-05-13T12:59:05.000Z</time>
      </trkpt>
      <trkpt lat="44.2279" lon="5.39906">
        <ele>1047</ele>
        <time>2026-05-13T12:59:06.000Z</time>
      </trkpt>
      <trkpt lat="44.22789" lon="5.39905">
        <ele>1047</ele>
        <time>2026-05-13T12:59:07.000Z</time>
      </trkpt>
      <trkpt lat="44.22788" lon="5.39905">
        <ele>1048</ele>
        <time>2026-05-13T12:59:08.000Z</time>
      </trkpt>
      <trkpt lat="44.22787" lon="5.39904">
        <ele>1048</ele>
        <time>2026-05-13T12:59:09.000Z</time>
      </trkpt>
      <trkpt lat="44.22786" lon="5.39903">
        <ele>1048</ele>
        <time>2026-05-13T12:59:10.000Z</time>
      </trkpt>
      <trkpt lat="44.22786" lon="5.39902">
        <ele>1049</ele>
        <time>2026-05-13T12:59:11.000Z</time>
      </trkpt>
      <trkpt lat="44.22786" lon="5.39902">
        <ele>1049</ele>
        <time>2026-05-13T12:59:12.000Z</time>
      </trkpt>
      <trkpt lat="44.22785" lon="5.39901">
        <ele>1049</ele>
        <time>2026-05-13T12:59:13.000Z</time>
      </trkpt>
      <trkpt lat="44.22786" lon="5.399">
        <ele>1049</ele>
        <time>2026-05-13T12:59:14.000Z</time>
      </trkpt>
      <trkpt lat="44.22787" lon="5.399">
        <ele>1049</ele>
        <time>2026-05-13T12:59:15.000Z</time>
      </trkpt>
      <trkpt lat="44.22788" lon="5.39898">
        <ele>1049</ele>
        <time>2026-05-13T12:59:16.000Z</time>
      </trkpt>
      <trkpt lat="44.22788" lon="5.39898">
        <ele>1049</ele>
        <time>2026-05-13T12:59:17.000Z</time>
      </trkpt>
      <trkpt lat="44.22788" lon="5.39897">
        <ele>1049</ele>
        <time>2026-05-13T12:59:18.000Z</time>
      </trkpt>
      <trkpt lat="44.22788" lon="5.39897">
        <ele>1049</ele>
        <time>2026-05-13T12:59:19.000Z</time>
      </trkpt>
      <trkpt lat="44.22789" lon="5.39897">
        <ele>1049</ele>
        <time>2026-05-13T12:59:20.000Z</time>
      </trkpt>
      <trkpt lat="44.22789" lon="5.39896">
        <ele>1050</ele>
        <time>2026-05-13T12:59:21.000Z</time>
      </trkpt>
      <trkpt lat="44.22789" lon="5.39895">
        <ele>1050</ele>
        <time>2026-05-13T12:59:22.000Z</time>
      </trkpt>
      <trkpt lat="44.2279" lon="5.39894">
        <ele>1051</ele>
        <time>2026-05-13T12:59:23.000Z</time>
      </trkpt>
      <trkpt lat="44.22791" lon="5.39894">
        <ele>1051</ele>
        <time>2026-05-13T12:59:24.000Z</time>
      </trkpt>
      <trkpt lat="44.22792" lon="5.39894">
        <ele>1051</ele>
        <time>2026-05-13T12:59:25.000Z</time>
      </trkpt>
      <trkpt lat="44.22793" lon="5.39894">
        <ele>1052</ele>
        <time>2026-05-13T12:59:26.000Z</time>
      </trkpt>
      <trkpt lat="44.22794" lon="5.39894">
        <ele>1052</ele>
        <time>2026-05-13T12:59:27.000Z</time>
      </trkpt>
      <trkpt lat="44.22795" lon="5.39894">
        <ele>1052</ele>
        <time>2026-05-13T12:59:28.000Z</time>
      </trkpt>
      <trkpt lat="44.22795" lon="5.39894">
        <ele>1053</ele>
        <time>2026-05-13T12:59:29.000Z</time>
      </trkpt>
      <trkpt lat="44.22795" lon="5.39894">
        <ele>1052</ele>
        <time>2026-05-13T12:59:30.000Z</time>
      </trkpt>
      <trkpt lat="44.22795" lon="5.39894">
        <ele>1051</ele>
        <time>2026-05-13T12:59:31.000Z</time>
      </trkpt>
      <trkpt lat="44.22795" lon="5.39894">
        <ele>1051</ele>
        <time>2026-05-13T12:59:32.000Z</time>
      </trkpt>
      <trkpt lat="44.22795" lon="5.39895">
        <ele>1051</ele>
        <time>2026-05-13T12:59:33.000Z</time>
      </trkpt>
      <trkpt lat="44.22795" lon="5.39895">
        <ele>1051</ele>
        <time>2026-05-13T12:59:34.000Z</time>
      </trkpt>
      <trkpt lat="44.22795" lon="5.39895">
        <ele>1051</ele>
        <time>2026-05-13T12:59:35.000Z</time>
      </trkpt>
      <trkpt lat="44.22795" lon="5.39895">
        <ele>1051</ele>
        <time>2026-05-13T12:59:36.000Z</time>
      </trkpt>
      <trkpt lat="44.22795" lon="5.39895">
        <ele>1051</ele>
        <time>2026-05-13T12:59:37.000Z</time>
      </trkpt>
      <trkpt lat="44.22795" lon="5.39895">
        <ele>1051</ele>
        <time>2026-05-13T12:59:38.000Z</time>
      </trkpt>
      <trkpt lat="44.22795" lon="5.39895">
        <ele>1051</ele>
        <time>2026-05-13T12:59:39.000Z</time>
      </trkpt>
      <trkpt lat="44.22795" lon="5.39895">
        <ele>1051</ele>
        <time>2026-05-13T12:59:40.000Z</time>
      </trkpt>
      <trkpt lat="44.22795" lon="5.39895">
        <ele>1051</ele>
        <time>2026-05-13T12:59:41.000Z</time>
      </trkpt>
      <trkpt lat="44.22795" lon="5.39895">
        <ele>1052</ele>
        <time>2026-05-13T12:59:42.000Z</time>
      </trkpt>
      <trkpt lat="44.22795" lon="5.39895">
        <ele>1052</ele>
        <time>2026-05-13T12:59:43.000Z</time>
      </trkpt>
      <trkpt lat="44.22795" lon="5.39895">
        <ele>1052</ele>
        <time>2026-05-13T12:59:44.000Z</time>
      </trkpt>
      <trkpt lat="44.22795" lon="5.39895">
        <ele>1052</ele>
        <time>2026-05-13T12:59:45.000Z</time>
      </trkpt>
      <trkpt lat="44.22795" lon="5.39895">
        <ele>1052</ele>
        <time>2026-05-13T12:59:46.000Z</time>
      </trkpt>
      <trkpt lat="44.22795" lon="5.39895">
        <ele>1052</ele>
        <time>2026-05-13T12:59:47.000Z</time>
      </trkpt>
      <trkpt lat="44.22795" lon="5.39895">
        <ele>1052</ele>
        <time>2026-05-13T12:59:48.000Z</time>
      </trkpt>
      <trkpt lat="44.22795" lon="5.39895">
        <ele>1052</ele>
        <time>2026-05-13T12:59:49.000Z</time>
      </trkpt>
      <trkpt lat="44.22795" lon="5.39895">
        <ele>1052</ele>
        <time>2026-05-13T12:59:50.000Z</time>
      </trkpt>
      <trkpt lat="44.22795" lon="5.39895">
        <ele>1051</ele>
        <time>2026-05-13T12:59:51.000Z</time>
      </trkpt>
      <trkpt lat="44.22795" lon="5.39895">
        <ele>1051</ele>
        <time>2026-05-13T12:59:52.000Z</time>
      </trkpt>
      <trkpt lat="44.22795" lon="5.39895">
        <ele>1051</ele>
        <time>2026-05-13T12:59:53.000Z</time>
      </trkpt>
      <trkpt lat="44.22796" lon="5.39896">
        <ele>1051</ele>
        <time>2026-05-13T12:59:54.000Z</time>
      </trkpt>
      <trkpt lat="44.22797" lon="5.39896">
        <ele>1051</ele>
        <time>2026-05-13T12:59:55.000Z</time>
      </trkpt>
      <trkpt lat="44.22798" lon="5.39896">
        <ele>1051</ele>
        <time>2026-05-13T12:59:56.000Z</time>
      </trkpt>
      <trkpt lat="44.228" lon="5.39895">
        <ele>1051</ele>
        <time>2026-05-13T12:59:57.000Z</time>
      </trkpt>
      <trkpt lat="44.22801" lon="5.39895">
        <ele>1050</ele>
        <time>2026-05-13T12:59:58.000Z</time>
      </trkpt>
      <trkpt lat="44.22803" lon="5.39894">
        <ele>1050</ele>
        <time>2026-05-13T12:59:59.000Z</time>
      </trkpt>
      <trkpt lat="44.22805" lon="5.39894">
        <ele>1050</ele>
        <time>2026-05-13T13:00:00.000Z</time>
      </trkpt>
      <trkpt lat="44.22807" lon="5.39895">
        <ele>1050</ele>
        <time>2026-05-13T13:00:01.000Z</time>
      </trkpt>
      <trkpt lat="44.2281" lon="5.39896">
        <ele>1050</ele>
        <time>2026-05-13T13:00:02.000Z</time>
      </trkpt>
      <trkpt lat="44.22813" lon="5.39896">
        <ele>1050</ele>
        <time>2026-05-13T13:00:03.000Z</time>
      </trkpt>
      <trkpt lat="44.22816" lon="5.39894">
        <ele>1049</ele>
        <time>2026-05-13T13:00:04.000Z</time>
      </trkpt>
      <trkpt lat="44.22819" lon="5.39891">
        <ele>1050</ele>
        <time>2026-05-13T13:00:05.000Z</time>
      </trkpt>
      <trkpt lat="44.2282" lon="5.39889">
        <ele>1050</ele>
        <time>2026-05-13T13:00:06.000Z</time>
      </trkpt>
      <trkpt lat="44.22823" lon="5.39888">
        <ele>1050</ele>
        <time>2026-05-13T13:00:07.000Z</time>
      </trkpt>
      <trkpt lat="44.22825" lon="5.39887">
        <ele>1050</ele>
        <time>2026-05-13T13:00:08.000Z</time>
      </trkpt>
      <trkpt lat="44.22828" lon="5.39887">
        <ele>1051</ele>
        <time>2026-05-13T13:00:09.000Z</time>
      </trkpt>
      <trkpt lat="44.22829" lon="5.39888">
        <ele>1050</ele>
        <time>2026-05-13T13:00:10.000Z</time>
      </trkpt>
      <trkpt lat="44.2283" lon="5.39889">
        <ele>1050</ele>
        <time>2026-05-13T13:00:11.000Z</time>
      </trkpt>
      <trkpt lat="44.22832" lon="5.39891">
        <ele>1050</ele>
        <time>2026-05-13T13:00:12.000Z</time>
      </trkpt>
      <trkpt lat="44.22835" lon="5.3989">
        <ele>1050</ele>
        <time>2026-05-13T13:00:13.000Z</time>
      </trkpt>
      <trkpt lat="44.22838" lon="5.39889">
        <ele>1050</ele>
        <time>2026-05-13T13:00:14.000Z</time>
      </trkpt>
      <trkpt lat="44.2284" lon="5.3989">
        <ele>1050</ele>
        <time>2026-05-13T13:00:15.000Z</time>
      </trkpt>
      <trkpt lat="44.22843" lon="5.3989">
        <ele>1049</ele>
        <time>2026-05-13T13:00:16.000Z</time>
      </trkpt>
      <trkpt lat="44.22846" lon="5.3989">
        <ele>1049</ele>
        <time>2026-05-13T13:00:17.000Z</time>
      </trkpt>
      <trkpt lat="44.2285" lon="5.3989">
        <ele>1048</ele>
        <time>2026-05-13T13:00:18.000Z</time>
      </trkpt>
      <trkpt lat="44.22855" lon="5.3989">
        <ele>1048</ele>
        <time>2026-05-13T13:00:19.000Z</time>
      </trkpt>
      <trkpt lat="44.22861" lon="5.39889">
        <ele>1046</ele>
        <time>2026-05-13T13:00:20.000Z</time>
      </trkpt>
      <trkpt lat="44.22866" lon="5.39888">
        <ele>1046</ele>
        <time>2026-05-13T13:00:21.000Z</time>
      </trkpt>
      <trkpt lat="44.2287" lon="5.39887">
        <ele>1046</ele>
        <time>2026-05-13T13:00:22.000Z</time>
      </trkpt>
      <trkpt lat="44.22873" lon="5.39886">
        <ele>1045</ele>
        <time>2026-05-13T13:00:23.000Z</time>
      </trkpt>
      <trkpt lat="44.22877" lon="5.39883">
        <ele>1044</ele>
        <time>2026-05-13T13:00:24.000Z</time>
      </trkpt>
      <trkpt lat="44.2288" lon="5.39881">
        <ele>1044</ele>
        <time>2026-05-13T13:00:25.000Z</time>
      </trkpt>
      <trkpt lat="44.22885" lon="5.3988">
        <ele>1043</ele>
        <time>2026-05-13T13:00:26.000Z</time>
      </trkpt>
      <trkpt lat="44.22889" lon="5.39877">
        <ele>1043</ele>
        <time>2026-05-13T13:00:27.000Z</time>
      </trkpt>
      <trkpt lat="44.22893" lon="5.39875">
        <ele>1042</ele>
        <time>2026-05-13T13:00:28.000Z</time>
      </trkpt>
      <trkpt lat="44.22896" lon="5.39872">
        <ele>1042</ele>
        <time>2026-05-13T13:00:29.000Z</time>
      </trkpt>
      <trkpt lat="44.229" lon="5.3987">
        <ele>1042</ele>
        <time>2026-05-13T13:00:30.000Z</time>
      </trkpt>
      <trkpt lat="44.22904" lon="5.39867">
        <ele>1041</ele>
        <time>2026-05-13T13:00:31.000Z</time>
      </trkpt>
      <trkpt lat="44.22909" lon="5.39863">
        <ele>1041</ele>
        <time>2026-05-13T13:00:32.000Z</time>
      </trkpt>
      <trkpt lat="44.22914" lon="5.3986">
        <ele>1040</ele>
        <time>2026-05-13T13:00:33.000Z</time>
      </trkpt>
      <trkpt lat="44.22917" lon="5.39857">
        <ele>1040</ele>
        <time>2026-05-13T13:00:34.000Z</time>
      </trkpt>
      <trkpt lat="44.2292" lon="5.39854">
        <ele>1039</ele>
        <time>2026-05-13T13:00:35.000Z</time>
      </trkpt>
      <trkpt lat="44.22924" lon="5.3985">
        <ele>1038</ele>
        <time>2026-05-13T13:00:36.000Z</time>
      </trkpt>
      <trkpt lat="44.22929" lon="5.39847">
        <ele>1036</ele>
        <time>2026-05-13T13:00:37.000Z</time>
      </trkpt>
      <trkpt lat="44.22934" lon="5.39845">
        <ele>1035</ele>
        <time>2026-05-13T13:00:38.000Z</time>
      </trkpt>
      <trkpt lat="44.22938" lon="5.39844">
        <ele>1035</ele>
        <time>2026-05-13T13:00:39.000Z</time>
      </trkpt>
      <trkpt lat="44.22942" lon="5.39842">
        <ele>1034</ele>
        <time>2026-05-13T13:00:40.000Z</time>
      </trkpt>
      <trkpt lat="44.22946" lon="5.3984">
        <ele>1032</ele>
        <time>2026-05-13T13:00:41.000Z</time>
      </trkpt>
      <trkpt lat="44.22951" lon="5.39836">
        <ele>1031</ele>
        <time>2026-05-13T13:00:42.000Z</time>
      </trkpt>
      <trkpt lat="44.22959" lon="5.3983">
        <ele>1031</ele>
        <time>2026-05-13T13:00:43.000Z</time>
      </trkpt>
      <trkpt lat="44.22963" lon="5.39825">
        <ele>1031</ele>
        <time>2026-05-13T13:00:44.000Z</time>
      </trkpt>
      <trkpt lat="44.22967" lon="5.39818">
        <ele>1031</ele>
        <time>2026-05-13T13:00:45.000Z</time>
      </trkpt>
      <trkpt lat="44.22971" lon="5.39811">
        <ele>1032</ele>
        <time>2026-05-13T13:00:46.000Z</time>
      </trkpt>
      <trkpt lat="44.22975" lon="5.39807">
        <ele>1034</ele>
        <time>2026-05-13T13:00:47.000Z</time>
      </trkpt>
      <trkpt lat="44.22979" lon="5.39803">
        <ele>1034</ele>
        <time>2026-05-13T13:00:48.000Z</time>
      </trkpt>
      <trkpt lat="44.22981" lon="5.39801">
        <ele>1034</ele>
        <time>2026-05-13T13:00:49.000Z</time>
      </trkpt>
      <trkpt lat="44.22982" lon="5.39799">
        <ele>1033</ele>
        <time>2026-05-13T13:00:50.000Z</time>
      </trkpt>
      <trkpt lat="44.22984" lon="5.39797">
        <ele>1034</ele>
        <time>2026-05-13T13:00:51.000Z</time>
      </trkpt>
      <trkpt lat="44.22985" lon="5.39796">
        <ele>1033</ele>
        <time>2026-05-13T13:00:52.000Z</time>
      </trkpt>
      <trkpt lat="44.22987" lon="5.39794">
        <ele>1033</ele>
        <time>2026-05-13T13:00:53.000Z</time>
      </trkpt>
      <trkpt lat="44.2299" lon="5.39792">
        <ele>1032</ele>
        <time>2026-05-13T13:00:54.000Z</time>
      </trkpt>
      <trkpt lat="44.22993" lon="5.39791">
        <ele>1032</ele>
        <time>2026-05-13T13:00:55.000Z</time>
      </trkpt>
      <trkpt lat="44.22996" lon="5.39789">
        <ele>1032</ele>
        <time>2026-05-13T13:00:56.000Z</time>
      </trkpt>
      <trkpt lat="44.22999" lon="5.39787">
        <ele>1032</ele>
        <time>2026-05-13T13:00:57.000Z</time>
      </trkpt>
      <trkpt lat="44.23002" lon="5.39785">
        <ele>1032</ele>
        <time>2026-05-13T13:00:58.000Z</time>
      </trkpt>
      <trkpt lat="44.23005" lon="5.39783">
        <ele>1032</ele>
        <time>2026-05-13T13:00:59.000Z</time>
      </trkpt>
      <trkpt lat="44.23008" lon="5.39783">
        <ele>1032</ele>
        <time>2026-05-13T13:01:00.000Z</time>
      </trkpt>
      <trkpt lat="44.23012" lon="5.39783">
        <ele>1032</ele>
        <time>2026-05-13T13:01:01.000Z</time>
      </trkpt>
      <trkpt lat="44.23015" lon="5.39783">
        <ele>1031</ele>
        <time>2026-05-13T13:01:02.000Z</time>
      </trkpt>
      <trkpt lat="44.23018" lon="5.39783">
        <ele>1031</ele>
        <time>2026-05-13T13:01:03.000Z</time>
      </trkpt>
      <trkpt lat="44.23022" lon="5.39781">
        <ele>1030</ele>
        <time>2026-05-13T13:01:04.000Z</time>
      </trkpt>
      <trkpt lat="44.23025" lon="5.39779">
        <ele>1030</ele>
        <time>2026-05-13T13:01:05.000Z</time>
      </trkpt>
      <trkpt lat="44.23027" lon="5.39776">
        <ele>1030</ele>
        <time>2026-05-13T13:01:06.000Z</time>
      </trkpt>
      <trkpt lat="44.23028" lon="5.39776">
        <ele>1030</ele>
        <time>2026-05-13T13:01:07.000Z</time>
      </trkpt>
      <trkpt lat="44.2303" lon="5.39774">
        <ele>1031</ele>
        <time>2026-05-13T13:01:08.000Z</time>
      </trkpt>
      <trkpt lat="44.23032" lon="5.39773">
        <ele>1031</ele>
        <time>2026-05-13T13:01:09.000Z</time>
      </trkpt>
      <trkpt lat="44.23034" lon="5.39771">
        <ele>1031</ele>
        <time>2026-05-13T13:01:10.000Z</time>
      </trkpt>
      <trkpt lat="44.23036" lon="5.3977">
        <ele>1031</ele>
        <time>2026-05-13T13:01:11.000Z</time>
      </trkpt>
      <trkpt lat="44.23038" lon="5.39769">
        <ele>1031</ele>
        <time>2026-05-13T13:01:12.000Z</time>
      </trkpt>
      <trkpt lat="44.2304" lon="5.39767">
        <ele>1031</ele>
        <time>2026-05-13T13:01:13.000Z</time>
      </trkpt>
      <trkpt lat="44.23042" lon="5.39766">
        <ele>1032</ele>
        <time>2026-05-13T13:01:14.000Z</time>
      </trkpt>
      <trkpt lat="44.23045" lon="5.39763">
        <ele>1032</ele>
        <time>2026-05-13T13:01:15.000Z</time>
      </trkpt>
      <trkpt lat="44.23047" lon="5.39761">
        <ele>1032</ele>
        <time>2026-05-13T13:01:16.000Z</time>
      </trkpt>
      <trkpt lat="44.23048" lon="5.39758">
        <ele>1031</ele>
        <time>2026-05-13T13:01:17.000Z</time>
      </trkpt>
      <trkpt lat="44.2305" lon="5.39756">
        <ele>1031</ele>
        <time>2026-05-13T13:01:18.000Z</time>
      </trkpt>
      <trkpt lat="44.23052" lon="5.39755">
        <ele>1031</ele>
        <time>2026-05-13T13:01:19.000Z</time>
      </trkpt>
      <trkpt lat="44.23055" lon="5.39753">
        <ele>1032</ele>
        <time>2026-05-13T13:01:20.000Z</time>
      </trkpt>
      <trkpt lat="44.23057" lon="5.39751">
        <ele>1032</ele>
        <time>2026-05-13T13:01:21.000Z</time>
      </trkpt>
      <trkpt lat="44.2306" lon="5.39748">
        <ele>1032</ele>
        <time>2026-05-13T13:01:22.000Z</time>
      </trkpt>
      <trkpt lat="44.23063" lon="5.39745">
        <ele>1032</ele>
        <time>2026-05-13T13:01:23.000Z</time>
      </trkpt>
      <trkpt lat="44.23066" lon="5.39743">
        <ele>1031</ele>
        <time>2026-05-13T13:01:24.000Z</time>
      </trkpt>
      <trkpt lat="44.23069" lon="5.39741">
        <ele>1031</ele>
        <time>2026-05-13T13:01:25.000Z</time>
      </trkpt>
      <trkpt lat="44.23072" lon="5.3974">
        <ele>1031</ele>
        <time>2026-05-13T13:01:26.000Z</time>
      </trkpt>
      <trkpt lat="44.23075" lon="5.39737">
        <ele>1031</ele>
        <time>2026-05-13T13:01:27.000Z</time>
      </trkpt>
      <trkpt lat="44.23078" lon="5.39734">
        <ele>1031</ele>
        <time>2026-05-13T13:01:28.000Z</time>
      </trkpt>
      <trkpt lat="44.23082" lon="5.39733">
        <ele>1030</ele>
        <time>2026-05-13T13:01:29.000Z</time>
      </trkpt>
      <trkpt lat="44.23085" lon="5.39732">
        <ele>1030</ele>
        <time>2026-05-13T13:01:30.000Z</time>
      </trkpt>
      <trkpt lat="44.23089" lon="5.3973">
        <ele>1029</ele>
        <time>2026-05-13T13:01:31.000Z</time>
      </trkpt>
      <trkpt lat="44.23092" lon="5.39727">
        <ele>1029</ele>
        <time>2026-05-13T13:01:32.000Z</time>
      </trkpt>
      <trkpt lat="44.23096" lon="5.39724">
        <ele>1029</ele>
        <time>2026-05-13T13:01:33.000Z</time>
      </trkpt>
      <trkpt lat="44.23099" lon="5.39723">
        <ele>1028</ele>
        <time>2026-05-13T13:01:34.000Z</time>
      </trkpt>
      <trkpt lat="44.23103" lon="5.39722">
        <ele>1028</ele>
        <time>2026-05-13T13:01:35.000Z</time>
      </trkpt>
      <trkpt lat="44.23107" lon="5.39721">
        <ele>1027</ele>
        <time>2026-05-13T13:01:36.000Z</time>
      </trkpt>
      <trkpt lat="44.23111" lon="5.3972">
        <ele>1026</ele>
        <time>2026-05-13T13:01:37.000Z</time>
      </trkpt>
      <trkpt lat="44.23114" lon="5.39721">
        <ele>1025</ele>
        <time>2026-05-13T13:01:38.000Z</time>
      </trkpt>
      <trkpt lat="44.23116" lon="5.39722">
        <ele>1024</ele>
        <time>2026-05-13T13:01:39.000Z</time>
      </trkpt>
      <trkpt lat="44.2312" lon="5.39721">
        <ele>1024</ele>
        <time>2026-05-13T13:01:40.000Z</time>
      </trkpt>
      <trkpt lat="44.23123" lon="5.39721">
        <ele>1024</ele>
        <time>2026-05-13T13:01:41.000Z</time>
      </trkpt>
      <trkpt lat="44.23127" lon="5.3972">
        <ele>1023</ele>
        <time>2026-05-13T13:01:42.000Z</time>
      </trkpt>
      <trkpt lat="44.23132" lon="5.39717">
        <ele>1023</ele>
        <time>2026-05-13T13:01:43.000Z</time>
      </trkpt>
      <trkpt lat="44.23136" lon="5.39714">
        <ele>1023</ele>
        <time>2026-05-13T13:01:44.000Z</time>
      </trkpt>
      <trkpt lat="44.23141" lon="5.3971">
        <ele>1023</ele>
        <time>2026-05-13T13:01:45.000Z</time>
      </trkpt>
      <trkpt lat="44.23144" lon="5.39707">
        <ele>1023</ele>
        <time>2026-05-13T13:01:46.000Z</time>
      </trkpt>
      <trkpt lat="44.23147" lon="5.39704">
        <ele>1023</ele>
        <time>2026-05-13T13:01:47.000Z</time>
      </trkpt>
      <trkpt lat="44.23149" lon="5.39701">
        <ele>1023</ele>
        <time>2026-05-13T13:01:48.000Z</time>
      </trkpt>
      <trkpt lat="44.23152" lon="5.39698">
        <ele>1023</ele>
        <time>2026-05-13T13:01:49.000Z</time>
      </trkpt>
      <trkpt lat="44.23153" lon="5.39695">
        <ele>1023</ele>
        <time>2026-05-13T13:01:50.000Z</time>
      </trkpt>
      <trkpt lat="44.23155" lon="5.39692">
        <ele>1023</ele>
        <time>2026-05-13T13:01:51.000Z</time>
      </trkpt>
      <trkpt lat="44.23156" lon="5.39689">
        <ele>1023</ele>
        <time>2026-05-13T13:01:52.000Z</time>
      </trkpt>
      <trkpt lat="44.23157" lon="5.39687">
        <ele>1022</ele>
        <time>2026-05-13T13:01:53.000Z</time>
      </trkpt>
      <trkpt lat="44.23158" lon="5.39684">
        <ele>1022</ele>
        <time>2026-05-13T13:01:54.000Z</time>
      </trkpt>
      <trkpt lat="44.2316" lon="5.39681">
        <ele>1022</ele>
        <time>2026-05-13T13:01:55.000Z</time>
      </trkpt>
      <trkpt lat="44.23162" lon="5.39679">
        <ele>1022</ele>
        <time>2026-05-13T13:01:56.000Z</time>
      </trkpt>
      <trkpt lat="44.23164" lon="5.39676">
        <ele>1021</ele>
        <time>2026-05-13T13:01:57.000Z</time>
      </trkpt>
      <trkpt lat="44.23166" lon="5.39673">
        <ele>1021</ele>
        <time>2026-05-13T13:01:58.000Z</time>
      </trkpt>
      <trkpt lat="44.23168" lon="5.39671">
        <ele>1021</ele>
        <time>2026-05-13T13:01:59.000Z</time>
      </trkpt>
      <trkpt lat="44.23171" lon="5.39668">
        <ele>1021</ele>
        <time>2026-05-13T13:02:00.000Z</time>
      </trkpt>
      <trkpt lat="44.23173" lon="5.39664">
        <ele>1022</ele>
        <time>2026-05-13T13:02:01.000Z</time>
      </trkpt>
      <trkpt lat="44.23175" lon="5.39661">
        <ele>1022</ele>
        <time>2026-05-13T13:02:02.000Z</time>
      </trkpt>
      <trkpt lat="44.23178" lon="5.39657">
        <ele>1021</ele>
        <time>2026-05-13T13:02:03.000Z</time>
      </trkpt>
      <trkpt lat="44.2318" lon="5.39655">
        <ele>1021</ele>
        <time>2026-05-13T13:02:04.000Z</time>
      </trkpt>
      <trkpt lat="44.23182" lon="5.39653">
        <ele>1020</ele>
        <time>2026-05-13T13:02:05.000Z</time>
      </trkpt>
      <trkpt lat="44.23185" lon="5.39653">
        <ele>1019</ele>
        <time>2026-05-13T13:02:06.000Z</time>
      </trkpt>
      <trkpt lat="44.23188" lon="5.39653">
        <ele>1019</ele>
        <time>2026-05-13T13:02:07.000Z</time>
      </trkpt>
      <trkpt lat="44.23192" lon="5.39652">
        <ele>1018</ele>
        <time>2026-05-13T13:02:08.000Z</time>
      </trkpt>
      <trkpt lat="44.23195" lon="5.39652">
        <ele>1018</ele>
        <time>2026-05-13T13:02:09.000Z</time>
      </trkpt>
      <trkpt lat="44.23198" lon="5.3965">
        <ele>1018</ele>
        <time>2026-05-13T13:02:10.000Z</time>
      </trkpt>
      <trkpt lat="44.232" lon="5.39649">
        <ele>1018</ele>
        <time>2026-05-13T13:02:11.000Z</time>
      </trkpt>
      <trkpt lat="44.23203" lon="5.39649">
        <ele>1017</ele>
        <time>2026-05-13T13:02:12.000Z</time>
      </trkpt>
      <trkpt lat="44.23206" lon="5.39648">
        <ele>1017</ele>
        <time>2026-05-13T13:02:13.000Z</time>
      </trkpt>
      <trkpt lat="44.23208" lon="5.39647">
        <ele>1017</ele>
        <time>2026-05-13T13:02:14.000Z</time>
      </trkpt>
      <trkpt lat="44.23212" lon="5.39647">
        <ele>1016</ele>
        <time>2026-05-13T13:02:15.000Z</time>
      </trkpt>
      <trkpt lat="44.23215" lon="5.39646">
        <ele>1016</ele>
        <time>2026-05-13T13:02:16.000Z</time>
      </trkpt>
      <trkpt lat="44.2322" lon="5.39643">
        <ele>1017</ele>
        <time>2026-05-13T13:02:17.000Z</time>
      </trkpt>
      <trkpt lat="44.23224" lon="5.39641">
        <ele>1017</ele>
        <time>2026-05-13T13:02:18.000Z</time>
      </trkpt>
      <trkpt lat="44.23228" lon="5.39638">
        <ele>1017</ele>
        <time>2026-05-13T13:02:19.000Z</time>
      </trkpt>
      <trkpt lat="44.23232" lon="5.39636">
        <ele>1017</ele>
        <time>2026-05-13T13:02:20.000Z</time>
      </trkpt>
      <trkpt lat="44.23235" lon="5.39635">
        <ele>1017</ele>
        <time>2026-05-13T13:02:21.000Z</time>
      </trkpt>
      <trkpt lat="44.23237" lon="5.39635">
        <ele>1016</ele>
        <time>2026-05-13T13:02:22.000Z</time>
      </trkpt>
      <trkpt lat="44.23239" lon="5.39632">
        <ele>1015</ele>
        <time>2026-05-13T13:02:23.000Z</time>
      </trkpt>
      <trkpt lat="44.23243" lon="5.39628">
        <ele>1015</ele>
        <time>2026-05-13T13:02:24.000Z</time>
      </trkpt>
      <trkpt lat="44.23247" lon="5.39625">
        <ele>1015</ele>
        <time>2026-05-13T13:02:25.000Z</time>
      </trkpt>
      <trkpt lat="44.23252" lon="5.3962">
        <ele>1016</ele>
        <time>2026-05-13T13:02:26.000Z</time>
      </trkpt>
      <trkpt lat="44.23256" lon="5.39616">
        <ele>1017</ele>
        <time>2026-05-13T13:02:27.000Z</time>
      </trkpt>
      <trkpt lat="44.2326" lon="5.39613">
        <ele>1017</ele>
        <time>2026-05-13T13:02:28.000Z</time>
      </trkpt>
      <trkpt lat="44.23264" lon="5.3961">
        <ele>1017</ele>
        <time>2026-05-13T13:02:29.000Z</time>
      </trkpt>
      <trkpt lat="44.23268" lon="5.39608">
        <ele>1016</ele>
        <time>2026-05-13T13:02:30.000Z</time>
      </trkpt>
      <trkpt lat="44.23272" lon="5.39605">
        <ele>1016</ele>
        <time>2026-05-13T13:02:31.000Z</time>
      </trkpt>
      <trkpt lat="44.23275" lon="5.39602">
        <ele>1017</ele>
        <time>2026-05-13T13:02:32.000Z</time>
      </trkpt>
      <trkpt lat="44.23277" lon="5.39598">
        <ele>1017</ele>
        <time>2026-05-13T13:02:33.000Z</time>
      </trkpt>
      <trkpt lat="44.2328" lon="5.39595">
        <ele>1016</ele>
        <time>2026-05-13T13:02:34.000Z</time>
      </trkpt>
      <trkpt lat="44.23283" lon="5.39593">
        <ele>1016</ele>
        <time>2026-05-13T13:02:35.000Z</time>
      </trkpt>
      <trkpt lat="44.23286" lon="5.39592">
        <ele>1016</ele>
        <time>2026-05-13T13:02:36.000Z</time>
      </trkpt>
      <trkpt lat="44.23289" lon="5.39589">
        <ele>1016</ele>
        <time>2026-05-13T13:02:37.000Z</time>
      </trkpt>
      <trkpt lat="44.23291" lon="5.39586">
        <ele>1017</ele>
        <time>2026-05-13T13:02:38.000Z</time>
      </trkpt>
      <trkpt lat="44.23292" lon="5.39583">
        <ele>1017</ele>
        <time>2026-05-13T13:02:39.000Z</time>
      </trkpt>
      <trkpt lat="44.23294" lon="5.3958">
        <ele>1017</ele>
        <time>2026-05-13T13:02:40.000Z</time>
      </trkpt>
      <trkpt lat="44.23295" lon="5.39577">
        <ele>1017</ele>
        <time>2026-05-13T13:02:41.000Z</time>
      </trkpt>
      <trkpt lat="44.23297" lon="5.39575">
        <ele>1017</ele>
        <time>2026-05-13T13:02:42.000Z</time>
      </trkpt>
      <trkpt lat="44.23298" lon="5.39573">
        <ele>1018</ele>
        <time>2026-05-13T13:02:43.000Z</time>
      </trkpt>
      <trkpt lat="44.233" lon="5.3957">
        <ele>1017</ele>
        <time>2026-05-13T13:02:44.000Z</time>
      </trkpt>
      <trkpt lat="44.23302" lon="5.39569">
        <ele>1017</ele>
        <time>2026-05-13T13:02:45.000Z</time>
      </trkpt>
      <trkpt lat="44.23305" lon="5.39567">
        <ele>1018</ele>
        <time>2026-05-13T13:02:46.000Z</time>
      </trkpt>
      <trkpt lat="44.23307" lon="5.39565">
        <ele>1018</ele>
        <time>2026-05-13T13:02:47.000Z</time>
      </trkpt>
      <trkpt lat="44.23309" lon="5.39561">
        <ele>1018</ele>
        <time>2026-05-13T13:02:48.000Z</time>
      </trkpt>
      <trkpt lat="44.23311" lon="5.39558">
        <ele>1018</ele>
        <time>2026-05-13T13:02:49.000Z</time>
      </trkpt>
      <trkpt lat="44.23312" lon="5.39556">
        <ele>1018</ele>
        <time>2026-05-13T13:02:50.000Z</time>
      </trkpt>
      <trkpt lat="44.23313" lon="5.39553">
        <ele>1018</ele>
        <time>2026-05-13T13:02:51.000Z</time>
      </trkpt>
      <trkpt lat="44.23314" lon="5.39551">
        <ele>1019</ele>
        <time>2026-05-13T13:02:52.000Z</time>
      </trkpt>
      <trkpt lat="44.23316" lon="5.39548">
        <ele>1019</ele>
        <time>2026-05-13T13:02:53.000Z</time>
      </trkpt>
      <trkpt lat="44.23317" lon="5.39547">
        <ele>1019</ele>
        <time>2026-05-13T13:02:54.000Z</time>
      </trkpt>
      <trkpt lat="44.23319" lon="5.39545">
        <ele>1018</ele>
        <time>2026-05-13T13:02:55.000Z</time>
      </trkpt>
      <trkpt lat="44.23321" lon="5.39544">
        <ele>1018</ele>
        <time>2026-05-13T13:02:56.000Z</time>
      </trkpt>
      <trkpt lat="44.23323" lon="5.39542">
        <ele>1018</ele>
        <time>2026-05-13T13:02:57.000Z</time>
      </trkpt>
      <trkpt lat="44.23324" lon="5.3954">
        <ele>1019</ele>
        <time>2026-05-13T13:02:58.000Z</time>
      </trkpt>
      <trkpt lat="44.23326" lon="5.39538">
        <ele>1019</ele>
        <time>2026-05-13T13:02:59.000Z</time>
      </trkpt>
      <trkpt lat="44.23328" lon="5.39536">
        <ele>1019</ele>
        <time>2026-05-13T13:03:00.000Z</time>
      </trkpt>
      <trkpt lat="44.2333" lon="5.39535">
        <ele>1019</ele>
        <time>2026-05-13T13:03:01.000Z</time>
      </trkpt>
      <trkpt lat="44.23332" lon="5.39535">
        <ele>1018</ele>
        <time>2026-05-13T13:03:02.000Z</time>
      </trkpt>
      <trkpt lat="44.23334" lon="5.39533">
        <ele>1017</ele>
        <time>2026-05-13T13:03:03.000Z</time>
      </trkpt>
      <trkpt lat="44.23336" lon="5.3953">
        <ele>1017</ele>
        <time>2026-05-13T13:03:04.000Z</time>
      </trkpt>
      <trkpt lat="44.23339" lon="5.39527">
        <ele>1017</ele>
        <time>2026-05-13T13:03:05.000Z</time>
      </trkpt>
      <trkpt lat="44.23341" lon="5.39524">
        <ele>1017</ele>
        <time>2026-05-13T13:03:06.000Z</time>
      </trkpt>
      <trkpt lat="44.23342" lon="5.39522">
        <ele>1017</ele>
        <time>2026-05-13T13:03:07.000Z</time>
      </trkpt>
      <trkpt lat="44.23345" lon="5.39519">
        <ele>1017</ele>
        <time>2026-05-13T13:03:08.000Z</time>
      </trkpt>
      <trkpt lat="44.23348" lon="5.39514">
        <ele>1016</ele>
        <time>2026-05-13T13:03:09.000Z</time>
      </trkpt>
      <trkpt lat="44.23351" lon="5.3951">
        <ele>1016</ele>
        <time>2026-05-13T13:03:10.000Z</time>
      </trkpt>
      <trkpt lat="44.23353" lon="5.39507">
        <ele>1016</ele>
        <time>2026-05-13T13:03:11.000Z</time>
      </trkpt>
      <trkpt lat="44.23356" lon="5.39504">
        <ele>1016</ele>
        <time>2026-05-13T13:03:12.000Z</time>
      </trkpt>
      <trkpt lat="44.23358" lon="5.39501">
        <ele>1016</ele>
        <time>2026-05-13T13:03:13.000Z</time>
      </trkpt>
      <trkpt lat="44.2336" lon="5.39499">
        <ele>1015</ele>
        <time>2026-05-13T13:03:14.000Z</time>
      </trkpt>
      <trkpt lat="44.23364" lon="5.39496">
        <ele>1015</ele>
        <time>2026-05-13T13:03:15.000Z</time>
      </trkpt>
      <trkpt lat="44.23366" lon="5.39494">
        <ele>1014</ele>
        <time>2026-05-13T13:03:16.000Z</time>
      </trkpt>
      <trkpt lat="44.23369" lon="5.39491">
        <ele>1014</ele>
        <time>2026-05-13T13:03:17.000Z</time>
      </trkpt>
      <trkpt lat="44.23373" lon="5.39488">
        <ele>1013</ele>
        <time>2026-05-13T13:03:18.000Z</time>
      </trkpt>
      <trkpt lat="44.23377" lon="5.39486">
        <ele>1013</ele>
        <time>2026-05-13T13:03:19.000Z</time>
      </trkpt>
      <trkpt lat="44.23379" lon="5.39483">
        <ele>1012</ele>
        <time>2026-05-13T13:03:20.000Z</time>
      </trkpt>
      <trkpt lat="44.23381" lon="5.39479">
        <ele>1012</ele>
        <time>2026-05-13T13:03:21.000Z</time>
      </trkpt>
      <trkpt lat="44.23383" lon="5.39477">
        <ele>1012</ele>
        <time>2026-05-13T13:03:22.000Z</time>
      </trkpt>
      <trkpt lat="44.23384" lon="5.39473">
        <ele>1011</ele>
        <time>2026-05-13T13:03:23.000Z</time>
      </trkpt>
      <trkpt lat="44.23386" lon="5.3947">
        <ele>1011</ele>
        <time>2026-05-13T13:03:24.000Z</time>
      </trkpt>
      <trkpt lat="44.23387" lon="5.39467">
        <ele>1011</ele>
        <time>2026-05-13T13:03:25.000Z</time>
      </trkpt>
      <trkpt lat="44.23389" lon="5.39464">
        <ele>1011</ele>
        <time>2026-05-13T13:03:26.000Z</time>
      </trkpt>
      <trkpt lat="44.2339" lon="5.39462">
        <ele>1010</ele>
        <time>2026-05-13T13:03:27.000Z</time>
      </trkpt>
      <trkpt lat="44.23392" lon="5.39459">
        <ele>1011</ele>
        <time>2026-05-13T13:03:28.000Z</time>
      </trkpt>
      <trkpt lat="44.23394" lon="5.39455">
        <ele>1011</ele>
        <time>2026-05-13T13:03:29.000Z</time>
      </trkpt>
      <trkpt lat="44.23396" lon="5.39452">
        <ele>1011</ele>
        <time>2026-05-13T13:03:30.000Z</time>
      </trkpt>
      <trkpt lat="44.23397" lon="5.39449">
        <ele>1011</ele>
        <time>2026-05-13T13:03:31.000Z</time>
      </trkpt>
      <trkpt lat="44.234" lon="5.39447">
        <ele>1011</ele>
        <time>2026-05-13T13:03:32.000Z</time>
      </trkpt>
      <trkpt lat="44.23402" lon="5.39444">
        <ele>1011</ele>
        <time>2026-05-13T13:03:33.000Z</time>
      </trkpt>
      <trkpt lat="44.23405" lon="5.39441">
        <ele>1011</ele>
        <time>2026-05-13T13:03:34.000Z</time>
      </trkpt>
      <trkpt lat="44.23407" lon="5.39438">
        <ele>1011</ele>
        <time>2026-05-13T13:03:35.000Z</time>
      </trkpt>
      <trkpt lat="44.23409" lon="5.39435">
        <ele>1011</ele>
        <time>2026-05-13T13:03:36.000Z</time>
      </trkpt>
      <trkpt lat="44.23411" lon="5.39432">
        <ele>1011</ele>
        <time>2026-05-13T13:03:37.000Z</time>
      </trkpt>
      <trkpt lat="44.23413" lon="5.39429">
        <ele>1011</ele>
        <time>2026-05-13T13:03:38.000Z</time>
      </trkpt>
      <trkpt lat="44.23415" lon="5.39427">
        <ele>1012</ele>
        <time>2026-05-13T13:03:39.000Z</time>
      </trkpt>
      <trkpt lat="44.23418" lon="5.39424">
        <ele>1011</ele>
        <time>2026-05-13T13:03:40.000Z</time>
      </trkpt>
      <trkpt lat="44.2342" lon="5.39421">
        <ele>1011</ele>
        <time>2026-05-13T13:03:41.000Z</time>
      </trkpt>
      <trkpt lat="44.23422" lon="5.39418">
        <ele>1010</ele>
        <time>2026-05-13T13:03:42.000Z</time>
      </trkpt>
      <trkpt lat="44.23425" lon="5.39414">
        <ele>1010</ele>
        <time>2026-05-13T13:03:43.000Z</time>
      </trkpt>
      <trkpt lat="44.23428" lon="5.39411">
        <ele>1010</ele>
        <time>2026-05-13T13:03:44.000Z</time>
      </trkpt>
      <trkpt lat="44.23429" lon="5.39408">
        <ele>1010</ele>
        <time>2026-05-13T13:03:45.000Z</time>
      </trkpt>
      <trkpt lat="44.23431" lon="5.39406">
        <ele>1010</ele>
        <time>2026-05-13T13:03:46.000Z</time>
      </trkpt>
      <trkpt lat="44.23433" lon="5.39404">
        <ele>1011</ele>
        <time>2026-05-13T13:03:47.000Z</time>
      </trkpt>
      <trkpt lat="44.23435" lon="5.39403">
        <ele>1011</ele>
        <time>2026-05-13T13:03:48.000Z</time>
      </trkpt>
      <trkpt lat="44.23437" lon="5.394">
        <ele>1011</ele>
        <time>2026-05-13T13:03:49.000Z</time>
      </trkpt>
      <trkpt lat="44.23439" lon="5.39399">
        <ele>1012</ele>
        <time>2026-05-13T13:03:50.000Z</time>
      </trkpt>
      <trkpt lat="44.23442" lon="5.39397">
        <ele>1011</ele>
        <time>2026-05-13T13:03:51.000Z</time>
      </trkpt>
      <trkpt lat="44.23445" lon="5.39396">
        <ele>1011</ele>
        <time>2026-05-13T13:03:52.000Z</time>
      </trkpt>
      <trkpt lat="44.23448" lon="5.39394">
        <ele>1010</ele>
        <time>2026-05-13T13:03:53.000Z</time>
      </trkpt>
      <trkpt lat="44.2345" lon="5.39393">
        <ele>1010</ele>
        <time>2026-05-13T13:03:54.000Z</time>
      </trkpt>
      <trkpt lat="44.23453" lon="5.39391">
        <ele>1009</ele>
        <time>2026-05-13T13:03:55.000Z</time>
      </trkpt>
      <trkpt lat="44.23456" lon="5.39389">
        <ele>1009</ele>
        <time>2026-05-13T13:03:56.000Z</time>
      </trkpt>
      <trkpt lat="44.23458" lon="5.39388">
        <ele>1009</ele>
        <time>2026-05-13T13:03:57.000Z</time>
      </trkpt>
      <trkpt lat="44.2346" lon="5.39386">
        <ele>1008</ele>
        <time>2026-05-13T13:03:58.000Z</time>
      </trkpt>
      <trkpt lat="44.23464" lon="5.39385">
        <ele>1008</ele>
        <time>2026-05-13T13:03:59.000Z</time>
      </trkpt>
      <trkpt lat="44.23467" lon="5.39383">
        <ele>1007</ele>
        <time>2026-05-13T13:04:00.000Z</time>
      </trkpt>
      <trkpt lat="44.2347" lon="5.3938">
        <ele>1007</ele>
        <time>2026-05-13T13:04:01.000Z</time>
      </trkpt>
      <trkpt lat="44.23472" lon="5.39378">
        <ele>1006</ele>
        <time>2026-05-13T13:04:02.000Z</time>
      </trkpt>
      <trkpt lat="44.23474" lon="5.39376">
        <ele>1006</ele>
        <time>2026-05-13T13:04:03.000Z</time>
      </trkpt>
      <trkpt lat="44.23476" lon="5.39375">
        <ele>1005</ele>
        <time>2026-05-13T13:04:04.000Z</time>
      </trkpt>
      <trkpt lat="44.23479" lon="5.39373">
        <ele>1004</ele>
        <time>2026-05-13T13:04:05.000Z</time>
      </trkpt>
      <trkpt lat="44.23481" lon="5.39371">
        <ele>1004</ele>
        <time>2026-05-13T13:04:06.000Z</time>
      </trkpt>
      <trkpt lat="44.23483" lon="5.39369">
        <ele>1005</ele>
        <time>2026-05-13T13:04:07.000Z</time>
      </trkpt>
      <trkpt lat="44.23486" lon="5.39365">
        <ele>1006</ele>
        <time>2026-05-13T13:04:08.000Z</time>
      </trkpt>
      <trkpt lat="44.23488" lon="5.39363">
        <ele>1006</ele>
        <time>2026-05-13T13:04:09.000Z</time>
      </trkpt>
      <trkpt lat="44.2349" lon="5.39359">
        <ele>1006</ele>
        <time>2026-05-13T13:04:10.000Z</time>
      </trkpt>
      <trkpt lat="44.23493" lon="5.39357">
        <ele>1007</ele>
        <time>2026-05-13T13:04:11.000Z</time>
      </trkpt>
      <trkpt lat="44.23496" lon="5.39355">
        <ele>1008</ele>
        <time>2026-05-13T13:04:12.000Z</time>
      </trkpt>
      <trkpt lat="44.23499" lon="5.39354">
        <ele>1008</ele>
        <time>2026-05-13T13:04:13.000Z</time>
      </trkpt>
      <trkpt lat="44.23501" lon="5.39351">
        <ele>1008</ele>
        <time>2026-05-13T13:04:14.000Z</time>
      </trkpt>
      <trkpt lat="44.23504" lon="5.39348">
        <ele>1008</ele>
        <time>2026-05-13T13:04:15.000Z</time>
      </trkpt>
      <trkpt lat="44.23507" lon="5.39345">
        <ele>1008</ele>
        <time>2026-05-13T13:04:16.000Z</time>
      </trkpt>
      <trkpt lat="44.2351" lon="5.39342">
        <ele>1007</ele>
        <time>2026-05-13T13:04:17.000Z</time>
      </trkpt>
      <trkpt lat="44.23511" lon="5.3934">
        <ele>1007</ele>
        <time>2026-05-13T13:04:18.000Z</time>
      </trkpt>
      <trkpt lat="44.23514" lon="5.39337">
        <ele>1007</ele>
        <time>2026-05-13T13:04:19.000Z</time>
      </trkpt>
      <trkpt lat="44.23516" lon="5.39335">
        <ele>1007</ele>
        <time>2026-05-13T13:04:20.000Z</time>
      </trkpt>
      <trkpt lat="44.23517" lon="5.39333">
        <ele>1007</ele>
        <time>2026-05-13T13:04:21.000Z</time>
      </trkpt>
      <trkpt lat="44.23519" lon="5.39332">
        <ele>1007</ele>
        <time>2026-05-13T13:04:22.000Z</time>
      </trkpt>
      <trkpt lat="44.23522" lon="5.39331">
        <ele>1007</ele>
        <time>2026-05-13T13:04:23.000Z</time>
      </trkpt>
      <trkpt lat="44.23524" lon="5.39331">
        <ele>1007</ele>
        <time>2026-05-13T13:04:24.000Z</time>
      </trkpt>
      <trkpt lat="44.23527" lon="5.3933">
        <ele>1007</ele>
        <time>2026-05-13T13:04:25.000Z</time>
      </trkpt>
      <trkpt lat="44.23529" lon="5.39329">
        <ele>1007</ele>
        <time>2026-05-13T13:04:26.000Z</time>
      </trkpt>
      <trkpt lat="44.23532" lon="5.39326">
        <ele>1006</ele>
        <time>2026-05-13T13:04:27.000Z</time>
      </trkpt>
      <trkpt lat="44.23535" lon="5.39325">
        <ele>1007</ele>
        <time>2026-05-13T13:04:28.000Z</time>
      </trkpt>
      <trkpt lat="44.23539" lon="5.39325">
        <ele>1007</ele>
        <time>2026-05-13T13:04:29.000Z</time>
      </trkpt>
      <trkpt lat="44.23542" lon="5.39322">
        <ele>1007</ele>
        <time>2026-05-13T13:04:30.000Z</time>
      </trkpt>
      <trkpt lat="44.23545" lon="5.3932">
        <ele>1007</ele>
        <time>2026-05-13T13:04:31.000Z</time>
      </trkpt>
      <trkpt lat="44.23548" lon="5.39318">
        <ele>1008</ele>
        <time>2026-05-13T13:04:32.000Z</time>
      </trkpt>
      <trkpt lat="44.2355" lon="5.39316">
        <ele>1008</ele>
        <time>2026-05-13T13:04:33.000Z</time>
      </trkpt>
      <trkpt lat="44.23552" lon="5.39314">
        <ele>1009</ele>
        <time>2026-05-13T13:04:34.000Z</time>
      </trkpt>
      <trkpt lat="44.23554" lon="5.39313">
        <ele>1009</ele>
        <time>2026-05-13T13:04:35.000Z</time>
      </trkpt>
      <trkpt lat="44.23556" lon="5.3931">
        <ele>1009</ele>
        <time>2026-05-13T13:04:36.000Z</time>
      </trkpt>
      <trkpt lat="44.23558" lon="5.39309">
        <ele>1009</ele>
        <time>2026-05-13T13:04:37.000Z</time>
      </trkpt>
      <trkpt lat="44.2356" lon="5.39307">
        <ele>1009</ele>
        <time>2026-05-13T13:04:38.000Z</time>
      </trkpt>
      <trkpt lat="44.23561" lon="5.39306">
        <ele>1010</ele>
        <time>2026-05-13T13:04:39.000Z</time>
      </trkpt>
      <trkpt lat="44.23562" lon="5.39305">
        <ele>1011</ele>
        <time>2026-05-13T13:04:40.000Z</time>
      </trkpt>
      <trkpt lat="44.23563" lon="5.39303">
        <ele>1011</ele>
        <time>2026-05-13T13:04:41.000Z</time>
      </trkpt>
      <trkpt lat="44.23564" lon="5.39301">
        <ele>1011</ele>
        <time>2026-05-13T13:04:42.000Z</time>
      </trkpt>
      <trkpt lat="44.23566" lon="5.393">
        <ele>1011</ele>
        <time>2026-05-13T13:04:43.000Z</time>
      </trkpt>
      <trkpt lat="44.23567" lon="5.39299">
        <ele>1011</ele>
        <time>2026-05-13T13:04:44.000Z</time>
      </trkpt>
      <trkpt lat="44.23569" lon="5.39298">
        <ele>1011</ele>
        <time>2026-05-13T13:04:45.000Z</time>
      </trkpt>
      <trkpt lat="44.23571" lon="5.39296">
        <ele>1011</ele>
        <time>2026-05-13T13:04:46.000Z</time>
      </trkpt>
      <trkpt lat="44.23572" lon="5.39295">
        <ele>1010</ele>
        <time>2026-05-13T13:04:47.000Z</time>
      </trkpt>
      <trkpt lat="44.23574" lon="5.39294">
        <ele>1010</ele>
        <time>2026-05-13T13:04:48.000Z</time>
      </trkpt>
      <trkpt lat="44.23575" lon="5.39292">
        <ele>1010</ele>
        <time>2026-05-13T13:04:49.000Z</time>
      </trkpt>
      <trkpt lat="44.23577" lon="5.3929">
        <ele>1009</ele>
        <time>2026-05-13T13:04:50.000Z</time>
      </trkpt>
      <trkpt lat="44.23578" lon="5.39288">
        <ele>1009</ele>
        <time>2026-05-13T13:04:51.000Z</time>
      </trkpt>
      <trkpt lat="44.23579" lon="5.39287">
        <ele>1009</ele>
        <time>2026-05-13T13:04:52.000Z</time>
      </trkpt>
      <trkpt lat="44.2358" lon="5.39286">
        <ele>1009</ele>
        <time>2026-05-13T13:04:53.000Z</time>
      </trkpt>
      <trkpt lat="44.23582" lon="5.39284">
        <ele>1008</ele>
        <time>2026-05-13T13:04:54.000Z</time>
      </trkpt>
      <trkpt lat="44.23584" lon="5.39282">
        <ele>1007</ele>
        <time>2026-05-13T13:04:55.000Z</time>
      </trkpt>
      <trkpt lat="44.23586" lon="5.39279">
        <ele>1005</ele>
        <time>2026-05-13T13:04:56.000Z</time>
      </trkpt>
      <trkpt lat="44.23589" lon="5.39276">
        <ele>1005</ele>
        <time>2026-05-13T13:04:57.000Z</time>
      </trkpt>
      <trkpt lat="44.23591" lon="5.39274">
        <ele>1005</ele>
        <time>2026-05-13T13:04:58.000Z</time>
      </trkpt>
      <trkpt lat="44.23594" lon="5.39271">
        <ele>1005</ele>
        <time>2026-05-13T13:04:59.000Z</time>
      </trkpt>
      <trkpt lat="44.23598" lon="5.39269">
        <ele>1005</ele>
        <time>2026-05-13T13:05:00.000Z</time>
      </trkpt>
      <trkpt lat="44.23603" lon="5.39269">
        <ele>1006</ele>
        <time>2026-05-13T13:05:01.000Z</time>
      </trkpt>
      <trkpt lat="44.23607" lon="5.39268">
        <ele>1005</ele>
        <time>2026-05-13T13:05:02.000Z</time>
      </trkpt>
      <trkpt lat="44.23611" lon="5.39268">
        <ele>1005</ele>
        <time>2026-05-13T13:05:03.000Z</time>
      </trkpt>
      <trkpt lat="44.23614" lon="5.39269">
        <ele>1005</ele>
        <time>2026-05-13T13:05:04.000Z</time>
      </trkpt>
      <trkpt lat="44.23616" lon="5.39269">
        <ele>1006</ele>
        <time>2026-05-13T13:05:05.000Z</time>
      </trkpt>
      <trkpt lat="44.23619" lon="5.39268">
        <ele>1006</ele>
        <time>2026-05-13T13:05:06.000Z</time>
      </trkpt>
      <trkpt lat="44.23621" lon="5.39268">
        <ele>1006</ele>
        <time>2026-05-13T13:05:07.000Z</time>
      </trkpt>
      <trkpt lat="44.23624" lon="5.39268">
        <ele>1006</ele>
        <time>2026-05-13T13:05:08.000Z</time>
      </trkpt>
      <trkpt lat="44.23627" lon="5.39268">
        <ele>1006</ele>
        <time>2026-05-13T13:05:09.000Z</time>
      </trkpt>
      <trkpt lat="44.23629" lon="5.39267">
        <ele>1005</ele>
        <time>2026-05-13T13:05:10.000Z</time>
      </trkpt>
      <trkpt lat="44.23631" lon="5.39266">
        <ele>1005</ele>
        <time>2026-05-13T13:05:11.000Z</time>
      </trkpt>
      <trkpt lat="44.23634" lon="5.39265">
        <ele>1005</ele>
        <time>2026-05-13T13:05:12.000Z</time>
      </trkpt>
      <trkpt lat="44.23637" lon="5.39264">
        <ele>1005</ele>
        <time>2026-05-13T13:05:13.000Z</time>
      </trkpt>
      <trkpt lat="44.2364" lon="5.39263">
        <ele>1005</ele>
        <time>2026-05-13T13:05:14.000Z</time>
      </trkpt>
      <trkpt lat="44.23643" lon="5.39263">
        <ele>1005</ele>
        <time>2026-05-13T13:05:15.000Z</time>
      </trkpt>
      <trkpt lat="44.23645" lon="5.39263">
        <ele>1005</ele>
        <time>2026-05-13T13:05:16.000Z</time>
      </trkpt>
      <trkpt lat="44.23648" lon="5.39262">
        <ele>1005</ele>
        <time>2026-05-13T13:05:17.000Z</time>
      </trkpt>
      <trkpt lat="44.2365" lon="5.39262">
        <ele>1005</ele>
        <time>2026-05-13T13:05:18.000Z</time>
      </trkpt>
      <trkpt lat="44.23652" lon="5.39261">
        <ele>1005</ele>
        <time>2026-05-13T13:05:19.000Z</time>
      </trkpt>
      <trkpt lat="44.23654" lon="5.3926">
        <ele>1005</ele>
        <time>2026-05-13T13:05:20.000Z</time>
      </trkpt>
      <trkpt lat="44.23656" lon="5.3926">
        <ele>1005</ele>
        <time>2026-05-13T13:05:21.000Z</time>
      </trkpt>
      <trkpt lat="44.23657" lon="5.39262">
        <ele>1004</ele>
        <time>2026-05-13T13:05:22.000Z</time>
      </trkpt>
      <trkpt lat="44.23658" lon="5.39265">
        <ele>1004</ele>
        <time>2026-05-13T13:05:23.000Z</time>
      </trkpt>
      <trkpt lat="44.23661" lon="5.39268">
        <ele>1004</ele>
        <time>2026-05-13T13:05:24.000Z</time>
      </trkpt>
      <trkpt lat="44.23664" lon="5.39271">
        <ele>1003</ele>
        <time>2026-05-13T13:05:25.000Z</time>
      </trkpt>
      <trkpt lat="44.23666" lon="5.39273">
        <ele>1002</ele>
        <time>2026-05-13T13:05:26.000Z</time>
      </trkpt>
      <trkpt lat="44.23669" lon="5.39276">
        <ele>1002</ele>
        <time>2026-05-13T13:05:27.000Z</time>
      </trkpt>
      <trkpt lat="44.23672" lon="5.39277">
        <ele>1001</ele>
        <time>2026-05-13T13:05:28.000Z</time>
      </trkpt>
      <trkpt lat="44.23676" lon="5.39279">
        <ele>1000</ele>
        <time>2026-05-13T13:05:29.000Z</time>
      </trkpt>
      <trkpt lat="44.23681" lon="5.3928">
        <ele>1000</ele>
        <time>2026-05-13T13:05:30.000Z</time>
      </trkpt>
      <trkpt lat="44.23687" lon="5.3928">
        <ele>1000</ele>
        <time>2026-05-13T13:05:31.000Z</time>
      </trkpt>
      <trkpt lat="44.23691" lon="5.39281">
        <ele>999</ele>
        <time>2026-05-13T13:05:32.000Z</time>
      </trkpt>
      <trkpt lat="44.23694" lon="5.39284">
        <ele>998</ele>
        <time>2026-05-13T13:05:33.000Z</time>
      </trkpt>
      <trkpt lat="44.23696" lon="5.39286">
        <ele>998</ele>
        <time>2026-05-13T13:05:34.000Z</time>
      </trkpt>
      <trkpt lat="44.23698" lon="5.39287">
        <ele>998</ele>
        <time>2026-05-13T13:05:35.000Z</time>
      </trkpt>
      <trkpt lat="44.23701" lon="5.39286">
        <ele>998</ele>
        <time>2026-05-13T13:05:36.000Z</time>
      </trkpt>
      <trkpt lat="44.23704" lon="5.39287">
        <ele>999</ele>
        <time>2026-05-13T13:05:37.000Z</time>
      </trkpt>
      <trkpt lat="44.23707" lon="5.39287">
        <ele>999</ele>
        <time>2026-05-13T13:05:38.000Z</time>
      </trkpt>
      <trkpt lat="44.23709" lon="5.39287">
        <ele>1000</ele>
        <time>2026-05-13T13:05:39.000Z</time>
      </trkpt>
      <trkpt lat="44.23712" lon="5.39288">
        <ele>1000</ele>
        <time>2026-05-13T13:05:40.000Z</time>
      </trkpt>
      <trkpt lat="44.23714" lon="5.39288">
        <ele>1000</ele>
        <time>2026-05-13T13:05:41.000Z</time>
      </trkpt>
      <trkpt lat="44.23715" lon="5.39287">
        <ele>1000</ele>
        <time>2026-05-13T13:05:42.000Z</time>
      </trkpt>
      <trkpt lat="44.23718" lon="5.39287">
        <ele>1000</ele>
        <time>2026-05-13T13:05:43.000Z</time>
      </trkpt>
      <trkpt lat="44.2372" lon="5.39288">
        <ele>1000</ele>
        <time>2026-05-13T13:05:44.000Z</time>
      </trkpt>
      <trkpt lat="44.23722" lon="5.39289">
        <ele>1000</ele>
        <time>2026-05-13T13:05:45.000Z</time>
      </trkpt>
      <trkpt lat="44.23723" lon="5.39289">
        <ele>1000</ele>
        <time>2026-05-13T13:05:46.000Z</time>
      </trkpt>
      <trkpt lat="44.23725" lon="5.3929">
        <ele>1000</ele>
        <time>2026-05-13T13:05:47.000Z</time>
      </trkpt>
      <trkpt lat="44.23726" lon="5.3929">
        <ele>1000</ele>
        <time>2026-05-13T13:05:48.000Z</time>
      </trkpt>
      <trkpt lat="44.23728" lon="5.39291">
        <ele>1001</ele>
        <time>2026-05-13T13:05:49.000Z</time>
      </trkpt>
      <trkpt lat="44.23729" lon="5.39293">
        <ele>1000</ele>
        <time>2026-05-13T13:05:50.000Z</time>
      </trkpt>
      <trkpt lat="44.23729" lon="5.39295">
        <ele>999</ele>
        <time>2026-05-13T13:05:51.000Z</time>
      </trkpt>
      <trkpt lat="44.23731" lon="5.39297">
        <ele>999</ele>
        <time>2026-05-13T13:05:52.000Z</time>
      </trkpt>
      <trkpt lat="44.23731" lon="5.39298">
        <ele>998</ele>
        <time>2026-05-13T13:05:53.000Z</time>
      </trkpt>
      <trkpt lat="44.23732" lon="5.393">
        <ele>998</ele>
        <time>2026-05-13T13:05:54.000Z</time>
      </trkpt>
      <trkpt lat="44.23733" lon="5.39301">
        <ele>998</ele>
        <time>2026-05-13T13:05:55.000Z</time>
      </trkpt>
      <trkpt lat="44.23734" lon="5.39303">
        <ele>998</ele>
        <time>2026-05-13T13:05:56.000Z</time>
      </trkpt>
      <trkpt lat="44.23735" lon="5.39304">
        <ele>998</ele>
        <time>2026-05-13T13:05:57.000Z</time>
      </trkpt>
      <trkpt lat="44.23737" lon="5.39306">
        <ele>997</ele>
        <time>2026-05-13T13:05:58.000Z</time>
      </trkpt>
      <trkpt lat="44.23738" lon="5.39307">
        <ele>996</ele>
        <time>2026-05-13T13:05:59.000Z</time>
      </trkpt>
      <trkpt lat="44.2374" lon="5.39309">
        <ele>995</ele>
        <time>2026-05-13T13:06:00.000Z</time>
      </trkpt>
      <trkpt lat="44.23743" lon="5.39311">
        <ele>995</ele>
        <time>2026-05-13T13:06:01.000Z</time>
      </trkpt>
      <trkpt lat="44.23744" lon="5.39313">
        <ele>994</ele>
        <time>2026-05-13T13:06:02.000Z</time>
      </trkpt>
      <trkpt lat="44.23746" lon="5.39316">
        <ele>994</ele>
        <time>2026-05-13T13:06:03.000Z</time>
      </trkpt>
      <trkpt lat="44.23746" lon="5.39318">
        <ele>994</ele>
        <time>2026-05-13T13:06:04.000Z</time>
      </trkpt>
      <trkpt lat="44.23747" lon="5.39318">
        <ele>994</ele>
        <time>2026-05-13T13:06:05.000Z</time>
      </trkpt>
      <trkpt lat="44.23749" lon="5.39318">
        <ele>994</ele>
        <time>2026-05-13T13:06:06.000Z</time>
      </trkpt>
      <trkpt lat="44.23751" lon="5.39318">
        <ele>994</ele>
        <time>2026-05-13T13:06:07.000Z</time>
      </trkpt>
      <trkpt lat="44.23752" lon="5.39317">
        <ele>994</ele>
        <time>2026-05-13T13:06:08.000Z</time>
      </trkpt>
      <trkpt lat="44.23753" lon="5.39318">
        <ele>994</ele>
        <time>2026-05-13T13:06:09.000Z</time>
      </trkpt>
      <trkpt lat="44.23754" lon="5.39318">
        <ele>994</ele>
        <time>2026-05-13T13:06:10.000Z</time>
      </trkpt>
      <trkpt lat="44.23755" lon="5.39317">
        <ele>994</ele>
        <time>2026-05-13T13:06:11.000Z</time>
      </trkpt>
      <trkpt lat="44.23756" lon="5.39318">
        <ele>993</ele>
        <time>2026-05-13T13:06:12.000Z</time>
      </trkpt>
      <trkpt lat="44.23757" lon="5.3932">
        <ele>993</ele>
        <time>2026-05-13T13:06:13.000Z</time>
      </trkpt>
      <trkpt lat="44.23757" lon="5.39321">
        <ele>993</ele>
        <time>2026-05-13T13:06:14.000Z</time>
      </trkpt>
      <trkpt lat="44.23758" lon="5.39321">
        <ele>994</ele>
        <time>2026-05-13T13:06:15.000Z</time>
      </trkpt>
      <trkpt lat="44.23758" lon="5.39321">
        <ele>994</ele>
        <time>2026-05-13T13:06:16.000Z</time>
      </trkpt>
      <trkpt lat="44.23758" lon="5.39321">
        <ele>994</ele>
        <time>2026-05-13T13:06:17.000Z</time>
      </trkpt>
      <trkpt lat="44.23758" lon="5.39321">
        <ele>994</ele>
        <time>2026-05-13T13:06:18.000Z</time>
      </trkpt>
      <trkpt lat="44.23758" lon="5.39321">
        <ele>994</ele>
        <time>2026-05-13T13:06:19.000Z</time>
      </trkpt>
      <trkpt lat="44.23757" lon="5.39321">
        <ele>994</ele>
        <time>2026-05-13T13:06:20.000Z</time>
      </trkpt>
      <trkpt lat="44.23757" lon="5.39321">
        <ele>994</ele>
        <time>2026-05-13T13:06:21.000Z</time>
      </trkpt>
      <trkpt lat="44.23758" lon="5.39322">
        <ele>993</ele>
        <time>2026-05-13T13:06:22.000Z</time>
      </trkpt>
      <trkpt lat="44.23759" lon="5.39321">
        <ele>994</ele>
        <time>2026-05-13T13:06:23.000Z</time>
      </trkpt>
      <trkpt lat="44.23761" lon="5.3932">
        <ele>994</ele>
        <time>2026-05-13T13:06:24.000Z</time>
      </trkpt>
      <trkpt lat="44.23762" lon="5.39319">
        <ele>994</ele>
        <time>2026-05-13T13:06:25.000Z</time>
      </trkpt>
      <trkpt lat="44.23763" lon="5.39317">
        <ele>994</ele>
        <time>2026-05-13T13:06:26.000Z</time>
      </trkpt>
      <trkpt lat="44.23765" lon="5.39317">
        <ele>994</ele>
        <time>2026-05-13T13:06:27.000Z</time>
      </trkpt>
      <trkpt lat="44.23766" lon="5.39315">
        <ele>994</ele>
        <time>2026-05-13T13:06:28.000Z</time>
      </trkpt>
      <trkpt lat="44.23767" lon="5.39314">
        <ele>993</ele>
        <time>2026-05-13T13:06:29.000Z</time>
      </trkpt>
      <trkpt lat="44.23768" lon="5.39312">
        <ele>993</ele>
        <time>2026-05-13T13:06:30.000Z</time>
      </trkpt>
      <trkpt lat="44.23769" lon="5.39311">
        <ele>992</ele>
        <time>2026-05-13T13:06:31.000Z</time>
      </trkpt>
      <trkpt lat="44.2377" lon="5.39309">
        <ele>991</ele>
        <time>2026-05-13T13:06:32.000Z</time>
      </trkpt>
      <trkpt lat="44.23771" lon="5.39307">
        <ele>991</ele>
        <time>2026-05-13T13:06:33.000Z</time>
      </trkpt>
      <trkpt lat="44.23773" lon="5.39305">
        <ele>991</ele>
        <time>2026-05-13T13:06:34.000Z</time>
      </trkpt>
      <trkpt lat="44.23774" lon="5.39303">
        <ele>991</ele>
        <time>2026-05-13T13:06:35.000Z</time>
      </trkpt>
      <trkpt lat="44.23776" lon="5.39301">
        <ele>990</ele>
        <time>2026-05-13T13:06:36.000Z</time>
      </trkpt>
      <trkpt lat="44.23778" lon="5.39299">
        <ele>989</ele>
        <time>2026-05-13T13:06:37.000Z</time>
      </trkpt>
      <trkpt lat="44.23781" lon="5.39298">
        <ele>988</ele>
        <time>2026-05-13T13:06:38.000Z</time>
      </trkpt>
      <trkpt lat="44.23783" lon="5.39296">
        <ele>988</ele>
        <time>2026-05-13T13:06:39.000Z</time>
      </trkpt>
      <trkpt lat="44.23785" lon="5.39294">
        <ele>987</ele>
        <time>2026-05-13T13:06:40.000Z</time>
      </trkpt>
      <trkpt lat="44.23788" lon="5.39292">
        <ele>986</ele>
        <time>2026-05-13T13:06:41.000Z</time>
      </trkpt>
      <trkpt lat="44.2379" lon="5.39289">
        <ele>986</ele>
        <time>2026-05-13T13:06:42.000Z</time>
      </trkpt>
      <trkpt lat="44.23792" lon="5.39286">
        <ele>986</ele>
        <time>2026-05-13T13:06:43.000Z</time>
      </trkpt>
      <trkpt lat="44.23793" lon="5.39283">
        <ele>986</ele>
        <time>2026-05-13T13:06:44.000Z</time>
      </trkpt>
      <trkpt lat="44.23795" lon="5.39281">
        <ele>986</ele>
        <time>2026-05-13T13:06:45.000Z</time>
      </trkpt>
      <trkpt lat="44.23796" lon="5.3928">
        <ele>986</ele>
        <time>2026-05-13T13:06:46.000Z</time>
      </trkpt>
      <trkpt lat="44.23797" lon="5.39278">
        <ele>985</ele>
        <time>2026-05-13T13:06:47.000Z</time>
      </trkpt>
      <trkpt lat="44.23799" lon="5.39275">
        <ele>985</ele>
        <time>2026-05-13T13:06:48.000Z</time>
      </trkpt>
      <trkpt lat="44.23801" lon="5.39272">
        <ele>986</ele>
        <time>2026-05-13T13:06:49.000Z</time>
      </trkpt>
      <trkpt lat="44.23802" lon="5.39269">
        <ele>986</ele>
        <time>2026-05-13T13:06:50.000Z</time>
      </trkpt>
      <trkpt lat="44.23804" lon="5.39266">
        <ele>986</ele>
        <time>2026-05-13T13:06:51.000Z</time>
      </trkpt>
      <trkpt lat="44.23805" lon="5.39263">
        <ele>986</ele>
        <time>2026-05-13T13:06:52.000Z</time>
      </trkpt>
      <trkpt lat="44.23806" lon="5.3926">
        <ele>986</ele>
        <time>2026-05-13T13:06:53.000Z</time>
      </trkpt>
      <trkpt lat="44.23807" lon="5.39257">
        <ele>986</ele>
        <time>2026-05-13T13:06:54.000Z</time>
      </trkpt>
      <trkpt lat="44.23808" lon="5.39254">
        <ele>985</ele>
        <time>2026-05-13T13:06:55.000Z</time>
      </trkpt>
      <trkpt lat="44.23808" lon="5.3925">
        <ele>985</ele>
        <time>2026-05-13T13:06:56.000Z</time>
      </trkpt>
      <trkpt lat="44.23809" lon="5.39248">
        <ele>984</ele>
        <time>2026-05-13T13:06:57.000Z</time>
      </trkpt>
      <trkpt lat="44.2381" lon="5.39244">
        <ele>984</ele>
        <time>2026-05-13T13:06:58.000Z</time>
      </trkpt>
      <trkpt lat="44.23811" lon="5.39241">
        <ele>984</ele>
        <time>2026-05-13T13:06:59.000Z</time>
      </trkpt>
      <trkpt lat="44.23811" lon="5.39237">
        <ele>984</ele>
        <time>2026-05-13T13:07:00.000Z</time>
      </trkpt>
      <trkpt lat="44.2381" lon="5.39232">
        <ele>984</ele>
        <time>2026-05-13T13:07:01.000Z</time>
      </trkpt>
      <trkpt lat="44.2381" lon="5.39227">
        <ele>983</ele>
        <time>2026-05-13T13:07:02.000Z</time>
      </trkpt>
      <trkpt lat="44.2381" lon="5.39223">
        <ele>984</ele>
        <time>2026-05-13T13:07:03.000Z</time>
      </trkpt>
      <trkpt lat="44.2381" lon="5.3922">
        <ele>983</ele>
        <time>2026-05-13T13:07:04.000Z</time>
      </trkpt>
      <trkpt lat="44.23811" lon="5.39215">
        <ele>983</ele>
        <time>2026-05-13T13:07:05.000Z</time>
      </trkpt>
      <trkpt lat="44.2381" lon="5.39211">
        <ele>982</ele>
        <time>2026-05-13T13:07:06.000Z</time>
      </trkpt>
      <trkpt lat="44.2381" lon="5.39207">
        <ele>982</ele>
        <time>2026-05-13T13:07:07.000Z</time>
      </trkpt>
      <trkpt lat="44.23809" lon="5.39204">
        <ele>981</ele>
        <time>2026-05-13T13:07:08.000Z</time>
      </trkpt>
      <trkpt lat="44.23806" lon="5.392">
        <ele>981</ele>
        <time>2026-05-13T13:07:09.000Z</time>
      </trkpt>
      <trkpt lat="44.23805" lon="5.39197">
        <ele>981</ele>
        <time>2026-05-13T13:07:10.000Z</time>
      </trkpt>
      <trkpt lat="44.23803" lon="5.39194">
        <ele>980</ele>
        <time>2026-05-13T13:07:11.000Z</time>
      </trkpt>
      <trkpt lat="44.23802" lon="5.3919">
        <ele>979</ele>
        <time>2026-05-13T13:07:12.000Z</time>
      </trkpt>
      <trkpt lat="44.23801" lon="5.39186">
        <ele>979</ele>
        <time>2026-05-13T13:07:13.000Z</time>
      </trkpt>
      <trkpt lat="44.23802" lon="5.39183">
        <ele>978</ele>
        <time>2026-05-13T13:07:14.000Z</time>
      </trkpt>
      <trkpt lat="44.23802" lon="5.39179">
        <ele>978</ele>
        <time>2026-05-13T13:07:15.000Z</time>
      </trkpt>
      <trkpt lat="44.23802" lon="5.39176">
        <ele>978</ele>
        <time>2026-05-13T13:07:16.000Z</time>
      </trkpt>
      <trkpt lat="44.23804" lon="5.39172">
        <ele>977</ele>
        <time>2026-05-13T13:07:17.000Z</time>
      </trkpt>
      <trkpt lat="44.23805" lon="5.39169">
        <ele>977</ele>
        <time>2026-05-13T13:07:18.000Z</time>
      </trkpt>
      <trkpt lat="44.23804" lon="5.39164">
        <ele>977</ele>
        <time>2026-05-13T13:07:19.000Z</time>
      </trkpt>
      <trkpt lat="44.23803" lon="5.39161">
        <ele>976</ele>
        <time>2026-05-13T13:07:20.000Z</time>
      </trkpt>
      <trkpt lat="44.23802" lon="5.39157">
        <ele>976</ele>
        <time>2026-05-13T13:07:21.000Z</time>
      </trkpt>
      <trkpt lat="44.23799" lon="5.39154">
        <ele>975</ele>
        <time>2026-05-13T13:07:22.000Z</time>
      </trkpt>
      <trkpt lat="44.23797" lon="5.3915">
        <ele>975</ele>
        <time>2026-05-13T13:07:23.000Z</time>
      </trkpt>
      <trkpt lat="44.23795" lon="5.39146">
        <ele>974</ele>
        <time>2026-05-13T13:07:24.000Z</time>
      </trkpt>
      <trkpt lat="44.23793" lon="5.39143">
        <ele>974</ele>
        <time>2026-05-13T13:07:25.000Z</time>
      </trkpt>
      <trkpt lat="44.23791" lon="5.3914">
        <ele>973</ele>
        <time>2026-05-13T13:07:26.000Z</time>
      </trkpt>
      <trkpt lat="44.2379" lon="5.39137">
        <ele>973</ele>
        <time>2026-05-13T13:07:27.000Z</time>
      </trkpt>
      <trkpt lat="44.23789" lon="5.39133">
        <ele>973</ele>
        <time>2026-05-13T13:07:28.000Z</time>
      </trkpt>
      <trkpt lat="44.23789" lon="5.39129">
        <ele>972</ele>
        <time>2026-05-13T13:07:29.000Z</time>
      </trkpt>
      <trkpt lat="44.23788" lon="5.39126">
        <ele>971</ele>
        <time>2026-05-13T13:07:30.000Z</time>
      </trkpt>
      <trkpt lat="44.23789" lon="5.39122">
        <ele>971</ele>
        <time>2026-05-13T13:07:31.000Z</time>
      </trkpt>
      <trkpt lat="44.23791" lon="5.39117">
        <ele>971</ele>
        <time>2026-05-13T13:07:32.000Z</time>
      </trkpt>
      <trkpt lat="44.23792" lon="5.39114">
        <ele>971</ele>
        <time>2026-05-13T13:07:33.000Z</time>
      </trkpt>
      <trkpt lat="44.23793" lon="5.39112">
        <ele>971</ele>
        <time>2026-05-13T13:07:34.000Z</time>
      </trkpt>
      <trkpt lat="44.23794" lon="5.3911">
        <ele>970</ele>
        <time>2026-05-13T13:07:35.000Z</time>
      </trkpt>
      <trkpt lat="44.23795" lon="5.39108">
        <ele>970</ele>
        <time>2026-05-13T13:07:36.000Z</time>
      </trkpt>
      <trkpt lat="44.23796" lon="5.39104">
        <ele>970</ele>
        <time>2026-05-13T13:07:37.000Z</time>
      </trkpt>
      <trkpt lat="44.23798" lon="5.391">
        <ele>970</ele>
        <time>2026-05-13T13:07:38.000Z</time>
      </trkpt>
      <trkpt lat="44.23798" lon="5.39097">
        <ele>970</ele>
        <time>2026-05-13T13:07:39.000Z</time>
      </trkpt>
      <trkpt lat="44.23799" lon="5.39095">
        <ele>969</ele>
        <time>2026-05-13T13:07:40.000Z</time>
      </trkpt>
      <trkpt lat="44.238" lon="5.39092">
        <ele>969</ele>
        <time>2026-05-13T13:07:41.000Z</time>
      </trkpt>
      <trkpt lat="44.23801" lon="5.3909">
        <ele>969</ele>
        <time>2026-05-13T13:07:42.000Z</time>
      </trkpt>
      <trkpt lat="44.23802" lon="5.39088">
        <ele>969</ele>
        <time>2026-05-13T13:07:43.000Z</time>
      </trkpt>
      <trkpt lat="44.23803" lon="5.39086">
        <ele>970</ele>
        <time>2026-05-13T13:07:44.000Z</time>
      </trkpt>
      <trkpt lat="44.23804" lon="5.39084">
        <ele>969</ele>
        <time>2026-05-13T13:07:45.000Z</time>
      </trkpt>
      <trkpt lat="44.23804" lon="5.39081">
        <ele>969</ele>
        <time>2026-05-13T13:07:46.000Z</time>
      </trkpt>
      <trkpt lat="44.23806" lon="5.39078">
        <ele>969</ele>
        <time>2026-05-13T13:07:47.000Z</time>
      </trkpt>
      <trkpt lat="44.23806" lon="5.39075">
        <ele>969</ele>
        <time>2026-05-13T13:07:48.000Z</time>
      </trkpt>
      <trkpt lat="44.23806" lon="5.39072">
        <ele>969</ele>
        <time>2026-05-13T13:07:49.000Z</time>
      </trkpt>
      <trkpt lat="44.23808" lon="5.39069">
        <ele>969</ele>
        <time>2026-05-13T13:07:50.000Z</time>
      </trkpt>
      <trkpt lat="44.23808" lon="5.39066">
        <ele>969</ele>
        <time>2026-05-13T13:07:51.000Z</time>
      </trkpt>
      <trkpt lat="44.23809" lon="5.39063">
        <ele>969</ele>
        <time>2026-05-13T13:07:52.000Z</time>
      </trkpt>
      <trkpt lat="44.2381" lon="5.39062">
        <ele>968</ele>
        <time>2026-05-13T13:07:53.000Z</time>
      </trkpt>
      <trkpt lat="44.23811" lon="5.39059">
        <ele>968</ele>
        <time>2026-05-13T13:07:54.000Z</time>
      </trkpt>
      <trkpt lat="44.23812" lon="5.39056">
        <ele>968</ele>
        <time>2026-05-13T13:07:55.000Z</time>
      </trkpt>
      <trkpt lat="44.23814" lon="5.39055">
        <ele>968</ele>
        <time>2026-05-13T13:07:56.000Z</time>
      </trkpt>
      <trkpt lat="44.23815" lon="5.39055">
        <ele>967</ele>
        <time>2026-05-13T13:07:57.000Z</time>
      </trkpt>
      <trkpt lat="44.23815" lon="5.39054">
        <ele>967</ele>
        <time>2026-05-13T13:07:58.000Z</time>
      </trkpt>
      <trkpt lat="44.23815" lon="5.39052">
        <ele>968</ele>
        <time>2026-05-13T13:07:59.000Z</time>
      </trkpt>
      <trkpt lat="44.23815" lon="5.39052">
        <ele>968</ele>
        <time>2026-05-13T13:08:00.000Z</time>
      </trkpt>
      <trkpt lat="44.23815" lon="5.39052">
        <ele>968</ele>
        <time>2026-05-13T13:08:01.000Z</time>
      </trkpt>
      <trkpt lat="44.23815" lon="5.39052">
        <ele>968</ele>
        <time>2026-05-13T13:08:02.000Z</time>
      </trkpt>
      <trkpt lat="44.23815" lon="5.39052">
        <ele>968</ele>
        <time>2026-05-13T13:08:03.000Z</time>
      </trkpt>
      <trkpt lat="44.23815" lon="5.39052">
        <ele>968</ele>
        <time>2026-05-13T13:08:04.000Z</time>
      </trkpt>
      <trkpt lat="44.23815" lon="5.39052">
        <ele>968</ele>
        <time>2026-05-13T13:08:05.000Z</time>
      </trkpt>
      <trkpt lat="44.23815" lon="5.39052">
        <ele>968</ele>
        <time>2026-05-13T13:08:06.000Z</time>
      </trkpt>
      <trkpt lat="44.23815" lon="5.39052">
        <ele>968</ele>
        <time>2026-05-13T13:08:07.000Z</time>
      </trkpt>
      <trkpt lat="44.23815" lon="5.39052">
        <ele>968</ele>
        <time>2026-05-13T13:08:08.000Z</time>
      </trkpt>
      <trkpt lat="44.23815" lon="5.39052">
        <ele>968</ele>
        <time>2026-05-13T13:08:09.000Z</time>
      </trkpt>
      <trkpt lat="44.23815" lon="5.39052">
        <ele>968</ele>
        <time>2026-05-13T13:08:10.000Z</time>
      </trkpt>
      <trkpt lat="44.23815" lon="5.39052">
        <ele>968</ele>
        <time>2026-05-13T13:08:11.000Z</time>
      </trkpt>
      <trkpt lat="44.23815" lon="5.39052">
        <ele>968</ele>
        <time>2026-05-13T13:08:12.000Z</time>
      </trkpt>
      <trkpt lat="44.23815" lon="5.39052">
        <ele>968</ele>
        <time>2026-05-13T13:08:13.000Z</time>
      </trkpt>
      <trkpt lat="44.23815" lon="5.39052">
        <ele>968</ele>
        <time>2026-05-13T13:08:14.000Z</time>
      </trkpt>
      <trkpt lat="44.23815" lon="5.39052">
        <ele>968</ele>
        <time>2026-05-13T13:08:15.000Z</time>
      </trkpt>
      <trkpt lat="44.23815" lon="5.39052">
        <ele>968</ele>
        <time>2026-05-13T13:08:16.000Z</time>
      </trkpt>
      <trkpt lat="44.23815" lon="5.39052">
        <ele>968</ele>
        <time>2026-05-13T13:08:17.000Z</time>
      </trkpt>
      <trkpt lat="44.23815" lon="5.39052">
        <ele>968</ele>
        <time>2026-05-13T13:08:18.000Z</time>
      </trkpt>
      <trkpt lat="44.23815" lon="5.39052">
        <ele>968</ele>
        <time>2026-05-13T13:08:19.000Z</time>
      </trkpt>
      <trkpt lat="44.23815" lon="5.39052">
        <ele>968</ele>
        <time>2026-05-13T13:08:20.000Z</time>
      </trkpt>
      <trkpt lat="44.23815" lon="5.39052">
        <ele>968</ele>
        <time>2026-05-13T13:08:21.000Z</time>
      </trkpt>
      <trkpt lat="44.23815" lon="5.39052">
        <ele>968</ele>
        <time>2026-05-13T13:08:22.000Z</time>
      </trkpt>
      <trkpt lat="44.23815" lon="5.39052">
        <ele>968</ele>
        <time>2026-05-13T13:08:23.000Z</time>
      </trkpt>
      <trkpt lat="44.23815" lon="5.39052">
        <ele>968</ele>
        <time>2026-05-13T13:08:24.000Z</time>
      </trkpt>
      <trkpt lat="44.23815" lon="5.39052">
        <ele>968</ele>
        <time>2026-05-13T13:08:25.000Z</time>
      </trkpt>
      <trkpt lat="44.23815" lon="5.39052">
        <ele>968</ele>
        <time>2026-05-13T13:08:26.000Z</time>
      </trkpt>
      <trkpt lat="44.23815" lon="5.39052">
        <ele>968</ele>
        <time>2026-05-13T13:08:27.000Z</time>
      </trkpt>
      <trkpt lat="44.23815" lon="5.39052">
        <ele>968</ele>
        <time>2026-05-13T13:08:28.000Z</time>
      </trkpt>
      <trkpt lat="44.23815" lon="5.39052">
        <ele>968</ele>
        <time>2026-05-13T13:08:29.000Z</time>
      </trkpt>
      <trkpt lat="44.23815" lon="5.39052">
        <ele>968</ele>
        <time>2026-05-13T13:08:30.000Z</time>
      </trkpt>
      <trkpt lat="44.23815" lon="5.39052">
        <ele>968</ele>
        <time>2026-05-13T13:08:31.000Z</time>
      </trkpt>
      <trkpt lat="44.23815" lon="5.39052">
        <ele>968</ele>
        <time>2026-05-13T13:08:32.000Z</time>
      </trkpt>
      <trkpt lat="44.23815" lon="5.39052">
        <ele>968</ele>
        <time>2026-05-13T13:08:33.000Z</time>
      </trkpt>
      <trkpt lat="44.23815" lon="5.39052">
        <ele>968</ele>
        <time>2026-05-13T13:08:34.000Z</time>
      </trkpt>
      <trkpt lat="44.23815" lon="5.39052">
        <ele>968</ele>
        <time>2026-05-13T13:08:35.000Z</time>
      </trkpt>
      <trkpt lat="44.23815" lon="5.39052">
        <ele>968</ele>
        <time>2026-05-13T13:08:36.000Z</time>
      </trkpt>
      <trkpt lat="44.23815" lon="5.39052">
        <ele>968</ele>
        <time>2026-05-13T13:08:37.000Z</time>
      </trkpt>
      <trkpt lat="44.23815" lon="5.39052">
        <ele>968</ele>
        <time>2026-05-13T13:08:38.000Z</time>
      </trkpt>
      <trkpt lat="44.23815" lon="5.39052">
        <ele>968</ele>
        <time>2026-05-13T13:08:39.000Z</time>
      </trkpt>
      <trkpt lat="44.23815" lon="5.39052">
        <ele>968</ele>
        <time>2026-05-13T13:08:40.000Z</time>
      </trkpt>
      <trkpt lat="44.23815" lon="5.39052">
        <ele>968</ele>
        <time>2026-05-13T13:08:41.000Z</time>
      </trkpt>
      <trkpt lat="44.23815" lon="5.39052">
        <ele>968</ele>
        <time>2026-05-13T13:08:42.000Z</time>
      </trkpt>
      <trkpt lat="44.23815" lon="5.39052">
        <ele>968</ele>
        <time>2026-05-13T13:08:43.000Z</time>
      </trkpt>
      <trkpt lat="44.23815" lon="5.39052">
        <ele>968</ele>
        <time>2026-05-13T13:08:44.000Z</time>
      </trkpt>
      <trkpt lat="44.23815" lon="5.39052">
        <ele>968</ele>
        <time>2026-05-13T13:08:45.000Z</time>
      </trkpt>
      <trkpt lat="44.23815" lon="5.39052">
        <ele>968</ele>
        <time>2026-05-13T13:08:46.000Z</time>
      </trkpt>
      <trkpt lat="44.23815" lon="5.39052">
        <ele>968</ele>
        <time>2026-05-13T13:08:47.000Z</time>
      </trkpt>
      <trkpt lat="44.23815" lon="5.39052">
        <ele>968</ele>
        <time>2026-05-13T13:08:48.000Z</time>
      </trkpt>
      <trkpt lat="44.23815" lon="5.39052">
        <ele>968</ele>
        <time>2026-05-13T13:08:49.000Z</time>
      </trkpt>
      <trkpt lat="44.23815" lon="5.39052">
        <ele>968</ele>
        <time>2026-05-13T13:08:50.000Z</time>
      </trkpt>
      <trkpt lat="44.23815" lon="5.39052">
        <ele>968</ele>
        <time>2026-05-13T13:08:51.000Z</time>
      </trkpt>
      <trkpt lat="44.23815" lon="5.39052">
        <ele>968</ele>
        <time>2026-05-13T13:08:52.000Z</time>
      </trkpt>
      <trkpt lat="44.23815" lon="5.39052">
        <ele>968</ele>
        <time>2026-05-13T13:08:53.000Z</time>
      </trkpt>
      <trkpt lat="44.23815" lon="5.39052">
        <ele>968</ele>
        <time>2026-05-13T13:08:54.000Z</time>
      </trkpt>
      <trkpt lat="44.23815" lon="5.39052">
        <ele>968</ele>
        <time>2026-05-13T13:08:55.000Z</time>
      </trkpt>
      <trkpt lat="44.23815" lon="5.39052">
        <ele>968</ele>
        <time>2026-05-13T13:08:56.000Z</time>
      </trkpt>
      <trkpt lat="44.23815" lon="5.39052">
        <ele>968</ele>
        <time>2026-05-13T13:08:57.000Z</time>
      </trkpt>
      <trkpt lat="44.23815" lon="5.39052">
        <ele>968</ele>
        <time>2026-05-13T13:08:58.000Z</time>
      </trkpt>
      <trkpt lat="44.23815" lon="5.39052">
        <ele>968</ele>
        <time>2026-05-13T13:08:59.000Z</time>
      </trkpt>
      <trkpt lat="44.23816" lon="5.39053">
        <ele>967</ele>
        <time>2026-05-13T13:09:00.000Z</time>
      </trkpt>
      <trkpt lat="44.23816" lon="5.39053">
        <ele>967</ele>
        <time>2026-05-13T13:09:01.000Z</time>
      </trkpt>
      <trkpt lat="44.23816" lon="5.39053">
        <ele>967</ele>
        <time>2026-05-13T13:09:02.000Z</time>
      </trkpt>
      <trkpt lat="44.23817" lon="5.39054">
        <ele>966</ele>
        <time>2026-05-13T13:09:03.000Z</time>
      </trkpt>
      <trkpt lat="44.23817" lon="5.39054">
        <ele>966</ele>
        <time>2026-05-13T13:09:04.000Z</time>
      </trkpt>
      <trkpt lat="44.23817" lon="5.39053">
        <ele>966</ele>
        <time>2026-05-13T13:09:05.000Z</time>
      </trkpt>
      <trkpt lat="44.23817" lon="5.39053">
        <ele>965</ele>
        <time>2026-05-13T13:09:06.000Z</time>
      </trkpt>
      <trkpt lat="44.23817" lon="5.39053">
        <ele>965</ele>
        <time>2026-05-13T13:09:07.000Z</time>
      </trkpt>
      <trkpt lat="44.23817" lon="5.39053">
        <ele>965</ele>
        <time>2026-05-13T13:09:08.000Z</time>
      </trkpt>
      <trkpt lat="44.23817" lon="5.39053">
        <ele>965</ele>
        <time>2026-05-13T13:09:09.000Z</time>
      </trkpt>
      <trkpt lat="44.23817" lon="5.39053">
        <ele>965</ele>
        <time>2026-05-13T13:09:10.000Z</time>
      </trkpt>
      <trkpt lat="44.23817" lon="5.39053">
        <ele>965</ele>
        <time>2026-05-13T13:09:11.000Z</time>
      </trkpt>
      <trkpt lat="44.23817" lon="5.39053">
        <ele>965</ele>
        <time>2026-05-13T13:09:12.000Z</time>
      </trkpt>
      <trkpt lat="44.23817" lon="5.39053">
        <ele>965</ele>
        <time>2026-05-13T13:09:13.000Z</time>
      </trkpt>
      <trkpt lat="44.23817" lon="5.39053">
        <ele>965</ele>
        <time>2026-05-13T13:09:14.000Z</time>
      </trkpt>
      <trkpt lat="44.23817" lon="5.39053">
        <ele>965</ele>
        <time>2026-05-13T13:09:15.000Z</time>
      </trkpt>
      <trkpt lat="44.23817" lon="5.39053">
        <ele>965</ele>
        <time>2026-05-13T13:09:16.000Z</time>
      </trkpt>
      <trkpt lat="44.23817" lon="5.39053">
        <ele>965</ele>
        <time>2026-05-13T13:09:17.000Z</time>
      </trkpt>
      <trkpt lat="44.23817" lon="5.39053">
        <ele>965</ele>
        <time>2026-05-13T13:09:18.000Z</time>
      </trkpt>
      <trkpt lat="44.23817" lon="5.39053">
        <ele>965</ele>
        <time>2026-05-13T13:09:19.000Z</time>
      </trkpt>
      <trkpt lat="44.23817" lon="5.39053">
        <ele>965</ele>
        <time>2026-05-13T13:09:20.000Z</time>
      </trkpt>
      <trkpt lat="44.23817" lon="5.39053">
        <ele>965</ele>
        <time>2026-05-13T13:09:21.000Z</time>
      </trkpt>
      <trkpt lat="44.23817" lon="5.39053">
        <ele>965</ele>
        <time>2026-05-13T13:09:22.000Z</time>
      </trkpt>
      <trkpt lat="44.23817" lon="5.39053">
        <ele>965</ele>
        <time>2026-05-13T13:09:23.000Z</time>
      </trkpt>
      <trkpt lat="44.23817" lon="5.39053">
        <ele>965</ele>
        <time>2026-05-13T13:09:24.000Z</time>
      </trkpt>
      <trkpt lat="44.23817" lon="5.39053">
        <ele>965</ele>
        <time>2026-05-13T13:09:25.000Z</time>
      </trkpt>
      <trkpt lat="44.23817" lon="5.39053">
        <ele>965</ele>
        <time>2026-05-13T13:09:26.000Z</time>
      </trkpt>
      <trkpt lat="44.23817" lon="5.39053">
        <ele>965</ele>
        <time>2026-05-13T13:09:27.000Z</time>
      </trkpt>
      <trkpt lat="44.23817" lon="5.39053">
        <ele>965</ele>
        <time>2026-05-13T13:09:28.000Z</time>
      </trkpt>
      <trkpt lat="44.23817" lon="5.39053">
        <ele>965</ele>
        <time>2026-05-13T13:09:29.000Z</time>
      </trkpt>
      <trkpt lat="44.23817" lon="5.39053">
        <ele>965</ele>
        <time>2026-05-13T13:09:30.000Z</time>
      </trkpt>
      <trkpt lat="44.23817" lon="5.39053">
        <ele>965</ele>
        <time>2026-05-13T13:09:31.000Z</time>
      </trkpt>
      <trkpt lat="44.23817" lon="5.39053">
        <ele>965</ele>
        <time>2026-05-13T13:09:32.000Z</time>
      </trkpt>
      <trkpt lat="44.23817" lon="5.39053">
        <ele>965</ele>
        <time>2026-05-13T13:09:33.000Z</time>
      </trkpt>
      <trkpt lat="44.23817" lon="5.39053">
        <ele>965</ele>
        <time>2026-05-13T13:09:34.000Z</time>
      </trkpt>
      <trkpt lat="44.23817" lon="5.39053">
        <ele>965</ele>
        <time>2026-05-13T13:09:35.000Z</time>
      </trkpt>
      <trkpt lat="44.23817" lon="5.39053">
        <ele>965</ele>
        <time>2026-05-13T13:09:36.000Z</time>
      </trkpt>
      <trkpt lat="44.23817" lon="5.39054">
        <ele>965</ele>
        <time>2026-05-13T13:09:37.000Z</time>
      </trkpt>
      <trkpt lat="44.23817" lon="5.39054">
        <ele>964</ele>
        <time>2026-05-13T13:09:38.000Z</time>
      </trkpt>
      <trkpt lat="44.23819" lon="5.39053">
        <ele>964</ele>
        <time>2026-05-13T13:09:39.000Z</time>
      </trkpt>
      <trkpt lat="44.2382" lon="5.39051">
        <ele>963</ele>
        <time>2026-05-13T13:09:40.000Z</time>
      </trkpt>
      <trkpt lat="44.23821" lon="5.39047">
        <ele>963</ele>
        <time>2026-05-13T13:09:41.000Z</time>
      </trkpt>
      <trkpt lat="44.23823" lon="5.39043">
        <ele>963</ele>
        <time>2026-05-13T13:09:42.000Z</time>
      </trkpt>
      <trkpt lat="44.23824" lon="5.39039">
        <ele>963</ele>
        <time>2026-05-13T13:09:43.000Z</time>
      </trkpt>
      <trkpt lat="44.23827" lon="5.39036">
        <ele>963</ele>
        <time>2026-05-13T13:09:44.000Z</time>
      </trkpt>
      <trkpt lat="44.23829" lon="5.39035">
        <ele>963</ele>
        <time>2026-05-13T13:09:45.000Z</time>
      </trkpt>
      <trkpt lat="44.23832" lon="5.39034">
        <ele>963</ele>
        <time>2026-05-13T13:09:46.000Z</time>
      </trkpt>
      <trkpt lat="44.23835" lon="5.39033">
        <ele>963</ele>
        <time>2026-05-13T13:09:47.000Z</time>
      </trkpt>
      <trkpt lat="44.23837" lon="5.39031">
        <ele>962</ele>
        <time>2026-05-13T13:09:48.000Z</time>
      </trkpt>
      <trkpt lat="44.23839" lon="5.39029">
        <ele>963</ele>
        <time>2026-05-13T13:09:49.000Z</time>
      </trkpt>
      <trkpt lat="44.23842" lon="5.39027">
        <ele>962</ele>
        <time>2026-05-13T13:09:50.000Z</time>
      </trkpt>
      <trkpt lat="44.23845" lon="5.39026">
        <ele>962</ele>
        <time>2026-05-13T13:09:51.000Z</time>
      </trkpt>
      <trkpt lat="44.23848" lon="5.39025">
        <ele>962</ele>
        <time>2026-05-13T13:09:52.000Z</time>
      </trkpt>
      <trkpt lat="44.23853" lon="5.39023">
        <ele>962</ele>
        <time>2026-05-13T13:09:53.000Z</time>
      </trkpt>
      <trkpt lat="44.23858" lon="5.3902">
        <ele>962</ele>
        <time>2026-05-13T13:09:54.000Z</time>
      </trkpt>
      <trkpt lat="44.23861" lon="5.39019">
        <ele>962</ele>
        <time>2026-05-13T13:09:55.000Z</time>
      </trkpt>
      <trkpt lat="44.23866" lon="5.39017">
        <ele>963</ele>
        <time>2026-05-13T13:09:56.000Z</time>
      </trkpt>
      <trkpt lat="44.2387" lon="5.39014">
        <ele>963</ele>
        <time>2026-05-13T13:09:57.000Z</time>
      </trkpt>
      <trkpt lat="44.23875" lon="5.39013">
        <ele>963</ele>
        <time>2026-05-13T13:09:58.000Z</time>
      </trkpt>
      <trkpt lat="44.23879" lon="5.3901">
        <ele>962</ele>
        <time>2026-05-13T13:09:59.000Z</time>
      </trkpt>
      <trkpt lat="44.23884" lon="5.39007">
        <ele>961</ele>
        <time>2026-05-13T13:10:00.000Z</time>
      </trkpt>
      <trkpt lat="44.23886" lon="5.39004">
        <ele>961</ele>
        <time>2026-05-13T13:10:01.000Z</time>
      </trkpt>
      <trkpt lat="44.23888" lon="5.39002">
        <ele>960</ele>
        <time>2026-05-13T13:10:02.000Z</time>
      </trkpt>
      <trkpt lat="44.2389" lon="5.39">
        <ele>960</ele>
        <time>2026-05-13T13:10:03.000Z</time>
      </trkpt>
      <trkpt lat="44.23892" lon="5.38998">
        <ele>960</ele>
        <time>2026-05-13T13:10:04.000Z</time>
      </trkpt>
      <trkpt lat="44.23894" lon="5.38995">
        <ele>959</ele>
        <time>2026-05-13T13:10:05.000Z</time>
      </trkpt>
      <trkpt lat="44.23896" lon="5.38991">
        <ele>958</ele>
        <time>2026-05-13T13:10:06.000Z</time>
      </trkpt>
      <trkpt lat="44.23899" lon="5.38987">
        <ele>957</ele>
        <time>2026-05-13T13:10:07.000Z</time>
      </trkpt>
      <trkpt lat="44.23903" lon="5.38982">
        <ele>957</ele>
        <time>2026-05-13T13:10:08.000Z</time>
      </trkpt>
      <trkpt lat="44.23905" lon="5.38977">
        <ele>957</ele>
        <time>2026-05-13T13:10:09.000Z</time>
      </trkpt>
      <trkpt lat="44.23907" lon="5.38972">
        <ele>957</ele>
        <time>2026-05-13T13:10:10.000Z</time>
      </trkpt>
      <trkpt lat="44.23909" lon="5.38968">
        <ele>956</ele>
        <time>2026-05-13T13:10:11.000Z</time>
      </trkpt>
      <trkpt lat="44.23912" lon="5.38962">
        <ele>955</ele>
        <time>2026-05-13T13:10:12.000Z</time>
      </trkpt>
      <trkpt lat="44.23915" lon="5.38956">
        <ele>955</ele>
        <time>2026-05-13T13:10:13.000Z</time>
      </trkpt>
      <trkpt lat="44.23918" lon="5.3895">
        <ele>955</ele>
        <time>2026-05-13T13:10:14.000Z</time>
      </trkpt>
      <trkpt lat="44.2392" lon="5.38945">
        <ele>954</ele>
        <time>2026-05-13T13:10:15.000Z</time>
      </trkpt>
      <trkpt lat="44.23925" lon="5.3894">
        <ele>952</ele>
        <time>2026-05-13T13:10:16.000Z</time>
      </trkpt>
      <trkpt lat="44.23929" lon="5.38937">
        <ele>951</ele>
        <time>2026-05-13T13:10:17.000Z</time>
      </trkpt>
      <trkpt lat="44.23932" lon="5.38935">
        <ele>951</ele>
        <time>2026-05-13T13:10:18.000Z</time>
      </trkpt>
      <trkpt lat="44.23935" lon="5.38934">
        <ele>951</ele>
        <time>2026-05-13T13:10:19.000Z</time>
      </trkpt>
      <trkpt lat="44.23937" lon="5.38934">
        <ele>951</ele>
        <time>2026-05-13T13:10:20.000Z</time>
      </trkpt>
      <trkpt lat="44.23937" lon="5.38934">
        <ele>951</ele>
        <time>2026-05-13T13:10:21.000Z</time>
      </trkpt>
      <trkpt lat="44.23937" lon="5.38934">
        <ele>951</ele>
        <time>2026-05-13T13:10:22.000Z</time>
      </trkpt>
      <trkpt lat="44.23937" lon="5.38934">
        <ele>951</ele>
        <time>2026-05-13T13:10:23.000Z</time>
      </trkpt>
      <trkpt lat="44.23937" lon="5.38934">
        <ele>951</ele>
        <time>2026-05-13T13:10:24.000Z</time>
      </trkpt>
      <trkpt lat="44.23937" lon="5.38934">
        <ele>951</ele>
        <time>2026-05-13T13:10:25.000Z</time>
      </trkpt>
      <trkpt lat="44.23936" lon="5.38934">
        <ele>950</ele>
        <time>2026-05-13T13:10:26.000Z</time>
      </trkpt>
      <trkpt lat="44.23936" lon="5.38933">
        <ele>950</ele>
        <time>2026-05-13T13:10:27.000Z</time>
      </trkpt>
      <trkpt lat="44.23937" lon="5.38933">
        <ele>951</ele>
        <time>2026-05-13T13:10:28.000Z</time>
      </trkpt>
      <trkpt lat="44.23937" lon="5.38932">
        <ele>950</ele>
        <time>2026-05-13T13:10:29.000Z</time>
      </trkpt>
      <trkpt lat="44.23938" lon="5.38931">
        <ele>950</ele>
        <time>2026-05-13T13:10:30.000Z</time>
      </trkpt>
      <trkpt lat="44.23937" lon="5.3893">
        <ele>949</ele>
        <time>2026-05-13T13:10:31.000Z</time>
      </trkpt>
      <trkpt lat="44.23937" lon="5.38929">
        <ele>948</ele>
        <time>2026-05-13T13:10:32.000Z</time>
      </trkpt>
      <trkpt lat="44.23937" lon="5.38929">
        <ele>948</ele>
        <time>2026-05-13T13:10:33.000Z</time>
      </trkpt>
      <trkpt lat="44.23937" lon="5.38929">
        <ele>948</ele>
        <time>2026-05-13T13:10:34.000Z</time>
      </trkpt>
      <trkpt lat="44.23937" lon="5.38929">
        <ele>948</ele>
        <time>2026-05-13T13:10:35.000Z</time>
      </trkpt>
      <trkpt lat="44.23937" lon="5.38929">
        <ele>948</ele>
        <time>2026-05-13T13:10:36.000Z</time>
      </trkpt>
      <trkpt lat="44.23937" lon="5.38929">
        <ele>948</ele>
        <time>2026-05-13T13:10:37.000Z</time>
      </trkpt>
      <trkpt lat="44.23937" lon="5.38929">
        <ele>948</ele>
        <time>2026-05-13T13:10:38.000Z</time>
      </trkpt>
      <trkpt lat="44.23937" lon="5.38929">
        <ele>948</ele>
        <time>2026-05-13T13:10:39.000Z</time>
      </trkpt>
      <trkpt lat="44.23937" lon="5.38929">
        <ele>948</ele>
        <time>2026-05-13T13:10:40.000Z</time>
      </trkpt>
      <trkpt lat="44.23937" lon="5.38929">
        <ele>948</ele>
        <time>2026-05-13T13:10:41.000Z</time>
      </trkpt>
      <trkpt lat="44.23937" lon="5.38929">
        <ele>948</ele>
        <time>2026-05-13T13:10:42.000Z</time>
      </trkpt>
      <trkpt lat="44.23937" lon="5.38929">
        <ele>948</ele>
        <time>2026-05-13T13:10:43.000Z</time>
      </trkpt>
      <trkpt lat="44.23937" lon="5.38929">
        <ele>948</ele>
        <time>2026-05-13T13:10:44.000Z</time>
      </trkpt>
      <trkpt lat="44.23937" lon="5.38929">
        <ele>948</ele>
        <time>2026-05-13T13:10:45.000Z</time>
      </trkpt>
      <trkpt lat="44.23937" lon="5.38929">
        <ele>948</ele>
        <time>2026-05-13T13:10:46.000Z</time>
      </trkpt>
      <trkpt lat="44.23937" lon="5.38929">
        <ele>948</ele>
        <time>2026-05-13T13:10:47.000Z</time>
      </trkpt>
      <trkpt lat="44.23937" lon="5.38929">
        <ele>948</ele>
        <time>2026-05-13T13:10:48.000Z</time>
      </trkpt>
      <trkpt lat="44.23937" lon="5.38929">
        <ele>948</ele>
        <time>2026-05-13T13:10:49.000Z</time>
      </trkpt>
      <trkpt lat="44.23937" lon="5.38929">
        <ele>948</ele>
        <time>2026-05-13T13:10:50.000Z</time>
      </trkpt>
      <trkpt lat="44.23937" lon="5.38929">
        <ele>948</ele>
        <time>2026-05-13T13:10:51.000Z</time>
      </trkpt>
      <trkpt lat="44.23937" lon="5.38929">
        <ele>948</ele>
        <time>2026-05-13T13:10:52.000Z</time>
      </trkpt>
      <trkpt lat="44.23937" lon="5.38929">
        <ele>948</ele>
        <time>2026-05-13T13:10:53.000Z</time>
      </trkpt>
      <trkpt lat="44.23937" lon="5.38929">
        <ele>948</ele>
        <time>2026-05-13T13:10:54.000Z</time>
      </trkpt>
      <trkpt lat="44.23937" lon="5.38929">
        <ele>948</ele>
        <time>2026-05-13T13:10:55.000Z</time>
      </trkpt>
      <trkpt lat="44.23937" lon="5.38929">
        <ele>948</ele>
        <time>2026-05-13T13:10:56.000Z</time>
      </trkpt>
      <trkpt lat="44.23937" lon="5.38929">
        <ele>948</ele>
        <time>2026-05-13T13:10:57.000Z</time>
      </trkpt>
      <trkpt lat="44.23937" lon="5.38929">
        <ele>948</ele>
        <time>2026-05-13T13:10:58.000Z</time>
      </trkpt>
      <trkpt lat="44.23937" lon="5.38929">
        <ele>948</ele>
        <time>2026-05-13T13:10:59.000Z</time>
      </trkpt>
      <trkpt lat="44.23937" lon="5.38929">
        <ele>948</ele>
        <time>2026-05-13T13:11:00.000Z</time>
      </trkpt>
      <trkpt lat="44.23937" lon="5.38929">
        <ele>948</ele>
        <time>2026-05-13T13:11:01.000Z</time>
      </trkpt>
      <trkpt lat="44.23937" lon="5.38929">
        <ele>948</ele>
        <time>2026-05-13T13:11:02.000Z</time>
      </trkpt>
      <trkpt lat="44.23937" lon="5.38929">
        <ele>948</ele>
        <time>2026-05-13T13:11:03.000Z</time>
      </trkpt>
      <trkpt lat="44.23937" lon="5.38929">
        <ele>948</ele>
        <time>2026-05-13T13:11:04.000Z</time>
      </trkpt>
      <trkpt lat="44.23937" lon="5.38929">
        <ele>948</ele>
        <time>2026-05-13T13:11:05.000Z</time>
      </trkpt>
      <trkpt lat="44.23937" lon="5.38929">
        <ele>948</ele>
        <time>2026-05-13T13:11:06.000Z</time>
      </trkpt>
      <trkpt lat="44.23937" lon="5.38929">
        <ele>948</ele>
        <time>2026-05-13T13:11:07.000Z</time>
      </trkpt>
      <trkpt lat="44.23937" lon="5.38929">
        <ele>948</ele>
        <time>2026-05-13T13:11:08.000Z</time>
      </trkpt>
      <trkpt lat="44.23937" lon="5.38929">
        <ele>948</ele>
        <time>2026-05-13T13:11:09.000Z</time>
      </trkpt>
      <trkpt lat="44.23937" lon="5.38929">
        <ele>948</ele>
        <time>2026-05-13T13:11:10.000Z</time>
      </trkpt>
      <trkpt lat="44.23937" lon="5.38929">
        <ele>948</ele>
        <time>2026-05-13T13:11:11.000Z</time>
      </trkpt>
      <trkpt lat="44.23937" lon="5.38929">
        <ele>948</ele>
        <time>2026-05-13T13:11:12.000Z</time>
      </trkpt>
      <trkpt lat="44.23937" lon="5.38929">
        <ele>948</ele>
        <time>2026-05-13T13:11:13.000Z</time>
      </trkpt>
      <trkpt lat="44.23937" lon="5.38929">
        <ele>948</ele>
        <time>2026-05-13T13:11:14.000Z</time>
      </trkpt>
      <trkpt lat="44.23937" lon="5.38929">
        <ele>948</ele>
        <time>2026-05-13T13:11:15.000Z</time>
      </trkpt>
      <trkpt lat="44.23937" lon="5.38929">
        <ele>948</ele>
        <time>2026-05-13T13:11:16.000Z</time>
      </trkpt>
      <trkpt lat="44.23937" lon="5.3893">
        <ele>948</ele>
        <time>2026-05-13T13:11:17.000Z</time>
      </trkpt>
      <trkpt lat="44.23937" lon="5.38931">
        <ele>948</ele>
        <time>2026-05-13T13:11:18.000Z</time>
      </trkpt>
      <trkpt lat="44.23937" lon="5.38929">
        <ele>947</ele>
        <time>2026-05-13T13:11:19.000Z</time>
      </trkpt>
      <trkpt lat="44.23938" lon="5.38929">
        <ele>947</ele>
        <time>2026-05-13T13:11:20.000Z</time>
      </trkpt>
      <trkpt lat="44.2394" lon="5.38927">
        <ele>947</ele>
        <time>2026-05-13T13:11:21.000Z</time>
      </trkpt>
      <trkpt lat="44.23941" lon="5.38926">
        <ele>946</ele>
        <time>2026-05-13T13:11:22.000Z</time>
      </trkpt>
      <trkpt lat="44.23942" lon="5.38924">
        <ele>947</ele>
        <time>2026-05-13T13:11:23.000Z</time>
      </trkpt>
      <trkpt lat="44.23943" lon="5.38922">
        <ele>947</ele>
        <time>2026-05-13T13:11:24.000Z</time>
      </trkpt>
      <trkpt lat="44.23945" lon="5.38919">
        <ele>946</ele>
        <time>2026-05-13T13:11:25.000Z</time>
      </trkpt>
      <trkpt lat="44.23946" lon="5.38917">
        <ele>946</ele>
        <time>2026-05-13T13:11:26.000Z</time>
      </trkpt>
      <trkpt lat="44.23946" lon="5.38915">
        <ele>946</ele>
        <time>2026-05-13T13:11:27.000Z</time>
      </trkpt>
      <trkpt lat="44.23948" lon="5.38913">
        <ele>945</ele>
        <time>2026-05-13T13:11:28.000Z</time>
      </trkpt>
      <trkpt lat="44.23949" lon="5.38909">
        <ele>945</ele>
        <time>2026-05-13T13:11:29.000Z</time>
      </trkpt>
      <trkpt lat="44.23952" lon="5.38903">
        <ele>944</ele>
        <time>2026-05-13T13:11:30.000Z</time>
      </trkpt>
      <trkpt lat="44.23956" lon="5.389">
        <ele>944</ele>
        <time>2026-05-13T13:11:31.000Z</time>
      </trkpt>
      <trkpt lat="44.23959" lon="5.38896">
        <ele>944</ele>
        <time>2026-05-13T13:11:32.000Z</time>
      </trkpt>
      <trkpt lat="44.23961" lon="5.38893">
        <ele>944</ele>
        <time>2026-05-13T13:11:33.000Z</time>
      </trkpt>
      <trkpt lat="44.23962" lon="5.38889">
        <ele>944</ele>
        <time>2026-05-13T13:11:34.000Z</time>
      </trkpt>
      <trkpt lat="44.23963" lon="5.38887">
        <ele>944</ele>
        <time>2026-05-13T13:11:35.000Z</time>
      </trkpt>
      <trkpt lat="44.23964" lon="5.38886">
        <ele>944</ele>
        <time>2026-05-13T13:11:36.000Z</time>
      </trkpt>
      <trkpt lat="44.23965" lon="5.38885">
        <ele>944</ele>
        <time>2026-05-13T13:11:37.000Z</time>
      </trkpt>
      <trkpt lat="44.23967" lon="5.38884">
        <ele>944</ele>
        <time>2026-05-13T13:11:38.000Z</time>
      </trkpt>
      <trkpt lat="44.23968" lon="5.38883">
        <ele>944</ele>
        <time>2026-05-13T13:11:39.000Z</time>
      </trkpt>
      <trkpt lat="44.2397" lon="5.38881">
        <ele>944</ele>
        <time>2026-05-13T13:11:40.000Z</time>
      </trkpt>
      <trkpt lat="44.23972" lon="5.3888">
        <ele>944</ele>
        <time>2026-05-13T13:11:41.000Z</time>
      </trkpt>
      <trkpt lat="44.23975" lon="5.38878">
        <ele>944</ele>
        <time>2026-05-13T13:11:42.000Z</time>
      </trkpt>
      <trkpt lat="44.23977" lon="5.38876">
        <ele>943</ele>
        <time>2026-05-13T13:11:43.000Z</time>
      </trkpt>
      <trkpt lat="44.2398" lon="5.38874">
        <ele>943</ele>
        <time>2026-05-13T13:11:44.000Z</time>
      </trkpt>
      <trkpt lat="44.23982" lon="5.3887">
        <ele>943</ele>
        <time>2026-05-13T13:11:45.000Z</time>
      </trkpt>
      <trkpt lat="44.23985" lon="5.38866">
        <ele>943</ele>
        <time>2026-05-13T13:11:46.000Z</time>
      </trkpt>
      <trkpt lat="44.23988" lon="5.38863">
        <ele>943</ele>
        <time>2026-05-13T13:11:47.000Z</time>
      </trkpt>
      <trkpt lat="44.23991" lon="5.38861">
        <ele>944</ele>
        <time>2026-05-13T13:11:48.000Z</time>
      </trkpt>
      <trkpt lat="44.23994" lon="5.38858">
        <ele>944</ele>
        <time>2026-05-13T13:11:49.000Z</time>
      </trkpt>
      <trkpt lat="44.23997" lon="5.38857">
        <ele>943</ele>
        <time>2026-05-13T13:11:50.000Z</time>
      </trkpt>
      <trkpt lat="44.23999" lon="5.38856">
        <ele>943</ele>
        <time>2026-05-13T13:11:51.000Z</time>
      </trkpt>
      <trkpt lat="44.24002" lon="5.38854">
        <ele>943</ele>
        <time>2026-05-13T13:11:52.000Z</time>
      </trkpt>
      <trkpt lat="44.24004" lon="5.38852">
        <ele>944</ele>
        <time>2026-05-13T13:11:53.000Z</time>
      </trkpt>
      <trkpt lat="44.24007" lon="5.3885">
        <ele>944</ele>
        <time>2026-05-13T13:11:54.000Z</time>
      </trkpt>
      <trkpt lat="44.2401" lon="5.38847">
        <ele>943</ele>
        <time>2026-05-13T13:11:55.000Z</time>
      </trkpt>
      <trkpt lat="44.24012" lon="5.38846">
        <ele>943</ele>
        <time>2026-05-13T13:11:56.000Z</time>
      </trkpt>
      <trkpt lat="44.24015" lon="5.38844">
        <ele>943</ele>
        <time>2026-05-13T13:11:57.000Z</time>
      </trkpt>
      <trkpt lat="44.24017" lon="5.38842">
        <ele>943</ele>
        <time>2026-05-13T13:11:58.000Z</time>
      </trkpt>
      <trkpt lat="44.24019" lon="5.38841">
        <ele>942</ele>
        <time>2026-05-13T13:11:59.000Z</time>
      </trkpt>
      <trkpt lat="44.24021" lon="5.3884">
        <ele>942</ele>
        <time>2026-05-13T13:12:00.000Z</time>
      </trkpt>
      <trkpt lat="44.24023" lon="5.38838">
        <ele>942</ele>
        <time>2026-05-13T13:12:01.000Z</time>
      </trkpt>
      <trkpt lat="44.24025" lon="5.38835">
        <ele>941</ele>
        <time>2026-05-13T13:12:02.000Z</time>
      </trkpt>
      <trkpt lat="44.24027" lon="5.38832">
        <ele>941</ele>
        <time>2026-05-13T13:12:03.000Z</time>
      </trkpt>
      <trkpt lat="44.24029" lon="5.38831">
        <ele>941</ele>
        <time>2026-05-13T13:12:04.000Z</time>
      </trkpt>
      <trkpt lat="44.24032" lon="5.38828">
        <ele>940</ele>
        <time>2026-05-13T13:12:05.000Z</time>
      </trkpt>
      <trkpt lat="44.24036" lon="5.38824">
        <ele>940</ele>
        <time>2026-05-13T13:12:06.000Z</time>
      </trkpt>
      <trkpt lat="44.24039" lon="5.38822">
        <ele>940</ele>
        <time>2026-05-13T13:12:07.000Z</time>
      </trkpt>
      <trkpt lat="44.24041" lon="5.38818">
        <ele>940</ele>
        <time>2026-05-13T13:12:08.000Z</time>
      </trkpt>
      <trkpt lat="44.24044" lon="5.38816">
        <ele>941</ele>
        <time>2026-05-13T13:12:09.000Z</time>
      </trkpt>
      <trkpt lat="44.24046" lon="5.38812">
        <ele>940</ele>
        <time>2026-05-13T13:12:10.000Z</time>
      </trkpt>
      <trkpt lat="44.2405" lon="5.38809">
        <ele>940</ele>
        <time>2026-05-13T13:12:11.000Z</time>
      </trkpt>
      <trkpt lat="44.24053" lon="5.38806">
        <ele>940</ele>
        <time>2026-05-13T13:12:12.000Z</time>
      </trkpt>
      <trkpt lat="44.24055" lon="5.38804">
        <ele>939</ele>
        <time>2026-05-13T13:12:13.000Z</time>
      </trkpt>
      <trkpt lat="44.24059" lon="5.38802">
        <ele>938</ele>
        <time>2026-05-13T13:12:14.000Z</time>
      </trkpt>
      <trkpt lat="44.24063" lon="5.388">
        <ele>938</ele>
        <time>2026-05-13T13:12:15.000Z</time>
      </trkpt>
      <trkpt lat="44.24068" lon="5.38797">
        <ele>937</ele>
        <time>2026-05-13T13:12:16.000Z</time>
      </trkpt>
      <trkpt lat="44.24072" lon="5.38793">
        <ele>936</ele>
        <time>2026-05-13T13:12:17.000Z</time>
      </trkpt>
      <trkpt lat="44.24076" lon="5.3879">
        <ele>934</ele>
        <time>2026-05-13T13:12:18.000Z</time>
      </trkpt>
      <trkpt lat="44.24082" lon="5.38785">
        <ele>934</ele>
        <time>2026-05-13T13:12:19.000Z</time>
      </trkpt>
      <trkpt lat="44.24088" lon="5.38778">
        <ele>932</ele>
        <time>2026-05-13T13:12:20.000Z</time>
      </trkpt>
      <trkpt lat="44.24092" lon="5.38773">
        <ele>932</ele>
        <time>2026-05-13T13:12:21.000Z</time>
      </trkpt>
      <trkpt lat="44.24097" lon="5.38769">
        <ele>933</ele>
        <time>2026-05-13T13:12:22.000Z</time>
      </trkpt>
      <trkpt lat="44.241" lon="5.38764">
        <ele>933</ele>
        <time>2026-05-13T13:12:23.000Z</time>
      </trkpt>
      <trkpt lat="44.24102" lon="5.3876">
        <ele>933</ele>
        <time>2026-05-13T13:12:24.000Z</time>
      </trkpt>
      <trkpt lat="44.24104" lon="5.38755">
        <ele>934</ele>
        <time>2026-05-13T13:12:25.000Z</time>
      </trkpt>
      <trkpt lat="44.24107" lon="5.38753">
        <ele>934</ele>
        <time>2026-05-13T13:12:26.000Z</time>
      </trkpt>
      <trkpt lat="44.2411" lon="5.38754">
        <ele>934</ele>
        <time>2026-05-13T13:12:27.000Z</time>
      </trkpt>
      <trkpt lat="44.24112" lon="5.38756">
        <ele>934</ele>
        <time>2026-05-13T13:12:28.000Z</time>
      </trkpt>
      <trkpt lat="44.24114" lon="5.38758">
        <ele>934</ele>
        <time>2026-05-13T13:12:29.000Z</time>
      </trkpt>
      <trkpt lat="44.24116" lon="5.38759">
        <ele>934</ele>
        <time>2026-05-13T13:12:30.000Z</time>
      </trkpt>
      <trkpt lat="44.24118" lon="5.38761">
        <ele>934</ele>
        <time>2026-05-13T13:12:31.000Z</time>
      </trkpt>
      <trkpt lat="44.2412" lon="5.38761">
        <ele>934</ele>
        <time>2026-05-13T13:12:32.000Z</time>
      </trkpt>
      <trkpt lat="44.24121" lon="5.38762">
        <ele>934</ele>
        <time>2026-05-13T13:12:33.000Z</time>
      </trkpt>
      <trkpt lat="44.24124" lon="5.38762">
        <ele>934</ele>
        <time>2026-05-13T13:12:34.000Z</time>
      </trkpt>
      <trkpt lat="44.24126" lon="5.38763">
        <ele>934</ele>
        <time>2026-05-13T13:12:35.000Z</time>
      </trkpt>
      <trkpt lat="44.24128" lon="5.38764">
        <ele>933</ele>
        <time>2026-05-13T13:12:36.000Z</time>
      </trkpt>
      <trkpt lat="44.2413" lon="5.38764">
        <ele>934</ele>
        <time>2026-05-13T13:12:37.000Z</time>
      </trkpt>
      <trkpt lat="44.24132" lon="5.38765">
        <ele>934</ele>
        <time>2026-05-13T13:12:38.000Z</time>
      </trkpt>
      <trkpt lat="44.24134" lon="5.38765">
        <ele>934</ele>
        <time>2026-05-13T13:12:39.000Z</time>
      </trkpt>
      <trkpt lat="44.24136" lon="5.38765">
        <ele>934</ele>
        <time>2026-05-13T13:12:40.000Z</time>
      </trkpt>
      <trkpt lat="44.24138" lon="5.38764">
        <ele>934</ele>
        <time>2026-05-13T13:12:41.000Z</time>
      </trkpt>
      <trkpt lat="44.24139" lon="5.38764">
        <ele>934</ele>
        <time>2026-05-13T13:12:42.000Z</time>
      </trkpt>
      <trkpt lat="44.24141" lon="5.38764">
        <ele>934</ele>
        <time>2026-05-13T13:12:43.000Z</time>
      </trkpt>
      <trkpt lat="44.24143" lon="5.38764">
        <ele>934</ele>
        <time>2026-05-13T13:12:44.000Z</time>
      </trkpt>
      <trkpt lat="44.24145" lon="5.38764">
        <ele>934</ele>
        <time>2026-05-13T13:12:45.000Z</time>
      </trkpt>
      <trkpt lat="44.24147" lon="5.38764">
        <ele>933</ele>
        <time>2026-05-13T13:12:46.000Z</time>
      </trkpt>
      <trkpt lat="44.24151" lon="5.38762">
        <ele>933</ele>
        <time>2026-05-13T13:12:47.000Z</time>
      </trkpt>
      <trkpt lat="44.24155" lon="5.38759">
        <ele>932</ele>
        <time>2026-05-13T13:12:48.000Z</time>
      </trkpt>
      <trkpt lat="44.24159" lon="5.38755">
        <ele>932</ele>
        <time>2026-05-13T13:12:49.000Z</time>
      </trkpt>
      <trkpt lat="44.24163" lon="5.38751">
        <ele>932</ele>
        <time>2026-05-13T13:12:50.000Z</time>
      </trkpt>
      <trkpt lat="44.24167" lon="5.38745">
        <ele>932</ele>
        <time>2026-05-13T13:12:51.000Z</time>
      </trkpt>
      <trkpt lat="44.24168" lon="5.38741">
        <ele>932</ele>
        <time>2026-05-13T13:12:52.000Z</time>
      </trkpt>
      <trkpt lat="44.24169" lon="5.38737">
        <ele>932</ele>
        <time>2026-05-13T13:12:53.000Z</time>
      </trkpt>
      <trkpt lat="44.24171" lon="5.38735">
        <ele>933</ele>
        <time>2026-05-13T13:12:54.000Z</time>
      </trkpt>
      <trkpt lat="44.24172" lon="5.38733">
        <ele>933</ele>
        <time>2026-05-13T13:12:55.000Z</time>
      </trkpt>
      <trkpt lat="44.24172" lon="5.3873">
        <ele>933</ele>
        <time>2026-05-13T13:12:56.000Z</time>
      </trkpt>
      <trkpt lat="44.24172" lon="5.38728">
        <ele>934</ele>
        <time>2026-05-13T13:12:57.000Z</time>
      </trkpt>
      <trkpt lat="44.24173" lon="5.38725">
        <ele>934</ele>
        <time>2026-05-13T13:12:58.000Z</time>
      </trkpt>
      <trkpt lat="44.24172" lon="5.38723">
        <ele>934</ele>
        <time>2026-05-13T13:12:59.000Z</time>
      </trkpt>
      <trkpt lat="44.24173" lon="5.38722">
        <ele>934</ele>
        <time>2026-05-13T13:13:00.000Z</time>
      </trkpt>
      <trkpt lat="44.24174" lon="5.38721">
        <ele>934</ele>
        <time>2026-05-13T13:13:01.000Z</time>
      </trkpt>
      <trkpt lat="44.24175" lon="5.38719">
        <ele>934</ele>
        <time>2026-05-13T13:13:02.000Z</time>
      </trkpt>
      <trkpt lat="44.24176" lon="5.38717">
        <ele>934</ele>
        <time>2026-05-13T13:13:03.000Z</time>
      </trkpt>
      <trkpt lat="44.24177" lon="5.38717">
        <ele>933</ele>
        <time>2026-05-13T13:13:04.000Z</time>
      </trkpt>
      <trkpt lat="44.24179" lon="5.38715">
        <ele>933</ele>
        <time>2026-05-13T13:13:05.000Z</time>
      </trkpt>
      <trkpt lat="44.2418" lon="5.38715">
        <ele>933</ele>
        <time>2026-05-13T13:13:06.000Z</time>
      </trkpt>
      <trkpt lat="44.2418" lon="5.38714">
        <ele>933</ele>
        <time>2026-05-13T13:13:07.000Z</time>
      </trkpt>
      <trkpt lat="44.24181" lon="5.38714">
        <ele>934</ele>
        <time>2026-05-13T13:13:08.000Z</time>
      </trkpt>
      <trkpt lat="44.24182" lon="5.38713">
        <ele>934</ele>
        <time>2026-05-13T13:13:09.000Z</time>
      </trkpt>
      <trkpt lat="44.24183" lon="5.38712">
        <ele>934</ele>
        <time>2026-05-13T13:13:10.000Z</time>
      </trkpt>
      <trkpt lat="44.24184" lon="5.38711">
        <ele>933</ele>
        <time>2026-05-13T13:13:11.000Z</time>
      </trkpt>
      <trkpt lat="44.24185" lon="5.38709">
        <ele>933</ele>
        <time>2026-05-13T13:13:12.000Z</time>
      </trkpt>
      <trkpt lat="44.24186" lon="5.38708">
        <ele>933</ele>
        <time>2026-05-13T13:13:13.000Z</time>
      </trkpt>
      <trkpt lat="44.24187" lon="5.38707">
        <ele>932</ele>
        <time>2026-05-13T13:13:14.000Z</time>
      </trkpt>
      <trkpt lat="44.24189" lon="5.38706">
        <ele>932</ele>
        <time>2026-05-13T13:13:15.000Z</time>
      </trkpt>
      <trkpt lat="44.24191" lon="5.38705">
        <ele>931</ele>
        <time>2026-05-13T13:13:16.000Z</time>
      </trkpt>
      <trkpt lat="44.24193" lon="5.38703">
        <ele>931</ele>
        <time>2026-05-13T13:13:17.000Z</time>
      </trkpt>
      <trkpt lat="44.24195" lon="5.38699">
        <ele>929</ele>
        <time>2026-05-13T13:13:18.000Z</time>
      </trkpt>
      <trkpt lat="44.24198" lon="5.38694">
        <ele>928</ele>
        <time>2026-05-13T13:13:19.000Z</time>
      </trkpt>
      <trkpt lat="44.24201" lon="5.38688">
        <ele>927</ele>
        <time>2026-05-13T13:13:20.000Z</time>
      </trkpt>
      <trkpt lat="44.24206" lon="5.38682">
        <ele>927</ele>
        <time>2026-05-13T13:13:21.000Z</time>
      </trkpt>
      <trkpt lat="44.24211" lon="5.38678">
        <ele>927</ele>
        <time>2026-05-13T13:13:22.000Z</time>
      </trkpt>
      <trkpt lat="44.24215" lon="5.38672">
        <ele>927</ele>
        <time>2026-05-13T13:13:23.000Z</time>
      </trkpt>
      <trkpt lat="44.2422" lon="5.38667">
        <ele>927</ele>
        <time>2026-05-13T13:13:24.000Z</time>
      </trkpt>
      <trkpt lat="44.24226" lon="5.38664">
        <ele>927</ele>
        <time>2026-05-13T13:13:25.000Z</time>
      </trkpt>
      <trkpt lat="44.24232" lon="5.3866">
        <ele>927</ele>
        <time>2026-05-13T13:13:26.000Z</time>
      </trkpt>
      <trkpt lat="44.24237" lon="5.38658">
        <ele>926</ele>
        <time>2026-05-13T13:13:27.000Z</time>
      </trkpt>
      <trkpt lat="44.24243" lon="5.38657">
        <ele>926</ele>
        <time>2026-05-13T13:13:28.000Z</time>
      </trkpt>
      <trkpt lat="44.24249" lon="5.38656">
        <ele>926</ele>
        <time>2026-05-13T13:13:29.000Z</time>
      </trkpt>
      <trkpt lat="44.24255" lon="5.38654">
        <ele>926</ele>
        <time>2026-05-13T13:13:30.000Z</time>
      </trkpt>
      <trkpt lat="44.24262" lon="5.3865">
        <ele>926</ele>
        <time>2026-05-13T13:13:31.000Z</time>
      </trkpt>
      <trkpt lat="44.24266" lon="5.38644">
        <ele>925</ele>
        <time>2026-05-13T13:13:32.000Z</time>
      </trkpt>
      <trkpt lat="44.2427" lon="5.38638">
        <ele>924</ele>
        <time>2026-05-13T13:13:33.000Z</time>
      </trkpt>
      <trkpt lat="44.24274" lon="5.38631">
        <ele>924</ele>
        <time>2026-05-13T13:13:34.000Z</time>
      </trkpt>
      <trkpt lat="44.24279" lon="5.38622">
        <ele>923</ele>
        <time>2026-05-13T13:13:35.000Z</time>
      </trkpt>
      <trkpt lat="44.24283" lon="5.38613">
        <ele>923</ele>
        <time>2026-05-13T13:13:36.000Z</time>
      </trkpt>
      <trkpt lat="44.24288" lon="5.38603">
        <ele>923</ele>
        <time>2026-05-13T13:13:37.000Z</time>
      </trkpt>
      <trkpt lat="44.24291" lon="5.38593">
        <ele>923</ele>
        <time>2026-05-13T13:13:38.000Z</time>
      </trkpt>
      <trkpt lat="44.24294" lon="5.38584">
        <ele>923</ele>
        <time>2026-05-13T13:13:39.000Z</time>
      </trkpt>
      <trkpt lat="44.24296" lon="5.38576">
        <ele>924</ele>
        <time>2026-05-13T13:13:40.000Z</time>
      </trkpt>
      <trkpt lat="44.24297" lon="5.38571">
        <ele>924</ele>
        <time>2026-05-13T13:13:41.000Z</time>
      </trkpt>
      <trkpt lat="44.24298" lon="5.38569">
        <ele>924</ele>
        <time>2026-05-13T13:13:42.000Z</time>
      </trkpt>
      <trkpt lat="44.24299" lon="5.38567">
        <ele>924</ele>
        <time>2026-05-13T13:13:43.000Z</time>
      </trkpt>
      <trkpt lat="44.24302" lon="5.38564">
        <ele>925</ele>
        <time>2026-05-13T13:13:44.000Z</time>
      </trkpt>
      <trkpt lat="44.24304" lon="5.38562">
        <ele>924</ele>
        <time>2026-05-13T13:13:45.000Z</time>
      </trkpt>
      <trkpt lat="44.24306" lon="5.38561">
        <ele>924</ele>
        <time>2026-05-13T13:13:46.000Z</time>
      </trkpt>
      <trkpt lat="44.24309" lon="5.38562">
        <ele>923</ele>
        <time>2026-05-13T13:13:47.000Z</time>
      </trkpt>
      <trkpt lat="44.24312" lon="5.38563">
        <ele>922</ele>
        <time>2026-05-13T13:13:48.000Z</time>
      </trkpt>
      <trkpt lat="44.24316" lon="5.38565">
        <ele>921</ele>
        <time>2026-05-13T13:13:49.000Z</time>
      </trkpt>
      <trkpt lat="44.2432" lon="5.38566">
        <ele>921</ele>
        <time>2026-05-13T13:13:50.000Z</time>
      </trkpt>
      <trkpt lat="44.24325" lon="5.38566">
        <ele>920</ele>
        <time>2026-05-13T13:13:51.000Z</time>
      </trkpt>
      <trkpt lat="44.24329" lon="5.38566">
        <ele>919</ele>
        <time>2026-05-13T13:13:52.000Z</time>
      </trkpt>
      <trkpt lat="44.24333" lon="5.38568">
        <ele>920</ele>
        <time>2026-05-13T13:13:53.000Z</time>
      </trkpt>
      <trkpt lat="44.24335" lon="5.38573">
        <ele>919</ele>
        <time>2026-05-13T13:13:54.000Z</time>
      </trkpt>
      <trkpt lat="44.24338" lon="5.38576">
        <ele>919</ele>
        <time>2026-05-13T13:13:55.000Z</time>
      </trkpt>
      <trkpt lat="44.2434" lon="5.3858">
        <ele>918</ele>
        <time>2026-05-13T13:13:56.000Z</time>
      </trkpt>
      <trkpt lat="44.24342" lon="5.38585">
        <ele>917</ele>
        <time>2026-05-13T13:13:57.000Z</time>
      </trkpt>
      <trkpt lat="44.24346" lon="5.3859">
        <ele>915</ele>
        <time>2026-05-13T13:13:58.000Z</time>
      </trkpt>
      <trkpt lat="44.24351" lon="5.38595">
        <ele>913</ele>
        <time>2026-05-13T13:13:59.000Z</time>
      </trkpt>
      <trkpt lat="44.24356" lon="5.38599">
        <ele>911</ele>
        <time>2026-05-13T13:14:00.000Z</time>
      </trkpt>
      <trkpt lat="44.24362" lon="5.38602">
        <ele>910</ele>
        <time>2026-05-13T13:14:01.000Z</time>
      </trkpt>
      <trkpt lat="44.24369" lon="5.38603">
        <ele>910</ele>
        <time>2026-05-13T13:14:02.000Z</time>
      </trkpt>
      <trkpt lat="44.24376" lon="5.38603">
        <ele>910</ele>
        <time>2026-05-13T13:14:03.000Z</time>
      </trkpt>
      <trkpt lat="44.24383" lon="5.38603">
        <ele>910</ele>
        <time>2026-05-13T13:14:04.000Z</time>
      </trkpt>
      <trkpt lat="44.2439" lon="5.38602">
        <ele>909</ele>
        <time>2026-05-13T13:14:05.000Z</time>
      </trkpt>
      <trkpt lat="44.24397" lon="5.38599">
        <ele>909</ele>
        <time>2026-05-13T13:14:06.000Z</time>
      </trkpt>
      <trkpt lat="44.24404" lon="5.38597">
        <ele>910</ele>
        <time>2026-05-13T13:14:07.000Z</time>
      </trkpt>
      <trkpt lat="44.2441" lon="5.38594">
        <ele>909</ele>
        <time>2026-05-13T13:14:08.000Z</time>
      </trkpt>
      <trkpt lat="44.24416" lon="5.3859">
        <ele>909</ele>
        <time>2026-05-13T13:14:09.000Z</time>
      </trkpt>
      <trkpt lat="44.24423" lon="5.38587">
        <ele>909</ele>
        <time>2026-05-13T13:14:10.000Z</time>
      </trkpt>
      <trkpt lat="44.2443" lon="5.38584">
        <ele>909</ele>
        <time>2026-05-13T13:14:11.000Z</time>
      </trkpt>
      <trkpt lat="44.24437" lon="5.3858">
        <ele>909</ele>
        <time>2026-05-13T13:14:12.000Z</time>
      </trkpt>
      <trkpt lat="44.24444" lon="5.38575">
        <ele>909</ele>
        <time>2026-05-13T13:14:13.000Z</time>
      </trkpt>
      <trkpt lat="44.24452" lon="5.38572">
        <ele>908</ele>
        <time>2026-05-13T13:14:14.000Z</time>
      </trkpt>
      <trkpt lat="44.24461" lon="5.38568">
        <ele>906</ele>
        <time>2026-05-13T13:14:15.000Z</time>
      </trkpt>
      <trkpt lat="44.24471" lon="5.38564">
        <ele>905</ele>
        <time>2026-05-13T13:14:16.000Z</time>
      </trkpt>
      <trkpt lat="44.2448" lon="5.38559">
        <ele>904</ele>
        <time>2026-05-13T13:14:17.000Z</time>
      </trkpt>
      <trkpt lat="44.2449" lon="5.38553">
        <ele>904</ele>
        <time>2026-05-13T13:14:18.000Z</time>
      </trkpt>
      <trkpt lat="44.24499" lon="5.38549">
        <ele>903</ele>
        <time>2026-05-13T13:14:19.000Z</time>
      </trkpt>
      <trkpt lat="44.24505" lon="5.38544">
        <ele>903</ele>
        <time>2026-05-13T13:14:20.000Z</time>
      </trkpt>
      <trkpt lat="44.24508" lon="5.38538">
        <ele>903</ele>
        <time>2026-05-13T13:14:21.000Z</time>
      </trkpt>
      <trkpt lat="44.24509" lon="5.38536">
        <ele>903</ele>
        <time>2026-05-13T13:14:22.000Z</time>
      </trkpt>
      <trkpt lat="44.24511" lon="5.38535">
        <ele>903</ele>
        <time>2026-05-13T13:14:23.000Z</time>
      </trkpt>
      <trkpt lat="44.24511" lon="5.38535">
        <ele>903</ele>
        <time>2026-05-13T13:14:24.000Z</time>
      </trkpt>
      <trkpt lat="44.2451" lon="5.38535">
        <ele>903</ele>
        <time>2026-05-13T13:14:25.000Z</time>
      </trkpt>
      <trkpt lat="44.24513" lon="5.38534">
        <ele>902</ele>
        <time>2026-05-13T13:14:26.000Z</time>
      </trkpt>
      <trkpt lat="44.24512" lon="5.38534">
        <ele>903</ele>
        <time>2026-05-13T13:14:27.000Z</time>
      </trkpt>
      <trkpt lat="44.2451" lon="5.38534">
        <ele>902</ele>
        <time>2026-05-13T13:14:28.000Z</time>
      </trkpt>
      <trkpt lat="44.24509" lon="5.38533">
        <ele>902</ele>
        <time>2026-05-13T13:14:29.000Z</time>
      </trkpt>
      <trkpt lat="44.24509" lon="5.38532">
        <ele>901</ele>
        <time>2026-05-13T13:14:30.000Z</time>
      </trkpt>
      <trkpt lat="44.24509" lon="5.38532">
        <ele>902</ele>
        <time>2026-05-13T13:14:31.000Z</time>
      </trkpt>
      <trkpt lat="44.2451" lon="5.38531">
        <ele>902</ele>
        <time>2026-05-13T13:14:32.000Z</time>
      </trkpt>
      <trkpt lat="44.24511" lon="5.38532">
        <ele>902</ele>
        <time>2026-05-13T13:14:33.000Z</time>
      </trkpt>
      <trkpt lat="44.24512" lon="5.38531">
        <ele>902</ele>
        <time>2026-05-13T13:14:34.000Z</time>
      </trkpt>
      <trkpt lat="44.24513" lon="5.38531">
        <ele>901</ele>
        <time>2026-05-13T13:14:35.000Z</time>
      </trkpt>
      <trkpt lat="44.24513" lon="5.38531">
        <ele>901</ele>
        <time>2026-05-13T13:14:36.000Z</time>
      </trkpt>
      <trkpt lat="44.24514" lon="5.38533">
        <ele>901</ele>
        <time>2026-05-13T13:14:37.000Z</time>
      </trkpt>
      <trkpt lat="44.24514" lon="5.38534">
        <ele>901</ele>
        <time>2026-05-13T13:14:38.000Z</time>
      </trkpt>
      <trkpt lat="44.24514" lon="5.38535">
        <ele>901</ele>
        <time>2026-05-13T13:14:39.000Z</time>
      </trkpt>
      <trkpt lat="44.24516" lon="5.38535">
        <ele>901</ele>
        <time>2026-05-13T13:14:40.000Z</time>
      </trkpt>
      <trkpt lat="44.24516" lon="5.38535">
        <ele>901</ele>
        <time>2026-05-13T13:14:41.000Z</time>
      </trkpt>
      <trkpt lat="44.24516" lon="5.38535">
        <ele>901</ele>
        <time>2026-05-13T13:14:42.000Z</time>
      </trkpt>
      <trkpt lat="44.24516" lon="5.38535">
        <ele>901</ele>
        <time>2026-05-13T13:14:43.000Z</time>
      </trkpt>
      <trkpt lat="44.24515" lon="5.38536">
        <ele>901</ele>
        <time>2026-05-13T13:14:44.000Z</time>
      </trkpt>
      <trkpt lat="44.24515" lon="5.38535">
        <ele>901</ele>
        <time>2026-05-13T13:14:45.000Z</time>
      </trkpt>
      <trkpt lat="44.24515" lon="5.38535">
        <ele>901</ele>
        <time>2026-05-13T13:14:46.000Z</time>
      </trkpt>
      <trkpt lat="44.24516" lon="5.38534">
        <ele>901</ele>
        <time>2026-05-13T13:14:47.000Z</time>
      </trkpt>
      <trkpt lat="44.24516" lon="5.38534">
        <ele>901</ele>
        <time>2026-05-13T13:14:48.000Z</time>
      </trkpt>
      <trkpt lat="44.24516" lon="5.38534">
        <ele>901</ele>
        <time>2026-05-13T13:14:49.000Z</time>
      </trkpt>
      <trkpt lat="44.24517" lon="5.38533">
        <ele>901</ele>
        <time>2026-05-13T13:14:50.000Z</time>
      </trkpt>
      <trkpt lat="44.24517" lon="5.38531">
        <ele>901</ele>
        <time>2026-05-13T13:14:51.000Z</time>
      </trkpt>
      <trkpt lat="44.24518" lon="5.3853">
        <ele>901</ele>
        <time>2026-05-13T13:14:52.000Z</time>
      </trkpt>
      <trkpt lat="44.24519" lon="5.38529">
        <ele>901</ele>
        <time>2026-05-13T13:14:53.000Z</time>
      </trkpt>
      <trkpt lat="44.24519" lon="5.38529">
        <ele>901</ele>
        <time>2026-05-13T13:14:54.000Z</time>
      </trkpt>
      <trkpt lat="44.24521" lon="5.38527">
        <ele>900</ele>
        <time>2026-05-13T13:14:55.000Z</time>
      </trkpt>
      <trkpt lat="44.24522" lon="5.38525">
        <ele>900</ele>
        <time>2026-05-13T13:14:56.000Z</time>
      </trkpt>
      <trkpt lat="44.24524" lon="5.38523">
        <ele>900</ele>
        <time>2026-05-13T13:14:57.000Z</time>
      </trkpt>
      <trkpt lat="44.24526" lon="5.3852">
        <ele>900</ele>
        <time>2026-05-13T13:14:58.000Z</time>
      </trkpt>
      <trkpt lat="44.24529" lon="5.38516">
        <ele>900</ele>
        <time>2026-05-13T13:14:59.000Z</time>
      </trkpt>
      <trkpt lat="44.24532" lon="5.38512">
        <ele>899</ele>
        <time>2026-05-13T13:15:00.000Z</time>
      </trkpt>
      <trkpt lat="44.24536" lon="5.38506">
        <ele>899</ele>
        <time>2026-05-13T13:15:01.000Z</time>
      </trkpt>
      <trkpt lat="44.24539" lon="5.38502">
        <ele>899</ele>
        <time>2026-05-13T13:15:02.000Z</time>
      </trkpt>
      <trkpt lat="44.24543" lon="5.38497">
        <ele>898</ele>
        <time>2026-05-13T13:15:03.000Z</time>
      </trkpt>
      <trkpt lat="44.24547" lon="5.3849">
        <ele>897</ele>
        <time>2026-05-13T13:15:04.000Z</time>
      </trkpt>
      <trkpt lat="44.24552" lon="5.38484">
        <ele>896</ele>
        <time>2026-05-13T13:15:05.000Z</time>
      </trkpt>
      <trkpt lat="44.24557" lon="5.38477">
        <ele>895</ele>
        <time>2026-05-13T13:15:06.000Z</time>
      </trkpt>
      <trkpt lat="44.24562" lon="5.38469">
        <ele>894</ele>
        <time>2026-05-13T13:15:07.000Z</time>
      </trkpt>
      <trkpt lat="44.24568" lon="5.38462">
        <ele>892</ele>
        <time>2026-05-13T13:15:08.000Z</time>
      </trkpt>
      <trkpt lat="44.24574" lon="5.38453">
        <ele>891</ele>
        <time>2026-05-13T13:15:09.000Z</time>
      </trkpt>
      <trkpt lat="44.2458" lon="5.38443">
        <ele>890</ele>
        <time>2026-05-13T13:15:10.000Z</time>
      </trkpt>
      <trkpt lat="44.24585" lon="5.38432">
        <ele>889</ele>
        <time>2026-05-13T13:15:11.000Z</time>
      </trkpt>
      <trkpt lat="44.24591" lon="5.38422">
        <ele>888</ele>
        <time>2026-05-13T13:15:12.000Z</time>
      </trkpt>
      <trkpt lat="44.24598" lon="5.38411">
        <ele>886</ele>
        <time>2026-05-13T13:15:13.000Z</time>
      </trkpt>
      <trkpt lat="44.24605" lon="5.38399">
        <ele>886</ele>
        <time>2026-05-13T13:15:14.000Z</time>
      </trkpt>
      <trkpt lat="44.24613" lon="5.38388">
        <ele>885</ele>
        <time>2026-05-13T13:15:15.000Z</time>
      </trkpt>
      <trkpt lat="44.2462" lon="5.38376">
        <ele>884</ele>
        <time>2026-05-13T13:15:16.000Z</time>
      </trkpt>
      <trkpt lat="44.24626" lon="5.38366">
        <ele>883</ele>
        <time>2026-05-13T13:15:17.000Z</time>
      </trkpt>
      <trkpt lat="44.24633" lon="5.38355">
        <ele>881</ele>
        <time>2026-05-13T13:15:18.000Z</time>
      </trkpt>
      <trkpt lat="44.2464" lon="5.38345">
        <ele>880</ele>
        <time>2026-05-13T13:15:19.000Z</time>
      </trkpt>
      <trkpt lat="44.24648" lon="5.38336">
        <ele>880</ele>
        <time>2026-05-13T13:15:20.000Z</time>
      </trkpt>
      <trkpt lat="44.24657" lon="5.38327">
        <ele>880</ele>
        <time>2026-05-13T13:15:21.000Z</time>
      </trkpt>
      <trkpt lat="44.24665" lon="5.38319">
        <ele>878</ele>
        <time>2026-05-13T13:15:22.000Z</time>
      </trkpt>
      <trkpt lat="44.24674" lon="5.38312">
        <ele>877</ele>
        <time>2026-05-13T13:15:23.000Z</time>
      </trkpt>
      <trkpt lat="44.24683" lon="5.38305">
        <ele>876</ele>
        <time>2026-05-13T13:15:24.000Z</time>
      </trkpt>
      <trkpt lat="44.24692" lon="5.383">
        <ele>876</ele>
        <time>2026-05-13T13:15:25.000Z</time>
      </trkpt>
      <trkpt lat="44.247" lon="5.38295">
        <ele>876</ele>
        <time>2026-05-13T13:15:26.000Z</time>
      </trkpt>
      <trkpt lat="44.24709" lon="5.38291">
        <ele>875</ele>
        <time>2026-05-13T13:15:27.000Z</time>
      </trkpt>
      <trkpt lat="44.24718" lon="5.38285">
        <ele>875</ele>
        <time>2026-05-13T13:15:28.000Z</time>
      </trkpt>
      <trkpt lat="44.24725" lon="5.38278">
        <ele>874</ele>
        <time>2026-05-13T13:15:29.000Z</time>
      </trkpt>
      <trkpt lat="44.24731" lon="5.38272">
        <ele>875</ele>
        <time>2026-05-13T13:15:30.000Z</time>
      </trkpt>
      <trkpt lat="44.24738" lon="5.38268">
        <ele>874</ele>
        <time>2026-05-13T13:15:31.000Z</time>
      </trkpt>
      <trkpt lat="44.24745" lon="5.38265">
        <ele>874</ele>
        <time>2026-05-13T13:15:32.000Z</time>
      </trkpt>
      <trkpt lat="44.24752" lon="5.38263">
        <ele>873</ele>
        <time>2026-05-13T13:15:33.000Z</time>
      </trkpt>
      <trkpt lat="44.24761" lon="5.38262">
        <ele>873</ele>
        <time>2026-05-13T13:15:34.000Z</time>
      </trkpt>
      <trkpt lat="44.24768" lon="5.38259">
        <ele>872</ele>
        <time>2026-05-13T13:15:35.000Z</time>
      </trkpt>
      <trkpt lat="44.24776" lon="5.38256">
        <ele>872</ele>
        <time>2026-05-13T13:15:36.000Z</time>
      </trkpt>
      <trkpt lat="44.24784" lon="5.38255">
        <ele>871</ele>
        <time>2026-05-13T13:15:37.000Z</time>
      </trkpt>
      <trkpt lat="44.24794" lon="5.38255">
        <ele>870</ele>
        <time>2026-05-13T13:15:38.000Z</time>
      </trkpt>
      <trkpt lat="44.24804" lon="5.38258">
        <ele>867</ele>
        <time>2026-05-13T13:15:39.000Z</time>
      </trkpt>
      <trkpt lat="44.24813" lon="5.38263">
        <ele>864</ele>
        <time>2026-05-13T13:15:40.000Z</time>
      </trkpt>
      <trkpt lat="44.24821" lon="5.3827">
        <ele>859</ele>
        <time>2026-05-13T13:15:41.000Z</time>
      </trkpt>
      <trkpt lat="44.24827" lon="5.3828">
        <ele>857</ele>
        <time>2026-05-13T13:15:42.000Z</time>
      </trkpt>
      <trkpt lat="44.24834" lon="5.38288">
        <ele>857</ele>
        <time>2026-05-13T13:15:43.000Z</time>
      </trkpt>
      <trkpt lat="44.2484" lon="5.38292">
        <ele>859</ele>
        <time>2026-05-13T13:15:44.000Z</time>
      </trkpt>
      <trkpt lat="44.24846" lon="5.38292">
        <ele>860</ele>
        <time>2026-05-13T13:15:45.000Z</time>
      </trkpt>
      <trkpt lat="44.24849" lon="5.38288">
        <ele>860</ele>
        <time>2026-05-13T13:15:46.000Z</time>
      </trkpt>
      <trkpt lat="44.24853" lon="5.38283">
        <ele>860</ele>
        <time>2026-05-13T13:15:47.000Z</time>
      </trkpt>
      <trkpt lat="44.24857" lon="5.38278">
        <ele>860</ele>
        <time>2026-05-13T13:15:48.000Z</time>
      </trkpt>
      <trkpt lat="44.24861" lon="5.38275">
        <ele>861</ele>
        <time>2026-05-13T13:15:49.000Z</time>
      </trkpt>
      <trkpt lat="44.24864" lon="5.38271">
        <ele>861</ele>
        <time>2026-05-13T13:15:50.000Z</time>
      </trkpt>
      <trkpt lat="44.24867" lon="5.38269">
        <ele>861</ele>
        <time>2026-05-13T13:15:51.000Z</time>
      </trkpt>
      <trkpt lat="44.24869" lon="5.38267">
        <ele>861</ele>
        <time>2026-05-13T13:15:52.000Z</time>
      </trkpt>
      <trkpt lat="44.24872" lon="5.38265">
        <ele>862</ele>
        <time>2026-05-13T13:15:53.000Z</time>
      </trkpt>
      <trkpt lat="44.24874" lon="5.38264">
        <ele>862</ele>
        <time>2026-05-13T13:15:54.000Z</time>
      </trkpt>
      <trkpt lat="44.24876" lon="5.38262">
        <ele>863</ele>
        <time>2026-05-13T13:15:55.000Z</time>
      </trkpt>
      <trkpt lat="44.2488" lon="5.38261">
        <ele>863</ele>
        <time>2026-05-13T13:15:56.000Z</time>
      </trkpt>
      <trkpt lat="44.24883" lon="5.3826">
        <ele>863</ele>
        <time>2026-05-13T13:15:57.000Z</time>
      </trkpt>
      <trkpt lat="44.24886" lon="5.3826">
        <ele>864</ele>
        <time>2026-05-13T13:15:58.000Z</time>
      </trkpt>
      <trkpt lat="44.24888" lon="5.3826">
        <ele>865</ele>
        <time>2026-05-13T13:15:59.000Z</time>
      </trkpt>
      <trkpt lat="44.2489" lon="5.38258">
        <ele>865</ele>
        <time>2026-05-13T13:16:00.000Z</time>
      </trkpt>
      <trkpt lat="44.24892" lon="5.38258">
        <ele>865</ele>
        <time>2026-05-13T13:16:01.000Z</time>
      </trkpt>
      <trkpt lat="44.24895" lon="5.38257">
        <ele>866</ele>
        <time>2026-05-13T13:16:02.000Z</time>
      </trkpt>
      <trkpt lat="44.24897" lon="5.38255">
        <ele>867</ele>
        <time>2026-05-13T13:16:03.000Z</time>
      </trkpt>
      <trkpt lat="44.249" lon="5.38255">
        <ele>867</ele>
        <time>2026-05-13T13:16:04.000Z</time>
      </trkpt>
      <trkpt lat="44.24902" lon="5.38253">
        <ele>867</ele>
        <time>2026-05-13T13:16:05.000Z</time>
      </trkpt>
      <trkpt lat="44.24905" lon="5.38252">
        <ele>867</ele>
        <time>2026-05-13T13:16:06.000Z</time>
      </trkpt>
      <trkpt lat="44.24907" lon="5.38251">
        <ele>868</ele>
        <time>2026-05-13T13:16:07.000Z</time>
      </trkpt>
      <trkpt lat="44.2491" lon="5.38249">
        <ele>868</ele>
        <time>2026-05-13T13:16:08.000Z</time>
      </trkpt>
      <trkpt lat="44.24913" lon="5.38248">
        <ele>868</ele>
        <time>2026-05-13T13:16:09.000Z</time>
      </trkpt>
      <trkpt lat="44.24916" lon="5.38246">
        <ele>869</ele>
        <time>2026-05-13T13:16:10.000Z</time>
      </trkpt>
      <trkpt lat="44.24919" lon="5.38245">
        <ele>869</ele>
        <time>2026-05-13T13:16:11.000Z</time>
      </trkpt>
      <trkpt lat="44.24921" lon="5.38244">
        <ele>869</ele>
        <time>2026-05-13T13:16:12.000Z</time>
      </trkpt>
      <trkpt lat="44.24924" lon="5.38243">
        <ele>870</ele>
        <time>2026-05-13T13:16:13.000Z</time>
      </trkpt>
      <trkpt lat="44.24927" lon="5.38243">
        <ele>870</ele>
        <time>2026-05-13T13:16:14.000Z</time>
      </trkpt>
      <trkpt lat="44.24929" lon="5.38241">
        <ele>870</ele>
        <time>2026-05-13T13:16:15.000Z</time>
      </trkpt>
      <trkpt lat="44.24931" lon="5.38239">
        <ele>870</ele>
        <time>2026-05-13T13:16:16.000Z</time>
      </trkpt>
      <trkpt lat="44.24934" lon="5.38237">
        <ele>870</ele>
        <time>2026-05-13T13:16:17.000Z</time>
      </trkpt>
      <trkpt lat="44.24936" lon="5.38236">
        <ele>870</ele>
        <time>2026-05-13T13:16:18.000Z</time>
      </trkpt>
      <trkpt lat="44.24939" lon="5.38235">
        <ele>870</ele>
        <time>2026-05-13T13:16:19.000Z</time>
      </trkpt>
      <trkpt lat="44.24941" lon="5.38234">
        <ele>870</ele>
        <time>2026-05-13T13:16:20.000Z</time>
      </trkpt>
      <trkpt lat="44.24944" lon="5.38233">
        <ele>870</ele>
        <time>2026-05-13T13:16:21.000Z</time>
      </trkpt>
      <trkpt lat="44.24946" lon="5.38231">
        <ele>869</ele>
        <time>2026-05-13T13:16:22.000Z</time>
      </trkpt>
      <trkpt lat="44.24949" lon="5.38229">
        <ele>869</ele>
        <time>2026-05-13T13:16:23.000Z</time>
      </trkpt>
      <trkpt lat="44.24951" lon="5.38226">
        <ele>870</ele>
        <time>2026-05-13T13:16:24.000Z</time>
      </trkpt>
      <trkpt lat="44.24953" lon="5.38224">
        <ele>869</ele>
        <time>2026-05-13T13:16:25.000Z</time>
      </trkpt>
      <trkpt lat="44.24955" lon="5.38224">
        <ele>869</ele>
        <time>2026-05-13T13:16:26.000Z</time>
      </trkpt>
      <trkpt lat="44.24957" lon="5.38223">
        <ele>869</ele>
        <time>2026-05-13T13:16:27.000Z</time>
      </trkpt>
      <trkpt lat="44.24959" lon="5.38221">
        <ele>870</ele>
        <time>2026-05-13T13:16:28.000Z</time>
      </trkpt>
      <trkpt lat="44.24962" lon="5.38218">
        <ele>870</ele>
        <time>2026-05-13T13:16:29.000Z</time>
      </trkpt>
      <trkpt lat="44.24965" lon="5.38216">
        <ele>869</ele>
        <time>2026-05-13T13:16:30.000Z</time>
      </trkpt>
      <trkpt lat="44.24967" lon="5.38215">
        <ele>869</ele>
        <time>2026-05-13T13:16:31.000Z</time>
      </trkpt>
      <trkpt lat="44.2497" lon="5.38213">
        <ele>869</ele>
        <time>2026-05-13T13:16:32.000Z</time>
      </trkpt>
      <trkpt lat="44.24972" lon="5.38212">
        <ele>869</ele>
        <time>2026-05-13T13:16:33.000Z</time>
      </trkpt>
      <trkpt lat="44.24975" lon="5.3821">
        <ele>868</ele>
        <time>2026-05-13T13:16:34.000Z</time>
      </trkpt>
      <trkpt lat="44.24978" lon="5.38207">
        <ele>868</ele>
        <time>2026-05-13T13:16:35.000Z</time>
      </trkpt>
      <trkpt lat="44.24982" lon="5.38203">
        <ele>868</ele>
        <time>2026-05-13T13:16:36.000Z</time>
      </trkpt>
      <trkpt lat="44.24986" lon="5.382">
        <ele>867</ele>
        <time>2026-05-13T13:16:37.000Z</time>
      </trkpt>
      <trkpt lat="44.2499" lon="5.38196">
        <ele>867</ele>
        <time>2026-05-13T13:16:38.000Z</time>
      </trkpt>
      <trkpt lat="44.24994" lon="5.38191">
        <ele>867</ele>
        <time>2026-05-13T13:16:39.000Z</time>
      </trkpt>
      <trkpt lat="44.24998" lon="5.38187">
        <ele>867</ele>
        <time>2026-05-13T13:16:40.000Z</time>
      </trkpt>
      <trkpt lat="44.25002" lon="5.38182">
        <ele>867</ele>
        <time>2026-05-13T13:16:41.000Z</time>
      </trkpt>
      <trkpt lat="44.25006" lon="5.38178">
        <ele>867</ele>
        <time>2026-05-13T13:16:42.000Z</time>
      </trkpt>
      <trkpt lat="44.2501" lon="5.38175">
        <ele>867</ele>
        <time>2026-05-13T13:16:43.000Z</time>
      </trkpt>
      <trkpt lat="44.25014" lon="5.38173">
        <ele>867</ele>
        <time>2026-05-13T13:16:44.000Z</time>
      </trkpt>
      <trkpt lat="44.25018" lon="5.38171">
        <ele>867</ele>
        <time>2026-05-13T13:16:45.000Z</time>
      </trkpt>
      <trkpt lat="44.25022" lon="5.38168">
        <ele>868</ele>
        <time>2026-05-13T13:16:46.000Z</time>
      </trkpt>
      <trkpt lat="44.25026" lon="5.38165">
        <ele>868</ele>
        <time>2026-05-13T13:16:47.000Z</time>
      </trkpt>
      <trkpt lat="44.2503" lon="5.38162">
        <ele>868</ele>
        <time>2026-05-13T13:16:48.000Z</time>
      </trkpt>
      <trkpt lat="44.25033" lon="5.3816">
        <ele>868</ele>
        <time>2026-05-13T13:16:49.000Z</time>
      </trkpt>
      <trkpt lat="44.25036" lon="5.38158">
        <ele>868</ele>
        <time>2026-05-13T13:16:50.000Z</time>
      </trkpt>
      <trkpt lat="44.25039" lon="5.38155">
        <ele>868</ele>
        <time>2026-05-13T13:16:51.000Z</time>
      </trkpt>
      <trkpt lat="44.25042" lon="5.38153">
        <ele>868</ele>
        <time>2026-05-13T13:16:52.000Z</time>
      </trkpt>
      <trkpt lat="44.25045" lon="5.38151">
        <ele>868</ele>
        <time>2026-05-13T13:16:53.000Z</time>
      </trkpt>
      <trkpt lat="44.25048" lon="5.38149">
        <ele>868</ele>
        <time>2026-05-13T13:16:54.000Z</time>
      </trkpt>
      <trkpt lat="44.25051" lon="5.38146">
        <ele>869</ele>
        <time>2026-05-13T13:16:55.000Z</time>
      </trkpt>
      <trkpt lat="44.25054" lon="5.38143">
        <ele>869</ele>
        <time>2026-05-13T13:16:56.000Z</time>
      </trkpt>
      <trkpt lat="44.25057" lon="5.3814">
        <ele>869</ele>
        <time>2026-05-13T13:16:57.000Z</time>
      </trkpt>
      <trkpt lat="44.2506" lon="5.38138">
        <ele>869</ele>
        <time>2026-05-13T13:16:58.000Z</time>
      </trkpt>
      <trkpt lat="44.25062" lon="5.38136">
        <ele>869</ele>
        <time>2026-05-13T13:16:59.000Z</time>
      </trkpt>
      <trkpt lat="44.25065" lon="5.38134">
        <ele>870</ele>
        <time>2026-05-13T13:17:00.000Z</time>
      </trkpt>
      <trkpt lat="44.25068" lon="5.38132">
        <ele>870</ele>
        <time>2026-05-13T13:17:01.000Z</time>
      </trkpt>
      <trkpt lat="44.2507" lon="5.38131">
        <ele>870</ele>
        <time>2026-05-13T13:17:02.000Z</time>
      </trkpt>
      <trkpt lat="44.25072" lon="5.38129">
        <ele>870</ele>
        <time>2026-05-13T13:17:03.000Z</time>
      </trkpt>
      <trkpt lat="44.25074" lon="5.38126">
        <ele>870</ele>
        <time>2026-05-13T13:17:04.000Z</time>
      </trkpt>
      <trkpt lat="44.25076" lon="5.38125">
        <ele>870</ele>
        <time>2026-05-13T13:17:05.000Z</time>
      </trkpt>
      <trkpt lat="44.25079" lon="5.38123">
        <ele>870</ele>
        <time>2026-05-13T13:17:06.000Z</time>
      </trkpt>
      <trkpt lat="44.25081" lon="5.38122">
        <ele>870</ele>
        <time>2026-05-13T13:17:07.000Z</time>
      </trkpt>
      <trkpt lat="44.25083" lon="5.3812">
        <ele>870</ele>
        <time>2026-05-13T13:17:08.000Z</time>
      </trkpt>
      <trkpt lat="44.25084" lon="5.38118">
        <ele>871</ele>
        <time>2026-05-13T13:17:09.000Z</time>
      </trkpt>
      <trkpt lat="44.25086" lon="5.38116">
        <ele>871</ele>
        <time>2026-05-13T13:17:10.000Z</time>
      </trkpt>
      <trkpt lat="44.25087" lon="5.38114">
        <ele>870</ele>
        <time>2026-05-13T13:17:11.000Z</time>
      </trkpt>
      <trkpt lat="44.25088" lon="5.38112">
        <ele>870</ele>
        <time>2026-05-13T13:17:12.000Z</time>
      </trkpt>
      <trkpt lat="44.2509" lon="5.38111">
        <ele>870</ele>
        <time>2026-05-13T13:17:13.000Z</time>
      </trkpt>
      <trkpt lat="44.25092" lon="5.3811">
        <ele>870</ele>
        <time>2026-05-13T13:17:14.000Z</time>
      </trkpt>
      <trkpt lat="44.25094" lon="5.38109">
        <ele>870</ele>
        <time>2026-05-13T13:17:15.000Z</time>
      </trkpt>
      <trkpt lat="44.25096" lon="5.38108">
        <ele>870</ele>
        <time>2026-05-13T13:17:16.000Z</time>
      </trkpt>
      <trkpt lat="44.25097" lon="5.38107">
        <ele>870</ele>
        <time>2026-05-13T13:17:17.000Z</time>
      </trkpt>
      <trkpt lat="44.251" lon="5.38107">
        <ele>870</ele>
        <time>2026-05-13T13:17:18.000Z</time>
      </trkpt>
      <trkpt lat="44.25101" lon="5.38106">
        <ele>870</ele>
        <time>2026-05-13T13:17:19.000Z</time>
      </trkpt>
      <trkpt lat="44.25103" lon="5.38104">
        <ele>870</ele>
        <time>2026-05-13T13:17:20.000Z</time>
      </trkpt>
      <trkpt lat="44.25105" lon="5.38103">
        <ele>870</ele>
        <time>2026-05-13T13:17:21.000Z</time>
      </trkpt>
      <trkpt lat="44.25107" lon="5.38102">
        <ele>870</ele>
        <time>2026-05-13T13:17:22.000Z</time>
      </trkpt>
      <trkpt lat="44.25108" lon="5.38101">
        <ele>869</ele>
        <time>2026-05-13T13:17:23.000Z</time>
      </trkpt>
      <trkpt lat="44.2511" lon="5.38099">
        <ele>869</ele>
        <time>2026-05-13T13:17:24.000Z</time>
      </trkpt>
      <trkpt lat="44.25111" lon="5.38098">
        <ele>869</ele>
        <time>2026-05-13T13:17:25.000Z</time>
      </trkpt>
      <trkpt lat="44.25112" lon="5.38098">
        <ele>869</ele>
        <time>2026-05-13T13:17:26.000Z</time>
      </trkpt>
      <trkpt lat="44.25114" lon="5.38097">
        <ele>869</ele>
        <time>2026-05-13T13:17:27.000Z</time>
      </trkpt>
      <trkpt lat="44.25117" lon="5.38095">
        <ele>869</ele>
        <time>2026-05-13T13:17:28.000Z</time>
      </trkpt>
      <trkpt lat="44.25119" lon="5.38092">
        <ele>869</ele>
        <time>2026-05-13T13:17:29.000Z</time>
      </trkpt>
      <trkpt lat="44.25121" lon="5.38089">
        <ele>869</ele>
        <time>2026-05-13T13:17:30.000Z</time>
      </trkpt>
      <trkpt lat="44.25124" lon="5.38086">
        <ele>869</ele>
        <time>2026-05-13T13:17:31.000Z</time>
      </trkpt>
      <trkpt lat="44.25125" lon="5.38084">
        <ele>869</ele>
        <time>2026-05-13T13:17:32.000Z</time>
      </trkpt>
      <trkpt lat="44.25126" lon="5.38082">
        <ele>869</ele>
        <time>2026-05-13T13:17:33.000Z</time>
      </trkpt>
      <trkpt lat="44.25128" lon="5.38081">
        <ele>868</ele>
        <time>2026-05-13T13:17:34.000Z</time>
      </trkpt>
      <trkpt lat="44.25129" lon="5.3808">
        <ele>868</ele>
        <time>2026-05-13T13:17:35.000Z</time>
      </trkpt>
      <trkpt lat="44.25131" lon="5.38078">
        <ele>867</ele>
        <time>2026-05-13T13:17:36.000Z</time>
      </trkpt>
      <trkpt lat="44.25132" lon="5.38075">
        <ele>867</ele>
        <time>2026-05-13T13:17:37.000Z</time>
      </trkpt>
      <trkpt lat="44.25134" lon="5.38072">
        <ele>867</ele>
        <time>2026-05-13T13:17:38.000Z</time>
      </trkpt>
      <trkpt lat="44.25136" lon="5.3807">
        <ele>867</ele>
        <time>2026-05-13T13:17:39.000Z</time>
      </trkpt>
      <trkpt lat="44.25139" lon="5.38068">
        <ele>867</ele>
        <time>2026-05-13T13:17:40.000Z</time>
      </trkpt>
      <trkpt lat="44.25141" lon="5.38066">
        <ele>866</ele>
        <time>2026-05-13T13:17:41.000Z</time>
      </trkpt>
      <trkpt lat="44.25145" lon="5.38064">
        <ele>866</ele>
        <time>2026-05-13T13:17:42.000Z</time>
      </trkpt>
      <trkpt lat="44.25148" lon="5.38063">
        <ele>866</ele>
        <time>2026-05-13T13:17:43.000Z</time>
      </trkpt>
      <trkpt lat="44.25151" lon="5.38062">
        <ele>866</ele>
        <time>2026-05-13T13:17:44.000Z</time>
      </trkpt>
      <trkpt lat="44.25154" lon="5.38062">
        <ele>867</ele>
        <time>2026-05-13T13:17:45.000Z</time>
      </trkpt>
      <trkpt lat="44.25157" lon="5.38063">
        <ele>867</ele>
        <time>2026-05-13T13:17:46.000Z</time>
      </trkpt>
      <trkpt lat="44.2516" lon="5.38066">
        <ele>866</ele>
        <time>2026-05-13T13:17:47.000Z</time>
      </trkpt>
      <trkpt lat="44.25164" lon="5.3807">
        <ele>865</ele>
        <time>2026-05-13T13:17:48.000Z</time>
      </trkpt>
      <trkpt lat="44.25168" lon="5.38077">
        <ele>866</ele>
        <time>2026-05-13T13:17:49.000Z</time>
      </trkpt>
      <trkpt lat="44.2517" lon="5.38082">
        <ele>865</ele>
        <time>2026-05-13T13:17:50.000Z</time>
      </trkpt>
      <trkpt lat="44.25175" lon="5.38087">
        <ele>864</ele>
        <time>2026-05-13T13:17:51.000Z</time>
      </trkpt>
      <trkpt lat="44.25178" lon="5.38093">
        <ele>863</ele>
        <time>2026-05-13T13:17:52.000Z</time>
      </trkpt>
      <trkpt lat="44.2518" lon="5.38099">
        <ele>861</ele>
        <time>2026-05-13T13:17:53.000Z</time>
      </trkpt>
      <trkpt lat="44.25184" lon="5.38105">
        <ele>860</ele>
        <time>2026-05-13T13:17:54.000Z</time>
      </trkpt>
      <trkpt lat="44.25189" lon="5.38113">
        <ele>859</ele>
        <time>2026-05-13T13:17:55.000Z</time>
      </trkpt>
      <trkpt lat="44.25194" lon="5.38121">
        <ele>858</ele>
        <time>2026-05-13T13:17:56.000Z</time>
      </trkpt>
      <trkpt lat="44.25199" lon="5.3813">
        <ele>857</ele>
        <time>2026-05-13T13:17:57.000Z</time>
      </trkpt>
      <trkpt lat="44.25203" lon="5.3814">
        <ele>855</ele>
        <time>2026-05-13T13:17:58.000Z</time>
      </trkpt>
      <trkpt lat="44.25206" lon="5.3815">
        <ele>854</ele>
        <time>2026-05-13T13:17:59.000Z</time>
      </trkpt>
      <trkpt lat="44.25207" lon="5.38162">
        <ele>853</ele>
        <time>2026-05-13T13:18:00.000Z</time>
      </trkpt>
      <trkpt lat="44.25208" lon="5.38174">
        <ele>853</ele>
        <time>2026-05-13T13:18:01.000Z</time>
      </trkpt>
      <trkpt lat="44.25209" lon="5.38188">
        <ele>853</ele>
        <time>2026-05-13T13:18:02.000Z</time>
      </trkpt>
      <trkpt lat="44.25209" lon="5.382">
        <ele>853</ele>
        <time>2026-05-13T13:18:03.000Z</time>
      </trkpt>
      <trkpt lat="44.25208" lon="5.3821">
        <ele>853</ele>
        <time>2026-05-13T13:18:04.000Z</time>
      </trkpt>
      <trkpt lat="44.25207" lon="5.38217">
        <ele>853</ele>
        <time>2026-05-13T13:18:05.000Z</time>
      </trkpt>
      <trkpt lat="44.25208" lon="5.38224">
        <ele>853</ele>
        <time>2026-05-13T13:18:06.000Z</time>
      </trkpt>
      <trkpt lat="44.2521" lon="5.38231">
        <ele>854</ele>
        <time>2026-05-13T13:18:07.000Z</time>
      </trkpt>
      <trkpt lat="44.25214" lon="5.38237">
        <ele>854</ele>
        <time>2026-05-13T13:18:08.000Z</time>
      </trkpt>
      <trkpt lat="44.25217" lon="5.38239">
        <ele>854</ele>
        <time>2026-05-13T13:18:09.000Z</time>
      </trkpt>
      <trkpt lat="44.25221" lon="5.38239">
        <ele>854</ele>
        <time>2026-05-13T13:18:10.000Z</time>
      </trkpt>
      <trkpt lat="44.25224" lon="5.3824">
        <ele>853</ele>
        <time>2026-05-13T13:18:11.000Z</time>
      </trkpt>
      <trkpt lat="44.25228" lon="5.3824">
        <ele>853</ele>
        <time>2026-05-13T13:18:12.000Z</time>
      </trkpt>
      <trkpt lat="44.25232" lon="5.38239">
        <ele>852</ele>
        <time>2026-05-13T13:18:13.000Z</time>
      </trkpt>
      <trkpt lat="44.25236" lon="5.38236">
        <ele>852</ele>
        <time>2026-05-13T13:18:14.000Z</time>
      </trkpt>
      <trkpt lat="44.2524" lon="5.38232">
        <ele>852</ele>
        <time>2026-05-13T13:18:15.000Z</time>
      </trkpt>
      <trkpt lat="44.25244" lon="5.38229">
        <ele>852</ele>
        <time>2026-05-13T13:18:16.000Z</time>
      </trkpt>
      <trkpt lat="44.25246" lon="5.38224">
        <ele>851</ele>
        <time>2026-05-13T13:18:17.000Z</time>
      </trkpt>
      <trkpt lat="44.25248" lon="5.38219">
        <ele>851</ele>
        <time>2026-05-13T13:18:18.000Z</time>
      </trkpt>
      <trkpt lat="44.25251" lon="5.38215">
        <ele>851</ele>
        <time>2026-05-13T13:18:19.000Z</time>
      </trkpt>
      <trkpt lat="44.25254" lon="5.38212">
        <ele>851</ele>
        <time>2026-05-13T13:18:20.000Z</time>
      </trkpt>
      <trkpt lat="44.25256" lon="5.38209">
        <ele>851</ele>
        <time>2026-05-13T13:18:21.000Z</time>
      </trkpt>
      <trkpt lat="44.25259" lon="5.38205">
        <ele>851</ele>
        <time>2026-05-13T13:18:22.000Z</time>
      </trkpt>
      <trkpt lat="44.25262" lon="5.38202">
        <ele>852</ele>
        <time>2026-05-13T13:18:23.000Z</time>
      </trkpt>
      <trkpt lat="44.25265" lon="5.38198">
        <ele>852</ele>
        <time>2026-05-13T13:18:24.000Z</time>
      </trkpt>
      <trkpt lat="44.25267" lon="5.38195">
        <ele>853</ele>
        <time>2026-05-13T13:18:25.000Z</time>
      </trkpt>
      <trkpt lat="44.25269" lon="5.38193">
        <ele>853</ele>
        <time>2026-05-13T13:18:26.000Z</time>
      </trkpt>
      <trkpt lat="44.25271" lon="5.38191">
        <ele>853</ele>
        <time>2026-05-13T13:18:27.000Z</time>
      </trkpt>
      <trkpt lat="44.25274" lon="5.38189">
        <ele>853</ele>
        <time>2026-05-13T13:18:28.000Z</time>
      </trkpt>
      <trkpt lat="44.25276" lon="5.38187">
        <ele>853</ele>
        <time>2026-05-13T13:18:29.000Z</time>
      </trkpt>
      <trkpt lat="44.25277" lon="5.38186">
        <ele>854</ele>
        <time>2026-05-13T13:18:30.000Z</time>
      </trkpt>
      <trkpt lat="44.25279" lon="5.38184">
        <ele>854</ele>
        <time>2026-05-13T13:18:31.000Z</time>
      </trkpt>
      <trkpt lat="44.25281" lon="5.38183">
        <ele>854</ele>
        <time>2026-05-13T13:18:32.000Z</time>
      </trkpt>
      <trkpt lat="44.25283" lon="5.38181">
        <ele>854</ele>
        <time>2026-05-13T13:18:33.000Z</time>
      </trkpt>
      <trkpt lat="44.25284" lon="5.3818">
        <ele>853</ele>
        <time>2026-05-13T13:18:34.000Z</time>
      </trkpt>
      <trkpt lat="44.25285" lon="5.3818">
        <ele>853</ele>
        <time>2026-05-13T13:18:35.000Z</time>
      </trkpt>
      <trkpt lat="44.25286" lon="5.38181">
        <ele>854</ele>
        <time>2026-05-13T13:18:36.000Z</time>
      </trkpt>
      <trkpt lat="44.25288" lon="5.38182">
        <ele>854</ele>
        <time>2026-05-13T13:18:37.000Z</time>
      </trkpt>
      <trkpt lat="44.25288" lon="5.38184">
        <ele>854</ele>
        <time>2026-05-13T13:18:38.000Z</time>
      </trkpt>
      <trkpt lat="44.25289" lon="5.38187">
        <ele>854</ele>
        <time>2026-05-13T13:18:39.000Z</time>
      </trkpt>
      <trkpt lat="44.25288" lon="5.3819">
        <ele>854</ele>
        <time>2026-05-13T13:18:40.000Z</time>
      </trkpt>
      <trkpt lat="44.25288" lon="5.38192">
        <ele>854</ele>
        <time>2026-05-13T13:18:41.000Z</time>
      </trkpt>
      <trkpt lat="44.25287" lon="5.38196">
        <ele>855</ele>
        <time>2026-05-13T13:18:42.000Z</time>
      </trkpt>
      <trkpt lat="44.25287" lon="5.382">
        <ele>854</ele>
        <time>2026-05-13T13:18:43.000Z</time>
      </trkpt>
      <trkpt lat="44.25286" lon="5.38203">
        <ele>854</ele>
        <time>2026-05-13T13:18:44.000Z</time>
      </trkpt>
      <trkpt lat="44.25285" lon="5.38206">
        <ele>855</ele>
        <time>2026-05-13T13:18:45.000Z</time>
      </trkpt>
      <trkpt lat="44.25285" lon="5.38209">
        <ele>855</ele>
        <time>2026-05-13T13:18:46.000Z</time>
      </trkpt>
      <trkpt lat="44.25285" lon="5.38212">
        <ele>856</ele>
        <time>2026-05-13T13:18:47.000Z</time>
      </trkpt>
      <trkpt lat="44.25285" lon="5.38214">
        <ele>856</ele>
        <time>2026-05-13T13:18:48.000Z</time>
      </trkpt>
      <trkpt lat="44.25284" lon="5.38217">
        <ele>856</ele>
        <time>2026-05-13T13:18:49.000Z</time>
      </trkpt>
      <trkpt lat="44.25284" lon="5.38221">
        <ele>856</ele>
        <time>2026-05-13T13:18:50.000Z</time>
      </trkpt>
      <trkpt lat="44.25284" lon="5.38224">
        <ele>856</ele>
        <time>2026-05-13T13:18:51.000Z</time>
      </trkpt>
      <trkpt lat="44.25284" lon="5.38226">
        <ele>857</ele>
        <time>2026-05-13T13:18:52.000Z</time>
      </trkpt>
      <trkpt lat="44.25283" lon="5.38229">
        <ele>858</ele>
        <time>2026-05-13T13:18:53.000Z</time>
      </trkpt>
      <trkpt lat="44.25283" lon="5.38231">
        <ele>858</ele>
        <time>2026-05-13T13:18:54.000Z</time>
      </trkpt>
      <trkpt lat="44.25283" lon="5.38234">
        <ele>858</ele>
        <time>2026-05-13T13:18:55.000Z</time>
      </trkpt>
      <trkpt lat="44.25282" lon="5.38236">
        <ele>858</ele>
        <time>2026-05-13T13:18:56.000Z</time>
      </trkpt>
      <trkpt lat="44.25281" lon="5.38239">
        <ele>858</ele>
        <time>2026-05-13T13:18:57.000Z</time>
      </trkpt>
      <trkpt lat="44.25281" lon="5.38242">
        <ele>858</ele>
        <time>2026-05-13T13:18:58.000Z</time>
      </trkpt>
      <trkpt lat="44.25281" lon="5.38244">
        <ele>858</ele>
        <time>2026-05-13T13:18:59.000Z</time>
      </trkpt>
      <trkpt lat="44.2528" lon="5.38247">
        <ele>858</ele>
        <time>2026-05-13T13:19:00.000Z</time>
      </trkpt>
      <trkpt lat="44.2528" lon="5.3825">
        <ele>858</ele>
        <time>2026-05-13T13:19:01.000Z</time>
      </trkpt>
      <trkpt lat="44.2528" lon="5.38253">
        <ele>859</ele>
        <time>2026-05-13T13:19:02.000Z</time>
      </trkpt>
      <trkpt lat="44.25279" lon="5.38255">
        <ele>858</ele>
        <time>2026-05-13T13:19:03.000Z</time>
      </trkpt>
      <trkpt lat="44.25278" lon="5.38258">
        <ele>859</ele>
        <time>2026-05-13T13:19:04.000Z</time>
      </trkpt>
      <trkpt lat="44.25278" lon="5.3826">
        <ele>859</ele>
        <time>2026-05-13T13:19:05.000Z</time>
      </trkpt>
      <trkpt lat="44.25277" lon="5.38263">
        <ele>860</ele>
        <time>2026-05-13T13:19:06.000Z</time>
      </trkpt>
      <trkpt lat="44.25277" lon="5.38265">
        <ele>860</ele>
        <time>2026-05-13T13:19:07.000Z</time>
      </trkpt>
      <trkpt lat="44.25277" lon="5.38268">
        <ele>860</ele>
        <time>2026-05-13T13:19:08.000Z</time>
      </trkpt>
      <trkpt lat="44.25276" lon="5.38271">
        <ele>860</ele>
        <time>2026-05-13T13:19:09.000Z</time>
      </trkpt>
      <trkpt lat="44.25276" lon="5.38273">
        <ele>860</ele>
        <time>2026-05-13T13:19:10.000Z</time>
      </trkpt>
      <trkpt lat="44.25275" lon="5.38275">
        <ele>860</ele>
        <time>2026-05-13T13:19:11.000Z</time>
      </trkpt>
      <trkpt lat="44.25274" lon="5.38278">
        <ele>860</ele>
        <time>2026-05-13T13:19:12.000Z</time>
      </trkpt>
      <trkpt lat="44.25274" lon="5.38279">
        <ele>860</ele>
        <time>2026-05-13T13:19:13.000Z</time>
      </trkpt>
      <trkpt lat="44.25273" lon="5.38281">
        <ele>860</ele>
        <time>2026-05-13T13:19:14.000Z</time>
      </trkpt>
      <trkpt lat="44.25272" lon="5.38283">
        <ele>860</ele>
        <time>2026-05-13T13:19:15.000Z</time>
      </trkpt>
      <trkpt lat="44.25272" lon="5.38285">
        <ele>860</ele>
        <time>2026-05-13T13:19:16.000Z</time>
      </trkpt>
      <trkpt lat="44.25271" lon="5.38287">
        <ele>860</ele>
        <time>2026-05-13T13:19:17.000Z</time>
      </trkpt>
      <trkpt lat="44.25271" lon="5.3829">
        <ele>860</ele>
        <time>2026-05-13T13:19:18.000Z</time>
      </trkpt>
      <trkpt lat="44.2527" lon="5.38292">
        <ele>861</ele>
        <time>2026-05-13T13:19:19.000Z</time>
      </trkpt>
      <trkpt lat="44.25269" lon="5.38294">
        <ele>861</ele>
        <time>2026-05-13T13:19:20.000Z</time>
      </trkpt>
      <trkpt lat="44.25268" lon="5.38296">
        <ele>861</ele>
        <time>2026-05-13T13:19:21.000Z</time>
      </trkpt>
      <trkpt lat="44.25268" lon="5.38299">
        <ele>861</ele>
        <time>2026-05-13T13:19:22.000Z</time>
      </trkpt>
      <trkpt lat="44.25267" lon="5.383">
        <ele>861</ele>
        <time>2026-05-13T13:19:23.000Z</time>
      </trkpt>
      <trkpt lat="44.25267" lon="5.38303">
        <ele>861</ele>
        <time>2026-05-13T13:19:24.000Z</time>
      </trkpt>
      <trkpt lat="44.25266" lon="5.38305">
        <ele>862</ele>
        <time>2026-05-13T13:19:25.000Z</time>
      </trkpt>
      <trkpt lat="44.25266" lon="5.38308">
        <ele>862</ele>
        <time>2026-05-13T13:19:26.000Z</time>
      </trkpt>
      <trkpt lat="44.25266" lon="5.3831">
        <ele>862</ele>
        <time>2026-05-13T13:19:27.000Z</time>
      </trkpt>
      <trkpt lat="44.25266" lon="5.38312">
        <ele>862</ele>
        <time>2026-05-13T13:19:28.000Z</time>
      </trkpt>
      <trkpt lat="44.25265" lon="5.38314">
        <ele>862</ele>
        <time>2026-05-13T13:19:29.000Z</time>
      </trkpt>
      <trkpt lat="44.25264" lon="5.38317">
        <ele>862</ele>
        <time>2026-05-13T13:19:30.000Z</time>
      </trkpt>
      <trkpt lat="44.25263" lon="5.38319">
        <ele>863</ele>
        <time>2026-05-13T13:19:31.000Z</time>
      </trkpt>
      <trkpt lat="44.25263" lon="5.38322">
        <ele>863</ele>
        <time>2026-05-13T13:19:32.000Z</time>
      </trkpt>
      <trkpt lat="44.25262" lon="5.38324">
        <ele>863</ele>
        <time>2026-05-13T13:19:33.000Z</time>
      </trkpt>
      <trkpt lat="44.25261" lon="5.38325">
        <ele>863</ele>
        <time>2026-05-13T13:19:34.000Z</time>
      </trkpt>
      <trkpt lat="44.25261" lon="5.38328">
        <ele>864</ele>
        <time>2026-05-13T13:19:35.000Z</time>
      </trkpt>
      <trkpt lat="44.2526" lon="5.3833">
        <ele>865</ele>
        <time>2026-05-13T13:19:36.000Z</time>
      </trkpt>
      <trkpt lat="44.25259" lon="5.38333">
        <ele>865</ele>
        <time>2026-05-13T13:19:37.000Z</time>
      </trkpt>
      <trkpt lat="44.25258" lon="5.38335">
        <ele>865</ele>
        <time>2026-05-13T13:19:38.000Z</time>
      </trkpt>
      <trkpt lat="44.25258" lon="5.38337">
        <ele>865</ele>
        <time>2026-05-13T13:19:39.000Z</time>
      </trkpt>
      <trkpt lat="44.25257" lon="5.3834">
        <ele>864</ele>
        <time>2026-05-13T13:19:40.000Z</time>
      </trkpt>
      <trkpt lat="44.25257" lon="5.38343">
        <ele>864</ele>
        <time>2026-05-13T13:19:41.000Z</time>
      </trkpt>
      <trkpt lat="44.25257" lon="5.38345">
        <ele>865</ele>
        <time>2026-05-13T13:19:42.000Z</time>
      </trkpt>
      <trkpt lat="44.25257" lon="5.38347">
        <ele>865</ele>
        <time>2026-05-13T13:19:43.000Z</time>
      </trkpt>
      <trkpt lat="44.25257" lon="5.38349">
        <ele>866</ele>
        <time>2026-05-13T13:19:44.000Z</time>
      </trkpt>
      <trkpt lat="44.25257" lon="5.38351">
        <ele>866</ele>
        <time>2026-05-13T13:19:45.000Z</time>
      </trkpt>
      <trkpt lat="44.25256" lon="5.38353">
        <ele>866</ele>
        <time>2026-05-13T13:19:46.000Z</time>
      </trkpt>
      <trkpt lat="44.25256" lon="5.38355">
        <ele>865</ele>
        <time>2026-05-13T13:19:47.000Z</time>
      </trkpt>
      <trkpt lat="44.25257" lon="5.38358">
        <ele>865</ele>
        <time>2026-05-13T13:19:48.000Z</time>
      </trkpt>
      <trkpt lat="44.25256" lon="5.38361">
        <ele>866</ele>
        <time>2026-05-13T13:19:49.000Z</time>
      </trkpt>
      <trkpt lat="44.25257" lon="5.38363">
        <ele>866</ele>
        <time>2026-05-13T13:19:50.000Z</time>
      </trkpt>
      <trkpt lat="44.25257" lon="5.38367">
        <ele>866</ele>
        <time>2026-05-13T13:19:51.000Z</time>
      </trkpt>
      <trkpt lat="44.25256" lon="5.38369">
        <ele>867</ele>
        <time>2026-05-13T13:19:52.000Z</time>
      </trkpt>
      <trkpt lat="44.25257" lon="5.38372">
        <ele>868</ele>
        <time>2026-05-13T13:19:53.000Z</time>
      </trkpt>
      <trkpt lat="44.25257" lon="5.38374">
        <ele>868</ele>
        <time>2026-05-13T13:19:54.000Z</time>
      </trkpt>
      <trkpt lat="44.25257" lon="5.38376">
        <ele>869</ele>
        <time>2026-05-13T13:19:55.000Z</time>
      </trkpt>
      <trkpt lat="44.25257" lon="5.38378">
        <ele>869</ele>
        <time>2026-05-13T13:19:56.000Z</time>
      </trkpt>
      <trkpt lat="44.25257" lon="5.38382">
        <ele>869</ele>
        <time>2026-05-13T13:19:57.000Z</time>
      </trkpt>
      <trkpt lat="44.25257" lon="5.38384">
        <ele>869</ele>
        <time>2026-05-13T13:19:58.000Z</time>
      </trkpt>
      <trkpt lat="44.25257" lon="5.38387">
        <ele>869</ele>
        <time>2026-05-13T13:19:59.000Z</time>
      </trkpt>
      <trkpt lat="44.25257" lon="5.3839">
        <ele>869</ele>
        <time>2026-05-13T13:20:00.000Z</time>
      </trkpt>
      <trkpt lat="44.25256" lon="5.38393">
        <ele>869</ele>
        <time>2026-05-13T13:20:01.000Z</time>
      </trkpt>
      <trkpt lat="44.25255" lon="5.38395">
        <ele>870</ele>
        <time>2026-05-13T13:20:02.000Z</time>
      </trkpt>
      <trkpt lat="44.25254" lon="5.38398">
        <ele>870</ele>
        <time>2026-05-13T13:20:03.000Z</time>
      </trkpt>
      <trkpt lat="44.25254" lon="5.38398">
        <ele>870</ele>
        <time>2026-05-13T13:20:04.000Z</time>
      </trkpt>
      <trkpt lat="44.25253" lon="5.38399">
        <ele>869</ele>
        <time>2026-05-13T13:20:05.000Z</time>
      </trkpt>
      <trkpt lat="44.25253" lon="5.38402">
        <ele>869</ele>
        <time>2026-05-13T13:20:06.000Z</time>
      </trkpt>
      <trkpt lat="44.25255" lon="5.384">
        <ele>869</ele>
        <time>2026-05-13T13:20:07.000Z</time>
      </trkpt>
      <trkpt lat="44.25256" lon="5.38398">
        <ele>869</ele>
        <time>2026-05-13T13:20:08.000Z</time>
      </trkpt>
      <trkpt lat="44.25257" lon="5.38396">
        <ele>868</ele>
        <time>2026-05-13T13:20:09.000Z</time>
      </trkpt>
      <trkpt lat="44.25258" lon="5.38393">
        <ele>869</ele>
        <time>2026-05-13T13:20:10.000Z</time>
      </trkpt>
      <trkpt lat="44.2526" lon="5.38391">
        <ele>868</ele>
        <time>2026-05-13T13:20:11.000Z</time>
      </trkpt>
      <trkpt lat="44.25262" lon="5.38391">
        <ele>868</ele>
        <time>2026-05-13T13:20:12.000Z</time>
      </trkpt>
      <trkpt lat="44.25263" lon="5.38393">
        <ele>868</ele>
        <time>2026-05-13T13:20:13.000Z</time>
      </trkpt>
      <trkpt lat="44.25265" lon="5.38394">
        <ele>868</ele>
        <time>2026-05-13T13:20:14.000Z</time>
      </trkpt>
      <trkpt lat="44.25267" lon="5.38394">
        <ele>868</ele>
        <time>2026-05-13T13:20:15.000Z</time>
      </trkpt>
      <trkpt lat="44.25268" lon="5.38394">
        <ele>868</ele>
        <time>2026-05-13T13:20:16.000Z</time>
      </trkpt>
      <trkpt lat="44.25269" lon="5.38395">
        <ele>868</ele>
        <time>2026-05-13T13:20:17.000Z</time>
      </trkpt>
      <trkpt lat="44.2527" lon="5.38395">
        <ele>868</ele>
        <time>2026-05-13T13:20:18.000Z</time>
      </trkpt>
      <trkpt lat="44.25272" lon="5.38396">
        <ele>868</ele>
        <time>2026-05-13T13:20:19.000Z</time>
      </trkpt>
      <trkpt lat="44.25273" lon="5.38396">
        <ele>868</ele>
        <time>2026-05-13T13:20:20.000Z</time>
      </trkpt>
      <trkpt lat="44.25275" lon="5.38396">
        <ele>868</ele>
        <time>2026-05-13T13:20:21.000Z</time>
      </trkpt>
      <trkpt lat="44.25277" lon="5.38396">
        <ele>868</ele>
        <time>2026-05-13T13:20:22.000Z</time>
      </trkpt>
      <trkpt lat="44.25278" lon="5.38396">
        <ele>868</ele>
        <time>2026-05-13T13:20:23.000Z</time>
      </trkpt>
      <trkpt lat="44.25279" lon="5.38397">
        <ele>869</ele>
        <time>2026-05-13T13:20:24.000Z</time>
      </trkpt>
      <trkpt lat="44.25279" lon="5.38397">
        <ele>869</ele>
        <time>2026-05-13T13:20:25.000Z</time>
      </trkpt>
      <trkpt lat="44.2528" lon="5.38398">
        <ele>869</ele>
        <time>2026-05-13T13:20:26.000Z</time>
      </trkpt>
      <trkpt lat="44.25282" lon="5.38399">
        <ele>869</ele>
        <time>2026-05-13T13:20:27.000Z</time>
      </trkpt>
      <trkpt lat="44.25283" lon="5.38399">
        <ele>870</ele>
        <time>2026-05-13T13:20:28.000Z</time>
      </trkpt>
      <trkpt lat="44.25284" lon="5.38399">
        <ele>870</ele>
        <time>2026-05-13T13:20:29.000Z</time>
      </trkpt>
      <trkpt lat="44.25284" lon="5.384">
        <ele>870</ele>
        <time>2026-05-13T13:20:30.000Z</time>
      </trkpt>
      <trkpt lat="44.25285" lon="5.384">
        <ele>870</ele>
        <time>2026-05-13T13:20:31.000Z</time>
      </trkpt>
      <trkpt lat="44.25286" lon="5.38402">
        <ele>870</ele>
        <time>2026-05-13T13:20:32.000Z</time>
      </trkpt>
      <trkpt lat="44.25287" lon="5.38403">
        <ele>870</ele>
        <time>2026-05-13T13:20:33.000Z</time>
      </trkpt>
      <trkpt lat="44.25288" lon="5.38404">
        <ele>871</ele>
        <time>2026-05-13T13:20:34.000Z</time>
      </trkpt>
      <trkpt lat="44.25289" lon="5.38404">
        <ele>871</ele>
        <time>2026-05-13T13:20:35.000Z</time>
      </trkpt>
      <trkpt lat="44.2529" lon="5.38404">
        <ele>871</ele>
        <time>2026-05-13T13:20:36.000Z</time>
      </trkpt>
      <trkpt lat="44.2529" lon="5.38403">
        <ele>872</ele>
        <time>2026-05-13T13:20:37.000Z</time>
      </trkpt>
      <trkpt lat="44.25291" lon="5.38404">
        <ele>872</ele>
        <time>2026-05-13T13:20:38.000Z</time>
      </trkpt>
      <trkpt lat="44.25292" lon="5.38404">
        <ele>872</ele>
        <time>2026-05-13T13:20:39.000Z</time>
      </trkpt>
      <trkpt lat="44.25293" lon="5.38404">
        <ele>873</ele>
        <time>2026-05-13T13:20:40.000Z</time>
      </trkpt>
      <trkpt lat="44.25294" lon="5.38404">
        <ele>872</ele>
        <time>2026-05-13T13:20:41.000Z</time>
      </trkpt>
      <trkpt lat="44.25295" lon="5.38404">
        <ele>871</ele>
        <time>2026-05-13T13:20:42.000Z</time>
      </trkpt>
      <trkpt lat="44.25297" lon="5.38405">
        <ele>871</ele>
        <time>2026-05-13T13:20:43.000Z</time>
      </trkpt>
      <trkpt lat="44.25299" lon="5.38406">
        <ele>871</ele>
        <time>2026-05-13T13:20:44.000Z</time>
      </trkpt>
      <trkpt lat="44.253" lon="5.38407">
        <ele>871</ele>
        <time>2026-05-13T13:20:45.000Z</time>
      </trkpt>
      <trkpt lat="44.25301" lon="5.38408">
        <ele>872</ele>
        <time>2026-05-13T13:20:46.000Z</time>
      </trkpt>
      <trkpt lat="44.25303" lon="5.38409">
        <ele>872</ele>
        <time>2026-05-13T13:20:47.000Z</time>
      </trkpt>
      <trkpt lat="44.25304" lon="5.3841">
        <ele>873</ele>
        <time>2026-05-13T13:20:48.000Z</time>
      </trkpt>
      <trkpt lat="44.25305" lon="5.38411">
        <ele>873</ele>
        <time>2026-05-13T13:20:49.000Z</time>
      </trkpt>
      <trkpt lat="44.25307" lon="5.38411">
        <ele>873</ele>
        <time>2026-05-13T13:20:50.000Z</time>
      </trkpt>
      <trkpt lat="44.25308" lon="5.38412">
        <ele>873</ele>
        <time>2026-05-13T13:20:51.000Z</time>
      </trkpt>
      <trkpt lat="44.25309" lon="5.38413">
        <ele>874</ele>
        <time>2026-05-13T13:20:52.000Z</time>
      </trkpt>
      <trkpt lat="44.2531" lon="5.38414">
        <ele>873</ele>
        <time>2026-05-13T13:20:53.000Z</time>
      </trkpt>
      <trkpt lat="44.25311" lon="5.38414">
        <ele>873</ele>
        <time>2026-05-13T13:20:54.000Z</time>
      </trkpt>
      <trkpt lat="44.25311" lon="5.38415">
        <ele>873</ele>
        <time>2026-05-13T13:20:55.000Z</time>
      </trkpt>
      <trkpt lat="44.25313" lon="5.38415">
        <ele>873</ele>
        <time>2026-05-13T13:20:56.000Z</time>
      </trkpt>
      <trkpt lat="44.25313" lon="5.38415">
        <ele>874</ele>
        <time>2026-05-13T13:20:57.000Z</time>
      </trkpt>
      <trkpt lat="44.25315" lon="5.38416">
        <ele>873</ele>
        <time>2026-05-13T13:20:58.000Z</time>
      </trkpt>
      <trkpt lat="44.25316" lon="5.38417">
        <ele>873</ele>
        <time>2026-05-13T13:20:59.000Z</time>
      </trkpt>
      <trkpt lat="44.25317" lon="5.38418">
        <ele>874</ele>
        <time>2026-05-13T13:21:00.000Z</time>
      </trkpt>
      <trkpt lat="44.25317" lon="5.38418">
        <ele>874</ele>
        <time>2026-05-13T13:21:01.000Z</time>
      </trkpt>
      <trkpt lat="44.25318" lon="5.38419">
        <ele>874</ele>
        <time>2026-05-13T13:21:02.000Z</time>
      </trkpt>
      <trkpt lat="44.25319" lon="5.38421">
        <ele>874</ele>
        <time>2026-05-13T13:21:03.000Z</time>
      </trkpt>
      <trkpt lat="44.25319" lon="5.38422">
        <ele>874</ele>
        <time>2026-05-13T13:21:04.000Z</time>
      </trkpt>
      <trkpt lat="44.2532" lon="5.38423">
        <ele>874</ele>
        <time>2026-05-13T13:21:05.000Z</time>
      </trkpt>
      <trkpt lat="44.25321" lon="5.38423">
        <ele>874</ele>
        <time>2026-05-13T13:21:06.000Z</time>
      </trkpt>
      <trkpt lat="44.25323" lon="5.38423">
        <ele>873</ele>
        <time>2026-05-13T13:21:07.000Z</time>
      </trkpt>
      <trkpt lat="44.25324" lon="5.38423">
        <ele>873</ele>
        <time>2026-05-13T13:21:08.000Z</time>
      </trkpt>
      <trkpt lat="44.25326" lon="5.38425">
        <ele>873</ele>
        <time>2026-05-13T13:21:09.000Z</time>
      </trkpt>
      <trkpt lat="44.25327" lon="5.38425">
        <ele>873</ele>
        <time>2026-05-13T13:21:10.000Z</time>
      </trkpt>
      <trkpt lat="44.25328" lon="5.38426">
        <ele>874</ele>
        <time>2026-05-13T13:21:11.000Z</time>
      </trkpt>
      <trkpt lat="44.25329" lon="5.38426">
        <ele>874</ele>
        <time>2026-05-13T13:21:12.000Z</time>
      </trkpt>
      <trkpt lat="44.2533" lon="5.38427">
        <ele>875</ele>
        <time>2026-05-13T13:21:13.000Z</time>
      </trkpt>
      <trkpt lat="44.25331" lon="5.38428">
        <ele>875</ele>
        <time>2026-05-13T13:21:14.000Z</time>
      </trkpt>
      <trkpt lat="44.25332" lon="5.38428">
        <ele>875</ele>
        <time>2026-05-13T13:21:15.000Z</time>
      </trkpt>
      <trkpt lat="44.25332" lon="5.38429">
        <ele>875</ele>
        <time>2026-05-13T13:21:16.000Z</time>
      </trkpt>
      <trkpt lat="44.25333" lon="5.3843">
        <ele>876</ele>
        <time>2026-05-13T13:21:17.000Z</time>
      </trkpt>
      <trkpt lat="44.25334" lon="5.38432">
        <ele>876</ele>
        <time>2026-05-13T13:21:18.000Z</time>
      </trkpt>
      <trkpt lat="44.25335" lon="5.38432">
        <ele>876</ele>
        <time>2026-05-13T13:21:19.000Z</time>
      </trkpt>
      <trkpt lat="44.25336" lon="5.38433">
        <ele>876</ele>
        <time>2026-05-13T13:21:20.000Z</time>
      </trkpt>
      <trkpt lat="44.25337" lon="5.38434">
        <ele>877</ele>
        <time>2026-05-13T13:21:21.000Z</time>
      </trkpt>
      <trkpt lat="44.25338" lon="5.38434">
        <ele>877</ele>
        <time>2026-05-13T13:21:22.000Z</time>
      </trkpt>
      <trkpt lat="44.25339" lon="5.38435">
        <ele>878</ele>
        <time>2026-05-13T13:21:23.000Z</time>
      </trkpt>
      <trkpt lat="44.25339" lon="5.38436">
        <ele>878</ele>
        <time>2026-05-13T13:21:24.000Z</time>
      </trkpt>
      <trkpt lat="44.25341" lon="5.38438">
        <ele>879</ele>
        <time>2026-05-13T13:21:25.000Z</time>
      </trkpt>
      <trkpt lat="44.25341" lon="5.38438">
        <ele>879</ele>
        <time>2026-05-13T13:21:26.000Z</time>
      </trkpt>
      <trkpt lat="44.25342" lon="5.38439">
        <ele>879</ele>
        <time>2026-05-13T13:21:27.000Z</time>
      </trkpt>
      <trkpt lat="44.25343" lon="5.38439">
        <ele>880</ele>
        <time>2026-05-13T13:21:28.000Z</time>
      </trkpt>
      <trkpt lat="44.25344" lon="5.3844">
        <ele>881</ele>
        <time>2026-05-13T13:21:29.000Z</time>
      </trkpt>
      <trkpt lat="44.25346" lon="5.38441">
        <ele>880</ele>
        <time>2026-05-13T13:21:30.000Z</time>
      </trkpt>
      <trkpt lat="44.25346" lon="5.38441">
        <ele>880</ele>
        <time>2026-05-13T13:21:31.000Z</time>
      </trkpt>
      <trkpt lat="44.25347" lon="5.38442">
        <ele>880</ele>
        <time>2026-05-13T13:21:32.000Z</time>
      </trkpt>
      <trkpt lat="44.25348" lon="5.38442">
        <ele>880</ele>
        <time>2026-05-13T13:21:33.000Z</time>
      </trkpt>
      <trkpt lat="44.25349" lon="5.38443">
        <ele>880</ele>
        <time>2026-05-13T13:21:34.000Z</time>
      </trkpt>
      <trkpt lat="44.2535" lon="5.38444">
        <ele>881</ele>
        <time>2026-05-13T13:21:35.000Z</time>
      </trkpt>
      <trkpt lat="44.2535" lon="5.38445">
        <ele>881</ele>
        <time>2026-05-13T13:21:36.000Z</time>
      </trkpt>
      <trkpt lat="44.25351" lon="5.38446">
        <ele>882</ele>
        <time>2026-05-13T13:21:37.000Z</time>
      </trkpt>
      <trkpt lat="44.25352" lon="5.38447">
        <ele>883</ele>
        <time>2026-05-13T13:21:38.000Z</time>
      </trkpt>
      <trkpt lat="44.25353" lon="5.38447">
        <ele>884</ele>
        <time>2026-05-13T13:21:39.000Z</time>
      </trkpt>
      <trkpt lat="44.25353" lon="5.38448">
        <ele>884</ele>
        <time>2026-05-13T13:21:40.000Z</time>
      </trkpt>
      <trkpt lat="44.25355" lon="5.38448">
        <ele>881</ele>
        <time>2026-05-13T13:21:41.000Z</time>
      </trkpt>
      <trkpt lat="44.25356" lon="5.3845">
        <ele>881</ele>
        <time>2026-05-13T13:21:42.000Z</time>
      </trkpt>
      <trkpt lat="44.25357" lon="5.3845">
        <ele>881</ele>
        <time>2026-05-13T13:21:43.000Z</time>
      </trkpt>
      <trkpt lat="44.25358" lon="5.3845">
        <ele>881</ele>
        <time>2026-05-13T13:21:44.000Z</time>
      </trkpt>
      <trkpt lat="44.25358" lon="5.38451">
        <ele>882</ele>
        <time>2026-05-13T13:21:45.000Z</time>
      </trkpt>
      <trkpt lat="44.25359" lon="5.38452">
        <ele>882</ele>
        <time>2026-05-13T13:21:46.000Z</time>
      </trkpt>
      <trkpt lat="44.2536" lon="5.38452">
        <ele>882</ele>
        <time>2026-05-13T13:21:47.000Z</time>
      </trkpt>
      <trkpt lat="44.2536" lon="5.38453">
        <ele>883</ele>
        <time>2026-05-13T13:21:48.000Z</time>
      </trkpt>
      <trkpt lat="44.25361" lon="5.38454">
        <ele>883</ele>
        <time>2026-05-13T13:21:49.000Z</time>
      </trkpt>
      <trkpt lat="44.25363" lon="5.38453">
        <ele>884</ele>
        <time>2026-05-13T13:21:50.000Z</time>
      </trkpt>
      <trkpt lat="44.25363" lon="5.38454">
        <ele>884</ele>
        <time>2026-05-13T13:21:51.000Z</time>
      </trkpt>
      <trkpt lat="44.25365" lon="5.38455">
        <ele>883</ele>
        <time>2026-05-13T13:21:52.000Z</time>
      </trkpt>
      <trkpt lat="44.25366" lon="5.38456">
        <ele>882</ele>
        <time>2026-05-13T13:21:53.000Z</time>
      </trkpt>
      <trkpt lat="44.25367" lon="5.38457">
        <ele>883</ele>
        <time>2026-05-13T13:21:54.000Z</time>
      </trkpt>
      <trkpt lat="44.25368" lon="5.38458">
        <ele>883</ele>
        <time>2026-05-13T13:21:55.000Z</time>
      </trkpt>
      <trkpt lat="44.25369" lon="5.38458">
        <ele>883</ele>
        <time>2026-05-13T13:21:56.000Z</time>
      </trkpt>
      <trkpt lat="44.2537" lon="5.38459">
        <ele>883</ele>
        <time>2026-05-13T13:21:57.000Z</time>
      </trkpt>
      <trkpt lat="44.2537" lon="5.38459">
        <ele>883</ele>
        <time>2026-05-13T13:21:58.000Z</time>
      </trkpt>
      <trkpt lat="44.25371" lon="5.38459">
        <ele>883</ele>
        <time>2026-05-13T13:21:59.000Z</time>
      </trkpt>
      <trkpt lat="44.25371" lon="5.3846">
        <ele>884</ele>
        <time>2026-05-13T13:22:00.000Z</time>
      </trkpt>
      <trkpt lat="44.25372" lon="5.38461">
        <ele>883</ele>
        <time>2026-05-13T13:22:01.000Z</time>
      </trkpt>
      <trkpt lat="44.25373" lon="5.38462">
        <ele>884</ele>
        <time>2026-05-13T13:22:02.000Z</time>
      </trkpt>
      <trkpt lat="44.25374" lon="5.38463">
        <ele>884</ele>
        <time>2026-05-13T13:22:03.000Z</time>
      </trkpt>
      <trkpt lat="44.25376" lon="5.38462">
        <ele>884</ele>
        <time>2026-05-13T13:22:04.000Z</time>
      </trkpt>
      <trkpt lat="44.25377" lon="5.38463">
        <ele>884</ele>
        <time>2026-05-13T13:22:05.000Z</time>
      </trkpt>
      <trkpt lat="44.25377" lon="5.38463">
        <ele>884</ele>
        <time>2026-05-13T13:22:06.000Z</time>
      </trkpt>
      <trkpt lat="44.25377" lon="5.38464">
        <ele>885</ele>
        <time>2026-05-13T13:22:07.000Z</time>
      </trkpt>
      <trkpt lat="44.25378" lon="5.38464">
        <ele>885</ele>
        <time>2026-05-13T13:22:08.000Z</time>
      </trkpt>
      <trkpt lat="44.25379" lon="5.38464">
        <ele>886</ele>
        <time>2026-05-13T13:22:09.000Z</time>
      </trkpt>
      <trkpt lat="44.25379" lon="5.38464">
        <ele>887</ele>
        <time>2026-05-13T13:22:10.000Z</time>
      </trkpt>
      <trkpt lat="44.2538" lon="5.38465">
        <ele>887</ele>
        <time>2026-05-13T13:22:11.000Z</time>
      </trkpt>
      <trkpt lat="44.25381" lon="5.38466">
        <ele>888</ele>
        <time>2026-05-13T13:22:12.000Z</time>
      </trkpt>
      <trkpt lat="44.25382" lon="5.38467">
        <ele>888</ele>
        <time>2026-05-13T13:22:13.000Z</time>
      </trkpt>
      <trkpt lat="44.25382" lon="5.38467">
        <ele>889</ele>
        <time>2026-05-13T13:22:14.000Z</time>
      </trkpt>
      <trkpt lat="44.25382" lon="5.38468">
        <ele>890</ele>
        <time>2026-05-13T13:22:15.000Z</time>
      </trkpt>
      <trkpt lat="44.25383" lon="5.3847">
        <ele>889</ele>
        <time>2026-05-13T13:22:16.000Z</time>
      </trkpt>
      <trkpt lat="44.25384" lon="5.38472">
        <ele>890</ele>
        <time>2026-05-13T13:22:17.000Z</time>
      </trkpt>
      <trkpt lat="44.25384" lon="5.38474">
        <ele>890</ele>
        <time>2026-05-13T13:22:18.000Z</time>
      </trkpt>
      <trkpt lat="44.25385" lon="5.38476">
        <ele>892</ele>
        <time>2026-05-13T13:22:19.000Z</time>
      </trkpt>
      <trkpt lat="44.25385" lon="5.38476">
        <ele>893</ele>
        <time>2026-05-13T13:22:20.000Z</time>
      </trkpt>
      <trkpt lat="44.25386" lon="5.38477">
        <ele>893</ele>
        <time>2026-05-13T13:22:21.000Z</time>
      </trkpt>
      <trkpt lat="44.25386" lon="5.38478">
        <ele>893</ele>
        <time>2026-05-13T13:22:22.000Z</time>
      </trkpt>
      <trkpt lat="44.25386" lon="5.38479">
        <ele>894</ele>
        <time>2026-05-13T13:22:23.000Z</time>
      </trkpt>
      <trkpt lat="44.25385" lon="5.3848">
        <ele>895</ele>
        <time>2026-05-13T13:22:24.000Z</time>
      </trkpt>
      <trkpt lat="44.25385" lon="5.38483">
        <ele>896</ele>
        <time>2026-05-13T13:22:25.000Z</time>
      </trkpt>
      <trkpt lat="44.25385" lon="5.38485">
        <ele>896</ele>
        <time>2026-05-13T13:22:26.000Z</time>
      </trkpt>
      <trkpt lat="44.25384" lon="5.38486">
        <ele>897</ele>
        <time>2026-05-13T13:22:27.000Z</time>
      </trkpt>
      <trkpt lat="44.25382" lon="5.38487">
        <ele>897</ele>
        <time>2026-05-13T13:22:28.000Z</time>
      </trkpt>
      <trkpt lat="44.25381" lon="5.38488">
        <ele>898</ele>
        <time>2026-05-13T13:22:29.000Z</time>
      </trkpt>
      <trkpt lat="44.2538" lon="5.38489">
        <ele>898</ele>
        <time>2026-05-13T13:22:30.000Z</time>
      </trkpt>
      <trkpt lat="44.25379" lon="5.38489">
        <ele>898</ele>
        <time>2026-05-13T13:22:31.000Z</time>
      </trkpt>
      <trkpt lat="44.25378" lon="5.3849">
        <ele>898</ele>
        <time>2026-05-13T13:22:32.000Z</time>
      </trkpt>
      <trkpt lat="44.25378" lon="5.38491">
        <ele>899</ele>
        <time>2026-05-13T13:22:33.000Z</time>
      </trkpt>
      <trkpt lat="44.25377" lon="5.38491">
        <ele>899</ele>
        <time>2026-05-13T13:22:34.000Z</time>
      </trkpt>
      <trkpt lat="44.25376" lon="5.38492">
        <ele>899</ele>
        <time>2026-05-13T13:22:35.000Z</time>
      </trkpt>
      <trkpt lat="44.25375" lon="5.38492">
        <ele>899</ele>
        <time>2026-05-13T13:22:36.000Z</time>
      </trkpt>
      <trkpt lat="44.25374" lon="5.38492">
        <ele>899</ele>
        <time>2026-05-13T13:22:37.000Z</time>
      </trkpt>
      <trkpt lat="44.25372" lon="5.38493">
        <ele>899</ele>
        <time>2026-05-13T13:22:38.000Z</time>
      </trkpt>
      <trkpt lat="44.25371" lon="5.38494">
        <ele>899</ele>
        <time>2026-05-13T13:22:39.000Z</time>
      </trkpt>
      <trkpt lat="44.2537" lon="5.38494">
        <ele>898</ele>
        <time>2026-05-13T13:22:40.000Z</time>
      </trkpt>
      <trkpt lat="44.25369" lon="5.38495">
        <ele>897</ele>
        <time>2026-05-13T13:22:41.000Z</time>
      </trkpt>
      <trkpt lat="44.25368" lon="5.38495">
        <ele>898</ele>
        <time>2026-05-13T13:22:42.000Z</time>
      </trkpt>
      <trkpt lat="44.25367" lon="5.38496">
        <ele>897</ele>
        <time>2026-05-13T13:22:43.000Z</time>
      </trkpt>
      <trkpt lat="44.25366" lon="5.38495">
        <ele>897</ele>
        <time>2026-05-13T13:22:44.000Z</time>
      </trkpt>
      <trkpt lat="44.25365" lon="5.38496">
        <ele>897</ele>
        <time>2026-05-13T13:22:45.000Z</time>
      </trkpt>
      <trkpt lat="44.25363" lon="5.38497">
        <ele>895</ele>
        <time>2026-05-13T13:22:46.000Z</time>
      </trkpt>
      <trkpt lat="44.25362" lon="5.38497">
        <ele>895</ele>
        <time>2026-05-13T13:22:47.000Z</time>
      </trkpt>
      <trkpt lat="44.2536" lon="5.38497">
        <ele>896</ele>
        <time>2026-05-13T13:22:48.000Z</time>
      </trkpt>
      <trkpt lat="44.25358" lon="5.38498">
        <ele>895</ele>
        <time>2026-05-13T13:22:49.000Z</time>
      </trkpt>
      <trkpt lat="44.25357" lon="5.38497">
        <ele>896</ele>
        <time>2026-05-13T13:22:50.000Z</time>
      </trkpt>
      <trkpt lat="44.25356" lon="5.38498">
        <ele>895</ele>
        <time>2026-05-13T13:22:51.000Z</time>
      </trkpt>
      <trkpt lat="44.25355" lon="5.38497">
        <ele>896</ele>
        <time>2026-05-13T13:22:52.000Z</time>
      </trkpt>
      <trkpt lat="44.25353" lon="5.38499">
        <ele>896</ele>
        <time>2026-05-13T13:22:53.000Z</time>
      </trkpt>
      <trkpt lat="44.25351" lon="5.38499">
        <ele>895</ele>
        <time>2026-05-13T13:22:54.000Z</time>
      </trkpt>
      <trkpt lat="44.2535" lon="5.38499">
        <ele>896</ele>
        <time>2026-05-13T13:22:55.000Z</time>
      </trkpt>
      <trkpt lat="44.25349" lon="5.385">
        <ele>896</ele>
        <time>2026-05-13T13:22:56.000Z</time>
      </trkpt>
      <trkpt lat="44.25348" lon="5.38499">
        <ele>896</ele>
        <time>2026-05-13T13:22:57.000Z</time>
      </trkpt>
      <trkpt lat="44.25346" lon="5.38499">
        <ele>895</ele>
        <time>2026-05-13T13:22:58.000Z</time>
      </trkpt>
      <trkpt lat="44.25345" lon="5.38499">
        <ele>896</ele>
        <time>2026-05-13T13:22:59.000Z</time>
      </trkpt>
      <trkpt lat="44.25344" lon="5.38498">
        <ele>896</ele>
        <time>2026-05-13T13:23:00.000Z</time>
      </trkpt>
      <trkpt lat="44.25343" lon="5.38498">
        <ele>895</ele>
        <time>2026-05-13T13:23:01.000Z</time>
      </trkpt>
      <trkpt lat="44.25342" lon="5.38498">
        <ele>895</ele>
        <time>2026-05-13T13:23:02.000Z</time>
      </trkpt>
      <trkpt lat="44.25341" lon="5.38498">
        <ele>896</ele>
        <time>2026-05-13T13:23:03.000Z</time>
      </trkpt>
      <trkpt lat="44.2534" lon="5.38497">
        <ele>896</ele>
        <time>2026-05-13T13:23:04.000Z</time>
      </trkpt>
      <trkpt lat="44.25339" lon="5.38497">
        <ele>896</ele>
        <time>2026-05-13T13:23:05.000Z</time>
      </trkpt>
      <trkpt lat="44.25338" lon="5.38497">
        <ele>896</ele>
        <time>2026-05-13T13:23:06.000Z</time>
      </trkpt>
      <trkpt lat="44.25337" lon="5.38496">
        <ele>897</ele>
        <time>2026-05-13T13:23:07.000Z</time>
      </trkpt>
      <trkpt lat="44.25336" lon="5.38496">
        <ele>896</ele>
        <time>2026-05-13T13:23:08.000Z</time>
      </trkpt>
      <trkpt lat="44.25335" lon="5.38496">
        <ele>896</ele>
        <time>2026-05-13T13:23:09.000Z</time>
      </trkpt>
      <trkpt lat="44.25333" lon="5.38496">
        <ele>896</ele>
        <time>2026-05-13T13:23:10.000Z</time>
      </trkpt>
      <trkpt lat="44.25332" lon="5.38496">
        <ele>895</ele>
        <time>2026-05-13T13:23:11.000Z</time>
      </trkpt>
      <trkpt lat="44.25331" lon="5.38496">
        <ele>895</ele>
        <time>2026-05-13T13:23:12.000Z</time>
      </trkpt>
      <trkpt lat="44.25329" lon="5.38496">
        <ele>895</ele>
        <time>2026-05-13T13:23:13.000Z</time>
      </trkpt>
      <trkpt lat="44.25328" lon="5.38496">
        <ele>895</ele>
        <time>2026-05-13T13:23:14.000Z</time>
      </trkpt>
      <trkpt lat="44.25327" lon="5.38495">
        <ele>894</ele>
        <time>2026-05-13T13:23:15.000Z</time>
      </trkpt>
      <trkpt lat="44.25325" lon="5.38495">
        <ele>894</ele>
        <time>2026-05-13T13:23:16.000Z</time>
      </trkpt>
      <trkpt lat="44.25324" lon="5.38495">
        <ele>895</ele>
        <time>2026-05-13T13:23:17.000Z</time>
      </trkpt>
      <trkpt lat="44.25322" lon="5.38495">
        <ele>895</ele>
        <time>2026-05-13T13:23:18.000Z</time>
      </trkpt>
      <trkpt lat="44.25321" lon="5.38495">
        <ele>896</ele>
        <time>2026-05-13T13:23:19.000Z</time>
      </trkpt>
      <trkpt lat="44.25319" lon="5.38494">
        <ele>895</ele>
        <time>2026-05-13T13:23:20.000Z</time>
      </trkpt>
      <trkpt lat="44.25318" lon="5.38494">
        <ele>895</ele>
        <time>2026-05-13T13:23:21.000Z</time>
      </trkpt>
      <trkpt lat="44.25317" lon="5.38494">
        <ele>895</ele>
        <time>2026-05-13T13:23:22.000Z</time>
      </trkpt>
      <trkpt lat="44.25316" lon="5.38495">
        <ele>895</ele>
        <time>2026-05-13T13:23:23.000Z</time>
      </trkpt>
      <trkpt lat="44.25314" lon="5.38495">
        <ele>895</ele>
        <time>2026-05-13T13:23:24.000Z</time>
      </trkpt>
      <trkpt lat="44.25313" lon="5.38494">
        <ele>896</ele>
        <time>2026-05-13T13:23:25.000Z</time>
      </trkpt>
      <trkpt lat="44.25312" lon="5.38494">
        <ele>896</ele>
        <time>2026-05-13T13:23:26.000Z</time>
      </trkpt>
      <trkpt lat="44.2531" lon="5.38494">
        <ele>896</ele>
        <time>2026-05-13T13:23:27.000Z</time>
      </trkpt>
      <trkpt lat="44.25309" lon="5.38494">
        <ele>896</ele>
        <time>2026-05-13T13:23:28.000Z</time>
      </trkpt>
      <trkpt lat="44.25308" lon="5.38494">
        <ele>896</ele>
        <time>2026-05-13T13:23:29.000Z</time>
      </trkpt>
      <trkpt lat="44.25307" lon="5.38494">
        <ele>896</ele>
        <time>2026-05-13T13:23:30.000Z</time>
      </trkpt>
      <trkpt lat="44.25306" lon="5.38494">
        <ele>895</ele>
        <time>2026-05-13T13:23:31.000Z</time>
      </trkpt>
      <trkpt lat="44.25305" lon="5.38493">
        <ele>895</ele>
        <time>2026-05-13T13:23:32.000Z</time>
      </trkpt>
      <trkpt lat="44.25304" lon="5.38494">
        <ele>896</ele>
        <time>2026-05-13T13:23:33.000Z</time>
      </trkpt>
      <trkpt lat="44.25303" lon="5.38494">
        <ele>896</ele>
        <time>2026-05-13T13:23:34.000Z</time>
      </trkpt>
      <trkpt lat="44.25302" lon="5.38495">
        <ele>895</ele>
        <time>2026-05-13T13:23:35.000Z</time>
      </trkpt>
      <trkpt lat="44.253" lon="5.38495">
        <ele>895</ele>
        <time>2026-05-13T13:23:36.000Z</time>
      </trkpt>
      <trkpt lat="44.25299" lon="5.38496">
        <ele>895</ele>
        <time>2026-05-13T13:23:37.000Z</time>
      </trkpt>
      <trkpt lat="44.25297" lon="5.38496">
        <ele>894</ele>
        <time>2026-05-13T13:23:38.000Z</time>
      </trkpt>
      <trkpt lat="44.25296" lon="5.38496">
        <ele>895</ele>
        <time>2026-05-13T13:23:39.000Z</time>
      </trkpt>
      <trkpt lat="44.25295" lon="5.38497">
        <ele>895</ele>
        <time>2026-05-13T13:23:40.000Z</time>
      </trkpt>
      <trkpt lat="44.25293" lon="5.38498">
        <ele>896</ele>
        <time>2026-05-13T13:23:41.000Z</time>
      </trkpt>
      <trkpt lat="44.25292" lon="5.38498">
        <ele>895</ele>
        <time>2026-05-13T13:23:42.000Z</time>
      </trkpt>
      <trkpt lat="44.25291" lon="5.38497">
        <ele>895</ele>
        <time>2026-05-13T13:23:43.000Z</time>
      </trkpt>
      <trkpt lat="44.2529" lon="5.38498">
        <ele>895</ele>
        <time>2026-05-13T13:23:44.000Z</time>
      </trkpt>
      <trkpt lat="44.25289" lon="5.38498">
        <ele>895</ele>
        <time>2026-05-13T13:23:45.000Z</time>
      </trkpt>
      <trkpt lat="44.25288" lon="5.38498">
        <ele>896</ele>
        <time>2026-05-13T13:23:46.000Z</time>
      </trkpt>
      <trkpt lat="44.25287" lon="5.38498">
        <ele>897</ele>
        <time>2026-05-13T13:23:47.000Z</time>
      </trkpt>
      <trkpt lat="44.25285" lon="5.38498">
        <ele>897</ele>
        <time>2026-05-13T13:23:48.000Z</time>
      </trkpt>
      <trkpt lat="44.25284" lon="5.38499">
        <ele>896</ele>
        <time>2026-05-13T13:23:49.000Z</time>
      </trkpt>
      <trkpt lat="44.25283" lon="5.385">
        <ele>896</ele>
        <time>2026-05-13T13:23:50.000Z</time>
      </trkpt>
      <trkpt lat="44.25283" lon="5.38501">
        <ele>897</ele>
        <time>2026-05-13T13:23:51.000Z</time>
      </trkpt>
      <trkpt lat="44.25283" lon="5.38504">
        <ele>896</ele>
        <time>2026-05-13T13:23:52.000Z</time>
      </trkpt>
      <trkpt lat="44.25283" lon="5.38504">
        <ele>897</ele>
        <time>2026-05-13T13:23:53.000Z</time>
      </trkpt>
      <trkpt lat="44.25282" lon="5.38505">
        <ele>897</ele>
        <time>2026-05-13T13:23:54.000Z</time>
      </trkpt>
      <trkpt lat="44.25281" lon="5.38507">
        <ele>897</ele>
        <time>2026-05-13T13:23:55.000Z</time>
      </trkpt>
      <trkpt lat="44.25281" lon="5.38509">
        <ele>897</ele>
        <time>2026-05-13T13:23:56.000Z</time>
      </trkpt>
      <trkpt lat="44.2528" lon="5.38511">
        <ele>897</ele>
        <time>2026-05-13T13:23:57.000Z</time>
      </trkpt>
      <trkpt lat="44.2528" lon="5.38513">
        <ele>897</ele>
        <time>2026-05-13T13:23:58.000Z</time>
      </trkpt>
      <trkpt lat="44.25279" lon="5.38515">
        <ele>897</ele>
        <time>2026-05-13T13:23:59.000Z</time>
      </trkpt>
      <trkpt lat="44.25278" lon="5.38516">
        <ele>897</ele>
        <time>2026-05-13T13:24:00.000Z</time>
      </trkpt>
      <trkpt lat="44.25278" lon="5.38517">
        <ele>897</ele>
        <time>2026-05-13T13:24:01.000Z</time>
      </trkpt>
      <trkpt lat="44.25277" lon="5.3852">
        <ele>897</ele>
        <time>2026-05-13T13:24:02.000Z</time>
      </trkpt>
      <trkpt lat="44.25277" lon="5.38522">
        <ele>897</ele>
        <time>2026-05-13T13:24:03.000Z</time>
      </trkpt>
      <trkpt lat="44.25276" lon="5.38523">
        <ele>898</ele>
        <time>2026-05-13T13:24:04.000Z</time>
      </trkpt>
      <trkpt lat="44.25276" lon="5.38525">
        <ele>898</ele>
        <time>2026-05-13T13:24:05.000Z</time>
      </trkpt>
      <trkpt lat="44.25275" lon="5.38527">
        <ele>899</ele>
        <time>2026-05-13T13:24:06.000Z</time>
      </trkpt>
      <trkpt lat="44.25276" lon="5.38529">
        <ele>899</ele>
        <time>2026-05-13T13:24:07.000Z</time>
      </trkpt>
      <trkpt lat="44.25275" lon="5.38531">
        <ele>900</ele>
        <time>2026-05-13T13:24:08.000Z</time>
      </trkpt>
      <trkpt lat="44.25275" lon="5.38533">
        <ele>900</ele>
        <time>2026-05-13T13:24:09.000Z</time>
      </trkpt>
      <trkpt lat="44.25274" lon="5.38535">
        <ele>901</ele>
        <time>2026-05-13T13:24:10.000Z</time>
      </trkpt>
      <trkpt lat="44.25275" lon="5.38536">
        <ele>902</ele>
        <time>2026-05-13T13:24:11.000Z</time>
      </trkpt>
      <trkpt lat="44.25275" lon="5.38538">
        <ele>902</ele>
        <time>2026-05-13T13:24:12.000Z</time>
      </trkpt>
      <trkpt lat="44.25275" lon="5.3854">
        <ele>903</ele>
        <time>2026-05-13T13:24:13.000Z</time>
      </trkpt>
      <trkpt lat="44.25275" lon="5.38542">
        <ele>903</ele>
        <time>2026-05-13T13:24:14.000Z</time>
      </trkpt>
      <trkpt lat="44.25275" lon="5.38544">
        <ele>902</ele>
        <time>2026-05-13T13:24:15.000Z</time>
      </trkpt>
      <trkpt lat="44.25275" lon="5.38545">
        <ele>902</ele>
        <time>2026-05-13T13:24:16.000Z</time>
      </trkpt>
      <trkpt lat="44.25275" lon="5.38547">
        <ele>902</ele>
        <time>2026-05-13T13:24:17.000Z</time>
      </trkpt>
      <trkpt lat="44.25275" lon="5.3855">
        <ele>902</ele>
        <time>2026-05-13T13:24:18.000Z</time>
      </trkpt>
      <trkpt lat="44.25276" lon="5.38552">
        <ele>903</ele>
        <time>2026-05-13T13:24:19.000Z</time>
      </trkpt>
      <trkpt lat="44.25276" lon="5.38554">
        <ele>902</ele>
        <time>2026-05-13T13:24:20.000Z</time>
      </trkpt>
      <trkpt lat="44.25276" lon="5.38556">
        <ele>902</ele>
        <time>2026-05-13T13:24:21.000Z</time>
      </trkpt>
      <trkpt lat="44.25276" lon="5.38559">
        <ele>902</ele>
        <time>2026-05-13T13:24:22.000Z</time>
      </trkpt>
      <trkpt lat="44.25277" lon="5.38561">
        <ele>902</ele>
        <time>2026-05-13T13:24:23.000Z</time>
      </trkpt>
      <trkpt lat="44.25276" lon="5.38563">
        <ele>902</ele>
        <time>2026-05-13T13:24:24.000Z</time>
      </trkpt>
      <trkpt lat="44.25275" lon="5.38566">
        <ele>902</ele>
        <time>2026-05-13T13:24:25.000Z</time>
      </trkpt>
      <trkpt lat="44.25275" lon="5.38567">
        <ele>903</ele>
        <time>2026-05-13T13:24:26.000Z</time>
      </trkpt>
      <trkpt lat="44.25274" lon="5.38569">
        <ele>903</ele>
        <time>2026-05-13T13:24:27.000Z</time>
      </trkpt>
      <trkpt lat="44.25274" lon="5.38571">
        <ele>904</ele>
        <time>2026-05-13T13:24:28.000Z</time>
      </trkpt>
      <trkpt lat="44.25274" lon="5.38573">
        <ele>905</ele>
        <time>2026-05-13T13:24:29.000Z</time>
      </trkpt>
      <trkpt lat="44.25274" lon="5.38575">
        <ele>905</ele>
        <time>2026-05-13T13:24:30.000Z</time>
      </trkpt>
      <trkpt lat="44.25273" lon="5.38576">
        <ele>905</ele>
        <time>2026-05-13T13:24:31.000Z</time>
      </trkpt>
      <trkpt lat="44.25273" lon="5.38579">
        <ele>905</ele>
        <time>2026-05-13T13:24:32.000Z</time>
      </trkpt>
      <trkpt lat="44.25273" lon="5.38581">
        <ele>906</ele>
        <time>2026-05-13T13:24:33.000Z</time>
      </trkpt>
      <trkpt lat="44.25273" lon="5.38583">
        <ele>906</ele>
        <time>2026-05-13T13:24:34.000Z</time>
      </trkpt>
      <trkpt lat="44.25272" lon="5.38584">
        <ele>906</ele>
        <time>2026-05-13T13:24:35.000Z</time>
      </trkpt>
      <trkpt lat="44.25271" lon="5.38586">
        <ele>906</ele>
        <time>2026-05-13T13:24:36.000Z</time>
      </trkpt>
      <trkpt lat="44.2527" lon="5.38588">
        <ele>906</ele>
        <time>2026-05-13T13:24:37.000Z</time>
      </trkpt>
      <trkpt lat="44.2527" lon="5.38589">
        <ele>906</ele>
        <time>2026-05-13T13:24:38.000Z</time>
      </trkpt>
      <trkpt lat="44.2527" lon="5.38592">
        <ele>906</ele>
        <time>2026-05-13T13:24:39.000Z</time>
      </trkpt>
      <trkpt lat="44.2527" lon="5.38593">
        <ele>906</ele>
        <time>2026-05-13T13:24:40.000Z</time>
      </trkpt>
      <trkpt lat="44.25271" lon="5.38595">
        <ele>906</ele>
        <time>2026-05-13T13:24:41.000Z</time>
      </trkpt>
      <trkpt lat="44.2527" lon="5.38596">
        <ele>906</ele>
        <time>2026-05-13T13:24:42.000Z</time>
      </trkpt>
      <trkpt lat="44.2527" lon="5.38597">
        <ele>907</ele>
        <time>2026-05-13T13:24:43.000Z</time>
      </trkpt>
      <trkpt lat="44.2527" lon="5.38598">
        <ele>908</ele>
        <time>2026-05-13T13:24:44.000Z</time>
      </trkpt>
      <trkpt lat="44.25269" lon="5.38599">
        <ele>908</ele>
        <time>2026-05-13T13:24:45.000Z</time>
      </trkpt>
      <trkpt lat="44.25268" lon="5.38599">
        <ele>908</ele>
        <time>2026-05-13T13:24:46.000Z</time>
      </trkpt>
      <trkpt lat="44.25267" lon="5.386">
        <ele>907</ele>
        <time>2026-05-13T13:24:47.000Z</time>
      </trkpt>
      <trkpt lat="44.25266" lon="5.38602">
        <ele>908</ele>
        <time>2026-05-13T13:24:48.000Z</time>
      </trkpt>
      <trkpt lat="44.25265" lon="5.38603">
        <ele>907</ele>
        <time>2026-05-13T13:24:49.000Z</time>
      </trkpt>
      <trkpt lat="44.25264" lon="5.38604">
        <ele>907</ele>
        <time>2026-05-13T13:24:50.000Z</time>
      </trkpt>
      <trkpt lat="44.25263" lon="5.38605">
        <ele>906</ele>
        <time>2026-05-13T13:24:51.000Z</time>
      </trkpt>
      <trkpt lat="44.25262" lon="5.38607">
        <ele>906</ele>
        <time>2026-05-13T13:24:52.000Z</time>
      </trkpt>
      <trkpt lat="44.25261" lon="5.38608">
        <ele>907</ele>
        <time>2026-05-13T13:24:53.000Z</time>
      </trkpt>
      <trkpt lat="44.2526" lon="5.38609">
        <ele>907</ele>
        <time>2026-05-13T13:24:54.000Z</time>
      </trkpt>
      <trkpt lat="44.25258" lon="5.3861">
        <ele>907</ele>
        <time>2026-05-13T13:24:55.000Z</time>
      </trkpt>
      <trkpt lat="44.25258" lon="5.38612">
        <ele>907</ele>
        <time>2026-05-13T13:24:56.000Z</time>
      </trkpt>
      <trkpt lat="44.25258" lon="5.38614">
        <ele>907</ele>
        <time>2026-05-13T13:24:57.000Z</time>
      </trkpt>
      <trkpt lat="44.25257" lon="5.38616">
        <ele>907</ele>
        <time>2026-05-13T13:24:58.000Z</time>
      </trkpt>
      <trkpt lat="44.25258" lon="5.38618">
        <ele>906</ele>
        <time>2026-05-13T13:24:59.000Z</time>
      </trkpt>
      <trkpt lat="44.25257" lon="5.3862">
        <ele>905</ele>
        <time>2026-05-13T13:25:00.000Z</time>
      </trkpt>
      <trkpt lat="44.25257" lon="5.38621">
        <ele>906</ele>
        <time>2026-05-13T13:25:01.000Z</time>
      </trkpt>
      <trkpt lat="44.25257" lon="5.38623">
        <ele>906</ele>
        <time>2026-05-13T13:25:02.000Z</time>
      </trkpt>
      <trkpt lat="44.25258" lon="5.38625">
        <ele>905</ele>
        <time>2026-05-13T13:25:03.000Z</time>
      </trkpt>
      <trkpt lat="44.25259" lon="5.38627">
        <ele>906</ele>
        <time>2026-05-13T13:25:04.000Z</time>
      </trkpt>
      <trkpt lat="44.25259" lon="5.38628">
        <ele>906</ele>
        <time>2026-05-13T13:25:05.000Z</time>
      </trkpt>
      <trkpt lat="44.2526" lon="5.38628">
        <ele>906</ele>
        <time>2026-05-13T13:25:06.000Z</time>
      </trkpt>
      <trkpt lat="44.25262" lon="5.38628">
        <ele>906</ele>
        <time>2026-05-13T13:25:07.000Z</time>
      </trkpt>
      <trkpt lat="44.25263" lon="5.38627">
        <ele>907</ele>
        <time>2026-05-13T13:25:08.000Z</time>
      </trkpt>
      <trkpt lat="44.25264" lon="5.38626">
        <ele>907</ele>
        <time>2026-05-13T13:25:09.000Z</time>
      </trkpt>
      <trkpt lat="44.25265" lon="5.38624">
        <ele>907</ele>
        <time>2026-05-13T13:25:10.000Z</time>
      </trkpt>
      <trkpt lat="44.25266" lon="5.38623">
        <ele>907</ele>
        <time>2026-05-13T13:25:11.000Z</time>
      </trkpt>
      <trkpt lat="44.25266" lon="5.38621">
        <ele>907</ele>
        <time>2026-05-13T13:25:12.000Z</time>
      </trkpt>
      <trkpt lat="44.25267" lon="5.3862">
        <ele>907</ele>
        <time>2026-05-13T13:25:13.000Z</time>
      </trkpt>
      <trkpt lat="44.25268" lon="5.38619">
        <ele>908</ele>
        <time>2026-05-13T13:25:14.000Z</time>
      </trkpt>
      <trkpt lat="44.25269" lon="5.38618">
        <ele>909</ele>
        <time>2026-05-13T13:25:15.000Z</time>
      </trkpt>
      <trkpt lat="44.2527" lon="5.38618">
        <ele>910</ele>
        <time>2026-05-13T13:25:16.000Z</time>
      </trkpt>
      <trkpt lat="44.2527" lon="5.38617">
        <ele>910</ele>
        <time>2026-05-13T13:25:17.000Z</time>
      </trkpt>
      <trkpt lat="44.25271" lon="5.38617">
        <ele>909</ele>
        <time>2026-05-13T13:25:18.000Z</time>
      </trkpt>
      <trkpt lat="44.25272" lon="5.38616">
        <ele>909</ele>
        <time>2026-05-13T13:25:19.000Z</time>
      </trkpt>
      <trkpt lat="44.25274" lon="5.38616">
        <ele>909</ele>
        <time>2026-05-13T13:25:20.000Z</time>
      </trkpt>
      <trkpt lat="44.25274" lon="5.38615">
        <ele>909</ele>
        <time>2026-05-13T13:25:21.000Z</time>
      </trkpt>
      <trkpt lat="44.25275" lon="5.38615">
        <ele>909</ele>
        <time>2026-05-13T13:25:22.000Z</time>
      </trkpt>
      <trkpt lat="44.25276" lon="5.38614">
        <ele>911</ele>
        <time>2026-05-13T13:25:23.000Z</time>
      </trkpt>
      <trkpt lat="44.25277" lon="5.38614">
        <ele>911</ele>
        <time>2026-05-13T13:25:24.000Z</time>
      </trkpt>
      <trkpt lat="44.25279" lon="5.38613">
        <ele>910</ele>
        <time>2026-05-13T13:25:25.000Z</time>
      </trkpt>
      <trkpt lat="44.2528" lon="5.38612">
        <ele>911</ele>
        <time>2026-05-13T13:25:26.000Z</time>
      </trkpt>
      <trkpt lat="44.25281" lon="5.38612">
        <ele>911</ele>
        <time>2026-05-13T13:25:27.000Z</time>
      </trkpt>
      <trkpt lat="44.25281" lon="5.3861">
        <ele>912</ele>
        <time>2026-05-13T13:25:28.000Z</time>
      </trkpt>
      <trkpt lat="44.25283" lon="5.38609">
        <ele>912</ele>
        <time>2026-05-13T13:25:29.000Z</time>
      </trkpt>
      <trkpt lat="44.25284" lon="5.38608">
        <ele>912</ele>
        <time>2026-05-13T13:25:30.000Z</time>
      </trkpt>
      <trkpt lat="44.25285" lon="5.38607">
        <ele>913</ele>
        <time>2026-05-13T13:25:31.000Z</time>
      </trkpt>
      <trkpt lat="44.25286" lon="5.38606">
        <ele>913</ele>
        <time>2026-05-13T13:25:32.000Z</time>
      </trkpt>
      <trkpt lat="44.25287" lon="5.38604">
        <ele>913</ele>
        <time>2026-05-13T13:25:33.000Z</time>
      </trkpt>
      <trkpt lat="44.25288" lon="5.38604">
        <ele>913</ele>
        <time>2026-05-13T13:25:34.000Z</time>
      </trkpt>
      <trkpt lat="44.25289" lon="5.38603">
        <ele>913</ele>
        <time>2026-05-13T13:25:35.000Z</time>
      </trkpt>
      <trkpt lat="44.2529" lon="5.38602">
        <ele>914</ele>
        <time>2026-05-13T13:25:36.000Z</time>
      </trkpt>
      <trkpt lat="44.25291" lon="5.38601">
        <ele>914</ele>
        <time>2026-05-13T13:25:37.000Z</time>
      </trkpt>
      <trkpt lat="44.25291" lon="5.386">
        <ele>914</ele>
        <time>2026-05-13T13:25:38.000Z</time>
      </trkpt>
      <trkpt lat="44.25292" lon="5.38599">
        <ele>914</ele>
        <time>2026-05-13T13:25:39.000Z</time>
      </trkpt>
      <trkpt lat="44.25293" lon="5.38599">
        <ele>914</ele>
        <time>2026-05-13T13:25:40.000Z</time>
      </trkpt>
      <trkpt lat="44.25294" lon="5.38598">
        <ele>914</ele>
        <time>2026-05-13T13:25:41.000Z</time>
      </trkpt>
      <trkpt lat="44.25295" lon="5.38597">
        <ele>915</ele>
        <time>2026-05-13T13:25:42.000Z</time>
      </trkpt>
      <trkpt lat="44.25296" lon="5.38596">
        <ele>915</ele>
        <time>2026-05-13T13:25:43.000Z</time>
      </trkpt>
      <trkpt lat="44.25298" lon="5.38595">
        <ele>915</ele>
        <time>2026-05-13T13:25:44.000Z</time>
      </trkpt>
      <trkpt lat="44.25298" lon="5.38594">
        <ele>915</ele>
        <time>2026-05-13T13:25:45.000Z</time>
      </trkpt>
      <trkpt lat="44.253" lon="5.38594">
        <ele>914</ele>
        <time>2026-05-13T13:25:46.000Z</time>
      </trkpt>
      <trkpt lat="44.253" lon="5.38593">
        <ele>914</ele>
        <time>2026-05-13T13:25:47.000Z</time>
      </trkpt>
      <trkpt lat="44.25301" lon="5.38592">
        <ele>914</ele>
        <time>2026-05-13T13:25:48.000Z</time>
      </trkpt>
      <trkpt lat="44.25302" lon="5.38592">
        <ele>914</ele>
        <time>2026-05-13T13:25:49.000Z</time>
      </trkpt>
      <trkpt lat="44.25302" lon="5.3859">
        <ele>915</ele>
        <time>2026-05-13T13:25:50.000Z</time>
      </trkpt>
      <trkpt lat="44.25303" lon="5.38589">
        <ele>914</ele>
        <time>2026-05-13T13:25:51.000Z</time>
      </trkpt>
      <trkpt lat="44.25304" lon="5.38588">
        <ele>914</ele>
        <time>2026-05-13T13:25:52.000Z</time>
      </trkpt>
      <trkpt lat="44.25305" lon="5.38586">
        <ele>914</ele>
        <time>2026-05-13T13:25:53.000Z</time>
      </trkpt>
      <trkpt lat="44.25306" lon="5.38585">
        <ele>914</ele>
        <time>2026-05-13T13:25:54.000Z</time>
      </trkpt>
      <trkpt lat="44.25307" lon="5.38584">
        <ele>914</ele>
        <time>2026-05-13T13:25:55.000Z</time>
      </trkpt>
      <trkpt lat="44.25308" lon="5.38583">
        <ele>914</ele>
        <time>2026-05-13T13:25:56.000Z</time>
      </trkpt>
      <trkpt lat="44.2531" lon="5.38581">
        <ele>915</ele>
        <time>2026-05-13T13:25:57.000Z</time>
      </trkpt>
      <trkpt lat="44.25311" lon="5.3858">
        <ele>916</ele>
        <time>2026-05-13T13:25:58.000Z</time>
      </trkpt>
      <trkpt lat="44.25312" lon="5.38579">
        <ele>916</ele>
        <time>2026-05-13T13:25:59.000Z</time>
      </trkpt>
      <trkpt lat="44.25313" lon="5.38578">
        <ele>916</ele>
        <time>2026-05-13T13:26:00.000Z</time>
      </trkpt>
      <trkpt lat="44.25314" lon="5.38577">
        <ele>916</ele>
        <time>2026-05-13T13:26:01.000Z</time>
      </trkpt>
      <trkpt lat="44.25315" lon="5.38576">
        <ele>917</ele>
        <time>2026-05-13T13:26:02.000Z</time>
      </trkpt>
      <trkpt lat="44.25315" lon="5.38575">
        <ele>917</ele>
        <time>2026-05-13T13:26:03.000Z</time>
      </trkpt>
      <trkpt lat="44.25316" lon="5.38574">
        <ele>917</ele>
        <time>2026-05-13T13:26:04.000Z</time>
      </trkpt>
      <trkpt lat="44.25317" lon="5.38573">
        <ele>917</ele>
        <time>2026-05-13T13:26:05.000Z</time>
      </trkpt>
      <trkpt lat="44.25318" lon="5.38572">
        <ele>918</ele>
        <time>2026-05-13T13:26:06.000Z</time>
      </trkpt>
      <trkpt lat="44.25318" lon="5.38572">
        <ele>918</ele>
        <time>2026-05-13T13:26:07.000Z</time>
      </trkpt>
      <trkpt lat="44.25319" lon="5.38572">
        <ele>918</ele>
        <time>2026-05-13T13:26:08.000Z</time>
      </trkpt>
      <trkpt lat="44.25321" lon="5.38571">
        <ele>917</ele>
        <time>2026-05-13T13:26:09.000Z</time>
      </trkpt>
      <trkpt lat="44.25322" lon="5.38572">
        <ele>918</ele>
        <time>2026-05-13T13:26:10.000Z</time>
      </trkpt>
      <trkpt lat="44.25323" lon="5.38571">
        <ele>918</ele>
        <time>2026-05-13T13:26:11.000Z</time>
      </trkpt>
      <trkpt lat="44.25323" lon="5.38571">
        <ele>918</ele>
        <time>2026-05-13T13:26:12.000Z</time>
      </trkpt>
      <trkpt lat="44.25324" lon="5.38571">
        <ele>918</ele>
        <time>2026-05-13T13:26:13.000Z</time>
      </trkpt>
      <trkpt lat="44.25325" lon="5.38571">
        <ele>918</ele>
        <time>2026-05-13T13:26:14.000Z</time>
      </trkpt>
      <trkpt lat="44.25327" lon="5.38571">
        <ele>918</ele>
        <time>2026-05-13T13:26:15.000Z</time>
      </trkpt>
      <trkpt lat="44.25328" lon="5.38571">
        <ele>918</ele>
        <time>2026-05-13T13:26:16.000Z</time>
      </trkpt>
      <trkpt lat="44.25329" lon="5.3857">
        <ele>919</ele>
        <time>2026-05-13T13:26:17.000Z</time>
      </trkpt>
      <trkpt lat="44.2533" lon="5.3857">
        <ele>919</ele>
        <time>2026-05-13T13:26:18.000Z</time>
      </trkpt>
      <trkpt lat="44.25332" lon="5.3857">
        <ele>920</ele>
        <time>2026-05-13T13:26:19.000Z</time>
      </trkpt>
      <trkpt lat="44.25333" lon="5.3857">
        <ele>920</ele>
        <time>2026-05-13T13:26:20.000Z</time>
      </trkpt>
      <trkpt lat="44.25335" lon="5.3857">
        <ele>920</ele>
        <time>2026-05-13T13:26:21.000Z</time>
      </trkpt>
      <trkpt lat="44.25336" lon="5.38571">
        <ele>921</ele>
        <time>2026-05-13T13:26:22.000Z</time>
      </trkpt>
      <trkpt lat="44.25338" lon="5.3857">
        <ele>921</ele>
        <time>2026-05-13T13:26:23.000Z</time>
      </trkpt>
      <trkpt lat="44.25339" lon="5.3857">
        <ele>921</ele>
        <time>2026-05-13T13:26:24.000Z</time>
      </trkpt>
      <trkpt lat="44.25341" lon="5.3857">
        <ele>921</ele>
        <time>2026-05-13T13:26:25.000Z</time>
      </trkpt>
      <trkpt lat="44.25341" lon="5.3857">
        <ele>921</ele>
        <time>2026-05-13T13:26:26.000Z</time>
      </trkpt>
      <trkpt lat="44.25342" lon="5.3857">
        <ele>920</ele>
        <time>2026-05-13T13:26:27.000Z</time>
      </trkpt>
      <trkpt lat="44.25343" lon="5.38571">
        <ele>920</ele>
        <time>2026-05-13T13:26:28.000Z</time>
      </trkpt>
      <trkpt lat="44.25344" lon="5.38571">
        <ele>920</ele>
        <time>2026-05-13T13:26:29.000Z</time>
      </trkpt>
      <trkpt lat="44.25345" lon="5.38571">
        <ele>920</ele>
        <time>2026-05-13T13:26:30.000Z</time>
      </trkpt>
      <trkpt lat="44.25346" lon="5.38571">
        <ele>920</ele>
        <time>2026-05-13T13:26:31.000Z</time>
      </trkpt>
      <trkpt lat="44.25347" lon="5.38571">
        <ele>920</ele>
        <time>2026-05-13T13:26:32.000Z</time>
      </trkpt>
      <trkpt lat="44.25348" lon="5.38571">
        <ele>921</ele>
        <time>2026-05-13T13:26:33.000Z</time>
      </trkpt>
      <trkpt lat="44.25349" lon="5.38571">
        <ele>922</ele>
        <time>2026-05-13T13:26:34.000Z</time>
      </trkpt>
      <trkpt lat="44.2535" lon="5.38571">
        <ele>923</ele>
        <time>2026-05-13T13:26:35.000Z</time>
      </trkpt>
      <trkpt lat="44.25351" lon="5.38571">
        <ele>924</ele>
        <time>2026-05-13T13:26:36.000Z</time>
      </trkpt>
      <trkpt lat="44.25352" lon="5.38571">
        <ele>924</ele>
        <time>2026-05-13T13:26:37.000Z</time>
      </trkpt>
      <trkpt lat="44.25353" lon="5.38572">
        <ele>923</ele>
        <time>2026-05-13T13:26:38.000Z</time>
      </trkpt>
      <trkpt lat="44.25353" lon="5.38573">
        <ele>923</ele>
        <time>2026-05-13T13:26:39.000Z</time>
      </trkpt>
      <trkpt lat="44.25354" lon="5.38574">
        <ele>924</ele>
        <time>2026-05-13T13:26:40.000Z</time>
      </trkpt>
      <trkpt lat="44.25356" lon="5.38574">
        <ele>924</ele>
        <time>2026-05-13T13:26:41.000Z</time>
      </trkpt>
      <trkpt lat="44.25356" lon="5.38574">
        <ele>925</ele>
        <time>2026-05-13T13:26:42.000Z</time>
      </trkpt>
      <trkpt lat="44.25357" lon="5.38575">
        <ele>925</ele>
        <time>2026-05-13T13:26:43.000Z</time>
      </trkpt>
      <trkpt lat="44.25358" lon="5.38576">
        <ele>925</ele>
        <time>2026-05-13T13:26:44.000Z</time>
      </trkpt>
      <trkpt lat="44.25359" lon="5.38577">
        <ele>926</ele>
        <time>2026-05-13T13:26:45.000Z</time>
      </trkpt>
      <trkpt lat="44.2536" lon="5.38577">
        <ele>926</ele>
        <time>2026-05-13T13:26:46.000Z</time>
      </trkpt>
      <trkpt lat="44.25362" lon="5.38577">
        <ele>926</ele>
        <time>2026-05-13T13:26:47.000Z</time>
      </trkpt>
      <trkpt lat="44.25363" lon="5.38577">
        <ele>926</ele>
        <time>2026-05-13T13:26:48.000Z</time>
      </trkpt>
      <trkpt lat="44.25364" lon="5.38577">
        <ele>927</ele>
        <time>2026-05-13T13:26:49.000Z</time>
      </trkpt>
      <trkpt lat="44.25365" lon="5.38578">
        <ele>927</ele>
        <time>2026-05-13T13:26:50.000Z</time>
      </trkpt>
      <trkpt lat="44.25366" lon="5.38578">
        <ele>928</ele>
        <time>2026-05-13T13:26:51.000Z</time>
      </trkpt>
      <trkpt lat="44.25367" lon="5.38578">
        <ele>928</ele>
        <time>2026-05-13T13:26:52.000Z</time>
      </trkpt>
      <trkpt lat="44.25368" lon="5.38579">
        <ele>927</ele>
        <time>2026-05-13T13:26:53.000Z</time>
      </trkpt>
      <trkpt lat="44.25369" lon="5.38579">
        <ele>927</ele>
        <time>2026-05-13T13:26:54.000Z</time>
      </trkpt>
      <trkpt lat="44.25371" lon="5.38579">
        <ele>927</ele>
        <time>2026-05-13T13:26:55.000Z</time>
      </trkpt>
      <trkpt lat="44.25373" lon="5.3858">
        <ele>927</ele>
        <time>2026-05-13T13:26:56.000Z</time>
      </trkpt>
      <trkpt lat="44.25374" lon="5.3858">
        <ele>928</ele>
        <time>2026-05-13T13:26:57.000Z</time>
      </trkpt>
      <trkpt lat="44.25376" lon="5.3858">
        <ele>929</ele>
        <time>2026-05-13T13:26:58.000Z</time>
      </trkpt>
      <trkpt lat="44.25378" lon="5.38581">
        <ele>928</ele>
        <time>2026-05-13T13:26:59.000Z</time>
      </trkpt>
      <trkpt lat="44.25379" lon="5.38582">
        <ele>928</ele>
        <time>2026-05-13T13:27:00.000Z</time>
      </trkpt>
      <trkpt lat="44.25379" lon="5.38583">
        <ele>928</ele>
        <time>2026-05-13T13:27:01.000Z</time>
      </trkpt>
      <trkpt lat="44.2538" lon="5.38584">
        <ele>928</ele>
        <time>2026-05-13T13:27:02.000Z</time>
      </trkpt>
      <trkpt lat="44.25381" lon="5.38584">
        <ele>928</ele>
        <time>2026-05-13T13:27:03.000Z</time>
      </trkpt>
      <trkpt lat="44.25382" lon="5.38585">
        <ele>928</ele>
        <time>2026-05-13T13:27:04.000Z</time>
      </trkpt>
      <trkpt lat="44.25383" lon="5.38586">
        <ele>927</ele>
        <time>2026-05-13T13:27:05.000Z</time>
      </trkpt>
      <trkpt lat="44.25384" lon="5.38587">
        <ele>927</ele>
        <time>2026-05-13T13:27:06.000Z</time>
      </trkpt>
      <trkpt lat="44.25385" lon="5.38588">
        <ele>927</ele>
        <time>2026-05-13T13:27:07.000Z</time>
      </trkpt>
      <trkpt lat="44.25386" lon="5.38589">
        <ele>927</ele>
        <time>2026-05-13T13:27:08.000Z</time>
      </trkpt>
      <trkpt lat="44.25387" lon="5.38589">
        <ele>927</ele>
        <time>2026-05-13T13:27:09.000Z</time>
      </trkpt>
      <trkpt lat="44.25388" lon="5.3859">
        <ele>927</ele>
        <time>2026-05-13T13:27:10.000Z</time>
      </trkpt>
      <trkpt lat="44.25389" lon="5.38592">
        <ele>926</ele>
        <time>2026-05-13T13:27:11.000Z</time>
      </trkpt>
      <trkpt lat="44.25391" lon="5.38593">
        <ele>926</ele>
        <time>2026-05-13T13:27:12.000Z</time>
      </trkpt>
      <trkpt lat="44.25393" lon="5.38593">
        <ele>927</ele>
        <time>2026-05-13T13:27:13.000Z</time>
      </trkpt>
      <trkpt lat="44.25394" lon="5.38594">
        <ele>926</ele>
        <time>2026-05-13T13:27:14.000Z</time>
      </trkpt>
      <trkpt lat="44.25395" lon="5.38594">
        <ele>926</ele>
        <time>2026-05-13T13:27:15.000Z</time>
      </trkpt>
      <trkpt lat="44.25395" lon="5.38594">
        <ele>926</ele>
        <time>2026-05-13T13:27:16.000Z</time>
      </trkpt>
      <trkpt lat="44.25395" lon="5.38596">
        <ele>926</ele>
        <time>2026-05-13T13:27:17.000Z</time>
      </trkpt>
      <trkpt lat="44.25396" lon="5.38596">
        <ele>926</ele>
        <time>2026-05-13T13:27:18.000Z</time>
      </trkpt>
      <trkpt lat="44.25396" lon="5.38596">
        <ele>925</ele>
        <time>2026-05-13T13:27:19.000Z</time>
      </trkpt>
      <trkpt lat="44.25397" lon="5.38597">
        <ele>925</ele>
        <time>2026-05-13T13:27:20.000Z</time>
      </trkpt>
      <trkpt lat="44.25397" lon="5.38597">
        <ele>925</ele>
        <time>2026-05-13T13:27:21.000Z</time>
      </trkpt>
      <trkpt lat="44.25398" lon="5.38597">
        <ele>925</ele>
        <time>2026-05-13T13:27:22.000Z</time>
      </trkpt>
      <trkpt lat="44.25398" lon="5.38597">
        <ele>924</ele>
        <time>2026-05-13T13:27:23.000Z</time>
      </trkpt>
      <trkpt lat="44.25399" lon="5.38598">
        <ele>924</ele>
        <time>2026-05-13T13:27:24.000Z</time>
      </trkpt>
      <trkpt lat="44.254" lon="5.38598">
        <ele>925</ele>
        <time>2026-05-13T13:27:25.000Z</time>
      </trkpt>
      <trkpt lat="44.25401" lon="5.38599">
        <ele>925</ele>
        <time>2026-05-13T13:27:26.000Z</time>
      </trkpt>
      <trkpt lat="44.25401" lon="5.386">
        <ele>925</ele>
        <time>2026-05-13T13:27:27.000Z</time>
      </trkpt>
      <trkpt lat="44.25402" lon="5.38601">
        <ele>925</ele>
        <time>2026-05-13T13:27:28.000Z</time>
      </trkpt>
      <trkpt lat="44.25403" lon="5.38601">
        <ele>924</ele>
        <time>2026-05-13T13:27:29.000Z</time>
      </trkpt>
      <trkpt lat="44.25403" lon="5.38602">
        <ele>924</ele>
        <time>2026-05-13T13:27:30.000Z</time>
      </trkpt>
      <trkpt lat="44.25403" lon="5.38603">
        <ele>924</ele>
        <time>2026-05-13T13:27:31.000Z</time>
      </trkpt>
      <trkpt lat="44.25403" lon="5.38603">
        <ele>925</ele>
        <time>2026-05-13T13:27:32.000Z</time>
      </trkpt>
      <trkpt lat="44.25404" lon="5.38603">
        <ele>926</ele>
        <time>2026-05-13T13:27:33.000Z</time>
      </trkpt>
      <trkpt lat="44.25404" lon="5.38602">
        <ele>926</ele>
        <time>2026-05-13T13:27:34.000Z</time>
      </trkpt>
      <trkpt lat="44.25405" lon="5.38602">
        <ele>926</ele>
        <time>2026-05-13T13:27:35.000Z</time>
      </trkpt>
      <trkpt lat="44.25405" lon="5.38602">
        <ele>927</ele>
        <time>2026-05-13T13:27:36.000Z</time>
      </trkpt>
      <trkpt lat="44.25405" lon="5.38602">
        <ele>927</ele>
        <time>2026-05-13T13:27:37.000Z</time>
      </trkpt>
      <trkpt lat="44.25406" lon="5.38602">
        <ele>928</ele>
        <time>2026-05-13T13:27:38.000Z</time>
      </trkpt>
      <trkpt lat="44.25407" lon="5.38603">
        <ele>928</ele>
        <time>2026-05-13T13:27:39.000Z</time>
      </trkpt>
      <trkpt lat="44.25408" lon="5.38604">
        <ele>930</ele>
        <time>2026-05-13T13:27:40.000Z</time>
      </trkpt>
      <trkpt lat="44.25408" lon="5.38604">
        <ele>930</ele>
        <time>2026-05-13T13:27:41.000Z</time>
      </trkpt>
      <trkpt lat="44.25408" lon="5.38605">
        <ele>931</ele>
        <time>2026-05-13T13:27:42.000Z</time>
      </trkpt>
      <trkpt lat="44.25409" lon="5.38605">
        <ele>931</ele>
        <time>2026-05-13T13:27:43.000Z</time>
      </trkpt>
      <trkpt lat="44.25409" lon="5.38605">
        <ele>931</ele>
        <time>2026-05-13T13:27:44.000Z</time>
      </trkpt>
      <trkpt lat="44.2541" lon="5.38606">
        <ele>932</ele>
        <time>2026-05-13T13:27:45.000Z</time>
      </trkpt>
      <trkpt lat="44.2541" lon="5.38607">
        <ele>931</ele>
        <time>2026-05-13T13:27:46.000Z</time>
      </trkpt>
      <trkpt lat="44.2541" lon="5.38607">
        <ele>931</ele>
        <time>2026-05-13T13:27:47.000Z</time>
      </trkpt>
      <trkpt lat="44.2541" lon="5.38607">
        <ele>932</ele>
        <time>2026-05-13T13:27:48.000Z</time>
      </trkpt>
      <trkpt lat="44.2541" lon="5.38607">
        <ele>931</ele>
        <time>2026-05-13T13:27:49.000Z</time>
      </trkpt>
      <trkpt lat="44.2541" lon="5.38607">
        <ele>932</ele>
        <time>2026-05-13T13:27:50.000Z</time>
      </trkpt>
      <trkpt lat="44.2541" lon="5.38607">
        <ele>931</ele>
        <time>2026-05-13T13:27:51.000Z</time>
      </trkpt>
      <trkpt lat="44.25411" lon="5.38608">
        <ele>932</ele>
        <time>2026-05-13T13:27:52.000Z</time>
      </trkpt>
      <trkpt lat="44.25412" lon="5.38608">
        <ele>932</ele>
        <time>2026-05-13T13:27:53.000Z</time>
      </trkpt>
      <trkpt lat="44.25413" lon="5.38608">
        <ele>933</ele>
        <time>2026-05-13T13:27:54.000Z</time>
      </trkpt>
      <trkpt lat="44.25414" lon="5.38609">
        <ele>933</ele>
        <time>2026-05-13T13:27:55.000Z</time>
      </trkpt>
      <trkpt lat="44.25414" lon="5.3861">
        <ele>933</ele>
        <time>2026-05-13T13:27:56.000Z</time>
      </trkpt>
      <trkpt lat="44.25414" lon="5.38611">
        <ele>933</ele>
        <time>2026-05-13T13:27:57.000Z</time>
      </trkpt>
      <trkpt lat="44.25415" lon="5.38612">
        <ele>933</ele>
        <time>2026-05-13T13:27:58.000Z</time>
      </trkpt>
      <trkpt lat="44.25416" lon="5.38612">
        <ele>932</ele>
        <time>2026-05-13T13:27:59.000Z</time>
      </trkpt>
      <trkpt lat="44.25417" lon="5.38611">
        <ele>931</ele>
        <time>2026-05-13T13:28:00.000Z</time>
      </trkpt>
      <trkpt lat="44.25419" lon="5.3861">
        <ele>931</ele>
        <time>2026-05-13T13:28:01.000Z</time>
      </trkpt>
      <trkpt lat="44.25419" lon="5.38609">
        <ele>931</ele>
        <time>2026-05-13T13:28:02.000Z</time>
      </trkpt>
      <trkpt lat="44.25419" lon="5.38608">
        <ele>932</ele>
        <time>2026-05-13T13:28:03.000Z</time>
      </trkpt>
      <trkpt lat="44.2542" lon="5.38608">
        <ele>932</ele>
        <time>2026-05-13T13:28:04.000Z</time>
      </trkpt>
      <trkpt lat="44.2542" lon="5.38607">
        <ele>932</ele>
        <time>2026-05-13T13:28:05.000Z</time>
      </trkpt>
      <trkpt lat="44.25421" lon="5.38607">
        <ele>933</ele>
        <time>2026-05-13T13:28:06.000Z</time>
      </trkpt>
      <trkpt lat="44.25422" lon="5.38607">
        <ele>934</ele>
        <time>2026-05-13T13:28:07.000Z</time>
      </trkpt>
      <trkpt lat="44.25423" lon="5.38607">
        <ele>934</ele>
        <time>2026-05-13T13:28:08.000Z</time>
      </trkpt>
      <trkpt lat="44.25424" lon="5.38607">
        <ele>934</ele>
        <time>2026-05-13T13:28:09.000Z</time>
      </trkpt>
      <trkpt lat="44.25425" lon="5.38608">
        <ele>934</ele>
        <time>2026-05-13T13:28:10.000Z</time>
      </trkpt>
      <trkpt lat="44.25426" lon="5.38608">
        <ele>934</ele>
        <time>2026-05-13T13:28:11.000Z</time>
      </trkpt>
      <trkpt lat="44.25427" lon="5.3861">
        <ele>933</ele>
        <time>2026-05-13T13:28:12.000Z</time>
      </trkpt>
      <trkpt lat="44.25428" lon="5.3861">
        <ele>933</ele>
        <time>2026-05-13T13:28:13.000Z</time>
      </trkpt>
      <trkpt lat="44.25429" lon="5.38611">
        <ele>934</ele>
        <time>2026-05-13T13:28:14.000Z</time>
      </trkpt>
      <trkpt lat="44.25429" lon="5.38612">
        <ele>934</ele>
        <time>2026-05-13T13:28:15.000Z</time>
      </trkpt>
      <trkpt lat="44.25429" lon="5.38613">
        <ele>935</ele>
        <time>2026-05-13T13:28:16.000Z</time>
      </trkpt>
      <trkpt lat="44.25429" lon="5.38616">
        <ele>935</ele>
        <time>2026-05-13T13:28:17.000Z</time>
      </trkpt>
      <trkpt lat="44.25427" lon="5.38617">
        <ele>934</ele>
        <time>2026-05-13T13:28:18.000Z</time>
      </trkpt>
      <trkpt lat="44.25426" lon="5.38619">
        <ele>934</ele>
        <time>2026-05-13T13:28:19.000Z</time>
      </trkpt>
      <trkpt lat="44.25424" lon="5.3862">
        <ele>934</ele>
        <time>2026-05-13T13:28:20.000Z</time>
      </trkpt>
      <trkpt lat="44.25422" lon="5.38621">
        <ele>934</ele>
        <time>2026-05-13T13:28:21.000Z</time>
      </trkpt>
      <trkpt lat="44.2542" lon="5.38622">
        <ele>934</ele>
        <time>2026-05-13T13:28:22.000Z</time>
      </trkpt>
      <trkpt lat="44.25419" lon="5.38623">
        <ele>935</ele>
        <time>2026-05-13T13:28:23.000Z</time>
      </trkpt>
      <trkpt lat="44.25417" lon="5.38624">
        <ele>934</ele>
        <time>2026-05-13T13:28:24.000Z</time>
      </trkpt>
      <trkpt lat="44.25416" lon="5.38624">
        <ele>934</ele>
        <time>2026-05-13T13:28:25.000Z</time>
      </trkpt>
      <trkpt lat="44.25414" lon="5.38624">
        <ele>934</ele>
        <time>2026-05-13T13:28:26.000Z</time>
      </trkpt>
      <trkpt lat="44.25412" lon="5.38624">
        <ele>935</ele>
        <time>2026-05-13T13:28:27.000Z</time>
      </trkpt>
      <trkpt lat="44.25411" lon="5.38625">
        <ele>935</ele>
        <time>2026-05-13T13:28:28.000Z</time>
      </trkpt>
      <trkpt lat="44.25409" lon="5.38625">
        <ele>936</ele>
        <time>2026-05-13T13:28:29.000Z</time>
      </trkpt>
      <trkpt lat="44.25407" lon="5.38625">
        <ele>936</ele>
        <time>2026-05-13T13:28:30.000Z</time>
      </trkpt>
      <trkpt lat="44.25406" lon="5.38625">
        <ele>936</ele>
        <time>2026-05-13T13:28:31.000Z</time>
      </trkpt>
      <trkpt lat="44.25404" lon="5.38625">
        <ele>936</ele>
        <time>2026-05-13T13:28:32.000Z</time>
      </trkpt>
      <trkpt lat="44.25402" lon="5.38625">
        <ele>937</ele>
        <time>2026-05-13T13:28:33.000Z</time>
      </trkpt>
      <trkpt lat="44.25401" lon="5.38625">
        <ele>937</ele>
        <time>2026-05-13T13:28:34.000Z</time>
      </trkpt>
      <trkpt lat="44.25399" lon="5.38625">
        <ele>937</ele>
        <time>2026-05-13T13:28:35.000Z</time>
      </trkpt>
      <trkpt lat="44.25397" lon="5.38626">
        <ele>938</ele>
        <time>2026-05-13T13:28:36.000Z</time>
      </trkpt>
      <trkpt lat="44.25395" lon="5.38626">
        <ele>938</ele>
        <time>2026-05-13T13:28:37.000Z</time>
      </trkpt>
      <trkpt lat="44.25393" lon="5.38627">
        <ele>938</ele>
        <time>2026-05-13T13:28:38.000Z</time>
      </trkpt>
      <trkpt lat="44.25392" lon="5.38627">
        <ele>938</ele>
        <time>2026-05-13T13:28:39.000Z</time>
      </trkpt>
      <trkpt lat="44.2539" lon="5.38628">
        <ele>938</ele>
        <time>2026-05-13T13:28:40.000Z</time>
      </trkpt>
      <trkpt lat="44.25388" lon="5.38628">
        <ele>939</ele>
        <time>2026-05-13T13:28:41.000Z</time>
      </trkpt>
      <trkpt lat="44.25386" lon="5.38628">
        <ele>939</ele>
        <time>2026-05-13T13:28:42.000Z</time>
      </trkpt>
      <trkpt lat="44.25385" lon="5.38629">
        <ele>940</ele>
        <time>2026-05-13T13:28:43.000Z</time>
      </trkpt>
      <trkpt lat="44.25382" lon="5.38629">
        <ele>939</ele>
        <time>2026-05-13T13:28:44.000Z</time>
      </trkpt>
      <trkpt lat="44.25381" lon="5.38628">
        <ele>939</ele>
        <time>2026-05-13T13:28:45.000Z</time>
      </trkpt>
      <trkpt lat="44.2538" lon="5.38629">
        <ele>939</ele>
        <time>2026-05-13T13:28:46.000Z</time>
      </trkpt>
      <trkpt lat="44.25378" lon="5.3863">
        <ele>939</ele>
        <time>2026-05-13T13:28:47.000Z</time>
      </trkpt>
      <trkpt lat="44.25377" lon="5.3863">
        <ele>939</ele>
        <time>2026-05-13T13:28:48.000Z</time>
      </trkpt>
      <trkpt lat="44.25376" lon="5.38631">
        <ele>940</ele>
        <time>2026-05-13T13:28:49.000Z</time>
      </trkpt>
      <trkpt lat="44.25374" lon="5.38632">
        <ele>939</ele>
        <time>2026-05-13T13:28:50.000Z</time>
      </trkpt>
      <trkpt lat="44.25373" lon="5.38633">
        <ele>940</ele>
        <time>2026-05-13T13:28:51.000Z</time>
      </trkpt>
      <trkpt lat="44.25371" lon="5.38634">
        <ele>940</ele>
        <time>2026-05-13T13:28:52.000Z</time>
      </trkpt>
      <trkpt lat="44.2537" lon="5.38634">
        <ele>940</ele>
        <time>2026-05-13T13:28:53.000Z</time>
      </trkpt>
      <trkpt lat="44.25369" lon="5.38635">
        <ele>941</ele>
        <time>2026-05-13T13:28:54.000Z</time>
      </trkpt>
      <trkpt lat="44.25367" lon="5.38637">
        <ele>942</ele>
        <time>2026-05-13T13:28:55.000Z</time>
      </trkpt>
      <trkpt lat="44.25366" lon="5.38637">
        <ele>942</ele>
        <time>2026-05-13T13:28:56.000Z</time>
      </trkpt>
      <trkpt lat="44.25365" lon="5.38638">
        <ele>942</ele>
        <time>2026-05-13T13:28:57.000Z</time>
      </trkpt>
      <trkpt lat="44.25363" lon="5.38639">
        <ele>942</ele>
        <time>2026-05-13T13:28:58.000Z</time>
      </trkpt>
      <trkpt lat="44.25362" lon="5.38641">
        <ele>942</ele>
        <time>2026-05-13T13:28:59.000Z</time>
      </trkpt>
      <trkpt lat="44.25361" lon="5.38642">
        <ele>943</ele>
        <time>2026-05-13T13:29:00.000Z</time>
      </trkpt>
      <trkpt lat="44.25359" lon="5.38643">
        <ele>943</ele>
        <time>2026-05-13T13:29:01.000Z</time>
      </trkpt>
      <trkpt lat="44.25358" lon="5.38645">
        <ele>943</ele>
        <time>2026-05-13T13:29:02.000Z</time>
      </trkpt>
      <trkpt lat="44.25357" lon="5.38647">
        <ele>944</ele>
        <time>2026-05-13T13:29:03.000Z</time>
      </trkpt>
      <trkpt lat="44.25356" lon="5.38649">
        <ele>944</ele>
        <time>2026-05-13T13:29:04.000Z</time>
      </trkpt>
      <trkpt lat="44.25355" lon="5.38651">
        <ele>944</ele>
        <time>2026-05-13T13:29:05.000Z</time>
      </trkpt>
      <trkpt lat="44.25354" lon="5.38653">
        <ele>945</ele>
        <time>2026-05-13T13:29:06.000Z</time>
      </trkpt>
      <trkpt lat="44.25352" lon="5.38655">
        <ele>945</ele>
        <time>2026-05-13T13:29:07.000Z</time>
      </trkpt>
      <trkpt lat="44.25352" lon="5.38657">
        <ele>945</ele>
        <time>2026-05-13T13:29:08.000Z</time>
      </trkpt>
      <trkpt lat="44.2535" lon="5.38659">
        <ele>945</ele>
        <time>2026-05-13T13:29:09.000Z</time>
      </trkpt>
      <trkpt lat="44.25349" lon="5.38661">
        <ele>945</ele>
        <time>2026-05-13T13:29:10.000Z</time>
      </trkpt>
      <trkpt lat="44.25348" lon="5.38663">
        <ele>946</ele>
        <time>2026-05-13T13:29:11.000Z</time>
      </trkpt>
      <trkpt lat="44.25347" lon="5.38665">
        <ele>946</ele>
        <time>2026-05-13T13:29:12.000Z</time>
      </trkpt>
      <trkpt lat="44.25346" lon="5.38666">
        <ele>946</ele>
        <time>2026-05-13T13:29:13.000Z</time>
      </trkpt>
      <trkpt lat="44.25344" lon="5.38668">
        <ele>947</ele>
        <time>2026-05-13T13:29:14.000Z</time>
      </trkpt>
      <trkpt lat="44.25344" lon="5.3867">
        <ele>947</ele>
        <time>2026-05-13T13:29:15.000Z</time>
      </trkpt>
      <trkpt lat="44.25343" lon="5.38671">
        <ele>946</ele>
        <time>2026-05-13T13:29:16.000Z</time>
      </trkpt>
      <trkpt lat="44.25342" lon="5.38673">
        <ele>947</ele>
        <time>2026-05-13T13:29:17.000Z</time>
      </trkpt>
      <trkpt lat="44.25341" lon="5.38675">
        <ele>947</ele>
        <time>2026-05-13T13:29:18.000Z</time>
      </trkpt>
      <trkpt lat="44.2534" lon="5.38677">
        <ele>947</ele>
        <time>2026-05-13T13:29:19.000Z</time>
      </trkpt>
      <trkpt lat="44.25339" lon="5.38679">
        <ele>946</ele>
        <time>2026-05-13T13:29:20.000Z</time>
      </trkpt>
      <trkpt lat="44.25338" lon="5.3868">
        <ele>945</ele>
        <time>2026-05-13T13:29:21.000Z</time>
      </trkpt>
      <trkpt lat="44.25337" lon="5.38682">
        <ele>946</ele>
        <time>2026-05-13T13:29:22.000Z</time>
      </trkpt>
      <trkpt lat="44.25336" lon="5.38684">
        <ele>946</ele>
        <time>2026-05-13T13:29:23.000Z</time>
      </trkpt>
      <trkpt lat="44.25335" lon="5.38687">
        <ele>946</ele>
        <time>2026-05-13T13:29:24.000Z</time>
      </trkpt>
      <trkpt lat="44.25335" lon="5.38689">
        <ele>946</ele>
        <time>2026-05-13T13:29:25.000Z</time>
      </trkpt>
      <trkpt lat="44.25334" lon="5.38691">
        <ele>946</ele>
        <time>2026-05-13T13:29:26.000Z</time>
      </trkpt>
      <trkpt lat="44.25333" lon="5.38693">
        <ele>945</ele>
        <time>2026-05-13T13:29:27.000Z</time>
      </trkpt>
      <trkpt lat="44.25332" lon="5.38695">
        <ele>945</ele>
        <time>2026-05-13T13:29:28.000Z</time>
      </trkpt>
      <trkpt lat="44.25331" lon="5.38697">
        <ele>945</ele>
        <time>2026-05-13T13:29:29.000Z</time>
      </trkpt>
      <trkpt lat="44.2533" lon="5.387">
        <ele>946</ele>
        <time>2026-05-13T13:29:30.000Z</time>
      </trkpt>
      <trkpt lat="44.25329" lon="5.38702">
        <ele>946</ele>
        <time>2026-05-13T13:29:31.000Z</time>
      </trkpt>
      <trkpt lat="44.25327" lon="5.38704">
        <ele>946</ele>
        <time>2026-05-13T13:29:32.000Z</time>
      </trkpt>
      <trkpt lat="44.25326" lon="5.38706">
        <ele>947</ele>
        <time>2026-05-13T13:29:33.000Z</time>
      </trkpt>
      <trkpt lat="44.25325" lon="5.38709">
        <ele>947</ele>
        <time>2026-05-13T13:29:34.000Z</time>
      </trkpt>
      <trkpt lat="44.25323" lon="5.3871">
        <ele>947</ele>
        <time>2026-05-13T13:29:35.000Z</time>
      </trkpt>
      <trkpt lat="44.25322" lon="5.38713">
        <ele>947</ele>
        <time>2026-05-13T13:29:36.000Z</time>
      </trkpt>
      <trkpt lat="44.25321" lon="5.38715">
        <ele>947</ele>
        <time>2026-05-13T13:29:37.000Z</time>
      </trkpt>
      <trkpt lat="44.2532" lon="5.38717">
        <ele>947</ele>
        <time>2026-05-13T13:29:38.000Z</time>
      </trkpt>
      <trkpt lat="44.2532" lon="5.38719">
        <ele>946</ele>
        <time>2026-05-13T13:29:39.000Z</time>
      </trkpt>
      <trkpt lat="44.25319" lon="5.38722">
        <ele>947</ele>
        <time>2026-05-13T13:29:40.000Z</time>
      </trkpt>
      <trkpt lat="44.25318" lon="5.38724">
        <ele>947</ele>
        <time>2026-05-13T13:29:41.000Z</time>
      </trkpt>
      <trkpt lat="44.25317" lon="5.38725">
        <ele>947</ele>
        <time>2026-05-13T13:29:42.000Z</time>
      </trkpt>
      <trkpt lat="44.25316" lon="5.38728">
        <ele>947</ele>
        <time>2026-05-13T13:29:43.000Z</time>
      </trkpt>
      <trkpt lat="44.25315" lon="5.38729">
        <ele>947</ele>
        <time>2026-05-13T13:29:44.000Z</time>
      </trkpt>
      <trkpt lat="44.25314" lon="5.38731">
        <ele>948</ele>
        <time>2026-05-13T13:29:45.000Z</time>
      </trkpt>
      <trkpt lat="44.25314" lon="5.38733">
        <ele>948</ele>
        <time>2026-05-13T13:29:46.000Z</time>
      </trkpt>
      <trkpt lat="44.25313" lon="5.38735">
        <ele>947</ele>
        <time>2026-05-13T13:29:47.000Z</time>
      </trkpt>
      <trkpt lat="44.25312" lon="5.38737">
        <ele>947</ele>
        <time>2026-05-13T13:29:48.000Z</time>
      </trkpt>
      <trkpt lat="44.25311" lon="5.38739">
        <ele>948</ele>
        <time>2026-05-13T13:29:49.000Z</time>
      </trkpt>
      <trkpt lat="44.2531" lon="5.38741">
        <ele>948</ele>
        <time>2026-05-13T13:29:50.000Z</time>
      </trkpt>
      <trkpt lat="44.25309" lon="5.38743">
        <ele>948</ele>
        <time>2026-05-13T13:29:51.000Z</time>
      </trkpt>
      <trkpt lat="44.25308" lon="5.38744">
        <ele>948</ele>
        <time>2026-05-13T13:29:52.000Z</time>
      </trkpt>
      <trkpt lat="44.25308" lon="5.38746">
        <ele>948</ele>
        <time>2026-05-13T13:29:53.000Z</time>
      </trkpt>
      <trkpt lat="44.25306" lon="5.38748">
        <ele>948</ele>
        <time>2026-05-13T13:29:54.000Z</time>
      </trkpt>
      <trkpt lat="44.25305" lon="5.3875">
        <ele>949</ele>
        <time>2026-05-13T13:29:55.000Z</time>
      </trkpt>
      <trkpt lat="44.25304" lon="5.38752">
        <ele>949</ele>
        <time>2026-05-13T13:29:56.000Z</time>
      </trkpt>
      <trkpt lat="44.25304" lon="5.38754">
        <ele>949</ele>
        <time>2026-05-13T13:29:57.000Z</time>
      </trkpt>
      <trkpt lat="44.25302" lon="5.38756">
        <ele>949</ele>
        <time>2026-05-13T13:29:58.000Z</time>
      </trkpt>
      <trkpt lat="44.25302" lon="5.38757">
        <ele>949</ele>
        <time>2026-05-13T13:29:59.000Z</time>
      </trkpt>
      <trkpt lat="44.25302" lon="5.38759">
        <ele>949</ele>
        <time>2026-05-13T13:30:00.000Z</time>
      </trkpt>
      <trkpt lat="44.25301" lon="5.38762">
        <ele>948</ele>
        <time>2026-05-13T13:30:01.000Z</time>
      </trkpt>
      <trkpt lat="44.25301" lon="5.38763">
        <ele>947</ele>
        <time>2026-05-13T13:30:02.000Z</time>
      </trkpt>
      <trkpt lat="44.253" lon="5.38766">
        <ele>948</ele>
        <time>2026-05-13T13:30:03.000Z</time>
      </trkpt>
      <trkpt lat="44.25299" lon="5.38767">
        <ele>948</ele>
        <time>2026-05-13T13:30:04.000Z</time>
      </trkpt>
      <trkpt lat="44.25298" lon="5.38768">
        <ele>948</ele>
        <time>2026-05-13T13:30:05.000Z</time>
      </trkpt>
      <trkpt lat="44.25297" lon="5.38771">
        <ele>948</ele>
        <time>2026-05-13T13:30:06.000Z</time>
      </trkpt>
      <trkpt lat="44.25297" lon="5.38773">
        <ele>948</ele>
        <time>2026-05-13T13:30:07.000Z</time>
      </trkpt>
      <trkpt lat="44.25296" lon="5.38776">
        <ele>948</ele>
        <time>2026-05-13T13:30:08.000Z</time>
      </trkpt>
      <trkpt lat="44.25296" lon="5.38778">
        <ele>948</ele>
        <time>2026-05-13T13:30:09.000Z</time>
      </trkpt>
      <trkpt lat="44.25295" lon="5.38781">
        <ele>948</ele>
        <time>2026-05-13T13:30:10.000Z</time>
      </trkpt>
      <trkpt lat="44.25295" lon="5.38783">
        <ele>948</ele>
        <time>2026-05-13T13:30:11.000Z</time>
      </trkpt>
      <trkpt lat="44.25295" lon="5.38786">
        <ele>949</ele>
        <time>2026-05-13T13:30:12.000Z</time>
      </trkpt>
      <trkpt lat="44.25294" lon="5.38788">
        <ele>950</ele>
        <time>2026-05-13T13:30:13.000Z</time>
      </trkpt>
      <trkpt lat="44.25293" lon="5.38789">
        <ele>950</ele>
        <time>2026-05-13T13:30:14.000Z</time>
      </trkpt>
      <trkpt lat="44.25293" lon="5.38791">
        <ele>951</ele>
        <time>2026-05-13T13:30:15.000Z</time>
      </trkpt>
      <trkpt lat="44.25292" lon="5.38793">
        <ele>951</ele>
        <time>2026-05-13T13:30:16.000Z</time>
      </trkpt>
      <trkpt lat="44.25291" lon="5.38795">
        <ele>951</ele>
        <time>2026-05-13T13:30:17.000Z</time>
      </trkpt>
      <trkpt lat="44.2529" lon="5.38797">
        <ele>951</ele>
        <time>2026-05-13T13:30:18.000Z</time>
      </trkpt>
      <trkpt lat="44.25289" lon="5.38799">
        <ele>951</ele>
        <time>2026-05-13T13:30:19.000Z</time>
      </trkpt>
      <trkpt lat="44.25289" lon="5.38801">
        <ele>951</ele>
        <time>2026-05-13T13:30:20.000Z</time>
      </trkpt>
      <trkpt lat="44.25288" lon="5.38803">
        <ele>951</ele>
        <time>2026-05-13T13:30:21.000Z</time>
      </trkpt>
      <trkpt lat="44.25288" lon="5.38805">
        <ele>951</ele>
        <time>2026-05-13T13:30:22.000Z</time>
      </trkpt>
      <trkpt lat="44.25287" lon="5.38807">
        <ele>951</ele>
        <time>2026-05-13T13:30:23.000Z</time>
      </trkpt>
      <trkpt lat="44.25286" lon="5.38808">
        <ele>951</ele>
        <time>2026-05-13T13:30:24.000Z</time>
      </trkpt>
      <trkpt lat="44.25285" lon="5.3881">
        <ele>950</ele>
        <time>2026-05-13T13:30:25.000Z</time>
      </trkpt>
      <trkpt lat="44.25284" lon="5.38812">
        <ele>950</ele>
        <time>2026-05-13T13:30:26.000Z</time>
      </trkpt>
      <trkpt lat="44.25283" lon="5.38814">
        <ele>951</ele>
        <time>2026-05-13T13:30:27.000Z</time>
      </trkpt>
      <trkpt lat="44.25282" lon="5.38815">
        <ele>951</ele>
        <time>2026-05-13T13:30:28.000Z</time>
      </trkpt>
      <trkpt lat="44.25281" lon="5.38817">
        <ele>951</ele>
        <time>2026-05-13T13:30:29.000Z</time>
      </trkpt>
      <trkpt lat="44.2528" lon="5.38819">
        <ele>951</ele>
        <time>2026-05-13T13:30:30.000Z</time>
      </trkpt>
      <trkpt lat="44.25279" lon="5.38821">
        <ele>951</ele>
        <time>2026-05-13T13:30:31.000Z</time>
      </trkpt>
      <trkpt lat="44.25278" lon="5.38823">
        <ele>951</ele>
        <time>2026-05-13T13:30:32.000Z</time>
      </trkpt>
      <trkpt lat="44.25277" lon="5.38826">
        <ele>952</ele>
        <time>2026-05-13T13:30:33.000Z</time>
      </trkpt>
      <trkpt lat="44.25277" lon="5.38828">
        <ele>951</ele>
        <time>2026-05-13T13:30:34.000Z</time>
      </trkpt>
      <trkpt lat="44.25276" lon="5.3883">
        <ele>952</ele>
        <time>2026-05-13T13:30:35.000Z</time>
      </trkpt>
      <trkpt lat="44.25275" lon="5.38831">
        <ele>953</ele>
        <time>2026-05-13T13:30:36.000Z</time>
      </trkpt>
      <trkpt lat="44.25274" lon="5.38833">
        <ele>953</ele>
        <time>2026-05-13T13:30:37.000Z</time>
      </trkpt>
      <trkpt lat="44.25272" lon="5.38835">
        <ele>953</ele>
        <time>2026-05-13T13:30:38.000Z</time>
      </trkpt>
      <trkpt lat="44.25271" lon="5.38837">
        <ele>953</ele>
        <time>2026-05-13T13:30:39.000Z</time>
      </trkpt>
      <trkpt lat="44.2527" lon="5.38839">
        <ele>954</ele>
        <time>2026-05-13T13:30:40.000Z</time>
      </trkpt>
      <trkpt lat="44.25269" lon="5.3884">
        <ele>954</ele>
        <time>2026-05-13T13:30:41.000Z</time>
      </trkpt>
      <trkpt lat="44.25268" lon="5.38842">
        <ele>954</ele>
        <time>2026-05-13T13:30:42.000Z</time>
      </trkpt>
      <trkpt lat="44.25267" lon="5.38844">
        <ele>954</ele>
        <time>2026-05-13T13:30:43.000Z</time>
      </trkpt>
      <trkpt lat="44.25266" lon="5.38846">
        <ele>954</ele>
        <time>2026-05-13T13:30:44.000Z</time>
      </trkpt>
      <trkpt lat="44.25265" lon="5.38848">
        <ele>954</ele>
        <time>2026-05-13T13:30:45.000Z</time>
      </trkpt>
      <trkpt lat="44.25265" lon="5.3885">
        <ele>954</ele>
        <time>2026-05-13T13:30:46.000Z</time>
      </trkpt>
      <trkpt lat="44.25264" lon="5.38851">
        <ele>955</ele>
        <time>2026-05-13T13:30:47.000Z</time>
      </trkpt>
      <trkpt lat="44.25263" lon="5.38853">
        <ele>955</ele>
        <time>2026-05-13T13:30:48.000Z</time>
      </trkpt>
      <trkpt lat="44.25263" lon="5.38855">
        <ele>955</ele>
        <time>2026-05-13T13:30:49.000Z</time>
      </trkpt>
      <trkpt lat="44.25262" lon="5.38857">
        <ele>954</ele>
        <time>2026-05-13T13:30:50.000Z</time>
      </trkpt>
      <trkpt lat="44.25261" lon="5.38859">
        <ele>955</ele>
        <time>2026-05-13T13:30:51.000Z</time>
      </trkpt>
      <trkpt lat="44.2526" lon="5.38862">
        <ele>955</ele>
        <time>2026-05-13T13:30:52.000Z</time>
      </trkpt>
      <trkpt lat="44.25259" lon="5.38863">
        <ele>955</ele>
        <time>2026-05-13T13:30:53.000Z</time>
      </trkpt>
      <trkpt lat="44.25258" lon="5.38866">
        <ele>955</ele>
        <time>2026-05-13T13:30:54.000Z</time>
      </trkpt>
      <trkpt lat="44.25258" lon="5.38867">
        <ele>955</ele>
        <time>2026-05-13T13:30:55.000Z</time>
      </trkpt>
      <trkpt lat="44.25257" lon="5.3887">
        <ele>955</ele>
        <time>2026-05-13T13:30:56.000Z</time>
      </trkpt>
      <trkpt lat="44.25256" lon="5.38871">
        <ele>955</ele>
        <time>2026-05-13T13:30:57.000Z</time>
      </trkpt>
      <trkpt lat="44.25256" lon="5.38874">
        <ele>955</ele>
        <time>2026-05-13T13:30:58.000Z</time>
      </trkpt>
      <trkpt lat="44.25255" lon="5.38876">
        <ele>955</ele>
        <time>2026-05-13T13:30:59.000Z</time>
      </trkpt>
      <trkpt lat="44.25255" lon="5.38878">
        <ele>956</ele>
        <time>2026-05-13T13:31:00.000Z</time>
      </trkpt>
      <trkpt lat="44.25255" lon="5.3888">
        <ele>956</ele>
        <time>2026-05-13T13:31:01.000Z</time>
      </trkpt>
      <trkpt lat="44.25254" lon="5.38882">
        <ele>956</ele>
        <time>2026-05-13T13:31:02.000Z</time>
      </trkpt>
      <trkpt lat="44.25254" lon="5.38883">
        <ele>957</ele>
        <time>2026-05-13T13:31:03.000Z</time>
      </trkpt>
      <trkpt lat="44.25253" lon="5.38886">
        <ele>957</ele>
        <time>2026-05-13T13:31:04.000Z</time>
      </trkpt>
      <trkpt lat="44.25253" lon="5.38888">
        <ele>958</ele>
        <time>2026-05-13T13:31:05.000Z</time>
      </trkpt>
      <trkpt lat="44.25252" lon="5.38891">
        <ele>958</ele>
        <time>2026-05-13T13:31:06.000Z</time>
      </trkpt>
      <trkpt lat="44.25252" lon="5.38893">
        <ele>958</ele>
        <time>2026-05-13T13:31:07.000Z</time>
      </trkpt>
      <trkpt lat="44.25251" lon="5.38895">
        <ele>958</ele>
        <time>2026-05-13T13:31:08.000Z</time>
      </trkpt>
      <trkpt lat="44.25251" lon="5.38898">
        <ele>957</ele>
        <time>2026-05-13T13:31:09.000Z</time>
      </trkpt>
      <trkpt lat="44.25251" lon="5.38901">
        <ele>957</ele>
        <time>2026-05-13T13:31:10.000Z</time>
      </trkpt>
      <trkpt lat="44.25251" lon="5.38904">
        <ele>956</ele>
        <time>2026-05-13T13:31:11.000Z</time>
      </trkpt>
      <trkpt lat="44.25251" lon="5.38906">
        <ele>957</ele>
        <time>2026-05-13T13:31:12.000Z</time>
      </trkpt>
      <trkpt lat="44.2525" lon="5.38909">
        <ele>957</ele>
        <time>2026-05-13T13:31:13.000Z</time>
      </trkpt>
      <trkpt lat="44.25249" lon="5.3891">
        <ele>958</ele>
        <time>2026-05-13T13:31:14.000Z</time>
      </trkpt>
      <trkpt lat="44.25248" lon="5.38912">
        <ele>957</ele>
        <time>2026-05-13T13:31:15.000Z</time>
      </trkpt>
      <trkpt lat="44.25247" lon="5.38914">
        <ele>957</ele>
        <time>2026-05-13T13:31:16.000Z</time>
      </trkpt>
      <trkpt lat="44.25247" lon="5.38917">
        <ele>957</ele>
        <time>2026-05-13T13:31:17.000Z</time>
      </trkpt>
      <trkpt lat="44.25246" lon="5.3892">
        <ele>957</ele>
        <time>2026-05-13T13:31:18.000Z</time>
      </trkpt>
      <trkpt lat="44.25245" lon="5.38922">
        <ele>957</ele>
        <time>2026-05-13T13:31:19.000Z</time>
      </trkpt>
      <trkpt lat="44.25244" lon="5.38924">
        <ele>957</ele>
        <time>2026-05-13T13:31:20.000Z</time>
      </trkpt>
      <trkpt lat="44.25243" lon="5.38925">
        <ele>958</ele>
        <time>2026-05-13T13:31:21.000Z</time>
      </trkpt>
      <trkpt lat="44.25241" lon="5.38926">
        <ele>958</ele>
        <time>2026-05-13T13:31:22.000Z</time>
      </trkpt>
      <trkpt lat="44.2524" lon="5.38928">
        <ele>959</ele>
        <time>2026-05-13T13:31:23.000Z</time>
      </trkpt>
      <trkpt lat="44.25238" lon="5.38929">
        <ele>959</ele>
        <time>2026-05-13T13:31:24.000Z</time>
      </trkpt>
      <trkpt lat="44.25237" lon="5.38931">
        <ele>959</ele>
        <time>2026-05-13T13:31:25.000Z</time>
      </trkpt>
      <trkpt lat="44.25235" lon="5.38932">
        <ele>959</ele>
        <time>2026-05-13T13:31:26.000Z</time>
      </trkpt>
      <trkpt lat="44.25233" lon="5.38933">
        <ele>960</ele>
        <time>2026-05-13T13:31:27.000Z</time>
      </trkpt>
      <trkpt lat="44.25232" lon="5.38934">
        <ele>960</ele>
        <time>2026-05-13T13:31:28.000Z</time>
      </trkpt>
      <trkpt lat="44.2523" lon="5.38934">
        <ele>960</ele>
        <time>2026-05-13T13:31:29.000Z</time>
      </trkpt>
      <trkpt lat="44.25227" lon="5.38935">
        <ele>960</ele>
        <time>2026-05-13T13:31:30.000Z</time>
      </trkpt>
      <trkpt lat="44.25225" lon="5.38935">
        <ele>960</ele>
        <time>2026-05-13T13:31:31.000Z</time>
      </trkpt>
      <trkpt lat="44.25223" lon="5.38936">
        <ele>960</ele>
        <time>2026-05-13T13:31:32.000Z</time>
      </trkpt>
      <trkpt lat="44.25222" lon="5.38937">
        <ele>961</ele>
        <time>2026-05-13T13:31:33.000Z</time>
      </trkpt>
      <trkpt lat="44.2522" lon="5.38938">
        <ele>962</ele>
        <time>2026-05-13T13:31:34.000Z</time>
      </trkpt>
      <trkpt lat="44.25219" lon="5.38938">
        <ele>962</ele>
        <time>2026-05-13T13:31:35.000Z</time>
      </trkpt>
      <trkpt lat="44.25217" lon="5.38939">
        <ele>962</ele>
        <time>2026-05-13T13:31:36.000Z</time>
      </trkpt>
      <trkpt lat="44.25216" lon="5.3894">
        <ele>962</ele>
        <time>2026-05-13T13:31:37.000Z</time>
      </trkpt>
      <trkpt lat="44.25214" lon="5.38941">
        <ele>962</ele>
        <time>2026-05-13T13:31:38.000Z</time>
      </trkpt>
      <trkpt lat="44.25213" lon="5.38942">
        <ele>962</ele>
        <time>2026-05-13T13:31:39.000Z</time>
      </trkpt>
      <trkpt lat="44.25212" lon="5.38944">
        <ele>962</ele>
        <time>2026-05-13T13:31:40.000Z</time>
      </trkpt>
      <trkpt lat="44.2521" lon="5.38945">
        <ele>963</ele>
        <time>2026-05-13T13:31:41.000Z</time>
      </trkpt>
      <trkpt lat="44.25209" lon="5.38947">
        <ele>963</ele>
        <time>2026-05-13T13:31:42.000Z</time>
      </trkpt>
      <trkpt lat="44.25208" lon="5.38948">
        <ele>963</ele>
        <time>2026-05-13T13:31:43.000Z</time>
      </trkpt>
      <trkpt lat="44.25206" lon="5.3895">
        <ele>964</ele>
        <time>2026-05-13T13:31:44.000Z</time>
      </trkpt>
      <trkpt lat="44.25205" lon="5.38951">
        <ele>964</ele>
        <time>2026-05-13T13:31:45.000Z</time>
      </trkpt>
      <trkpt lat="44.25204" lon="5.38953">
        <ele>963</ele>
        <time>2026-05-13T13:31:46.000Z</time>
      </trkpt>
      <trkpt lat="44.25203" lon="5.38955">
        <ele>963</ele>
        <time>2026-05-13T13:31:47.000Z</time>
      </trkpt>
      <trkpt lat="44.25202" lon="5.38957">
        <ele>963</ele>
        <time>2026-05-13T13:31:48.000Z</time>
      </trkpt>
      <trkpt lat="44.25201" lon="5.38959">
        <ele>963</ele>
        <time>2026-05-13T13:31:49.000Z</time>
      </trkpt>
      <trkpt lat="44.25199" lon="5.38961">
        <ele>963</ele>
        <time>2026-05-13T13:31:50.000Z</time>
      </trkpt>
      <trkpt lat="44.25199" lon="5.38964">
        <ele>963</ele>
        <time>2026-05-13T13:31:51.000Z</time>
      </trkpt>
      <trkpt lat="44.25197" lon="5.38966">
        <ele>963</ele>
        <time>2026-05-13T13:31:52.000Z</time>
      </trkpt>
      <trkpt lat="44.25196" lon="5.38968">
        <ele>963</ele>
        <time>2026-05-13T13:31:53.000Z</time>
      </trkpt>
      <trkpt lat="44.25195" lon="5.3897">
        <ele>963</ele>
        <time>2026-05-13T13:31:54.000Z</time>
      </trkpt>
      <trkpt lat="44.25194" lon="5.38972">
        <ele>964</ele>
        <time>2026-05-13T13:31:55.000Z</time>
      </trkpt>
      <trkpt lat="44.25193" lon="5.38973">
        <ele>964</ele>
        <time>2026-05-13T13:31:56.000Z</time>
      </trkpt>
      <trkpt lat="44.25192" lon="5.38975">
        <ele>964</ele>
        <time>2026-05-13T13:31:57.000Z</time>
      </trkpt>
      <trkpt lat="44.25191" lon="5.38976">
        <ele>963</ele>
        <time>2026-05-13T13:31:58.000Z</time>
      </trkpt>
      <trkpt lat="44.25191" lon="5.38977">
        <ele>963</ele>
        <time>2026-05-13T13:31:59.000Z</time>
      </trkpt>
      <trkpt lat="44.2519" lon="5.38979">
        <ele>963</ele>
        <time>2026-05-13T13:32:00.000Z</time>
      </trkpt>
      <trkpt lat="44.2519" lon="5.38981">
        <ele>962</ele>
        <time>2026-05-13T13:32:01.000Z</time>
      </trkpt>
      <trkpt lat="44.25189" lon="5.38983">
        <ele>962</ele>
        <time>2026-05-13T13:32:02.000Z</time>
      </trkpt>
      <trkpt lat="44.25189" lon="5.38985">
        <ele>962</ele>
        <time>2026-05-13T13:32:03.000Z</time>
      </trkpt>
      <trkpt lat="44.25189" lon="5.38988">
        <ele>962</ele>
        <time>2026-05-13T13:32:04.000Z</time>
      </trkpt>
      <trkpt lat="44.25188" lon="5.3899">
        <ele>961</ele>
        <time>2026-05-13T13:32:05.000Z</time>
      </trkpt>
      <trkpt lat="44.25187" lon="5.38991">
        <ele>961</ele>
        <time>2026-05-13T13:32:06.000Z</time>
      </trkpt>
      <trkpt lat="44.25186" lon="5.38993">
        <ele>961</ele>
        <time>2026-05-13T13:32:07.000Z</time>
      </trkpt>
      <trkpt lat="44.25186" lon="5.38995">
        <ele>961</ele>
        <time>2026-05-13T13:32:08.000Z</time>
      </trkpt>
      <trkpt lat="44.25186" lon="5.38997">
        <ele>961</ele>
        <time>2026-05-13T13:32:09.000Z</time>
      </trkpt>
      <trkpt lat="44.25186" lon="5.38999">
        <ele>962</ele>
        <time>2026-05-13T13:32:10.000Z</time>
      </trkpt>
      <trkpt lat="44.25186" lon="5.39002">
        <ele>961</ele>
        <time>2026-05-13T13:32:11.000Z</time>
      </trkpt>
      <trkpt lat="44.25186" lon="5.39004">
        <ele>962</ele>
        <time>2026-05-13T13:32:12.000Z</time>
      </trkpt>
      <trkpt lat="44.25185" lon="5.39007">
        <ele>961</ele>
        <time>2026-05-13T13:32:13.000Z</time>
      </trkpt>
      <trkpt lat="44.25185" lon="5.39009">
        <ele>961</ele>
        <time>2026-05-13T13:32:14.000Z</time>
      </trkpt>
      <trkpt lat="44.25184" lon="5.39011">
        <ele>961</ele>
        <time>2026-05-13T13:32:15.000Z</time>
      </trkpt>
      <trkpt lat="44.25183" lon="5.39014">
        <ele>961</ele>
        <time>2026-05-13T13:32:16.000Z</time>
      </trkpt>
      <trkpt lat="44.25183" lon="5.39016">
        <ele>961</ele>
        <time>2026-05-13T13:32:17.000Z</time>
      </trkpt>
      <trkpt lat="44.25183" lon="5.39019">
        <ele>962</ele>
        <time>2026-05-13T13:32:18.000Z</time>
      </trkpt>
      <trkpt lat="44.25182" lon="5.39022">
        <ele>962</ele>
        <time>2026-05-13T13:32:19.000Z</time>
      </trkpt>
      <trkpt lat="44.25182" lon="5.39024">
        <ele>962</ele>
        <time>2026-05-13T13:32:20.000Z</time>
      </trkpt>
      <trkpt lat="44.25181" lon="5.39026">
        <ele>962</ele>
        <time>2026-05-13T13:32:21.000Z</time>
      </trkpt>
      <trkpt lat="44.2518" lon="5.39028">
        <ele>963</ele>
        <time>2026-05-13T13:32:22.000Z</time>
      </trkpt>
      <trkpt lat="44.2518" lon="5.3903">
        <ele>964</ele>
        <time>2026-05-13T13:32:23.000Z</time>
      </trkpt>
      <trkpt lat="44.25179" lon="5.39032">
        <ele>964</ele>
        <time>2026-05-13T13:32:24.000Z</time>
      </trkpt>
      <trkpt lat="44.25177" lon="5.39034">
        <ele>965</ele>
        <time>2026-05-13T13:32:25.000Z</time>
      </trkpt>
      <trkpt lat="44.25176" lon="5.39035">
        <ele>965</ele>
        <time>2026-05-13T13:32:26.000Z</time>
      </trkpt>
      <trkpt lat="44.25175" lon="5.39037">
        <ele>965</ele>
        <time>2026-05-13T13:32:27.000Z</time>
      </trkpt>
      <trkpt lat="44.25174" lon="5.39039">
        <ele>966</ele>
        <time>2026-05-13T13:32:28.000Z</time>
      </trkpt>
      <trkpt lat="44.25174" lon="5.39041">
        <ele>966</ele>
        <time>2026-05-13T13:32:29.000Z</time>
      </trkpt>
      <trkpt lat="44.25173" lon="5.39043">
        <ele>966</ele>
        <time>2026-05-13T13:32:30.000Z</time>
      </trkpt>
      <trkpt lat="44.25172" lon="5.39046">
        <ele>966</ele>
        <time>2026-05-13T13:32:31.000Z</time>
      </trkpt>
      <trkpt lat="44.25171" lon="5.39047">
        <ele>966</ele>
        <time>2026-05-13T13:32:32.000Z</time>
      </trkpt>
      <trkpt lat="44.25171" lon="5.3905">
        <ele>967</ele>
        <time>2026-05-13T13:32:33.000Z</time>
      </trkpt>
      <trkpt lat="44.2517" lon="5.39052">
        <ele>966</ele>
        <time>2026-05-13T13:32:34.000Z</time>
      </trkpt>
      <trkpt lat="44.2517" lon="5.39054">
        <ele>966</ele>
        <time>2026-05-13T13:32:35.000Z</time>
      </trkpt>
      <trkpt lat="44.25169" lon="5.39057">
        <ele>967</ele>
        <time>2026-05-13T13:32:36.000Z</time>
      </trkpt>
      <trkpt lat="44.25168" lon="5.39059">
        <ele>967</ele>
        <time>2026-05-13T13:32:37.000Z</time>
      </trkpt>
      <trkpt lat="44.25167" lon="5.39061">
        <ele>967</ele>
        <time>2026-05-13T13:32:38.000Z</time>
      </trkpt>
      <trkpt lat="44.25166" lon="5.39063">
        <ele>967</ele>
        <time>2026-05-13T13:32:39.000Z</time>
      </trkpt>
      <trkpt lat="44.25165" lon="5.39065">
        <ele>967</ele>
        <time>2026-05-13T13:32:40.000Z</time>
      </trkpt>
      <trkpt lat="44.25164" lon="5.39066">
        <ele>967</ele>
        <time>2026-05-13T13:32:41.000Z</time>
      </trkpt>
      <trkpt lat="44.25164" lon="5.39069">
        <ele>968</ele>
        <time>2026-05-13T13:32:42.000Z</time>
      </trkpt>
      <trkpt lat="44.25163" lon="5.3907">
        <ele>968</ele>
        <time>2026-05-13T13:32:43.000Z</time>
      </trkpt>
      <trkpt lat="44.25163" lon="5.39072">
        <ele>968</ele>
        <time>2026-05-13T13:32:44.000Z</time>
      </trkpt>
      <trkpt lat="44.25162" lon="5.39075">
        <ele>968</ele>
        <time>2026-05-13T13:32:45.000Z</time>
      </trkpt>
      <trkpt lat="44.25162" lon="5.39077">
        <ele>968</ele>
        <time>2026-05-13T13:32:46.000Z</time>
      </trkpt>
      <trkpt lat="44.25162" lon="5.39079">
        <ele>968</ele>
        <time>2026-05-13T13:32:47.000Z</time>
      </trkpt>
      <trkpt lat="44.25162" lon="5.39081">
        <ele>968</ele>
        <time>2026-05-13T13:32:48.000Z</time>
      </trkpt>
      <trkpt lat="44.25162" lon="5.39084">
        <ele>968</ele>
        <time>2026-05-13T13:32:49.000Z</time>
      </trkpt>
      <trkpt lat="44.25161" lon="5.39086">
        <ele>968</ele>
        <time>2026-05-13T13:32:50.000Z</time>
      </trkpt>
      <trkpt lat="44.25162" lon="5.39088">
        <ele>968</ele>
        <time>2026-05-13T13:32:51.000Z</time>
      </trkpt>
      <trkpt lat="44.25162" lon="5.3909">
        <ele>968</ele>
        <time>2026-05-13T13:32:52.000Z</time>
      </trkpt>
      <trkpt lat="44.25162" lon="5.39093">
        <ele>969</ele>
        <time>2026-05-13T13:32:53.000Z</time>
      </trkpt>
      <trkpt lat="44.25163" lon="5.39095">
        <ele>969</ele>
        <time>2026-05-13T13:32:54.000Z</time>
      </trkpt>
      <trkpt lat="44.25163" lon="5.39098">
        <ele>969</ele>
        <time>2026-05-13T13:32:55.000Z</time>
      </trkpt>
      <trkpt lat="44.25164" lon="5.391">
        <ele>968</ele>
        <time>2026-05-13T13:32:56.000Z</time>
      </trkpt>
      <trkpt lat="44.25164" lon="5.39102">
        <ele>968</ele>
        <time>2026-05-13T13:32:57.000Z</time>
      </trkpt>
      <trkpt lat="44.25164" lon="5.39105">
        <ele>968</ele>
        <time>2026-05-13T13:32:58.000Z</time>
      </trkpt>
      <trkpt lat="44.25165" lon="5.39107">
        <ele>969</ele>
        <time>2026-05-13T13:32:59.000Z</time>
      </trkpt>
      <trkpt lat="44.25165" lon="5.3911">
        <ele>969</ele>
        <time>2026-05-13T13:33:00.000Z</time>
      </trkpt>
      <trkpt lat="44.25166" lon="5.39112">
        <ele>970</ele>
        <time>2026-05-13T13:33:01.000Z</time>
      </trkpt>
      <trkpt lat="44.25166" lon="5.39114">
        <ele>970</ele>
        <time>2026-05-13T13:33:02.000Z</time>
      </trkpt>
      <trkpt lat="44.25166" lon="5.39117">
        <ele>970</ele>
        <time>2026-05-13T13:33:03.000Z</time>
      </trkpt>
      <trkpt lat="44.25167" lon="5.3912">
        <ele>970</ele>
        <time>2026-05-13T13:33:04.000Z</time>
      </trkpt>
      <trkpt lat="44.25167" lon="5.39121">
        <ele>970</ele>
        <time>2026-05-13T13:33:05.000Z</time>
      </trkpt>
      <trkpt lat="44.25167" lon="5.39124">
        <ele>970</ele>
        <time>2026-05-13T13:33:06.000Z</time>
      </trkpt>
      <trkpt lat="44.25167" lon="5.39126">
        <ele>969</ele>
        <time>2026-05-13T13:33:07.000Z</time>
      </trkpt>
      <trkpt lat="44.25168" lon="5.39129">
        <ele>970</ele>
        <time>2026-05-13T13:33:08.000Z</time>
      </trkpt>
      <trkpt lat="44.25169" lon="5.39131">
        <ele>969</ele>
        <time>2026-05-13T13:33:09.000Z</time>
      </trkpt>
      <trkpt lat="44.2517" lon="5.39133">
        <ele>969</ele>
        <time>2026-05-13T13:33:10.000Z</time>
      </trkpt>
      <trkpt lat="44.25171" lon="5.39135">
        <ele>969</ele>
        <time>2026-05-13T13:33:11.000Z</time>
      </trkpt>
      <trkpt lat="44.25171" lon="5.39137">
        <ele>969</ele>
        <time>2026-05-13T13:33:12.000Z</time>
      </trkpt>
      <trkpt lat="44.25172" lon="5.3914">
        <ele>970</ele>
        <time>2026-05-13T13:33:13.000Z</time>
      </trkpt>
      <trkpt lat="44.25173" lon="5.39142">
        <ele>970</ele>
        <time>2026-05-13T13:33:14.000Z</time>
      </trkpt>
      <trkpt lat="44.25174" lon="5.39144">
        <ele>970</ele>
        <time>2026-05-13T13:33:15.000Z</time>
      </trkpt>
      <trkpt lat="44.25175" lon="5.39146">
        <ele>969</ele>
        <time>2026-05-13T13:33:16.000Z</time>
      </trkpt>
      <trkpt lat="44.25175" lon="5.39149">
        <ele>969</ele>
        <time>2026-05-13T13:33:17.000Z</time>
      </trkpt>
      <trkpt lat="44.25175" lon="5.39151">
        <ele>970</ele>
        <time>2026-05-13T13:33:18.000Z</time>
      </trkpt>
      <trkpt lat="44.25175" lon="5.39153">
        <ele>970</ele>
        <time>2026-05-13T13:33:19.000Z</time>
      </trkpt>
      <trkpt lat="44.25176" lon="5.39155">
        <ele>970</ele>
        <time>2026-05-13T13:33:20.000Z</time>
      </trkpt>
      <trkpt lat="44.25177" lon="5.39157">
        <ele>970</ele>
        <time>2026-05-13T13:33:21.000Z</time>
      </trkpt>
      <trkpt lat="44.25177" lon="5.3916">
        <ele>970</ele>
        <time>2026-05-13T13:33:22.000Z</time>
      </trkpt>
      <trkpt lat="44.25178" lon="5.39163">
        <ele>970</ele>
        <time>2026-05-13T13:33:23.000Z</time>
      </trkpt>
      <trkpt lat="44.25178" lon="5.39165">
        <ele>970</ele>
        <time>2026-05-13T13:33:24.000Z</time>
      </trkpt>
      <trkpt lat="44.25179" lon="5.39167">
        <ele>971</ele>
        <time>2026-05-13T13:33:25.000Z</time>
      </trkpt>
      <trkpt lat="44.25179" lon="5.3917">
        <ele>970</ele>
        <time>2026-05-13T13:33:26.000Z</time>
      </trkpt>
      <trkpt lat="44.25179" lon="5.39173">
        <ele>971</ele>
        <time>2026-05-13T13:33:27.000Z</time>
      </trkpt>
      <trkpt lat="44.25179" lon="5.39175">
        <ele>971</ele>
        <time>2026-05-13T13:33:28.000Z</time>
      </trkpt>
      <trkpt lat="44.25179" lon="5.39178">
        <ele>971</ele>
        <time>2026-05-13T13:33:29.000Z</time>
      </trkpt>
      <trkpt lat="44.2518" lon="5.39181">
        <ele>972</ele>
        <time>2026-05-13T13:33:30.000Z</time>
      </trkpt>
      <trkpt lat="44.2518" lon="5.39183">
        <ele>972</ele>
        <time>2026-05-13T13:33:31.000Z</time>
      </trkpt>
      <trkpt lat="44.25179" lon="5.39186">
        <ele>972</ele>
        <time>2026-05-13T13:33:32.000Z</time>
      </trkpt>
      <trkpt lat="44.2518" lon="5.39188">
        <ele>972</ele>
        <time>2026-05-13T13:33:33.000Z</time>
      </trkpt>
      <trkpt lat="44.2518" lon="5.3919">
        <ele>972</ele>
        <time>2026-05-13T13:33:34.000Z</time>
      </trkpt>
      <trkpt lat="44.2518" lon="5.39192">
        <ele>973</ele>
        <time>2026-05-13T13:33:35.000Z</time>
      </trkpt>
      <trkpt lat="44.25181" lon="5.39194">
        <ele>973</ele>
        <time>2026-05-13T13:33:36.000Z</time>
      </trkpt>
      <trkpt lat="44.25182" lon="5.39196">
        <ele>974</ele>
        <time>2026-05-13T13:33:37.000Z</time>
      </trkpt>
      <trkpt lat="44.25182" lon="5.39198">
        <ele>974</ele>
        <time>2026-05-13T13:33:38.000Z</time>
      </trkpt>
      <trkpt lat="44.25183" lon="5.39201">
        <ele>975</ele>
        <time>2026-05-13T13:33:39.000Z</time>
      </trkpt>
      <trkpt lat="44.25183" lon="5.39204">
        <ele>975</ele>
        <time>2026-05-13T13:33:40.000Z</time>
      </trkpt>
      <trkpt lat="44.25183" lon="5.39205">
        <ele>975</ele>
        <time>2026-05-13T13:33:41.000Z</time>
      </trkpt>
      <trkpt lat="44.25184" lon="5.39208">
        <ele>975</ele>
        <time>2026-05-13T13:33:42.000Z</time>
      </trkpt>
      <trkpt lat="44.25184" lon="5.3921">
        <ele>975</ele>
        <time>2026-05-13T13:33:43.000Z</time>
      </trkpt>
      <trkpt lat="44.25185" lon="5.39212">
        <ele>975</ele>
        <time>2026-05-13T13:33:44.000Z</time>
      </trkpt>
      <trkpt lat="44.25186" lon="5.39214">
        <ele>976</ele>
        <time>2026-05-13T13:33:45.000Z</time>
      </trkpt>
      <trkpt lat="44.25186" lon="5.39216">
        <ele>976</ele>
        <time>2026-05-13T13:33:46.000Z</time>
      </trkpt>
      <trkpt lat="44.25186" lon="5.39219">
        <ele>976</ele>
        <time>2026-05-13T13:33:47.000Z</time>
      </trkpt>
      <trkpt lat="44.25187" lon="5.39221">
        <ele>976</ele>
        <time>2026-05-13T13:33:48.000Z</time>
      </trkpt>
      <trkpt lat="44.25187" lon="5.39224">
        <ele>975</ele>
        <time>2026-05-13T13:33:49.000Z</time>
      </trkpt>
      <trkpt lat="44.25188" lon="5.39226">
        <ele>976</ele>
        <time>2026-05-13T13:33:50.000Z</time>
      </trkpt>
      <trkpt lat="44.25189" lon="5.39228">
        <ele>976</ele>
        <time>2026-05-13T13:33:51.000Z</time>
      </trkpt>
      <trkpt lat="44.25189" lon="5.3923">
        <ele>976</ele>
        <time>2026-05-13T13:33:52.000Z</time>
      </trkpt>
      <trkpt lat="44.25189" lon="5.39233">
        <ele>976</ele>
        <time>2026-05-13T13:33:53.000Z</time>
      </trkpt>
      <trkpt lat="44.2519" lon="5.39235">
        <ele>976</ele>
        <time>2026-05-13T13:33:54.000Z</time>
      </trkpt>
      <trkpt lat="44.2519" lon="5.39237">
        <ele>976</ele>
        <time>2026-05-13T13:33:55.000Z</time>
      </trkpt>
      <trkpt lat="44.2519" lon="5.3924">
        <ele>976</ele>
        <time>2026-05-13T13:33:56.000Z</time>
      </trkpt>
      <trkpt lat="44.2519" lon="5.39243">
        <ele>976</ele>
        <time>2026-05-13T13:33:57.000Z</time>
      </trkpt>
      <trkpt lat="44.2519" lon="5.39245">
        <ele>976</ele>
        <time>2026-05-13T13:33:58.000Z</time>
      </trkpt>
      <trkpt lat="44.2519" lon="5.39248">
        <ele>976</ele>
        <time>2026-05-13T13:33:59.000Z</time>
      </trkpt>
      <trkpt lat="44.25191" lon="5.3925">
        <ele>976</ele>
        <time>2026-05-13T13:34:00.000Z</time>
      </trkpt>
      <trkpt lat="44.2519" lon="5.39252">
        <ele>976</ele>
        <time>2026-05-13T13:34:01.000Z</time>
      </trkpt>
      <trkpt lat="44.2519" lon="5.39254">
        <ele>976</ele>
        <time>2026-05-13T13:34:02.000Z</time>
      </trkpt>
      <trkpt lat="44.2519" lon="5.39256">
        <ele>976</ele>
        <time>2026-05-13T13:34:03.000Z</time>
      </trkpt>
      <trkpt lat="44.2519" lon="5.39258">
        <ele>976</ele>
        <time>2026-05-13T13:34:04.000Z</time>
      </trkpt>
      <trkpt lat="44.25189" lon="5.3926">
        <ele>976</ele>
        <time>2026-05-13T13:34:05.000Z</time>
      </trkpt>
      <trkpt lat="44.25189" lon="5.39262">
        <ele>977</ele>
        <time>2026-05-13T13:34:06.000Z</time>
      </trkpt>
      <trkpt lat="44.25189" lon="5.39264">
        <ele>977</ele>
        <time>2026-05-13T13:34:07.000Z</time>
      </trkpt>
      <trkpt lat="44.25189" lon="5.39267">
        <ele>977</ele>
        <time>2026-05-13T13:34:08.000Z</time>
      </trkpt>
      <trkpt lat="44.25189" lon="5.39269">
        <ele>977</ele>
        <time>2026-05-13T13:34:09.000Z</time>
      </trkpt>
      <trkpt lat="44.25188" lon="5.39271">
        <ele>977</ele>
        <time>2026-05-13T13:34:10.000Z</time>
      </trkpt>
      <trkpt lat="44.25187" lon="5.39274">
        <ele>978</ele>
        <time>2026-05-13T13:34:11.000Z</time>
      </trkpt>
      <trkpt lat="44.25187" lon="5.39276">
        <ele>978</ele>
        <time>2026-05-13T13:34:12.000Z</time>
      </trkpt>
      <trkpt lat="44.25186" lon="5.39278">
        <ele>978</ele>
        <time>2026-05-13T13:34:13.000Z</time>
      </trkpt>
      <trkpt lat="44.25185" lon="5.3928">
        <ele>977</ele>
        <time>2026-05-13T13:34:14.000Z</time>
      </trkpt>
      <trkpt lat="44.25184" lon="5.39283">
        <ele>977</ele>
        <time>2026-05-13T13:34:15.000Z</time>
      </trkpt>
      <trkpt lat="44.25184" lon="5.39286">
        <ele>977</ele>
        <time>2026-05-13T13:34:16.000Z</time>
      </trkpt>
      <trkpt lat="44.25183" lon="5.39288">
        <ele>977</ele>
        <time>2026-05-13T13:34:17.000Z</time>
      </trkpt>
      <trkpt lat="44.25182" lon="5.3929">
        <ele>978</ele>
        <time>2026-05-13T13:34:18.000Z</time>
      </trkpt>
      <trkpt lat="44.25181" lon="5.39292">
        <ele>978</ele>
        <time>2026-05-13T13:34:19.000Z</time>
      </trkpt>
      <trkpt lat="44.2518" lon="5.39293">
        <ele>978</ele>
        <time>2026-05-13T13:34:20.000Z</time>
      </trkpt>
      <trkpt lat="44.25178" lon="5.39295">
        <ele>978</ele>
        <time>2026-05-13T13:34:21.000Z</time>
      </trkpt>
      <trkpt lat="44.25178" lon="5.39297">
        <ele>978</ele>
        <time>2026-05-13T13:34:22.000Z</time>
      </trkpt>
      <trkpt lat="44.25177" lon="5.39299">
        <ele>979</ele>
        <time>2026-05-13T13:34:23.000Z</time>
      </trkpt>
      <trkpt lat="44.25177" lon="5.39301">
        <ele>979</ele>
        <time>2026-05-13T13:34:24.000Z</time>
      </trkpt>
      <trkpt lat="44.25176" lon="5.39303">
        <ele>979</ele>
        <time>2026-05-13T13:34:25.000Z</time>
      </trkpt>
      <trkpt lat="44.25175" lon="5.39305">
        <ele>979</ele>
        <time>2026-05-13T13:34:26.000Z</time>
      </trkpt>
      <trkpt lat="44.25174" lon="5.39306">
        <ele>979</ele>
        <time>2026-05-13T13:34:27.000Z</time>
      </trkpt>
      <trkpt lat="44.25173" lon="5.39308">
        <ele>979</ele>
        <time>2026-05-13T13:34:28.000Z</time>
      </trkpt>
      <trkpt lat="44.25173" lon="5.3931">
        <ele>980</ele>
        <time>2026-05-13T13:34:29.000Z</time>
      </trkpt>
      <trkpt lat="44.25173" lon="5.39312">
        <ele>980</ele>
        <time>2026-05-13T13:34:30.000Z</time>
      </trkpt>
      <trkpt lat="44.25172" lon="5.39315">
        <ele>979</ele>
        <time>2026-05-13T13:34:31.000Z</time>
      </trkpt>
      <trkpt lat="44.25171" lon="5.39317">
        <ele>979</ele>
        <time>2026-05-13T13:34:32.000Z</time>
      </trkpt>
      <trkpt lat="44.2517" lon="5.39319">
        <ele>980</ele>
        <time>2026-05-13T13:34:33.000Z</time>
      </trkpt>
      <trkpt lat="44.25169" lon="5.39321">
        <ele>979</ele>
        <time>2026-05-13T13:34:34.000Z</time>
      </trkpt>
      <trkpt lat="44.25167" lon="5.39323">
        <ele>980</ele>
        <time>2026-05-13T13:34:35.000Z</time>
      </trkpt>
      <trkpt lat="44.25167" lon="5.39325">
        <ele>980</ele>
        <time>2026-05-13T13:34:36.000Z</time>
      </trkpt>
      <trkpt lat="44.25166" lon="5.39327">
        <ele>981</ele>
        <time>2026-05-13T13:34:37.000Z</time>
      </trkpt>
      <trkpt lat="44.25165" lon="5.39329">
        <ele>981</ele>
        <time>2026-05-13T13:34:38.000Z</time>
      </trkpt>
      <trkpt lat="44.25164" lon="5.39331">
        <ele>981</ele>
        <time>2026-05-13T13:34:39.000Z</time>
      </trkpt>
      <trkpt lat="44.25163" lon="5.39333">
        <ele>981</ele>
        <time>2026-05-13T13:34:40.000Z</time>
      </trkpt>
      <trkpt lat="44.25163" lon="5.39334">
        <ele>981</ele>
        <time>2026-05-13T13:34:41.000Z</time>
      </trkpt>
      <trkpt lat="44.25162" lon="5.39337">
        <ele>981</ele>
        <time>2026-05-13T13:34:42.000Z</time>
      </trkpt>
      <trkpt lat="44.25161" lon="5.39339">
        <ele>981</ele>
        <time>2026-05-13T13:34:43.000Z</time>
      </trkpt>
      <trkpt lat="44.2516" lon="5.39341">
        <ele>982</ele>
        <time>2026-05-13T13:34:44.000Z</time>
      </trkpt>
      <trkpt lat="44.2516" lon="5.39342">
        <ele>982</ele>
        <time>2026-05-13T13:34:45.000Z</time>
      </trkpt>
      <trkpt lat="44.25158" lon="5.39344">
        <ele>982</ele>
        <time>2026-05-13T13:34:46.000Z</time>
      </trkpt>
      <trkpt lat="44.25157" lon="5.39346">
        <ele>982</ele>
        <time>2026-05-13T13:34:47.000Z</time>
      </trkpt>
      <trkpt lat="44.25156" lon="5.39348">
        <ele>982</ele>
        <time>2026-05-13T13:34:48.000Z</time>
      </trkpt>
      <trkpt lat="44.25155" lon="5.39349">
        <ele>982</ele>
        <time>2026-05-13T13:34:49.000Z</time>
      </trkpt>
      <trkpt lat="44.25154" lon="5.3935">
        <ele>983</ele>
        <time>2026-05-13T13:34:50.000Z</time>
      </trkpt>
      <trkpt lat="44.25152" lon="5.39352">
        <ele>983</ele>
        <time>2026-05-13T13:34:51.000Z</time>
      </trkpt>
      <trkpt lat="44.25151" lon="5.39354">
        <ele>984</ele>
        <time>2026-05-13T13:34:52.000Z</time>
      </trkpt>
      <trkpt lat="44.2515" lon="5.39355">
        <ele>983</ele>
        <time>2026-05-13T13:34:53.000Z</time>
      </trkpt>
      <trkpt lat="44.2515" lon="5.39357">
        <ele>984</ele>
        <time>2026-05-13T13:34:54.000Z</time>
      </trkpt>
      <trkpt lat="44.25149" lon="5.39359">
        <ele>984</ele>
        <time>2026-05-13T13:34:55.000Z</time>
      </trkpt>
      <trkpt lat="44.25148" lon="5.39361">
        <ele>985</ele>
        <time>2026-05-13T13:34:56.000Z</time>
      </trkpt>
      <trkpt lat="44.25147" lon="5.39363">
        <ele>985</ele>
        <time>2026-05-13T13:34:57.000Z</time>
      </trkpt>
      <trkpt lat="44.25146" lon="5.39365">
        <ele>985</ele>
        <time>2026-05-13T13:34:58.000Z</time>
      </trkpt>
      <trkpt lat="44.25145" lon="5.39367">
        <ele>985</ele>
        <time>2026-05-13T13:34:59.000Z</time>
      </trkpt>
      <trkpt lat="44.25144" lon="5.39369">
        <ele>985</ele>
        <time>2026-05-13T13:35:00.000Z</time>
      </trkpt>
      <trkpt lat="44.25143" lon="5.39371">
        <ele>985</ele>
        <time>2026-05-13T13:35:01.000Z</time>
      </trkpt>
      <trkpt lat="44.25142" lon="5.39373">
        <ele>986</ele>
        <time>2026-05-13T13:35:02.000Z</time>
      </trkpt>
      <trkpt lat="44.25141" lon="5.39375">
        <ele>986</ele>
        <time>2026-05-13T13:35:03.000Z</time>
      </trkpt>
      <trkpt lat="44.2514" lon="5.39377">
        <ele>986</ele>
        <time>2026-05-13T13:35:04.000Z</time>
      </trkpt>
      <trkpt lat="44.25139" lon="5.3938">
        <ele>986</ele>
        <time>2026-05-13T13:35:05.000Z</time>
      </trkpt>
      <trkpt lat="44.25138" lon="5.39382">
        <ele>986</ele>
        <time>2026-05-13T13:35:06.000Z</time>
      </trkpt>
      <trkpt lat="44.25137" lon="5.39383">
        <ele>986</ele>
        <time>2026-05-13T13:35:07.000Z</time>
      </trkpt>
      <trkpt lat="44.25137" lon="5.39385">
        <ele>986</ele>
        <time>2026-05-13T13:35:08.000Z</time>
      </trkpt>
      <trkpt lat="44.25136" lon="5.39387">
        <ele>986</ele>
        <time>2026-05-13T13:35:09.000Z</time>
      </trkpt>
      <trkpt lat="44.25135" lon="5.39389">
        <ele>986</ele>
        <time>2026-05-13T13:35:10.000Z</time>
      </trkpt>
      <trkpt lat="44.25135" lon="5.39391">
        <ele>986</ele>
        <time>2026-05-13T13:35:11.000Z</time>
      </trkpt>
      <trkpt lat="44.25134" lon="5.39393">
        <ele>986</ele>
        <time>2026-05-13T13:35:12.000Z</time>
      </trkpt>
      <trkpt lat="44.25133" lon="5.39395">
        <ele>986</ele>
        <time>2026-05-13T13:35:13.000Z</time>
      </trkpt>
      <trkpt lat="44.25131" lon="5.39396">
        <ele>986</ele>
        <time>2026-05-13T13:35:14.000Z</time>
      </trkpt>
      <trkpt lat="44.2513" lon="5.39397">
        <ele>987</ele>
        <time>2026-05-13T13:35:15.000Z</time>
      </trkpt>
      <trkpt lat="44.25129" lon="5.39399">
        <ele>987</ele>
        <time>2026-05-13T13:35:16.000Z</time>
      </trkpt>
      <trkpt lat="44.25128" lon="5.39401">
        <ele>988</ele>
        <time>2026-05-13T13:35:17.000Z</time>
      </trkpt>
      <trkpt lat="44.25127" lon="5.39403">
        <ele>988</ele>
        <time>2026-05-13T13:35:18.000Z</time>
      </trkpt>
      <trkpt lat="44.25126" lon="5.39405">
        <ele>987</ele>
        <time>2026-05-13T13:35:19.000Z</time>
      </trkpt>
      <trkpt lat="44.25125" lon="5.39407">
        <ele>988</ele>
        <time>2026-05-13T13:35:20.000Z</time>
      </trkpt>
      <trkpt lat="44.25124" lon="5.39408">
        <ele>988</ele>
        <time>2026-05-13T13:35:21.000Z</time>
      </trkpt>
      <trkpt lat="44.25122" lon="5.3941">
        <ele>988</ele>
        <time>2026-05-13T13:35:22.000Z</time>
      </trkpt>
      <trkpt lat="44.25121" lon="5.39412">
        <ele>987</ele>
        <time>2026-05-13T13:35:23.000Z</time>
      </trkpt>
      <trkpt lat="44.2512" lon="5.39415">
        <ele>987</ele>
        <time>2026-05-13T13:35:24.000Z</time>
      </trkpt>
      <trkpt lat="44.25118" lon="5.39416">
        <ele>988</ele>
        <time>2026-05-13T13:35:25.000Z</time>
      </trkpt>
      <trkpt lat="44.25116" lon="5.39418">
        <ele>988</ele>
        <time>2026-05-13T13:35:26.000Z</time>
      </trkpt>
      <trkpt lat="44.25115" lon="5.3942">
        <ele>989</ele>
        <time>2026-05-13T13:35:27.000Z</time>
      </trkpt>
      <trkpt lat="44.25114" lon="5.39421">
        <ele>989</ele>
        <time>2026-05-13T13:35:28.000Z</time>
      </trkpt>
      <trkpt lat="44.25112" lon="5.39422">
        <ele>989</ele>
        <time>2026-05-13T13:35:29.000Z</time>
      </trkpt>
      <trkpt lat="44.25111" lon="5.39423">
        <ele>989</ele>
        <time>2026-05-13T13:35:30.000Z</time>
      </trkpt>
      <trkpt lat="44.25109" lon="5.39425">
        <ele>989</ele>
        <time>2026-05-13T13:35:31.000Z</time>
      </trkpt>
      <trkpt lat="44.25109" lon="5.39427">
        <ele>989</ele>
        <time>2026-05-13T13:35:32.000Z</time>
      </trkpt>
      <trkpt lat="44.25108" lon="5.39429">
        <ele>989</ele>
        <time>2026-05-13T13:35:33.000Z</time>
      </trkpt>
      <trkpt lat="44.25106" lon="5.39431">
        <ele>989</ele>
        <time>2026-05-13T13:35:34.000Z</time>
      </trkpt>
      <trkpt lat="44.25105" lon="5.39433">
        <ele>989</ele>
        <time>2026-05-13T13:35:35.000Z</time>
      </trkpt>
      <trkpt lat="44.25105" lon="5.39435">
        <ele>989</ele>
        <time>2026-05-13T13:35:36.000Z</time>
      </trkpt>
      <trkpt lat="44.25103" lon="5.39436">
        <ele>989</ele>
        <time>2026-05-13T13:35:37.000Z</time>
      </trkpt>
      <trkpt lat="44.25103" lon="5.39439">
        <ele>989</ele>
        <time>2026-05-13T13:35:38.000Z</time>
      </trkpt>
      <trkpt lat="44.25103" lon="5.39441">
        <ele>989</ele>
        <time>2026-05-13T13:35:39.000Z</time>
      </trkpt>
      <trkpt lat="44.25103" lon="5.39444">
        <ele>989</ele>
        <time>2026-05-13T13:35:40.000Z</time>
      </trkpt>
      <trkpt lat="44.25103" lon="5.39446">
        <ele>989</ele>
        <time>2026-05-13T13:35:41.000Z</time>
      </trkpt>
      <trkpt lat="44.25102" lon="5.39448">
        <ele>989</ele>
        <time>2026-05-13T13:35:42.000Z</time>
      </trkpt>
      <trkpt lat="44.25102" lon="5.3945">
        <ele>989</ele>
        <time>2026-05-13T13:35:43.000Z</time>
      </trkpt>
      <trkpt lat="44.25102" lon="5.39452">
        <ele>989</ele>
        <time>2026-05-13T13:35:44.000Z</time>
      </trkpt>
      <trkpt lat="44.25102" lon="5.39454">
        <ele>989</ele>
        <time>2026-05-13T13:35:45.000Z</time>
      </trkpt>
      <trkpt lat="44.25102" lon="5.39456">
        <ele>989</ele>
        <time>2026-05-13T13:35:46.000Z</time>
      </trkpt>
      <trkpt lat="44.25102" lon="5.39458">
        <ele>990</ele>
        <time>2026-05-13T13:35:47.000Z</time>
      </trkpt>
      <trkpt lat="44.25102" lon="5.3946">
        <ele>990</ele>
        <time>2026-05-13T13:35:48.000Z</time>
      </trkpt>
      <trkpt lat="44.25101" lon="5.39462">
        <ele>990</ele>
        <time>2026-05-13T13:35:49.000Z</time>
      </trkpt>
      <trkpt lat="44.251" lon="5.39465">
        <ele>990</ele>
        <time>2026-05-13T13:35:50.000Z</time>
      </trkpt>
      <trkpt lat="44.251" lon="5.39467">
        <ele>990</ele>
        <time>2026-05-13T13:35:51.000Z</time>
      </trkpt>
      <trkpt lat="44.251" lon="5.3947">
        <ele>990</ele>
        <time>2026-05-13T13:35:52.000Z</time>
      </trkpt>
      <trkpt lat="44.25099" lon="5.39472">
        <ele>991</ele>
        <time>2026-05-13T13:35:53.000Z</time>
      </trkpt>
      <trkpt lat="44.25099" lon="5.39474">
        <ele>991</ele>
        <time>2026-05-13T13:35:54.000Z</time>
      </trkpt>
      <trkpt lat="44.25099" lon="5.39476">
        <ele>991</ele>
        <time>2026-05-13T13:35:55.000Z</time>
      </trkpt>
      <trkpt lat="44.251" lon="5.39479">
        <ele>991</ele>
        <time>2026-05-13T13:35:56.000Z</time>
      </trkpt>
      <trkpt lat="44.251" lon="5.39481">
        <ele>992</ele>
        <time>2026-05-13T13:35:57.000Z</time>
      </trkpt>
      <trkpt lat="44.25099" lon="5.39484">
        <ele>992</ele>
        <time>2026-05-13T13:35:58.000Z</time>
      </trkpt>
      <trkpt lat="44.25098" lon="5.39486">
        <ele>993</ele>
        <time>2026-05-13T13:35:59.000Z</time>
      </trkpt>
      <trkpt lat="44.25098" lon="5.39488">
        <ele>993</ele>
        <time>2026-05-13T13:36:00.000Z</time>
      </trkpt>
      <trkpt lat="44.25097" lon="5.39491">
        <ele>992</ele>
        <time>2026-05-13T13:36:01.000Z</time>
      </trkpt>
      <trkpt lat="44.25097" lon="5.39493">
        <ele>993</ele>
        <time>2026-05-13T13:36:02.000Z</time>
      </trkpt>
      <trkpt lat="44.25097" lon="5.39496">
        <ele>993</ele>
        <time>2026-05-13T13:36:03.000Z</time>
      </trkpt>
      <trkpt lat="44.25097" lon="5.39498">
        <ele>993</ele>
        <time>2026-05-13T13:36:04.000Z</time>
      </trkpt>
      <trkpt lat="44.25097" lon="5.395">
        <ele>993</ele>
        <time>2026-05-13T13:36:05.000Z</time>
      </trkpt>
      <trkpt lat="44.25097" lon="5.39503">
        <ele>993</ele>
        <time>2026-05-13T13:36:06.000Z</time>
      </trkpt>
      <trkpt lat="44.25097" lon="5.39505">
        <ele>993</ele>
        <time>2026-05-13T13:36:07.000Z</time>
      </trkpt>
      <trkpt lat="44.25097" lon="5.39507">
        <ele>993</ele>
        <time>2026-05-13T13:36:08.000Z</time>
      </trkpt>
      <trkpt lat="44.25096" lon="5.39509">
        <ele>993</ele>
        <time>2026-05-13T13:36:09.000Z</time>
      </trkpt>
      <trkpt lat="44.25096" lon="5.39511">
        <ele>993</ele>
        <time>2026-05-13T13:36:10.000Z</time>
      </trkpt>
      <trkpt lat="44.25095" lon="5.39514">
        <ele>993</ele>
        <time>2026-05-13T13:36:11.000Z</time>
      </trkpt>
      <trkpt lat="44.25094" lon="5.39516">
        <ele>993</ele>
        <time>2026-05-13T13:36:12.000Z</time>
      </trkpt>
      <trkpt lat="44.25094" lon="5.39518">
        <ele>994</ele>
        <time>2026-05-13T13:36:13.000Z</time>
      </trkpt>
      <trkpt lat="44.25093" lon="5.3952">
        <ele>994</ele>
        <time>2026-05-13T13:36:14.000Z</time>
      </trkpt>
      <trkpt lat="44.25093" lon="5.39522">
        <ele>995</ele>
        <time>2026-05-13T13:36:15.000Z</time>
      </trkpt>
      <trkpt lat="44.25091" lon="5.39524">
        <ele>995</ele>
        <time>2026-05-13T13:36:16.000Z</time>
      </trkpt>
      <trkpt lat="44.25091" lon="5.39526">
        <ele>995</ele>
        <time>2026-05-13T13:36:17.000Z</time>
      </trkpt>
      <trkpt lat="44.2509" lon="5.39528">
        <ele>995</ele>
        <time>2026-05-13T13:36:18.000Z</time>
      </trkpt>
      <trkpt lat="44.25089" lon="5.3953">
        <ele>996</ele>
        <time>2026-05-13T13:36:19.000Z</time>
      </trkpt>
      <trkpt lat="44.25087" lon="5.39532">
        <ele>996</ele>
        <time>2026-05-13T13:36:20.000Z</time>
      </trkpt>
      <trkpt lat="44.25087" lon="5.39533">
        <ele>996</ele>
        <time>2026-05-13T13:36:21.000Z</time>
      </trkpt>
      <trkpt lat="44.25085" lon="5.39535">
        <ele>996</ele>
        <time>2026-05-13T13:36:22.000Z</time>
      </trkpt>
      <trkpt lat="44.25084" lon="5.39537">
        <ele>996</ele>
        <time>2026-05-13T13:36:23.000Z</time>
      </trkpt>
      <trkpt lat="44.25084" lon="5.39539">
        <ele>996</ele>
        <time>2026-05-13T13:36:24.000Z</time>
      </trkpt>
      <trkpt lat="44.25083" lon="5.3954">
        <ele>996</ele>
        <time>2026-05-13T13:36:25.000Z</time>
      </trkpt>
      <trkpt lat="44.25081" lon="5.39541">
        <ele>997</ele>
        <time>2026-05-13T13:36:26.000Z</time>
      </trkpt>
      <trkpt lat="44.25079" lon="5.39542">
        <ele>996</ele>
        <time>2026-05-13T13:36:27.000Z</time>
      </trkpt>
      <trkpt lat="44.25077" lon="5.39542">
        <ele>997</ele>
        <time>2026-05-13T13:36:28.000Z</time>
      </trkpt>
      <trkpt lat="44.25076" lon="5.39544">
        <ele>996</ele>
        <time>2026-05-13T13:36:29.000Z</time>
      </trkpt>
      <trkpt lat="44.25075" lon="5.39545">
        <ele>996</ele>
        <time>2026-05-13T13:36:30.000Z</time>
      </trkpt>
      <trkpt lat="44.25074" lon="5.39546">
        <ele>996</ele>
        <time>2026-05-13T13:36:31.000Z</time>
      </trkpt>
      <trkpt lat="44.25072" lon="5.39547">
        <ele>997</ele>
        <time>2026-05-13T13:36:32.000Z</time>
      </trkpt>
      <trkpt lat="44.25071" lon="5.39547">
        <ele>997</ele>
        <time>2026-05-13T13:36:33.000Z</time>
      </trkpt>
      <trkpt lat="44.25069" lon="5.39548">
        <ele>998</ele>
        <time>2026-05-13T13:36:34.000Z</time>
      </trkpt>
      <trkpt lat="44.25068" lon="5.39547">
        <ele>997</ele>
        <time>2026-05-13T13:36:35.000Z</time>
      </trkpt>
      <trkpt lat="44.25066" lon="5.39547">
        <ele>997</ele>
        <time>2026-05-13T13:36:36.000Z</time>
      </trkpt>
      <trkpt lat="44.25064" lon="5.39547">
        <ele>998</ele>
        <time>2026-05-13T13:36:37.000Z</time>
      </trkpt>
      <trkpt lat="44.25063" lon="5.39547">
        <ele>998</ele>
        <time>2026-05-13T13:36:38.000Z</time>
      </trkpt>
      <trkpt lat="44.25061" lon="5.39548">
        <ele>998</ele>
        <time>2026-05-13T13:36:39.000Z</time>
      </trkpt>
      <trkpt lat="44.2506" lon="5.39548">
        <ele>998</ele>
        <time>2026-05-13T13:36:40.000Z</time>
      </trkpt>
      <trkpt lat="44.25058" lon="5.39548">
        <ele>999</ele>
        <time>2026-05-13T13:36:41.000Z</time>
      </trkpt>
      <trkpt lat="44.25057" lon="5.39548">
        <ele>998</ele>
        <time>2026-05-13T13:36:42.000Z</time>
      </trkpt>
      <trkpt lat="44.25055" lon="5.39548">
        <ele>998</ele>
        <time>2026-05-13T13:36:43.000Z</time>
      </trkpt>
      <trkpt lat="44.25053" lon="5.39548">
        <ele>998</ele>
        <time>2026-05-13T13:36:44.000Z</time>
      </trkpt>
      <trkpt lat="44.25052" lon="5.39548">
        <ele>998</ele>
        <time>2026-05-13T13:36:45.000Z</time>
      </trkpt>
      <trkpt lat="44.2505" lon="5.39546">
        <ele>999</ele>
        <time>2026-05-13T13:36:46.000Z</time>
      </trkpt>
      <trkpt lat="44.25048" lon="5.39546">
        <ele>999</ele>
        <time>2026-05-13T13:36:47.000Z</time>
      </trkpt>
      <trkpt lat="44.25047" lon="5.39546">
        <ele>999</ele>
        <time>2026-05-13T13:36:48.000Z</time>
      </trkpt>
      <trkpt lat="44.25045" lon="5.39547">
        <ele>998</ele>
        <time>2026-05-13T13:36:49.000Z</time>
      </trkpt>
      <trkpt lat="44.25044" lon="5.39547">
        <ele>998</ele>
        <time>2026-05-13T13:36:50.000Z</time>
      </trkpt>
      <trkpt lat="44.25042" lon="5.39548">
        <ele>998</ele>
        <time>2026-05-13T13:36:51.000Z</time>
      </trkpt>
      <trkpt lat="44.25041" lon="5.39548">
        <ele>999</ele>
        <time>2026-05-13T13:36:52.000Z</time>
      </trkpt>
      <trkpt lat="44.2504" lon="5.39548">
        <ele>999</ele>
        <time>2026-05-13T13:36:53.000Z</time>
      </trkpt>
      <trkpt lat="44.25038" lon="5.39549">
        <ele>999</ele>
        <time>2026-05-13T13:36:54.000Z</time>
      </trkpt>
      <trkpt lat="44.25037" lon="5.3955">
        <ele>1000</ele>
        <time>2026-05-13T13:36:55.000Z</time>
      </trkpt>
      <trkpt lat="44.25036" lon="5.39551">
        <ele>1000</ele>
        <time>2026-05-13T13:36:56.000Z</time>
      </trkpt>
      <trkpt lat="44.25034" lon="5.39553">
        <ele>1000</ele>
        <time>2026-05-13T13:36:57.000Z</time>
      </trkpt>
      <trkpt lat="44.25033" lon="5.39555">
        <ele>999</ele>
        <time>2026-05-13T13:36:58.000Z</time>
      </trkpt>
      <trkpt lat="44.25032" lon="5.39557">
        <ele>998</ele>
        <time>2026-05-13T13:36:59.000Z</time>
      </trkpt>
      <trkpt lat="44.2503" lon="5.3956">
        <ele>998</ele>
        <time>2026-05-13T13:37:00.000Z</time>
      </trkpt>
      <trkpt lat="44.2503" lon="5.39561">
        <ele>998</ele>
        <time>2026-05-13T13:37:01.000Z</time>
      </trkpt>
      <trkpt lat="44.25029" lon="5.39562">
        <ele>998</ele>
        <time>2026-05-13T13:37:02.000Z</time>
      </trkpt>
      <trkpt lat="44.25028" lon="5.39564">
        <ele>998</ele>
        <time>2026-05-13T13:37:03.000Z</time>
      </trkpt>
      <trkpt lat="44.25027" lon="5.39566">
        <ele>998</ele>
        <time>2026-05-13T13:37:04.000Z</time>
      </trkpt>
      <trkpt lat="44.25025" lon="5.39567">
        <ele>998</ele>
        <time>2026-05-13T13:37:05.000Z</time>
      </trkpt>
      <trkpt lat="44.25024" lon="5.39569">
        <ele>998</ele>
        <time>2026-05-13T13:37:06.000Z</time>
      </trkpt>
      <trkpt lat="44.25023" lon="5.39571">
        <ele>999</ele>
        <time>2026-05-13T13:37:07.000Z</time>
      </trkpt>
      <trkpt lat="44.25022" lon="5.39573">
        <ele>999</ele>
        <time>2026-05-13T13:37:08.000Z</time>
      </trkpt>
      <trkpt lat="44.25021" lon="5.39575">
        <ele>999</ele>
        <time>2026-05-13T13:37:09.000Z</time>
      </trkpt>
      <trkpt lat="44.2502" lon="5.39578">
        <ele>1000</ele>
        <time>2026-05-13T13:37:10.000Z</time>
      </trkpt>
      <trkpt lat="44.2502" lon="5.3958">
        <ele>1000</ele>
        <time>2026-05-13T13:37:11.000Z</time>
      </trkpt>
      <trkpt lat="44.2502" lon="5.39583">
        <ele>1000</ele>
        <time>2026-05-13T13:37:12.000Z</time>
      </trkpt>
      <trkpt lat="44.2502" lon="5.39585">
        <ele>1000</ele>
        <time>2026-05-13T13:37:13.000Z</time>
      </trkpt>
      <trkpt lat="44.2502" lon="5.39587">
        <ele>1000</ele>
        <time>2026-05-13T13:37:14.000Z</time>
      </trkpt>
      <trkpt lat="44.2502" lon="5.39589">
        <ele>1000</ele>
        <time>2026-05-13T13:37:15.000Z</time>
      </trkpt>
      <trkpt lat="44.2502" lon="5.39591">
        <ele>1001</ele>
        <time>2026-05-13T13:37:16.000Z</time>
      </trkpt>
      <trkpt lat="44.2502" lon="5.39594">
        <ele>1000</ele>
        <time>2026-05-13T13:37:17.000Z</time>
      </trkpt>
      <trkpt lat="44.2502" lon="5.39596">
        <ele>1001</ele>
        <time>2026-05-13T13:37:18.000Z</time>
      </trkpt>
      <trkpt lat="44.2502" lon="5.39599">
        <ele>1001</ele>
        <time>2026-05-13T13:37:19.000Z</time>
      </trkpt>
      <trkpt lat="44.25021" lon="5.39602">
        <ele>1001</ele>
        <time>2026-05-13T13:37:20.000Z</time>
      </trkpt>
      <trkpt lat="44.25021" lon="5.39604">
        <ele>1001</ele>
        <time>2026-05-13T13:37:21.000Z</time>
      </trkpt>
      <trkpt lat="44.25022" lon="5.39606">
        <ele>1002</ele>
        <time>2026-05-13T13:37:22.000Z</time>
      </trkpt>
      <trkpt lat="44.25024" lon="5.39607">
        <ele>1002</ele>
        <time>2026-05-13T13:37:23.000Z</time>
      </trkpt>
      <trkpt lat="44.25025" lon="5.3961">
        <ele>1002</ele>
        <time>2026-05-13T13:37:24.000Z</time>
      </trkpt>
      <trkpt lat="44.25027" lon="5.39612">
        <ele>1002</ele>
        <time>2026-05-13T13:37:25.000Z</time>
      </trkpt>
      <trkpt lat="44.25028" lon="5.39613">
        <ele>1002</ele>
        <time>2026-05-13T13:37:26.000Z</time>
      </trkpt>
      <trkpt lat="44.2503" lon="5.39615">
        <ele>1002</ele>
        <time>2026-05-13T13:37:27.000Z</time>
      </trkpt>
      <trkpt lat="44.25031" lon="5.39616">
        <ele>1002</ele>
        <time>2026-05-13T13:37:28.000Z</time>
      </trkpt>
      <trkpt lat="44.25032" lon="5.39617">
        <ele>1002</ele>
        <time>2026-05-13T13:37:29.000Z</time>
      </trkpt>
      <trkpt lat="44.25034" lon="5.39618">
        <ele>1002</ele>
        <time>2026-05-13T13:37:30.000Z</time>
      </trkpt>
      <trkpt lat="44.25035" lon="5.39619">
        <ele>1002</ele>
        <time>2026-05-13T13:37:31.000Z</time>
      </trkpt>
      <trkpt lat="44.25037" lon="5.39619">
        <ele>1002</ele>
        <time>2026-05-13T13:37:32.000Z</time>
      </trkpt>
      <trkpt lat="44.25039" lon="5.3962">
        <ele>1003</ele>
        <time>2026-05-13T13:37:33.000Z</time>
      </trkpt>
      <trkpt lat="44.2504" lon="5.39621">
        <ele>1002</ele>
        <time>2026-05-13T13:37:34.000Z</time>
      </trkpt>
      <trkpt lat="44.25042" lon="5.39622">
        <ele>1002</ele>
        <time>2026-05-13T13:37:35.000Z</time>
      </trkpt>
      <trkpt lat="44.25043" lon="5.39623">
        <ele>1003</ele>
        <time>2026-05-13T13:37:36.000Z</time>
      </trkpt>
      <trkpt lat="44.25045" lon="5.39624">
        <ele>1002</ele>
        <time>2026-05-13T13:37:37.000Z</time>
      </trkpt>
      <trkpt lat="44.25047" lon="5.39624">
        <ele>1003</ele>
        <time>2026-05-13T13:37:38.000Z</time>
      </trkpt>
      <trkpt lat="44.25049" lon="5.39625">
        <ele>1003</ele>
        <time>2026-05-13T13:37:39.000Z</time>
      </trkpt>
      <trkpt lat="44.25051" lon="5.39625">
        <ele>1003</ele>
        <time>2026-05-13T13:37:40.000Z</time>
      </trkpt>
      <trkpt lat="44.25052" lon="5.39626">
        <ele>1002</ele>
        <time>2026-05-13T13:37:41.000Z</time>
      </trkpt>
      <trkpt lat="44.25054" lon="5.39627">
        <ele>1003</ele>
        <time>2026-05-13T13:37:42.000Z</time>
      </trkpt>
      <trkpt lat="44.25056" lon="5.39627">
        <ele>1002</ele>
        <time>2026-05-13T13:37:43.000Z</time>
      </trkpt>
      <trkpt lat="44.25058" lon="5.39627">
        <ele>1002</ele>
        <time>2026-05-13T13:37:44.000Z</time>
      </trkpt>
      <trkpt lat="44.25059" lon="5.39626">
        <ele>1002</ele>
        <time>2026-05-13T13:37:45.000Z</time>
      </trkpt>
      <trkpt lat="44.25061" lon="5.39626">
        <ele>1002</ele>
        <time>2026-05-13T13:37:46.000Z</time>
      </trkpt>
      <trkpt lat="44.25063" lon="5.39626">
        <ele>1002</ele>
        <time>2026-05-13T13:37:47.000Z</time>
      </trkpt>
      <trkpt lat="44.25064" lon="5.39626">
        <ele>1003</ele>
        <time>2026-05-13T13:37:48.000Z</time>
      </trkpt>
      <trkpt lat="44.25065" lon="5.39627">
        <ele>1003</ele>
        <time>2026-05-13T13:37:49.000Z</time>
      </trkpt>
      <trkpt lat="44.25067" lon="5.39628">
        <ele>1003</ele>
        <time>2026-05-13T13:37:50.000Z</time>
      </trkpt>
      <trkpt lat="44.25069" lon="5.39628">
        <ele>1003</ele>
        <time>2026-05-13T13:37:51.000Z</time>
      </trkpt>
      <trkpt lat="44.2507" lon="5.39628">
        <ele>1004</ele>
        <time>2026-05-13T13:37:52.000Z</time>
      </trkpt>
      <trkpt lat="44.25072" lon="5.39629">
        <ele>1004</ele>
        <time>2026-05-13T13:37:53.000Z</time>
      </trkpt>
      <trkpt lat="44.25074" lon="5.39629">
        <ele>1003</ele>
        <time>2026-05-13T13:37:54.000Z</time>
      </trkpt>
      <trkpt lat="44.25075" lon="5.39629">
        <ele>1004</ele>
        <time>2026-05-13T13:37:55.000Z</time>
      </trkpt>
      <trkpt lat="44.25077" lon="5.39628">
        <ele>1004</ele>
        <time>2026-05-13T13:37:56.000Z</time>
      </trkpt>
      <trkpt lat="44.25079" lon="5.39628">
        <ele>1004</ele>
        <time>2026-05-13T13:37:57.000Z</time>
      </trkpt>
      <trkpt lat="44.2508" lon="5.39628">
        <ele>1004</ele>
        <time>2026-05-13T13:37:58.000Z</time>
      </trkpt>
      <trkpt lat="44.25082" lon="5.39627">
        <ele>1004</ele>
        <time>2026-05-13T13:37:59.000Z</time>
      </trkpt>
      <trkpt lat="44.25084" lon="5.39627">
        <ele>1004</ele>
        <time>2026-05-13T13:38:00.000Z</time>
      </trkpt>
      <trkpt lat="44.25085" lon="5.39626">
        <ele>1004</ele>
        <time>2026-05-13T13:38:01.000Z</time>
      </trkpt>
      <trkpt lat="44.25087" lon="5.39626">
        <ele>1005</ele>
        <time>2026-05-13T13:38:02.000Z</time>
      </trkpt>
      <trkpt lat="44.25088" lon="5.39627">
        <ele>1005</ele>
        <time>2026-05-13T13:38:03.000Z</time>
      </trkpt>
      <trkpt lat="44.2509" lon="5.39626">
        <ele>1005</ele>
        <time>2026-05-13T13:38:04.000Z</time>
      </trkpt>
      <trkpt lat="44.25091" lon="5.39625">
        <ele>1005</ele>
        <time>2026-05-13T13:38:05.000Z</time>
      </trkpt>
      <trkpt lat="44.25093" lon="5.39624">
        <ele>1006</ele>
        <time>2026-05-13T13:38:06.000Z</time>
      </trkpt>
      <trkpt lat="44.25094" lon="5.39623">
        <ele>1006</ele>
        <time>2026-05-13T13:38:07.000Z</time>
      </trkpt>
      <trkpt lat="44.25095" lon="5.39623">
        <ele>1007</ele>
        <time>2026-05-13T13:38:08.000Z</time>
      </trkpt>
      <trkpt lat="44.25097" lon="5.39623">
        <ele>1007</ele>
        <time>2026-05-13T13:38:09.000Z</time>
      </trkpt>
      <trkpt lat="44.25099" lon="5.39623">
        <ele>1007</ele>
        <time>2026-05-13T13:38:10.000Z</time>
      </trkpt>
      <trkpt lat="44.25101" lon="5.39623">
        <ele>1007</ele>
        <time>2026-05-13T13:38:11.000Z</time>
      </trkpt>
      <trkpt lat="44.25102" lon="5.39623">
        <ele>1007</ele>
        <time>2026-05-13T13:38:12.000Z</time>
      </trkpt>
      <trkpt lat="44.25104" lon="5.39623">
        <ele>1007</ele>
        <time>2026-05-13T13:38:13.000Z</time>
      </trkpt>
      <trkpt lat="44.25105" lon="5.39622">
        <ele>1007</ele>
        <time>2026-05-13T13:38:14.000Z</time>
      </trkpt>
      <trkpt lat="44.25107" lon="5.39621">
        <ele>1007</ele>
        <time>2026-05-13T13:38:15.000Z</time>
      </trkpt>
      <trkpt lat="44.25109" lon="5.39621">
        <ele>1008</ele>
        <time>2026-05-13T13:38:16.000Z</time>
      </trkpt>
      <trkpt lat="44.25111" lon="5.39621">
        <ele>1008</ele>
        <time>2026-05-13T13:38:17.000Z</time>
      </trkpt>
      <trkpt lat="44.25112" lon="5.3962">
        <ele>1009</ele>
        <time>2026-05-13T13:38:18.000Z</time>
      </trkpt>
      <trkpt lat="44.25114" lon="5.3962">
        <ele>1009</ele>
        <time>2026-05-13T13:38:19.000Z</time>
      </trkpt>
      <trkpt lat="44.25115" lon="5.3962">
        <ele>1009</ele>
        <time>2026-05-13T13:38:20.000Z</time>
      </trkpt>
      <trkpt lat="44.25116" lon="5.39619">
        <ele>1009</ele>
        <time>2026-05-13T13:38:21.000Z</time>
      </trkpt>
      <trkpt lat="44.25118" lon="5.39618">
        <ele>1009</ele>
        <time>2026-05-13T13:38:22.000Z</time>
      </trkpt>
      <trkpt lat="44.25119" lon="5.39617">
        <ele>1009</ele>
        <time>2026-05-13T13:38:23.000Z</time>
      </trkpt>
      <trkpt lat="44.2512" lon="5.39617">
        <ele>1009</ele>
        <time>2026-05-13T13:38:24.000Z</time>
      </trkpt>
      <trkpt lat="44.25122" lon="5.39616">
        <ele>1009</ele>
        <time>2026-05-13T13:38:25.000Z</time>
      </trkpt>
      <trkpt lat="44.25123" lon="5.39615">
        <ele>1009</ele>
        <time>2026-05-13T13:38:26.000Z</time>
      </trkpt>
      <trkpt lat="44.25125" lon="5.39615">
        <ele>1009</ele>
        <time>2026-05-13T13:38:27.000Z</time>
      </trkpt>
      <trkpt lat="44.25126" lon="5.39614">
        <ele>1010</ele>
        <time>2026-05-13T13:38:28.000Z</time>
      </trkpt>
      <trkpt lat="44.25127" lon="5.39613">
        <ele>1010</ele>
        <time>2026-05-13T13:38:29.000Z</time>
      </trkpt>
      <trkpt lat="44.25128" lon="5.39612">
        <ele>1010</ele>
        <time>2026-05-13T13:38:30.000Z</time>
      </trkpt>
      <trkpt lat="44.2513" lon="5.3961">
        <ele>1010</ele>
        <time>2026-05-13T13:38:31.000Z</time>
      </trkpt>
      <trkpt lat="44.25131" lon="5.39609">
        <ele>1011</ele>
        <time>2026-05-13T13:38:32.000Z</time>
      </trkpt>
      <trkpt lat="44.25132" lon="5.39608">
        <ele>1010</ele>
        <time>2026-05-13T13:38:33.000Z</time>
      </trkpt>
      <trkpt lat="44.25133" lon="5.39606">
        <ele>1011</ele>
        <time>2026-05-13T13:38:34.000Z</time>
      </trkpt>
      <trkpt lat="44.25135" lon="5.39605">
        <ele>1011</ele>
        <time>2026-05-13T13:38:35.000Z</time>
      </trkpt>
      <trkpt lat="44.25136" lon="5.39604">
        <ele>1012</ele>
        <time>2026-05-13T13:38:36.000Z</time>
      </trkpt>
      <trkpt lat="44.25137" lon="5.39602">
        <ele>1012</ele>
        <time>2026-05-13T13:38:37.000Z</time>
      </trkpt>
      <trkpt lat="44.25138" lon="5.39601">
        <ele>1012</ele>
        <time>2026-05-13T13:38:38.000Z</time>
      </trkpt>
      <trkpt lat="44.2514" lon="5.39599">
        <ele>1012</ele>
        <time>2026-05-13T13:38:39.000Z</time>
      </trkpt>
      <trkpt lat="44.25141" lon="5.39598">
        <ele>1012</ele>
        <time>2026-05-13T13:38:40.000Z</time>
      </trkpt>
      <trkpt lat="44.25142" lon="5.39597">
        <ele>1012</ele>
        <time>2026-05-13T13:38:41.000Z</time>
      </trkpt>
      <trkpt lat="44.25143" lon="5.39596">
        <ele>1012</ele>
        <time>2026-05-13T13:38:42.000Z</time>
      </trkpt>
      <trkpt lat="44.25144" lon="5.39595">
        <ele>1012</ele>
        <time>2026-05-13T13:38:43.000Z</time>
      </trkpt>
      <trkpt lat="44.25145" lon="5.39594">
        <ele>1013</ele>
        <time>2026-05-13T13:38:44.000Z</time>
      </trkpt>
      <trkpt lat="44.25146" lon="5.39592">
        <ele>1013</ele>
        <time>2026-05-13T13:38:45.000Z</time>
      </trkpt>
      <trkpt lat="44.25147" lon="5.39591">
        <ele>1013</ele>
        <time>2026-05-13T13:38:46.000Z</time>
      </trkpt>
      <trkpt lat="44.25148" lon="5.39589">
        <ele>1013</ele>
        <time>2026-05-13T13:38:47.000Z</time>
      </trkpt>
      <trkpt lat="44.25149" lon="5.39587">
        <ele>1013</ele>
        <time>2026-05-13T13:38:48.000Z</time>
      </trkpt>
      <trkpt lat="44.2515" lon="5.39585">
        <ele>1013</ele>
        <time>2026-05-13T13:38:49.000Z</time>
      </trkpt>
      <trkpt lat="44.25151" lon="5.39583">
        <ele>1013</ele>
        <time>2026-05-13T13:38:50.000Z</time>
      </trkpt>
      <trkpt lat="44.25152" lon="5.39581">
        <ele>1013</ele>
        <time>2026-05-13T13:38:51.000Z</time>
      </trkpt>
      <trkpt lat="44.25153" lon="5.39579">
        <ele>1013</ele>
        <time>2026-05-13T13:38:52.000Z</time>
      </trkpt>
      <trkpt lat="44.25154" lon="5.39578">
        <ele>1013</ele>
        <time>2026-05-13T13:38:53.000Z</time>
      </trkpt>
      <trkpt lat="44.25155" lon="5.39577">
        <ele>1013</ele>
        <time>2026-05-13T13:38:54.000Z</time>
      </trkpt>
      <trkpt lat="44.25156" lon="5.39575">
        <ele>1013</ele>
        <time>2026-05-13T13:38:55.000Z</time>
      </trkpt>
      <trkpt lat="44.25157" lon="5.39573">
        <ele>1013</ele>
        <time>2026-05-13T13:38:56.000Z</time>
      </trkpt>
      <trkpt lat="44.25158" lon="5.39571">
        <ele>1013</ele>
        <time>2026-05-13T13:38:57.000Z</time>
      </trkpt>
      <trkpt lat="44.2516" lon="5.3957">
        <ele>1013</ele>
        <time>2026-05-13T13:38:58.000Z</time>
      </trkpt>
      <trkpt lat="44.25161" lon="5.39568">
        <ele>1014</ele>
        <time>2026-05-13T13:38:59.000Z</time>
      </trkpt>
      <trkpt lat="44.25162" lon="5.39566">
        <ele>1014</ele>
        <time>2026-05-13T13:39:00.000Z</time>
      </trkpt>
      <trkpt lat="44.25163" lon="5.39564">
        <ele>1014</ele>
        <time>2026-05-13T13:39:01.000Z</time>
      </trkpt>
      <trkpt lat="44.25164" lon="5.39563">
        <ele>1014</ele>
        <time>2026-05-13T13:39:02.000Z</time>
      </trkpt>
      <trkpt lat="44.25166" lon="5.39562">
        <ele>1014</ele>
        <time>2026-05-13T13:39:03.000Z</time>
      </trkpt>
      <trkpt lat="44.25167" lon="5.3956">
        <ele>1014</ele>
        <time>2026-05-13T13:39:04.000Z</time>
      </trkpt>
      <trkpt lat="44.25169" lon="5.39559">
        <ele>1014</ele>
        <time>2026-05-13T13:39:05.000Z</time>
      </trkpt>
      <trkpt lat="44.2517" lon="5.39558">
        <ele>1015</ele>
        <time>2026-05-13T13:39:06.000Z</time>
      </trkpt>
      <trkpt lat="44.25172" lon="5.39557">
        <ele>1015</ele>
        <time>2026-05-13T13:39:07.000Z</time>
      </trkpt>
      <trkpt lat="44.25173" lon="5.39556">
        <ele>1015</ele>
        <time>2026-05-13T13:39:08.000Z</time>
      </trkpt>
      <trkpt lat="44.25174" lon="5.39555">
        <ele>1015</ele>
        <time>2026-05-13T13:39:09.000Z</time>
      </trkpt>
      <trkpt lat="44.25176" lon="5.39553">
        <ele>1015</ele>
        <time>2026-05-13T13:39:10.000Z</time>
      </trkpt>
      <trkpt lat="44.25177" lon="5.39552">
        <ele>1015</ele>
        <time>2026-05-13T13:39:11.000Z</time>
      </trkpt>
      <trkpt lat="44.25179" lon="5.39551">
        <ele>1015</ele>
        <time>2026-05-13T13:39:12.000Z</time>
      </trkpt>
      <trkpt lat="44.2518" lon="5.39549">
        <ele>1016</ele>
        <time>2026-05-13T13:39:13.000Z</time>
      </trkpt>
      <trkpt lat="44.25181" lon="5.39548">
        <ele>1016</ele>
        <time>2026-05-13T13:39:14.000Z</time>
      </trkpt>
      <trkpt lat="44.25183" lon="5.39547">
        <ele>1016</ele>
        <time>2026-05-13T13:39:15.000Z</time>
      </trkpt>
      <trkpt lat="44.25184" lon="5.39545">
        <ele>1017</ele>
        <time>2026-05-13T13:39:16.000Z</time>
      </trkpt>
      <trkpt lat="44.25185" lon="5.39544">
        <ele>1017</ele>
        <time>2026-05-13T13:39:17.000Z</time>
      </trkpt>
      <trkpt lat="44.25186" lon="5.39542">
        <ele>1017</ele>
        <time>2026-05-13T13:39:18.000Z</time>
      </trkpt>
      <trkpt lat="44.25187" lon="5.3954">
        <ele>1017</ele>
        <time>2026-05-13T13:39:19.000Z</time>
      </trkpt>
      <trkpt lat="44.25188" lon="5.39537">
        <ele>1016</ele>
        <time>2026-05-13T13:39:20.000Z</time>
      </trkpt>
      <trkpt lat="44.25188" lon="5.39535">
        <ele>1016</ele>
        <time>2026-05-13T13:39:21.000Z</time>
      </trkpt>
      <trkpt lat="44.25188" lon="5.39533">
        <ele>1016</ele>
        <time>2026-05-13T13:39:22.000Z</time>
      </trkpt>
      <trkpt lat="44.25189" lon="5.39531">
        <ele>1016</ele>
        <time>2026-05-13T13:39:23.000Z</time>
      </trkpt>
      <trkpt lat="44.2519" lon="5.3953">
        <ele>1016</ele>
        <time>2026-05-13T13:39:24.000Z</time>
      </trkpt>
      <trkpt lat="44.2519" lon="5.39528">
        <ele>1016</ele>
        <time>2026-05-13T13:39:25.000Z</time>
      </trkpt>
      <trkpt lat="44.25191" lon="5.39526">
        <ele>1016</ele>
        <time>2026-05-13T13:39:26.000Z</time>
      </trkpt>
      <trkpt lat="44.25192" lon="5.39524">
        <ele>1016</ele>
        <time>2026-05-13T13:39:27.000Z</time>
      </trkpt>
      <trkpt lat="44.25192" lon="5.39521">
        <ele>1016</ele>
        <time>2026-05-13T13:39:28.000Z</time>
      </trkpt>
      <trkpt lat="44.25192" lon="5.39519">
        <ele>1016</ele>
        <time>2026-05-13T13:39:29.000Z</time>
      </trkpt>
      <trkpt lat="44.25192" lon="5.39517">
        <ele>1016</ele>
        <time>2026-05-13T13:39:30.000Z</time>
      </trkpt>
      <trkpt lat="44.25193" lon="5.39515">
        <ele>1016</ele>
        <time>2026-05-13T13:39:31.000Z</time>
      </trkpt>
      <trkpt lat="44.25194" lon="5.39513">
        <ele>1017</ele>
        <time>2026-05-13T13:39:32.000Z</time>
      </trkpt>
      <trkpt lat="44.25194" lon="5.3951">
        <ele>1017</ele>
        <time>2026-05-13T13:39:33.000Z</time>
      </trkpt>
      <trkpt lat="44.25194" lon="5.39508">
        <ele>1017</ele>
        <time>2026-05-13T13:39:34.000Z</time>
      </trkpt>
      <trkpt lat="44.25194" lon="5.39505">
        <ele>1017</ele>
        <time>2026-05-13T13:39:35.000Z</time>
      </trkpt>
      <trkpt lat="44.25195" lon="5.39502">
        <ele>1017</ele>
        <time>2026-05-13T13:39:36.000Z</time>
      </trkpt>
      <trkpt lat="44.25195" lon="5.395">
        <ele>1017</ele>
        <time>2026-05-13T13:39:37.000Z</time>
      </trkpt>
      <trkpt lat="44.25196" lon="5.39498">
        <ele>1017</ele>
        <time>2026-05-13T13:39:38.000Z</time>
      </trkpt>
      <trkpt lat="44.25196" lon="5.39496">
        <ele>1016</ele>
        <time>2026-05-13T13:39:39.000Z</time>
      </trkpt>
      <trkpt lat="44.25196" lon="5.39493">
        <ele>1017</ele>
        <time>2026-05-13T13:39:40.000Z</time>
      </trkpt>
      <trkpt lat="44.25196" lon="5.39491">
        <ele>1017</ele>
        <time>2026-05-13T13:39:41.000Z</time>
      </trkpt>
      <trkpt lat="44.25196" lon="5.39489">
        <ele>1016</ele>
        <time>2026-05-13T13:39:42.000Z</time>
      </trkpt>
      <trkpt lat="44.25197" lon="5.39487">
        <ele>1016</ele>
        <time>2026-05-13T13:39:43.000Z</time>
      </trkpt>
      <trkpt lat="44.25197" lon="5.39484">
        <ele>1016</ele>
        <time>2026-05-13T13:39:44.000Z</time>
      </trkpt>
      <trkpt lat="44.25197" lon="5.39482">
        <ele>1016</ele>
        <time>2026-05-13T13:39:45.000Z</time>
      </trkpt>
      <trkpt lat="44.25197" lon="5.39479">
        <ele>1016</ele>
        <time>2026-05-13T13:39:46.000Z</time>
      </trkpt>
      <trkpt lat="44.25198" lon="5.39476">
        <ele>1016</ele>
        <time>2026-05-13T13:39:47.000Z</time>
      </trkpt>
      <trkpt lat="44.25198" lon="5.39474">
        <ele>1017</ele>
        <time>2026-05-13T13:39:48.000Z</time>
      </trkpt>
      <trkpt lat="44.25198" lon="5.39472">
        <ele>1017</ele>
        <time>2026-05-13T13:39:49.000Z</time>
      </trkpt>
      <trkpt lat="44.25199" lon="5.39471">
        <ele>1018</ele>
        <time>2026-05-13T13:39:50.000Z</time>
      </trkpt>
      <trkpt lat="44.252" lon="5.39468">
        <ele>1018</ele>
        <time>2026-05-13T13:39:51.000Z</time>
      </trkpt>
      <trkpt lat="44.252" lon="5.39466">
        <ele>1019</ele>
        <time>2026-05-13T13:39:52.000Z</time>
      </trkpt>
      <trkpt lat="44.252" lon="5.39463">
        <ele>1019</ele>
        <time>2026-05-13T13:39:53.000Z</time>
      </trkpt>
      <trkpt lat="44.252" lon="5.39461">
        <ele>1019</ele>
        <time>2026-05-13T13:39:54.000Z</time>
      </trkpt>
      <trkpt lat="44.252" lon="5.39458">
        <ele>1019</ele>
        <time>2026-05-13T13:39:55.000Z</time>
      </trkpt>
      <trkpt lat="44.25201" lon="5.39456">
        <ele>1020</ele>
        <time>2026-05-13T13:39:56.000Z</time>
      </trkpt>
      <trkpt lat="44.25201" lon="5.39453">
        <ele>1020</ele>
        <time>2026-05-13T13:39:57.000Z</time>
      </trkpt>
      <trkpt lat="44.25202" lon="5.39451">
        <ele>1020</ele>
        <time>2026-05-13T13:39:58.000Z</time>
      </trkpt>
      <trkpt lat="44.25203" lon="5.3945">
        <ele>1020</ele>
        <time>2026-05-13T13:39:59.000Z</time>
      </trkpt>
      <trkpt lat="44.25204" lon="5.39447">
        <ele>1021</ele>
        <time>2026-05-13T13:40:00.000Z</time>
      </trkpt>
      <trkpt lat="44.25205" lon="5.39445">
        <ele>1021</ele>
        <time>2026-05-13T13:40:01.000Z</time>
      </trkpt>
      <trkpt lat="44.25206" lon="5.39444">
        <ele>1021</ele>
        <time>2026-05-13T13:40:02.000Z</time>
      </trkpt>
      <trkpt lat="44.25207" lon="5.39442">
        <ele>1020</ele>
        <time>2026-05-13T13:40:03.000Z</time>
      </trkpt>
      <trkpt lat="44.25208" lon="5.3944">
        <ele>1021</ele>
        <time>2026-05-13T13:40:04.000Z</time>
      </trkpt>
      <trkpt lat="44.25209" lon="5.39438">
        <ele>1021</ele>
        <time>2026-05-13T13:40:05.000Z</time>
      </trkpt>
      <trkpt lat="44.2521" lon="5.39436">
        <ele>1022</ele>
        <time>2026-05-13T13:40:06.000Z</time>
      </trkpt>
      <trkpt lat="44.25211" lon="5.39434">
        <ele>1022</ele>
        <time>2026-05-13T13:40:07.000Z</time>
      </trkpt>
      <trkpt lat="44.25212" lon="5.39432">
        <ele>1023</ele>
        <time>2026-05-13T13:40:08.000Z</time>
      </trkpt>
      <trkpt lat="44.25213" lon="5.3943">
        <ele>1023</ele>
        <time>2026-05-13T13:40:09.000Z</time>
      </trkpt>
      <trkpt lat="44.25214" lon="5.39428">
        <ele>1023</ele>
        <time>2026-05-13T13:40:10.000Z</time>
      </trkpt>
      <trkpt lat="44.25215" lon="5.39427">
        <ele>1023</ele>
        <time>2026-05-13T13:40:11.000Z</time>
      </trkpt>
      <trkpt lat="44.25216" lon="5.39425">
        <ele>1023</ele>
        <time>2026-05-13T13:40:12.000Z</time>
      </trkpt>
      <trkpt lat="44.25217" lon="5.39424">
        <ele>1024</ele>
        <time>2026-05-13T13:40:13.000Z</time>
      </trkpt>
      <trkpt lat="44.25219" lon="5.39422">
        <ele>1024</ele>
        <time>2026-05-13T13:40:14.000Z</time>
      </trkpt>
      <trkpt lat="44.2522" lon="5.39421">
        <ele>1024</ele>
        <time>2026-05-13T13:40:15.000Z</time>
      </trkpt>
      <trkpt lat="44.25221" lon="5.3942">
        <ele>1024</ele>
        <time>2026-05-13T13:40:16.000Z</time>
      </trkpt>
      <trkpt lat="44.25222" lon="5.39419">
        <ele>1024</ele>
        <time>2026-05-13T13:40:17.000Z</time>
      </trkpt>
      <trkpt lat="44.25224" lon="5.39418">
        <ele>1024</ele>
        <time>2026-05-13T13:40:18.000Z</time>
      </trkpt>
      <trkpt lat="44.25225" lon="5.39417">
        <ele>1025</ele>
        <time>2026-05-13T13:40:19.000Z</time>
      </trkpt>
      <trkpt lat="44.25226" lon="5.39416">
        <ele>1025</ele>
        <time>2026-05-13T13:40:20.000Z</time>
      </trkpt>
      <trkpt lat="44.25228" lon="5.39415">
        <ele>1025</ele>
        <time>2026-05-13T13:40:21.000Z</time>
      </trkpt>
      <trkpt lat="44.25229" lon="5.39415">
        <ele>1025</ele>
        <time>2026-05-13T13:40:22.000Z</time>
      </trkpt>
      <trkpt lat="44.25231" lon="5.39414">
        <ele>1025</ele>
        <time>2026-05-13T13:40:23.000Z</time>
      </trkpt>
      <trkpt lat="44.25232" lon="5.39414">
        <ele>1025</ele>
        <time>2026-05-13T13:40:24.000Z</time>
      </trkpt>
      <trkpt lat="44.25234" lon="5.39413">
        <ele>1025</ele>
        <time>2026-05-13T13:40:25.000Z</time>
      </trkpt>
      <trkpt lat="44.25235" lon="5.39412">
        <ele>1025</ele>
        <time>2026-05-13T13:40:26.000Z</time>
      </trkpt>
      <trkpt lat="44.25237" lon="5.39411">
        <ele>1025</ele>
        <time>2026-05-13T13:40:27.000Z</time>
      </trkpt>
      <trkpt lat="44.25238" lon="5.39411">
        <ele>1024</ele>
        <time>2026-05-13T13:40:28.000Z</time>
      </trkpt>
      <trkpt lat="44.2524" lon="5.3941">
        <ele>1025</ele>
        <time>2026-05-13T13:40:29.000Z</time>
      </trkpt>
      <trkpt lat="44.25241" lon="5.39409">
        <ele>1026</ele>
        <time>2026-05-13T13:40:30.000Z</time>
      </trkpt>
      <trkpt lat="44.25243" lon="5.39408">
        <ele>1025</ele>
        <time>2026-05-13T13:40:31.000Z</time>
      </trkpt>
      <trkpt lat="44.25244" lon="5.39408">
        <ele>1025</ele>
        <time>2026-05-13T13:40:32.000Z</time>
      </trkpt>
      <trkpt lat="44.25245" lon="5.39408">
        <ele>1025</ele>
        <time>2026-05-13T13:40:33.000Z</time>
      </trkpt>
      <trkpt lat="44.25247" lon="5.39407">
        <ele>1025</ele>
        <time>2026-05-13T13:40:34.000Z</time>
      </trkpt>
      <trkpt lat="44.25249" lon="5.39407">
        <ele>1026</ele>
        <time>2026-05-13T13:40:35.000Z</time>
      </trkpt>
      <trkpt lat="44.2525" lon="5.39406">
        <ele>1026</ele>
        <time>2026-05-13T13:40:36.000Z</time>
      </trkpt>
      <trkpt lat="44.25252" lon="5.39405">
        <ele>1026</ele>
        <time>2026-05-13T13:40:37.000Z</time>
      </trkpt>
      <trkpt lat="44.25254" lon="5.39405">
        <ele>1027</ele>
        <time>2026-05-13T13:40:38.000Z</time>
      </trkpt>
      <trkpt lat="44.25256" lon="5.39405">
        <ele>1027</ele>
        <time>2026-05-13T13:40:39.000Z</time>
      </trkpt>
      <trkpt lat="44.25257" lon="5.39404">
        <ele>1027</ele>
        <time>2026-05-13T13:40:40.000Z</time>
      </trkpt>
      <trkpt lat="44.25259" lon="5.39403">
        <ele>1026</ele>
        <time>2026-05-13T13:40:41.000Z</time>
      </trkpt>
      <trkpt lat="44.2526" lon="5.39402">
        <ele>1026</ele>
        <time>2026-05-13T13:40:42.000Z</time>
      </trkpt>
      <trkpt lat="44.25262" lon="5.39401">
        <ele>1026</ele>
        <time>2026-05-13T13:40:43.000Z</time>
      </trkpt>
      <trkpt lat="44.25264" lon="5.39401">
        <ele>1026</ele>
        <time>2026-05-13T13:40:44.000Z</time>
      </trkpt>
      <trkpt lat="44.25265" lon="5.394">
        <ele>1026</ele>
        <time>2026-05-13T13:40:45.000Z</time>
      </trkpt>
      <trkpt lat="44.25267" lon="5.39399">
        <ele>1026</ele>
        <time>2026-05-13T13:40:46.000Z</time>
      </trkpt>
      <trkpt lat="44.25269" lon="5.39399">
        <ele>1026</ele>
        <time>2026-05-13T13:40:47.000Z</time>
      </trkpt>
      <trkpt lat="44.2527" lon="5.39397">
        <ele>1025</ele>
        <time>2026-05-13T13:40:48.000Z</time>
      </trkpt>
      <trkpt lat="44.25272" lon="5.39397">
        <ele>1026</ele>
        <time>2026-05-13T13:40:49.000Z</time>
      </trkpt>
      <trkpt lat="44.25274" lon="5.39396">
        <ele>1026</ele>
        <time>2026-05-13T13:40:50.000Z</time>
      </trkpt>
      <trkpt lat="44.25275" lon="5.39396">
        <ele>1027</ele>
        <time>2026-05-13T13:40:51.000Z</time>
      </trkpt>
      <trkpt lat="44.25276" lon="5.39395">
        <ele>1027</ele>
        <time>2026-05-13T13:40:52.000Z</time>
      </trkpt>
      <trkpt lat="44.25278" lon="5.39395">
        <ele>1028</ele>
        <time>2026-05-13T13:40:53.000Z</time>
      </trkpt>
      <trkpt lat="44.25279" lon="5.39395">
        <ele>1028</ele>
        <time>2026-05-13T13:40:54.000Z</time>
      </trkpt>
      <trkpt lat="44.2528" lon="5.39394">
        <ele>1028</ele>
        <time>2026-05-13T13:40:55.000Z</time>
      </trkpt>
      <trkpt lat="44.25281" lon="5.39393">
        <ele>1027</ele>
        <time>2026-05-13T13:40:56.000Z</time>
      </trkpt>
      <trkpt lat="44.25283" lon="5.39392">
        <ele>1026</ele>
        <time>2026-05-13T13:40:57.000Z</time>
      </trkpt>
      <trkpt lat="44.25284" lon="5.3939">
        <ele>1026</ele>
        <time>2026-05-13T13:40:58.000Z</time>
      </trkpt>
      <trkpt lat="44.25285" lon="5.39389">
        <ele>1027</ele>
        <time>2026-05-13T13:40:59.000Z</time>
      </trkpt>
      <trkpt lat="44.25287" lon="5.39388">
        <ele>1026</ele>
        <time>2026-05-13T13:41:00.000Z</time>
      </trkpt>
      <trkpt lat="44.25288" lon="5.39388">
        <ele>1027</ele>
        <time>2026-05-13T13:41:01.000Z</time>
      </trkpt>
      <trkpt lat="44.2529" lon="5.39387">
        <ele>1027</ele>
        <time>2026-05-13T13:41:02.000Z</time>
      </trkpt>
      <trkpt lat="44.25291" lon="5.39386">
        <ele>1027</ele>
        <time>2026-05-13T13:41:03.000Z</time>
      </trkpt>
      <trkpt lat="44.25293" lon="5.39385">
        <ele>1027</ele>
        <time>2026-05-13T13:41:04.000Z</time>
      </trkpt>
      <trkpt lat="44.25295" lon="5.39385">
        <ele>1026</ele>
        <time>2026-05-13T13:41:05.000Z</time>
      </trkpt>
      <trkpt lat="44.25296" lon="5.39384">
        <ele>1027</ele>
        <time>2026-05-13T13:41:06.000Z</time>
      </trkpt>
      <trkpt lat="44.25298" lon="5.39383">
        <ele>1028</ele>
        <time>2026-05-13T13:41:07.000Z</time>
      </trkpt>
      <trkpt lat="44.25299" lon="5.39382">
        <ele>1028</ele>
        <time>2026-05-13T13:41:08.000Z</time>
      </trkpt>
      <trkpt lat="44.253" lon="5.39381">
        <ele>1029</ele>
        <time>2026-05-13T13:41:09.000Z</time>
      </trkpt>
      <trkpt lat="44.25301" lon="5.39379">
        <ele>1030</ele>
        <time>2026-05-13T13:41:10.000Z</time>
      </trkpt>
      <trkpt lat="44.25302" lon="5.39378">
        <ele>1030</ele>
        <time>2026-05-13T13:41:11.000Z</time>
      </trkpt>
      <trkpt lat="44.25303" lon="5.39377">
        <ele>1030</ele>
        <time>2026-05-13T13:41:12.000Z</time>
      </trkpt>
      <trkpt lat="44.25304" lon="5.39375">
        <ele>1031</ele>
        <time>2026-05-13T13:41:13.000Z</time>
      </trkpt>
      <trkpt lat="44.25305" lon="5.39372">
        <ele>1031</ele>
        <time>2026-05-13T13:41:14.000Z</time>
      </trkpt>
      <trkpt lat="44.25305" lon="5.3937">
        <ele>1031</ele>
        <time>2026-05-13T13:41:15.000Z</time>
      </trkpt>
      <trkpt lat="44.25306" lon="5.39368">
        <ele>1031</ele>
        <time>2026-05-13T13:41:16.000Z</time>
      </trkpt>
      <trkpt lat="44.25306" lon="5.39366">
        <ele>1032</ele>
        <time>2026-05-13T13:41:17.000Z</time>
      </trkpt>
      <trkpt lat="44.25307" lon="5.39363">
        <ele>1032</ele>
        <time>2026-05-13T13:41:18.000Z</time>
      </trkpt>
      <trkpt lat="44.25308" lon="5.39361">
        <ele>1033</ele>
        <time>2026-05-13T13:41:19.000Z</time>
      </trkpt>
      <trkpt lat="44.25308" lon="5.39359">
        <ele>1033</ele>
        <time>2026-05-13T13:41:20.000Z</time>
      </trkpt>
      <trkpt lat="44.25309" lon="5.39356">
        <ele>1033</ele>
        <time>2026-05-13T13:41:21.000Z</time>
      </trkpt>
      <trkpt lat="44.25309" lon="5.39354">
        <ele>1034</ele>
        <time>2026-05-13T13:41:22.000Z</time>
      </trkpt>
      <trkpt lat="44.2531" lon="5.39351">
        <ele>1034</ele>
        <time>2026-05-13T13:41:23.000Z</time>
      </trkpt>
      <trkpt lat="44.25311" lon="5.3935">
        <ele>1034</ele>
        <time>2026-05-13T13:41:24.000Z</time>
      </trkpt>
      <trkpt lat="44.25312" lon="5.39348">
        <ele>1035</ele>
        <time>2026-05-13T13:41:25.000Z</time>
      </trkpt>
      <trkpt lat="44.25312" lon="5.39346">
        <ele>1035</ele>
        <time>2026-05-13T13:41:26.000Z</time>
      </trkpt>
      <trkpt lat="44.25312" lon="5.39344">
        <ele>1035</ele>
        <time>2026-05-13T13:41:27.000Z</time>
      </trkpt>
      <trkpt lat="44.25312" lon="5.39341">
        <ele>1035</ele>
        <time>2026-05-13T13:41:28.000Z</time>
      </trkpt>
      <trkpt lat="44.25313" lon="5.39339">
        <ele>1035</ele>
        <time>2026-05-13T13:41:29.000Z</time>
      </trkpt>
      <trkpt lat="44.25313" lon="5.39336">
        <ele>1035</ele>
        <time>2026-05-13T13:41:30.000Z</time>
      </trkpt>
      <trkpt lat="44.25313" lon="5.39333">
        <ele>1035</ele>
        <time>2026-05-13T13:41:31.000Z</time>
      </trkpt>
      <trkpt lat="44.25313" lon="5.3933">
        <ele>1034</ele>
        <time>2026-05-13T13:41:32.000Z</time>
      </trkpt>
      <trkpt lat="44.25314" lon="5.39328">
        <ele>1035</ele>
        <time>2026-05-13T13:41:33.000Z</time>
      </trkpt>
      <trkpt lat="44.25314" lon="5.39326">
        <ele>1035</ele>
        <time>2026-05-13T13:41:34.000Z</time>
      </trkpt>
      <trkpt lat="44.25315" lon="5.39324">
        <ele>1035</ele>
        <time>2026-05-13T13:41:35.000Z</time>
      </trkpt>
      <trkpt lat="44.25315" lon="5.39322">
        <ele>1035</ele>
        <time>2026-05-13T13:41:36.000Z</time>
      </trkpt>
      <trkpt lat="44.25316" lon="5.3932">
        <ele>1035</ele>
        <time>2026-05-13T13:41:37.000Z</time>
      </trkpt>
      <trkpt lat="44.25316" lon="5.39319">
        <ele>1035</ele>
        <time>2026-05-13T13:41:38.000Z</time>
      </trkpt>
      <trkpt lat="44.25317" lon="5.39316">
        <ele>1036</ele>
        <time>2026-05-13T13:41:39.000Z</time>
      </trkpt>
      <trkpt lat="44.25317" lon="5.39314">
        <ele>1036</ele>
        <time>2026-05-13T13:41:40.000Z</time>
      </trkpt>
      <trkpt lat="44.25318" lon="5.39313">
        <ele>1035</ele>
        <time>2026-05-13T13:41:41.000Z</time>
      </trkpt>
      <trkpt lat="44.25319" lon="5.39311">
        <ele>1036</ele>
        <time>2026-05-13T13:41:42.000Z</time>
      </trkpt>
      <trkpt lat="44.2532" lon="5.39308">
        <ele>1036</ele>
        <time>2026-05-13T13:41:43.000Z</time>
      </trkpt>
      <trkpt lat="44.25321" lon="5.39306">
        <ele>1036</ele>
        <time>2026-05-13T13:41:44.000Z</time>
      </trkpt>
      <trkpt lat="44.25322" lon="5.39304">
        <ele>1036</ele>
        <time>2026-05-13T13:41:45.000Z</time>
      </trkpt>
      <trkpt lat="44.25323" lon="5.39302">
        <ele>1036</ele>
        <time>2026-05-13T13:41:46.000Z</time>
      </trkpt>
      <trkpt lat="44.25325" lon="5.39301">
        <ele>1036</ele>
        <time>2026-05-13T13:41:47.000Z</time>
      </trkpt>
      <trkpt lat="44.25325" lon="5.393">
        <ele>1036</ele>
        <time>2026-05-13T13:41:48.000Z</time>
      </trkpt>
      <trkpt lat="44.25327" lon="5.39298">
        <ele>1036</ele>
        <time>2026-05-13T13:41:49.000Z</time>
      </trkpt>
      <trkpt lat="44.25328" lon="5.39296">
        <ele>1036</ele>
        <time>2026-05-13T13:41:50.000Z</time>
      </trkpt>
      <trkpt lat="44.25329" lon="5.39294">
        <ele>1036</ele>
        <time>2026-05-13T13:41:51.000Z</time>
      </trkpt>
      <trkpt lat="44.2533" lon="5.39293">
        <ele>1037</ele>
        <time>2026-05-13T13:41:52.000Z</time>
      </trkpt>
      <trkpt lat="44.25331" lon="5.39291">
        <ele>1037</ele>
        <time>2026-05-13T13:41:53.000Z</time>
      </trkpt>
      <trkpt lat="44.25333" lon="5.39289">
        <ele>1037</ele>
        <time>2026-05-13T13:41:54.000Z</time>
      </trkpt>
      <trkpt lat="44.25334" lon="5.39287">
        <ele>1037</ele>
        <time>2026-05-13T13:41:55.000Z</time>
      </trkpt>
      <trkpt lat="44.25335" lon="5.39285">
        <ele>1038</ele>
        <time>2026-05-13T13:41:56.000Z</time>
      </trkpt>
      <trkpt lat="44.25336" lon="5.39283">
        <ele>1038</ele>
        <time>2026-05-13T13:41:57.000Z</time>
      </trkpt>
      <trkpt lat="44.25337" lon="5.39281">
        <ele>1039</ele>
        <time>2026-05-13T13:41:58.000Z</time>
      </trkpt>
      <trkpt lat="44.25338" lon="5.39279">
        <ele>1039</ele>
        <time>2026-05-13T13:41:59.000Z</time>
      </trkpt>
      <trkpt lat="44.25339" lon="5.39277">
        <ele>1039</ele>
        <time>2026-05-13T13:42:00.000Z</time>
      </trkpt>
      <trkpt lat="44.2534" lon="5.39276">
        <ele>1039</ele>
        <time>2026-05-13T13:42:01.000Z</time>
      </trkpt>
      <trkpt lat="44.25341" lon="5.39274">
        <ele>1039</ele>
        <time>2026-05-13T13:42:02.000Z</time>
      </trkpt>
      <trkpt lat="44.25342" lon="5.39273">
        <ele>1038</ele>
        <time>2026-05-13T13:42:03.000Z</time>
      </trkpt>
      <trkpt lat="44.25344" lon="5.39271">
        <ele>1039</ele>
        <time>2026-05-13T13:42:04.000Z</time>
      </trkpt>
      <trkpt lat="44.25345" lon="5.3927">
        <ele>1039</ele>
        <time>2026-05-13T13:42:05.000Z</time>
      </trkpt>
      <trkpt lat="44.25346" lon="5.39269">
        <ele>1039</ele>
        <time>2026-05-13T13:42:06.000Z</time>
      </trkpt>
      <trkpt lat="44.25346" lon="5.39268">
        <ele>1039</ele>
        <time>2026-05-13T13:42:07.000Z</time>
      </trkpt>
      <trkpt lat="44.25347" lon="5.39266">
        <ele>1039</ele>
        <time>2026-05-13T13:42:08.000Z</time>
      </trkpt>
      <trkpt lat="44.25349" lon="5.39264">
        <ele>1039</ele>
        <time>2026-05-13T13:42:09.000Z</time>
      </trkpt>
      <trkpt lat="44.2535" lon="5.39262">
        <ele>1039</ele>
        <time>2026-05-13T13:42:10.000Z</time>
      </trkpt>
      <trkpt lat="44.2535" lon="5.3926">
        <ele>1039</ele>
        <time>2026-05-13T13:42:11.000Z</time>
      </trkpt>
      <trkpt lat="44.25351" lon="5.39259">
        <ele>1039</ele>
        <time>2026-05-13T13:42:12.000Z</time>
      </trkpt>
      <trkpt lat="44.25352" lon="5.39256">
        <ele>1039</ele>
        <time>2026-05-13T13:42:13.000Z</time>
      </trkpt>
      <trkpt lat="44.25353" lon="5.39254">
        <ele>1039</ele>
        <time>2026-05-13T13:42:14.000Z</time>
      </trkpt>
      <trkpt lat="44.25354" lon="5.39252">
        <ele>1039</ele>
        <time>2026-05-13T13:42:15.000Z</time>
      </trkpt>
      <trkpt lat="44.25355" lon="5.3925">
        <ele>1040</ele>
        <time>2026-05-13T13:42:16.000Z</time>
      </trkpt>
      <trkpt lat="44.25356" lon="5.39249">
        <ele>1040</ele>
        <time>2026-05-13T13:42:17.000Z</time>
      </trkpt>
      <trkpt lat="44.25357" lon="5.39247">
        <ele>1040</ele>
        <time>2026-05-13T13:42:18.000Z</time>
      </trkpt>
      <trkpt lat="44.25358" lon="5.39245">
        <ele>1040</ele>
        <time>2026-05-13T13:42:19.000Z</time>
      </trkpt>
      <trkpt lat="44.25359" lon="5.39243">
        <ele>1040</ele>
        <time>2026-05-13T13:42:20.000Z</time>
      </trkpt>
      <trkpt lat="44.25359" lon="5.3924">
        <ele>1040</ele>
        <time>2026-05-13T13:42:21.000Z</time>
      </trkpt>
      <trkpt lat="44.2536" lon="5.39239">
        <ele>1040</ele>
        <time>2026-05-13T13:42:22.000Z</time>
      </trkpt>
      <trkpt lat="44.25361" lon="5.39237">
        <ele>1040</ele>
        <time>2026-05-13T13:42:23.000Z</time>
      </trkpt>
      <trkpt lat="44.25361" lon="5.39235">
        <ele>1040</ele>
        <time>2026-05-13T13:42:24.000Z</time>
      </trkpt>
      <trkpt lat="44.25362" lon="5.39234">
        <ele>1041</ele>
        <time>2026-05-13T13:42:25.000Z</time>
      </trkpt>
      <trkpt lat="44.25363" lon="5.39232">
        <ele>1041</ele>
        <time>2026-05-13T13:42:26.000Z</time>
      </trkpt>
      <trkpt lat="44.25364" lon="5.39229">
        <ele>1040</ele>
        <time>2026-05-13T13:42:27.000Z</time>
      </trkpt>
      <trkpt lat="44.25365" lon="5.39227">
        <ele>1041</ele>
        <time>2026-05-13T13:42:28.000Z</time>
      </trkpt>
      <trkpt lat="44.25366" lon="5.39225">
        <ele>1041</ele>
        <time>2026-05-13T13:42:29.000Z</time>
      </trkpt>
      <trkpt lat="44.25367" lon="5.39224">
        <ele>1041</ele>
        <time>2026-05-13T13:42:30.000Z</time>
      </trkpt>
      <trkpt lat="44.25368" lon="5.39223">
        <ele>1041</ele>
        <time>2026-05-13T13:42:31.000Z</time>
      </trkpt>
      <trkpt lat="44.25369" lon="5.39221">
        <ele>1041</ele>
        <time>2026-05-13T13:42:32.000Z</time>
      </trkpt>
      <trkpt lat="44.2537" lon="5.39219">
        <ele>1041</ele>
        <time>2026-05-13T13:42:33.000Z</time>
      </trkpt>
      <trkpt lat="44.25371" lon="5.39217">
        <ele>1041</ele>
        <time>2026-05-13T13:42:34.000Z</time>
      </trkpt>
      <trkpt lat="44.25371" lon="5.39214">
        <ele>1042</ele>
        <time>2026-05-13T13:42:35.000Z</time>
      </trkpt>
      <trkpt lat="44.25372" lon="5.39212">
        <ele>1042</ele>
        <time>2026-05-13T13:42:36.000Z</time>
      </trkpt>
      <trkpt lat="44.25373" lon="5.39211">
        <ele>1042</ele>
        <time>2026-05-13T13:42:37.000Z</time>
      </trkpt>
      <trkpt lat="44.25374" lon="5.39209">
        <ele>1042</ele>
        <time>2026-05-13T13:42:38.000Z</time>
      </trkpt>
      <trkpt lat="44.25375" lon="5.39207">
        <ele>1042</ele>
        <time>2026-05-13T13:42:39.000Z</time>
      </trkpt>
      <trkpt lat="44.25376" lon="5.39205">
        <ele>1043</ele>
        <time>2026-05-13T13:42:40.000Z</time>
      </trkpt>
      <trkpt lat="44.25376" lon="5.39203">
        <ele>1043</ele>
        <time>2026-05-13T13:42:41.000Z</time>
      </trkpt>
      <trkpt lat="44.25377" lon="5.39201">
        <ele>1043</ele>
        <time>2026-05-13T13:42:42.000Z</time>
      </trkpt>
      <trkpt lat="44.25378" lon="5.39199">
        <ele>1043</ele>
        <time>2026-05-13T13:42:43.000Z</time>
      </trkpt>
      <trkpt lat="44.25379" lon="5.39197">
        <ele>1044</ele>
        <time>2026-05-13T13:42:44.000Z</time>
      </trkpt>
      <trkpt lat="44.2538" lon="5.39195">
        <ele>1044</ele>
        <time>2026-05-13T13:42:45.000Z</time>
      </trkpt>
      <trkpt lat="44.25382" lon="5.39194">
        <ele>1044</ele>
        <time>2026-05-13T13:42:46.000Z</time>
      </trkpt>
      <trkpt lat="44.25383" lon="5.39192">
        <ele>1044</ele>
        <time>2026-05-13T13:42:47.000Z</time>
      </trkpt>
      <trkpt lat="44.25384" lon="5.3919">
        <ele>1044</ele>
        <time>2026-05-13T13:42:48.000Z</time>
      </trkpt>
      <trkpt lat="44.25385" lon="5.39189">
        <ele>1045</ele>
        <time>2026-05-13T13:42:49.000Z</time>
      </trkpt>
      <trkpt lat="44.25386" lon="5.39187">
        <ele>1045</ele>
        <time>2026-05-13T13:42:50.000Z</time>
      </trkpt>
      <trkpt lat="44.25387" lon="5.39186">
        <ele>1045</ele>
        <time>2026-05-13T13:42:51.000Z</time>
      </trkpt>
      <trkpt lat="44.25388" lon="5.39184">
        <ele>1045</ele>
        <time>2026-05-13T13:42:52.000Z</time>
      </trkpt>
      <trkpt lat="44.25388" lon="5.39182">
        <ele>1045</ele>
        <time>2026-05-13T13:42:53.000Z</time>
      </trkpt>
      <trkpt lat="44.25388" lon="5.3918">
        <ele>1045</ele>
        <time>2026-05-13T13:42:54.000Z</time>
      </trkpt>
      <trkpt lat="44.25389" lon="5.39178">
        <ele>1045</ele>
        <time>2026-05-13T13:42:55.000Z</time>
      </trkpt>
      <trkpt lat="44.2539" lon="5.39177">
        <ele>1045</ele>
        <time>2026-05-13T13:42:56.000Z</time>
      </trkpt>
      <trkpt lat="44.25391" lon="5.39176">
        <ele>1045</ele>
        <time>2026-05-13T13:42:57.000Z</time>
      </trkpt>
      <trkpt lat="44.25392" lon="5.39174">
        <ele>1045</ele>
        <time>2026-05-13T13:42:58.000Z</time>
      </trkpt>
      <trkpt lat="44.25393" lon="5.39173">
        <ele>1046</ele>
        <time>2026-05-13T13:42:59.000Z</time>
      </trkpt>
      <trkpt lat="44.25393" lon="5.39171">
        <ele>1046</ele>
        <time>2026-05-13T13:43:00.000Z</time>
      </trkpt>
      <trkpt lat="44.25394" lon="5.39169">
        <ele>1046</ele>
        <time>2026-05-13T13:43:01.000Z</time>
      </trkpt>
      <trkpt lat="44.25395" lon="5.39168">
        <ele>1045</ele>
        <time>2026-05-13T13:43:02.000Z</time>
      </trkpt>
      <trkpt lat="44.25396" lon="5.39165">
        <ele>1045</ele>
        <time>2026-05-13T13:43:03.000Z</time>
      </trkpt>
      <trkpt lat="44.25396" lon="5.39163">
        <ele>1045</ele>
        <time>2026-05-13T13:43:04.000Z</time>
      </trkpt>
      <trkpt lat="44.25398" lon="5.39163">
        <ele>1045</ele>
        <time>2026-05-13T13:43:05.000Z</time>
      </trkpt>
      <trkpt lat="44.254" lon="5.39162">
        <ele>1046</ele>
        <time>2026-05-13T13:43:06.000Z</time>
      </trkpt>
      <trkpt lat="44.25401" lon="5.39161">
        <ele>1047</ele>
        <time>2026-05-13T13:43:07.000Z</time>
      </trkpt>
      <trkpt lat="44.25402" lon="5.3916">
        <ele>1047</ele>
        <time>2026-05-13T13:43:08.000Z</time>
      </trkpt>
      <trkpt lat="44.25403" lon="5.39158">
        <ele>1046</ele>
        <time>2026-05-13T13:43:09.000Z</time>
      </trkpt>
      <trkpt lat="44.25404" lon="5.39156">
        <ele>1046</ele>
        <time>2026-05-13T13:43:10.000Z</time>
      </trkpt>
      <trkpt lat="44.25405" lon="5.39155">
        <ele>1046</ele>
        <time>2026-05-13T13:43:11.000Z</time>
      </trkpt>
      <trkpt lat="44.25405" lon="5.39153">
        <ele>1047</ele>
        <time>2026-05-13T13:43:12.000Z</time>
      </trkpt>
      <trkpt lat="44.25406" lon="5.39152">
        <ele>1047</ele>
        <time>2026-05-13T13:43:13.000Z</time>
      </trkpt>
      <trkpt lat="44.25407" lon="5.39151">
        <ele>1047</ele>
        <time>2026-05-13T13:43:14.000Z</time>
      </trkpt>
      <trkpt lat="44.25408" lon="5.39149">
        <ele>1047</ele>
        <time>2026-05-13T13:43:15.000Z</time>
      </trkpt>
      <trkpt lat="44.25408" lon="5.39147">
        <ele>1046</ele>
        <time>2026-05-13T13:43:16.000Z</time>
      </trkpt>
      <trkpt lat="44.25409" lon="5.39145">
        <ele>1046</ele>
        <time>2026-05-13T13:43:17.000Z</time>
      </trkpt>
      <trkpt lat="44.25409" lon="5.39143">
        <ele>1047</ele>
        <time>2026-05-13T13:43:18.000Z</time>
      </trkpt>
      <trkpt lat="44.2541" lon="5.3914">
        <ele>1047</ele>
        <time>2026-05-13T13:43:19.000Z</time>
      </trkpt>
      <trkpt lat="44.25411" lon="5.39138">
        <ele>1047</ele>
        <time>2026-05-13T13:43:20.000Z</time>
      </trkpt>
      <trkpt lat="44.25411" lon="5.39137">
        <ele>1047</ele>
        <time>2026-05-13T13:43:21.000Z</time>
      </trkpt>
      <trkpt lat="44.25412" lon="5.39135">
        <ele>1048</ele>
        <time>2026-05-13T13:43:22.000Z</time>
      </trkpt>
      <trkpt lat="44.25413" lon="5.39133">
        <ele>1048</ele>
        <time>2026-05-13T13:43:23.000Z</time>
      </trkpt>
      <trkpt lat="44.25413" lon="5.39132">
        <ele>1048</ele>
        <time>2026-05-13T13:43:24.000Z</time>
      </trkpt>
      <trkpt lat="44.25414" lon="5.3913">
        <ele>1048</ele>
        <time>2026-05-13T13:43:25.000Z</time>
      </trkpt>
      <trkpt lat="44.25415" lon="5.39128">
        <ele>1048</ele>
        <time>2026-05-13T13:43:26.000Z</time>
      </trkpt>
      <trkpt lat="44.25415" lon="5.39126">
        <ele>1048</ele>
        <time>2026-05-13T13:43:27.000Z</time>
      </trkpt>
      <trkpt lat="44.25415" lon="5.39124">
        <ele>1048</ele>
        <time>2026-05-13T13:43:28.000Z</time>
      </trkpt>
      <trkpt lat="44.25415" lon="5.39122">
        <ele>1048</ele>
        <time>2026-05-13T13:43:29.000Z</time>
      </trkpt>
      <trkpt lat="44.25416" lon="5.39119">
        <ele>1048</ele>
        <time>2026-05-13T13:43:30.000Z</time>
      </trkpt>
      <trkpt lat="44.25416" lon="5.39117">
        <ele>1048</ele>
        <time>2026-05-13T13:43:31.000Z</time>
      </trkpt>
      <trkpt lat="44.25417" lon="5.39114">
        <ele>1048</ele>
        <time>2026-05-13T13:43:32.000Z</time>
      </trkpt>
      <trkpt lat="44.25416" lon="5.39112">
        <ele>1048</ele>
        <time>2026-05-13T13:43:33.000Z</time>
      </trkpt>
      <trkpt lat="44.25416" lon="5.3911">
        <ele>1048</ele>
        <time>2026-05-13T13:43:34.000Z</time>
      </trkpt>
      <trkpt lat="44.25417" lon="5.39107">
        <ele>1048</ele>
        <time>2026-05-13T13:43:35.000Z</time>
      </trkpt>
      <trkpt lat="44.25417" lon="5.39105">
        <ele>1049</ele>
        <time>2026-05-13T13:43:36.000Z</time>
      </trkpt>
      <trkpt lat="44.25417" lon="5.39102">
        <ele>1049</ele>
        <time>2026-05-13T13:43:37.000Z</time>
      </trkpt>
      <trkpt lat="44.25418" lon="5.391">
        <ele>1049</ele>
        <time>2026-05-13T13:43:38.000Z</time>
      </trkpt>
      <trkpt lat="44.25418" lon="5.39098">
        <ele>1049</ele>
        <time>2026-05-13T13:43:39.000Z</time>
      </trkpt>
      <trkpt lat="44.25418" lon="5.39096">
        <ele>1049</ele>
        <time>2026-05-13T13:43:40.000Z</time>
      </trkpt>
      <trkpt lat="44.25418" lon="5.39094">
        <ele>1049</ele>
        <time>2026-05-13T13:43:41.000Z</time>
      </trkpt>
      <trkpt lat="44.25418" lon="5.39092">
        <ele>1049</ele>
        <time>2026-05-13T13:43:42.000Z</time>
      </trkpt>
      <trkpt lat="44.25419" lon="5.3909">
        <ele>1050</ele>
        <time>2026-05-13T13:43:43.000Z</time>
      </trkpt>
      <trkpt lat="44.25419" lon="5.39088">
        <ele>1050</ele>
        <time>2026-05-13T13:43:44.000Z</time>
      </trkpt>
      <trkpt lat="44.2542" lon="5.39086">
        <ele>1051</ele>
        <time>2026-05-13T13:43:45.000Z</time>
      </trkpt>
      <trkpt lat="44.2542" lon="5.39084">
        <ele>1050</ele>
        <time>2026-05-13T13:43:46.000Z</time>
      </trkpt>
      <trkpt lat="44.2542" lon="5.39081">
        <ele>1050</ele>
        <time>2026-05-13T13:43:47.000Z</time>
      </trkpt>
      <trkpt lat="44.2542" lon="5.39079">
        <ele>1051</ele>
        <time>2026-05-13T13:43:48.000Z</time>
      </trkpt>
      <trkpt lat="44.2542" lon="5.39077">
        <ele>1051</ele>
        <time>2026-05-13T13:43:49.000Z</time>
      </trkpt>
      <trkpt lat="44.2542" lon="5.39075">
        <ele>1051</ele>
        <time>2026-05-13T13:43:50.000Z</time>
      </trkpt>
      <trkpt lat="44.2542" lon="5.39073">
        <ele>1051</ele>
        <time>2026-05-13T13:43:51.000Z</time>
      </trkpt>
      <trkpt lat="44.25421" lon="5.39071">
        <ele>1052</ele>
        <time>2026-05-13T13:43:52.000Z</time>
      </trkpt>
      <trkpt lat="44.25421" lon="5.3907">
        <ele>1051</ele>
        <time>2026-05-13T13:43:53.000Z</time>
      </trkpt>
      <trkpt lat="44.25421" lon="5.39067">
        <ele>1051</ele>
        <time>2026-05-13T13:43:54.000Z</time>
      </trkpt>
      <trkpt lat="44.2542" lon="5.39065">
        <ele>1052</ele>
        <time>2026-05-13T13:43:55.000Z</time>
      </trkpt>
      <trkpt lat="44.2542" lon="5.39064">
        <ele>1053</ele>
        <time>2026-05-13T13:43:56.000Z</time>
      </trkpt>
      <trkpt lat="44.25419" lon="5.39061">
        <ele>1053</ele>
        <time>2026-05-13T13:43:57.000Z</time>
      </trkpt>
      <trkpt lat="44.25418" lon="5.39059">
        <ele>1052</ele>
        <time>2026-05-13T13:43:58.000Z</time>
      </trkpt>
      <trkpt lat="44.25418" lon="5.39057">
        <ele>1053</ele>
        <time>2026-05-13T13:43:59.000Z</time>
      </trkpt>
      <trkpt lat="44.25418" lon="5.39054">
        <ele>1053</ele>
        <time>2026-05-13T13:44:00.000Z</time>
      </trkpt>
      <trkpt lat="44.25418" lon="5.39052">
        <ele>1053</ele>
        <time>2026-05-13T13:44:01.000Z</time>
      </trkpt>
      <trkpt lat="44.25419" lon="5.39051">
        <ele>1052</ele>
        <time>2026-05-13T13:44:02.000Z</time>
      </trkpt>
      <trkpt lat="44.2542" lon="5.39049">
        <ele>1052</ele>
        <time>2026-05-13T13:44:03.000Z</time>
      </trkpt>
      <trkpt lat="44.25421" lon="5.39048">
        <ele>1053</ele>
        <time>2026-05-13T13:44:04.000Z</time>
      </trkpt>
      <trkpt lat="44.25423" lon="5.39049">
        <ele>1053</ele>
        <time>2026-05-13T13:44:05.000Z</time>
      </trkpt>
      <trkpt lat="44.25424" lon="5.39048">
        <ele>1053</ele>
        <time>2026-05-13T13:44:06.000Z</time>
      </trkpt>
      <trkpt lat="44.25425" lon="5.39047">
        <ele>1053</ele>
        <time>2026-05-13T13:44:07.000Z</time>
      </trkpt>
      <trkpt lat="44.25427" lon="5.39047">
        <ele>1053</ele>
        <time>2026-05-13T13:44:08.000Z</time>
      </trkpt>
      <trkpt lat="44.25428" lon="5.39049">
        <ele>1053</ele>
        <time>2026-05-13T13:44:09.000Z</time>
      </trkpt>
      <trkpt lat="44.25428" lon="5.39051">
        <ele>1054</ele>
        <time>2026-05-13T13:44:10.000Z</time>
      </trkpt>
      <trkpt lat="44.25429" lon="5.39054">
        <ele>1054</ele>
        <time>2026-05-13T13:44:11.000Z</time>
      </trkpt>
      <trkpt lat="44.25428" lon="5.39055">
        <ele>1054</ele>
        <time>2026-05-13T13:44:12.000Z</time>
      </trkpt>
      <trkpt lat="44.25428" lon="5.39058">
        <ele>1054</ele>
        <time>2026-05-13T13:44:13.000Z</time>
      </trkpt>
      <trkpt lat="44.25428" lon="5.3906">
        <ele>1053</ele>
        <time>2026-05-13T13:44:14.000Z</time>
      </trkpt>
      <trkpt lat="44.25428" lon="5.39062">
        <ele>1053</ele>
        <time>2026-05-13T13:44:15.000Z</time>
      </trkpt>
      <trkpt lat="44.25429" lon="5.39064">
        <ele>1052</ele>
        <time>2026-05-13T13:44:16.000Z</time>
      </trkpt>
      <trkpt lat="44.25429" lon="5.39067">
        <ele>1052</ele>
        <time>2026-05-13T13:44:17.000Z</time>
      </trkpt>
      <trkpt lat="44.2543" lon="5.39069">
        <ele>1052</ele>
        <time>2026-05-13T13:44:18.000Z</time>
      </trkpt>
      <trkpt lat="44.25431" lon="5.39071">
        <ele>1053</ele>
        <time>2026-05-13T13:44:19.000Z</time>
      </trkpt>
      <trkpt lat="44.25431" lon="5.39073">
        <ele>1054</ele>
        <time>2026-05-13T13:44:20.000Z</time>
      </trkpt>
      <trkpt lat="44.25431" lon="5.39075">
        <ele>1054</ele>
        <time>2026-05-13T13:44:21.000Z</time>
      </trkpt>
      <trkpt lat="44.25431" lon="5.39077">
        <ele>1054</ele>
        <time>2026-05-13T13:44:22.000Z</time>
      </trkpt>
      <trkpt lat="44.25432" lon="5.39079">
        <ele>1054</ele>
        <time>2026-05-13T13:44:23.000Z</time>
      </trkpt>
      <trkpt lat="44.25432" lon="5.39081">
        <ele>1054</ele>
        <time>2026-05-13T13:44:24.000Z</time>
      </trkpt>
      <trkpt lat="44.25432" lon="5.39083">
        <ele>1054</ele>
        <time>2026-05-13T13:44:25.000Z</time>
      </trkpt>
      <trkpt lat="44.25432" lon="5.39086">
        <ele>1054</ele>
        <time>2026-05-13T13:44:26.000Z</time>
      </trkpt>
      <trkpt lat="44.25432" lon="5.39088">
        <ele>1054</ele>
        <time>2026-05-13T13:44:27.000Z</time>
      </trkpt>
      <trkpt lat="44.25432" lon="5.39091">
        <ele>1054</ele>
        <time>2026-05-13T13:44:28.000Z</time>
      </trkpt>
      <trkpt lat="44.25433" lon="5.39092">
        <ele>1054</ele>
        <time>2026-05-13T13:44:29.000Z</time>
      </trkpt>
      <trkpt lat="44.25433" lon="5.39094">
        <ele>1054</ele>
        <time>2026-05-13T13:44:30.000Z</time>
      </trkpt>
      <trkpt lat="44.25433" lon="5.39096">
        <ele>1054</ele>
        <time>2026-05-13T13:44:31.000Z</time>
      </trkpt>
      <trkpt lat="44.25433" lon="5.39098">
        <ele>1054</ele>
        <time>2026-05-13T13:44:32.000Z</time>
      </trkpt>
      <trkpt lat="44.25433" lon="5.391">
        <ele>1055</ele>
        <time>2026-05-13T13:44:33.000Z</time>
      </trkpt>
      <trkpt lat="44.25433" lon="5.39102">
        <ele>1055</ele>
        <time>2026-05-13T13:44:34.000Z</time>
      </trkpt>
      <trkpt lat="44.25433" lon="5.39104">
        <ele>1056</ele>
        <time>2026-05-13T13:44:35.000Z</time>
      </trkpt>
      <trkpt lat="44.25434" lon="5.39106">
        <ele>1056</ele>
        <time>2026-05-13T13:44:36.000Z</time>
      </trkpt>
      <trkpt lat="44.25434" lon="5.39107">
        <ele>1056</ele>
        <time>2026-05-13T13:44:37.000Z</time>
      </trkpt>
      <trkpt lat="44.25434" lon="5.39109">
        <ele>1056</ele>
        <time>2026-05-13T13:44:38.000Z</time>
      </trkpt>
      <trkpt lat="44.25434" lon="5.39111">
        <ele>1057</ele>
        <time>2026-05-13T13:44:39.000Z</time>
      </trkpt>
      <trkpt lat="44.25434" lon="5.39113">
        <ele>1056</ele>
        <time>2026-05-13T13:44:40.000Z</time>
      </trkpt>
      <trkpt lat="44.25434" lon="5.39115">
        <ele>1057</ele>
        <time>2026-05-13T13:44:41.000Z</time>
      </trkpt>
      <trkpt lat="44.25434" lon="5.39117">
        <ele>1056</ele>
        <time>2026-05-13T13:44:42.000Z</time>
      </trkpt>
      <trkpt lat="44.25435" lon="5.39118">
        <ele>1056</ele>
        <time>2026-05-13T13:44:43.000Z</time>
      </trkpt>
      <trkpt lat="44.25435" lon="5.3912">
        <ele>1056</ele>
        <time>2026-05-13T13:44:44.000Z</time>
      </trkpt>
      <trkpt lat="44.25435" lon="5.39122">
        <ele>1056</ele>
        <time>2026-05-13T13:44:45.000Z</time>
      </trkpt>
      <trkpt lat="44.25435" lon="5.39124">
        <ele>1056</ele>
        <time>2026-05-13T13:44:46.000Z</time>
      </trkpt>
      <trkpt lat="44.25435" lon="5.39126">
        <ele>1057</ele>
        <time>2026-05-13T13:44:47.000Z</time>
      </trkpt>
      <trkpt lat="44.25435" lon="5.39128">
        <ele>1057</ele>
        <time>2026-05-13T13:44:48.000Z</time>
      </trkpt>
      <trkpt lat="44.25435" lon="5.3913">
        <ele>1057</ele>
        <time>2026-05-13T13:44:49.000Z</time>
      </trkpt>
      <trkpt lat="44.25435" lon="5.39131">
        <ele>1057</ele>
        <time>2026-05-13T13:44:50.000Z</time>
      </trkpt>
      <trkpt lat="44.25435" lon="5.39133">
        <ele>1057</ele>
        <time>2026-05-13T13:44:51.000Z</time>
      </trkpt>
      <trkpt lat="44.25434" lon="5.39135">
        <ele>1057</ele>
        <time>2026-05-13T13:44:52.000Z</time>
      </trkpt>
      <trkpt lat="44.25434" lon="5.39137">
        <ele>1057</ele>
        <time>2026-05-13T13:44:53.000Z</time>
      </trkpt>
      <trkpt lat="44.25434" lon="5.39138">
        <ele>1057</ele>
        <time>2026-05-13T13:44:54.000Z</time>
      </trkpt>
      <trkpt lat="44.25433" lon="5.3914">
        <ele>1057</ele>
        <time>2026-05-13T13:44:55.000Z</time>
      </trkpt>
      <trkpt lat="44.25433" lon="5.39142">
        <ele>1057</ele>
        <time>2026-05-13T13:44:56.000Z</time>
      </trkpt>
      <trkpt lat="44.25433" lon="5.39144">
        <ele>1057</ele>
        <time>2026-05-13T13:44:57.000Z</time>
      </trkpt>
      <trkpt lat="44.25432" lon="5.39146">
        <ele>1058</ele>
        <time>2026-05-13T13:44:58.000Z</time>
      </trkpt>
      <trkpt lat="44.25432" lon="5.39148">
        <ele>1058</ele>
        <time>2026-05-13T13:44:59.000Z</time>
      </trkpt>
      <trkpt lat="44.25431" lon="5.3915">
        <ele>1058</ele>
        <time>2026-05-13T13:45:00.000Z</time>
      </trkpt>
      <trkpt lat="44.25431" lon="5.39152">
        <ele>1058</ele>
        <time>2026-05-13T13:45:01.000Z</time>
      </trkpt>
      <trkpt lat="44.2543" lon="5.39153">
        <ele>1059</ele>
        <time>2026-05-13T13:45:02.000Z</time>
      </trkpt>
      <trkpt lat="44.2543" lon="5.39154">
        <ele>1059</ele>
        <time>2026-05-13T13:45:03.000Z</time>
      </trkpt>
      <trkpt lat="44.25429" lon="5.39155">
        <ele>1059</ele>
        <time>2026-05-13T13:45:04.000Z</time>
      </trkpt>
      <trkpt lat="44.25429" lon="5.39157">
        <ele>1060</ele>
        <time>2026-05-13T13:45:05.000Z</time>
      </trkpt>
      <trkpt lat="44.25428" lon="5.39159">
        <ele>1060</ele>
        <time>2026-05-13T13:45:06.000Z</time>
      </trkpt>
      <trkpt lat="44.25428" lon="5.3916">
        <ele>1060</ele>
        <time>2026-05-13T13:45:07.000Z</time>
      </trkpt>
      <trkpt lat="44.25428" lon="5.39162">
        <ele>1060</ele>
        <time>2026-05-13T13:45:08.000Z</time>
      </trkpt>
      <trkpt lat="44.25428" lon="5.39163">
        <ele>1060</ele>
        <time>2026-05-13T13:45:09.000Z</time>
      </trkpt>
      <trkpt lat="44.25428" lon="5.39164">
        <ele>1060</ele>
        <time>2026-05-13T13:45:10.000Z</time>
      </trkpt>
      <trkpt lat="44.25427" lon="5.39166">
        <ele>1060</ele>
        <time>2026-05-13T13:45:11.000Z</time>
      </trkpt>
      <trkpt lat="44.25427" lon="5.39168">
        <ele>1060</ele>
        <time>2026-05-13T13:45:12.000Z</time>
      </trkpt>
      <trkpt lat="44.25426" lon="5.3917">
        <ele>1059</ele>
        <time>2026-05-13T13:45:13.000Z</time>
      </trkpt>
      <trkpt lat="44.25426" lon="5.39172">
        <ele>1060</ele>
        <time>2026-05-13T13:45:14.000Z</time>
      </trkpt>
      <trkpt lat="44.25426" lon="5.39174">
        <ele>1060</ele>
        <time>2026-05-13T13:45:15.000Z</time>
      </trkpt>
      <trkpt lat="44.25425" lon="5.39176">
        <ele>1060</ele>
        <time>2026-05-13T13:45:16.000Z</time>
      </trkpt>
      <trkpt lat="44.25425" lon="5.39177">
        <ele>1060</ele>
        <time>2026-05-13T13:45:17.000Z</time>
      </trkpt>
      <trkpt lat="44.25424" lon="5.39179">
        <ele>1060</ele>
        <time>2026-05-13T13:45:18.000Z</time>
      </trkpt>
      <trkpt lat="44.25423" lon="5.39181">
        <ele>1061</ele>
        <time>2026-05-13T13:45:19.000Z</time>
      </trkpt>
      <trkpt lat="44.25423" lon="5.39183">
        <ele>1060</ele>
        <time>2026-05-13T13:45:20.000Z</time>
      </trkpt>
      <trkpt lat="44.25423" lon="5.39184">
        <ele>1061</ele>
        <time>2026-05-13T13:45:21.000Z</time>
      </trkpt>
      <trkpt lat="44.25423" lon="5.39186">
        <ele>1061</ele>
        <time>2026-05-13T13:45:22.000Z</time>
      </trkpt>
      <trkpt lat="44.25422" lon="5.39187">
        <ele>1061</ele>
        <time>2026-05-13T13:45:23.000Z</time>
      </trkpt>
      <trkpt lat="44.25422" lon="5.39189">
        <ele>1061</ele>
        <time>2026-05-13T13:45:24.000Z</time>
      </trkpt>
      <trkpt lat="44.25422" lon="5.39191">
        <ele>1062</ele>
        <time>2026-05-13T13:45:25.000Z</time>
      </trkpt>
      <trkpt lat="44.25422" lon="5.39193">
        <ele>1062</ele>
        <time>2026-05-13T13:45:26.000Z</time>
      </trkpt>
      <trkpt lat="44.25421" lon="5.39194">
        <ele>1062</ele>
        <time>2026-05-13T13:45:27.000Z</time>
      </trkpt>
      <trkpt lat="44.25421" lon="5.39196">
        <ele>1061</ele>
        <time>2026-05-13T13:45:28.000Z</time>
      </trkpt>
      <trkpt lat="44.25421" lon="5.39198">
        <ele>1062</ele>
        <time>2026-05-13T13:45:29.000Z</time>
      </trkpt>
      <trkpt lat="44.25422" lon="5.392">
        <ele>1062</ele>
        <time>2026-05-13T13:45:30.000Z</time>
      </trkpt>
      <trkpt lat="44.25422" lon="5.39202">
        <ele>1062</ele>
        <time>2026-05-13T13:45:31.000Z</time>
      </trkpt>
      <trkpt lat="44.25423" lon="5.39204">
        <ele>1062</ele>
        <time>2026-05-13T13:45:32.000Z</time>
      </trkpt>
      <trkpt lat="44.25423" lon="5.39206">
        <ele>1062</ele>
        <time>2026-05-13T13:45:33.000Z</time>
      </trkpt>
      <trkpt lat="44.25423" lon="5.39207">
        <ele>1063</ele>
        <time>2026-05-13T13:45:34.000Z</time>
      </trkpt>
      <trkpt lat="44.25424" lon="5.39209">
        <ele>1063</ele>
        <time>2026-05-13T13:45:35.000Z</time>
      </trkpt>
      <trkpt lat="44.25424" lon="5.39211">
        <ele>1064</ele>
        <time>2026-05-13T13:45:36.000Z</time>
      </trkpt>
      <trkpt lat="44.25424" lon="5.39213">
        <ele>1064</ele>
        <time>2026-05-13T13:45:37.000Z</time>
      </trkpt>
      <trkpt lat="44.25424" lon="5.39215">
        <ele>1064</ele>
        <time>2026-05-13T13:45:38.000Z</time>
      </trkpt>
      <trkpt lat="44.25424" lon="5.39216">
        <ele>1065</ele>
        <time>2026-05-13T13:45:39.000Z</time>
      </trkpt>
      <trkpt lat="44.25423" lon="5.39218">
        <ele>1065</ele>
        <time>2026-05-13T13:45:40.000Z</time>
      </trkpt>
      <trkpt lat="44.25423" lon="5.3922">
        <ele>1065</ele>
        <time>2026-05-13T13:45:41.000Z</time>
      </trkpt>
      <trkpt lat="44.25423" lon="5.39221">
        <ele>1065</ele>
        <time>2026-05-13T13:45:42.000Z</time>
      </trkpt>
      <trkpt lat="44.25423" lon="5.39223">
        <ele>1066</ele>
        <time>2026-05-13T13:45:43.000Z</time>
      </trkpt>
      <trkpt lat="44.25423" lon="5.39224">
        <ele>1065</ele>
        <time>2026-05-13T13:45:44.000Z</time>
      </trkpt>
      <trkpt lat="44.25422" lon="5.39226">
        <ele>1066</ele>
        <time>2026-05-13T13:45:45.000Z</time>
      </trkpt>
      <trkpt lat="44.25421" lon="5.39228">
        <ele>1066</ele>
        <time>2026-05-13T13:45:46.000Z</time>
      </trkpt>
      <trkpt lat="44.25421" lon="5.39229">
        <ele>1066</ele>
        <time>2026-05-13T13:45:47.000Z</time>
      </trkpt>
      <trkpt lat="44.25421" lon="5.39231">
        <ele>1066</ele>
        <time>2026-05-13T13:45:48.000Z</time>
      </trkpt>
      <trkpt lat="44.25421" lon="5.39233">
        <ele>1066</ele>
        <time>2026-05-13T13:45:49.000Z</time>
      </trkpt>
      <trkpt lat="44.2542" lon="5.39234">
        <ele>1066</ele>
        <time>2026-05-13T13:45:50.000Z</time>
      </trkpt>
      <trkpt lat="44.2542" lon="5.39235">
        <ele>1066</ele>
        <time>2026-05-13T13:45:51.000Z</time>
      </trkpt>
      <trkpt lat="44.2542" lon="5.39237">
        <ele>1066</ele>
        <time>2026-05-13T13:45:52.000Z</time>
      </trkpt>
      <trkpt lat="44.25421" lon="5.39238">
        <ele>1066</ele>
        <time>2026-05-13T13:45:53.000Z</time>
      </trkpt>
      <trkpt lat="44.25421" lon="5.39239">
        <ele>1066</ele>
        <time>2026-05-13T13:45:54.000Z</time>
      </trkpt>
      <trkpt lat="44.25421" lon="5.39239">
        <ele>1066</ele>
        <time>2026-05-13T13:45:55.000Z</time>
      </trkpt>
      <trkpt lat="44.25422" lon="5.3924">
        <ele>1066</ele>
        <time>2026-05-13T13:45:56.000Z</time>
      </trkpt>
      <trkpt lat="44.25422" lon="5.39239">
        <ele>1066</ele>
        <time>2026-05-13T13:45:57.000Z</time>
      </trkpt>
      <trkpt lat="44.25421" lon="5.39238">
        <ele>1066</ele>
        <time>2026-05-13T13:45:58.000Z</time>
      </trkpt>
      <trkpt lat="44.25421" lon="5.39238">
        <ele>1066</ele>
        <time>2026-05-13T13:45:59.000Z</time>
      </trkpt>
      <trkpt lat="44.25421" lon="5.39238">
        <ele>1066</ele>
        <time>2026-05-13T13:46:00.000Z</time>
      </trkpt>
      <trkpt lat="44.25421" lon="5.39239">
        <ele>1066</ele>
        <time>2026-05-13T13:46:01.000Z</time>
      </trkpt>
      <trkpt lat="44.25421" lon="5.39239">
        <ele>1066</ele>
        <time>2026-05-13T13:46:02.000Z</time>
      </trkpt>
      <trkpt lat="44.25421" lon="5.39239">
        <ele>1066</ele>
        <time>2026-05-13T13:46:03.000Z</time>
      </trkpt>
      <trkpt lat="44.25421" lon="5.39239">
        <ele>1066</ele>
        <time>2026-05-13T13:46:04.000Z</time>
      </trkpt>
      <trkpt lat="44.25421" lon="5.39239">
        <ele>1066</ele>
        <time>2026-05-13T13:46:05.000Z</time>
      </trkpt>
      <trkpt lat="44.25421" lon="5.39239">
        <ele>1066</ele>
        <time>2026-05-13T13:46:06.000Z</time>
      </trkpt>
      <trkpt lat="44.25421" lon="5.39239">
        <ele>1066</ele>
        <time>2026-05-13T13:46:07.000Z</time>
      </trkpt>
      <trkpt lat="44.25421" lon="5.39239">
        <ele>1066</ele>
        <time>2026-05-13T13:46:08.000Z</time>
      </trkpt>
      <trkpt lat="44.25421" lon="5.39239">
        <ele>1066</ele>
        <time>2026-05-13T13:46:09.000Z</time>
      </trkpt>
      <trkpt lat="44.25421" lon="5.39239">
        <ele>1066</ele>
        <time>2026-05-13T13:46:10.000Z</time>
      </trkpt>
      <trkpt lat="44.25421" lon="5.39239">
        <ele>1066</ele>
        <time>2026-05-13T13:46:11.000Z</time>
      </trkpt>
      <trkpt lat="44.25421" lon="5.39239">
        <ele>1066</ele>
        <time>2026-05-13T13:46:12.000Z</time>
      </trkpt>
      <trkpt lat="44.25421" lon="5.39239">
        <ele>1066</ele>
        <time>2026-05-13T13:46:13.000Z</time>
      </trkpt>
      <trkpt lat="44.25421" lon="5.39239">
        <ele>1066</ele>
        <time>2026-05-13T13:46:14.000Z</time>
      </trkpt>
      <trkpt lat="44.25421" lon="5.39239">
        <ele>1066</ele>
        <time>2026-05-13T13:46:15.000Z</time>
      </trkpt>
      <trkpt lat="44.25421" lon="5.39239">
        <ele>1066</ele>
        <time>2026-05-13T13:46:16.000Z</time>
      </trkpt>
      <trkpt lat="44.25421" lon="5.39239">
        <ele>1066</ele>
        <time>2026-05-13T13:46:17.000Z</time>
      </trkpt>
      <trkpt lat="44.25421" lon="5.39239">
        <ele>1066</ele>
        <time>2026-05-13T13:46:18.000Z</time>
      </trkpt>
      <trkpt lat="44.25421" lon="5.39239">
        <ele>1066</ele>
        <time>2026-05-13T13:46:19.000Z</time>
      </trkpt>
      <trkpt lat="44.25421" lon="5.39239">
        <ele>1066</ele>
        <time>2026-05-13T13:46:20.000Z</time>
      </trkpt>
      <trkpt lat="44.25421" lon="5.39239">
        <ele>1066</ele>
        <time>2026-05-13T13:46:21.000Z</time>
      </trkpt>
      <trkpt lat="44.25421" lon="5.39239">
        <ele>1066</ele>
        <time>2026-05-13T13:46:22.000Z</time>
      </trkpt>
      <trkpt lat="44.25421" lon="5.39239">
        <ele>1066</ele>
        <time>2026-05-13T13:46:23.000Z</time>
      </trkpt>
      <trkpt lat="44.25421" lon="5.39239">
        <ele>1066</ele>
        <time>2026-05-13T13:46:24.000Z</time>
      </trkpt>
      <trkpt lat="44.25421" lon="5.39239">
        <ele>1066</ele>
        <time>2026-05-13T13:46:25.000Z</time>
      </trkpt>
      <trkpt lat="44.25421" lon="5.39239">
        <ele>1066</ele>
        <time>2026-05-13T13:46:26.000Z</time>
      </trkpt>
      <trkpt lat="44.25421" lon="5.39239">
        <ele>1066</ele>
        <time>2026-05-13T13:46:27.000Z</time>
      </trkpt>
      <trkpt lat="44.25421" lon="5.39239">
        <ele>1066</ele>
        <time>2026-05-13T13:46:28.000Z</time>
      </trkpt>
      <trkpt lat="44.25421" lon="5.39239">
        <ele>1066</ele>
        <time>2026-05-13T13:46:29.000Z</time>
      </trkpt>
      <trkpt lat="44.25421" lon="5.39239">
        <ele>1066</ele>
        <time>2026-05-13T13:46:30.000Z</time>
      </trkpt>
      <trkpt lat="44.25421" lon="5.39239">
        <ele>1066</ele>
        <time>2026-05-13T13:46:31.000Z</time>
      </trkpt>
      <trkpt lat="44.25421" lon="5.39239">
        <ele>1066</ele>
        <time>2026-05-13T13:46:32.000Z</time>
      </trkpt>
      <trkpt lat="44.25421" lon="5.39239">
        <ele>1066</ele>
        <time>2026-05-13T13:46:33.000Z</time>
      </trkpt>
      <trkpt lat="44.25421" lon="5.39239">
        <ele>1066</ele>
        <time>2026-05-13T13:46:34.000Z</time>
      </trkpt>
      <trkpt lat="44.25421" lon="5.39239">
        <ele>1066</ele>
        <time>2026-05-13T13:46:35.000Z</time>
      </trkpt>
      <trkpt lat="44.25421" lon="5.39239">
        <ele>1066</ele>
        <time>2026-05-13T13:46:36.000Z</time>
      </trkpt>
      <trkpt lat="44.25422" lon="5.39239">
        <ele>1066</ele>
        <time>2026-05-13T13:46:37.000Z</time>
      </trkpt>
      <trkpt lat="44.25422" lon="5.39239">
        <ele>1066</ele>
        <time>2026-05-13T13:46:38.000Z</time>
      </trkpt>
      <trkpt lat="44.25422" lon="5.39239">
        <ele>1066</ele>
        <time>2026-05-13T13:46:39.000Z</time>
      </trkpt>
      <trkpt lat="44.25422" lon="5.39239">
        <ele>1066</ele>
        <time>2026-05-13T13:46:40.000Z</time>
      </trkpt>
      <trkpt lat="44.25422" lon="5.39239">
        <ele>1066</ele>
        <time>2026-05-13T13:46:41.000Z</time>
      </trkpt>
      <trkpt lat="44.25422" lon="5.39239">
        <ele>1066</ele>
        <time>2026-05-13T13:46:42.000Z</time>
      </trkpt>
      <trkpt lat="44.25422" lon="5.39239">
        <ele>1066</ele>
        <time>2026-05-13T13:46:43.000Z</time>
      </trkpt>
      <trkpt lat="44.25422" lon="5.39239">
        <ele>1066</ele>
        <time>2026-05-13T13:46:44.000Z</time>
      </trkpt>
      <trkpt lat="44.25422" lon="5.39239">
        <ele>1066</ele>
        <time>2026-05-13T13:46:45.000Z</time>
      </trkpt>
      <trkpt lat="44.25422" lon="5.39239">
        <ele>1066</ele>
        <time>2026-05-13T13:46:46.000Z</time>
      </trkpt>
      <trkpt lat="44.25422" lon="5.39239">
        <ele>1066</ele>
        <time>2026-05-13T13:46:47.000Z</time>
      </trkpt>
      <trkpt lat="44.25422" lon="5.39239">
        <ele>1066</ele>
        <time>2026-05-13T13:46:48.000Z</time>
      </trkpt>
      <trkpt lat="44.25422" lon="5.39239">
        <ele>1066</ele>
        <time>2026-05-13T13:46:49.000Z</time>
      </trkpt>
      <trkpt lat="44.25422" lon="5.39239">
        <ele>1066</ele>
        <time>2026-05-13T13:46:50.000Z</time>
      </trkpt>
      <trkpt lat="44.25422" lon="5.39239">
        <ele>1066</ele>
        <time>2026-05-13T13:46:51.000Z</time>
      </trkpt>
      <trkpt lat="44.25422" lon="5.39239">
        <ele>1066</ele>
        <time>2026-05-13T13:46:52.000Z</time>
      </trkpt>
      <trkpt lat="44.25422" lon="5.39239">
        <ele>1066</ele>
        <time>2026-05-13T13:46:53.000Z</time>
      </trkpt>
      <trkpt lat="44.25422" lon="5.39239">
        <ele>1066</ele>
        <time>2026-05-13T13:46:54.000Z</time>
      </trkpt>
      <trkpt lat="44.25422" lon="5.39239">
        <ele>1066</ele>
        <time>2026-05-13T13:46:55.000Z</time>
      </trkpt>
      <trkpt lat="44.25422" lon="5.39239">
        <ele>1066</ele>
        <time>2026-05-13T13:46:56.000Z</time>
      </trkpt>
      <trkpt lat="44.25422" lon="5.39239">
        <ele>1066</ele>
        <time>2026-05-13T13:46:57.000Z</time>
      </trkpt>
      <trkpt lat="44.25422" lon="5.39239">
        <ele>1066</ele>
        <time>2026-05-13T13:46:58.000Z</time>
      </trkpt>
      <trkpt lat="44.25422" lon="5.39239">
        <ele>1066</ele>
        <time>2026-05-13T13:46:59.000Z</time>
      </trkpt>
      <trkpt lat="44.25422" lon="5.39239">
        <ele>1066</ele>
        <time>2026-05-13T13:47:00.000Z</time>
      </trkpt>
      <trkpt lat="44.25422" lon="5.39239">
        <ele>1066</ele>
        <time>2026-05-13T13:47:01.000Z</time>
      </trkpt>
      <trkpt lat="44.25422" lon="5.39239">
        <ele>1066</ele>
        <time>2026-05-13T13:47:02.000Z</time>
      </trkpt>
      <trkpt lat="44.25422" lon="5.39239">
        <ele>1066</ele>
        <time>2026-05-13T13:47:03.000Z</time>
      </trkpt>
      <trkpt lat="44.25422" lon="5.39239">
        <ele>1066</ele>
        <time>2026-05-13T13:47:04.000Z</time>
      </trkpt>
      <trkpt lat="44.25422" lon="5.39239">
        <ele>1066</ele>
        <time>2026-05-13T13:47:05.000Z</time>
      </trkpt>
      <trkpt lat="44.25422" lon="5.39239">
        <ele>1066</ele>
        <time>2026-05-13T13:47:06.000Z</time>
      </trkpt>
      <trkpt lat="44.25422" lon="5.39239">
        <ele>1066</ele>
        <time>2026-05-13T13:47:07.000Z</time>
      </trkpt>
      <trkpt lat="44.25422" lon="5.39239">
        <ele>1066</ele>
        <time>2026-05-13T13:47:08.000Z</time>
      </trkpt>
      <trkpt lat="44.25422" lon="5.39239">
        <ele>1066</ele>
        <time>2026-05-13T13:47:09.000Z</time>
      </trkpt>
      <trkpt lat="44.25422" lon="5.39239">
        <ele>1066</ele>
        <time>2026-05-13T13:47:10.000Z</time>
      </trkpt>
      <trkpt lat="44.25422" lon="5.39239">
        <ele>1066</ele>
        <time>2026-05-13T13:47:11.000Z</time>
      </trkpt>
      <trkpt lat="44.25422" lon="5.39239">
        <ele>1066</ele>
        <time>2026-05-13T13:47:12.000Z</time>
      </trkpt>
      <trkpt lat="44.25422" lon="5.39239">
        <ele>1066</ele>
        <time>2026-05-13T13:47:13.000Z</time>
      </trkpt>
      <trkpt lat="44.25422" lon="5.39239">
        <ele>1066</ele>
        <time>2026-05-13T13:47:14.000Z</time>
      </trkpt>
      <trkpt lat="44.25422" lon="5.39239">
        <ele>1066</ele>
        <time>2026-05-13T13:47:15.000Z</time>
      </trkpt>
      <trkpt lat="44.25422" lon="5.39239">
        <ele>1066</ele>
        <time>2026-05-13T13:47:16.000Z</time>
      </trkpt>
      <trkpt lat="44.25422" lon="5.39239">
        <ele>1066</ele>
        <time>2026-05-13T13:47:17.000Z</time>
      </trkpt>
      <trkpt lat="44.25422" lon="5.39239">
        <ele>1066</ele>
        <time>2026-05-13T13:47:18.000Z</time>
      </trkpt>
      <trkpt lat="44.25422" lon="5.39239">
        <ele>1066</ele>
        <time>2026-05-13T13:47:19.000Z</time>
      </trkpt>
      <trkpt lat="44.25422" lon="5.39239">
        <ele>1066</ele>
        <time>2026-05-13T13:47:20.000Z</time>
      </trkpt>
      <trkpt lat="44.25422" lon="5.39239">
        <ele>1066</ele>
        <time>2026-05-13T13:47:21.000Z</time>
      </trkpt>
      <trkpt lat="44.25422" lon="5.39239">
        <ele>1066</ele>
        <time>2026-05-13T13:47:22.000Z</time>
      </trkpt>
      <trkpt lat="44.25422" lon="5.39239">
        <ele>1066</ele>
        <time>2026-05-13T13:47:23.000Z</time>
      </trkpt>
      <trkpt lat="44.25422" lon="5.39239">
        <ele>1066</ele>
        <time>2026-05-13T13:47:24.000Z</time>
      </trkpt>
      <trkpt lat="44.25422" lon="5.39239">
        <ele>1066</ele>
        <time>2026-05-13T13:47:25.000Z</time>
      </trkpt>
      <trkpt lat="44.25422" lon="5.39239">
        <ele>1066</ele>
        <time>2026-05-13T13:47:26.000Z</time>
      </trkpt>
      <trkpt lat="44.25422" lon="5.39239">
        <ele>1066</ele>
        <time>2026-05-13T13:47:27.000Z</time>
      </trkpt>
      <trkpt lat="44.25422" lon="5.39239">
        <ele>1066</ele>
        <time>2026-05-13T13:47:28.000Z</time>
      </trkpt>
      <trkpt lat="44.25422" lon="5.39239">
        <ele>1066</ele>
        <time>2026-05-13T13:47:29.000Z</time>
      </trkpt>
      <trkpt lat="44.25422" lon="5.39239">
        <ele>1066</ele>
        <time>2026-05-13T13:47:30.000Z</time>
      </trkpt>
      <trkpt lat="44.25422" lon="5.39239">
        <ele>1066</ele>
        <time>2026-05-13T13:47:31.000Z</time>
      </trkpt>
      <trkpt lat="44.25422" lon="5.39239">
        <ele>1066</ele>
        <time>2026-05-13T13:47:32.000Z</time>
      </trkpt>
      <trkpt lat="44.25422" lon="5.39239">
        <ele>1066</ele>
        <time>2026-05-13T13:47:33.000Z</time>
      </trkpt>
      <trkpt lat="44.25422" lon="5.39239">
        <ele>1066</ele>
        <time>2026-05-13T13:47:34.000Z</time>
      </trkpt>
      <trkpt lat="44.25422" lon="5.39239">
        <ele>1066</ele>
        <time>2026-05-13T13:47:35.000Z</time>
      </trkpt>
      <trkpt lat="44.25422" lon="5.39239">
        <ele>1066</ele>
        <time>2026-05-13T13:47:36.000Z</time>
      </trkpt>
      <trkpt lat="44.25422" lon="5.39239">
        <ele>1066</ele>
        <time>2026-05-13T13:47:37.000Z</time>
      </trkpt>
      <trkpt lat="44.25422" lon="5.39239">
        <ele>1066</ele>
        <time>2026-05-13T13:47:38.000Z</time>
      </trkpt>
      <trkpt lat="44.25422" lon="5.39239">
        <ele>1066</ele>
        <time>2026-05-13T13:47:39.000Z</time>
      </trkpt>
      <trkpt lat="44.25422" lon="5.39239">
        <ele>1066</ele>
        <time>2026-05-13T13:47:40.000Z</time>
      </trkpt>
      <trkpt lat="44.25422" lon="5.39239">
        <ele>1066</ele>
        <time>2026-05-13T13:47:41.000Z</time>
      </trkpt>
      <trkpt lat="44.25422" lon="5.39239">
        <ele>1066</ele>
        <time>2026-05-13T13:47:42.000Z</time>
      </trkpt>
      <trkpt lat="44.25422" lon="5.39239">
        <ele>1066</ele>
        <time>2026-05-13T13:47:43.000Z</time>
      </trkpt>
      <trkpt lat="44.25422" lon="5.39239">
        <ele>1066</ele>
        <time>2026-05-13T13:47:44.000Z</time>
      </trkpt>
      <trkpt lat="44.25422" lon="5.39239">
        <ele>1066</ele>
        <time>2026-05-13T13:47:45.000Z</time>
      </trkpt>
      <trkpt lat="44.25422" lon="5.39239">
        <ele>1066</ele>
        <time>2026-05-13T13:47:46.000Z</time>
      </trkpt>
      <trkpt lat="44.25422" lon="5.39239">
        <ele>1066</ele>
        <time>2026-05-13T13:47:47.000Z</time>
      </trkpt>
      <trkpt lat="44.25422" lon="5.39239">
        <ele>1066</ele>
        <time>2026-05-13T13:47:48.000Z</time>
      </trkpt>
      <trkpt lat="44.25422" lon="5.39239">
        <ele>1066</ele>
        <time>2026-05-13T13:47:49.000Z</time>
      </trkpt>
      <trkpt lat="44.25422" lon="5.39239">
        <ele>1066</ele>
        <time>2026-05-13T13:47:50.000Z</time>
      </trkpt>
      <trkpt lat="44.25422" lon="5.39239">
        <ele>1066</ele>
        <time>2026-05-13T13:47:51.000Z</time>
      </trkpt>
      <trkpt lat="44.25422" lon="5.39239">
        <ele>1066</ele>
        <time>2026-05-13T13:47:52.000Z</time>
      </trkpt>
      <trkpt lat="44.25422" lon="5.39239">
        <ele>1066</ele>
        <time>2026-05-13T13:47:53.000Z</time>
      </trkpt>
      <trkpt lat="44.25422" lon="5.39239">
        <ele>1066</ele>
        <time>2026-05-13T13:47:54.000Z</time>
      </trkpt>
      <trkpt lat="44.25422" lon="5.39239">
        <ele>1066</ele>
        <time>2026-05-13T13:47:55.000Z</time>
      </trkpt>
      <trkpt lat="44.25422" lon="5.39238">
        <ele>1066</ele>
        <time>2026-05-13T13:47:56.000Z</time>
      </trkpt>
      <trkpt lat="44.25422" lon="5.39239">
        <ele>1065</ele>
        <time>2026-05-13T13:47:57.000Z</time>
      </trkpt>
      <trkpt lat="44.25422" lon="5.39239">
        <ele>1065</ele>
        <time>2026-05-13T13:47:58.000Z</time>
      </trkpt>
      <trkpt lat="44.25422" lon="5.39239">
        <ele>1065</ele>
        <time>2026-05-13T13:47:59.000Z</time>
      </trkpt>
      <trkpt lat="44.25422" lon="5.39239">
        <ele>1065</ele>
        <time>2026-05-13T13:48:00.000Z</time>
      </trkpt>
      <trkpt lat="44.25422" lon="5.39239">
        <ele>1065</ele>
        <time>2026-05-13T13:48:01.000Z</time>
      </trkpt>
      <trkpt lat="44.25422" lon="5.39239">
        <ele>1065</ele>
        <time>2026-05-13T13:48:02.000Z</time>
      </trkpt>
      <trkpt lat="44.25422" lon="5.39239">
        <ele>1065</ele>
        <time>2026-05-13T13:48:03.000Z</time>
      </trkpt>
      <trkpt lat="44.25422" lon="5.39239">
        <ele>1065</ele>
        <time>2026-05-13T13:48:04.000Z</time>
      </trkpt>
      <trkpt lat="44.25422" lon="5.39239">
        <ele>1065</ele>
        <time>2026-05-13T13:48:05.000Z</time>
      </trkpt>
      <trkpt lat="44.25422" lon="5.39239">
        <ele>1065</ele>
        <time>2026-05-13T13:48:06.000Z</time>
      </trkpt>
      <trkpt lat="44.25422" lon="5.39239">
        <ele>1065</ele>
        <time>2026-05-13T13:48:07.000Z</time>
      </trkpt>
      <trkpt lat="44.25422" lon="5.39239">
        <ele>1065</ele>
        <time>2026-05-13T13:48:08.000Z</time>
      </trkpt>
      <trkpt lat="44.25422" lon="5.39239">
        <ele>1065</ele>
        <time>2026-05-13T13:48:09.000Z</time>
      </trkpt>
      <trkpt lat="44.25422" lon="5.39239">
        <ele>1065</ele>
        <time>2026-05-13T13:48:10.000Z</time>
      </trkpt>
      <trkpt lat="44.25422" lon="5.39239">
        <ele>1065</ele>
        <time>2026-05-13T13:48:11.000Z</time>
      </trkpt>
      <trkpt lat="44.25422" lon="5.39239">
        <ele>1065</ele>
        <time>2026-05-13T13:48:12.000Z</time>
      </trkpt>
      <trkpt lat="44.25422" lon="5.39239">
        <ele>1065</ele>
        <time>2026-05-13T13:48:13.000Z</time>
      </trkpt>
      <trkpt lat="44.25422" lon="5.39239">
        <ele>1065</ele>
        <time>2026-05-13T13:48:14.000Z</time>
      </trkpt>
      <trkpt lat="44.25422" lon="5.39239">
        <ele>1065</ele>
        <time>2026-05-13T13:48:15.000Z</time>
      </trkpt>
      <trkpt lat="44.25422" lon="5.39239">
        <ele>1065</ele>
        <time>2026-05-13T13:48:16.000Z</time>
      </trkpt>
      <trkpt lat="44.25422" lon="5.39239">
        <ele>1065</ele>
        <time>2026-05-13T13:48:17.000Z</time>
      </trkpt>
      <trkpt lat="44.25422" lon="5.39239">
        <ele>1065</ele>
        <time>2026-05-13T13:48:18.000Z</time>
      </trkpt>
      <trkpt lat="44.25422" lon="5.39239">
        <ele>1065</ele>
        <time>2026-05-13T13:48:19.000Z</time>
      </trkpt>
      <trkpt lat="44.25422" lon="5.39239">
        <ele>1065</ele>
        <time>2026-05-13T13:48:20.000Z</time>
      </trkpt>
      <trkpt lat="44.25422" lon="5.39239">
        <ele>1065</ele>
        <time>2026-05-13T13:48:21.000Z</time>
      </trkpt>
      <trkpt lat="44.25422" lon="5.39239">
        <ele>1065</ele>
        <time>2026-05-13T13:48:22.000Z</time>
      </trkpt>
      <trkpt lat="44.25422" lon="5.39239">
        <ele>1065</ele>
        <time>2026-05-13T13:48:23.000Z</time>
      </trkpt>
      <trkpt lat="44.25422" lon="5.39239">
        <ele>1065</ele>
        <time>2026-05-13T13:48:24.000Z</time>
      </trkpt>
      <trkpt lat="44.25422" lon="5.39239">
        <ele>1065</ele>
        <time>2026-05-13T13:48:25.000Z</time>
      </trkpt>
      <trkpt lat="44.25422" lon="5.39239">
        <ele>1065</ele>
        <time>2026-05-13T13:48:26.000Z</time>
      </trkpt>
      <trkpt lat="44.25422" lon="5.39239">
        <ele>1065</ele>
        <time>2026-05-13T13:48:27.000Z</time>
      </trkpt>
      <trkpt lat="44.25422" lon="5.39239">
        <ele>1065</ele>
        <time>2026-05-13T13:48:28.000Z</time>
      </trkpt>
      <trkpt lat="44.25422" lon="5.39239">
        <ele>1065</ele>
        <time>2026-05-13T13:48:29.000Z</time>
      </trkpt>
      <trkpt lat="44.25422" lon="5.39239">
        <ele>1065</ele>
        <time>2026-05-13T13:48:30.000Z</time>
      </trkpt>
      <trkpt lat="44.25422" lon="5.39239">
        <ele>1065</ele>
        <time>2026-05-13T13:48:31.000Z</time>
      </trkpt>
      <trkpt lat="44.25422" lon="5.39239">
        <ele>1065</ele>
        <time>2026-05-13T13:48:32.000Z</time>
      </trkpt>
      <trkpt lat="44.25422" lon="5.3924">
        <ele>1065</ele>
        <time>2026-05-13T13:48:33.000Z</time>
      </trkpt>
      <trkpt lat="44.25422" lon="5.3924">
        <ele>1065</ele>
        <time>2026-05-13T13:48:34.000Z</time>
      </trkpt>
      <trkpt lat="44.25422" lon="5.3924">
        <ele>1065</ele>
        <time>2026-05-13T13:48:35.000Z</time>
      </trkpt>
      <trkpt lat="44.25422" lon="5.3924">
        <ele>1065</ele>
        <time>2026-05-13T13:48:36.000Z</time>
      </trkpt>
      <trkpt lat="44.25422" lon="5.3924">
        <ele>1065</ele>
        <time>2026-05-13T13:48:37.000Z</time>
      </trkpt>
      <trkpt lat="44.25422" lon="5.3924">
        <ele>1065</ele>
        <time>2026-05-13T13:48:38.000Z</time>
      </trkpt>
      <trkpt lat="44.25422" lon="5.3924">
        <ele>1065</ele>
        <time>2026-05-13T13:48:39.000Z</time>
      </trkpt>
      <trkpt lat="44.25422" lon="5.3924">
        <ele>1065</ele>
        <time>2026-05-13T13:48:40.000Z</time>
      </trkpt>
      <trkpt lat="44.25422" lon="5.3924">
        <ele>1065</ele>
        <time>2026-05-13T13:48:41.000Z</time>
      </trkpt>
      <trkpt lat="44.25422" lon="5.3924">
        <ele>1065</ele>
        <time>2026-05-13T13:48:42.000Z</time>
      </trkpt>
      <trkpt lat="44.25422" lon="5.3924">
        <ele>1065</ele>
        <time>2026-05-13T13:48:43.000Z</time>
      </trkpt>
      <trkpt lat="44.25422" lon="5.39241">
        <ele>1065</ele>
        <time>2026-05-13T13:48:44.000Z</time>
      </trkpt>
      <trkpt lat="44.25422" lon="5.39241">
        <ele>1065</ele>
        <time>2026-05-13T13:48:45.000Z</time>
      </trkpt>
      <trkpt lat="44.25422" lon="5.39241">
        <ele>1065</ele>
        <time>2026-05-13T13:48:46.000Z</time>
      </trkpt>
      <trkpt lat="44.25421" lon="5.39242">
        <ele>1065</ele>
        <time>2026-05-13T13:48:47.000Z</time>
      </trkpt>
      <trkpt lat="44.25421" lon="5.39243">
        <ele>1066</ele>
        <time>2026-05-13T13:48:48.000Z</time>
      </trkpt>
      <trkpt lat="44.25421" lon="5.39244">
        <ele>1066</ele>
        <time>2026-05-13T13:48:49.000Z</time>
      </trkpt>
      <trkpt lat="44.2542" lon="5.39246">
        <ele>1066</ele>
        <time>2026-05-13T13:48:50.000Z</time>
      </trkpt>
      <trkpt lat="44.2542" lon="5.39248">
        <ele>1066</ele>
        <time>2026-05-13T13:48:51.000Z</time>
      </trkpt>
      <trkpt lat="44.2542" lon="5.3925">
        <ele>1066</ele>
        <time>2026-05-13T13:48:52.000Z</time>
      </trkpt>
      <trkpt lat="44.25419" lon="5.39253">
        <ele>1066</ele>
        <time>2026-05-13T13:48:53.000Z</time>
      </trkpt>
      <trkpt lat="44.25419" lon="5.39256">
        <ele>1066</ele>
        <time>2026-05-13T13:48:54.000Z</time>
      </trkpt>
      <trkpt lat="44.25418" lon="5.3926">
        <ele>1066</ele>
        <time>2026-05-13T13:48:55.000Z</time>
      </trkpt>
      <trkpt lat="44.25417" lon="5.39264">
        <ele>1066</ele>
        <time>2026-05-13T13:48:56.000Z</time>
      </trkpt>
      <trkpt lat="44.25416" lon="5.39268">
        <ele>1066</ele>
        <time>2026-05-13T13:48:57.000Z</time>
      </trkpt>
      <trkpt lat="44.25414" lon="5.39272">
        <ele>1066</ele>
        <time>2026-05-13T13:48:58.000Z</time>
      </trkpt>
      <trkpt lat="44.25414" lon="5.39275">
        <ele>1066</ele>
        <time>2026-05-13T13:48:59.000Z</time>
      </trkpt>
      <trkpt lat="44.25413" lon="5.39278">
        <ele>1066</ele>
        <time>2026-05-13T13:49:00.000Z</time>
      </trkpt>
      <trkpt lat="44.25413" lon="5.3928">
        <ele>1066</ele>
        <time>2026-05-13T13:49:01.000Z</time>
      </trkpt>
      <trkpt lat="44.25412" lon="5.39282">
        <ele>1066</ele>
        <time>2026-05-13T13:49:02.000Z</time>
      </trkpt>
      <trkpt lat="44.25411" lon="5.39283">
        <ele>1066</ele>
        <time>2026-05-13T13:49:03.000Z</time>
      </trkpt>
      <trkpt lat="44.2541" lon="5.39285">
        <ele>1065</ele>
        <time>2026-05-13T13:49:04.000Z</time>
      </trkpt>
      <trkpt lat="44.2541" lon="5.39287">
        <ele>1065</ele>
        <time>2026-05-13T13:49:05.000Z</time>
      </trkpt>
      <trkpt lat="44.25409" lon="5.39288">
        <ele>1066</ele>
        <time>2026-05-13T13:49:06.000Z</time>
      </trkpt>
      <trkpt lat="44.25408" lon="5.3929">
        <ele>1066</ele>
        <time>2026-05-13T13:49:07.000Z</time>
      </trkpt>
      <trkpt lat="44.25407" lon="5.39291">
        <ele>1066</ele>
        <time>2026-05-13T13:49:08.000Z</time>
      </trkpt>
      <trkpt lat="44.25406" lon="5.39294">
        <ele>1066</ele>
        <time>2026-05-13T13:49:09.000Z</time>
      </trkpt>
      <trkpt lat="44.25406" lon="5.39295">
        <ele>1066</ele>
        <time>2026-05-13T13:49:10.000Z</time>
      </trkpt>
      <trkpt lat="44.25406" lon="5.39297">
        <ele>1066</ele>
        <time>2026-05-13T13:49:11.000Z</time>
      </trkpt>
      <trkpt lat="44.25406" lon="5.39299">
        <ele>1066</ele>
        <time>2026-05-13T13:49:12.000Z</time>
      </trkpt>
      <trkpt lat="44.25406" lon="5.39301">
        <ele>1066</ele>
        <time>2026-05-13T13:49:13.000Z</time>
      </trkpt>
      <trkpt lat="44.25406" lon="5.39303">
        <ele>1066</ele>
        <time>2026-05-13T13:49:14.000Z</time>
      </trkpt>
      <trkpt lat="44.25406" lon="5.39305">
        <ele>1066</ele>
        <time>2026-05-13T13:49:15.000Z</time>
      </trkpt>
      <trkpt lat="44.25406" lon="5.39307">
        <ele>1066</ele>
        <time>2026-05-13T13:49:16.000Z</time>
      </trkpt>
      <trkpt lat="44.25406" lon="5.39309">
        <ele>1066</ele>
        <time>2026-05-13T13:49:17.000Z</time>
      </trkpt>
      <trkpt lat="44.25405" lon="5.3931">
        <ele>1067</ele>
        <time>2026-05-13T13:49:18.000Z</time>
      </trkpt>
      <trkpt lat="44.25404" lon="5.39311">
        <ele>1068</ele>
        <time>2026-05-13T13:49:19.000Z</time>
      </trkpt>
      <trkpt lat="44.25404" lon="5.39313">
        <ele>1068</ele>
        <time>2026-05-13T13:49:20.000Z</time>
      </trkpt>
      <trkpt lat="44.25404" lon="5.39314">
        <ele>1068</ele>
        <time>2026-05-13T13:49:21.000Z</time>
      </trkpt>
      <trkpt lat="44.25404" lon="5.39315">
        <ele>1069</ele>
        <time>2026-05-13T13:49:22.000Z</time>
      </trkpt>
      <trkpt lat="44.25403" lon="5.39317">
        <ele>1069</ele>
        <time>2026-05-13T13:49:23.000Z</time>
      </trkpt>
      <trkpt lat="44.25402" lon="5.39319">
        <ele>1069</ele>
        <time>2026-05-13T13:49:24.000Z</time>
      </trkpt>
      <trkpt lat="44.25402" lon="5.39321">
        <ele>1069</ele>
        <time>2026-05-13T13:49:25.000Z</time>
      </trkpt>
      <trkpt lat="44.25401" lon="5.39322">
        <ele>1069</ele>
        <time>2026-05-13T13:49:26.000Z</time>
      </trkpt>
      <trkpt lat="44.25401" lon="5.39324">
        <ele>1068</ele>
        <time>2026-05-13T13:49:27.000Z</time>
      </trkpt>
      <trkpt lat="44.25401" lon="5.39326">
        <ele>1068</ele>
        <time>2026-05-13T13:49:28.000Z</time>
      </trkpt>
      <trkpt lat="44.25401" lon="5.39328">
        <ele>1069</ele>
        <time>2026-05-13T13:49:29.000Z</time>
      </trkpt>
      <trkpt lat="44.25401" lon="5.39329">
        <ele>1069</ele>
        <time>2026-05-13T13:49:30.000Z</time>
      </trkpt>
      <trkpt lat="44.25401" lon="5.3933">
        <ele>1069</ele>
        <time>2026-05-13T13:49:31.000Z</time>
      </trkpt>
      <trkpt lat="44.254" lon="5.39332">
        <ele>1069</ele>
        <time>2026-05-13T13:49:32.000Z</time>
      </trkpt>
      <trkpt lat="44.25401" lon="5.39334">
        <ele>1069</ele>
        <time>2026-05-13T13:49:33.000Z</time>
      </trkpt>
      <trkpt lat="44.25401" lon="5.39335">
        <ele>1069</ele>
        <time>2026-05-13T13:49:34.000Z</time>
      </trkpt>
      <trkpt lat="44.25401" lon="5.39337">
        <ele>1070</ele>
        <time>2026-05-13T13:49:35.000Z</time>
      </trkpt>
      <trkpt lat="44.25401" lon="5.39339">
        <ele>1070</ele>
        <time>2026-05-13T13:49:36.000Z</time>
      </trkpt>
      <trkpt lat="44.25401" lon="5.3934">
        <ele>1070</ele>
        <time>2026-05-13T13:49:37.000Z</time>
      </trkpt>
      <trkpt lat="44.25402" lon="5.39341">
        <ele>1070</ele>
        <time>2026-05-13T13:49:38.000Z</time>
      </trkpt>
      <trkpt lat="44.25402" lon="5.39342">
        <ele>1070</ele>
        <time>2026-05-13T13:49:39.000Z</time>
      </trkpt>
      <trkpt lat="44.25402" lon="5.39344">
        <ele>1070</ele>
        <time>2026-05-13T13:49:40.000Z</time>
      </trkpt>
      <trkpt lat="44.25402" lon="5.39345">
        <ele>1070</ele>
        <time>2026-05-13T13:49:41.000Z</time>
      </trkpt>
      <trkpt lat="44.25401" lon="5.39348">
        <ele>1070</ele>
        <time>2026-05-13T13:49:42.000Z</time>
      </trkpt>
      <trkpt lat="44.254" lon="5.39351">
        <ele>1070</ele>
        <time>2026-05-13T13:49:43.000Z</time>
      </trkpt>
      <trkpt lat="44.25397" lon="5.39354">
        <ele>1071</ele>
        <time>2026-05-13T13:49:44.000Z</time>
      </trkpt>
      <trkpt lat="44.25394" lon="5.39356">
        <ele>1069</ele>
        <time>2026-05-13T13:49:45.000Z</time>
      </trkpt>
      <trkpt lat="44.25391" lon="5.3936">
        <ele>1068</ele>
        <time>2026-05-13T13:49:46.000Z</time>
      </trkpt>
      <trkpt lat="44.25388" lon="5.39364">
        <ele>1069</ele>
        <time>2026-05-13T13:49:47.000Z</time>
      </trkpt>
      <trkpt lat="44.25385" lon="5.39369">
        <ele>1069</ele>
        <time>2026-05-13T13:49:48.000Z</time>
      </trkpt>
      <trkpt lat="44.25385" lon="5.39376">
        <ele>1069</ele>
        <time>2026-05-13T13:49:49.000Z</time>
      </trkpt>
      <trkpt lat="44.25385" lon="5.3938">
        <ele>1069</ele>
        <time>2026-05-13T13:49:50.000Z</time>
      </trkpt>
      <trkpt lat="44.25385" lon="5.39384">
        <ele>1069</ele>
        <time>2026-05-13T13:49:51.000Z</time>
      </trkpt>
      <trkpt lat="44.25385" lon="5.39387">
        <ele>1069</ele>
        <time>2026-05-13T13:49:52.000Z</time>
      </trkpt>
      <trkpt lat="44.25385" lon="5.39389">
        <ele>1069</ele>
        <time>2026-05-13T13:49:53.000Z</time>
      </trkpt>
      <trkpt lat="44.25384" lon="5.39392">
        <ele>1069</ele>
        <time>2026-05-13T13:49:54.000Z</time>
      </trkpt>
      <trkpt lat="44.25383" lon="5.39395">
        <ele>1068</ele>
        <time>2026-05-13T13:49:55.000Z</time>
      </trkpt>
      <trkpt lat="44.25383" lon="5.39398">
        <ele>1068</ele>
        <time>2026-05-13T13:49:56.000Z</time>
      </trkpt>
      <trkpt lat="44.25383" lon="5.39401">
        <ele>1068</ele>
        <time>2026-05-13T13:49:57.000Z</time>
      </trkpt>
      <trkpt lat="44.25383" lon="5.39405">
        <ele>1068</ele>
        <time>2026-05-13T13:49:58.000Z</time>
      </trkpt>
      <trkpt lat="44.25382" lon="5.3941">
        <ele>1067</ele>
        <time>2026-05-13T13:49:59.000Z</time>
      </trkpt>
      <trkpt lat="44.2538" lon="5.39415">
        <ele>1066</ele>
        <time>2026-05-13T13:50:00.000Z</time>
      </trkpt>
      <trkpt lat="44.25378" lon="5.39421">
        <ele>1066</ele>
        <time>2026-05-13T13:50:01.000Z</time>
      </trkpt>
      <trkpt lat="44.25376" lon="5.39426">
        <ele>1065</ele>
        <time>2026-05-13T13:50:02.000Z</time>
      </trkpt>
      <trkpt lat="44.25374" lon="5.39432">
        <ele>1065</ele>
        <time>2026-05-13T13:50:03.000Z</time>
      </trkpt>
      <trkpt lat="44.25373" lon="5.39438">
        <ele>1065</ele>
        <time>2026-05-13T13:50:04.000Z</time>
      </trkpt>
      <trkpt lat="44.25372" lon="5.39443">
        <ele>1065</ele>
        <time>2026-05-13T13:50:05.000Z</time>
      </trkpt>
      <trkpt lat="44.25372" lon="5.39448">
        <ele>1065</ele>
        <time>2026-05-13T13:50:06.000Z</time>
      </trkpt>
      <trkpt lat="44.25371" lon="5.39452">
        <ele>1066</ele>
        <time>2026-05-13T13:50:07.000Z</time>
      </trkpt>
      <trkpt lat="44.2537" lon="5.39456">
        <ele>1066</ele>
        <time>2026-05-13T13:50:08.000Z</time>
      </trkpt>
      <trkpt lat="44.2537" lon="5.3946">
        <ele>1066</ele>
        <time>2026-05-13T13:50:09.000Z</time>
      </trkpt>
      <trkpt lat="44.25369" lon="5.39462">
        <ele>1066</ele>
        <time>2026-05-13T13:50:10.000Z</time>
      </trkpt>
      <trkpt lat="44.25368" lon="5.39466">
        <ele>1067</ele>
        <time>2026-05-13T13:50:11.000Z</time>
      </trkpt>
      <trkpt lat="44.25368" lon="5.39468">
        <ele>1067</ele>
        <time>2026-05-13T13:50:12.000Z</time>
      </trkpt>
      <trkpt lat="44.25368" lon="5.39471">
        <ele>1067</ele>
        <time>2026-05-13T13:50:13.000Z</time>
      </trkpt>
      <trkpt lat="44.25368" lon="5.39472">
        <ele>1067</ele>
        <time>2026-05-13T13:50:14.000Z</time>
      </trkpt>
      <trkpt lat="44.25367" lon="5.39474">
        <ele>1068</ele>
        <time>2026-05-13T13:50:15.000Z</time>
      </trkpt>
      <trkpt lat="44.25367" lon="5.39476">
        <ele>1067</ele>
        <time>2026-05-13T13:50:16.000Z</time>
      </trkpt>
      <trkpt lat="44.25367" lon="5.39478">
        <ele>1067</ele>
        <time>2026-05-13T13:50:17.000Z</time>
      </trkpt>
      <trkpt lat="44.25366" lon="5.39479">
        <ele>1068</ele>
        <time>2026-05-13T13:50:18.000Z</time>
      </trkpt>
      <trkpt lat="44.25365" lon="5.39482">
        <ele>1068</ele>
        <time>2026-05-13T13:50:19.000Z</time>
      </trkpt>
      <trkpt lat="44.25364" lon="5.39484">
        <ele>1068</ele>
        <time>2026-05-13T13:50:20.000Z</time>
      </trkpt>
      <trkpt lat="44.25364" lon="5.39486">
        <ele>1068</ele>
        <time>2026-05-13T13:50:21.000Z</time>
      </trkpt>
      <trkpt lat="44.25363" lon="5.39487">
        <ele>1068</ele>
        <time>2026-05-13T13:50:22.000Z</time>
      </trkpt>
      <trkpt lat="44.25361" lon="5.39488">
        <ele>1068</ele>
        <time>2026-05-13T13:50:23.000Z</time>
      </trkpt>
      <trkpt lat="44.2536" lon="5.39488">
        <ele>1068</ele>
        <time>2026-05-13T13:50:24.000Z</time>
      </trkpt>
      <trkpt lat="44.25358" lon="5.39488">
        <ele>1068</ele>
        <time>2026-05-13T13:50:25.000Z</time>
      </trkpt>
      <trkpt lat="44.25357" lon="5.39487">
        <ele>1068</ele>
        <time>2026-05-13T13:50:26.000Z</time>
      </trkpt>
      <trkpt lat="44.25356" lon="5.39486">
        <ele>1068</ele>
        <time>2026-05-13T13:50:27.000Z</time>
      </trkpt>
      <trkpt lat="44.25354" lon="5.39485">
        <ele>1068</ele>
        <time>2026-05-13T13:50:28.000Z</time>
      </trkpt>
      <trkpt lat="44.25352" lon="5.39485">
        <ele>1068</ele>
        <time>2026-05-13T13:50:29.000Z</time>
      </trkpt>
      <trkpt lat="44.2535" lon="5.39485">
        <ele>1068</ele>
        <time>2026-05-13T13:50:30.000Z</time>
      </trkpt>
      <trkpt lat="44.25348" lon="5.39485">
        <ele>1068</ele>
        <time>2026-05-13T13:50:31.000Z</time>
      </trkpt>
      <trkpt lat="44.25344" lon="5.39484">
        <ele>1067</ele>
        <time>2026-05-13T13:50:32.000Z</time>
      </trkpt>
      <trkpt lat="44.2534" lon="5.39485">
        <ele>1067</ele>
        <time>2026-05-13T13:50:33.000Z</time>
      </trkpt>
      <trkpt lat="44.25336" lon="5.39487">
        <ele>1066</ele>
        <time>2026-05-13T13:50:34.000Z</time>
      </trkpt>
      <trkpt lat="44.25333" lon="5.3949">
        <ele>1065</ele>
        <time>2026-05-13T13:50:35.000Z</time>
      </trkpt>
      <trkpt lat="44.2533" lon="5.39493">
        <ele>1064</ele>
        <time>2026-05-13T13:50:36.000Z</time>
      </trkpt>
      <trkpt lat="44.25327" lon="5.39496">
        <ele>1063</ele>
        <time>2026-05-13T13:50:37.000Z</time>
      </trkpt>
      <trkpt lat="44.25323" lon="5.39501">
        <ele>1063</ele>
        <time>2026-05-13T13:50:38.000Z</time>
      </trkpt>
      <trkpt lat="44.2532" lon="5.39505">
        <ele>1063</ele>
        <time>2026-05-13T13:50:39.000Z</time>
      </trkpt>
      <trkpt lat="44.25316" lon="5.3951">
        <ele>1063</ele>
        <time>2026-05-13T13:50:40.000Z</time>
      </trkpt>
      <trkpt lat="44.25314" lon="5.39515">
        <ele>1064</ele>
        <time>2026-05-13T13:50:41.000Z</time>
      </trkpt>
      <trkpt lat="44.25311" lon="5.39518">
        <ele>1064</ele>
        <time>2026-05-13T13:50:42.000Z</time>
      </trkpt>
      <trkpt lat="44.25309" lon="5.39521">
        <ele>1063</ele>
        <time>2026-05-13T13:50:43.000Z</time>
      </trkpt>
      <trkpt lat="44.25308" lon="5.39523">
        <ele>1063</ele>
        <time>2026-05-13T13:50:44.000Z</time>
      </trkpt>
      <trkpt lat="44.25305" lon="5.39524">
        <ele>1063</ele>
        <time>2026-05-13T13:50:45.000Z</time>
      </trkpt>
      <trkpt lat="44.25303" lon="5.39526">
        <ele>1062</ele>
        <time>2026-05-13T13:50:46.000Z</time>
      </trkpt>
      <trkpt lat="44.253" lon="5.39528">
        <ele>1061</ele>
        <time>2026-05-13T13:50:47.000Z</time>
      </trkpt>
      <trkpt lat="44.25298" lon="5.39531">
        <ele>1061</ele>
        <time>2026-05-13T13:50:48.000Z</time>
      </trkpt>
      <trkpt lat="44.25295" lon="5.39534">
        <ele>1061</ele>
        <time>2026-05-13T13:50:49.000Z</time>
      </trkpt>
      <trkpt lat="44.25293" lon="5.39537">
        <ele>1060</ele>
        <time>2026-05-13T13:50:50.000Z</time>
      </trkpt>
      <trkpt lat="44.25292" lon="5.3954">
        <ele>1060</ele>
        <time>2026-05-13T13:50:51.000Z</time>
      </trkpt>
      <trkpt lat="44.2529" lon="5.39543">
        <ele>1060</ele>
        <time>2026-05-13T13:50:52.000Z</time>
      </trkpt>
      <trkpt lat="44.25289" lon="5.39545">
        <ele>1059</ele>
        <time>2026-05-13T13:50:53.000Z</time>
      </trkpt>
      <trkpt lat="44.25287" lon="5.39549">
        <ele>1058</ele>
        <time>2026-05-13T13:50:54.000Z</time>
      </trkpt>
      <trkpt lat="44.25286" lon="5.39552">
        <ele>1057</ele>
        <time>2026-05-13T13:50:55.000Z</time>
      </trkpt>
      <trkpt lat="44.25284" lon="5.39556">
        <ele>1057</ele>
        <time>2026-05-13T13:50:56.000Z</time>
      </trkpt>
      <trkpt lat="44.25283" lon="5.39558">
        <ele>1056</ele>
        <time>2026-05-13T13:50:57.000Z</time>
      </trkpt>
      <trkpt lat="44.25281" lon="5.3956">
        <ele>1056</ele>
        <time>2026-05-13T13:50:58.000Z</time>
      </trkpt>
      <trkpt lat="44.2528" lon="5.39562">
        <ele>1056</ele>
        <time>2026-05-13T13:50:59.000Z</time>
      </trkpt>
      <trkpt lat="44.25278" lon="5.39565">
        <ele>1055</ele>
        <time>2026-05-13T13:51:00.000Z</time>
      </trkpt>
      <trkpt lat="44.25276" lon="5.39567">
        <ele>1055</ele>
        <time>2026-05-13T13:51:01.000Z</time>
      </trkpt>
      <trkpt lat="44.25274" lon="5.39568">
        <ele>1055</ele>
        <time>2026-05-13T13:51:02.000Z</time>
      </trkpt>
      <trkpt lat="44.25273" lon="5.39569">
        <ele>1054</ele>
        <time>2026-05-13T13:51:03.000Z</time>
      </trkpt>
      <trkpt lat="44.25272" lon="5.39571">
        <ele>1054</ele>
        <time>2026-05-13T13:51:04.000Z</time>
      </trkpt>
      <trkpt lat="44.2527" lon="5.39573">
        <ele>1053</ele>
        <time>2026-05-13T13:51:05.000Z</time>
      </trkpt>
      <trkpt lat="44.25267" lon="5.39573">
        <ele>1053</ele>
        <time>2026-05-13T13:51:06.000Z</time>
      </trkpt>
      <trkpt lat="44.25265" lon="5.39575">
        <ele>1053</ele>
        <time>2026-05-13T13:51:07.000Z</time>
      </trkpt>
      <trkpt lat="44.25263" lon="5.39576">
        <ele>1052</ele>
        <time>2026-05-13T13:51:08.000Z</time>
      </trkpt>
      <trkpt lat="44.25261" lon="5.39577">
        <ele>1051</ele>
        <time>2026-05-13T13:51:09.000Z</time>
      </trkpt>
      <trkpt lat="44.25259" lon="5.39579">
        <ele>1051</ele>
        <time>2026-05-13T13:51:10.000Z</time>
      </trkpt>
      <trkpt lat="44.25257" lon="5.39581">
        <ele>1051</ele>
        <time>2026-05-13T13:51:11.000Z</time>
      </trkpt>
      <trkpt lat="44.25255" lon="5.39584">
        <ele>1050</ele>
        <time>2026-05-13T13:51:12.000Z</time>
      </trkpt>
      <trkpt lat="44.25253" lon="5.39586">
        <ele>1050</ele>
        <time>2026-05-13T13:51:13.000Z</time>
      </trkpt>
      <trkpt lat="44.25251" lon="5.39588">
        <ele>1050</ele>
        <time>2026-05-13T13:51:14.000Z</time>
      </trkpt>
      <trkpt lat="44.2525" lon="5.3959">
        <ele>1050</ele>
        <time>2026-05-13T13:51:15.000Z</time>
      </trkpt>
      <trkpt lat="44.25248" lon="5.39594">
        <ele>1050</ele>
        <time>2026-05-13T13:51:16.000Z</time>
      </trkpt>
      <trkpt lat="44.25247" lon="5.39596">
        <ele>1050</ele>
        <time>2026-05-13T13:51:17.000Z</time>
      </trkpt>
      <trkpt lat="44.25245" lon="5.39599">
        <ele>1049</ele>
        <time>2026-05-13T13:51:18.000Z</time>
      </trkpt>
      <trkpt lat="44.25244" lon="5.39603">
        <ele>1049</ele>
        <time>2026-05-13T13:51:19.000Z</time>
      </trkpt>
      <trkpt lat="44.25243" lon="5.39606">
        <ele>1049</ele>
        <time>2026-05-13T13:51:20.000Z</time>
      </trkpt>
      <trkpt lat="44.25242" lon="5.3961">
        <ele>1049</ele>
        <time>2026-05-13T13:51:21.000Z</time>
      </trkpt>
      <trkpt lat="44.25241" lon="5.39613">
        <ele>1048</ele>
        <time>2026-05-13T13:51:22.000Z</time>
      </trkpt>
      <trkpt lat="44.2524" lon="5.39616">
        <ele>1048</ele>
        <time>2026-05-13T13:51:23.000Z</time>
      </trkpt>
      <trkpt lat="44.25239" lon="5.39618">
        <ele>1048</ele>
        <time>2026-05-13T13:51:24.000Z</time>
      </trkpt>
      <trkpt lat="44.25237" lon="5.39621">
        <ele>1048</ele>
        <time>2026-05-13T13:51:25.000Z</time>
      </trkpt>
      <trkpt lat="44.25235" lon="5.39622">
        <ele>1048</ele>
        <time>2026-05-13T13:51:26.000Z</time>
      </trkpt>
      <trkpt lat="44.25233" lon="5.39624">
        <ele>1048</ele>
        <time>2026-05-13T13:51:27.000Z</time>
      </trkpt>
      <trkpt lat="44.25232" lon="5.39626">
        <ele>1048</ele>
        <time>2026-05-13T13:51:28.000Z</time>
      </trkpt>
      <trkpt lat="44.2523" lon="5.39627">
        <ele>1048</ele>
        <time>2026-05-13T13:51:29.000Z</time>
      </trkpt>
      <trkpt lat="44.25229" lon="5.39629">
        <ele>1048</ele>
        <time>2026-05-13T13:51:30.000Z</time>
      </trkpt>
      <trkpt lat="44.25228" lon="5.39632">
        <ele>1048</ele>
        <time>2026-05-13T13:51:31.000Z</time>
      </trkpt>
      <trkpt lat="44.25226" lon="5.39633">
        <ele>1047</ele>
        <time>2026-05-13T13:51:32.000Z</time>
      </trkpt>
      <trkpt lat="44.25225" lon="5.39635">
        <ele>1048</ele>
        <time>2026-05-13T13:51:33.000Z</time>
      </trkpt>
      <trkpt lat="44.25223" lon="5.39638">
        <ele>1048</ele>
        <time>2026-05-13T13:51:34.000Z</time>
      </trkpt>
      <trkpt lat="44.25222" lon="5.3964">
        <ele>1048</ele>
        <time>2026-05-13T13:51:35.000Z</time>
      </trkpt>
      <trkpt lat="44.25221" lon="5.39643">
        <ele>1048</ele>
        <time>2026-05-13T13:51:36.000Z</time>
      </trkpt>
      <trkpt lat="44.25218" lon="5.39646">
        <ele>1048</ele>
        <time>2026-05-13T13:51:37.000Z</time>
      </trkpt>
      <trkpt lat="44.25215" lon="5.3965">
        <ele>1047</ele>
        <time>2026-05-13T13:51:38.000Z</time>
      </trkpt>
      <trkpt lat="44.25213" lon="5.39654">
        <ele>1046</ele>
        <time>2026-05-13T13:51:39.000Z</time>
      </trkpt>
      <trkpt lat="44.25211" lon="5.39658">
        <ele>1046</ele>
        <time>2026-05-13T13:51:40.000Z</time>
      </trkpt>
      <trkpt lat="44.25209" lon="5.39661">
        <ele>1046</ele>
        <time>2026-05-13T13:51:41.000Z</time>
      </trkpt>
      <trkpt lat="44.25207" lon="5.39663">
        <ele>1046</ele>
        <time>2026-05-13T13:51:42.000Z</time>
      </trkpt>
      <trkpt lat="44.25205" lon="5.39667">
        <ele>1046</ele>
        <time>2026-05-13T13:51:43.000Z</time>
      </trkpt>
      <trkpt lat="44.25203" lon="5.3967">
        <ele>1046</ele>
        <time>2026-05-13T13:51:44.000Z</time>
      </trkpt>
      <trkpt lat="44.25202" lon="5.39672">
        <ele>1046</ele>
        <time>2026-05-13T13:51:45.000Z</time>
      </trkpt>
      <trkpt lat="44.25202" lon="5.39673">
        <ele>1046</ele>
        <time>2026-05-13T13:51:46.000Z</time>
      </trkpt>
      <trkpt lat="44.25202" lon="5.39673">
        <ele>1046</ele>
        <time>2026-05-13T13:51:47.000Z</time>
      </trkpt>
      <trkpt lat="44.25202" lon="5.39673">
        <ele>1046</ele>
        <time>2026-05-13T13:51:48.000Z</time>
      </trkpt>
      <trkpt lat="44.25202" lon="5.39673">
        <ele>1046</ele>
        <time>2026-05-13T13:51:49.000Z</time>
      </trkpt>
      <trkpt lat="44.25202" lon="5.39673">
        <ele>1046</ele>
        <time>2026-05-13T13:51:50.000Z</time>
      </trkpt>
      <trkpt lat="44.25202" lon="5.39673">
        <ele>1046</ele>
        <time>2026-05-13T13:51:51.000Z</time>
      </trkpt>
      <trkpt lat="44.25202" lon="5.39673">
        <ele>1046</ele>
        <time>2026-05-13T13:51:52.000Z</time>
      </trkpt>
      <trkpt lat="44.25202" lon="5.39673">
        <ele>1046</ele>
        <time>2026-05-13T13:51:53.000Z</time>
      </trkpt>
      <trkpt lat="44.25202" lon="5.39673">
        <ele>1046</ele>
        <time>2026-05-13T13:51:54.000Z</time>
      </trkpt>
      <trkpt lat="44.25202" lon="5.39673">
        <ele>1046</ele>
        <time>2026-05-13T13:51:55.000Z</time>
      </trkpt>
      <trkpt lat="44.25202" lon="5.39674">
        <ele>1045</ele>
        <time>2026-05-13T13:51:56.000Z</time>
      </trkpt>
      <trkpt lat="44.25202" lon="5.39675">
        <ele>1045</ele>
        <time>2026-05-13T13:51:57.000Z</time>
      </trkpt>
      <trkpt lat="44.25201" lon="5.39676">
        <ele>1045</ele>
        <time>2026-05-13T13:51:58.000Z</time>
      </trkpt>
      <trkpt lat="44.25201" lon="5.39678">
        <ele>1045</ele>
        <time>2026-05-13T13:51:59.000Z</time>
      </trkpt>
      <trkpt lat="44.252" lon="5.3968">
        <ele>1044</ele>
        <time>2026-05-13T13:52:00.000Z</time>
      </trkpt>
      <trkpt lat="44.252" lon="5.39682">
        <ele>1045</ele>
        <time>2026-05-13T13:52:01.000Z</time>
      </trkpt>
      <trkpt lat="44.25199" lon="5.39684">
        <ele>1045</ele>
        <time>2026-05-13T13:52:02.000Z</time>
      </trkpt>
      <trkpt lat="44.25197" lon="5.39685">
        <ele>1044</ele>
        <time>2026-05-13T13:52:03.000Z</time>
      </trkpt>
      <trkpt lat="44.25196" lon="5.39686">
        <ele>1044</ele>
        <time>2026-05-13T13:52:04.000Z</time>
      </trkpt>
      <trkpt lat="44.25195" lon="5.39688">
        <ele>1045</ele>
        <time>2026-05-13T13:52:05.000Z</time>
      </trkpt>
      <trkpt lat="44.25193" lon="5.39689">
        <ele>1044</ele>
        <time>2026-05-13T13:52:06.000Z</time>
      </trkpt>
      <trkpt lat="44.25193" lon="5.39691">
        <ele>1044</ele>
        <time>2026-05-13T13:52:07.000Z</time>
      </trkpt>
      <trkpt lat="44.25191" lon="5.39693">
        <ele>1044</ele>
        <time>2026-05-13T13:52:08.000Z</time>
      </trkpt>
      <trkpt lat="44.25191" lon="5.39695">
        <ele>1045</ele>
        <time>2026-05-13T13:52:09.000Z</time>
      </trkpt>
      <trkpt lat="44.2519" lon="5.39697">
        <ele>1045</ele>
        <time>2026-05-13T13:52:10.000Z</time>
      </trkpt>
      <trkpt lat="44.25189" lon="5.39699">
        <ele>1045</ele>
        <time>2026-05-13T13:52:11.000Z</time>
      </trkpt>
      <trkpt lat="44.25189" lon="5.397">
        <ele>1045</ele>
        <time>2026-05-13T13:52:12.000Z</time>
      </trkpt>
      <trkpt lat="44.25188" lon="5.39701">
        <ele>1045</ele>
        <time>2026-05-13T13:52:13.000Z</time>
      </trkpt>
      <trkpt lat="44.25187" lon="5.39703">
        <ele>1045</ele>
        <time>2026-05-13T13:52:14.000Z</time>
      </trkpt>
      <trkpt lat="44.25186" lon="5.39704">
        <ele>1046</ele>
        <time>2026-05-13T13:52:15.000Z</time>
      </trkpt>
      <trkpt lat="44.25185" lon="5.39706">
        <ele>1046</ele>
        <time>2026-05-13T13:52:16.000Z</time>
      </trkpt>
      <trkpt lat="44.25184" lon="5.39707">
        <ele>1046</ele>
        <time>2026-05-13T13:52:17.000Z</time>
      </trkpt>
      <trkpt lat="44.25182" lon="5.39708">
        <ele>1046</ele>
        <time>2026-05-13T13:52:18.000Z</time>
      </trkpt>
      <trkpt lat="44.25181" lon="5.39709">
        <ele>1046</ele>
        <time>2026-05-13T13:52:19.000Z</time>
      </trkpt>
      <trkpt lat="44.2518" lon="5.3971">
        <ele>1046</ele>
        <time>2026-05-13T13:52:20.000Z</time>
      </trkpt>
      <trkpt lat="44.25178" lon="5.3971">
        <ele>1046</ele>
        <time>2026-05-13T13:52:21.000Z</time>
      </trkpt>
      <trkpt lat="44.25176" lon="5.3971">
        <ele>1046</ele>
        <time>2026-05-13T13:52:22.000Z</time>
      </trkpt>
      <trkpt lat="44.25174" lon="5.39712">
        <ele>1045</ele>
        <time>2026-05-13T13:52:23.000Z</time>
      </trkpt>
      <trkpt lat="44.25172" lon="5.39713">
        <ele>1045</ele>
        <time>2026-05-13T13:52:24.000Z</time>
      </trkpt>
      <trkpt lat="44.2517" lon="5.39715">
        <ele>1045</ele>
        <time>2026-05-13T13:52:25.000Z</time>
      </trkpt>
      <trkpt lat="44.25168" lon="5.39715">
        <ele>1045</ele>
        <time>2026-05-13T13:52:26.000Z</time>
      </trkpt>
      <trkpt lat="44.25167" lon="5.39717">
        <ele>1045</ele>
        <time>2026-05-13T13:52:27.000Z</time>
      </trkpt>
      <trkpt lat="44.25166" lon="5.39719">
        <ele>1045</ele>
        <time>2026-05-13T13:52:28.000Z</time>
      </trkpt>
      <trkpt lat="44.25164" lon="5.3972">
        <ele>1045</ele>
        <time>2026-05-13T13:52:29.000Z</time>
      </trkpt>
      <trkpt lat="44.25163" lon="5.39722">
        <ele>1045</ele>
        <time>2026-05-13T13:52:30.000Z</time>
      </trkpt>
      <trkpt lat="44.25162" lon="5.39724">
        <ele>1046</ele>
        <time>2026-05-13T13:52:31.000Z</time>
      </trkpt>
      <trkpt lat="44.25161" lon="5.39726">
        <ele>1046</ele>
        <time>2026-05-13T13:52:32.000Z</time>
      </trkpt>
      <trkpt lat="44.2516" lon="5.39727">
        <ele>1047</ele>
        <time>2026-05-13T13:52:33.000Z</time>
      </trkpt>
      <trkpt lat="44.25158" lon="5.39728">
        <ele>1047</ele>
        <time>2026-05-13T13:52:34.000Z</time>
      </trkpt>
      <trkpt lat="44.25157" lon="5.39729">
        <ele>1047</ele>
        <time>2026-05-13T13:52:35.000Z</time>
      </trkpt>
      <trkpt lat="44.25156" lon="5.39731">
        <ele>1047</ele>
        <time>2026-05-13T13:52:36.000Z</time>
      </trkpt>
      <trkpt lat="44.25155" lon="5.39732">
        <ele>1048</ele>
        <time>2026-05-13T13:52:37.000Z</time>
      </trkpt>
      <trkpt lat="44.25154" lon="5.39734">
        <ele>1048</ele>
        <time>2026-05-13T13:52:38.000Z</time>
      </trkpt>
      <trkpt lat="44.25153" lon="5.39735">
        <ele>1048</ele>
        <time>2026-05-13T13:52:39.000Z</time>
      </trkpt>
      <trkpt lat="44.25153" lon="5.39736">
        <ele>1048</ele>
        <time>2026-05-13T13:52:40.000Z</time>
      </trkpt>
      <trkpt lat="44.25152" lon="5.39737">
        <ele>1048</ele>
        <time>2026-05-13T13:52:41.000Z</time>
      </trkpt>
      <trkpt lat="44.25152" lon="5.39739">
        <ele>1048</ele>
        <time>2026-05-13T13:52:42.000Z</time>
      </trkpt>
      <trkpt lat="44.25151" lon="5.39741">
        <ele>1048</ele>
        <time>2026-05-13T13:52:43.000Z</time>
      </trkpt>
      <trkpt lat="44.2515" lon="5.39743">
        <ele>1048</ele>
        <time>2026-05-13T13:52:44.000Z</time>
      </trkpt>
      <trkpt lat="44.2515" lon="5.39744">
        <ele>1049</ele>
        <time>2026-05-13T13:52:45.000Z</time>
      </trkpt>
      <trkpt lat="44.25149" lon="5.39746">
        <ele>1049</ele>
        <time>2026-05-13T13:52:46.000Z</time>
      </trkpt>
      <trkpt lat="44.25148" lon="5.39747">
        <ele>1049</ele>
        <time>2026-05-13T13:52:47.000Z</time>
      </trkpt>
      <trkpt lat="44.25148" lon="5.39749">
        <ele>1049</ele>
        <time>2026-05-13T13:52:48.000Z</time>
      </trkpt>
      <trkpt lat="44.25147" lon="5.3975">
        <ele>1049</ele>
        <time>2026-05-13T13:52:49.000Z</time>
      </trkpt>
      <trkpt lat="44.25146" lon="5.39752">
        <ele>1049</ele>
        <time>2026-05-13T13:52:50.000Z</time>
      </trkpt>
      <trkpt lat="44.25146" lon="5.39754">
        <ele>1049</ele>
        <time>2026-05-13T13:52:51.000Z</time>
      </trkpt>
      <trkpt lat="44.25145" lon="5.39755">
        <ele>1049</ele>
        <time>2026-05-13T13:52:52.000Z</time>
      </trkpt>
      <trkpt lat="44.25145" lon="5.39757">
        <ele>1049</ele>
        <time>2026-05-13T13:52:53.000Z</time>
      </trkpt>
      <trkpt lat="44.25144" lon="5.39759">
        <ele>1049</ele>
        <time>2026-05-13T13:52:54.000Z</time>
      </trkpt>
      <trkpt lat="44.25143" lon="5.3976">
        <ele>1049</ele>
        <time>2026-05-13T13:52:55.000Z</time>
      </trkpt>
      <trkpt lat="44.25142" lon="5.39761">
        <ele>1050</ele>
        <time>2026-05-13T13:52:56.000Z</time>
      </trkpt>
      <trkpt lat="44.25141" lon="5.39762">
        <ele>1050</ele>
        <time>2026-05-13T13:52:57.000Z</time>
      </trkpt>
      <trkpt lat="44.25139" lon="5.39763">
        <ele>1051</ele>
        <time>2026-05-13T13:52:58.000Z</time>
      </trkpt>
      <trkpt lat="44.25138" lon="5.39764">
        <ele>1051</ele>
        <time>2026-05-13T13:52:59.000Z</time>
      </trkpt>
      <trkpt lat="44.25138" lon="5.39765">
        <ele>1050</ele>
        <time>2026-05-13T13:53:00.000Z</time>
      </trkpt>
      <trkpt lat="44.25136" lon="5.39766">
        <ele>1050</ele>
        <time>2026-05-13T13:53:01.000Z</time>
      </trkpt>
      <trkpt lat="44.25135" lon="5.39767">
        <ele>1051</ele>
        <time>2026-05-13T13:53:02.000Z</time>
      </trkpt>
      <trkpt lat="44.25134" lon="5.39769">
        <ele>1051</ele>
        <time>2026-05-13T13:53:03.000Z</time>
      </trkpt>
      <trkpt lat="44.25133" lon="5.3977">
        <ele>1051</ele>
        <time>2026-05-13T13:53:04.000Z</time>
      </trkpt>
      <trkpt lat="44.25132" lon="5.39772">
        <ele>1052</ele>
        <time>2026-05-13T13:53:05.000Z</time>
      </trkpt>
      <trkpt lat="44.25131" lon="5.39772">
        <ele>1052</ele>
        <time>2026-05-13T13:53:06.000Z</time>
      </trkpt>
      <trkpt lat="44.25129" lon="5.39773">
        <ele>1052</ele>
        <time>2026-05-13T13:53:07.000Z</time>
      </trkpt>
      <trkpt lat="44.25128" lon="5.39774">
        <ele>1052</ele>
        <time>2026-05-13T13:53:08.000Z</time>
      </trkpt>
      <trkpt lat="44.25127" lon="5.39775">
        <ele>1053</ele>
        <time>2026-05-13T13:53:09.000Z</time>
      </trkpt>
      <trkpt lat="44.25126" lon="5.39776">
        <ele>1053</ele>
        <time>2026-05-13T13:53:10.000Z</time>
      </trkpt>
      <trkpt lat="44.25124" lon="5.39777">
        <ele>1053</ele>
        <time>2026-05-13T13:53:11.000Z</time>
      </trkpt>
      <trkpt lat="44.25122" lon="5.39778">
        <ele>1053</ele>
        <time>2026-05-13T13:53:12.000Z</time>
      </trkpt>
      <trkpt lat="44.25121" lon="5.39779">
        <ele>1052</ele>
        <time>2026-05-13T13:53:13.000Z</time>
      </trkpt>
      <trkpt lat="44.25119" lon="5.39779">
        <ele>1052</ele>
        <time>2026-05-13T13:53:14.000Z</time>
      </trkpt>
      <trkpt lat="44.25117" lon="5.3978">
        <ele>1052</ele>
        <time>2026-05-13T13:53:15.000Z</time>
      </trkpt>
      <trkpt lat="44.25116" lon="5.39781">
        <ele>1051</ele>
        <time>2026-05-13T13:53:16.000Z</time>
      </trkpt>
      <trkpt lat="44.25116" lon="5.39781">
        <ele>1051</ele>
        <time>2026-05-13T13:53:17.000Z</time>
      </trkpt>
      <trkpt lat="44.25114" lon="5.3978">
        <ele>1051</ele>
        <time>2026-05-13T13:53:18.000Z</time>
      </trkpt>
      <trkpt lat="44.25112" lon="5.39779">
        <ele>1050</ele>
        <time>2026-05-13T13:53:19.000Z</time>
      </trkpt>
      <trkpt lat="44.2511" lon="5.39778">
        <ele>1050</ele>
        <time>2026-05-13T13:53:20.000Z</time>
      </trkpt>
      <trkpt lat="44.25108" lon="5.39778">
        <ele>1051</ele>
        <time>2026-05-13T13:53:21.000Z</time>
      </trkpt>
      <trkpt lat="44.25107" lon="5.39778">
        <ele>1051</ele>
        <time>2026-05-13T13:53:22.000Z</time>
      </trkpt>
      <trkpt lat="44.25106" lon="5.39776">
        <ele>1051</ele>
        <time>2026-05-13T13:53:23.000Z</time>
      </trkpt>
      <trkpt lat="44.25106" lon="5.39774">
        <ele>1051</ele>
        <time>2026-05-13T13:53:24.000Z</time>
      </trkpt>
      <trkpt lat="44.25104" lon="5.39772">
        <ele>1051</ele>
        <time>2026-05-13T13:53:25.000Z</time>
      </trkpt>
      <trkpt lat="44.25103" lon="5.39771">
        <ele>1051</ele>
        <time>2026-05-13T13:53:26.000Z</time>
      </trkpt>
      <trkpt lat="44.25101" lon="5.39771">
        <ele>1052</ele>
        <time>2026-05-13T13:53:27.000Z</time>
      </trkpt>
      <trkpt lat="44.251" lon="5.39772">
        <ele>1052</ele>
        <time>2026-05-13T13:53:28.000Z</time>
      </trkpt>
      <trkpt lat="44.25099" lon="5.39773">
        <ele>1051</ele>
        <time>2026-05-13T13:53:29.000Z</time>
      </trkpt>
      <trkpt lat="44.25097" lon="5.39772">
        <ele>1051</ele>
        <time>2026-05-13T13:53:30.000Z</time>
      </trkpt>
      <trkpt lat="44.25096" lon="5.39771">
        <ele>1050</ele>
        <time>2026-05-13T13:53:31.000Z</time>
      </trkpt>
      <trkpt lat="44.25094" lon="5.3977">
        <ele>1050</ele>
        <time>2026-05-13T13:53:32.000Z</time>
      </trkpt>
      <trkpt lat="44.25092" lon="5.3977">
        <ele>1049</ele>
        <time>2026-05-13T13:53:33.000Z</time>
      </trkpt>
      <trkpt lat="44.25091" lon="5.39771">
        <ele>1048</ele>
        <time>2026-05-13T13:53:34.000Z</time>
      </trkpt>
      <trkpt lat="44.2509" lon="5.39775">
        <ele>1048</ele>
        <time>2026-05-13T13:53:35.000Z</time>
      </trkpt>
      <trkpt lat="44.25089" lon="5.39778">
        <ele>1048</ele>
        <time>2026-05-13T13:53:36.000Z</time>
      </trkpt>
      <trkpt lat="44.25088" lon="5.3978">
        <ele>1047</ele>
        <time>2026-05-13T13:53:37.000Z</time>
      </trkpt>
      <trkpt lat="44.25087" lon="5.39783">
        <ele>1047</ele>
        <time>2026-05-13T13:53:38.000Z</time>
      </trkpt>
      <trkpt lat="44.25086" lon="5.39786">
        <ele>1047</ele>
        <time>2026-05-13T13:53:39.000Z</time>
      </trkpt>
      <trkpt lat="44.25086" lon="5.3979">
        <ele>1047</ele>
        <time>2026-05-13T13:53:40.000Z</time>
      </trkpt>
      <trkpt lat="44.25086" lon="5.39793">
        <ele>1047</ele>
        <time>2026-05-13T13:53:41.000Z</time>
      </trkpt>
      <trkpt lat="44.25085" lon="5.39796">
        <ele>1046</ele>
        <time>2026-05-13T13:53:42.000Z</time>
      </trkpt>
      <trkpt lat="44.25085" lon="5.398">
        <ele>1046</ele>
        <time>2026-05-13T13:53:43.000Z</time>
      </trkpt>
      <trkpt lat="44.25085" lon="5.39804">
        <ele>1046</ele>
        <time>2026-05-13T13:53:44.000Z</time>
      </trkpt>
      <trkpt lat="44.25084" lon="5.39806">
        <ele>1046</ele>
        <time>2026-05-13T13:53:45.000Z</time>
      </trkpt>
      <trkpt lat="44.25083" lon="5.39809">
        <ele>1045</ele>
        <time>2026-05-13T13:53:46.000Z</time>
      </trkpt>
      <trkpt lat="44.25081" lon="5.39812">
        <ele>1044</ele>
        <time>2026-05-13T13:53:47.000Z</time>
      </trkpt>
      <trkpt lat="44.2508" lon="5.39815">
        <ele>1044</ele>
        <time>2026-05-13T13:53:48.000Z</time>
      </trkpt>
      <trkpt lat="44.25079" lon="5.39818">
        <ele>1043</ele>
        <time>2026-05-13T13:53:49.000Z</time>
      </trkpt>
      <trkpt lat="44.25077" lon="5.39819">
        <ele>1043</ele>
        <time>2026-05-13T13:53:50.000Z</time>
      </trkpt>
      <trkpt lat="44.25074" lon="5.39821">
        <ele>1043</ele>
        <time>2026-05-13T13:53:51.000Z</time>
      </trkpt>
      <trkpt lat="44.25072" lon="5.39824">
        <ele>1043</ele>
        <time>2026-05-13T13:53:52.000Z</time>
      </trkpt>
      <trkpt lat="44.25069" lon="5.39827">
        <ele>1042</ele>
        <time>2026-05-13T13:53:53.000Z</time>
      </trkpt>
      <trkpt lat="44.25066" lon="5.39831">
        <ele>1042</ele>
        <time>2026-05-13T13:53:54.000Z</time>
      </trkpt>
      <trkpt lat="44.25064" lon="5.39833">
        <ele>1041</ele>
        <time>2026-05-13T13:53:55.000Z</time>
      </trkpt>
      <trkpt lat="44.25061" lon="5.39837">
        <ele>1041</ele>
        <time>2026-05-13T13:53:56.000Z</time>
      </trkpt>
      <trkpt lat="44.25059" lon="5.39839">
        <ele>1040</ele>
        <time>2026-05-13T13:53:57.000Z</time>
      </trkpt>
      <trkpt lat="44.25057" lon="5.39842">
        <ele>1040</ele>
        <time>2026-05-13T13:53:58.000Z</time>
      </trkpt>
      <trkpt lat="44.25055" lon="5.39846">
        <ele>1039</ele>
        <time>2026-05-13T13:53:59.000Z</time>
      </trkpt>
      <trkpt lat="44.25052" lon="5.39849">
        <ele>1039</ele>
        <time>2026-05-13T13:54:00.000Z</time>
      </trkpt>
      <trkpt lat="44.25051" lon="5.39852">
        <ele>1039</ele>
        <time>2026-05-13T13:54:01.000Z</time>
      </trkpt>
      <trkpt lat="44.25051" lon="5.39854">
        <ele>1039</ele>
        <time>2026-05-13T13:54:02.000Z</time>
      </trkpt>
      <trkpt lat="44.2505" lon="5.39857">
        <ele>1038</ele>
        <time>2026-05-13T13:54:03.000Z</time>
      </trkpt>
      <trkpt lat="44.2505" lon="5.39859">
        <ele>1038</ele>
        <time>2026-05-13T13:54:04.000Z</time>
      </trkpt>
      <trkpt lat="44.25049" lon="5.39861">
        <ele>1038</ele>
        <time>2026-05-13T13:54:05.000Z</time>
      </trkpt>
      <trkpt lat="44.25048" lon="5.39862">
        <ele>1038</ele>
        <time>2026-05-13T13:54:06.000Z</time>
      </trkpt>
      <trkpt lat="44.25048" lon="5.39866">
        <ele>1038</ele>
        <time>2026-05-13T13:54:07.000Z</time>
      </trkpt>
      <trkpt lat="44.25048" lon="5.39869">
        <ele>1038</ele>
        <time>2026-05-13T13:54:08.000Z</time>
      </trkpt>
      <trkpt lat="44.25048" lon="5.39872">
        <ele>1038</ele>
        <time>2026-05-13T13:54:09.000Z</time>
      </trkpt>
      <trkpt lat="44.25049" lon="5.39874">
        <ele>1037</ele>
        <time>2026-05-13T13:54:10.000Z</time>
      </trkpt>
      <trkpt lat="44.25049" lon="5.39877">
        <ele>1037</ele>
        <time>2026-05-13T13:54:11.000Z</time>
      </trkpt>
      <trkpt lat="44.25048" lon="5.3988">
        <ele>1037</ele>
        <time>2026-05-13T13:54:12.000Z</time>
      </trkpt>
      <trkpt lat="44.25047" lon="5.39883">
        <ele>1036</ele>
        <time>2026-05-13T13:54:13.000Z</time>
      </trkpt>
      <trkpt lat="44.25047" lon="5.39886">
        <ele>1036</ele>
        <time>2026-05-13T13:54:14.000Z</time>
      </trkpt>
      <trkpt lat="44.25047" lon="5.39889">
        <ele>1036</ele>
        <time>2026-05-13T13:54:15.000Z</time>
      </trkpt>
      <trkpt lat="44.25046" lon="5.39891">
        <ele>1037</ele>
        <time>2026-05-13T13:54:16.000Z</time>
      </trkpt>
      <trkpt lat="44.25047" lon="5.39893">
        <ele>1037</ele>
        <time>2026-05-13T13:54:17.000Z</time>
      </trkpt>
      <trkpt lat="44.25046" lon="5.39895">
        <ele>1036</ele>
        <time>2026-05-13T13:54:18.000Z</time>
      </trkpt>
      <trkpt lat="44.25047" lon="5.39897">
        <ele>1036</ele>
        <time>2026-05-13T13:54:19.000Z</time>
      </trkpt>
      <trkpt lat="44.25047" lon="5.399">
        <ele>1036</ele>
        <time>2026-05-13T13:54:20.000Z</time>
      </trkpt>
      <trkpt lat="44.25047" lon="5.39901">
        <ele>1036</ele>
        <time>2026-05-13T13:54:21.000Z</time>
      </trkpt>
      <trkpt lat="44.25047" lon="5.39903">
        <ele>1036</ele>
        <time>2026-05-13T13:54:22.000Z</time>
      </trkpt>
      <trkpt lat="44.25048" lon="5.39905">
        <ele>1036</ele>
        <time>2026-05-13T13:54:23.000Z</time>
      </trkpt>
      <trkpt lat="44.25048" lon="5.39906">
        <ele>1036</ele>
        <time>2026-05-13T13:54:24.000Z</time>
      </trkpt>
      <trkpt lat="44.25048" lon="5.39908">
        <ele>1036</ele>
        <time>2026-05-13T13:54:25.000Z</time>
      </trkpt>
      <trkpt lat="44.25048" lon="5.3991">
        <ele>1037</ele>
        <time>2026-05-13T13:54:26.000Z</time>
      </trkpt>
      <trkpt lat="44.25048" lon="5.39909">
        <ele>1037</ele>
        <time>2026-05-13T13:54:27.000Z</time>
      </trkpt>
      <trkpt lat="44.25047" lon="5.3991">
        <ele>1037</ele>
        <time>2026-05-13T13:54:28.000Z</time>
      </trkpt>
      <trkpt lat="44.25048" lon="5.39911">
        <ele>1037</ele>
        <time>2026-05-13T13:54:29.000Z</time>
      </trkpt>
      <trkpt lat="44.25048" lon="5.39911">
        <ele>1037</ele>
        <time>2026-05-13T13:54:30.000Z</time>
      </trkpt>
      <trkpt lat="44.25048" lon="5.39912">
        <ele>1037</ele>
        <time>2026-05-13T13:54:31.000Z</time>
      </trkpt>
      <trkpt lat="44.25048" lon="5.39913">
        <ele>1037</ele>
        <time>2026-05-13T13:54:32.000Z</time>
      </trkpt>
      <trkpt lat="44.25048" lon="5.39914">
        <ele>1037</ele>
        <time>2026-05-13T13:54:33.000Z</time>
      </trkpt>
      <trkpt lat="44.25048" lon="5.39915">
        <ele>1037</ele>
        <time>2026-05-13T13:54:34.000Z</time>
      </trkpt>
      <trkpt lat="44.25049" lon="5.39915">
        <ele>1037</ele>
        <time>2026-05-13T13:54:35.000Z</time>
      </trkpt>
      <trkpt lat="44.25049" lon="5.39916">
        <ele>1037</ele>
        <time>2026-05-13T13:54:36.000Z</time>
      </trkpt>
      <trkpt lat="44.25049" lon="5.39916">
        <ele>1038</ele>
        <time>2026-05-13T13:54:37.000Z</time>
      </trkpt>
      <trkpt lat="44.25049" lon="5.39917">
        <ele>1037</ele>
        <time>2026-05-13T13:54:38.000Z</time>
      </trkpt>
      <trkpt lat="44.25048" lon="5.39917">
        <ele>1037</ele>
        <time>2026-05-13T13:54:39.000Z</time>
      </trkpt>
      <trkpt lat="44.25048" lon="5.39918">
        <ele>1037</ele>
        <time>2026-05-13T13:54:40.000Z</time>
      </trkpt>
      <trkpt lat="44.25048" lon="5.39919">
        <ele>1038</ele>
        <time>2026-05-13T13:54:41.000Z</time>
      </trkpt>
      <trkpt lat="44.25048" lon="5.3992">
        <ele>1038</ele>
        <time>2026-05-13T13:54:42.000Z</time>
      </trkpt>
      <trkpt lat="44.25047" lon="5.3992">
        <ele>1038</ele>
        <time>2026-05-13T13:54:43.000Z</time>
      </trkpt>
      <trkpt lat="44.25048" lon="5.39921">
        <ele>1039</ele>
        <time>2026-05-13T13:54:44.000Z</time>
      </trkpt>
      <trkpt lat="44.25047" lon="5.39921">
        <ele>1038</ele>
        <time>2026-05-13T13:54:45.000Z</time>
      </trkpt>
      <trkpt lat="44.25047" lon="5.39922">
        <ele>1037</ele>
        <time>2026-05-13T13:54:46.000Z</time>
      </trkpt>
      <trkpt lat="44.25048" lon="5.39923">
        <ele>1037</ele>
        <time>2026-05-13T13:54:47.000Z</time>
      </trkpt>
      <trkpt lat="44.25049" lon="5.39924">
        <ele>1036</ele>
        <time>2026-05-13T13:54:48.000Z</time>
      </trkpt>
      <trkpt lat="44.25049" lon="5.39924">
        <ele>1036</ele>
        <time>2026-05-13T13:54:49.000Z</time>
      </trkpt>
      <trkpt lat="44.25049" lon="5.39924">
        <ele>1036</ele>
        <time>2026-05-13T13:54:50.000Z</time>
      </trkpt>
      <trkpt lat="44.25049" lon="5.39924">
        <ele>1036</ele>
        <time>2026-05-13T13:54:51.000Z</time>
      </trkpt>
      <trkpt lat="44.25049" lon="5.39924">
        <ele>1036</ele>
        <time>2026-05-13T13:54:52.000Z</time>
      </trkpt>
      <trkpt lat="44.25049" lon="5.39924">
        <ele>1036</ele>
        <time>2026-05-13T13:54:53.000Z</time>
      </trkpt>
      <trkpt lat="44.25049" lon="5.39924">
        <ele>1036</ele>
        <time>2026-05-13T13:54:54.000Z</time>
      </trkpt>
      <trkpt lat="44.25049" lon="5.39924">
        <ele>1036</ele>
        <time>2026-05-13T13:54:55.000Z</time>
      </trkpt>
      <trkpt lat="44.25049" lon="5.39924">
        <ele>1036</ele>
        <time>2026-05-13T13:54:56.000Z</time>
      </trkpt>
      <trkpt lat="44.25049" lon="5.39924">
        <ele>1036</ele>
        <time>2026-05-13T13:54:57.000Z</time>
      </trkpt>
      <trkpt lat="44.25049" lon="5.39924">
        <ele>1036</ele>
        <time>2026-05-13T13:54:58.000Z</time>
      </trkpt>
      <trkpt lat="44.25049" lon="5.39924">
        <ele>1036</ele>
        <time>2026-05-13T13:54:59.000Z</time>
      </trkpt>
      <trkpt lat="44.25049" lon="5.39924">
        <ele>1036</ele>
        <time>2026-05-13T13:55:00.000Z</time>
      </trkpt>
      <trkpt lat="44.25049" lon="5.39924">
        <ele>1036</ele>
        <time>2026-05-13T13:55:01.000Z</time>
      </trkpt>
      <trkpt lat="44.25049" lon="5.39924">
        <ele>1036</ele>
        <time>2026-05-13T13:55:02.000Z</time>
      </trkpt>
      <trkpt lat="44.25049" lon="5.39924">
        <ele>1036</ele>
        <time>2026-05-13T13:55:03.000Z</time>
      </trkpt>
      <trkpt lat="44.25049" lon="5.39924">
        <ele>1036</ele>
        <time>2026-05-13T13:55:04.000Z</time>
      </trkpt>
      <trkpt lat="44.25049" lon="5.39924">
        <ele>1036</ele>
        <time>2026-05-13T13:55:05.000Z</time>
      </trkpt>
      <trkpt lat="44.25049" lon="5.39924">
        <ele>1036</ele>
        <time>2026-05-13T13:55:06.000Z</time>
      </trkpt>
      <trkpt lat="44.25049" lon="5.39924">
        <ele>1036</ele>
        <time>2026-05-13T13:55:07.000Z</time>
      </trkpt>
      <trkpt lat="44.25049" lon="5.39924">
        <ele>1036</ele>
        <time>2026-05-13T13:55:08.000Z</time>
      </trkpt>
      <trkpt lat="44.25049" lon="5.39924">
        <ele>1036</ele>
        <time>2026-05-13T13:55:09.000Z</time>
      </trkpt>
      <trkpt lat="44.25049" lon="5.39924">
        <ele>1036</ele>
        <time>2026-05-13T13:55:10.000Z</time>
      </trkpt>
      <trkpt lat="44.25049" lon="5.39924">
        <ele>1036</ele>
        <time>2026-05-13T13:55:11.000Z</time>
      </trkpt>
      <trkpt lat="44.25049" lon="5.39924">
        <ele>1036</ele>
        <time>2026-05-13T13:55:12.000Z</time>
      </trkpt>
      <trkpt lat="44.25049" lon="5.39924">
        <ele>1036</ele>
        <time>2026-05-13T13:55:13.000Z</time>
      </trkpt>
      <trkpt lat="44.25049" lon="5.39924">
        <ele>1036</ele>
        <time>2026-05-13T13:55:14.000Z</time>
      </trkpt>
      <trkpt lat="44.25049" lon="5.39924">
        <ele>1036</ele>
        <time>2026-05-13T13:55:15.000Z</time>
      </trkpt>
      <trkpt lat="44.25049" lon="5.39924">
        <ele>1036</ele>
        <time>2026-05-13T13:55:16.000Z</time>
      </trkpt>
      <trkpt lat="44.25049" lon="5.39924">
        <ele>1036</ele>
        <time>2026-05-13T13:55:17.000Z</time>
      </trkpt>
      <trkpt lat="44.25049" lon="5.39924">
        <ele>1036</ele>
        <time>2026-05-13T13:55:18.000Z</time>
      </trkpt>
      <trkpt lat="44.25049" lon="5.39924">
        <ele>1036</ele>
        <time>2026-05-13T13:55:19.000Z</time>
      </trkpt>
      <trkpt lat="44.25049" lon="5.39924">
        <ele>1036</ele>
        <time>2026-05-13T13:55:20.000Z</time>
      </trkpt>
      <trkpt lat="44.25049" lon="5.39924">
        <ele>1036</ele>
        <time>2026-05-13T13:55:21.000Z</time>
      </trkpt>
      <trkpt lat="44.25049" lon="5.39924">
        <ele>1036</ele>
        <time>2026-05-13T13:55:22.000Z</time>
      </trkpt>
      <trkpt lat="44.25049" lon="5.39924">
        <ele>1036</ele>
        <time>2026-05-13T13:55:23.000Z</time>
      </trkpt>
      <trkpt lat="44.25049" lon="5.39924">
        <ele>1036</ele>
        <time>2026-05-13T13:55:24.000Z</time>
      </trkpt>
      <trkpt lat="44.25049" lon="5.39924">
        <ele>1036</ele>
        <time>2026-05-13T13:55:25.000Z</time>
      </trkpt>
      <trkpt lat="44.25049" lon="5.39924">
        <ele>1036</ele>
        <time>2026-05-13T13:55:26.000Z</time>
      </trkpt>
      <trkpt lat="44.25049" lon="5.39924">
        <ele>1036</ele>
        <time>2026-05-13T13:55:27.000Z</time>
      </trkpt>
      <trkpt lat="44.25049" lon="5.39924">
        <ele>1036</ele>
        <time>2026-05-13T13:55:28.000Z</time>
      </trkpt>
      <trkpt lat="44.25049" lon="5.39924">
        <ele>1036</ele>
        <time>2026-05-13T13:55:29.000Z</time>
      </trkpt>
      <trkpt lat="44.25049" lon="5.39924">
        <ele>1036</ele>
        <time>2026-05-13T13:55:30.000Z</time>
      </trkpt>
      <trkpt lat="44.25049" lon="5.39924">
        <ele>1036</ele>
        <time>2026-05-13T13:55:31.000Z</time>
      </trkpt>
      <trkpt lat="44.25049" lon="5.39924">
        <ele>1036</ele>
        <time>2026-05-13T13:55:32.000Z</time>
      </trkpt>
      <trkpt lat="44.25049" lon="5.39924">
        <ele>1036</ele>
        <time>2026-05-13T13:55:33.000Z</time>
      </trkpt>
      <trkpt lat="44.25049" lon="5.39924">
        <ele>1036</ele>
        <time>2026-05-13T13:55:34.000Z</time>
      </trkpt>
      <trkpt lat="44.25049" lon="5.39924">
        <ele>1036</ele>
        <time>2026-05-13T13:55:35.000Z</time>
      </trkpt>
      <trkpt lat="44.25049" lon="5.39924">
        <ele>1036</ele>
        <time>2026-05-13T13:55:36.000Z</time>
      </trkpt>
      <trkpt lat="44.25049" lon="5.39924">
        <ele>1036</ele>
        <time>2026-05-13T13:55:37.000Z</time>
      </trkpt>
      <trkpt lat="44.25049" lon="5.39924">
        <ele>1036</ele>
        <time>2026-05-13T13:55:38.000Z</time>
      </trkpt>
      <trkpt lat="44.25049" lon="5.39924">
        <ele>1036</ele>
        <time>2026-05-13T13:55:39.000Z</time>
      </trkpt>
      <trkpt lat="44.25049" lon="5.39924">
        <ele>1036</ele>
        <time>2026-05-13T13:55:40.000Z</time>
      </trkpt>
      <trkpt lat="44.25049" lon="5.39924">
        <ele>1036</ele>
        <time>2026-05-13T13:55:41.000Z</time>
      </trkpt>
      <trkpt lat="44.25049" lon="5.39924">
        <ele>1036</ele>
        <time>2026-05-13T13:55:42.000Z</time>
      </trkpt>
      <trkpt lat="44.25049" lon="5.39924">
        <ele>1036</ele>
        <time>2026-05-13T13:55:43.000Z</time>
      </trkpt>
      <trkpt lat="44.25049" lon="5.39924">
        <ele>1036</ele>
        <time>2026-05-13T13:55:44.000Z</time>
      </trkpt>
      <trkpt lat="44.25049" lon="5.39924">
        <ele>1036</ele>
        <time>2026-05-13T13:55:45.000Z</time>
      </trkpt>
      <trkpt lat="44.25049" lon="5.39924">
        <ele>1036</ele>
        <time>2026-05-13T13:55:46.000Z</time>
      </trkpt>
      <trkpt lat="44.25049" lon="5.39924">
        <ele>1036</ele>
        <time>2026-05-13T13:55:47.000Z</time>
      </trkpt>
      <trkpt lat="44.25049" lon="5.39924">
        <ele>1036</ele>
        <time>2026-05-13T13:55:48.000Z</time>
      </trkpt>
      <trkpt lat="44.25049" lon="5.39924">
        <ele>1036</ele>
        <time>2026-05-13T13:55:49.000Z</time>
      </trkpt>
      <trkpt lat="44.25049" lon="5.39924">
        <ele>1036</ele>
        <time>2026-05-13T13:55:50.000Z</time>
      </trkpt>
      <trkpt lat="44.25049" lon="5.39924">
        <ele>1036</ele>
        <time>2026-05-13T13:55:51.000Z</time>
      </trkpt>
      <trkpt lat="44.25049" lon="5.39924">
        <ele>1036</ele>
        <time>2026-05-13T13:55:52.000Z</time>
      </trkpt>
      <trkpt lat="44.25049" lon="5.39924">
        <ele>1036</ele>
        <time>2026-05-13T13:55:53.000Z</time>
      </trkpt>
      <trkpt lat="44.25049" lon="5.39924">
        <ele>1036</ele>
        <time>2026-05-13T13:55:54.000Z</time>
      </trkpt>
      <trkpt lat="44.25049" lon="5.39924">
        <ele>1036</ele>
        <time>2026-05-13T13:55:55.000Z</time>
      </trkpt>
      <trkpt lat="44.25049" lon="5.39924">
        <ele>1036</ele>
        <time>2026-05-13T13:55:56.000Z</time>
      </trkpt>
      <trkpt lat="44.25049" lon="5.39923">
        <ele>1036</ele>
        <time>2026-05-13T13:55:57.000Z</time>
      </trkpt>
      <trkpt lat="44.25049" lon="5.39925">
        <ele>1036</ele>
        <time>2026-05-13T13:55:58.000Z</time>
      </trkpt>
      <trkpt lat="44.25049" lon="5.39926">
        <ele>1036</ele>
        <time>2026-05-13T13:55:59.000Z</time>
      </trkpt>
      <trkpt lat="44.25048" lon="5.39927">
        <ele>1036</ele>
        <time>2026-05-13T13:56:00.000Z</time>
      </trkpt>
      <trkpt lat="44.25048" lon="5.39927">
        <ele>1036</ele>
        <time>2026-05-13T13:56:01.000Z</time>
      </trkpt>
      <trkpt lat="44.25048" lon="5.39928">
        <ele>1036</ele>
        <time>2026-05-13T13:56:02.000Z</time>
      </trkpt>
      <trkpt lat="44.25047" lon="5.3993">
        <ele>1036</ele>
        <time>2026-05-13T13:56:03.000Z</time>
      </trkpt>
      <trkpt lat="44.25047" lon="5.39931">
        <ele>1036</ele>
        <time>2026-05-13T13:56:04.000Z</time>
      </trkpt>
      <trkpt lat="44.25046" lon="5.39933">
        <ele>1037</ele>
        <time>2026-05-13T13:56:05.000Z</time>
      </trkpt>
      <trkpt lat="44.25046" lon="5.39934">
        <ele>1037</ele>
        <time>2026-05-13T13:56:06.000Z</time>
      </trkpt>
      <trkpt lat="44.25045" lon="5.39936">
        <ele>1037</ele>
        <time>2026-05-13T13:56:07.000Z</time>
      </trkpt>
      <trkpt lat="44.25045" lon="5.39937">
        <ele>1037</ele>
        <time>2026-05-13T13:56:08.000Z</time>
      </trkpt>
      <trkpt lat="44.25044" lon="5.39939">
        <ele>1037</ele>
        <time>2026-05-13T13:56:09.000Z</time>
      </trkpt>
      <trkpt lat="44.25043" lon="5.39941">
        <ele>1038</ele>
        <time>2026-05-13T13:56:10.000Z</time>
      </trkpt>
      <trkpt lat="44.25042" lon="5.39944">
        <ele>1039</ele>
        <time>2026-05-13T13:56:11.000Z</time>
      </trkpt>
      <trkpt lat="44.25041" lon="5.39946">
        <ele>1039</ele>
        <time>2026-05-13T13:56:12.000Z</time>
      </trkpt>
      <trkpt lat="44.2504" lon="5.39948">
        <ele>1039</ele>
        <time>2026-05-13T13:56:13.000Z</time>
      </trkpt>
      <trkpt lat="44.2504" lon="5.39948">
        <ele>1039</ele>
        <time>2026-05-13T13:56:14.000Z</time>
      </trkpt>
      <trkpt lat="44.25039" lon="5.39949">
        <ele>1039</ele>
        <time>2026-05-13T13:56:15.000Z</time>
      </trkpt>
      <trkpt lat="44.2504" lon="5.39949">
        <ele>1040</ele>
        <time>2026-05-13T13:56:16.000Z</time>
      </trkpt>
      <trkpt lat="44.25039" lon="5.3995">
        <ele>1040</ele>
        <time>2026-05-13T13:56:17.000Z</time>
      </trkpt>
      <trkpt lat="44.2504" lon="5.39951">
        <ele>1040</ele>
        <time>2026-05-13T13:56:18.000Z</time>
      </trkpt>
      <trkpt lat="44.2504" lon="5.39952">
        <ele>1040</ele>
        <time>2026-05-13T13:56:19.000Z</time>
      </trkpt>
      <trkpt lat="44.2504" lon="5.39953">
        <ele>1041</ele>
        <time>2026-05-13T13:56:20.000Z</time>
      </trkpt>
      <trkpt lat="44.2504" lon="5.39954">
        <ele>1041</ele>
        <time>2026-05-13T13:56:21.000Z</time>
      </trkpt>
      <trkpt lat="44.25041" lon="5.39954">
        <ele>1041</ele>
        <time>2026-05-13T13:56:22.000Z</time>
      </trkpt>
      <trkpt lat="44.25041" lon="5.39955">
        <ele>1042</ele>
        <time>2026-05-13T13:56:23.000Z</time>
      </trkpt>
      <trkpt lat="44.25041" lon="5.39955">
        <ele>1042</ele>
        <time>2026-05-13T13:56:24.000Z</time>
      </trkpt>
      <trkpt lat="44.25042" lon="5.39956">
        <ele>1043</ele>
        <time>2026-05-13T13:56:25.000Z</time>
      </trkpt>
      <trkpt lat="44.25041" lon="5.39957">
        <ele>1044</ele>
        <time>2026-05-13T13:56:26.000Z</time>
      </trkpt>
      <trkpt lat="44.25041" lon="5.39958">
        <ele>1044</ele>
        <time>2026-05-13T13:56:27.000Z</time>
      </trkpt>
      <trkpt lat="44.25041" lon="5.39959">
        <ele>1044</ele>
        <time>2026-05-13T13:56:28.000Z</time>
      </trkpt>
      <trkpt lat="44.25041" lon="5.3996">
        <ele>1044</ele>
        <time>2026-05-13T13:56:29.000Z</time>
      </trkpt>
      <trkpt lat="44.25041" lon="5.3996">
        <ele>1044</ele>
        <time>2026-05-13T13:56:30.000Z</time>
      </trkpt>
      <trkpt lat="44.25041" lon="5.39961">
        <ele>1044</ele>
        <time>2026-05-13T13:56:31.000Z</time>
      </trkpt>
      <trkpt lat="44.25042" lon="5.39962">
        <ele>1044</ele>
        <time>2026-05-13T13:56:32.000Z</time>
      </trkpt>
      <trkpt lat="44.25042" lon="5.39962">
        <ele>1044</ele>
        <time>2026-05-13T13:56:33.000Z</time>
      </trkpt>
      <trkpt lat="44.25042" lon="5.39963">
        <ele>1044</ele>
        <time>2026-05-13T13:56:34.000Z</time>
      </trkpt>
      <trkpt lat="44.25042" lon="5.39963">
        <ele>1044</ele>
        <time>2026-05-13T13:56:35.000Z</time>
      </trkpt>
      <trkpt lat="44.25042" lon="5.39964">
        <ele>1045</ele>
        <time>2026-05-13T13:56:36.000Z</time>
      </trkpt>
      <trkpt lat="44.25041" lon="5.39965">
        <ele>1045</ele>
        <time>2026-05-13T13:56:37.000Z</time>
      </trkpt>
      <trkpt lat="44.25042" lon="5.39965">
        <ele>1045</ele>
        <time>2026-05-13T13:56:38.000Z</time>
      </trkpt>
      <trkpt lat="44.25042" lon="5.39965">
        <ele>1045</ele>
        <time>2026-05-13T13:56:39.000Z</time>
      </trkpt>
      <trkpt lat="44.25041" lon="5.39965">
        <ele>1045</ele>
        <time>2026-05-13T13:56:40.000Z</time>
      </trkpt>
      <trkpt lat="44.25041" lon="5.39965">
        <ele>1045</ele>
        <time>2026-05-13T13:56:41.000Z</time>
      </trkpt>
      <trkpt lat="44.2504" lon="5.39966">
        <ele>1045</ele>
        <time>2026-05-13T13:56:42.000Z</time>
      </trkpt>
      <trkpt lat="44.25039" lon="5.39967">
        <ele>1045</ele>
        <time>2026-05-13T13:56:43.000Z</time>
      </trkpt>
      <trkpt lat="44.25039" lon="5.39968">
        <ele>1045</ele>
        <time>2026-05-13T13:56:44.000Z</time>
      </trkpt>
      <trkpt lat="44.25038" lon="5.39968">
        <ele>1045</ele>
        <time>2026-05-13T13:56:45.000Z</time>
      </trkpt>
      <trkpt lat="44.25037" lon="5.39968">
        <ele>1045</ele>
        <time>2026-05-13T13:56:46.000Z</time>
      </trkpt>
      <trkpt lat="44.25037" lon="5.3997">
        <ele>1045</ele>
        <time>2026-05-13T13:56:47.000Z</time>
      </trkpt>
      <trkpt lat="44.25035" lon="5.3997">
        <ele>1045</ele>
        <time>2026-05-13T13:56:48.000Z</time>
      </trkpt>
      <trkpt lat="44.25035" lon="5.39971">
        <ele>1045</ele>
        <time>2026-05-13T13:56:49.000Z</time>
      </trkpt>
      <trkpt lat="44.25033" lon="5.39972">
        <ele>1045</ele>
        <time>2026-05-13T13:56:50.000Z</time>
      </trkpt>
      <trkpt lat="44.25032" lon="5.39974">
        <ele>1045</ele>
        <time>2026-05-13T13:56:51.000Z</time>
      </trkpt>
      <trkpt lat="44.25031" lon="5.39975">
        <ele>1045</ele>
        <time>2026-05-13T13:56:52.000Z</time>
      </trkpt>
      <trkpt lat="44.2503" lon="5.39975">
        <ele>1045</ele>
        <time>2026-05-13T13:56:53.000Z</time>
      </trkpt>
      <trkpt lat="44.25029" lon="5.39975">
        <ele>1045</ele>
        <time>2026-05-13T13:56:54.000Z</time>
      </trkpt>
      <trkpt lat="44.25028" lon="5.39975">
        <ele>1045</ele>
        <time>2026-05-13T13:56:55.000Z</time>
      </trkpt>
      <trkpt lat="44.25027" lon="5.39976">
        <ele>1045</ele>
        <time>2026-05-13T13:56:56.000Z</time>
      </trkpt>
      <trkpt lat="44.25025" lon="5.39976">
        <ele>1045</ele>
        <time>2026-05-13T13:56:57.000Z</time>
      </trkpt>
      <trkpt lat="44.25024" lon="5.39978">
        <ele>1046</ele>
        <time>2026-05-13T13:56:58.000Z</time>
      </trkpt>
      <trkpt lat="44.25023" lon="5.39978">
        <ele>1046</ele>
        <time>2026-05-13T13:56:59.000Z</time>
      </trkpt>
      <trkpt lat="44.25022" lon="5.39979">
        <ele>1046</ele>
        <time>2026-05-13T13:57:00.000Z</time>
      </trkpt>
      <trkpt lat="44.25021" lon="5.3998">
        <ele>1047</ele>
        <time>2026-05-13T13:57:01.000Z</time>
      </trkpt>
      <trkpt lat="44.2502" lon="5.39981">
        <ele>1047</ele>
        <time>2026-05-13T13:57:02.000Z</time>
      </trkpt>
      <trkpt lat="44.2502" lon="5.39982">
        <ele>1047</ele>
        <time>2026-05-13T13:57:03.000Z</time>
      </trkpt>
      <trkpt lat="44.25018" lon="5.39983">
        <ele>1047</ele>
        <time>2026-05-13T13:57:04.000Z</time>
      </trkpt>
      <trkpt lat="44.25018" lon="5.39985">
        <ele>1048</ele>
        <time>2026-05-13T13:57:05.000Z</time>
      </trkpt>
      <trkpt lat="44.25017" lon="5.39986">
        <ele>1048</ele>
        <time>2026-05-13T13:57:06.000Z</time>
      </trkpt>
      <trkpt lat="44.25016" lon="5.39987">
        <ele>1048</ele>
        <time>2026-05-13T13:57:07.000Z</time>
      </trkpt>
      <trkpt lat="44.25016" lon="5.39989">
        <ele>1048</ele>
        <time>2026-05-13T13:57:08.000Z</time>
      </trkpt>
      <trkpt lat="44.25016" lon="5.3999">
        <ele>1048</ele>
        <time>2026-05-13T13:57:09.000Z</time>
      </trkpt>
      <trkpt lat="44.25015" lon="5.39992">
        <ele>1048</ele>
        <time>2026-05-13T13:57:10.000Z</time>
      </trkpt>
      <trkpt lat="44.25015" lon="5.39993">
        <ele>1049</ele>
        <time>2026-05-13T13:57:11.000Z</time>
      </trkpt>
      <trkpt lat="44.25014" lon="5.39994">
        <ele>1050</ele>
        <time>2026-05-13T13:57:12.000Z</time>
      </trkpt>
      <trkpt lat="44.25013" lon="5.39995">
        <ele>1050</ele>
        <time>2026-05-13T13:57:13.000Z</time>
      </trkpt>
      <trkpt lat="44.25012" lon="5.39995">
        <ele>1050</ele>
        <time>2026-05-13T13:57:14.000Z</time>
      </trkpt>
      <trkpt lat="44.25011" lon="5.39995">
        <ele>1050</ele>
        <time>2026-05-13T13:57:15.000Z</time>
      </trkpt>
      <trkpt lat="44.2501" lon="5.39995">
        <ele>1050</ele>
        <time>2026-05-13T13:57:16.000Z</time>
      </trkpt>
      <trkpt lat="44.25009" lon="5.39995">
        <ele>1050</ele>
        <time>2026-05-13T13:57:17.000Z</time>
      </trkpt>
      <trkpt lat="44.25008" lon="5.39995">
        <ele>1050</ele>
        <time>2026-05-13T13:57:18.000Z</time>
      </trkpt>
      <trkpt lat="44.25007" lon="5.39994">
        <ele>1050</ele>
        <time>2026-05-13T13:57:19.000Z</time>
      </trkpt>
      <trkpt lat="44.25006" lon="5.39994">
        <ele>1051</ele>
        <time>2026-05-13T13:57:20.000Z</time>
      </trkpt>
      <trkpt lat="44.25005" lon="5.39993">
        <ele>1051</ele>
        <time>2026-05-13T13:57:21.000Z</time>
      </trkpt>
      <trkpt lat="44.25005" lon="5.39992">
        <ele>1051</ele>
        <time>2026-05-13T13:57:22.000Z</time>
      </trkpt>
      <trkpt lat="44.25004" lon="5.39992">
        <ele>1052</ele>
        <time>2026-05-13T13:57:23.000Z</time>
      </trkpt>
      <trkpt lat="44.25003" lon="5.39991">
        <ele>1051</ele>
        <time>2026-05-13T13:57:24.000Z</time>
      </trkpt>
      <trkpt lat="44.25003" lon="5.39989">
        <ele>1052</ele>
        <time>2026-05-13T13:57:25.000Z</time>
      </trkpt>
      <trkpt lat="44.25001" lon="5.39988">
        <ele>1052</ele>
        <time>2026-05-13T13:57:26.000Z</time>
      </trkpt>
      <trkpt lat="44.25001" lon="5.39988">
        <ele>1052</ele>
        <time>2026-05-13T13:57:27.000Z</time>
      </trkpt>
      <trkpt lat="44.25" lon="5.39988">
        <ele>1052</ele>
        <time>2026-05-13T13:57:28.000Z</time>
      </trkpt>
      <trkpt lat="44.24999" lon="5.39987">
        <ele>1053</ele>
        <time>2026-05-13T13:57:29.000Z</time>
      </trkpt>
      <trkpt lat="44.24999" lon="5.39986">
        <ele>1053</ele>
        <time>2026-05-13T13:57:30.000Z</time>
      </trkpt>
      <trkpt lat="44.24998" lon="5.39985">
        <ele>1053</ele>
        <time>2026-05-13T13:57:31.000Z</time>
      </trkpt>
      <trkpt lat="44.24997" lon="5.39985">
        <ele>1052</ele>
        <time>2026-05-13T13:57:32.000Z</time>
      </trkpt>
      <trkpt lat="44.24996" lon="5.39983">
        <ele>1053</ele>
        <time>2026-05-13T13:57:33.000Z</time>
      </trkpt>
      <trkpt lat="44.24995" lon="5.39983">
        <ele>1053</ele>
        <time>2026-05-13T13:57:34.000Z</time>
      </trkpt>
      <trkpt lat="44.24994" lon="5.39982">
        <ele>1053</ele>
        <time>2026-05-13T13:57:35.000Z</time>
      </trkpt>
      <trkpt lat="44.24993" lon="5.39982">
        <ele>1053</ele>
        <time>2026-05-13T13:57:36.000Z</time>
      </trkpt>
      <trkpt lat="44.24992" lon="5.39981">
        <ele>1052</ele>
        <time>2026-05-13T13:57:37.000Z</time>
      </trkpt>
      <trkpt lat="44.24991" lon="5.3998">
        <ele>1052</ele>
        <time>2026-05-13T13:57:38.000Z</time>
      </trkpt>
      <trkpt lat="44.2499" lon="5.39979">
        <ele>1052</ele>
        <time>2026-05-13T13:57:39.000Z</time>
      </trkpt>
      <trkpt lat="44.24989" lon="5.39978">
        <ele>1053</ele>
        <time>2026-05-13T13:57:40.000Z</time>
      </trkpt>
      <trkpt lat="44.24988" lon="5.39977">
        <ele>1053</ele>
        <time>2026-05-13T13:57:41.000Z</time>
      </trkpt>
      <trkpt lat="44.24987" lon="5.39976">
        <ele>1054</ele>
        <time>2026-05-13T13:57:42.000Z</time>
      </trkpt>
      <trkpt lat="44.24986" lon="5.39977">
        <ele>1054</ele>
        <time>2026-05-13T13:57:43.000Z</time>
      </trkpt>
      <trkpt lat="44.24985" lon="5.39976">
        <ele>1055</ele>
        <time>2026-05-13T13:57:44.000Z</time>
      </trkpt>
      <trkpt lat="44.24985" lon="5.39976">
        <ele>1054</ele>
        <time>2026-05-13T13:57:45.000Z</time>
      </trkpt>
      <trkpt lat="44.24984" lon="5.39976">
        <ele>1055</ele>
        <time>2026-05-13T13:57:46.000Z</time>
      </trkpt>
      <trkpt lat="44.24983" lon="5.39975">
        <ele>1055</ele>
        <time>2026-05-13T13:57:47.000Z</time>
      </trkpt>
      <trkpt lat="44.24983" lon="5.39975">
        <ele>1056</ele>
        <time>2026-05-13T13:57:48.000Z</time>
      </trkpt>
      <trkpt lat="44.24981" lon="5.39974">
        <ele>1056</ele>
        <time>2026-05-13T13:57:49.000Z</time>
      </trkpt>
      <trkpt lat="44.2498" lon="5.39974">
        <ele>1057</ele>
        <time>2026-05-13T13:57:50.000Z</time>
      </trkpt>
      <trkpt lat="44.24978" lon="5.39973">
        <ele>1057</ele>
        <time>2026-05-13T13:57:51.000Z</time>
      </trkpt>
      <trkpt lat="44.24977" lon="5.39973">
        <ele>1058</ele>
        <time>2026-05-13T13:57:52.000Z</time>
      </trkpt>
      <trkpt lat="44.24977" lon="5.39973">
        <ele>1058</ele>
        <time>2026-05-13T13:57:53.000Z</time>
      </trkpt>
      <trkpt lat="44.24976" lon="5.39973">
        <ele>1058</ele>
        <time>2026-05-13T13:57:54.000Z</time>
      </trkpt>
      <trkpt lat="44.24975" lon="5.39973">
        <ele>1058</ele>
        <time>2026-05-13T13:57:55.000Z</time>
      </trkpt>
      <trkpt lat="44.24974" lon="5.39972">
        <ele>1058</ele>
        <time>2026-05-13T13:57:56.000Z</time>
      </trkpt>
      <trkpt lat="44.24973" lon="5.39973">
        <ele>1057</ele>
        <time>2026-05-13T13:57:57.000Z</time>
      </trkpt>
      <trkpt lat="44.24972" lon="5.39973">
        <ele>1057</ele>
        <time>2026-05-13T13:57:58.000Z</time>
      </trkpt>
      <trkpt lat="44.24972" lon="5.39975">
        <ele>1057</ele>
        <time>2026-05-13T13:57:59.000Z</time>
      </trkpt>
      <trkpt lat="44.24971" lon="5.39976">
        <ele>1057</ele>
        <time>2026-05-13T13:58:00.000Z</time>
      </trkpt>
      <trkpt lat="44.2497" lon="5.39976">
        <ele>1057</ele>
        <time>2026-05-13T13:58:01.000Z</time>
      </trkpt>
      <trkpt lat="44.24969" lon="5.39978">
        <ele>1057</ele>
        <time>2026-05-13T13:58:02.000Z</time>
      </trkpt>
      <trkpt lat="44.24968" lon="5.39978">
        <ele>1057</ele>
        <time>2026-05-13T13:58:03.000Z</time>
      </trkpt>
      <trkpt lat="44.24967" lon="5.39979">
        <ele>1057</ele>
        <time>2026-05-13T13:58:04.000Z</time>
      </trkpt>
      <trkpt lat="44.24966" lon="5.39981">
        <ele>1057</ele>
        <time>2026-05-13T13:58:05.000Z</time>
      </trkpt>
      <trkpt lat="44.24965" lon="5.39982">
        <ele>1057</ele>
        <time>2026-05-13T13:58:06.000Z</time>
      </trkpt>
      <trkpt lat="44.24965" lon="5.39983">
        <ele>1058</ele>
        <time>2026-05-13T13:58:07.000Z</time>
      </trkpt>
      <trkpt lat="44.24964" lon="5.39984">
        <ele>1058</ele>
        <time>2026-05-13T13:58:08.000Z</time>
      </trkpt>
      <trkpt lat="44.24963" lon="5.39985">
        <ele>1058</ele>
        <time>2026-05-13T13:58:09.000Z</time>
      </trkpt>
      <trkpt lat="44.24962" lon="5.39986">
        <ele>1058</ele>
        <time>2026-05-13T13:58:10.000Z</time>
      </trkpt>
      <trkpt lat="44.24961" lon="5.39987">
        <ele>1058</ele>
        <time>2026-05-13T13:58:11.000Z</time>
      </trkpt>
      <trkpt lat="44.2496" lon="5.39989">
        <ele>1058</ele>
        <time>2026-05-13T13:58:12.000Z</time>
      </trkpt>
      <trkpt lat="44.24959" lon="5.39991">
        <ele>1058</ele>
        <time>2026-05-13T13:58:13.000Z</time>
      </trkpt>
      <trkpt lat="44.24959" lon="5.39992">
        <ele>1059</ele>
        <time>2026-05-13T13:58:14.000Z</time>
      </trkpt>
      <trkpt lat="44.24958" lon="5.39993">
        <ele>1059</ele>
        <time>2026-05-13T13:58:15.000Z</time>
      </trkpt>
      <trkpt lat="44.24957" lon="5.39995">
        <ele>1059</ele>
        <time>2026-05-13T13:58:16.000Z</time>
      </trkpt>
      <trkpt lat="44.24956" lon="5.39996">
        <ele>1060</ele>
        <time>2026-05-13T13:58:17.000Z</time>
      </trkpt>
      <trkpt lat="44.24954" lon="5.39998">
        <ele>1060</ele>
        <time>2026-05-13T13:58:18.000Z</time>
      </trkpt>
      <trkpt lat="44.24953" lon="5.4">
        <ele>1060</ele>
        <time>2026-05-13T13:58:19.000Z</time>
      </trkpt>
      <trkpt lat="44.24952" lon="5.40001">
        <ele>1059</ele>
        <time>2026-05-13T13:58:20.000Z</time>
      </trkpt>
      <trkpt lat="44.24951" lon="5.40003">
        <ele>1059</ele>
        <time>2026-05-13T13:58:21.000Z</time>
      </trkpt>
      <trkpt lat="44.2495" lon="5.40005">
        <ele>1059</ele>
        <time>2026-05-13T13:58:22.000Z</time>
      </trkpt>
      <trkpt lat="44.24948" lon="5.40006">
        <ele>1058</ele>
        <time>2026-05-13T13:58:23.000Z</time>
      </trkpt>
      <trkpt lat="44.24947" lon="5.40008">
        <ele>1058</ele>
        <time>2026-05-13T13:58:24.000Z</time>
      </trkpt>
      <trkpt lat="44.24945" lon="5.4001">
        <ele>1058</ele>
        <time>2026-05-13T13:58:25.000Z</time>
      </trkpt>
      <trkpt lat="44.24943" lon="5.40012">
        <ele>1057</ele>
        <time>2026-05-13T13:58:26.000Z</time>
      </trkpt>
      <trkpt lat="44.24941" lon="5.40013">
        <ele>1057</ele>
        <time>2026-05-13T13:58:27.000Z</time>
      </trkpt>
      <trkpt lat="44.24939" lon="5.40016">
        <ele>1057</ele>
        <time>2026-05-13T13:58:28.000Z</time>
      </trkpt>
      <trkpt lat="44.24938" lon="5.40018">
        <ele>1058</ele>
        <time>2026-05-13T13:58:29.000Z</time>
      </trkpt>
      <trkpt lat="44.24936" lon="5.4002">
        <ele>1058</ele>
        <time>2026-05-13T13:58:30.000Z</time>
      </trkpt>
      <trkpt lat="44.24935" lon="5.40023">
        <ele>1058</ele>
        <time>2026-05-13T13:58:31.000Z</time>
      </trkpt>
      <trkpt lat="44.24933" lon="5.40025">
        <ele>1058</ele>
        <time>2026-05-13T13:58:32.000Z</time>
      </trkpt>
      <trkpt lat="44.24932" lon="5.40028">
        <ele>1057</ele>
        <time>2026-05-13T13:58:33.000Z</time>
      </trkpt>
      <trkpt lat="44.2493" lon="5.4003">
        <ele>1058</ele>
        <time>2026-05-13T13:58:34.000Z</time>
      </trkpt>
      <trkpt lat="44.24929" lon="5.40033">
        <ele>1058</ele>
        <time>2026-05-13T13:58:35.000Z</time>
      </trkpt>
      <trkpt lat="44.24927" lon="5.40035">
        <ele>1058</ele>
        <time>2026-05-13T13:58:36.000Z</time>
      </trkpt>
      <trkpt lat="44.24926" lon="5.40038">
        <ele>1058</ele>
        <time>2026-05-13T13:58:37.000Z</time>
      </trkpt>
      <trkpt lat="44.24924" lon="5.40041">
        <ele>1058</ele>
        <time>2026-05-13T13:58:38.000Z</time>
      </trkpt>
      <trkpt lat="44.24922" lon="5.40044">
        <ele>1058</ele>
        <time>2026-05-13T13:58:39.000Z</time>
      </trkpt>
      <trkpt lat="44.24921" lon="5.40047">
        <ele>1058</ele>
        <time>2026-05-13T13:58:40.000Z</time>
      </trkpt>
      <trkpt lat="44.24919" lon="5.40049">
        <ele>1058</ele>
        <time>2026-05-13T13:58:41.000Z</time>
      </trkpt>
      <trkpt lat="44.24918" lon="5.40052">
        <ele>1058</ele>
        <time>2026-05-13T13:58:42.000Z</time>
      </trkpt>
      <trkpt lat="44.24916" lon="5.40055">
        <ele>1058</ele>
        <time>2026-05-13T13:58:43.000Z</time>
      </trkpt>
      <trkpt lat="44.24914" lon="5.40057">
        <ele>1058</ele>
        <time>2026-05-13T13:58:44.000Z</time>
      </trkpt>
      <trkpt lat="44.24913" lon="5.4006">
        <ele>1058</ele>
        <time>2026-05-13T13:58:45.000Z</time>
      </trkpt>
      <trkpt lat="44.24911" lon="5.40062">
        <ele>1058</ele>
        <time>2026-05-13T13:58:46.000Z</time>
      </trkpt>
      <trkpt lat="44.24909" lon="5.40066">
        <ele>1057</ele>
        <time>2026-05-13T13:58:47.000Z</time>
      </trkpt>
      <trkpt lat="44.24909" lon="5.40068">
        <ele>1058</ele>
        <time>2026-05-13T13:58:48.000Z</time>
      </trkpt>
      <trkpt lat="44.24908" lon="5.40071">
        <ele>1058</ele>
        <time>2026-05-13T13:58:49.000Z</time>
      </trkpt>
      <trkpt lat="44.24908" lon="5.40074">
        <ele>1058</ele>
        <time>2026-05-13T13:58:50.000Z</time>
      </trkpt>
      <trkpt lat="44.24908" lon="5.40076">
        <ele>1059</ele>
        <time>2026-05-13T13:58:51.000Z</time>
      </trkpt>
      <trkpt lat="44.24909" lon="5.40078">
        <ele>1059</ele>
        <time>2026-05-13T13:58:52.000Z</time>
      </trkpt>
      <trkpt lat="44.2491" lon="5.4008">
        <ele>1059</ele>
        <time>2026-05-13T13:58:53.000Z</time>
      </trkpt>
      <trkpt lat="44.24912" lon="5.40081">
        <ele>1060</ele>
        <time>2026-05-13T13:58:54.000Z</time>
      </trkpt>
      <trkpt lat="44.24913" lon="5.40083">
        <ele>1060</ele>
        <time>2026-05-13T13:58:55.000Z</time>
      </trkpt>
      <trkpt lat="44.24914" lon="5.40084">
        <ele>1060</ele>
        <time>2026-05-13T13:58:56.000Z</time>
      </trkpt>
      <trkpt lat="44.24915" lon="5.40086">
        <ele>1060</ele>
        <time>2026-05-13T13:58:57.000Z</time>
      </trkpt>
      <trkpt lat="44.24916" lon="5.40088">
        <ele>1060</ele>
        <time>2026-05-13T13:58:58.000Z</time>
      </trkpt>
      <trkpt lat="44.24917" lon="5.4009">
        <ele>1060</ele>
        <time>2026-05-13T13:58:59.000Z</time>
      </trkpt>
      <trkpt lat="44.24918" lon="5.40091">
        <ele>1060</ele>
        <time>2026-05-13T13:59:00.000Z</time>
      </trkpt>
      <trkpt lat="44.24919" lon="5.40093">
        <ele>1061</ele>
        <time>2026-05-13T13:59:01.000Z</time>
      </trkpt>
      <trkpt lat="44.24919" lon="5.40094">
        <ele>1061</ele>
        <time>2026-05-13T13:59:02.000Z</time>
      </trkpt>
      <trkpt lat="44.2492" lon="5.40096">
        <ele>1060</ele>
        <time>2026-05-13T13:59:03.000Z</time>
      </trkpt>
      <trkpt lat="44.2492" lon="5.40097">
        <ele>1060</ele>
        <time>2026-05-13T13:59:04.000Z</time>
      </trkpt>
      <trkpt lat="44.24921" lon="5.40099">
        <ele>1060</ele>
        <time>2026-05-13T13:59:05.000Z</time>
      </trkpt>
      <trkpt lat="44.24921" lon="5.40101">
        <ele>1061</ele>
        <time>2026-05-13T13:59:06.000Z</time>
      </trkpt>
      <trkpt lat="44.24923" lon="5.40103">
        <ele>1061</ele>
        <time>2026-05-13T13:59:07.000Z</time>
      </trkpt>
      <trkpt lat="44.24923" lon="5.40104">
        <ele>1060</ele>
        <time>2026-05-13T13:59:08.000Z</time>
      </trkpt>
      <trkpt lat="44.24924" lon="5.40106">
        <ele>1060</ele>
        <time>2026-05-13T13:59:09.000Z</time>
      </trkpt>
      <trkpt lat="44.24924" lon="5.40108">
        <ele>1060</ele>
        <time>2026-05-13T13:59:10.000Z</time>
      </trkpt>
      <trkpt lat="44.24924" lon="5.4011">
        <ele>1061</ele>
        <time>2026-05-13T13:59:11.000Z</time>
      </trkpt>
      <trkpt lat="44.24924" lon="5.40112">
        <ele>1060</ele>
        <time>2026-05-13T13:59:12.000Z</time>
      </trkpt>
      <trkpt lat="44.24924" lon="5.40114">
        <ele>1061</ele>
        <time>2026-05-13T13:59:13.000Z</time>
      </trkpt>
      <trkpt lat="44.24924" lon="5.40116">
        <ele>1061</ele>
        <time>2026-05-13T13:59:14.000Z</time>
      </trkpt>
      <trkpt lat="44.24924" lon="5.40118">
        <ele>1061</ele>
        <time>2026-05-13T13:59:15.000Z</time>
      </trkpt>
      <trkpt lat="44.24923" lon="5.4012">
        <ele>1061</ele>
        <time>2026-05-13T13:59:16.000Z</time>
      </trkpt>
      <trkpt lat="44.24923" lon="5.40122">
        <ele>1061</ele>
        <time>2026-05-13T13:59:17.000Z</time>
      </trkpt>
      <trkpt lat="44.24923" lon="5.40125">
        <ele>1061</ele>
        <time>2026-05-13T13:59:18.000Z</time>
      </trkpt>
      <trkpt lat="44.24922" lon="5.40127">
        <ele>1061</ele>
        <time>2026-05-13T13:59:19.000Z</time>
      </trkpt>
      <trkpt lat="44.24921" lon="5.40128">
        <ele>1062</ele>
        <time>2026-05-13T13:59:20.000Z</time>
      </trkpt>
      <trkpt lat="44.24921" lon="5.4013">
        <ele>1062</ele>
        <time>2026-05-13T13:59:21.000Z</time>
      </trkpt>
      <trkpt lat="44.2492" lon="5.40132">
        <ele>1062</ele>
        <time>2026-05-13T13:59:22.000Z</time>
      </trkpt>
      <trkpt lat="44.2492" lon="5.40133">
        <ele>1062</ele>
        <time>2026-05-13T13:59:23.000Z</time>
      </trkpt>
      <trkpt lat="44.24919" lon="5.40135">
        <ele>1062</ele>
        <time>2026-05-13T13:59:24.000Z</time>
      </trkpt>
      <trkpt lat="44.24917" lon="5.40136">
        <ele>1062</ele>
        <time>2026-05-13T13:59:25.000Z</time>
      </trkpt>
      <trkpt lat="44.24916" lon="5.40137">
        <ele>1062</ele>
        <time>2026-05-13T13:59:26.000Z</time>
      </trkpt>
      <trkpt lat="44.24915" lon="5.40139">
        <ele>1062</ele>
        <time>2026-05-13T13:59:27.000Z</time>
      </trkpt>
      <trkpt lat="44.24914" lon="5.4014">
        <ele>1063</ele>
        <time>2026-05-13T13:59:28.000Z</time>
      </trkpt>
      <trkpt lat="44.24914" lon="5.40142">
        <ele>1063</ele>
        <time>2026-05-13T13:59:29.000Z</time>
      </trkpt>
      <trkpt lat="44.24913" lon="5.40143">
        <ele>1063</ele>
        <time>2026-05-13T13:59:30.000Z</time>
      </trkpt>
      <trkpt lat="44.24912" lon="5.40145">
        <ele>1063</ele>
        <time>2026-05-13T13:59:31.000Z</time>
      </trkpt>
      <trkpt lat="44.24911" lon="5.40146">
        <ele>1064</ele>
        <time>2026-05-13T13:59:32.000Z</time>
      </trkpt>
      <trkpt lat="44.2491" lon="5.40148">
        <ele>1064</ele>
        <time>2026-05-13T13:59:33.000Z</time>
      </trkpt>
      <trkpt lat="44.24909" lon="5.4015">
        <ele>1064</ele>
        <time>2026-05-13T13:59:34.000Z</time>
      </trkpt>
      <trkpt lat="44.24908" lon="5.40152">
        <ele>1064</ele>
        <time>2026-05-13T13:59:35.000Z</time>
      </trkpt>
      <trkpt lat="44.24907" lon="5.40154">
        <ele>1064</ele>
        <time>2026-05-13T13:59:36.000Z</time>
      </trkpt>
      <trkpt lat="44.24906" lon="5.40155">
        <ele>1064</ele>
        <time>2026-05-13T13:59:37.000Z</time>
      </trkpt>
      <trkpt lat="44.24905" lon="5.40157">
        <ele>1065</ele>
        <time>2026-05-13T13:59:38.000Z</time>
      </trkpt>
      <trkpt lat="44.24904" lon="5.40159">
        <ele>1065</ele>
        <time>2026-05-13T13:59:39.000Z</time>
      </trkpt>
      <trkpt lat="44.24903" lon="5.40161">
        <ele>1065</ele>
        <time>2026-05-13T13:59:40.000Z</time>
      </trkpt>
      <trkpt lat="44.24903" lon="5.40163">
        <ele>1065</ele>
        <time>2026-05-13T13:59:41.000Z</time>
      </trkpt>
      <trkpt lat="44.24902" lon="5.40164">
        <ele>1065</ele>
        <time>2026-05-13T13:59:42.000Z</time>
      </trkpt>
      <trkpt lat="44.24902" lon="5.40166">
        <ele>1066</ele>
        <time>2026-05-13T13:59:43.000Z</time>
      </trkpt>
      <trkpt lat="44.24902" lon="5.40168">
        <ele>1065</ele>
        <time>2026-05-13T13:59:44.000Z</time>
      </trkpt>
      <trkpt lat="44.24902" lon="5.40169">
        <ele>1066</ele>
        <time>2026-05-13T13:59:45.000Z</time>
      </trkpt>
      <trkpt lat="44.24902" lon="5.4017">
        <ele>1066</ele>
        <time>2026-05-13T13:59:46.000Z</time>
      </trkpt>
      <trkpt lat="44.24901" lon="5.40172">
        <ele>1066</ele>
        <time>2026-05-13T13:59:47.000Z</time>
      </trkpt>
      <trkpt lat="44.24901" lon="5.40174">
        <ele>1066</ele>
        <time>2026-05-13T13:59:48.000Z</time>
      </trkpt>
      <trkpt lat="44.24902" lon="5.40176">
        <ele>1066</ele>
        <time>2026-05-13T13:59:49.000Z</time>
      </trkpt>
      <trkpt lat="44.24902" lon="5.40177">
        <ele>1066</ele>
        <time>2026-05-13T13:59:50.000Z</time>
      </trkpt>
      <trkpt lat="44.24902" lon="5.40178">
        <ele>1066</ele>
        <time>2026-05-13T13:59:51.000Z</time>
      </trkpt>
      <trkpt lat="44.24903" lon="5.4018">
        <ele>1067</ele>
        <time>2026-05-13T13:59:52.000Z</time>
      </trkpt>
      <trkpt lat="44.24904" lon="5.40182">
        <ele>1067</ele>
        <time>2026-05-13T13:59:53.000Z</time>
      </trkpt>
      <trkpt lat="44.24904" lon="5.40183">
        <ele>1068</ele>
        <time>2026-05-13T13:59:54.000Z</time>
      </trkpt>
      <trkpt lat="44.24906" lon="5.40184">
        <ele>1068</ele>
        <time>2026-05-13T13:59:55.000Z</time>
      </trkpt>
      <trkpt lat="44.24907" lon="5.40184">
        <ele>1068</ele>
        <time>2026-05-13T13:59:56.000Z</time>
      </trkpt>
      <trkpt lat="44.24908" lon="5.40184">
        <ele>1069</ele>
        <time>2026-05-13T13:59:57.000Z</time>
      </trkpt>
      <trkpt lat="44.24909" lon="5.40184">
        <ele>1069</ele>
        <time>2026-05-13T13:59:58.000Z</time>
      </trkpt>
      <trkpt lat="44.2491" lon="5.40185">
        <ele>1069</ele>
        <time>2026-05-13T13:59:59.000Z</time>
      </trkpt>
      <trkpt lat="44.24912" lon="5.40185">
        <ele>1069</ele>
        <time>2026-05-13T14:00:00.000Z</time>
      </trkpt>
      <trkpt lat="44.24914" lon="5.40186">
        <ele>1069</ele>
        <time>2026-05-13T14:00:01.000Z</time>
      </trkpt>
      <trkpt lat="44.24915" lon="5.40186">
        <ele>1069</ele>
        <time>2026-05-13T14:00:02.000Z</time>
      </trkpt>
      <trkpt lat="44.24916" lon="5.40187">
        <ele>1069</ele>
        <time>2026-05-13T14:00:03.000Z</time>
      </trkpt>
      <trkpt lat="44.24918" lon="5.40187">
        <ele>1069</ele>
        <time>2026-05-13T14:00:04.000Z</time>
      </trkpt>
      <trkpt lat="44.24919" lon="5.40188">
        <ele>1070</ele>
        <time>2026-05-13T14:00:05.000Z</time>
      </trkpt>
      <trkpt lat="44.24921" lon="5.40189">
        <ele>1070</ele>
        <time>2026-05-13T14:00:06.000Z</time>
      </trkpt>
      <trkpt lat="44.24922" lon="5.4019">
        <ele>1070</ele>
        <time>2026-05-13T14:00:07.000Z</time>
      </trkpt>
      <trkpt lat="44.24923" lon="5.40191">
        <ele>1070</ele>
        <time>2026-05-13T14:00:08.000Z</time>
      </trkpt>
      <trkpt lat="44.24924" lon="5.40192">
        <ele>1070</ele>
        <time>2026-05-13T14:00:09.000Z</time>
      </trkpt>
      <trkpt lat="44.24925" lon="5.40192">
        <ele>1070</ele>
        <time>2026-05-13T14:00:10.000Z</time>
      </trkpt>
      <trkpt lat="44.24926" lon="5.40193">
        <ele>1070</ele>
        <time>2026-05-13T14:00:11.000Z</time>
      </trkpt>
      <trkpt lat="44.24927" lon="5.40195">
        <ele>1070</ele>
        <time>2026-05-13T14:00:12.000Z</time>
      </trkpt>
      <trkpt lat="44.24928" lon="5.40196">
        <ele>1070</ele>
        <time>2026-05-13T14:00:13.000Z</time>
      </trkpt>
      <trkpt lat="44.24929" lon="5.40196">
        <ele>1070</ele>
        <time>2026-05-13T14:00:14.000Z</time>
      </trkpt>
      <trkpt lat="44.2493" lon="5.40197">
        <ele>1070</ele>
        <time>2026-05-13T14:00:15.000Z</time>
      </trkpt>
      <trkpt lat="44.24931" lon="5.40199">
        <ele>1070</ele>
        <time>2026-05-13T14:00:16.000Z</time>
      </trkpt>
      <trkpt lat="44.24933" lon="5.402">
        <ele>1070</ele>
        <time>2026-05-13T14:00:17.000Z</time>
      </trkpt>
      <trkpt lat="44.24934" lon="5.40201">
        <ele>1070</ele>
        <time>2026-05-13T14:00:18.000Z</time>
      </trkpt>
      <trkpt lat="44.24935" lon="5.40202">
        <ele>1071</ele>
        <time>2026-05-13T14:00:19.000Z</time>
      </trkpt>
      <trkpt lat="44.24936" lon="5.40203">
        <ele>1071</ele>
        <time>2026-05-13T14:00:20.000Z</time>
      </trkpt>
      <trkpt lat="44.24937" lon="5.40204">
        <ele>1071</ele>
        <time>2026-05-13T14:00:21.000Z</time>
      </trkpt>
      <trkpt lat="44.24938" lon="5.40205">
        <ele>1072</ele>
        <time>2026-05-13T14:00:22.000Z</time>
      </trkpt>
      <trkpt lat="44.24939" lon="5.40205">
        <ele>1072</ele>
        <time>2026-05-13T14:00:23.000Z</time>
      </trkpt>
      <trkpt lat="44.2494" lon="5.40206">
        <ele>1073</ele>
        <time>2026-05-13T14:00:24.000Z</time>
      </trkpt>
      <trkpt lat="44.24941" lon="5.40207">
        <ele>1073</ele>
        <time>2026-05-13T14:00:25.000Z</time>
      </trkpt>
      <trkpt lat="44.24942" lon="5.40208">
        <ele>1073</ele>
        <time>2026-05-13T14:00:26.000Z</time>
      </trkpt>
      <trkpt lat="44.24943" lon="5.40209">
        <ele>1073</ele>
        <time>2026-05-13T14:00:27.000Z</time>
      </trkpt>
      <trkpt lat="44.24943" lon="5.4021">
        <ele>1073</ele>
        <time>2026-05-13T14:00:28.000Z</time>
      </trkpt>
      <trkpt lat="44.24944" lon="5.40211">
        <ele>1073</ele>
        <time>2026-05-13T14:00:29.000Z</time>
      </trkpt>
      <trkpt lat="44.24945" lon="5.40212">
        <ele>1074</ele>
        <time>2026-05-13T14:00:30.000Z</time>
      </trkpt>
      <trkpt lat="44.24946" lon="5.40213">
        <ele>1073</ele>
        <time>2026-05-13T14:00:31.000Z</time>
      </trkpt>
      <trkpt lat="44.24947" lon="5.40213">
        <ele>1073</ele>
        <time>2026-05-13T14:00:32.000Z</time>
      </trkpt>
      <trkpt lat="44.24948" lon="5.40214">
        <ele>1073</ele>
        <time>2026-05-13T14:00:33.000Z</time>
      </trkpt>
      <trkpt lat="44.24949" lon="5.40215">
        <ele>1074</ele>
        <time>2026-05-13T14:00:34.000Z</time>
      </trkpt>
      <trkpt lat="44.2495" lon="5.40216">
        <ele>1074</ele>
        <time>2026-05-13T14:00:35.000Z</time>
      </trkpt>
      <trkpt lat="44.24951" lon="5.40217">
        <ele>1074</ele>
        <time>2026-05-13T14:00:36.000Z</time>
      </trkpt>
      <trkpt lat="44.24952" lon="5.40218">
        <ele>1074</ele>
        <time>2026-05-13T14:00:37.000Z</time>
      </trkpt>
      <trkpt lat="44.24953" lon="5.40219">
        <ele>1074</ele>
        <time>2026-05-13T14:00:38.000Z</time>
      </trkpt>
      <trkpt lat="44.24954" lon="5.4022">
        <ele>1074</ele>
        <time>2026-05-13T14:00:39.000Z</time>
      </trkpt>
      <trkpt lat="44.24955" lon="5.4022">
        <ele>1074</ele>
        <time>2026-05-13T14:00:40.000Z</time>
      </trkpt>
      <trkpt lat="44.24957" lon="5.40221">
        <ele>1074</ele>
        <time>2026-05-13T14:00:41.000Z</time>
      </trkpt>
      <trkpt lat="44.24958" lon="5.40221">
        <ele>1074</ele>
        <time>2026-05-13T14:00:42.000Z</time>
      </trkpt>
      <trkpt lat="44.2496" lon="5.40223">
        <ele>1074</ele>
        <time>2026-05-13T14:00:43.000Z</time>
      </trkpt>
      <trkpt lat="44.24961" lon="5.40223">
        <ele>1074</ele>
        <time>2026-05-13T14:00:44.000Z</time>
      </trkpt>
      <trkpt lat="44.24963" lon="5.40224">
        <ele>1074</ele>
        <time>2026-05-13T14:00:45.000Z</time>
      </trkpt>
      <trkpt lat="44.24965" lon="5.40225">
        <ele>1074</ele>
        <time>2026-05-13T14:00:46.000Z</time>
      </trkpt>
      <trkpt lat="44.24966" lon="5.40226">
        <ele>1074</ele>
        <time>2026-05-13T14:00:47.000Z</time>
      </trkpt>
      <trkpt lat="44.24968" lon="5.40226">
        <ele>1074</ele>
        <time>2026-05-13T14:00:48.000Z</time>
      </trkpt>
      <trkpt lat="44.2497" lon="5.40227">
        <ele>1075</ele>
        <time>2026-05-13T14:00:49.000Z</time>
      </trkpt>
      <trkpt lat="44.24972" lon="5.40229">
        <ele>1075</ele>
        <time>2026-05-13T14:00:50.000Z</time>
      </trkpt>
      <trkpt lat="44.24973" lon="5.4023">
        <ele>1075</ele>
        <time>2026-05-13T14:00:51.000Z</time>
      </trkpt>
      <trkpt lat="44.24976" lon="5.4023">
        <ele>1075</ele>
        <time>2026-05-13T14:00:52.000Z</time>
      </trkpt>
      <trkpt lat="44.24977" lon="5.40231">
        <ele>1075</ele>
        <time>2026-05-13T14:00:53.000Z</time>
      </trkpt>
      <trkpt lat="44.24979" lon="5.40232">
        <ele>1075</ele>
        <time>2026-05-13T14:00:54.000Z</time>
      </trkpt>
      <trkpt lat="44.24981" lon="5.40233">
        <ele>1075</ele>
        <time>2026-05-13T14:00:55.000Z</time>
      </trkpt>
      <trkpt lat="44.24983" lon="5.40234">
        <ele>1076</ele>
        <time>2026-05-13T14:00:56.000Z</time>
      </trkpt>
      <trkpt lat="44.24985" lon="5.40234">
        <ele>1076</ele>
        <time>2026-05-13T14:00:57.000Z</time>
      </trkpt>
      <trkpt lat="44.24987" lon="5.40235">
        <ele>1076</ele>
        <time>2026-05-13T14:00:58.000Z</time>
      </trkpt>
      <trkpt lat="44.24988" lon="5.40236">
        <ele>1077</ele>
        <time>2026-05-13T14:00:59.000Z</time>
      </trkpt>
      <trkpt lat="44.2499" lon="5.40236">
        <ele>1077</ele>
        <time>2026-05-13T14:01:00.000Z</time>
      </trkpt>
      <trkpt lat="44.24992" lon="5.40236">
        <ele>1077</ele>
        <time>2026-05-13T14:01:01.000Z</time>
      </trkpt>
      <trkpt lat="44.24994" lon="5.40237">
        <ele>1077</ele>
        <time>2026-05-13T14:01:02.000Z</time>
      </trkpt>
      <trkpt lat="44.24996" lon="5.40237">
        <ele>1077</ele>
        <time>2026-05-13T14:01:03.000Z</time>
      </trkpt>
      <trkpt lat="44.24997" lon="5.40238">
        <ele>1077</ele>
        <time>2026-05-13T14:01:04.000Z</time>
      </trkpt>
      <trkpt lat="44.25" lon="5.40238">
        <ele>1077</ele>
        <time>2026-05-13T14:01:05.000Z</time>
      </trkpt>
      <trkpt lat="44.25001" lon="5.40238">
        <ele>1077</ele>
        <time>2026-05-13T14:01:06.000Z</time>
      </trkpt>
      <trkpt lat="44.25003" lon="5.40238">
        <ele>1077</ele>
        <time>2026-05-13T14:01:07.000Z</time>
      </trkpt>
      <trkpt lat="44.25005" lon="5.40238">
        <ele>1077</ele>
        <time>2026-05-13T14:01:08.000Z</time>
      </trkpt>
      <trkpt lat="44.25006" lon="5.40237">
        <ele>1077</ele>
        <time>2026-05-13T14:01:09.000Z</time>
      </trkpt>
      <trkpt lat="44.25008" lon="5.40237">
        <ele>1077</ele>
        <time>2026-05-13T14:01:10.000Z</time>
      </trkpt>
      <trkpt lat="44.2501" lon="5.40237">
        <ele>1077</ele>
        <time>2026-05-13T14:01:11.000Z</time>
      </trkpt>
      <trkpt lat="44.25012" lon="5.40237">
        <ele>1077</ele>
        <time>2026-05-13T14:01:12.000Z</time>
      </trkpt>
      <trkpt lat="44.25014" lon="5.40236">
        <ele>1078</ele>
        <time>2026-05-13T14:01:13.000Z</time>
      </trkpt>
      <trkpt lat="44.25015" lon="5.40235">
        <ele>1078</ele>
        <time>2026-05-13T14:01:14.000Z</time>
      </trkpt>
      <trkpt lat="44.25017" lon="5.40234">
        <ele>1078</ele>
        <time>2026-05-13T14:01:15.000Z</time>
      </trkpt>
      <trkpt lat="44.25019" lon="5.40234">
        <ele>1078</ele>
        <time>2026-05-13T14:01:16.000Z</time>
      </trkpt>
      <trkpt lat="44.2502" lon="5.40232">
        <ele>1078</ele>
        <time>2026-05-13T14:01:17.000Z</time>
      </trkpt>
      <trkpt lat="44.25022" lon="5.40231">
        <ele>1078</ele>
        <time>2026-05-13T14:01:18.000Z</time>
      </trkpt>
      <trkpt lat="44.25024" lon="5.4023">
        <ele>1078</ele>
        <time>2026-05-13T14:01:19.000Z</time>
      </trkpt>
      <trkpt lat="44.25026" lon="5.40229">
        <ele>1078</ele>
        <time>2026-05-13T14:01:20.000Z</time>
      </trkpt>
      <trkpt lat="44.25027" lon="5.40228">
        <ele>1078</ele>
        <time>2026-05-13T14:01:21.000Z</time>
      </trkpt>
      <trkpt lat="44.25028" lon="5.40227">
        <ele>1078</ele>
        <time>2026-05-13T14:01:22.000Z</time>
      </trkpt>
      <trkpt lat="44.2503" lon="5.40225">
        <ele>1078</ele>
        <time>2026-05-13T14:01:23.000Z</time>
      </trkpt>
      <trkpt lat="44.25031" lon="5.40224">
        <ele>1078</ele>
        <time>2026-05-13T14:01:24.000Z</time>
      </trkpt>
      <trkpt lat="44.25032" lon="5.40222">
        <ele>1078</ele>
        <time>2026-05-13T14:01:25.000Z</time>
      </trkpt>
      <trkpt lat="44.25033" lon="5.4022">
        <ele>1078</ele>
        <time>2026-05-13T14:01:26.000Z</time>
      </trkpt>
      <trkpt lat="44.25034" lon="5.40218">
        <ele>1079</ele>
        <time>2026-05-13T14:01:27.000Z</time>
      </trkpt>
      <trkpt lat="44.25035" lon="5.40216">
        <ele>1079</ele>
        <time>2026-05-13T14:01:28.000Z</time>
      </trkpt>
      <trkpt lat="44.25036" lon="5.40214">
        <ele>1079</ele>
        <time>2026-05-13T14:01:29.000Z</time>
      </trkpt>
      <trkpt lat="44.25037" lon="5.40212">
        <ele>1079</ele>
        <time>2026-05-13T14:01:30.000Z</time>
      </trkpt>
      <trkpt lat="44.25039" lon="5.40209">
        <ele>1079</ele>
        <time>2026-05-13T14:01:31.000Z</time>
      </trkpt>
      <trkpt lat="44.2504" lon="5.40207">
        <ele>1079</ele>
        <time>2026-05-13T14:01:32.000Z</time>
      </trkpt>
      <trkpt lat="44.25042" lon="5.40206">
        <ele>1079</ele>
        <time>2026-05-13T14:01:33.000Z</time>
      </trkpt>
      <trkpt lat="44.25043" lon="5.40203">
        <ele>1078</ele>
        <time>2026-05-13T14:01:34.000Z</time>
      </trkpt>
      <trkpt lat="44.25045" lon="5.40201">
        <ele>1078</ele>
        <time>2026-05-13T14:01:35.000Z</time>
      </trkpt>
      <trkpt lat="44.25046" lon="5.402">
        <ele>1078</ele>
        <time>2026-05-13T14:01:36.000Z</time>
      </trkpt>
      <trkpt lat="44.25047" lon="5.40198">
        <ele>1078</ele>
        <time>2026-05-13T14:01:37.000Z</time>
      </trkpt>
      <trkpt lat="44.25049" lon="5.40196">
        <ele>1078</ele>
        <time>2026-05-13T14:01:38.000Z</time>
      </trkpt>
      <trkpt lat="44.25051" lon="5.40195">
        <ele>1078</ele>
        <time>2026-05-13T14:01:39.000Z</time>
      </trkpt>
      <trkpt lat="44.25053" lon="5.40193">
        <ele>1078</ele>
        <time>2026-05-13T14:01:40.000Z</time>
      </trkpt>
      <trkpt lat="44.25054" lon="5.40192">
        <ele>1079</ele>
        <time>2026-05-13T14:01:41.000Z</time>
      </trkpt>
      <trkpt lat="44.25056" lon="5.4019">
        <ele>1079</ele>
        <time>2026-05-13T14:01:42.000Z</time>
      </trkpt>
      <trkpt lat="44.25057" lon="5.40189">
        <ele>1079</ele>
        <time>2026-05-13T14:01:43.000Z</time>
      </trkpt>
      <trkpt lat="44.25058" lon="5.40188">
        <ele>1079</ele>
        <time>2026-05-13T14:01:44.000Z</time>
      </trkpt>
      <trkpt lat="44.2506" lon="5.40188">
        <ele>1079</ele>
        <time>2026-05-13T14:01:45.000Z</time>
      </trkpt>
      <trkpt lat="44.25061" lon="5.40186">
        <ele>1079</ele>
        <time>2026-05-13T14:01:46.000Z</time>
      </trkpt>
      <trkpt lat="44.25063" lon="5.40185">
        <ele>1078</ele>
        <time>2026-05-13T14:01:47.000Z</time>
      </trkpt>
      <trkpt lat="44.25065" lon="5.40185">
        <ele>1079</ele>
        <time>2026-05-13T14:01:48.000Z</time>
      </trkpt>
      <trkpt lat="44.25066" lon="5.40184">
        <ele>1079</ele>
        <time>2026-05-13T14:01:49.000Z</time>
      </trkpt>
      <trkpt lat="44.25069" lon="5.40183">
        <ele>1079</ele>
        <time>2026-05-13T14:01:50.000Z</time>
      </trkpt>
      <trkpt lat="44.2507" lon="5.40183">
        <ele>1080</ele>
        <time>2026-05-13T14:01:51.000Z</time>
      </trkpt>
      <trkpt lat="44.25072" lon="5.40182">
        <ele>1080</ele>
        <time>2026-05-13T14:01:52.000Z</time>
      </trkpt>
      <trkpt lat="44.25074" lon="5.40181">
        <ele>1081</ele>
        <time>2026-05-13T14:01:53.000Z</time>
      </trkpt>
      <trkpt lat="44.25076" lon="5.40181">
        <ele>1080</ele>
        <time>2026-05-13T14:01:54.000Z</time>
      </trkpt>
      <trkpt lat="44.25078" lon="5.4018">
        <ele>1081</ele>
        <time>2026-05-13T14:01:55.000Z</time>
      </trkpt>
      <trkpt lat="44.2508" lon="5.4018">
        <ele>1081</ele>
        <time>2026-05-13T14:01:56.000Z</time>
      </trkpt>
      <trkpt lat="44.25082" lon="5.4018">
        <ele>1081</ele>
        <time>2026-05-13T14:01:57.000Z</time>
      </trkpt>
      <trkpt lat="44.25084" lon="5.4018">
        <ele>1081</ele>
        <time>2026-05-13T14:01:58.000Z</time>
      </trkpt>
      <trkpt lat="44.25086" lon="5.4018">
        <ele>1081</ele>
        <time>2026-05-13T14:01:59.000Z</time>
      </trkpt>
      <trkpt lat="44.25088" lon="5.4018">
        <ele>1081</ele>
        <time>2026-05-13T14:02:00.000Z</time>
      </trkpt>
      <trkpt lat="44.2509" lon="5.4018">
        <ele>1082</ele>
        <time>2026-05-13T14:02:01.000Z</time>
      </trkpt>
      <trkpt lat="44.25092" lon="5.4018">
        <ele>1082</ele>
        <time>2026-05-13T14:02:02.000Z</time>
      </trkpt>
      <trkpt lat="44.25094" lon="5.40179">
        <ele>1082</ele>
        <time>2026-05-13T14:02:03.000Z</time>
      </trkpt>
      <trkpt lat="44.25096" lon="5.40178">
        <ele>1082</ele>
        <time>2026-05-13T14:02:04.000Z</time>
      </trkpt>
      <trkpt lat="44.25097" lon="5.40178">
        <ele>1082</ele>
        <time>2026-05-13T14:02:05.000Z</time>
      </trkpt>
      <trkpt lat="44.25099" lon="5.40177">
        <ele>1082</ele>
        <time>2026-05-13T14:02:06.000Z</time>
      </trkpt>
      <trkpt lat="44.25101" lon="5.40177">
        <ele>1082</ele>
        <time>2026-05-13T14:02:07.000Z</time>
      </trkpt>
      <trkpt lat="44.25102" lon="5.40176">
        <ele>1082</ele>
        <time>2026-05-13T14:02:08.000Z</time>
      </trkpt>
      <trkpt lat="44.25104" lon="5.40175">
        <ele>1082</ele>
        <time>2026-05-13T14:02:09.000Z</time>
      </trkpt>
      <trkpt lat="44.25106" lon="5.40175">
        <ele>1082</ele>
        <time>2026-05-13T14:02:10.000Z</time>
      </trkpt>
      <trkpt lat="44.25107" lon="5.40175">
        <ele>1082</ele>
        <time>2026-05-13T14:02:11.000Z</time>
      </trkpt>
      <trkpt lat="44.25109" lon="5.40175">
        <ele>1083</ele>
        <time>2026-05-13T14:02:12.000Z</time>
      </trkpt>
      <trkpt lat="44.2511" lon="5.40177">
        <ele>1083</ele>
        <time>2026-05-13T14:02:13.000Z</time>
      </trkpt>
      <trkpt lat="44.25111" lon="5.40179">
        <ele>1083</ele>
        <time>2026-05-13T14:02:14.000Z</time>
      </trkpt>
      <trkpt lat="44.2511" lon="5.40181">
        <ele>1083</ele>
        <time>2026-05-13T14:02:15.000Z</time>
      </trkpt>
      <trkpt lat="44.2511" lon="5.40184">
        <ele>1083</ele>
        <time>2026-05-13T14:02:16.000Z</time>
      </trkpt>
      <trkpt lat="44.25109" lon="5.40186">
        <ele>1083</ele>
        <time>2026-05-13T14:02:17.000Z</time>
      </trkpt>
      <trkpt lat="44.25107" lon="5.40187">
        <ele>1083</ele>
        <time>2026-05-13T14:02:18.000Z</time>
      </trkpt>
      <trkpt lat="44.25105" lon="5.40188">
        <ele>1083</ele>
        <time>2026-05-13T14:02:19.000Z</time>
      </trkpt>
      <trkpt lat="44.25103" lon="5.40188">
        <ele>1083</ele>
        <time>2026-05-13T14:02:20.000Z</time>
      </trkpt>
      <trkpt lat="44.25101" lon="5.4019">
        <ele>1083</ele>
        <time>2026-05-13T14:02:21.000Z</time>
      </trkpt>
      <trkpt lat="44.251" lon="5.40191">
        <ele>1084</ele>
        <time>2026-05-13T14:02:22.000Z</time>
      </trkpt>
      <trkpt lat="44.25099" lon="5.40192">
        <ele>1084</ele>
        <time>2026-05-13T14:02:23.000Z</time>
      </trkpt>
      <trkpt lat="44.25098" lon="5.40194">
        <ele>1084</ele>
        <time>2026-05-13T14:02:24.000Z</time>
      </trkpt>
      <trkpt lat="44.25097" lon="5.40195">
        <ele>1084</ele>
        <time>2026-05-13T14:02:25.000Z</time>
      </trkpt>
      <trkpt lat="44.25096" lon="5.40196">
        <ele>1084</ele>
        <time>2026-05-13T14:02:26.000Z</time>
      </trkpt>
      <trkpt lat="44.25095" lon="5.40198">
        <ele>1085</ele>
        <time>2026-05-13T14:02:27.000Z</time>
      </trkpt>
      <trkpt lat="44.25094" lon="5.402">
        <ele>1085</ele>
        <time>2026-05-13T14:02:28.000Z</time>
      </trkpt>
      <trkpt lat="44.25094" lon="5.40202">
        <ele>1086</ele>
        <time>2026-05-13T14:02:29.000Z</time>
      </trkpt>
      <trkpt lat="44.25092" lon="5.40204">
        <ele>1086</ele>
        <time>2026-05-13T14:02:30.000Z</time>
      </trkpt>
      <trkpt lat="44.25092" lon="5.40205">
        <ele>1086</ele>
        <time>2026-05-13T14:02:31.000Z</time>
      </trkpt>
      <trkpt lat="44.25091" lon="5.40207">
        <ele>1086</ele>
        <time>2026-05-13T14:02:32.000Z</time>
      </trkpt>
      <trkpt lat="44.2509" lon="5.40208">
        <ele>1086</ele>
        <time>2026-05-13T14:02:33.000Z</time>
      </trkpt>
      <trkpt lat="44.25089" lon="5.4021">
        <ele>1086</ele>
        <time>2026-05-13T14:02:34.000Z</time>
      </trkpt>
      <trkpt lat="44.25088" lon="5.40211">
        <ele>1087</ele>
        <time>2026-05-13T14:02:35.000Z</time>
      </trkpt>
      <trkpt lat="44.25087" lon="5.40213">
        <ele>1086</ele>
        <time>2026-05-13T14:02:36.000Z</time>
      </trkpt>
      <trkpt lat="44.25087" lon="5.40214">
        <ele>1087</ele>
        <time>2026-05-13T14:02:37.000Z</time>
      </trkpt>
      <trkpt lat="44.25086" lon="5.40216">
        <ele>1087</ele>
        <time>2026-05-13T14:02:38.000Z</time>
      </trkpt>
      <trkpt lat="44.25085" lon="5.40216">
        <ele>1087</ele>
        <time>2026-05-13T14:02:39.000Z</time>
      </trkpt>
      <trkpt lat="44.25084" lon="5.40218">
        <ele>1088</ele>
        <time>2026-05-13T14:02:40.000Z</time>
      </trkpt>
      <trkpt lat="44.25083" lon="5.40219">
        <ele>1087</ele>
        <time>2026-05-13T14:02:41.000Z</time>
      </trkpt>
      <trkpt lat="44.25082" lon="5.40221">
        <ele>1087</ele>
        <time>2026-05-13T14:02:42.000Z</time>
      </trkpt>
      <trkpt lat="44.25081" lon="5.40222">
        <ele>1087</ele>
        <time>2026-05-13T14:02:43.000Z</time>
      </trkpt>
      <trkpt lat="44.2508" lon="5.40223">
        <ele>1088</ele>
        <time>2026-05-13T14:02:44.000Z</time>
      </trkpt>
      <trkpt lat="44.25079" lon="5.40224">
        <ele>1088</ele>
        <time>2026-05-13T14:02:45.000Z</time>
      </trkpt>
      <trkpt lat="44.25078" lon="5.40225">
        <ele>1088</ele>
        <time>2026-05-13T14:02:46.000Z</time>
      </trkpt>
      <trkpt lat="44.25077" lon="5.40226">
        <ele>1089</ele>
        <time>2026-05-13T14:02:47.000Z</time>
      </trkpt>
      <trkpt lat="44.25076" lon="5.40228">
        <ele>1089</ele>
        <time>2026-05-13T14:02:48.000Z</time>
      </trkpt>
      <trkpt lat="44.25076" lon="5.40229">
        <ele>1089</ele>
        <time>2026-05-13T14:02:49.000Z</time>
      </trkpt>
      <trkpt lat="44.25075" lon="5.40231">
        <ele>1090</ele>
        <time>2026-05-13T14:02:50.000Z</time>
      </trkpt>
      <trkpt lat="44.25075" lon="5.40232">
        <ele>1090</ele>
        <time>2026-05-13T14:02:51.000Z</time>
      </trkpt>
      <trkpt lat="44.25074" lon="5.40233">
        <ele>1090</ele>
        <time>2026-05-13T14:02:52.000Z</time>
      </trkpt>
      <trkpt lat="44.25074" lon="5.40234">
        <ele>1089</ele>
        <time>2026-05-13T14:02:53.000Z</time>
      </trkpt>
      <trkpt lat="44.25074" lon="5.40236">
        <ele>1089</ele>
        <time>2026-05-13T14:02:54.000Z</time>
      </trkpt>
      <trkpt lat="44.25074" lon="5.40238">
        <ele>1090</ele>
        <time>2026-05-13T14:02:55.000Z</time>
      </trkpt>
      <trkpt lat="44.25074" lon="5.4024">
        <ele>1090</ele>
        <time>2026-05-13T14:02:56.000Z</time>
      </trkpt>
      <trkpt lat="44.25073" lon="5.40242">
        <ele>1090</ele>
        <time>2026-05-13T14:02:57.000Z</time>
      </trkpt>
      <trkpt lat="44.25073" lon="5.40243">
        <ele>1090</ele>
        <time>2026-05-13T14:02:58.000Z</time>
      </trkpt>
      <trkpt lat="44.25073" lon="5.40245">
        <ele>1090</ele>
        <time>2026-05-13T14:02:59.000Z</time>
      </trkpt>
      <trkpt lat="44.25073" lon="5.40246">
        <ele>1090</ele>
        <time>2026-05-13T14:03:00.000Z</time>
      </trkpt>
      <trkpt lat="44.25073" lon="5.40248">
        <ele>1090</ele>
        <time>2026-05-13T14:03:01.000Z</time>
      </trkpt>
      <trkpt lat="44.25072" lon="5.40251">
        <ele>1090</ele>
        <time>2026-05-13T14:03:02.000Z</time>
      </trkpt>
      <trkpt lat="44.25072" lon="5.40253">
        <ele>1090</ele>
        <time>2026-05-13T14:03:03.000Z</time>
      </trkpt>
      <trkpt lat="44.25072" lon="5.40254">
        <ele>1091</ele>
        <time>2026-05-13T14:03:04.000Z</time>
      </trkpt>
      <trkpt lat="44.25072" lon="5.40256">
        <ele>1091</ele>
        <time>2026-05-13T14:03:05.000Z</time>
      </trkpt>
      <trkpt lat="44.25071" lon="5.40257">
        <ele>1091</ele>
        <time>2026-05-13T14:03:06.000Z</time>
      </trkpt>
      <trkpt lat="44.25071" lon="5.40259">
        <ele>1092</ele>
        <time>2026-05-13T14:03:07.000Z</time>
      </trkpt>
      <trkpt lat="44.25071" lon="5.4026">
        <ele>1092</ele>
        <time>2026-05-13T14:03:08.000Z</time>
      </trkpt>
      <trkpt lat="44.2507" lon="5.40262">
        <ele>1092</ele>
        <time>2026-05-13T14:03:09.000Z</time>
      </trkpt>
      <trkpt lat="44.2507" lon="5.40264">
        <ele>1092</ele>
        <time>2026-05-13T14:03:10.000Z</time>
      </trkpt>
      <trkpt lat="44.2507" lon="5.40266">
        <ele>1092</ele>
        <time>2026-05-13T14:03:11.000Z</time>
      </trkpt>
      <trkpt lat="44.2507" lon="5.40268">
        <ele>1093</ele>
        <time>2026-05-13T14:03:12.000Z</time>
      </trkpt>
      <trkpt lat="44.25069" lon="5.4027">
        <ele>1093</ele>
        <time>2026-05-13T14:03:13.000Z</time>
      </trkpt>
      <trkpt lat="44.25069" lon="5.40272">
        <ele>1093</ele>
        <time>2026-05-13T14:03:14.000Z</time>
      </trkpt>
      <trkpt lat="44.25069" lon="5.40274">
        <ele>1093</ele>
        <time>2026-05-13T14:03:15.000Z</time>
      </trkpt>
      <trkpt lat="44.25069" lon="5.40276">
        <ele>1093</ele>
        <time>2026-05-13T14:03:16.000Z</time>
      </trkpt>
      <trkpt lat="44.25069" lon="5.40278">
        <ele>1093</ele>
        <time>2026-05-13T14:03:17.000Z</time>
      </trkpt>
      <trkpt lat="44.2507" lon="5.4028">
        <ele>1093</ele>
        <time>2026-05-13T14:03:18.000Z</time>
      </trkpt>
      <trkpt lat="44.25071" lon="5.40283">
        <ele>1093</ele>
        <time>2026-05-13T14:03:19.000Z</time>
      </trkpt>
      <trkpt lat="44.25072" lon="5.40284">
        <ele>1093</ele>
        <time>2026-05-13T14:03:20.000Z</time>
      </trkpt>
      <trkpt lat="44.25072" lon="5.40286">
        <ele>1093</ele>
        <time>2026-05-13T14:03:21.000Z</time>
      </trkpt>
      <trkpt lat="44.25071" lon="5.40288">
        <ele>1093</ele>
        <time>2026-05-13T14:03:22.000Z</time>
      </trkpt>
      <trkpt lat="44.25071" lon="5.4029">
        <ele>1093</ele>
        <time>2026-05-13T14:03:23.000Z</time>
      </trkpt>
      <trkpt lat="44.2507" lon="5.40292">
        <ele>1093</ele>
        <time>2026-05-13T14:03:24.000Z</time>
      </trkpt>
      <trkpt lat="44.2507" lon="5.40294">
        <ele>1093</ele>
        <time>2026-05-13T14:03:25.000Z</time>
      </trkpt>
      <trkpt lat="44.2507" lon="5.40296">
        <ele>1093</ele>
        <time>2026-05-13T14:03:26.000Z</time>
      </trkpt>
      <trkpt lat="44.25069" lon="5.40299">
        <ele>1093</ele>
        <time>2026-05-13T14:03:27.000Z</time>
      </trkpt>
      <trkpt lat="44.25069" lon="5.40302">
        <ele>1093</ele>
        <time>2026-05-13T14:03:28.000Z</time>
      </trkpt>
      <trkpt lat="44.25068" lon="5.40306">
        <ele>1093</ele>
        <time>2026-05-13T14:03:29.000Z</time>
      </trkpt>
      <trkpt lat="44.25068" lon="5.40309">
        <ele>1093</ele>
        <time>2026-05-13T14:03:30.000Z</time>
      </trkpt>
      <trkpt lat="44.25066" lon="5.40313">
        <ele>1093</ele>
        <time>2026-05-13T14:03:31.000Z</time>
      </trkpt>
      <trkpt lat="44.25066" lon="5.40317">
        <ele>1093</ele>
        <time>2026-05-13T14:03:32.000Z</time>
      </trkpt>
      <trkpt lat="44.25065" lon="5.40321">
        <ele>1093</ele>
        <time>2026-05-13T14:03:33.000Z</time>
      </trkpt>
      <trkpt lat="44.25064" lon="5.40324">
        <ele>1093</ele>
        <time>2026-05-13T14:03:34.000Z</time>
      </trkpt>
      <trkpt lat="44.25063" lon="5.40328">
        <ele>1093</ele>
        <time>2026-05-13T14:03:35.000Z</time>
      </trkpt>
      <trkpt lat="44.25063" lon="5.40332">
        <ele>1093</ele>
        <time>2026-05-13T14:03:36.000Z</time>
      </trkpt>
      <trkpt lat="44.25061" lon="5.40335">
        <ele>1093</ele>
        <time>2026-05-13T14:03:37.000Z</time>
      </trkpt>
      <trkpt lat="44.25061" lon="5.40337">
        <ele>1093</ele>
        <time>2026-05-13T14:03:38.000Z</time>
      </trkpt>
      <trkpt lat="44.2506" lon="5.4034">
        <ele>1093</ele>
        <time>2026-05-13T14:03:39.000Z</time>
      </trkpt>
      <trkpt lat="44.25058" lon="5.40344">
        <ele>1094</ele>
        <time>2026-05-13T14:03:40.000Z</time>
      </trkpt>
      <trkpt lat="44.25057" lon="5.40347">
        <ele>1094</ele>
        <time>2026-05-13T14:03:41.000Z</time>
      </trkpt>
      <trkpt lat="44.25056" lon="5.4035">
        <ele>1094</ele>
        <time>2026-05-13T14:03:42.000Z</time>
      </trkpt>
      <trkpt lat="44.25055" lon="5.40353">
        <ele>1094</ele>
        <time>2026-05-13T14:03:43.000Z</time>
      </trkpt>
      <trkpt lat="44.25053" lon="5.40356">
        <ele>1094</ele>
        <time>2026-05-13T14:03:44.000Z</time>
      </trkpt>
      <trkpt lat="44.25052" lon="5.40359">
        <ele>1094</ele>
        <time>2026-05-13T14:03:45.000Z</time>
      </trkpt>
      <trkpt lat="44.25051" lon="5.40362">
        <ele>1094</ele>
        <time>2026-05-13T14:03:46.000Z</time>
      </trkpt>
      <trkpt lat="44.25051" lon="5.40365">
        <ele>1094</ele>
        <time>2026-05-13T14:03:47.000Z</time>
      </trkpt>
      <trkpt lat="44.2505" lon="5.40368">
        <ele>1095</ele>
        <time>2026-05-13T14:03:48.000Z</time>
      </trkpt>
      <trkpt lat="44.25049" lon="5.40372">
        <ele>1095</ele>
        <time>2026-05-13T14:03:49.000Z</time>
      </trkpt>
      <trkpt lat="44.25047" lon="5.40375">
        <ele>1094</ele>
        <time>2026-05-13T14:03:50.000Z</time>
      </trkpt>
      <trkpt lat="44.25046" lon="5.4038">
        <ele>1094</ele>
        <time>2026-05-13T14:03:51.000Z</time>
      </trkpt>
      <trkpt lat="44.25044" lon="5.40384">
        <ele>1094</ele>
        <time>2026-05-13T14:03:52.000Z</time>
      </trkpt>
      <trkpt lat="44.25042" lon="5.40389">
        <ele>1094</ele>
        <time>2026-05-13T14:03:53.000Z</time>
      </trkpt>
      <trkpt lat="44.2504" lon="5.40394">
        <ele>1094</ele>
        <time>2026-05-13T14:03:54.000Z</time>
      </trkpt>
      <trkpt lat="44.25039" lon="5.40399">
        <ele>1094</ele>
        <time>2026-05-13T14:03:55.000Z</time>
      </trkpt>
      <trkpt lat="44.25037" lon="5.40403">
        <ele>1094</ele>
        <time>2026-05-13T14:03:56.000Z</time>
      </trkpt>
      <trkpt lat="44.25036" lon="5.40408">
        <ele>1094</ele>
        <time>2026-05-13T14:03:57.000Z</time>
      </trkpt>
      <trkpt lat="44.25035" lon="5.40412">
        <ele>1094</ele>
        <time>2026-05-13T14:03:58.000Z</time>
      </trkpt>
      <trkpt lat="44.25034" lon="5.40415">
        <ele>1094</ele>
        <time>2026-05-13T14:03:59.000Z</time>
      </trkpt>
      <trkpt lat="44.25032" lon="5.40418">
        <ele>1094</ele>
        <time>2026-05-13T14:04:00.000Z</time>
      </trkpt>
      <trkpt lat="44.2503" lon="5.40422">
        <ele>1094</ele>
        <time>2026-05-13T14:04:01.000Z</time>
      </trkpt>
      <trkpt lat="44.25028" lon="5.40425">
        <ele>1094</ele>
        <time>2026-05-13T14:04:02.000Z</time>
      </trkpt>
      <trkpt lat="44.25027" lon="5.40428">
        <ele>1094</ele>
        <time>2026-05-13T14:04:03.000Z</time>
      </trkpt>
      <trkpt lat="44.25025" lon="5.40431">
        <ele>1094</ele>
        <time>2026-05-13T14:04:04.000Z</time>
      </trkpt>
      <trkpt lat="44.25023" lon="5.40435">
        <ele>1095</ele>
        <time>2026-05-13T14:04:05.000Z</time>
      </trkpt>
      <trkpt lat="44.25021" lon="5.40437">
        <ele>1095</ele>
        <time>2026-05-13T14:04:06.000Z</time>
      </trkpt>
      <trkpt lat="44.25019" lon="5.40441">
        <ele>1095</ele>
        <time>2026-05-13T14:04:07.000Z</time>
      </trkpt>
      <trkpt lat="44.25017" lon="5.40444">
        <ele>1095</ele>
        <time>2026-05-13T14:04:08.000Z</time>
      </trkpt>
      <trkpt lat="44.25016" lon="5.40447">
        <ele>1095</ele>
        <time>2026-05-13T14:04:09.000Z</time>
      </trkpt>
      <trkpt lat="44.25014" lon="5.40449">
        <ele>1096</ele>
        <time>2026-05-13T14:04:10.000Z</time>
      </trkpt>
      <trkpt lat="44.25013" lon="5.40452">
        <ele>1096</ele>
        <time>2026-05-13T14:04:11.000Z</time>
      </trkpt>
      <trkpt lat="44.25012" lon="5.40455">
        <ele>1096</ele>
        <time>2026-05-13T14:04:12.000Z</time>
      </trkpt>
      <trkpt lat="44.25011" lon="5.40458">
        <ele>1096</ele>
        <time>2026-05-13T14:04:13.000Z</time>
      </trkpt>
      <trkpt lat="44.2501" lon="5.40461">
        <ele>1096</ele>
        <time>2026-05-13T14:04:14.000Z</time>
      </trkpt>
      <trkpt lat="44.25009" lon="5.40464">
        <ele>1096</ele>
        <time>2026-05-13T14:04:15.000Z</time>
      </trkpt>
      <trkpt lat="44.25008" lon="5.40467">
        <ele>1096</ele>
        <time>2026-05-13T14:04:16.000Z</time>
      </trkpt>
      <trkpt lat="44.25008" lon="5.40469">
        <ele>1096</ele>
        <time>2026-05-13T14:04:17.000Z</time>
      </trkpt>
      <trkpt lat="44.25008" lon="5.40472">
        <ele>1096</ele>
        <time>2026-05-13T14:04:18.000Z</time>
      </trkpt>
      <trkpt lat="44.25007" lon="5.40475">
        <ele>1097</ele>
        <time>2026-05-13T14:04:19.000Z</time>
      </trkpt>
      <trkpt lat="44.25007" lon="5.40477">
        <ele>1097</ele>
        <time>2026-05-13T14:04:20.000Z</time>
      </trkpt>
      <trkpt lat="44.25007" lon="5.4048">
        <ele>1097</ele>
        <time>2026-05-13T14:04:21.000Z</time>
      </trkpt>
      <trkpt lat="44.25008" lon="5.40482">
        <ele>1098</ele>
        <time>2026-05-13T14:04:22.000Z</time>
      </trkpt>
      <trkpt lat="44.25008" lon="5.40485">
        <ele>1098</ele>
        <time>2026-05-13T14:04:23.000Z</time>
      </trkpt>
      <trkpt lat="44.25008" lon="5.40487">
        <ele>1098</ele>
        <time>2026-05-13T14:04:24.000Z</time>
      </trkpt>
      <trkpt lat="44.25008" lon="5.4049">
        <ele>1098</ele>
        <time>2026-05-13T14:04:25.000Z</time>
      </trkpt>
      <trkpt lat="44.25009" lon="5.40492">
        <ele>1098</ele>
        <time>2026-05-13T14:04:26.000Z</time>
      </trkpt>
      <trkpt lat="44.25009" lon="5.40495">
        <ele>1098</ele>
        <time>2026-05-13T14:04:27.000Z</time>
      </trkpt>
      <trkpt lat="44.2501" lon="5.40497">
        <ele>1098</ele>
        <time>2026-05-13T14:04:28.000Z</time>
      </trkpt>
      <trkpt lat="44.2501" lon="5.40499">
        <ele>1098</ele>
        <time>2026-05-13T14:04:29.000Z</time>
      </trkpt>
      <trkpt lat="44.25011" lon="5.40502">
        <ele>1099</ele>
        <time>2026-05-13T14:04:30.000Z</time>
      </trkpt>
      <trkpt lat="44.25011" lon="5.40504">
        <ele>1099</ele>
        <time>2026-05-13T14:04:31.000Z</time>
      </trkpt>
      <trkpt lat="44.25011" lon="5.40506">
        <ele>1099</ele>
        <time>2026-05-13T14:04:32.000Z</time>
      </trkpt>
      <trkpt lat="44.25011" lon="5.40508">
        <ele>1099</ele>
        <time>2026-05-13T14:04:33.000Z</time>
      </trkpt>
      <trkpt lat="44.25012" lon="5.40511">
        <ele>1099</ele>
        <time>2026-05-13T14:04:34.000Z</time>
      </trkpt>
      <trkpt lat="44.25012" lon="5.40513">
        <ele>1099</ele>
        <time>2026-05-13T14:04:35.000Z</time>
      </trkpt>
      <trkpt lat="44.25011" lon="5.40515">
        <ele>1099</ele>
        <time>2026-05-13T14:04:36.000Z</time>
      </trkpt>
      <trkpt lat="44.25011" lon="5.40517">
        <ele>1099</ele>
        <time>2026-05-13T14:04:37.000Z</time>
      </trkpt>
      <trkpt lat="44.25011" lon="5.40519">
        <ele>1100</ele>
        <time>2026-05-13T14:04:38.000Z</time>
      </trkpt>
      <trkpt lat="44.25011" lon="5.40521">
        <ele>1100</ele>
        <time>2026-05-13T14:04:39.000Z</time>
      </trkpt>
      <trkpt lat="44.25011" lon="5.40524">
        <ele>1100</ele>
        <time>2026-05-13T14:04:40.000Z</time>
      </trkpt>
      <trkpt lat="44.2501" lon="5.40526">
        <ele>1100</ele>
        <time>2026-05-13T14:04:41.000Z</time>
      </trkpt>
      <trkpt lat="44.2501" lon="5.40528">
        <ele>1101</ele>
        <time>2026-05-13T14:04:42.000Z</time>
      </trkpt>
      <trkpt lat="44.2501" lon="5.4053">
        <ele>1101</ele>
        <time>2026-05-13T14:04:43.000Z</time>
      </trkpt>
      <trkpt lat="44.2501" lon="5.40532">
        <ele>1101</ele>
        <time>2026-05-13T14:04:44.000Z</time>
      </trkpt>
      <trkpt lat="44.2501" lon="5.40535">
        <ele>1101</ele>
        <time>2026-05-13T14:04:45.000Z</time>
      </trkpt>
      <trkpt lat="44.2501" lon="5.40537">
        <ele>1102</ele>
        <time>2026-05-13T14:04:46.000Z</time>
      </trkpt>
      <trkpt lat="44.25009" lon="5.40539">
        <ele>1102</ele>
        <time>2026-05-13T14:04:47.000Z</time>
      </trkpt>
      <trkpt lat="44.25009" lon="5.40541">
        <ele>1102</ele>
        <time>2026-05-13T14:04:48.000Z</time>
      </trkpt>
      <trkpt lat="44.25008" lon="5.40544">
        <ele>1102</ele>
        <time>2026-05-13T14:04:49.000Z</time>
      </trkpt>
      <trkpt lat="44.25008" lon="5.40546">
        <ele>1102</ele>
        <time>2026-05-13T14:04:50.000Z</time>
      </trkpt>
      <trkpt lat="44.25008" lon="5.40548">
        <ele>1102</ele>
        <time>2026-05-13T14:04:51.000Z</time>
      </trkpt>
      <trkpt lat="44.25008" lon="5.4055">
        <ele>1102</ele>
        <time>2026-05-13T14:04:52.000Z</time>
      </trkpt>
      <trkpt lat="44.25007" lon="5.40552">
        <ele>1103</ele>
        <time>2026-05-13T14:04:53.000Z</time>
      </trkpt>
      <trkpt lat="44.25007" lon="5.40554">
        <ele>1103</ele>
        <time>2026-05-13T14:04:54.000Z</time>
      </trkpt>
      <trkpt lat="44.25006" lon="5.40556">
        <ele>1103</ele>
        <time>2026-05-13T14:04:55.000Z</time>
      </trkpt>
      <trkpt lat="44.25006" lon="5.40558">
        <ele>1103</ele>
        <time>2026-05-13T14:04:56.000Z</time>
      </trkpt>
      <trkpt lat="44.25005" lon="5.4056">
        <ele>1103</ele>
        <time>2026-05-13T14:04:57.000Z</time>
      </trkpt>
      <trkpt lat="44.25004" lon="5.40562">
        <ele>1103</ele>
        <time>2026-05-13T14:04:58.000Z</time>
      </trkpt>
      <trkpt lat="44.25003" lon="5.40564">
        <ele>1103</ele>
        <time>2026-05-13T14:04:59.000Z</time>
      </trkpt>
      <trkpt lat="44.25003" lon="5.40566">
        <ele>1103</ele>
        <time>2026-05-13T14:05:00.000Z</time>
      </trkpt>
      <trkpt lat="44.25002" lon="5.40568">
        <ele>1103</ele>
        <time>2026-05-13T14:05:01.000Z</time>
      </trkpt>
      <trkpt lat="44.25002" lon="5.4057">
        <ele>1103</ele>
        <time>2026-05-13T14:05:02.000Z</time>
      </trkpt>
      <trkpt lat="44.25" lon="5.40572">
        <ele>1103</ele>
        <time>2026-05-13T14:05:03.000Z</time>
      </trkpt>
      <trkpt lat="44.25" lon="5.40574">
        <ele>1103</ele>
        <time>2026-05-13T14:05:04.000Z</time>
      </trkpt>
      <trkpt lat="44.24999" lon="5.40576">
        <ele>1103</ele>
        <time>2026-05-13T14:05:05.000Z</time>
      </trkpt>
      <trkpt lat="44.24999" lon="5.40577">
        <ele>1103</ele>
        <time>2026-05-13T14:05:06.000Z</time>
      </trkpt>
      <trkpt lat="44.24998" lon="5.4058">
        <ele>1103</ele>
        <time>2026-05-13T14:05:07.000Z</time>
      </trkpt>
      <trkpt lat="44.24997" lon="5.40582">
        <ele>1103</ele>
        <time>2026-05-13T14:05:08.000Z</time>
      </trkpt>
      <trkpt lat="44.24996" lon="5.40583">
        <ele>1103</ele>
        <time>2026-05-13T14:05:09.000Z</time>
      </trkpt>
      <trkpt lat="44.24995" lon="5.40585">
        <ele>1104</ele>
        <time>2026-05-13T14:05:10.000Z</time>
      </trkpt>
      <trkpt lat="44.24994" lon="5.40588">
        <ele>1103</ele>
        <time>2026-05-13T14:05:11.000Z</time>
      </trkpt>
      <trkpt lat="44.24993" lon="5.4059">
        <ele>1104</ele>
        <time>2026-05-13T14:05:12.000Z</time>
      </trkpt>
      <trkpt lat="44.24992" lon="5.40593">
        <ele>1104</ele>
        <time>2026-05-13T14:05:13.000Z</time>
      </trkpt>
      <trkpt lat="44.24991" lon="5.40595">
        <ele>1104</ele>
        <time>2026-05-13T14:05:14.000Z</time>
      </trkpt>
      <trkpt lat="44.2499" lon="5.40597">
        <ele>1105</ele>
        <time>2026-05-13T14:05:15.000Z</time>
      </trkpt>
      <trkpt lat="44.24989" lon="5.40599">
        <ele>1105</ele>
        <time>2026-05-13T14:05:16.000Z</time>
      </trkpt>
      <trkpt lat="44.24988" lon="5.40601">
        <ele>1105</ele>
        <time>2026-05-13T14:05:17.000Z</time>
      </trkpt>
      <trkpt lat="44.24987" lon="5.40603">
        <ele>1105</ele>
        <time>2026-05-13T14:05:18.000Z</time>
      </trkpt>
      <trkpt lat="44.24986" lon="5.40605">
        <ele>1104</ele>
        <time>2026-05-13T14:05:19.000Z</time>
      </trkpt>
      <trkpt lat="44.24985" lon="5.40607">
        <ele>1104</ele>
        <time>2026-05-13T14:05:20.000Z</time>
      </trkpt>
      <trkpt lat="44.24983" lon="5.40609">
        <ele>1104</ele>
        <time>2026-05-13T14:05:21.000Z</time>
      </trkpt>
      <trkpt lat="44.24981" lon="5.4061">
        <ele>1104</ele>
        <time>2026-05-13T14:05:22.000Z</time>
      </trkpt>
      <trkpt lat="44.2498" lon="5.40612">
        <ele>1104</ele>
        <time>2026-05-13T14:05:23.000Z</time>
      </trkpt>
      <trkpt lat="44.24979" lon="5.40613">
        <ele>1105</ele>
        <time>2026-05-13T14:05:24.000Z</time>
      </trkpt>
      <trkpt lat="44.24977" lon="5.40615">
        <ele>1105</ele>
        <time>2026-05-13T14:05:25.000Z</time>
      </trkpt>
      <trkpt lat="44.24976" lon="5.40617">
        <ele>1105</ele>
        <time>2026-05-13T14:05:26.000Z</time>
      </trkpt>
      <trkpt lat="44.24974" lon="5.40619">
        <ele>1105</ele>
        <time>2026-05-13T14:05:27.000Z</time>
      </trkpt>
      <trkpt lat="44.24973" lon="5.40621">
        <ele>1105</ele>
        <time>2026-05-13T14:05:28.000Z</time>
      </trkpt>
      <trkpt lat="44.24971" lon="5.40624">
        <ele>1106</ele>
        <time>2026-05-13T14:05:29.000Z</time>
      </trkpt>
      <trkpt lat="44.2497" lon="5.40626">
        <ele>1106</ele>
        <time>2026-05-13T14:05:30.000Z</time>
      </trkpt>
      <trkpt lat="44.24968" lon="5.40629">
        <ele>1106</ele>
        <time>2026-05-13T14:05:31.000Z</time>
      </trkpt>
      <trkpt lat="44.24967" lon="5.40631">
        <ele>1106</ele>
        <time>2026-05-13T14:05:32.000Z</time>
      </trkpt>
      <trkpt lat="44.24965" lon="5.40634">
        <ele>1106</ele>
        <time>2026-05-13T14:05:33.000Z</time>
      </trkpt>
      <trkpt lat="44.24963" lon="5.40637">
        <ele>1106</ele>
        <time>2026-05-13T14:05:34.000Z</time>
      </trkpt>
      <trkpt lat="44.24962" lon="5.40639">
        <ele>1106</ele>
        <time>2026-05-13T14:05:35.000Z</time>
      </trkpt>
      <trkpt lat="44.24961" lon="5.40642">
        <ele>1106</ele>
        <time>2026-05-13T14:05:36.000Z</time>
      </trkpt>
      <trkpt lat="44.2496" lon="5.40644">
        <ele>1105</ele>
        <time>2026-05-13T14:05:37.000Z</time>
      </trkpt>
      <trkpt lat="44.24959" lon="5.40647">
        <ele>1106</ele>
        <time>2026-05-13T14:05:38.000Z</time>
      </trkpt>
      <trkpt lat="44.24958" lon="5.40649">
        <ele>1106</ele>
        <time>2026-05-13T14:05:39.000Z</time>
      </trkpt>
      <trkpt lat="44.24957" lon="5.40652">
        <ele>1106</ele>
        <time>2026-05-13T14:05:40.000Z</time>
      </trkpt>
      <trkpt lat="44.24955" lon="5.40654">
        <ele>1106</ele>
        <time>2026-05-13T14:05:41.000Z</time>
      </trkpt>
      <trkpt lat="44.24954" lon="5.40657">
        <ele>1106</ele>
        <time>2026-05-13T14:05:42.000Z</time>
      </trkpt>
      <trkpt lat="44.24953" lon="5.4066">
        <ele>1106</ele>
        <time>2026-05-13T14:05:43.000Z</time>
      </trkpt>
      <trkpt lat="44.24952" lon="5.40662">
        <ele>1106</ele>
        <time>2026-05-13T14:05:44.000Z</time>
      </trkpt>
      <trkpt lat="44.24951" lon="5.40663">
        <ele>1106</ele>
        <time>2026-05-13T14:05:45.000Z</time>
      </trkpt>
      <trkpt lat="44.24952" lon="5.40665">
        <ele>1105</ele>
        <time>2026-05-13T14:05:46.000Z</time>
      </trkpt>
      <trkpt lat="44.24951" lon="5.40668">
        <ele>1105</ele>
        <time>2026-05-13T14:05:47.000Z</time>
      </trkpt>
      <trkpt lat="44.24951" lon="5.40671">
        <ele>1105</ele>
        <time>2026-05-13T14:05:48.000Z</time>
      </trkpt>
      <trkpt lat="44.2495" lon="5.40674">
        <ele>1105</ele>
        <time>2026-05-13T14:05:49.000Z</time>
      </trkpt>
      <trkpt lat="44.24949" lon="5.40678">
        <ele>1105</ele>
        <time>2026-05-13T14:05:50.000Z</time>
      </trkpt>
      <trkpt lat="44.24948" lon="5.40681">
        <ele>1105</ele>
        <time>2026-05-13T14:05:51.000Z</time>
      </trkpt>
      <trkpt lat="44.24947" lon="5.40684">
        <ele>1104</ele>
        <time>2026-05-13T14:05:52.000Z</time>
      </trkpt>
      <trkpt lat="44.24946" lon="5.40687">
        <ele>1104</ele>
        <time>2026-05-13T14:05:53.000Z</time>
      </trkpt>
      <trkpt lat="44.24944" lon="5.4069">
        <ele>1104</ele>
        <time>2026-05-13T14:05:54.000Z</time>
      </trkpt>
      <trkpt lat="44.24943" lon="5.40694">
        <ele>1104</ele>
        <time>2026-05-13T14:05:55.000Z</time>
      </trkpt>
      <trkpt lat="44.24942" lon="5.40697">
        <ele>1104</ele>
        <time>2026-05-13T14:05:56.000Z</time>
      </trkpt>
      <trkpt lat="44.24941" lon="5.407">
        <ele>1104</ele>
        <time>2026-05-13T14:05:57.000Z</time>
      </trkpt>
      <trkpt lat="44.2494" lon="5.40704">
        <ele>1104</ele>
        <time>2026-05-13T14:05:58.000Z</time>
      </trkpt>
      <trkpt lat="44.24939" lon="5.40707">
        <ele>1104</ele>
        <time>2026-05-13T14:05:59.000Z</time>
      </trkpt>
      <trkpt lat="44.24938" lon="5.40711">
        <ele>1103</ele>
        <time>2026-05-13T14:06:00.000Z</time>
      </trkpt>
      <trkpt lat="44.24937" lon="5.40714">
        <ele>1104</ele>
        <time>2026-05-13T14:06:01.000Z</time>
      </trkpt>
      <trkpt lat="44.24936" lon="5.40716">
        <ele>1104</ele>
        <time>2026-05-13T14:06:02.000Z</time>
      </trkpt>
      <trkpt lat="44.24935" lon="5.40719">
        <ele>1104</ele>
        <time>2026-05-13T14:06:03.000Z</time>
      </trkpt>
      <trkpt lat="44.24934" lon="5.40723">
        <ele>1104</ele>
        <time>2026-05-13T14:06:04.000Z</time>
      </trkpt>
      <trkpt lat="44.24933" lon="5.40725">
        <ele>1105</ele>
        <time>2026-05-13T14:06:05.000Z</time>
      </trkpt>
      <trkpt lat="44.24932" lon="5.40728">
        <ele>1105</ele>
        <time>2026-05-13T14:06:06.000Z</time>
      </trkpt>
      <trkpt lat="44.24931" lon="5.40731">
        <ele>1105</ele>
        <time>2026-05-13T14:06:07.000Z</time>
      </trkpt>
      <trkpt lat="44.24931" lon="5.40734">
        <ele>1105</ele>
        <time>2026-05-13T14:06:08.000Z</time>
      </trkpt>
      <trkpt lat="44.2493" lon="5.40737">
        <ele>1105</ele>
        <time>2026-05-13T14:06:09.000Z</time>
      </trkpt>
      <trkpt lat="44.2493" lon="5.4074">
        <ele>1105</ele>
        <time>2026-05-13T14:06:10.000Z</time>
      </trkpt>
      <trkpt lat="44.24929" lon="5.40743">
        <ele>1105</ele>
        <time>2026-05-13T14:06:11.000Z</time>
      </trkpt>
      <trkpt lat="44.24929" lon="5.40746">
        <ele>1106</ele>
        <time>2026-05-13T14:06:12.000Z</time>
      </trkpt>
      <trkpt lat="44.24928" lon="5.40749">
        <ele>1106</ele>
        <time>2026-05-13T14:06:13.000Z</time>
      </trkpt>
      <trkpt lat="44.24927" lon="5.40752">
        <ele>1106</ele>
        <time>2026-05-13T14:06:14.000Z</time>
      </trkpt>
      <trkpt lat="44.24926" lon="5.40755">
        <ele>1106</ele>
        <time>2026-05-13T14:06:15.000Z</time>
      </trkpt>
      <trkpt lat="44.24925" lon="5.40759">
        <ele>1106</ele>
        <time>2026-05-13T14:06:16.000Z</time>
      </trkpt>
      <trkpt lat="44.24924" lon="5.40762">
        <ele>1106</ele>
        <time>2026-05-13T14:06:17.000Z</time>
      </trkpt>
      <trkpt lat="44.24924" lon="5.40765">
        <ele>1106</ele>
        <time>2026-05-13T14:06:18.000Z</time>
      </trkpt>
      <trkpt lat="44.24923" lon="5.40769">
        <ele>1106</ele>
        <time>2026-05-13T14:06:19.000Z</time>
      </trkpt>
      <trkpt lat="44.24923" lon="5.40773">
        <ele>1106</ele>
        <time>2026-05-13T14:06:20.000Z</time>
      </trkpt>
      <trkpt lat="44.24922" lon="5.40777">
        <ele>1105</ele>
        <time>2026-05-13T14:06:21.000Z</time>
      </trkpt>
      <trkpt lat="44.24922" lon="5.40779">
        <ele>1105</ele>
        <time>2026-05-13T14:06:22.000Z</time>
      </trkpt>
      <trkpt lat="44.24921" lon="5.40782">
        <ele>1105</ele>
        <time>2026-05-13T14:06:23.000Z</time>
      </trkpt>
      <trkpt lat="44.24921" lon="5.40785">
        <ele>1106</ele>
        <time>2026-05-13T14:06:24.000Z</time>
      </trkpt>
      <trkpt lat="44.2492" lon="5.40788">
        <ele>1106</ele>
        <time>2026-05-13T14:06:25.000Z</time>
      </trkpt>
      <trkpt lat="44.2492" lon="5.40791">
        <ele>1106</ele>
        <time>2026-05-13T14:06:26.000Z</time>
      </trkpt>
      <trkpt lat="44.24919" lon="5.40794">
        <ele>1106</ele>
        <time>2026-05-13T14:06:27.000Z</time>
      </trkpt>
      <trkpt lat="44.24918" lon="5.40797">
        <ele>1107</ele>
        <time>2026-05-13T14:06:28.000Z</time>
      </trkpt>
      <trkpt lat="44.24917" lon="5.40801">
        <ele>1107</ele>
        <time>2026-05-13T14:06:29.000Z</time>
      </trkpt>
      <trkpt lat="44.24917" lon="5.40804">
        <ele>1106</ele>
        <time>2026-05-13T14:06:30.000Z</time>
      </trkpt>
      <trkpt lat="44.24917" lon="5.40808">
        <ele>1106</ele>
        <time>2026-05-13T14:06:31.000Z</time>
      </trkpt>
      <trkpt lat="44.24917" lon="5.40811">
        <ele>1106</ele>
        <time>2026-05-13T14:06:32.000Z</time>
      </trkpt>
      <trkpt lat="44.24917" lon="5.40815">
        <ele>1107</ele>
        <time>2026-05-13T14:06:33.000Z</time>
      </trkpt>
      <trkpt lat="44.24918" lon="5.40819">
        <ele>1107</ele>
        <time>2026-05-13T14:06:34.000Z</time>
      </trkpt>
      <trkpt lat="44.24919" lon="5.40822">
        <ele>1107</ele>
        <time>2026-05-13T14:06:35.000Z</time>
      </trkpt>
      <trkpt lat="44.2492" lon="5.40825">
        <ele>1107</ele>
        <time>2026-05-13T14:06:36.000Z</time>
      </trkpt>
      <trkpt lat="44.24922" lon="5.40828">
        <ele>1107</ele>
        <time>2026-05-13T14:06:37.000Z</time>
      </trkpt>
      <trkpt lat="44.24923" lon="5.4083">
        <ele>1107</ele>
        <time>2026-05-13T14:06:38.000Z</time>
      </trkpt>
      <trkpt lat="44.24925" lon="5.40833">
        <ele>1107</ele>
        <time>2026-05-13T14:06:39.000Z</time>
      </trkpt>
      <trkpt lat="44.24927" lon="5.40836">
        <ele>1107</ele>
        <time>2026-05-13T14:06:40.000Z</time>
      </trkpt>
      <trkpt lat="44.24929" lon="5.40839">
        <ele>1106</ele>
        <time>2026-05-13T14:06:41.000Z</time>
      </trkpt>
      <trkpt lat="44.24932" lon="5.40842">
        <ele>1106</ele>
        <time>2026-05-13T14:06:42.000Z</time>
      </trkpt>
      <trkpt lat="44.24934" lon="5.40846">
        <ele>1105</ele>
        <time>2026-05-13T14:06:43.000Z</time>
      </trkpt>
      <trkpt lat="44.24934" lon="5.40852">
        <ele>1105</ele>
        <time>2026-05-13T14:06:44.000Z</time>
      </trkpt>
      <trkpt lat="44.24931" lon="5.40858">
        <ele>1105</ele>
        <time>2026-05-13T14:06:45.000Z</time>
      </trkpt>
      <trkpt lat="44.24926" lon="5.40858">
        <ele>1104</ele>
        <time>2026-05-13T14:06:46.000Z</time>
      </trkpt>
      <trkpt lat="44.24922" lon="5.40859">
        <ele>1104</ele>
        <time>2026-05-13T14:06:47.000Z</time>
      </trkpt>
      <trkpt lat="44.24919" lon="5.40865">
        <ele>1104</ele>
        <time>2026-05-13T14:06:48.000Z</time>
      </trkpt>
      <trkpt lat="44.24918" lon="5.40873">
        <ele>1104</ele>
        <time>2026-05-13T14:06:49.000Z</time>
      </trkpt>
      <trkpt lat="44.24918" lon="5.4088">
        <ele>1104</ele>
        <time>2026-05-13T14:06:50.000Z</time>
      </trkpt>
      <trkpt lat="44.24917" lon="5.40887">
        <ele>1104</ele>
        <time>2026-05-13T14:06:51.000Z</time>
      </trkpt>
      <trkpt lat="44.24916" lon="5.40894">
        <ele>1103</ele>
        <time>2026-05-13T14:06:52.000Z</time>
      </trkpt>
      <trkpt lat="44.24914" lon="5.40901">
        <ele>1103</ele>
        <time>2026-05-13T14:06:53.000Z</time>
      </trkpt>
      <trkpt lat="44.24913" lon="5.40908">
        <ele>1104</ele>
        <time>2026-05-13T14:06:54.000Z</time>
      </trkpt>
      <trkpt lat="44.24912" lon="5.40915">
        <ele>1103</ele>
        <time>2026-05-13T14:06:55.000Z</time>
      </trkpt>
      <trkpt lat="44.24911" lon="5.40922">
        <ele>1103</ele>
        <time>2026-05-13T14:06:56.000Z</time>
      </trkpt>
      <trkpt lat="44.24909" lon="5.40929">
        <ele>1103</ele>
        <time>2026-05-13T14:06:57.000Z</time>
      </trkpt>
      <trkpt lat="44.24906" lon="5.40936">
        <ele>1103</ele>
        <time>2026-05-13T14:06:58.000Z</time>
      </trkpt>
      <trkpt lat="44.24905" lon="5.40942">
        <ele>1103</ele>
        <time>2026-05-13T14:06:59.000Z</time>
      </trkpt>
      <trkpt lat="44.24904" lon="5.40949">
        <ele>1103</ele>
        <time>2026-05-13T14:07:00.000Z</time>
      </trkpt>
      <trkpt lat="44.24902" lon="5.40955">
        <ele>1103</ele>
        <time>2026-05-13T14:07:01.000Z</time>
      </trkpt>
      <trkpt lat="44.24902" lon="5.40961">
        <ele>1103</ele>
        <time>2026-05-13T14:07:02.000Z</time>
      </trkpt>
      <trkpt lat="44.24902" lon="5.40968">
        <ele>1102</ele>
        <time>2026-05-13T14:07:03.000Z</time>
      </trkpt>
      <trkpt lat="44.24901" lon="5.40974">
        <ele>1102</ele>
        <time>2026-05-13T14:07:04.000Z</time>
      </trkpt>
      <trkpt lat="44.24899" lon="5.4098">
        <ele>1102</ele>
        <time>2026-05-13T14:07:05.000Z</time>
      </trkpt>
      <trkpt lat="44.24896" lon="5.40986">
        <ele>1102</ele>
        <time>2026-05-13T14:07:06.000Z</time>
      </trkpt>
      <trkpt lat="44.24893" lon="5.40991">
        <ele>1102</ele>
        <time>2026-05-13T14:07:07.000Z</time>
      </trkpt>
      <trkpt lat="44.24889" lon="5.40996">
        <ele>1102</ele>
        <time>2026-05-13T14:07:08.000Z</time>
      </trkpt>
      <trkpt lat="44.24887" lon="5.41001">
        <ele>1102</ele>
        <time>2026-05-13T14:07:09.000Z</time>
      </trkpt>
      <trkpt lat="44.24884" lon="5.41005">
        <ele>1102</ele>
        <time>2026-05-13T14:07:10.000Z</time>
      </trkpt>
      <trkpt lat="44.24881" lon="5.4101">
        <ele>1102</ele>
        <time>2026-05-13T14:07:11.000Z</time>
      </trkpt>
      <trkpt lat="44.24879" lon="5.41015">
        <ele>1102</ele>
        <time>2026-05-13T14:07:12.000Z</time>
      </trkpt>
      <trkpt lat="44.24877" lon="5.41022">
        <ele>1102</ele>
        <time>2026-05-13T14:07:13.000Z</time>
      </trkpt>
      <trkpt lat="44.24876" lon="5.41027">
        <ele>1102</ele>
        <time>2026-05-13T14:07:14.000Z</time>
      </trkpt>
      <trkpt lat="44.24874" lon="5.41033">
        <ele>1102</ele>
        <time>2026-05-13T14:07:15.000Z</time>
      </trkpt>
      <trkpt lat="44.24872" lon="5.41037">
        <ele>1102</ele>
        <time>2026-05-13T14:07:16.000Z</time>
      </trkpt>
      <trkpt lat="44.24871" lon="5.41042">
        <ele>1102</ele>
        <time>2026-05-13T14:07:17.000Z</time>
      </trkpt>
      <trkpt lat="44.2487" lon="5.41047">
        <ele>1102</ele>
        <time>2026-05-13T14:07:18.000Z</time>
      </trkpt>
      <trkpt lat="44.24868" lon="5.4105">
        <ele>1102</ele>
        <time>2026-05-13T14:07:19.000Z</time>
      </trkpt>
      <trkpt lat="44.24866" lon="5.41053">
        <ele>1102</ele>
        <time>2026-05-13T14:07:20.000Z</time>
      </trkpt>
      <trkpt lat="44.24863" lon="5.41055">
        <ele>1102</ele>
        <time>2026-05-13T14:07:21.000Z</time>
      </trkpt>
      <trkpt lat="44.2486" lon="5.41057">
        <ele>1102</ele>
        <time>2026-05-13T14:07:22.000Z</time>
      </trkpt>
      <trkpt lat="44.24857" lon="5.41058">
        <ele>1103</ele>
        <time>2026-05-13T14:07:23.000Z</time>
      </trkpt>
      <trkpt lat="44.24854" lon="5.41061">
        <ele>1103</ele>
        <time>2026-05-13T14:07:24.000Z</time>
      </trkpt>
      <trkpt lat="44.24852" lon="5.41063">
        <ele>1103</ele>
        <time>2026-05-13T14:07:25.000Z</time>
      </trkpt>
      <trkpt lat="44.24849" lon="5.41066">
        <ele>1103</ele>
        <time>2026-05-13T14:07:26.000Z</time>
      </trkpt>
      <trkpt lat="44.24847" lon="5.41069">
        <ele>1104</ele>
        <time>2026-05-13T14:07:27.000Z</time>
      </trkpt>
      <trkpt lat="44.24844" lon="5.41072">
        <ele>1104</ele>
        <time>2026-05-13T14:07:28.000Z</time>
      </trkpt>
      <trkpt lat="44.24842" lon="5.41074">
        <ele>1104</ele>
        <time>2026-05-13T14:07:29.000Z</time>
      </trkpt>
      <trkpt lat="44.2484" lon="5.41077">
        <ele>1104</ele>
        <time>2026-05-13T14:07:30.000Z</time>
      </trkpt>
      <trkpt lat="44.24838" lon="5.4108">
        <ele>1105</ele>
        <time>2026-05-13T14:07:31.000Z</time>
      </trkpt>
      <trkpt lat="44.24836" lon="5.41081">
        <ele>1105</ele>
        <time>2026-05-13T14:07:32.000Z</time>
      </trkpt>
      <trkpt lat="44.24834" lon="5.41083">
        <ele>1105</ele>
        <time>2026-05-13T14:07:33.000Z</time>
      </trkpt>
      <trkpt lat="44.24831" lon="5.41084">
        <ele>1105</ele>
        <time>2026-05-13T14:07:34.000Z</time>
      </trkpt>
      <trkpt lat="44.24829" lon="5.41085">
        <ele>1105</ele>
        <time>2026-05-13T14:07:35.000Z</time>
      </trkpt>
      <trkpt lat="44.24827" lon="5.41086">
        <ele>1106</ele>
        <time>2026-05-13T14:07:36.000Z</time>
      </trkpt>
      <trkpt lat="44.24824" lon="5.41086">
        <ele>1106</ele>
        <time>2026-05-13T14:07:37.000Z</time>
      </trkpt>
      <trkpt lat="44.24822" lon="5.41086">
        <ele>1106</ele>
        <time>2026-05-13T14:07:38.000Z</time>
      </trkpt>
      <trkpt lat="44.2482" lon="5.41084">
        <ele>1106</ele>
        <time>2026-05-13T14:07:39.000Z</time>
      </trkpt>
      <trkpt lat="44.24818" lon="5.41082">
        <ele>1106</ele>
        <time>2026-05-13T14:07:40.000Z</time>
      </trkpt>
      <trkpt lat="44.24816" lon="5.41081">
        <ele>1106</ele>
        <time>2026-05-13T14:07:41.000Z</time>
      </trkpt>
      <trkpt lat="44.24814" lon="5.41079">
        <ele>1106</ele>
        <time>2026-05-13T14:07:42.000Z</time>
      </trkpt>
      <trkpt lat="44.24812" lon="5.41078">
        <ele>1106</ele>
        <time>2026-05-13T14:07:43.000Z</time>
      </trkpt>
      <trkpt lat="44.2481" lon="5.41076">
        <ele>1107</ele>
        <time>2026-05-13T14:07:44.000Z</time>
      </trkpt>
      <trkpt lat="44.24808" lon="5.41074">
        <ele>1107</ele>
        <time>2026-05-13T14:07:45.000Z</time>
      </trkpt>
      <trkpt lat="44.24806" lon="5.41072">
        <ele>1107</ele>
        <time>2026-05-13T14:07:46.000Z</time>
      </trkpt>
      <trkpt lat="44.24804" lon="5.41071">
        <ele>1107</ele>
        <time>2026-05-13T14:07:47.000Z</time>
      </trkpt>
      <trkpt lat="44.24802" lon="5.41068">
        <ele>1107</ele>
        <time>2026-05-13T14:07:48.000Z</time>
      </trkpt>
      <trkpt lat="44.24801" lon="5.41066">
        <ele>1108</ele>
        <time>2026-05-13T14:07:49.000Z</time>
      </trkpt>
      <trkpt lat="44.24798" lon="5.41065">
        <ele>1108</ele>
        <time>2026-05-13T14:07:50.000Z</time>
      </trkpt>
      <trkpt lat="44.24796" lon="5.41066">
        <ele>1109</ele>
        <time>2026-05-13T14:07:51.000Z</time>
      </trkpt>
      <trkpt lat="44.24795" lon="5.41068">
        <ele>1109</ele>
        <time>2026-05-13T14:07:52.000Z</time>
      </trkpt>
      <trkpt lat="44.24794" lon="5.41071">
        <ele>1109</ele>
        <time>2026-05-13T14:07:53.000Z</time>
      </trkpt>
      <trkpt lat="44.24794" lon="5.41074">
        <ele>1109</ele>
        <time>2026-05-13T14:07:54.000Z</time>
      </trkpt>
      <trkpt lat="44.24794" lon="5.41077">
        <ele>1109</ele>
        <time>2026-05-13T14:07:55.000Z</time>
      </trkpt>
      <trkpt lat="44.24794" lon="5.4108">
        <ele>1109</ele>
        <time>2026-05-13T14:07:56.000Z</time>
      </trkpt>
      <trkpt lat="44.24795" lon="5.41083">
        <ele>1110</ele>
        <time>2026-05-13T14:07:57.000Z</time>
      </trkpt>
      <trkpt lat="44.24795" lon="5.41085">
        <ele>1110</ele>
        <time>2026-05-13T14:07:58.000Z</time>
      </trkpt>
      <trkpt lat="44.24796" lon="5.41087">
        <ele>1110</ele>
        <time>2026-05-13T14:07:59.000Z</time>
      </trkpt>
      <trkpt lat="44.24797" lon="5.4109">
        <ele>1109</ele>
        <time>2026-05-13T14:08:00.000Z</time>
      </trkpt>
      <trkpt lat="44.24798" lon="5.41092">
        <ele>1109</ele>
        <time>2026-05-13T14:08:01.000Z</time>
      </trkpt>
      <trkpt lat="44.24799" lon="5.41095">
        <ele>1109</ele>
        <time>2026-05-13T14:08:02.000Z</time>
      </trkpt>
      <trkpt lat="44.248" lon="5.41097">
        <ele>1109</ele>
        <time>2026-05-13T14:08:03.000Z</time>
      </trkpt>
      <trkpt lat="44.24801" lon="5.411">
        <ele>1110</ele>
        <time>2026-05-13T14:08:04.000Z</time>
      </trkpt>
      <trkpt lat="44.24802" lon="5.41103">
        <ele>1110</ele>
        <time>2026-05-13T14:08:05.000Z</time>
      </trkpt>
      <trkpt lat="44.24803" lon="5.41106">
        <ele>1110</ele>
        <time>2026-05-13T14:08:06.000Z</time>
      </trkpt>
      <trkpt lat="44.24803" lon="5.41108">
        <ele>1110</ele>
        <time>2026-05-13T14:08:07.000Z</time>
      </trkpt>
      <trkpt lat="44.24803" lon="5.41111">
        <ele>1110</ele>
        <time>2026-05-13T14:08:08.000Z</time>
      </trkpt>
      <trkpt lat="44.24803" lon="5.41114">
        <ele>1110</ele>
        <time>2026-05-13T14:08:09.000Z</time>
      </trkpt>
      <trkpt lat="44.24803" lon="5.41119">
        <ele>1110</ele>
        <time>2026-05-13T14:08:10.000Z</time>
      </trkpt>
      <trkpt lat="44.24803" lon="5.41124">
        <ele>1110</ele>
        <time>2026-05-13T14:08:11.000Z</time>
      </trkpt>
      <trkpt lat="44.24802" lon="5.41128">
        <ele>1110</ele>
        <time>2026-05-13T14:08:12.000Z</time>
      </trkpt>
      <trkpt lat="44.24802" lon="5.41133">
        <ele>1109</ele>
        <time>2026-05-13T14:08:13.000Z</time>
      </trkpt>
      <trkpt lat="44.24801" lon="5.41137">
        <ele>1109</ele>
        <time>2026-05-13T14:08:14.000Z</time>
      </trkpt>
      <trkpt lat="44.24801" lon="5.41142">
        <ele>1109</ele>
        <time>2026-05-13T14:08:15.000Z</time>
      </trkpt>
      <trkpt lat="44.24801" lon="5.41148">
        <ele>1108</ele>
        <time>2026-05-13T14:08:16.000Z</time>
      </trkpt>
      <trkpt lat="44.24801" lon="5.41153">
        <ele>1108</ele>
        <time>2026-05-13T14:08:17.000Z</time>
      </trkpt>
      <trkpt lat="44.248" lon="5.41158">
        <ele>1108</ele>
        <time>2026-05-13T14:08:18.000Z</time>
      </trkpt>
      <trkpt lat="44.248" lon="5.41164">
        <ele>1108</ele>
        <time>2026-05-13T14:08:19.000Z</time>
      </trkpt>
      <trkpt lat="44.248" lon="5.4117">
        <ele>1108</ele>
        <time>2026-05-13T14:08:20.000Z</time>
      </trkpt>
      <trkpt lat="44.24801" lon="5.41176">
        <ele>1108</ele>
        <time>2026-05-13T14:08:21.000Z</time>
      </trkpt>
      <trkpt lat="44.24801" lon="5.41182">
        <ele>1107</ele>
        <time>2026-05-13T14:08:22.000Z</time>
      </trkpt>
      <trkpt lat="44.248" lon="5.41188">
        <ele>1107</ele>
        <time>2026-05-13T14:08:23.000Z</time>
      </trkpt>
      <trkpt lat="44.24799" lon="5.41195">
        <ele>1107</ele>
        <time>2026-05-13T14:08:24.000Z</time>
      </trkpt>
      <trkpt lat="44.24797" lon="5.412">
        <ele>1108</ele>
        <time>2026-05-13T14:08:25.000Z</time>
      </trkpt>
      <trkpt lat="44.24795" lon="5.41205">
        <ele>1108</ele>
        <time>2026-05-13T14:08:26.000Z</time>
      </trkpt>
      <trkpt lat="44.24793" lon="5.41209">
        <ele>1108</ele>
        <time>2026-05-13T14:08:27.000Z</time>
      </trkpt>
      <trkpt lat="44.24792" lon="5.41213">
        <ele>1108</ele>
        <time>2026-05-13T14:08:28.000Z</time>
      </trkpt>
      <trkpt lat="44.24791" lon="5.41217">
        <ele>1108</ele>
        <time>2026-05-13T14:08:29.000Z</time>
      </trkpt>
      <trkpt lat="44.2479" lon="5.41221">
        <ele>1108</ele>
        <time>2026-05-13T14:08:30.000Z</time>
      </trkpt>
      <trkpt lat="44.24791" lon="5.41226">
        <ele>1108</ele>
        <time>2026-05-13T14:08:31.000Z</time>
      </trkpt>
      <trkpt lat="44.24792" lon="5.4123">
        <ele>1108</ele>
        <time>2026-05-13T14:08:32.000Z</time>
      </trkpt>
      <trkpt lat="44.24793" lon="5.41234">
        <ele>1108</ele>
        <time>2026-05-13T14:08:33.000Z</time>
      </trkpt>
      <trkpt lat="44.24795" lon="5.41239">
        <ele>1108</ele>
        <time>2026-05-13T14:08:34.000Z</time>
      </trkpt>
      <trkpt lat="44.24796" lon="5.41242">
        <ele>1107</ele>
        <time>2026-05-13T14:08:35.000Z</time>
      </trkpt>
      <trkpt lat="44.24799" lon="5.41247">
        <ele>1107</ele>
        <time>2026-05-13T14:08:36.000Z</time>
      </trkpt>
      <trkpt lat="44.24801" lon="5.41252">
        <ele>1106</ele>
        <time>2026-05-13T14:08:37.000Z</time>
      </trkpt>
      <trkpt lat="44.24801" lon="5.41257">
        <ele>1107</ele>
        <time>2026-05-13T14:08:38.000Z</time>
      </trkpt>
      <trkpt lat="44.248" lon="5.41263">
        <ele>1107</ele>
        <time>2026-05-13T14:08:39.000Z</time>
      </trkpt>
      <trkpt lat="44.24798" lon="5.41267">
        <ele>1107</ele>
        <time>2026-05-13T14:08:40.000Z</time>
      </trkpt>
      <trkpt lat="44.24795" lon="5.41272">
        <ele>1108</ele>
        <time>2026-05-13T14:08:41.000Z</time>
      </trkpt>
      <trkpt lat="44.24792" lon="5.41275">
        <ele>1108</ele>
        <time>2026-05-13T14:08:42.000Z</time>
      </trkpt>
      <trkpt lat="44.24789" lon="5.41279">
        <ele>1108</ele>
        <time>2026-05-13T14:08:43.000Z</time>
      </trkpt>
      <trkpt lat="44.24787" lon="5.41282">
        <ele>1107</ele>
        <time>2026-05-13T14:08:44.000Z</time>
      </trkpt>
      <trkpt lat="44.24784" lon="5.41286">
        <ele>1107</ele>
        <time>2026-05-13T14:08:45.000Z</time>
      </trkpt>
      <trkpt lat="44.24782" lon="5.41291">
        <ele>1107</ele>
        <time>2026-05-13T14:08:46.000Z</time>
      </trkpt>
      <trkpt lat="44.2478" lon="5.41295">
        <ele>1107</ele>
        <time>2026-05-13T14:08:47.000Z</time>
      </trkpt>
      <trkpt lat="44.24777" lon="5.41299">
        <ele>1108</ele>
        <time>2026-05-13T14:08:48.000Z</time>
      </trkpt>
      <trkpt lat="44.24774" lon="5.41304">
        <ele>1107</ele>
        <time>2026-05-13T14:08:49.000Z</time>
      </trkpt>
      <trkpt lat="44.24772" lon="5.41309">
        <ele>1107</ele>
        <time>2026-05-13T14:08:50.000Z</time>
      </trkpt>
      <trkpt lat="44.2477" lon="5.41315">
        <ele>1107</ele>
        <time>2026-05-13T14:08:51.000Z</time>
      </trkpt>
      <trkpt lat="44.24768" lon="5.41319">
        <ele>1107</ele>
        <time>2026-05-13T14:08:52.000Z</time>
      </trkpt>
      <trkpt lat="44.24765" lon="5.41323">
        <ele>1107</ele>
        <time>2026-05-13T14:08:53.000Z</time>
      </trkpt>
      <trkpt lat="44.24762" lon="5.41328">
        <ele>1108</ele>
        <time>2026-05-13T14:08:54.000Z</time>
      </trkpt>
      <trkpt lat="44.2476" lon="5.41333">
        <ele>1108</ele>
        <time>2026-05-13T14:08:55.000Z</time>
      </trkpt>
      <trkpt lat="44.24758" lon="5.41337">
        <ele>1109</ele>
        <time>2026-05-13T14:08:56.000Z</time>
      </trkpt>
      <trkpt lat="44.24756" lon="5.41342">
        <ele>1109</ele>
        <time>2026-05-13T14:08:57.000Z</time>
      </trkpt>
      <trkpt lat="44.24754" lon="5.41347">
        <ele>1109</ele>
        <time>2026-05-13T14:08:58.000Z</time>
      </trkpt>
      <trkpt lat="44.24752" lon="5.41351">
        <ele>1110</ele>
        <time>2026-05-13T14:08:59.000Z</time>
      </trkpt>
      <trkpt lat="44.24751" lon="5.41355">
        <ele>1110</ele>
        <time>2026-05-13T14:09:00.000Z</time>
      </trkpt>
      <trkpt lat="44.2475" lon="5.41358">
        <ele>1110</ele>
        <time>2026-05-13T14:09:01.000Z</time>
      </trkpt>
      <trkpt lat="44.24749" lon="5.41362">
        <ele>1110</ele>
        <time>2026-05-13T14:09:02.000Z</time>
      </trkpt>
      <trkpt lat="44.24748" lon="5.41365">
        <ele>1111</ele>
        <time>2026-05-13T14:09:03.000Z</time>
      </trkpt>
      <trkpt lat="44.24747" lon="5.41367">
        <ele>1111</ele>
        <time>2026-05-13T14:09:04.000Z</time>
      </trkpt>
      <trkpt lat="44.24746" lon="5.41369">
        <ele>1111</ele>
        <time>2026-05-13T14:09:05.000Z</time>
      </trkpt>
      <trkpt lat="44.24746" lon="5.41371">
        <ele>1112</ele>
        <time>2026-05-13T14:09:06.000Z</time>
      </trkpt>
      <trkpt lat="44.24745" lon="5.41374">
        <ele>1112</ele>
        <time>2026-05-13T14:09:07.000Z</time>
      </trkpt>
      <trkpt lat="44.24744" lon="5.41376">
        <ele>1112</ele>
        <time>2026-05-13T14:09:08.000Z</time>
      </trkpt>
      <trkpt lat="44.24744" lon="5.41378">
        <ele>1112</ele>
        <time>2026-05-13T14:09:09.000Z</time>
      </trkpt>
      <trkpt lat="44.24744" lon="5.4138">
        <ele>1113</ele>
        <time>2026-05-13T14:09:10.000Z</time>
      </trkpt>
      <trkpt lat="44.24744" lon="5.41382">
        <ele>1113</ele>
        <time>2026-05-13T14:09:11.000Z</time>
      </trkpt>
      <trkpt lat="44.24743" lon="5.41385">
        <ele>1114</ele>
        <time>2026-05-13T14:09:12.000Z</time>
      </trkpt>
      <trkpt lat="44.24743" lon="5.41387">
        <ele>1114</ele>
        <time>2026-05-13T14:09:13.000Z</time>
      </trkpt>
      <trkpt lat="44.24743" lon="5.41389">
        <ele>1114</ele>
        <time>2026-05-13T14:09:14.000Z</time>
      </trkpt>
      <trkpt lat="44.24743" lon="5.4139">
        <ele>1114</ele>
        <time>2026-05-13T14:09:15.000Z</time>
      </trkpt>
      <trkpt lat="44.24744" lon="5.41392">
        <ele>1115</ele>
        <time>2026-05-13T14:09:16.000Z</time>
      </trkpt>
      <trkpt lat="44.24744" lon="5.41394">
        <ele>1115</ele>
        <time>2026-05-13T14:09:17.000Z</time>
      </trkpt>
      <trkpt lat="44.24744" lon="5.41397">
        <ele>1115</ele>
        <time>2026-05-13T14:09:18.000Z</time>
      </trkpt>
      <trkpt lat="44.24743" lon="5.41399">
        <ele>1115</ele>
        <time>2026-05-13T14:09:19.000Z</time>
      </trkpt>
      <trkpt lat="44.24743" lon="5.41401">
        <ele>1116</ele>
        <time>2026-05-13T14:09:20.000Z</time>
      </trkpt>
      <trkpt lat="44.24742" lon="5.41403">
        <ele>1116</ele>
        <time>2026-05-13T14:09:21.000Z</time>
      </trkpt>
      <trkpt lat="44.24742" lon="5.41404">
        <ele>1116</ele>
        <time>2026-05-13T14:09:22.000Z</time>
      </trkpt>
      <trkpt lat="44.24741" lon="5.41406">
        <ele>1116</ele>
        <time>2026-05-13T14:09:23.000Z</time>
      </trkpt>
      <trkpt lat="44.24741" lon="5.41407">
        <ele>1116</ele>
        <time>2026-05-13T14:09:24.000Z</time>
      </trkpt>
      <trkpt lat="44.2474" lon="5.41409">
        <ele>1116</ele>
        <time>2026-05-13T14:09:25.000Z</time>
      </trkpt>
      <trkpt lat="44.24739" lon="5.4141">
        <ele>1116</ele>
        <time>2026-05-13T14:09:26.000Z</time>
      </trkpt>
      <trkpt lat="44.24738" lon="5.4141">
        <ele>1116</ele>
        <time>2026-05-13T14:09:27.000Z</time>
      </trkpt>
      <trkpt lat="44.24736" lon="5.41409">
        <ele>1117</ele>
        <time>2026-05-13T14:09:28.000Z</time>
      </trkpt>
      <trkpt lat="44.24735" lon="5.41409">
        <ele>1117</ele>
        <time>2026-05-13T14:09:29.000Z</time>
      </trkpt>
      <trkpt lat="44.24734" lon="5.41408">
        <ele>1117</ele>
        <time>2026-05-13T14:09:30.000Z</time>
      </trkpt>
      <trkpt lat="44.24733" lon="5.41407">
        <ele>1117</ele>
        <time>2026-05-13T14:09:31.000Z</time>
      </trkpt>
      <trkpt lat="44.24732" lon="5.41405">
        <ele>1117</ele>
        <time>2026-05-13T14:09:32.000Z</time>
      </trkpt>
      <trkpt lat="44.24731" lon="5.41403">
        <ele>1117</ele>
        <time>2026-05-13T14:09:33.000Z</time>
      </trkpt>
      <trkpt lat="44.24731" lon="5.41403">
        <ele>1117</ele>
        <time>2026-05-13T14:09:34.000Z</time>
      </trkpt>
      <trkpt lat="44.24731" lon="5.41401">
        <ele>1117</ele>
        <time>2026-05-13T14:09:35.000Z</time>
      </trkpt>
      <trkpt lat="44.24731" lon="5.41399">
        <ele>1117</ele>
        <time>2026-05-13T14:09:36.000Z</time>
      </trkpt>
      <trkpt lat="44.2473" lon="5.41397">
        <ele>1118</ele>
        <time>2026-05-13T14:09:37.000Z</time>
      </trkpt>
      <trkpt lat="44.2473" lon="5.41395">
        <ele>1118</ele>
        <time>2026-05-13T14:09:38.000Z</time>
      </trkpt>
      <trkpt lat="44.2473" lon="5.41393">
        <ele>1118</ele>
        <time>2026-05-13T14:09:39.000Z</time>
      </trkpt>
      <trkpt lat="44.2473" lon="5.4139">
        <ele>1118</ele>
        <time>2026-05-13T14:09:40.000Z</time>
      </trkpt>
      <trkpt lat="44.2473" lon="5.41388">
        <ele>1118</ele>
        <time>2026-05-13T14:09:41.000Z</time>
      </trkpt>
      <trkpt lat="44.2473" lon="5.41387">
        <ele>1118</ele>
        <time>2026-05-13T14:09:42.000Z</time>
      </trkpt>
      <trkpt lat="44.24729" lon="5.41385">
        <ele>1118</ele>
        <time>2026-05-13T14:09:43.000Z</time>
      </trkpt>
      <trkpt lat="44.24729" lon="5.41383">
        <ele>1119</ele>
        <time>2026-05-13T14:09:44.000Z</time>
      </trkpt>
      <trkpt lat="44.24729" lon="5.41381">
        <ele>1119</ele>
        <time>2026-05-13T14:09:45.000Z</time>
      </trkpt>
      <trkpt lat="44.2473" lon="5.41378">
        <ele>1119</ele>
        <time>2026-05-13T14:09:46.000Z</time>
      </trkpt>
      <trkpt lat="44.2473" lon="5.41377">
        <ele>1119</ele>
        <time>2026-05-13T14:09:47.000Z</time>
      </trkpt>
      <trkpt lat="44.2473" lon="5.41375">
        <ele>1120</ele>
        <time>2026-05-13T14:09:48.000Z</time>
      </trkpt>
      <trkpt lat="44.2473" lon="5.41373">
        <ele>1120</ele>
        <time>2026-05-13T14:09:49.000Z</time>
      </trkpt>
      <trkpt lat="44.2473" lon="5.41371">
        <ele>1120</ele>
        <time>2026-05-13T14:09:50.000Z</time>
      </trkpt>
      <trkpt lat="44.24729" lon="5.41369">
        <ele>1120</ele>
        <time>2026-05-13T14:09:51.000Z</time>
      </trkpt>
      <trkpt lat="44.24728" lon="5.41367">
        <ele>1120</ele>
        <time>2026-05-13T14:09:52.000Z</time>
      </trkpt>
      <trkpt lat="44.24728" lon="5.41365">
        <ele>1120</ele>
        <time>2026-05-13T14:09:53.000Z</time>
      </trkpt>
      <trkpt lat="44.24728" lon="5.41364">
        <ele>1120</ele>
        <time>2026-05-13T14:09:54.000Z</time>
      </trkpt>
      <trkpt lat="44.24727" lon="5.41362">
        <ele>1120</ele>
        <time>2026-05-13T14:09:55.000Z</time>
      </trkpt>
      <trkpt lat="44.24727" lon="5.41361">
        <ele>1120</ele>
        <time>2026-05-13T14:09:56.000Z</time>
      </trkpt>
      <trkpt lat="44.24727" lon="5.41359">
        <ele>1120</ele>
        <time>2026-05-13T14:09:57.000Z</time>
      </trkpt>
      <trkpt lat="44.24726" lon="5.41357">
        <ele>1119</ele>
        <time>2026-05-13T14:09:58.000Z</time>
      </trkpt>
      <trkpt lat="44.24726" lon="5.41356">
        <ele>1119</ele>
        <time>2026-05-13T14:09:59.000Z</time>
      </trkpt>
      <trkpt lat="44.24726" lon="5.41354">
        <ele>1120</ele>
        <time>2026-05-13T14:10:00.000Z</time>
      </trkpt>
      <trkpt lat="44.24726" lon="5.41352">
        <ele>1119</ele>
        <time>2026-05-13T14:10:01.000Z</time>
      </trkpt>
      <trkpt lat="44.24726" lon="5.4135">
        <ele>1120</ele>
        <time>2026-05-13T14:10:02.000Z</time>
      </trkpt>
      <trkpt lat="44.24725" lon="5.41348">
        <ele>1120</ele>
        <time>2026-05-13T14:10:03.000Z</time>
      </trkpt>
      <trkpt lat="44.24725" lon="5.41346">
        <ele>1120</ele>
        <time>2026-05-13T14:10:04.000Z</time>
      </trkpt>
      <trkpt lat="44.24726" lon="5.41344">
        <ele>1120</ele>
        <time>2026-05-13T14:10:05.000Z</time>
      </trkpt>
      <trkpt lat="44.24725" lon="5.41343">
        <ele>1120</ele>
        <time>2026-05-13T14:10:06.000Z</time>
      </trkpt>
      <trkpt lat="44.24725" lon="5.41341">
        <ele>1120</ele>
        <time>2026-05-13T14:10:07.000Z</time>
      </trkpt>
      <trkpt lat="44.24724" lon="5.41339">
        <ele>1120</ele>
        <time>2026-05-13T14:10:08.000Z</time>
      </trkpt>
      <trkpt lat="44.24724" lon="5.41338">
        <ele>1120</ele>
        <time>2026-05-13T14:10:09.000Z</time>
      </trkpt>
      <trkpt lat="44.24723" lon="5.41337">
        <ele>1121</ele>
        <time>2026-05-13T14:10:10.000Z</time>
      </trkpt>
      <trkpt lat="44.24722" lon="5.41335">
        <ele>1121</ele>
        <time>2026-05-13T14:10:11.000Z</time>
      </trkpt>
      <trkpt lat="44.24721" lon="5.41334">
        <ele>1121</ele>
        <time>2026-05-13T14:10:12.000Z</time>
      </trkpt>
      <trkpt lat="44.2472" lon="5.41333">
        <ele>1121</ele>
        <time>2026-05-13T14:10:13.000Z</time>
      </trkpt>
      <trkpt lat="44.24718" lon="5.41333">
        <ele>1121</ele>
        <time>2026-05-13T14:10:14.000Z</time>
      </trkpt>
      <trkpt lat="44.24717" lon="5.41332">
        <ele>1121</ele>
        <time>2026-05-13T14:10:15.000Z</time>
      </trkpt>
      <trkpt lat="44.24715" lon="5.41333">
        <ele>1121</ele>
        <time>2026-05-13T14:10:16.000Z</time>
      </trkpt>
      <trkpt lat="44.24714" lon="5.41333">
        <ele>1121</ele>
        <time>2026-05-13T14:10:17.000Z</time>
      </trkpt>
      <trkpt lat="44.24712" lon="5.41333">
        <ele>1122</ele>
        <time>2026-05-13T14:10:18.000Z</time>
      </trkpt>
      <trkpt lat="44.2471" lon="5.41334">
        <ele>1122</ele>
        <time>2026-05-13T14:10:19.000Z</time>
      </trkpt>
      <trkpt lat="44.24709" lon="5.41334">
        <ele>1122</ele>
        <time>2026-05-13T14:10:20.000Z</time>
      </trkpt>
      <trkpt lat="44.24707" lon="5.41335">
        <ele>1122</ele>
        <time>2026-05-13T14:10:21.000Z</time>
      </trkpt>
      <trkpt lat="44.24706" lon="5.41334">
        <ele>1122</ele>
        <time>2026-05-13T14:10:22.000Z</time>
      </trkpt>
      <trkpt lat="44.24704" lon="5.41334">
        <ele>1123</ele>
        <time>2026-05-13T14:10:23.000Z</time>
      </trkpt>
      <trkpt lat="44.24703" lon="5.41332">
        <ele>1122</ele>
        <time>2026-05-13T14:10:24.000Z</time>
      </trkpt>
      <trkpt lat="44.24702" lon="5.41331">
        <ele>1122</ele>
        <time>2026-05-13T14:10:25.000Z</time>
      </trkpt>
      <trkpt lat="44.24701" lon="5.41329">
        <ele>1122</ele>
        <time>2026-05-13T14:10:26.000Z</time>
      </trkpt>
      <trkpt lat="44.247" lon="5.41327">
        <ele>1121</ele>
        <time>2026-05-13T14:10:27.000Z</time>
      </trkpt>
      <trkpt lat="44.24699" lon="5.41325">
        <ele>1122</ele>
        <time>2026-05-13T14:10:28.000Z</time>
      </trkpt>
      <trkpt lat="44.24699" lon="5.41323">
        <ele>1123</ele>
        <time>2026-05-13T14:10:29.000Z</time>
      </trkpt>
      <trkpt lat="44.24699" lon="5.4132">
        <ele>1123</ele>
        <time>2026-05-13T14:10:30.000Z</time>
      </trkpt>
      <trkpt lat="44.247" lon="5.41318">
        <ele>1123</ele>
        <time>2026-05-13T14:10:31.000Z</time>
      </trkpt>
      <trkpt lat="44.247" lon="5.41316">
        <ele>1123</ele>
        <time>2026-05-13T14:10:32.000Z</time>
      </trkpt>
      <trkpt lat="44.24701" lon="5.41314">
        <ele>1124</ele>
        <time>2026-05-13T14:10:33.000Z</time>
      </trkpt>
      <trkpt lat="44.24701" lon="5.41312">
        <ele>1124</ele>
        <time>2026-05-13T14:10:34.000Z</time>
      </trkpt>
      <trkpt lat="44.24701" lon="5.4131">
        <ele>1124</ele>
        <time>2026-05-13T14:10:35.000Z</time>
      </trkpt>
      <trkpt lat="44.24701" lon="5.41309">
        <ele>1124</ele>
        <time>2026-05-13T14:10:36.000Z</time>
      </trkpt>
      <trkpt lat="44.247" lon="5.41307">
        <ele>1124</ele>
        <time>2026-05-13T14:10:37.000Z</time>
      </trkpt>
      <trkpt lat="44.247" lon="5.41305">
        <ele>1125</ele>
        <time>2026-05-13T14:10:38.000Z</time>
      </trkpt>
      <trkpt lat="44.24699" lon="5.41303">
        <ele>1125</ele>
        <time>2026-05-13T14:10:39.000Z</time>
      </trkpt>
      <trkpt lat="44.24699" lon="5.41301">
        <ele>1126</ele>
        <time>2026-05-13T14:10:40.000Z</time>
      </trkpt>
      <trkpt lat="44.24698" lon="5.41299">
        <ele>1125</ele>
        <time>2026-05-13T14:10:41.000Z</time>
      </trkpt>
      <trkpt lat="44.24697" lon="5.41297">
        <ele>1125</ele>
        <time>2026-05-13T14:10:42.000Z</time>
      </trkpt>
      <trkpt lat="44.24696" lon="5.41295">
        <ele>1125</ele>
        <time>2026-05-13T14:10:43.000Z</time>
      </trkpt>
      <trkpt lat="44.24693" lon="5.41295">
        <ele>1125</ele>
        <time>2026-05-13T14:10:44.000Z</time>
      </trkpt>
      <trkpt lat="44.24692" lon="5.41294">
        <ele>1125</ele>
        <time>2026-05-13T14:10:45.000Z</time>
      </trkpt>
      <trkpt lat="44.24691" lon="5.41294">
        <ele>1125</ele>
        <time>2026-05-13T14:10:46.000Z</time>
      </trkpt>
      <trkpt lat="44.2469" lon="5.41293">
        <ele>1125</ele>
        <time>2026-05-13T14:10:47.000Z</time>
      </trkpt>
      <trkpt lat="44.24688" lon="5.41293">
        <ele>1125</ele>
        <time>2026-05-13T14:10:48.000Z</time>
      </trkpt>
      <trkpt lat="44.24686" lon="5.41293">
        <ele>1125</ele>
        <time>2026-05-13T14:10:49.000Z</time>
      </trkpt>
      <trkpt lat="44.24685" lon="5.41293">
        <ele>1125</ele>
        <time>2026-05-13T14:10:50.000Z</time>
      </trkpt>
      <trkpt lat="44.24684" lon="5.41293">
        <ele>1125</ele>
        <time>2026-05-13T14:10:51.000Z</time>
      </trkpt>
      <trkpt lat="44.24682" lon="5.41294">
        <ele>1126</ele>
        <time>2026-05-13T14:10:52.000Z</time>
      </trkpt>
      <trkpt lat="44.24681" lon="5.41294">
        <ele>1125</ele>
        <time>2026-05-13T14:10:53.000Z</time>
      </trkpt>
      <trkpt lat="44.2468" lon="5.41294">
        <ele>1125</ele>
        <time>2026-05-13T14:10:54.000Z</time>
      </trkpt>
      <trkpt lat="44.24679" lon="5.41294">
        <ele>1125</ele>
        <time>2026-05-13T14:10:55.000Z</time>
      </trkpt>
      <trkpt lat="44.24677" lon="5.41293">
        <ele>1125</ele>
        <time>2026-05-13T14:10:56.000Z</time>
      </trkpt>
      <trkpt lat="44.24676" lon="5.41293">
        <ele>1126</ele>
        <time>2026-05-13T14:10:57.000Z</time>
      </trkpt>
      <trkpt lat="44.24675" lon="5.41294">
        <ele>1126</ele>
        <time>2026-05-13T14:10:58.000Z</time>
      </trkpt>
      <trkpt lat="44.24674" lon="5.41293">
        <ele>1126</ele>
        <time>2026-05-13T14:10:59.000Z</time>
      </trkpt>
      <trkpt lat="44.24672" lon="5.41293">
        <ele>1126</ele>
        <time>2026-05-13T14:11:00.000Z</time>
      </trkpt>
      <trkpt lat="44.24671" lon="5.41293">
        <ele>1126</ele>
        <time>2026-05-13T14:11:01.000Z</time>
      </trkpt>
      <trkpt lat="44.24669" lon="5.41292">
        <ele>1127</ele>
        <time>2026-05-13T14:11:02.000Z</time>
      </trkpt>
      <trkpt lat="44.24668" lon="5.41291">
        <ele>1127</ele>
        <time>2026-05-13T14:11:03.000Z</time>
      </trkpt>
      <trkpt lat="44.24667" lon="5.4129">
        <ele>1128</ele>
        <time>2026-05-13T14:11:04.000Z</time>
      </trkpt>
      <trkpt lat="44.24665" lon="5.41289">
        <ele>1128</ele>
        <time>2026-05-13T14:11:05.000Z</time>
      </trkpt>
      <trkpt lat="44.24664" lon="5.41288">
        <ele>1128</ele>
        <time>2026-05-13T14:11:06.000Z</time>
      </trkpt>
      <trkpt lat="44.24663" lon="5.41287">
        <ele>1128</ele>
        <time>2026-05-13T14:11:07.000Z</time>
      </trkpt>
      <trkpt lat="44.24661" lon="5.41286">
        <ele>1128</ele>
        <time>2026-05-13T14:11:08.000Z</time>
      </trkpt>
      <trkpt lat="44.2466" lon="5.41286">
        <ele>1129</ele>
        <time>2026-05-13T14:11:09.000Z</time>
      </trkpt>
      <trkpt lat="44.24659" lon="5.41286">
        <ele>1129</ele>
        <time>2026-05-13T14:11:10.000Z</time>
      </trkpt>
      <trkpt lat="44.24658" lon="5.41286">
        <ele>1129</ele>
        <time>2026-05-13T14:11:11.000Z</time>
      </trkpt>
      <trkpt lat="44.24656" lon="5.41286">
        <ele>1129</ele>
        <time>2026-05-13T14:11:12.000Z</time>
      </trkpt>
      <trkpt lat="44.24654" lon="5.41286">
        <ele>1129</ele>
        <time>2026-05-13T14:11:13.000Z</time>
      </trkpt>
      <trkpt lat="44.24653" lon="5.41285">
        <ele>1128</ele>
        <time>2026-05-13T14:11:14.000Z</time>
      </trkpt>
      <trkpt lat="44.24652" lon="5.41285">
        <ele>1128</ele>
        <time>2026-05-13T14:11:15.000Z</time>
      </trkpt>
      <trkpt lat="44.24651" lon="5.41285">
        <ele>1128</ele>
        <time>2026-05-13T14:11:16.000Z</time>
      </trkpt>
      <trkpt lat="44.2465" lon="5.41285">
        <ele>1128</ele>
        <time>2026-05-13T14:11:17.000Z</time>
      </trkpt>
      <trkpt lat="44.24649" lon="5.41286">
        <ele>1128</ele>
        <time>2026-05-13T14:11:18.000Z</time>
      </trkpt>
      <trkpt lat="44.24647" lon="5.41287">
        <ele>1128</ele>
        <time>2026-05-13T14:11:19.000Z</time>
      </trkpt>
      <trkpt lat="44.24647" lon="5.41289">
        <ele>1129</ele>
        <time>2026-05-13T14:11:20.000Z</time>
      </trkpt>
      <trkpt lat="44.24646" lon="5.4129">
        <ele>1129</ele>
        <time>2026-05-13T14:11:21.000Z</time>
      </trkpt>
      <trkpt lat="44.24645" lon="5.41291">
        <ele>1130</ele>
        <time>2026-05-13T14:11:22.000Z</time>
      </trkpt>
      <trkpt lat="44.24644" lon="5.41294">
        <ele>1130</ele>
        <time>2026-05-13T14:11:23.000Z</time>
      </trkpt>
      <trkpt lat="44.24643" lon="5.41296">
        <ele>1130</ele>
        <time>2026-05-13T14:11:24.000Z</time>
      </trkpt>
      <trkpt lat="44.24642" lon="5.41298">
        <ele>1130</ele>
        <time>2026-05-13T14:11:25.000Z</time>
      </trkpt>
      <trkpt lat="44.24641" lon="5.413">
        <ele>1130</ele>
        <time>2026-05-13T14:11:26.000Z</time>
      </trkpt>
      <trkpt lat="44.2464" lon="5.41301">
        <ele>1131</ele>
        <time>2026-05-13T14:11:27.000Z</time>
      </trkpt>
      <trkpt lat="44.24639" lon="5.41303">
        <ele>1131</ele>
        <time>2026-05-13T14:11:28.000Z</time>
      </trkpt>
      <trkpt lat="44.24639" lon="5.41305">
        <ele>1131</ele>
        <time>2026-05-13T14:11:29.000Z</time>
      </trkpt>
      <trkpt lat="44.24639" lon="5.41308">
        <ele>1131</ele>
        <time>2026-05-13T14:11:30.000Z</time>
      </trkpt>
      <trkpt lat="44.24638" lon="5.41311">
        <ele>1132</ele>
        <time>2026-05-13T14:11:31.000Z</time>
      </trkpt>
      <trkpt lat="44.24637" lon="5.41312">
        <ele>1132</ele>
        <time>2026-05-13T14:11:32.000Z</time>
      </trkpt>
      <trkpt lat="44.24636" lon="5.41314">
        <ele>1132</ele>
        <time>2026-05-13T14:11:33.000Z</time>
      </trkpt>
      <trkpt lat="44.24635" lon="5.41316">
        <ele>1132</ele>
        <time>2026-05-13T14:11:34.000Z</time>
      </trkpt>
      <trkpt lat="44.24634" lon="5.41318">
        <ele>1133</ele>
        <time>2026-05-13T14:11:35.000Z</time>
      </trkpt>
      <trkpt lat="44.24633" lon="5.41319">
        <ele>1133</ele>
        <time>2026-05-13T14:11:36.000Z</time>
      </trkpt>
      <trkpt lat="44.24632" lon="5.41321">
        <ele>1133</ele>
        <time>2026-05-13T14:11:37.000Z</time>
      </trkpt>
      <trkpt lat="44.24631" lon="5.41323">
        <ele>1133</ele>
        <time>2026-05-13T14:11:38.000Z</time>
      </trkpt>
      <trkpt lat="44.24629" lon="5.41325">
        <ele>1133</ele>
        <time>2026-05-13T14:11:39.000Z</time>
      </trkpt>
      <trkpt lat="44.24628" lon="5.41326">
        <ele>1133</ele>
        <time>2026-05-13T14:11:40.000Z</time>
      </trkpt>
      <trkpt lat="44.24627" lon="5.41328">
        <ele>1133</ele>
        <time>2026-05-13T14:11:41.000Z</time>
      </trkpt>
      <trkpt lat="44.24625" lon="5.4133">
        <ele>1134</ele>
        <time>2026-05-13T14:11:42.000Z</time>
      </trkpt>
      <trkpt lat="44.24624" lon="5.41331">
        <ele>1134</ele>
        <time>2026-05-13T14:11:43.000Z</time>
      </trkpt>
      <trkpt lat="44.24623" lon="5.41332">
        <ele>1134</ele>
        <time>2026-05-13T14:11:44.000Z</time>
      </trkpt>
      <trkpt lat="44.24622" lon="5.41334">
        <ele>1135</ele>
        <time>2026-05-13T14:11:45.000Z</time>
      </trkpt>
      <trkpt lat="44.2462" lon="5.41335">
        <ele>1135</ele>
        <time>2026-05-13T14:11:46.000Z</time>
      </trkpt>
      <trkpt lat="44.24619" lon="5.41336">
        <ele>1135</ele>
        <time>2026-05-13T14:11:47.000Z</time>
      </trkpt>
      <trkpt lat="44.24618" lon="5.41337">
        <ele>1135</ele>
        <time>2026-05-13T14:11:48.000Z</time>
      </trkpt>
      <trkpt lat="44.24617" lon="5.41338">
        <ele>1136</ele>
        <time>2026-05-13T14:11:49.000Z</time>
      </trkpt>
      <trkpt lat="44.24615" lon="5.41339">
        <ele>1136</ele>
        <time>2026-05-13T14:11:50.000Z</time>
      </trkpt>
      <trkpt lat="44.24614" lon="5.4134">
        <ele>1136</ele>
        <time>2026-05-13T14:11:51.000Z</time>
      </trkpt>
      <trkpt lat="44.24613" lon="5.41341">
        <ele>1136</ele>
        <time>2026-05-13T14:11:52.000Z</time>
      </trkpt>
      <trkpt lat="44.24611" lon="5.41342">
        <ele>1136</ele>
        <time>2026-05-13T14:11:53.000Z</time>
      </trkpt>
      <trkpt lat="44.2461" lon="5.41344">
        <ele>1136</ele>
        <time>2026-05-13T14:11:54.000Z</time>
      </trkpt>
      <trkpt lat="44.24608" lon="5.41345">
        <ele>1136</ele>
        <time>2026-05-13T14:11:55.000Z</time>
      </trkpt>
      <trkpt lat="44.24607" lon="5.41346">
        <ele>1136</ele>
        <time>2026-05-13T14:11:56.000Z</time>
      </trkpt>
      <trkpt lat="44.24606" lon="5.41347">
        <ele>1136</ele>
        <time>2026-05-13T14:11:57.000Z</time>
      </trkpt>
      <trkpt lat="44.24604" lon="5.41347">
        <ele>1136</ele>
        <time>2026-05-13T14:11:58.000Z</time>
      </trkpt>
      <trkpt lat="44.24603" lon="5.41348">
        <ele>1136</ele>
        <time>2026-05-13T14:11:59.000Z</time>
      </trkpt>
      <trkpt lat="44.24601" lon="5.41348">
        <ele>1136</ele>
        <time>2026-05-13T14:12:00.000Z</time>
      </trkpt>
      <trkpt lat="44.246" lon="5.41348">
        <ele>1136</ele>
        <time>2026-05-13T14:12:01.000Z</time>
      </trkpt>
      <trkpt lat="44.24598" lon="5.41349">
        <ele>1135</ele>
        <time>2026-05-13T14:12:02.000Z</time>
      </trkpt>
      <trkpt lat="44.24596" lon="5.41349">
        <ele>1136</ele>
        <time>2026-05-13T14:12:03.000Z</time>
      </trkpt>
      <trkpt lat="44.24595" lon="5.4135">
        <ele>1135</ele>
        <time>2026-05-13T14:12:04.000Z</time>
      </trkpt>
      <trkpt lat="44.24593" lon="5.41351">
        <ele>1135</ele>
        <time>2026-05-13T14:12:05.000Z</time>
      </trkpt>
      <trkpt lat="44.24592" lon="5.41353">
        <ele>1136</ele>
        <time>2026-05-13T14:12:06.000Z</time>
      </trkpt>
      <trkpt lat="44.2459" lon="5.41354">
        <ele>1136</ele>
        <time>2026-05-13T14:12:07.000Z</time>
      </trkpt>
      <trkpt lat="44.24588" lon="5.41355">
        <ele>1136</ele>
        <time>2026-05-13T14:12:08.000Z</time>
      </trkpt>
      <trkpt lat="44.24587" lon="5.41356">
        <ele>1136</ele>
        <time>2026-05-13T14:12:09.000Z</time>
      </trkpt>
      <trkpt lat="44.24586" lon="5.41357">
        <ele>1136</ele>
        <time>2026-05-13T14:12:10.000Z</time>
      </trkpt>
      <trkpt lat="44.24584" lon="5.41358">
        <ele>1137</ele>
        <time>2026-05-13T14:12:11.000Z</time>
      </trkpt>
      <trkpt lat="44.24583" lon="5.41359">
        <ele>1136</ele>
        <time>2026-05-13T14:12:12.000Z</time>
      </trkpt>
      <trkpt lat="44.24582" lon="5.4136">
        <ele>1136</ele>
        <time>2026-05-13T14:12:13.000Z</time>
      </trkpt>
      <trkpt lat="44.2458" lon="5.41361">
        <ele>1137</ele>
        <time>2026-05-13T14:12:14.000Z</time>
      </trkpt>
      <trkpt lat="44.24578" lon="5.41362">
        <ele>1136</ele>
        <time>2026-05-13T14:12:15.000Z</time>
      </trkpt>
      <trkpt lat="44.24577" lon="5.41364">
        <ele>1136</ele>
        <time>2026-05-13T14:12:16.000Z</time>
      </trkpt>
      <trkpt lat="44.24576" lon="5.41365">
        <ele>1136</ele>
        <time>2026-05-13T14:12:17.000Z</time>
      </trkpt>
      <trkpt lat="44.24575" lon="5.41366">
        <ele>1136</ele>
        <time>2026-05-13T14:12:18.000Z</time>
      </trkpt>
      <trkpt lat="44.24574" lon="5.41368">
        <ele>1137</ele>
        <time>2026-05-13T14:12:19.000Z</time>
      </trkpt>
      <trkpt lat="44.24574" lon="5.4137">
        <ele>1137</ele>
        <time>2026-05-13T14:12:20.000Z</time>
      </trkpt>
      <trkpt lat="44.24575" lon="5.41372">
        <ele>1137</ele>
        <time>2026-05-13T14:12:21.000Z</time>
      </trkpt>
      <trkpt lat="44.24576" lon="5.41373">
        <ele>1136</ele>
        <time>2026-05-13T14:12:22.000Z</time>
      </trkpt>
      <trkpt lat="44.24578" lon="5.41373">
        <ele>1136</ele>
        <time>2026-05-13T14:12:23.000Z</time>
      </trkpt>
      <trkpt lat="44.24579" lon="5.41374">
        <ele>1137</ele>
        <time>2026-05-13T14:12:24.000Z</time>
      </trkpt>
      <trkpt lat="44.24581" lon="5.41375">
        <ele>1138</ele>
        <time>2026-05-13T14:12:25.000Z</time>
      </trkpt>
      <trkpt lat="44.24582" lon="5.41375">
        <ele>1138</ele>
        <time>2026-05-13T14:12:26.000Z</time>
      </trkpt>
      <trkpt lat="44.24583" lon="5.41375">
        <ele>1138</ele>
        <time>2026-05-13T14:12:27.000Z</time>
      </trkpt>
      <trkpt lat="44.24585" lon="5.41374">
        <ele>1138</ele>
        <time>2026-05-13T14:12:28.000Z</time>
      </trkpt>
      <trkpt lat="44.24586" lon="5.41373">
        <ele>1138</ele>
        <time>2026-05-13T14:12:29.000Z</time>
      </trkpt>
      <trkpt lat="44.24588" lon="5.41373">
        <ele>1139</ele>
        <time>2026-05-13T14:12:30.000Z</time>
      </trkpt>
      <trkpt lat="44.2459" lon="5.41372">
        <ele>1138</ele>
        <time>2026-05-13T14:12:31.000Z</time>
      </trkpt>
      <trkpt lat="44.24593" lon="5.41372">
        <ele>1138</ele>
        <time>2026-05-13T14:12:32.000Z</time>
      </trkpt>
      <trkpt lat="44.24594" lon="5.41372">
        <ele>1138</ele>
        <time>2026-05-13T14:12:33.000Z</time>
      </trkpt>
      <trkpt lat="44.24596" lon="5.41373">
        <ele>1137</ele>
        <time>2026-05-13T14:12:34.000Z</time>
      </trkpt>
      <trkpt lat="44.24598" lon="5.41374">
        <ele>1137</ele>
        <time>2026-05-13T14:12:35.000Z</time>
      </trkpt>
      <trkpt lat="44.24599" lon="5.41376">
        <ele>1137</ele>
        <time>2026-05-13T14:12:36.000Z</time>
      </trkpt>
      <trkpt lat="44.246" lon="5.41378">
        <ele>1137</ele>
        <time>2026-05-13T14:12:37.000Z</time>
      </trkpt>
      <trkpt lat="44.24601" lon="5.4138">
        <ele>1138</ele>
        <time>2026-05-13T14:12:38.000Z</time>
      </trkpt>
      <trkpt lat="44.24602" lon="5.41382">
        <ele>1139</ele>
        <time>2026-05-13T14:12:39.000Z</time>
      </trkpt>
      <trkpt lat="44.24603" lon="5.41384">
        <ele>1139</ele>
        <time>2026-05-13T14:12:40.000Z</time>
      </trkpt>
      <trkpt lat="44.24604" lon="5.41386">
        <ele>1139</ele>
        <time>2026-05-13T14:12:41.000Z</time>
      </trkpt>
      <trkpt lat="44.24605" lon="5.41388">
        <ele>1139</ele>
        <time>2026-05-13T14:12:42.000Z</time>
      </trkpt>
      <trkpt lat="44.24605" lon="5.41391">
        <ele>1140</ele>
        <time>2026-05-13T14:12:43.000Z</time>
      </trkpt>
      <trkpt lat="44.24604" lon="5.41394">
        <ele>1140</ele>
        <time>2026-05-13T14:12:44.000Z</time>
      </trkpt>
      <trkpt lat="44.24604" lon="5.41396">
        <ele>1141</ele>
        <time>2026-05-13T14:12:45.000Z</time>
      </trkpt>
      <trkpt lat="44.24604" lon="5.41398">
        <ele>1141</ele>
        <time>2026-05-13T14:12:46.000Z</time>
      </trkpt>
      <trkpt lat="44.24603" lon="5.41401">
        <ele>1141</ele>
        <time>2026-05-13T14:12:47.000Z</time>
      </trkpt>
      <trkpt lat="44.24602" lon="5.41402">
        <ele>1142</ele>
        <time>2026-05-13T14:12:48.000Z</time>
      </trkpt>
      <trkpt lat="44.246" lon="5.41404">
        <ele>1142</ele>
        <time>2026-05-13T14:12:49.000Z</time>
      </trkpt>
      <trkpt lat="44.24599" lon="5.41405">
        <ele>1142</ele>
        <time>2026-05-13T14:12:50.000Z</time>
      </trkpt>
      <trkpt lat="44.24597" lon="5.41405">
        <ele>1142</ele>
        <time>2026-05-13T14:12:51.000Z</time>
      </trkpt>
      <trkpt lat="44.24595" lon="5.41406">
        <ele>1142</ele>
        <time>2026-05-13T14:12:52.000Z</time>
      </trkpt>
      <trkpt lat="44.24594" lon="5.41406">
        <ele>1142</ele>
        <time>2026-05-13T14:12:53.000Z</time>
      </trkpt>
      <trkpt lat="44.24592" lon="5.41405">
        <ele>1142</ele>
        <time>2026-05-13T14:12:54.000Z</time>
      </trkpt>
      <trkpt lat="44.2459" lon="5.41404">
        <ele>1142</ele>
        <time>2026-05-13T14:12:55.000Z</time>
      </trkpt>
      <trkpt lat="44.24589" lon="5.41402">
        <ele>1143</ele>
        <time>2026-05-13T14:12:56.000Z</time>
      </trkpt>
      <trkpt lat="44.24587" lon="5.414">
        <ele>1143</ele>
        <time>2026-05-13T14:12:57.000Z</time>
      </trkpt>
      <trkpt lat="44.24586" lon="5.41399">
        <ele>1143</ele>
        <time>2026-05-13T14:12:58.000Z</time>
      </trkpt>
      <trkpt lat="44.24584" lon="5.41398">
        <ele>1143</ele>
        <time>2026-05-13T14:12:59.000Z</time>
      </trkpt>
      <trkpt lat="44.24583" lon="5.41396">
        <ele>1143</ele>
        <time>2026-05-13T14:13:00.000Z</time>
      </trkpt>
      <trkpt lat="44.24581" lon="5.41395">
        <ele>1143</ele>
        <time>2026-05-13T14:13:01.000Z</time>
      </trkpt>
      <trkpt lat="44.24579" lon="5.41395">
        <ele>1143</ele>
        <time>2026-05-13T14:13:02.000Z</time>
      </trkpt>
      <trkpt lat="44.24577" lon="5.41394">
        <ele>1143</ele>
        <time>2026-05-13T14:13:03.000Z</time>
      </trkpt>
      <trkpt lat="44.24575" lon="5.41394">
        <ele>1144</ele>
        <time>2026-05-13T14:13:04.000Z</time>
      </trkpt>
      <trkpt lat="44.24573" lon="5.41394">
        <ele>1144</ele>
        <time>2026-05-13T14:13:05.000Z</time>
      </trkpt>
      <trkpt lat="44.24571" lon="5.41394">
        <ele>1144</ele>
        <time>2026-05-13T14:13:06.000Z</time>
      </trkpt>
      <trkpt lat="44.2457" lon="5.41396">
        <ele>1144</ele>
        <time>2026-05-13T14:13:07.000Z</time>
      </trkpt>
      <trkpt lat="44.24568" lon="5.41398">
        <ele>1143</ele>
        <time>2026-05-13T14:13:08.000Z</time>
      </trkpt>
      <trkpt lat="44.24567" lon="5.41401">
        <ele>1143</ele>
        <time>2026-05-13T14:13:09.000Z</time>
      </trkpt>
      <trkpt lat="44.24567" lon="5.41404">
        <ele>1143</ele>
        <time>2026-05-13T14:13:10.000Z</time>
      </trkpt>
      <trkpt lat="44.24568" lon="5.41406">
        <ele>1144</ele>
        <time>2026-05-13T14:13:11.000Z</time>
      </trkpt>
      <trkpt lat="44.24569" lon="5.41407">
        <ele>1144</ele>
        <time>2026-05-13T14:13:12.000Z</time>
      </trkpt>
      <trkpt lat="44.2457" lon="5.41408">
        <ele>1145</ele>
        <time>2026-05-13T14:13:13.000Z</time>
      </trkpt>
      <trkpt lat="44.24572" lon="5.4141">
        <ele>1145</ele>
        <time>2026-05-13T14:13:14.000Z</time>
      </trkpt>
      <trkpt lat="44.24573" lon="5.41411">
        <ele>1145</ele>
        <time>2026-05-13T14:13:15.000Z</time>
      </trkpt>
      <trkpt lat="44.24574" lon="5.41412">
        <ele>1145</ele>
        <time>2026-05-13T14:13:16.000Z</time>
      </trkpt>
      <trkpt lat="44.24576" lon="5.41413">
        <ele>1145</ele>
        <time>2026-05-13T14:13:17.000Z</time>
      </trkpt>
      <trkpt lat="44.24578" lon="5.41414">
        <ele>1145</ele>
        <time>2026-05-13T14:13:18.000Z</time>
      </trkpt>
      <trkpt lat="44.24579" lon="5.41415">
        <ele>1145</ele>
        <time>2026-05-13T14:13:19.000Z</time>
      </trkpt>
      <trkpt lat="44.24581" lon="5.41417">
        <ele>1145</ele>
        <time>2026-05-13T14:13:20.000Z</time>
      </trkpt>
      <trkpt lat="44.24583" lon="5.41419">
        <ele>1146</ele>
        <time>2026-05-13T14:13:21.000Z</time>
      </trkpt>
      <trkpt lat="44.24584" lon="5.41421">
        <ele>1145</ele>
        <time>2026-05-13T14:13:22.000Z</time>
      </trkpt>
      <trkpt lat="44.24585" lon="5.41423">
        <ele>1145</ele>
        <time>2026-05-13T14:13:23.000Z</time>
      </trkpt>
      <trkpt lat="44.24586" lon="5.41426">
        <ele>1145</ele>
        <time>2026-05-13T14:13:24.000Z</time>
      </trkpt>
      <trkpt lat="44.24586" lon="5.41428">
        <ele>1145</ele>
        <time>2026-05-13T14:13:25.000Z</time>
      </trkpt>
      <trkpt lat="44.24586" lon="5.41431">
        <ele>1145</ele>
        <time>2026-05-13T14:13:26.000Z</time>
      </trkpt>
      <trkpt lat="44.24587" lon="5.41434">
        <ele>1145</ele>
        <time>2026-05-13T14:13:27.000Z</time>
      </trkpt>
      <trkpt lat="44.24587" lon="5.41437">
        <ele>1145</ele>
        <time>2026-05-13T14:13:28.000Z</time>
      </trkpt>
      <trkpt lat="44.24587" lon="5.4144">
        <ele>1145</ele>
        <time>2026-05-13T14:13:29.000Z</time>
      </trkpt>
      <trkpt lat="44.24587" lon="5.41442">
        <ele>1145</ele>
        <time>2026-05-13T14:13:30.000Z</time>
      </trkpt>
      <trkpt lat="44.24587" lon="5.41446">
        <ele>1145</ele>
        <time>2026-05-13T14:13:31.000Z</time>
      </trkpt>
      <trkpt lat="44.24586" lon="5.41448">
        <ele>1145</ele>
        <time>2026-05-13T14:13:32.000Z</time>
      </trkpt>
      <trkpt lat="44.24586" lon="5.41451">
        <ele>1146</ele>
        <time>2026-05-13T14:13:33.000Z</time>
      </trkpt>
      <trkpt lat="44.24586" lon="5.41454">
        <ele>1146</ele>
        <time>2026-05-13T14:13:34.000Z</time>
      </trkpt>
      <trkpt lat="44.24586" lon="5.41457">
        <ele>1147</ele>
        <time>2026-05-13T14:13:35.000Z</time>
      </trkpt>
      <trkpt lat="44.24586" lon="5.4146">
        <ele>1147</ele>
        <time>2026-05-13T14:13:36.000Z</time>
      </trkpt>
      <trkpt lat="44.24585" lon="5.41462">
        <ele>1147</ele>
        <time>2026-05-13T14:13:37.000Z</time>
      </trkpt>
      <trkpt lat="44.24587" lon="5.41465">
        <ele>1147</ele>
        <time>2026-05-13T14:13:38.000Z</time>
      </trkpt>
      <trkpt lat="44.24588" lon="5.41467">
        <ele>1147</ele>
        <time>2026-05-13T14:13:39.000Z</time>
      </trkpt>
      <trkpt lat="44.2459" lon="5.4147">
        <ele>1147</ele>
        <time>2026-05-13T14:13:40.000Z</time>
      </trkpt>
      <trkpt lat="44.24592" lon="5.41471">
        <ele>1147</ele>
        <time>2026-05-13T14:13:41.000Z</time>
      </trkpt>
      <trkpt lat="44.24594" lon="5.41472">
        <ele>1147</ele>
        <time>2026-05-13T14:13:42.000Z</time>
      </trkpt>
      <trkpt lat="44.24596" lon="5.41472">
        <ele>1147</ele>
        <time>2026-05-13T14:13:43.000Z</time>
      </trkpt>
      <trkpt lat="44.24598" lon="5.41472">
        <ele>1147</ele>
        <time>2026-05-13T14:13:44.000Z</time>
      </trkpt>
      <trkpt lat="44.246" lon="5.41471">
        <ele>1147</ele>
        <time>2026-05-13T14:13:45.000Z</time>
      </trkpt>
      <trkpt lat="44.24602" lon="5.41471">
        <ele>1148</ele>
        <time>2026-05-13T14:13:46.000Z</time>
      </trkpt>
      <trkpt lat="44.24604" lon="5.41471">
        <ele>1148</ele>
        <time>2026-05-13T14:13:47.000Z</time>
      </trkpt>
      <trkpt lat="44.24606" lon="5.4147">
        <ele>1148</ele>
        <time>2026-05-13T14:13:48.000Z</time>
      </trkpt>
      <trkpt lat="44.24608" lon="5.41469">
        <ele>1148</ele>
        <time>2026-05-13T14:13:49.000Z</time>
      </trkpt>
      <trkpt lat="44.2461" lon="5.41468">
        <ele>1147</ele>
        <time>2026-05-13T14:13:50.000Z</time>
      </trkpt>
      <trkpt lat="44.24612" lon="5.41468">
        <ele>1148</ele>
        <time>2026-05-13T14:13:51.000Z</time>
      </trkpt>
      <trkpt lat="44.24613" lon="5.41468">
        <ele>1147</ele>
        <time>2026-05-13T14:13:52.000Z</time>
      </trkpt>
      <trkpt lat="44.24616" lon="5.41467">
        <ele>1147</ele>
        <time>2026-05-13T14:13:53.000Z</time>
      </trkpt>
      <trkpt lat="44.24618" lon="5.41467">
        <ele>1147</ele>
        <time>2026-05-13T14:13:54.000Z</time>
      </trkpt>
      <trkpt lat="44.2462" lon="5.41466">
        <ele>1147</ele>
        <time>2026-05-13T14:13:55.000Z</time>
      </trkpt>
      <trkpt lat="44.24621" lon="5.41465">
        <ele>1147</ele>
        <time>2026-05-13T14:13:56.000Z</time>
      </trkpt>
      <trkpt lat="44.24623" lon="5.41465">
        <ele>1148</ele>
        <time>2026-05-13T14:13:57.000Z</time>
      </trkpt>
      <trkpt lat="44.24625" lon="5.41465">
        <ele>1148</ele>
        <time>2026-05-13T14:13:58.000Z</time>
      </trkpt>
      <trkpt lat="44.24626" lon="5.41465">
        <ele>1149</ele>
        <time>2026-05-13T14:13:59.000Z</time>
      </trkpt>
      <trkpt lat="44.24628" lon="5.41464">
        <ele>1149</ele>
        <time>2026-05-13T14:14:00.000Z</time>
      </trkpt>
      <trkpt lat="44.2463" lon="5.41464">
        <ele>1149</ele>
        <time>2026-05-13T14:14:01.000Z</time>
      </trkpt>
      <trkpt lat="44.24632" lon="5.41463">
        <ele>1149</ele>
        <time>2026-05-13T14:14:02.000Z</time>
      </trkpt>
      <trkpt lat="44.24633" lon="5.41463">
        <ele>1148</ele>
        <time>2026-05-13T14:14:03.000Z</time>
      </trkpt>
      <trkpt lat="44.24635" lon="5.41463">
        <ele>1149</ele>
        <time>2026-05-13T14:14:04.000Z</time>
      </trkpt>
      <trkpt lat="44.24636" lon="5.41463">
        <ele>1149</ele>
        <time>2026-05-13T14:14:05.000Z</time>
      </trkpt>
      <trkpt lat="44.24638" lon="5.41463">
        <ele>1149</ele>
        <time>2026-05-13T14:14:06.000Z</time>
      </trkpt>
      <trkpt lat="44.2464" lon="5.41463">
        <ele>1149</ele>
        <time>2026-05-13T14:14:07.000Z</time>
      </trkpt>
      <trkpt lat="44.24642" lon="5.41463">
        <ele>1150</ele>
        <time>2026-05-13T14:14:08.000Z</time>
      </trkpt>
      <trkpt lat="44.24644" lon="5.41464">
        <ele>1149</ele>
        <time>2026-05-13T14:14:09.000Z</time>
      </trkpt>
      <trkpt lat="44.24645" lon="5.41464">
        <ele>1150</ele>
        <time>2026-05-13T14:14:10.000Z</time>
      </trkpt>
      <trkpt lat="44.24647" lon="5.41464">
        <ele>1149</ele>
        <time>2026-05-13T14:14:11.000Z</time>
      </trkpt>
      <trkpt lat="44.24648" lon="5.41465">
        <ele>1149</ele>
        <time>2026-05-13T14:14:12.000Z</time>
      </trkpt>
      <trkpt lat="44.2465" lon="5.41465">
        <ele>1149</ele>
        <time>2026-05-13T14:14:13.000Z</time>
      </trkpt>
      <trkpt lat="44.24651" lon="5.41465">
        <ele>1149</ele>
        <time>2026-05-13T14:14:14.000Z</time>
      </trkpt>
      <trkpt lat="44.24653" lon="5.41465">
        <ele>1149</ele>
        <time>2026-05-13T14:14:15.000Z</time>
      </trkpt>
      <trkpt lat="44.24655" lon="5.41465">
        <ele>1149</ele>
        <time>2026-05-13T14:14:16.000Z</time>
      </trkpt>
      <trkpt lat="44.24656" lon="5.41465">
        <ele>1149</ele>
        <time>2026-05-13T14:14:17.000Z</time>
      </trkpt>
      <trkpt lat="44.24658" lon="5.41465">
        <ele>1149</ele>
        <time>2026-05-13T14:14:18.000Z</time>
      </trkpt>
      <trkpt lat="44.24659" lon="5.41466">
        <ele>1149</ele>
        <time>2026-05-13T14:14:19.000Z</time>
      </trkpt>
      <trkpt lat="44.24661" lon="5.41466">
        <ele>1150</ele>
        <time>2026-05-13T14:14:20.000Z</time>
      </trkpt>
      <trkpt lat="44.24662" lon="5.41467">
        <ele>1150</ele>
        <time>2026-05-13T14:14:21.000Z</time>
      </trkpt>
      <trkpt lat="44.24664" lon="5.41468">
        <ele>1150</ele>
        <time>2026-05-13T14:14:22.000Z</time>
      </trkpt>
      <trkpt lat="44.24666" lon="5.41469">
        <ele>1150</ele>
        <time>2026-05-13T14:14:23.000Z</time>
      </trkpt>
      <trkpt lat="44.24667" lon="5.4147">
        <ele>1150</ele>
        <time>2026-05-13T14:14:24.000Z</time>
      </trkpt>
      <trkpt lat="44.24669" lon="5.41472">
        <ele>1150</ele>
        <time>2026-05-13T14:14:25.000Z</time>
      </trkpt>
      <trkpt lat="44.24669" lon="5.41473">
        <ele>1150</ele>
        <time>2026-05-13T14:14:26.000Z</time>
      </trkpt>
      <trkpt lat="44.24671" lon="5.41475">
        <ele>1150</ele>
        <time>2026-05-13T14:14:27.000Z</time>
      </trkpt>
      <trkpt lat="44.24671" lon="5.41477">
        <ele>1150</ele>
        <time>2026-05-13T14:14:28.000Z</time>
      </trkpt>
      <trkpt lat="44.24672" lon="5.41479">
        <ele>1151</ele>
        <time>2026-05-13T14:14:29.000Z</time>
      </trkpt>
      <trkpt lat="44.24674" lon="5.41481">
        <ele>1151</ele>
        <time>2026-05-13T14:14:30.000Z</time>
      </trkpt>
      <trkpt lat="44.24675" lon="5.41483">
        <ele>1150</ele>
        <time>2026-05-13T14:14:31.000Z</time>
      </trkpt>
      <trkpt lat="44.24675" lon="5.41486">
        <ele>1150</ele>
        <time>2026-05-13T14:14:32.000Z</time>
      </trkpt>
      <trkpt lat="44.24676" lon="5.41489">
        <ele>1150</ele>
        <time>2026-05-13T14:14:33.000Z</time>
      </trkpt>
      <trkpt lat="44.24676" lon="5.41492">
        <ele>1151</ele>
        <time>2026-05-13T14:14:34.000Z</time>
      </trkpt>
      <trkpt lat="44.24677" lon="5.41494">
        <ele>1151</ele>
        <time>2026-05-13T14:14:35.000Z</time>
      </trkpt>
      <trkpt lat="44.24677" lon="5.41495">
        <ele>1151</ele>
        <time>2026-05-13T14:14:36.000Z</time>
      </trkpt>
      <trkpt lat="44.24678" lon="5.41498">
        <ele>1151</ele>
        <time>2026-05-13T14:14:37.000Z</time>
      </trkpt>
      <trkpt lat="44.24678" lon="5.415">
        <ele>1151</ele>
        <time>2026-05-13T14:14:38.000Z</time>
      </trkpt>
      <trkpt lat="44.24678" lon="5.41502">
        <ele>1151</ele>
        <time>2026-05-13T14:14:39.000Z</time>
      </trkpt>
      <trkpt lat="44.24679" lon="5.41505">
        <ele>1151</ele>
        <time>2026-05-13T14:14:40.000Z</time>
      </trkpt>
      <trkpt lat="44.24679" lon="5.41507">
        <ele>1151</ele>
        <time>2026-05-13T14:14:41.000Z</time>
      </trkpt>
      <trkpt lat="44.2468" lon="5.4151">
        <ele>1151</ele>
        <time>2026-05-13T14:14:42.000Z</time>
      </trkpt>
      <trkpt lat="44.2468" lon="5.41513">
        <ele>1151</ele>
        <time>2026-05-13T14:14:43.000Z</time>
      </trkpt>
      <trkpt lat="44.2468" lon="5.41515">
        <ele>1151</ele>
        <time>2026-05-13T14:14:44.000Z</time>
      </trkpt>
      <trkpt lat="44.24681" lon="5.41518">
        <ele>1152</ele>
        <time>2026-05-13T14:14:45.000Z</time>
      </trkpt>
      <trkpt lat="44.2468" lon="5.4152">
        <ele>1152</ele>
        <time>2026-05-13T14:14:46.000Z</time>
      </trkpt>
      <trkpt lat="44.2468" lon="5.41523">
        <ele>1153</ele>
        <time>2026-05-13T14:14:47.000Z</time>
      </trkpt>
      <trkpt lat="44.2468" lon="5.41526">
        <ele>1153</ele>
        <time>2026-05-13T14:14:48.000Z</time>
      </trkpt>
      <trkpt lat="44.2468" lon="5.41529">
        <ele>1153</ele>
        <time>2026-05-13T14:14:49.000Z</time>
      </trkpt>
      <trkpt lat="44.2468" lon="5.41532">
        <ele>1154</ele>
        <time>2026-05-13T14:14:50.000Z</time>
      </trkpt>
      <trkpt lat="44.24681" lon="5.41534">
        <ele>1154</ele>
        <time>2026-05-13T14:14:51.000Z</time>
      </trkpt>
      <trkpt lat="44.24681" lon="5.41537">
        <ele>1154</ele>
        <time>2026-05-13T14:14:52.000Z</time>
      </trkpt>
      <trkpt lat="44.24681" lon="5.4154">
        <ele>1155</ele>
        <time>2026-05-13T14:14:53.000Z</time>
      </trkpt>
      <trkpt lat="44.24682" lon="5.41543">
        <ele>1155</ele>
        <time>2026-05-13T14:14:54.000Z</time>
      </trkpt>
      <trkpt lat="44.24682" lon="5.41546">
        <ele>1155</ele>
        <time>2026-05-13T14:14:55.000Z</time>
      </trkpt>
      <trkpt lat="44.24682" lon="5.41549">
        <ele>1155</ele>
        <time>2026-05-13T14:14:56.000Z</time>
      </trkpt>
      <trkpt lat="44.24681" lon="5.41551">
        <ele>1155</ele>
        <time>2026-05-13T14:14:57.000Z</time>
      </trkpt>
      <trkpt lat="44.24682" lon="5.41554">
        <ele>1156</ele>
        <time>2026-05-13T14:14:58.000Z</time>
      </trkpt>
      <trkpt lat="44.24681" lon="5.41557">
        <ele>1156</ele>
        <time>2026-05-13T14:14:59.000Z</time>
      </trkpt>
      <trkpt lat="44.24681" lon="5.4156">
        <ele>1157</ele>
        <time>2026-05-13T14:15:00.000Z</time>
      </trkpt>
      <trkpt lat="44.24681" lon="5.41563">
        <ele>1157</ele>
        <time>2026-05-13T14:15:01.000Z</time>
      </trkpt>
      <trkpt lat="44.24681" lon="5.41564">
        <ele>1157</ele>
        <time>2026-05-13T14:15:02.000Z</time>
      </trkpt>
      <trkpt lat="44.24681" lon="5.41567">
        <ele>1156</ele>
        <time>2026-05-13T14:15:03.000Z</time>
      </trkpt>
      <trkpt lat="44.2468" lon="5.41569">
        <ele>1156</ele>
        <time>2026-05-13T14:15:04.000Z</time>
      </trkpt>
      <trkpt lat="44.2468" lon="5.41572">
        <ele>1156</ele>
        <time>2026-05-13T14:15:05.000Z</time>
      </trkpt>
      <trkpt lat="44.24681" lon="5.41574">
        <ele>1156</ele>
        <time>2026-05-13T14:15:06.000Z</time>
      </trkpt>
      <trkpt lat="44.24681" lon="5.41576">
        <ele>1156</ele>
        <time>2026-05-13T14:15:07.000Z</time>
      </trkpt>
      <trkpt lat="44.24681" lon="5.41579">
        <ele>1156</ele>
        <time>2026-05-13T14:15:08.000Z</time>
      </trkpt>
      <trkpt lat="44.24681" lon="5.41581">
        <ele>1156</ele>
        <time>2026-05-13T14:15:09.000Z</time>
      </trkpt>
      <trkpt lat="44.24681" lon="5.41584">
        <ele>1156</ele>
        <time>2026-05-13T14:15:10.000Z</time>
      </trkpt>
      <trkpt lat="44.24681" lon="5.41586">
        <ele>1156</ele>
        <time>2026-05-13T14:15:11.000Z</time>
      </trkpt>
      <trkpt lat="44.24682" lon="5.41588">
        <ele>1156</ele>
        <time>2026-05-13T14:15:12.000Z</time>
      </trkpt>
      <trkpt lat="44.24682" lon="5.4159">
        <ele>1156</ele>
        <time>2026-05-13T14:15:13.000Z</time>
      </trkpt>
      <trkpt lat="44.24682" lon="5.41593">
        <ele>1156</ele>
        <time>2026-05-13T14:15:14.000Z</time>
      </trkpt>
      <trkpt lat="44.24682" lon="5.41595">
        <ele>1156</ele>
        <time>2026-05-13T14:15:15.000Z</time>
      </trkpt>
      <trkpt lat="44.24682" lon="5.41598">
        <ele>1156</ele>
        <time>2026-05-13T14:15:16.000Z</time>
      </trkpt>
      <trkpt lat="44.24681" lon="5.41601">
        <ele>1156</ele>
        <time>2026-05-13T14:15:17.000Z</time>
      </trkpt>
      <trkpt lat="44.24681" lon="5.41604">
        <ele>1157</ele>
        <time>2026-05-13T14:15:18.000Z</time>
      </trkpt>
      <trkpt lat="44.24681" lon="5.41607">
        <ele>1157</ele>
        <time>2026-05-13T14:15:19.000Z</time>
      </trkpt>
      <trkpt lat="44.24681" lon="5.41611">
        <ele>1157</ele>
        <time>2026-05-13T14:15:20.000Z</time>
      </trkpt>
      <trkpt lat="44.24681" lon="5.41614">
        <ele>1158</ele>
        <time>2026-05-13T14:15:21.000Z</time>
      </trkpt>
      <trkpt lat="44.24681" lon="5.41617">
        <ele>1158</ele>
        <time>2026-05-13T14:15:22.000Z</time>
      </trkpt>
      <trkpt lat="44.24681" lon="5.4162">
        <ele>1158</ele>
        <time>2026-05-13T14:15:23.000Z</time>
      </trkpt>
      <trkpt lat="44.24681" lon="5.41623">
        <ele>1158</ele>
        <time>2026-05-13T14:15:24.000Z</time>
      </trkpt>
      <trkpt lat="44.24681" lon="5.41626">
        <ele>1159</ele>
        <time>2026-05-13T14:15:25.000Z</time>
      </trkpt>
      <trkpt lat="44.24681" lon="5.41629">
        <ele>1160</ele>
        <time>2026-05-13T14:15:26.000Z</time>
      </trkpt>
      <trkpt lat="44.24681" lon="5.41632">
        <ele>1160</ele>
        <time>2026-05-13T14:15:27.000Z</time>
      </trkpt>
      <trkpt lat="44.24681" lon="5.41634">
        <ele>1160</ele>
        <time>2026-05-13T14:15:28.000Z</time>
      </trkpt>
      <trkpt lat="44.24681" lon="5.41637">
        <ele>1160</ele>
        <time>2026-05-13T14:15:29.000Z</time>
      </trkpt>
      <trkpt lat="44.2468" lon="5.41639">
        <ele>1161</ele>
        <time>2026-05-13T14:15:30.000Z</time>
      </trkpt>
      <trkpt lat="44.24681" lon="5.41642">
        <ele>1160</ele>
        <time>2026-05-13T14:15:31.000Z</time>
      </trkpt>
      <trkpt lat="44.24681" lon="5.41645">
        <ele>1160</ele>
        <time>2026-05-13T14:15:32.000Z</time>
      </trkpt>
      <trkpt lat="44.2468" lon="5.41648">
        <ele>1159</ele>
        <time>2026-05-13T14:15:33.000Z</time>
      </trkpt>
      <trkpt lat="44.2468" lon="5.41651">
        <ele>1159</ele>
        <time>2026-05-13T14:15:34.000Z</time>
      </trkpt>
      <trkpt lat="44.24679" lon="5.41653">
        <ele>1159</ele>
        <time>2026-05-13T14:15:35.000Z</time>
      </trkpt>
      <trkpt lat="44.24679" lon="5.41656">
        <ele>1159</ele>
        <time>2026-05-13T14:15:36.000Z</time>
      </trkpt>
      <trkpt lat="44.24679" lon="5.41659">
        <ele>1159</ele>
        <time>2026-05-13T14:15:37.000Z</time>
      </trkpt>
      <trkpt lat="44.24679" lon="5.41661">
        <ele>1160</ele>
        <time>2026-05-13T14:15:38.000Z</time>
      </trkpt>
      <trkpt lat="44.24679" lon="5.41664">
        <ele>1160</ele>
        <time>2026-05-13T14:15:39.000Z</time>
      </trkpt>
      <trkpt lat="44.24679" lon="5.41667">
        <ele>1160</ele>
        <time>2026-05-13T14:15:40.000Z</time>
      </trkpt>
      <trkpt lat="44.24679" lon="5.41669">
        <ele>1160</ele>
        <time>2026-05-13T14:15:41.000Z</time>
      </trkpt>
      <trkpt lat="44.24678" lon="5.41672">
        <ele>1160</ele>
        <time>2026-05-13T14:15:42.000Z</time>
      </trkpt>
      <trkpt lat="44.24678" lon="5.41674">
        <ele>1160</ele>
        <time>2026-05-13T14:15:43.000Z</time>
      </trkpt>
      <trkpt lat="44.24678" lon="5.41677">
        <ele>1159</ele>
        <time>2026-05-13T14:15:44.000Z</time>
      </trkpt>
      <trkpt lat="44.24677" lon="5.41679">
        <ele>1159</ele>
        <time>2026-05-13T14:15:45.000Z</time>
      </trkpt>
      <trkpt lat="44.24676" lon="5.41681">
        <ele>1160</ele>
        <time>2026-05-13T14:15:46.000Z</time>
      </trkpt>
      <trkpt lat="44.24675" lon="5.41683">
        <ele>1160</ele>
        <time>2026-05-13T14:15:47.000Z</time>
      </trkpt>
      <trkpt lat="44.24675" lon="5.41686">
        <ele>1160</ele>
        <time>2026-05-13T14:15:48.000Z</time>
      </trkpt>
      <trkpt lat="44.24675" lon="5.41689">
        <ele>1161</ele>
        <time>2026-05-13T14:15:49.000Z</time>
      </trkpt>
      <trkpt lat="44.24674" lon="5.41692">
        <ele>1161</ele>
        <time>2026-05-13T14:15:50.000Z</time>
      </trkpt>
      <trkpt lat="44.24674" lon="5.41695">
        <ele>1161</ele>
        <time>2026-05-13T14:15:51.000Z</time>
      </trkpt>
      <trkpt lat="44.24674" lon="5.41698">
        <ele>1161</ele>
        <time>2026-05-13T14:15:52.000Z</time>
      </trkpt>
      <trkpt lat="44.24674" lon="5.417">
        <ele>1161</ele>
        <time>2026-05-13T14:15:53.000Z</time>
      </trkpt>
      <trkpt lat="44.24673" lon="5.41703">
        <ele>1161</ele>
        <time>2026-05-13T14:15:54.000Z</time>
      </trkpt>
      <trkpt lat="44.24673" lon="5.41706">
        <ele>1161</ele>
        <time>2026-05-13T14:15:55.000Z</time>
      </trkpt>
      <trkpt lat="44.24673" lon="5.41709">
        <ele>1162</ele>
        <time>2026-05-13T14:15:56.000Z</time>
      </trkpt>
      <trkpt lat="44.24674" lon="5.41712">
        <ele>1162</ele>
        <time>2026-05-13T14:15:57.000Z</time>
      </trkpt>
      <trkpt lat="44.24674" lon="5.41715">
        <ele>1163</ele>
        <time>2026-05-13T14:15:58.000Z</time>
      </trkpt>
      <trkpt lat="44.24673" lon="5.41717">
        <ele>1163</ele>
        <time>2026-05-13T14:15:59.000Z</time>
      </trkpt>
      <trkpt lat="44.24673" lon="5.41719">
        <ele>1163</ele>
        <time>2026-05-13T14:16:00.000Z</time>
      </trkpt>
      <trkpt lat="44.24673" lon="5.41722">
        <ele>1163</ele>
        <time>2026-05-13T14:16:01.000Z</time>
      </trkpt>
      <trkpt lat="44.24673" lon="5.41725">
        <ele>1163</ele>
        <time>2026-05-13T14:16:02.000Z</time>
      </trkpt>
      <trkpt lat="44.24673" lon="5.41728">
        <ele>1162</ele>
        <time>2026-05-13T14:16:03.000Z</time>
      </trkpt>
      <trkpt lat="44.24673" lon="5.4173">
        <ele>1163</ele>
        <time>2026-05-13T14:16:04.000Z</time>
      </trkpt>
      <trkpt lat="44.24673" lon="5.41733">
        <ele>1163</ele>
        <time>2026-05-13T14:16:05.000Z</time>
      </trkpt>
      <trkpt lat="44.24673" lon="5.41735">
        <ele>1163</ele>
        <time>2026-05-13T14:16:06.000Z</time>
      </trkpt>
      <trkpt lat="44.24673" lon="5.41738">
        <ele>1163</ele>
        <time>2026-05-13T14:16:07.000Z</time>
      </trkpt>
      <trkpt lat="44.24673" lon="5.4174">
        <ele>1163</ele>
        <time>2026-05-13T14:16:08.000Z</time>
      </trkpt>
      <trkpt lat="44.24674" lon="5.41742">
        <ele>1163</ele>
        <time>2026-05-13T14:16:09.000Z</time>
      </trkpt>
      <trkpt lat="44.24674" lon="5.41744">
        <ele>1164</ele>
        <time>2026-05-13T14:16:10.000Z</time>
      </trkpt>
      <trkpt lat="44.24674" lon="5.41746">
        <ele>1164</ele>
        <time>2026-05-13T14:16:11.000Z</time>
      </trkpt>
      <trkpt lat="44.24675" lon="5.41748">
        <ele>1164</ele>
        <time>2026-05-13T14:16:12.000Z</time>
      </trkpt>
      <trkpt lat="44.24676" lon="5.41751">
        <ele>1163</ele>
        <time>2026-05-13T14:16:13.000Z</time>
      </trkpt>
      <trkpt lat="44.24677" lon="5.41753">
        <ele>1164</ele>
        <time>2026-05-13T14:16:14.000Z</time>
      </trkpt>
      <trkpt lat="44.24677" lon="5.41756">
        <ele>1164</ele>
        <time>2026-05-13T14:16:15.000Z</time>
      </trkpt>
      <trkpt lat="44.24678" lon="5.41759">
        <ele>1164</ele>
        <time>2026-05-13T14:16:16.000Z</time>
      </trkpt>
      <trkpt lat="44.24679" lon="5.4176">
        <ele>1165</ele>
        <time>2026-05-13T14:16:17.000Z</time>
      </trkpt>
      <trkpt lat="44.2468" lon="5.41763">
        <ele>1165</ele>
        <time>2026-05-13T14:16:18.000Z</time>
      </trkpt>
      <trkpt lat="44.2468" lon="5.41765">
        <ele>1165</ele>
        <time>2026-05-13T14:16:19.000Z</time>
      </trkpt>
      <trkpt lat="44.24681" lon="5.41767">
        <ele>1165</ele>
        <time>2026-05-13T14:16:20.000Z</time>
      </trkpt>
      <trkpt lat="44.24682" lon="5.4177">
        <ele>1165</ele>
        <time>2026-05-13T14:16:21.000Z</time>
      </trkpt>
      <trkpt lat="44.24683" lon="5.41773">
        <ele>1166</ele>
        <time>2026-05-13T14:16:22.000Z</time>
      </trkpt>
      <trkpt lat="44.24684" lon="5.41775">
        <ele>1166</ele>
        <time>2026-05-13T14:16:23.000Z</time>
      </trkpt>
      <trkpt lat="44.24685" lon="5.41778">
        <ele>1166</ele>
        <time>2026-05-13T14:16:24.000Z</time>
      </trkpt>
      <trkpt lat="44.24686" lon="5.4178">
        <ele>1166</ele>
        <time>2026-05-13T14:16:25.000Z</time>
      </trkpt>
      <trkpt lat="44.24686" lon="5.41782">
        <ele>1165</ele>
        <time>2026-05-13T14:16:26.000Z</time>
      </trkpt>
      <trkpt lat="44.24687" lon="5.41784">
        <ele>1165</ele>
        <time>2026-05-13T14:16:27.000Z</time>
      </trkpt>
      <trkpt lat="44.24689" lon="5.41786">
        <ele>1165</ele>
        <time>2026-05-13T14:16:28.000Z</time>
      </trkpt>
      <trkpt lat="44.24689" lon="5.41788">
        <ele>1164</ele>
        <time>2026-05-13T14:16:29.000Z</time>
      </trkpt>
      <trkpt lat="44.2469" lon="5.4179">
        <ele>1165</ele>
        <time>2026-05-13T14:16:30.000Z</time>
      </trkpt>
      <trkpt lat="44.24691" lon="5.41792">
        <ele>1165</ele>
        <time>2026-05-13T14:16:31.000Z</time>
      </trkpt>
      <trkpt lat="44.24692" lon="5.41794">
        <ele>1164</ele>
        <time>2026-05-13T14:16:32.000Z</time>
      </trkpt>
      <trkpt lat="44.24693" lon="5.41796">
        <ele>1164</ele>
        <time>2026-05-13T14:16:33.000Z</time>
      </trkpt>
      <trkpt lat="44.24694" lon="5.41797">
        <ele>1165</ele>
        <time>2026-05-13T14:16:34.000Z</time>
      </trkpt>
      <trkpt lat="44.24696" lon="5.41798">
        <ele>1165</ele>
        <time>2026-05-13T14:16:35.000Z</time>
      </trkpt>
      <trkpt lat="44.24697" lon="5.418">
        <ele>1165</ele>
        <time>2026-05-13T14:16:36.000Z</time>
      </trkpt>
      <trkpt lat="44.24698" lon="5.41801">
        <ele>1165</ele>
        <time>2026-05-13T14:16:37.000Z</time>
      </trkpt>
      <trkpt lat="44.24699" lon="5.41802">
        <ele>1165</ele>
        <time>2026-05-13T14:16:38.000Z</time>
      </trkpt>
      <trkpt lat="44.24701" lon="5.41802">
        <ele>1165</ele>
        <time>2026-05-13T14:16:39.000Z</time>
      </trkpt>
      <trkpt lat="44.24703" lon="5.41802">
        <ele>1165</ele>
        <time>2026-05-13T14:16:40.000Z</time>
      </trkpt>
      <trkpt lat="44.24705" lon="5.41802">
        <ele>1165</ele>
        <time>2026-05-13T14:16:41.000Z</time>
      </trkpt>
      <trkpt lat="44.24707" lon="5.41801">
        <ele>1166</ele>
        <time>2026-05-13T14:16:42.000Z</time>
      </trkpt>
      <trkpt lat="44.24709" lon="5.41801">
        <ele>1165</ele>
        <time>2026-05-13T14:16:43.000Z</time>
      </trkpt>
      <trkpt lat="44.2471" lon="5.418">
        <ele>1165</ele>
        <time>2026-05-13T14:16:44.000Z</time>
      </trkpt>
      <trkpt lat="44.24712" lon="5.41799">
        <ele>1166</ele>
        <time>2026-05-13T14:16:45.000Z</time>
      </trkpt>
      <trkpt lat="44.24713" lon="5.41799">
        <ele>1165</ele>
        <time>2026-05-13T14:16:46.000Z</time>
      </trkpt>
      <trkpt lat="44.24715" lon="5.41798">
        <ele>1165</ele>
        <time>2026-05-13T14:16:47.000Z</time>
      </trkpt>
      <trkpt lat="44.24717" lon="5.41798">
        <ele>1165</ele>
        <time>2026-05-13T14:16:48.000Z</time>
      </trkpt>
      <trkpt lat="44.24718" lon="5.41798">
        <ele>1165</ele>
        <time>2026-05-13T14:16:49.000Z</time>
      </trkpt>
      <trkpt lat="44.2472" lon="5.41797">
        <ele>1165</ele>
        <time>2026-05-13T14:16:50.000Z</time>
      </trkpt>
      <trkpt lat="44.24721" lon="5.41797">
        <ele>1165</ele>
        <time>2026-05-13T14:16:51.000Z</time>
      </trkpt>
      <trkpt lat="44.24723" lon="5.41797">
        <ele>1166</ele>
        <time>2026-05-13T14:16:52.000Z</time>
      </trkpt>
      <trkpt lat="44.24725" lon="5.41798">
        <ele>1166</ele>
        <time>2026-05-13T14:16:53.000Z</time>
      </trkpt>
      <trkpt lat="44.24727" lon="5.41798">
        <ele>1166</ele>
        <time>2026-05-13T14:16:54.000Z</time>
      </trkpt>
      <trkpt lat="44.24729" lon="5.41798">
        <ele>1166</ele>
        <time>2026-05-13T14:16:55.000Z</time>
      </trkpt>
      <trkpt lat="44.2473" lon="5.41798">
        <ele>1166</ele>
        <time>2026-05-13T14:16:56.000Z</time>
      </trkpt>
      <trkpt lat="44.24732" lon="5.41797">
        <ele>1167</ele>
        <time>2026-05-13T14:16:57.000Z</time>
      </trkpt>
      <trkpt lat="44.24734" lon="5.41797">
        <ele>1167</ele>
        <time>2026-05-13T14:16:58.000Z</time>
      </trkpt>
      <trkpt lat="44.24736" lon="5.41797">
        <ele>1167</ele>
        <time>2026-05-13T14:16:59.000Z</time>
      </trkpt>
      <trkpt lat="44.24738" lon="5.41797">
        <ele>1167</ele>
        <time>2026-05-13T14:17:00.000Z</time>
      </trkpt>
      <trkpt lat="44.24739" lon="5.41797">
        <ele>1167</ele>
        <time>2026-05-13T14:17:01.000Z</time>
      </trkpt>
      <trkpt lat="44.24741" lon="5.41797">
        <ele>1168</ele>
        <time>2026-05-13T14:17:02.000Z</time>
      </trkpt>
      <trkpt lat="44.24743" lon="5.41797">
        <ele>1168</ele>
        <time>2026-05-13T14:17:03.000Z</time>
      </trkpt>
      <trkpt lat="44.24745" lon="5.41797">
        <ele>1167</ele>
        <time>2026-05-13T14:17:04.000Z</time>
      </trkpt>
      <trkpt lat="44.24746" lon="5.41797">
        <ele>1168</ele>
        <time>2026-05-13T14:17:05.000Z</time>
      </trkpt>
      <trkpt lat="44.24748" lon="5.41797">
        <ele>1168</ele>
        <time>2026-05-13T14:17:06.000Z</time>
      </trkpt>
      <trkpt lat="44.2475" lon="5.41797">
        <ele>1168</ele>
        <time>2026-05-13T14:17:07.000Z</time>
      </trkpt>
      <trkpt lat="44.24752" lon="5.41796">
        <ele>1168</ele>
        <time>2026-05-13T14:17:08.000Z</time>
      </trkpt>
      <trkpt lat="44.24754" lon="5.41796">
        <ele>1168</ele>
        <time>2026-05-13T14:17:09.000Z</time>
      </trkpt>
      <trkpt lat="44.24756" lon="5.41796">
        <ele>1168</ele>
        <time>2026-05-13T14:17:10.000Z</time>
      </trkpt>
      <trkpt lat="44.24757" lon="5.41795">
        <ele>1168</ele>
        <time>2026-05-13T14:17:11.000Z</time>
      </trkpt>
      <trkpt lat="44.24758" lon="5.41794">
        <ele>1168</ele>
        <time>2026-05-13T14:17:12.000Z</time>
      </trkpt>
      <trkpt lat="44.2476" lon="5.41793">
        <ele>1168</ele>
        <time>2026-05-13T14:17:13.000Z</time>
      </trkpt>
      <trkpt lat="44.24762" lon="5.41792">
        <ele>1169</ele>
        <time>2026-05-13T14:17:14.000Z</time>
      </trkpt>
      <trkpt lat="44.24763" lon="5.41791">
        <ele>1169</ele>
        <time>2026-05-13T14:17:15.000Z</time>
      </trkpt>
      <trkpt lat="44.24764" lon="5.41789">
        <ele>1169</ele>
        <time>2026-05-13T14:17:16.000Z</time>
      </trkpt>
      <trkpt lat="44.24766" lon="5.41788">
        <ele>1169</ele>
        <time>2026-05-13T14:17:17.000Z</time>
      </trkpt>
      <trkpt lat="44.24767" lon="5.41786">
        <ele>1169</ele>
        <time>2026-05-13T14:17:18.000Z</time>
      </trkpt>
      <trkpt lat="44.24768" lon="5.41785">
        <ele>1169</ele>
        <time>2026-05-13T14:17:19.000Z</time>
      </trkpt>
      <trkpt lat="44.2477" lon="5.41784">
        <ele>1169</ele>
        <time>2026-05-13T14:17:20.000Z</time>
      </trkpt>
      <trkpt lat="44.24771" lon="5.41783">
        <ele>1170</ele>
        <time>2026-05-13T14:17:21.000Z</time>
      </trkpt>
      <trkpt lat="44.24772" lon="5.41782">
        <ele>1171</ele>
        <time>2026-05-13T14:17:22.000Z</time>
      </trkpt>
      <trkpt lat="44.24773" lon="5.41781">
        <ele>1171</ele>
        <time>2026-05-13T14:17:23.000Z</time>
      </trkpt>
      <trkpt lat="44.24775" lon="5.41781">
        <ele>1171</ele>
        <time>2026-05-13T14:17:24.000Z</time>
      </trkpt>
      <trkpt lat="44.24776" lon="5.4178">
        <ele>1171</ele>
        <time>2026-05-13T14:17:25.000Z</time>
      </trkpt>
      <trkpt lat="44.24778" lon="5.41779">
        <ele>1171</ele>
        <time>2026-05-13T14:17:26.000Z</time>
      </trkpt>
      <trkpt lat="44.2478" lon="5.41778">
        <ele>1172</ele>
        <time>2026-05-13T14:17:27.000Z</time>
      </trkpt>
      <trkpt lat="44.24781" lon="5.41777">
        <ele>1172</ele>
        <time>2026-05-13T14:17:28.000Z</time>
      </trkpt>
      <trkpt lat="44.24783" lon="5.41776">
        <ele>1172</ele>
        <time>2026-05-13T14:17:29.000Z</time>
      </trkpt>
      <trkpt lat="44.24784" lon="5.41776">
        <ele>1172</ele>
        <time>2026-05-13T14:17:30.000Z</time>
      </trkpt>
      <trkpt lat="44.24785" lon="5.41775">
        <ele>1172</ele>
        <time>2026-05-13T14:17:31.000Z</time>
      </trkpt>
      <trkpt lat="44.24786" lon="5.41775">
        <ele>1172</ele>
        <time>2026-05-13T14:17:32.000Z</time>
      </trkpt>
      <trkpt lat="44.24788" lon="5.41774">
        <ele>1172</ele>
        <time>2026-05-13T14:17:33.000Z</time>
      </trkpt>
      <trkpt lat="44.2479" lon="5.41773">
        <ele>1172</ele>
        <time>2026-05-13T14:17:34.000Z</time>
      </trkpt>
      <trkpt lat="44.24792" lon="5.41773">
        <ele>1172</ele>
        <time>2026-05-13T14:17:35.000Z</time>
      </trkpt>
      <trkpt lat="44.24793" lon="5.41773">
        <ele>1172</ele>
        <time>2026-05-13T14:17:36.000Z</time>
      </trkpt>
      <trkpt lat="44.24795" lon="5.41772">
        <ele>1173</ele>
        <time>2026-05-13T14:17:37.000Z</time>
      </trkpt>
      <trkpt lat="44.24796" lon="5.41772">
        <ele>1173</ele>
        <time>2026-05-13T14:17:38.000Z</time>
      </trkpt>
      <trkpt lat="44.24798" lon="5.41771">
        <ele>1173</ele>
        <time>2026-05-13T14:17:39.000Z</time>
      </trkpt>
      <trkpt lat="44.24799" lon="5.4177">
        <ele>1173</ele>
        <time>2026-05-13T14:17:40.000Z</time>
      </trkpt>
      <trkpt lat="44.24801" lon="5.4177">
        <ele>1173</ele>
        <time>2026-05-13T14:17:41.000Z</time>
      </trkpt>
      <trkpt lat="44.24802" lon="5.4177">
        <ele>1174</ele>
        <time>2026-05-13T14:17:42.000Z</time>
      </trkpt>
      <trkpt lat="44.24804" lon="5.4177">
        <ele>1174</ele>
        <time>2026-05-13T14:17:43.000Z</time>
      </trkpt>
      <trkpt lat="44.24805" lon="5.4177">
        <ele>1175</ele>
        <time>2026-05-13T14:17:44.000Z</time>
      </trkpt>
      <trkpt lat="44.24806" lon="5.4177">
        <ele>1175</ele>
        <time>2026-05-13T14:17:45.000Z</time>
      </trkpt>
      <trkpt lat="44.24808" lon="5.4177">
        <ele>1175</ele>
        <time>2026-05-13T14:17:46.000Z</time>
      </trkpt>
      <trkpt lat="44.24809" lon="5.4177">
        <ele>1175</ele>
        <time>2026-05-13T14:17:47.000Z</time>
      </trkpt>
      <trkpt lat="44.2481" lon="5.4177">
        <ele>1175</ele>
        <time>2026-05-13T14:17:48.000Z</time>
      </trkpt>
      <trkpt lat="44.24811" lon="5.41771">
        <ele>1176</ele>
        <time>2026-05-13T14:17:49.000Z</time>
      </trkpt>
      <trkpt lat="44.24812" lon="5.41772">
        <ele>1176</ele>
        <time>2026-05-13T14:17:50.000Z</time>
      </trkpt>
      <trkpt lat="44.24813" lon="5.41772">
        <ele>1175</ele>
        <time>2026-05-13T14:17:51.000Z</time>
      </trkpt>
      <trkpt lat="44.24814" lon="5.41772">
        <ele>1175</ele>
        <time>2026-05-13T14:17:52.000Z</time>
      </trkpt>
      <trkpt lat="44.24816" lon="5.41772">
        <ele>1176</ele>
        <time>2026-05-13T14:17:53.000Z</time>
      </trkpt>
      <trkpt lat="44.24817" lon="5.41772">
        <ele>1176</ele>
        <time>2026-05-13T14:17:54.000Z</time>
      </trkpt>
      <trkpt lat="44.24819" lon="5.41772">
        <ele>1176</ele>
        <time>2026-05-13T14:17:55.000Z</time>
      </trkpt>
      <trkpt lat="44.24821" lon="5.41773">
        <ele>1176</ele>
        <time>2026-05-13T14:17:56.000Z</time>
      </trkpt>
      <trkpt lat="44.24823" lon="5.41773">
        <ele>1176</ele>
        <time>2026-05-13T14:17:57.000Z</time>
      </trkpt>
      <trkpt lat="44.24824" lon="5.41773">
        <ele>1176</ele>
        <time>2026-05-13T14:17:58.000Z</time>
      </trkpt>
      <trkpt lat="44.24825" lon="5.41773">
        <ele>1176</ele>
        <time>2026-05-13T14:17:59.000Z</time>
      </trkpt>
      <trkpt lat="44.24827" lon="5.41773">
        <ele>1176</ele>
        <time>2026-05-13T14:18:00.000Z</time>
      </trkpt>
      <trkpt lat="44.24828" lon="5.41774">
        <ele>1176</ele>
        <time>2026-05-13T14:18:01.000Z</time>
      </trkpt>
      <trkpt lat="44.2483" lon="5.41774">
        <ele>1175</ele>
        <time>2026-05-13T14:18:02.000Z</time>
      </trkpt>
      <trkpt lat="44.24831" lon="5.41775">
        <ele>1176</ele>
        <time>2026-05-13T14:18:03.000Z</time>
      </trkpt>
      <trkpt lat="44.24833" lon="5.41776">
        <ele>1176</ele>
        <time>2026-05-13T14:18:04.000Z</time>
      </trkpt>
      <trkpt lat="44.24834" lon="5.41776">
        <ele>1176</ele>
        <time>2026-05-13T14:18:05.000Z</time>
      </trkpt>
      <trkpt lat="44.24835" lon="5.41777">
        <ele>1176</ele>
        <time>2026-05-13T14:18:06.000Z</time>
      </trkpt>
      <trkpt lat="44.24836" lon="5.41778">
        <ele>1176</ele>
        <time>2026-05-13T14:18:07.000Z</time>
      </trkpt>
      <trkpt lat="44.24837" lon="5.41779">
        <ele>1176</ele>
        <time>2026-05-13T14:18:08.000Z</time>
      </trkpt>
      <trkpt lat="44.24838" lon="5.41779">
        <ele>1176</ele>
        <time>2026-05-13T14:18:09.000Z</time>
      </trkpt>
      <trkpt lat="44.24839" lon="5.4178">
        <ele>1176</ele>
        <time>2026-05-13T14:18:10.000Z</time>
      </trkpt>
      <trkpt lat="44.24841" lon="5.41781">
        <ele>1176</ele>
        <time>2026-05-13T14:18:11.000Z</time>
      </trkpt>
      <trkpt lat="44.24842" lon="5.41782">
        <ele>1176</ele>
        <time>2026-05-13T14:18:12.000Z</time>
      </trkpt>
      <trkpt lat="44.24843" lon="5.41783">
        <ele>1176</ele>
        <time>2026-05-13T14:18:13.000Z</time>
      </trkpt>
      <trkpt lat="44.24844" lon="5.41784">
        <ele>1176</ele>
        <time>2026-05-13T14:18:14.000Z</time>
      </trkpt>
      <trkpt lat="44.24845" lon="5.41784">
        <ele>1177</ele>
        <time>2026-05-13T14:18:15.000Z</time>
      </trkpt>
      <trkpt lat="44.24846" lon="5.41785">
        <ele>1177</ele>
        <time>2026-05-13T14:18:16.000Z</time>
      </trkpt>
      <trkpt lat="44.24847" lon="5.41785">
        <ele>1177</ele>
        <time>2026-05-13T14:18:17.000Z</time>
      </trkpt>
      <trkpt lat="44.24848" lon="5.41785">
        <ele>1177</ele>
        <time>2026-05-13T14:18:18.000Z</time>
      </trkpt>
      <trkpt lat="44.24849" lon="5.41785">
        <ele>1177</ele>
        <time>2026-05-13T14:18:19.000Z</time>
      </trkpt>
      <trkpt lat="44.24849" lon="5.41786">
        <ele>1177</ele>
        <time>2026-05-13T14:18:20.000Z</time>
      </trkpt>
      <trkpt lat="44.24848" lon="5.41786">
        <ele>1177</ele>
        <time>2026-05-13T14:18:21.000Z</time>
      </trkpt>
      <trkpt lat="44.24848" lon="5.41786">
        <ele>1177</ele>
        <time>2026-05-13T14:18:22.000Z</time>
      </trkpt>
      <trkpt lat="44.24848" lon="5.41786">
        <ele>1177</ele>
        <time>2026-05-13T14:18:23.000Z</time>
      </trkpt>
      <trkpt lat="44.24848" lon="5.41786">
        <ele>1177</ele>
        <time>2026-05-13T14:18:24.000Z</time>
      </trkpt>
      <trkpt lat="44.24848" lon="5.41786">
        <ele>1177</ele>
        <time>2026-05-13T14:18:25.000Z</time>
      </trkpt>
      <trkpt lat="44.24848" lon="5.41786">
        <ele>1177</ele>
        <time>2026-05-13T14:18:26.000Z</time>
      </trkpt>
      <trkpt lat="44.24848" lon="5.41786">
        <ele>1178</ele>
        <time>2026-05-13T14:18:27.000Z</time>
      </trkpt>
      <trkpt lat="44.24848" lon="5.41786">
        <ele>1177</ele>
        <time>2026-05-13T14:18:28.000Z</time>
      </trkpt>
      <trkpt lat="44.24848" lon="5.41786">
        <ele>1177</ele>
        <time>2026-05-13T14:18:29.000Z</time>
      </trkpt>
      <trkpt lat="44.24848" lon="5.41786">
        <ele>1177</ele>
        <time>2026-05-13T14:18:30.000Z</time>
      </trkpt>
      <trkpt lat="44.24848" lon="5.41786">
        <ele>1177</ele>
        <time>2026-05-13T14:18:31.000Z</time>
      </trkpt>
      <trkpt lat="44.24848" lon="5.41786">
        <ele>1177</ele>
        <time>2026-05-13T14:18:32.000Z</time>
      </trkpt>
      <trkpt lat="44.24848" lon="5.41786">
        <ele>1177</ele>
        <time>2026-05-13T14:18:33.000Z</time>
      </trkpt>
      <trkpt lat="44.24848" lon="5.41786">
        <ele>1177</ele>
        <time>2026-05-13T14:18:34.000Z</time>
      </trkpt>
      <trkpt lat="44.24848" lon="5.41786">
        <ele>1177</ele>
        <time>2026-05-13T14:18:35.000Z</time>
      </trkpt>
      <trkpt lat="44.24848" lon="5.41786">
        <ele>1177</ele>
        <time>2026-05-13T14:18:36.000Z</time>
      </trkpt>
      <trkpt lat="44.24848" lon="5.41786">
        <ele>1177</ele>
        <time>2026-05-13T14:18:37.000Z</time>
      </trkpt>
      <trkpt lat="44.24848" lon="5.41786">
        <ele>1177</ele>
        <time>2026-05-13T14:18:38.000Z</time>
      </trkpt>
      <trkpt lat="44.24848" lon="5.41786">
        <ele>1177</ele>
        <time>2026-05-13T14:18:39.000Z</time>
      </trkpt>
      <trkpt lat="44.24848" lon="5.41786">
        <ele>1177</ele>
        <time>2026-05-13T14:18:40.000Z</time>
      </trkpt>
      <trkpt lat="44.24848" lon="5.41786">
        <ele>1177</ele>
        <time>2026-05-13T14:18:41.000Z</time>
      </trkpt>
      <trkpt lat="44.24848" lon="5.41786">
        <ele>1177</ele>
        <time>2026-05-13T14:18:42.000Z</time>
      </trkpt>
      <trkpt lat="44.24848" lon="5.41786">
        <ele>1177</ele>
        <time>2026-05-13T14:18:43.000Z</time>
      </trkpt>
      <trkpt lat="44.24848" lon="5.41786">
        <ele>1177</ele>
        <time>2026-05-13T14:18:44.000Z</time>
      </trkpt>
      <trkpt lat="44.24848" lon="5.41786">
        <ele>1177</ele>
        <time>2026-05-13T14:18:45.000Z</time>
      </trkpt>
      <trkpt lat="44.24848" lon="5.41786">
        <ele>1177</ele>
        <time>2026-05-13T14:18:46.000Z</time>
      </trkpt>
      <trkpt lat="44.24848" lon="5.41786">
        <ele>1177</ele>
        <time>2026-05-13T14:18:47.000Z</time>
      </trkpt>
      <trkpt lat="44.24848" lon="5.41786">
        <ele>1177</ele>
        <time>2026-05-13T14:18:48.000Z</time>
      </trkpt>
      <trkpt lat="44.24848" lon="5.41786">
        <ele>1177</ele>
        <time>2026-05-13T14:18:49.000Z</time>
      </trkpt>
      <trkpt lat="44.24848" lon="5.41786">
        <ele>1177</ele>
        <time>2026-05-13T14:18:50.000Z</time>
      </trkpt>
      <trkpt lat="44.24848" lon="5.41786">
        <ele>1177</ele>
        <time>2026-05-13T14:18:51.000Z</time>
      </trkpt>
      <trkpt lat="44.24848" lon="5.41786">
        <ele>1177</ele>
        <time>2026-05-13T14:18:52.000Z</time>
      </trkpt>
      <trkpt lat="44.24848" lon="5.41786">
        <ele>1177</ele>
        <time>2026-05-13T14:18:53.000Z</time>
      </trkpt>
      <trkpt lat="44.24848" lon="5.41786">
        <ele>1177</ele>
        <time>2026-05-13T14:18:54.000Z</time>
      </trkpt>
      <trkpt lat="44.24848" lon="5.41786">
        <ele>1177</ele>
        <time>2026-05-13T14:18:55.000Z</time>
      </trkpt>
      <trkpt lat="44.24848" lon="5.41786">
        <ele>1177</ele>
        <time>2026-05-13T14:18:56.000Z</time>
      </trkpt>
      <trkpt lat="44.24848" lon="5.41786">
        <ele>1177</ele>
        <time>2026-05-13T14:18:57.000Z</time>
      </trkpt>
      <trkpt lat="44.24848" lon="5.41786">
        <ele>1177</ele>
        <time>2026-05-13T14:18:58.000Z</time>
      </trkpt>
      <trkpt lat="44.24848" lon="5.41786">
        <ele>1177</ele>
        <time>2026-05-13T14:18:59.000Z</time>
      </trkpt>
      <trkpt lat="44.24848" lon="5.41786">
        <ele>1177</ele>
        <time>2026-05-13T14:19:00.000Z</time>
      </trkpt>
      <trkpt lat="44.24848" lon="5.41786">
        <ele>1177</ele>
        <time>2026-05-13T14:19:01.000Z</time>
      </trkpt>
      <trkpt lat="44.24848" lon="5.41786">
        <ele>1177</ele>
        <time>2026-05-13T14:19:02.000Z</time>
      </trkpt>
      <trkpt lat="44.24848" lon="5.41786">
        <ele>1177</ele>
        <time>2026-05-13T14:19:03.000Z</time>
      </trkpt>
      <trkpt lat="44.24848" lon="5.41786">
        <ele>1177</ele>
        <time>2026-05-13T14:19:04.000Z</time>
      </trkpt>
      <trkpt lat="44.24848" lon="5.41786">
        <ele>1177</ele>
        <time>2026-05-13T14:19:05.000Z</time>
      </trkpt>
      <trkpt lat="44.24848" lon="5.41786">
        <ele>1177</ele>
        <time>2026-05-13T14:19:06.000Z</time>
      </trkpt>
      <trkpt lat="44.24848" lon="5.41786">
        <ele>1177</ele>
        <time>2026-05-13T14:19:07.000Z</time>
      </trkpt>
      <trkpt lat="44.24848" lon="5.41786">
        <ele>1177</ele>
        <time>2026-05-13T14:19:08.000Z</time>
      </trkpt>
      <trkpt lat="44.24848" lon="5.41786">
        <ele>1177</ele>
        <time>2026-05-13T14:19:09.000Z</time>
      </trkpt>
      <trkpt lat="44.24848" lon="5.41786">
        <ele>1177</ele>
        <time>2026-05-13T14:19:10.000Z</time>
      </trkpt>
      <trkpt lat="44.24848" lon="5.41786">
        <ele>1177</ele>
        <time>2026-05-13T14:19:11.000Z</time>
      </trkpt>
      <trkpt lat="44.24847" lon="5.41786">
        <ele>1178</ele>
        <time>2026-05-13T14:19:12.000Z</time>
      </trkpt>
      <trkpt lat="44.24847" lon="5.41786">
        <ele>1177</ele>
        <time>2026-05-13T14:19:13.000Z</time>
      </trkpt>
      <trkpt lat="44.24847" lon="5.41785">
        <ele>1177</ele>
        <time>2026-05-13T14:19:14.000Z</time>
      </trkpt>
      <trkpt lat="44.24847" lon="5.41785">
        <ele>1177</ele>
        <time>2026-05-13T14:19:15.000Z</time>
      </trkpt>
      <trkpt lat="44.24847" lon="5.41785">
        <ele>1178</ele>
        <time>2026-05-13T14:19:16.000Z</time>
      </trkpt>
      <trkpt lat="44.24847" lon="5.41785">
        <ele>1178</ele>
        <time>2026-05-13T14:19:17.000Z</time>
      </trkpt>
      <trkpt lat="44.24847" lon="5.41785">
        <ele>1178</ele>
        <time>2026-05-13T14:19:18.000Z</time>
      </trkpt>
      <trkpt lat="44.24847" lon="5.41785">
        <ele>1178</ele>
        <time>2026-05-13T14:19:19.000Z</time>
      </trkpt>
      <trkpt lat="44.24847" lon="5.41785">
        <ele>1178</ele>
        <time>2026-05-13T14:19:20.000Z</time>
      </trkpt>
      <trkpt lat="44.24847" lon="5.41785">
        <ele>1178</ele>
        <time>2026-05-13T14:19:21.000Z</time>
      </trkpt>
      <trkpt lat="44.24847" lon="5.41786">
        <ele>1177</ele>
        <time>2026-05-13T14:19:22.000Z</time>
      </trkpt>
      <trkpt lat="44.24847" lon="5.41786">
        <ele>1178</ele>
        <time>2026-05-13T14:19:23.000Z</time>
      </trkpt>
      <trkpt lat="44.24848" lon="5.41786">
        <ele>1177</ele>
        <time>2026-05-13T14:19:24.000Z</time>
      </trkpt>
      <trkpt lat="44.24848" lon="5.41786">
        <ele>1176</ele>
        <time>2026-05-13T14:19:25.000Z</time>
      </trkpt>
      <trkpt lat="44.24849" lon="5.41786">
        <ele>1176</ele>
        <time>2026-05-13T14:19:26.000Z</time>
      </trkpt>
      <trkpt lat="44.24849" lon="5.41786">
        <ele>1176</ele>
        <time>2026-05-13T14:19:27.000Z</time>
      </trkpt>
      <trkpt lat="44.2485" lon="5.41786">
        <ele>1177</ele>
        <time>2026-05-13T14:19:28.000Z</time>
      </trkpt>
      <trkpt lat="44.2485" lon="5.41786">
        <ele>1177</ele>
        <time>2026-05-13T14:19:29.000Z</time>
      </trkpt>
      <trkpt lat="44.2485" lon="5.41786">
        <ele>1177</ele>
        <time>2026-05-13T14:19:30.000Z</time>
      </trkpt>
      <trkpt lat="44.2485" lon="5.41786">
        <ele>1177</ele>
        <time>2026-05-13T14:19:31.000Z</time>
      </trkpt>
      <trkpt lat="44.2485" lon="5.41786">
        <ele>1177</ele>
        <time>2026-05-13T14:19:32.000Z</time>
      </trkpt>
      <trkpt lat="44.2485" lon="5.41786">
        <ele>1177</ele>
        <time>2026-05-13T14:19:33.000Z</time>
      </trkpt>
      <trkpt lat="44.2485" lon="5.41786">
        <ele>1177</ele>
        <time>2026-05-13T14:19:34.000Z</time>
      </trkpt>
      <trkpt lat="44.2485" lon="5.41786">
        <ele>1177</ele>
        <time>2026-05-13T14:19:35.000Z</time>
      </trkpt>
      <trkpt lat="44.2485" lon="5.41785">
        <ele>1176</ele>
        <time>2026-05-13T14:19:36.000Z</time>
      </trkpt>
      <trkpt lat="44.2485" lon="5.41784">
        <ele>1177</ele>
        <time>2026-05-13T14:19:37.000Z</time>
      </trkpt>
      <trkpt lat="44.2485" lon="5.41785">
        <ele>1177</ele>
        <time>2026-05-13T14:19:38.000Z</time>
      </trkpt>
      <trkpt lat="44.2485" lon="5.41785">
        <ele>1177</ele>
        <time>2026-05-13T14:19:39.000Z</time>
      </trkpt>
      <trkpt lat="44.2485" lon="5.41787">
        <ele>1176</ele>
        <time>2026-05-13T14:19:40.000Z</time>
      </trkpt>
      <trkpt lat="44.24851" lon="5.41787">
        <ele>1176</ele>
        <time>2026-05-13T14:19:41.000Z</time>
      </trkpt>
      <trkpt lat="44.24852" lon="5.41786">
        <ele>1176</ele>
        <time>2026-05-13T14:19:42.000Z</time>
      </trkpt>
      <trkpt lat="44.24853" lon="5.41786">
        <ele>1177</ele>
        <time>2026-05-13T14:19:43.000Z</time>
      </trkpt>
      <trkpt lat="44.24854" lon="5.41787">
        <ele>1177</ele>
        <time>2026-05-13T14:19:44.000Z</time>
      </trkpt>
      <trkpt lat="44.24854" lon="5.41787">
        <ele>1177</ele>
        <time>2026-05-13T14:19:45.000Z</time>
      </trkpt>
      <trkpt lat="44.24856" lon="5.41787">
        <ele>1177</ele>
        <time>2026-05-13T14:19:46.000Z</time>
      </trkpt>
      <trkpt lat="44.24856" lon="5.41788">
        <ele>1177</ele>
        <time>2026-05-13T14:19:47.000Z</time>
      </trkpt>
      <trkpt lat="44.24857" lon="5.41789">
        <ele>1178</ele>
        <time>2026-05-13T14:19:48.000Z</time>
      </trkpt>
      <trkpt lat="44.24858" lon="5.4179">
        <ele>1178</ele>
        <time>2026-05-13T14:19:49.000Z</time>
      </trkpt>
      <trkpt lat="44.24858" lon="5.4179">
        <ele>1178</ele>
        <time>2026-05-13T14:19:50.000Z</time>
      </trkpt>
      <trkpt lat="44.24858" lon="5.4179">
        <ele>1178</ele>
        <time>2026-05-13T14:19:51.000Z</time>
      </trkpt>
      <trkpt lat="44.24859" lon="5.41791">
        <ele>1178</ele>
        <time>2026-05-13T14:19:52.000Z</time>
      </trkpt>
      <trkpt lat="44.2486" lon="5.41791">
        <ele>1178</ele>
        <time>2026-05-13T14:19:53.000Z</time>
      </trkpt>
      <trkpt lat="44.2486" lon="5.41791">
        <ele>1179</ele>
        <time>2026-05-13T14:19:54.000Z</time>
      </trkpt>
      <trkpt lat="44.24861" lon="5.4179">
        <ele>1179</ele>
        <time>2026-05-13T14:19:55.000Z</time>
      </trkpt>
      <trkpt lat="44.24862" lon="5.4179">
        <ele>1179</ele>
        <time>2026-05-13T14:19:56.000Z</time>
      </trkpt>
      <trkpt lat="44.24863" lon="5.41789">
        <ele>1179</ele>
        <time>2026-05-13T14:19:57.000Z</time>
      </trkpt>
      <trkpt lat="44.24863" lon="5.41788">
        <ele>1179</ele>
        <time>2026-05-13T14:19:58.000Z</time>
      </trkpt>
      <trkpt lat="44.24863" lon="5.41788">
        <ele>1179</ele>
        <time>2026-05-13T14:19:59.000Z</time>
      </trkpt>
      <trkpt lat="44.24864" lon="5.41786">
        <ele>1179</ele>
        <time>2026-05-13T14:20:00.000Z</time>
      </trkpt>
      <trkpt lat="44.24864" lon="5.41785">
        <ele>1178</ele>
        <time>2026-05-13T14:20:01.000Z</time>
      </trkpt>
      <trkpt lat="44.24864" lon="5.41785">
        <ele>1178</ele>
        <time>2026-05-13T14:20:02.000Z</time>
      </trkpt>
      <trkpt lat="44.24865" lon="5.41783">
        <ele>1178</ele>
        <time>2026-05-13T14:20:03.000Z</time>
      </trkpt>
      <trkpt lat="44.24866" lon="5.41782">
        <ele>1178</ele>
        <time>2026-05-13T14:20:04.000Z</time>
      </trkpt>
      <trkpt lat="44.24865" lon="5.41781">
        <ele>1178</ele>
        <time>2026-05-13T14:20:05.000Z</time>
      </trkpt>
      <trkpt lat="44.24865" lon="5.4178">
        <ele>1179</ele>
        <time>2026-05-13T14:20:06.000Z</time>
      </trkpt>
      <trkpt lat="44.24866" lon="5.41779">
        <ele>1178</ele>
        <time>2026-05-13T14:20:07.000Z</time>
      </trkpt>
      <trkpt lat="44.24865" lon="5.41779">
        <ele>1179</ele>
        <time>2026-05-13T14:20:08.000Z</time>
      </trkpt>
      <trkpt lat="44.24865" lon="5.41779">
        <ele>1179</ele>
        <time>2026-05-13T14:20:09.000Z</time>
      </trkpt>
      <trkpt lat="44.24865" lon="5.4178">
        <ele>1178</ele>
        <time>2026-05-13T14:20:10.000Z</time>
      </trkpt>
      <trkpt lat="44.24865" lon="5.4178">
        <ele>1178</ele>
        <time>2026-05-13T14:20:11.000Z</time>
      </trkpt>
      <trkpt lat="44.24865" lon="5.4178">
        <ele>1178</ele>
        <time>2026-05-13T14:20:12.000Z</time>
      </trkpt>
      <trkpt lat="44.24865" lon="5.4178">
        <ele>1178</ele>
        <time>2026-05-13T14:20:13.000Z</time>
      </trkpt>
      <trkpt lat="44.24865" lon="5.4178">
        <ele>1178</ele>
        <time>2026-05-13T14:20:14.000Z</time>
      </trkpt>
      <trkpt lat="44.24865" lon="5.4178">
        <ele>1177</ele>
        <time>2026-05-13T14:20:15.000Z</time>
      </trkpt>
      <trkpt lat="44.24865" lon="5.4178">
        <ele>1177</ele>
        <time>2026-05-13T14:20:16.000Z</time>
      </trkpt>
      <trkpt lat="44.24865" lon="5.4178">
        <ele>1177</ele>
        <time>2026-05-13T14:20:17.000Z</time>
      </trkpt>
      <trkpt lat="44.24864" lon="5.4178">
        <ele>1178</ele>
        <time>2026-05-13T14:20:18.000Z</time>
      </trkpt>
      <trkpt lat="44.24864" lon="5.41781">
        <ele>1178</ele>
        <time>2026-05-13T14:20:19.000Z</time>
      </trkpt>
      <trkpt lat="44.24863" lon="5.41781">
        <ele>1178</ele>
        <time>2026-05-13T14:20:20.000Z</time>
      </trkpt>
      <trkpt lat="44.24862" lon="5.41781">
        <ele>1179</ele>
        <time>2026-05-13T14:20:21.000Z</time>
      </trkpt>
      <trkpt lat="44.24862" lon="5.41782">
        <ele>1179</ele>
        <time>2026-05-13T14:20:22.000Z</time>
      </trkpt>
      <trkpt lat="44.24862" lon="5.41784">
        <ele>1179</ele>
        <time>2026-05-13T14:20:23.000Z</time>
      </trkpt>
      <trkpt lat="44.24863" lon="5.41785">
        <ele>1179</ele>
        <time>2026-05-13T14:20:24.000Z</time>
      </trkpt>
      <trkpt lat="44.24864" lon="5.41786">
        <ele>1179</ele>
        <time>2026-05-13T14:20:25.000Z</time>
      </trkpt>
      <trkpt lat="44.24865" lon="5.41787">
        <ele>1179</ele>
        <time>2026-05-13T14:20:26.000Z</time>
      </trkpt>
      <trkpt lat="44.24866" lon="5.41787">
        <ele>1179</ele>
        <time>2026-05-13T14:20:27.000Z</time>
      </trkpt>
      <trkpt lat="44.24867" lon="5.41786">
        <ele>1178</ele>
        <time>2026-05-13T14:20:28.000Z</time>
      </trkpt>
      <trkpt lat="44.24869" lon="5.41786">
        <ele>1178</ele>
        <time>2026-05-13T14:20:29.000Z</time>
      </trkpt>
      <trkpt lat="44.2487" lon="5.41786">
        <ele>1178</ele>
        <time>2026-05-13T14:20:30.000Z</time>
      </trkpt>
      <trkpt lat="44.24871" lon="5.41786">
        <ele>1178</ele>
        <time>2026-05-13T14:20:31.000Z</time>
      </trkpt>
      <trkpt lat="44.24871" lon="5.41785">
        <ele>1179</ele>
        <time>2026-05-13T14:20:32.000Z</time>
      </trkpt>
      <trkpt lat="44.24872" lon="5.41785">
        <ele>1179</ele>
        <time>2026-05-13T14:20:33.000Z</time>
      </trkpt>
      <trkpt lat="44.24874" lon="5.41785">
        <ele>1179</ele>
        <time>2026-05-13T14:20:34.000Z</time>
      </trkpt>
      <trkpt lat="44.24875" lon="5.41784">
        <ele>1179</ele>
        <time>2026-05-13T14:20:35.000Z</time>
      </trkpt>
      <trkpt lat="44.24875" lon="5.41782">
        <ele>1180</ele>
        <time>2026-05-13T14:20:36.000Z</time>
      </trkpt>
      <trkpt lat="44.24875" lon="5.41781">
        <ele>1179</ele>
        <time>2026-05-13T14:20:37.000Z</time>
      </trkpt>
      <trkpt lat="44.24875" lon="5.4178">
        <ele>1179</ele>
        <time>2026-05-13T14:20:38.000Z</time>
      </trkpt>
      <trkpt lat="44.24875" lon="5.41778">
        <ele>1179</ele>
        <time>2026-05-13T14:20:39.000Z</time>
      </trkpt>
      <trkpt lat="44.24875" lon="5.41777">
        <ele>1179</ele>
        <time>2026-05-13T14:20:40.000Z</time>
      </trkpt>
      <trkpt lat="44.24875" lon="5.41776">
        <ele>1179</ele>
        <time>2026-05-13T14:20:41.000Z</time>
      </trkpt>
      <trkpt lat="44.24875" lon="5.41775">
        <ele>1179</ele>
        <time>2026-05-13T14:20:42.000Z</time>
      </trkpt>
      <trkpt lat="44.24875" lon="5.41774">
        <ele>1179</ele>
        <time>2026-05-13T14:20:43.000Z</time>
      </trkpt>
      <trkpt lat="44.24876" lon="5.41774">
        <ele>1178</ele>
        <time>2026-05-13T14:20:44.000Z</time>
      </trkpt>
      <trkpt lat="44.24876" lon="5.41774">
        <ele>1178</ele>
        <time>2026-05-13T14:20:45.000Z</time>
      </trkpt>
      <trkpt lat="44.24877" lon="5.41774">
        <ele>1178</ele>
        <time>2026-05-13T14:20:46.000Z</time>
      </trkpt>
      <trkpt lat="44.24877" lon="5.41773">
        <ele>1178</ele>
        <time>2026-05-13T14:20:47.000Z</time>
      </trkpt>
      <trkpt lat="44.24876" lon="5.41771">
        <ele>1178</ele>
        <time>2026-05-13T14:20:48.000Z</time>
      </trkpt>
      <trkpt lat="44.24877" lon="5.41772">
        <ele>1177</ele>
        <time>2026-05-13T14:20:49.000Z</time>
      </trkpt>
      <trkpt lat="44.24877" lon="5.41771">
        <ele>1177</ele>
        <time>2026-05-13T14:20:50.000Z</time>
      </trkpt>
      <trkpt lat="44.24876" lon="5.41772">
        <ele>1178</ele>
        <time>2026-05-13T14:20:51.000Z</time>
      </trkpt>
      <trkpt lat="44.24876" lon="5.41772">
        <ele>1178</ele>
        <time>2026-05-13T14:20:52.000Z</time>
      </trkpt>
      <trkpt lat="44.24877" lon="5.41773">
        <ele>1178</ele>
        <time>2026-05-13T14:20:53.000Z</time>
      </trkpt>
      <trkpt lat="44.24877" lon="5.41773">
        <ele>1177</ele>
        <time>2026-05-13T14:20:54.000Z</time>
      </trkpt>
      <trkpt lat="44.24877" lon="5.41773">
        <ele>1177</ele>
        <time>2026-05-13T14:20:55.000Z</time>
      </trkpt>
      <trkpt lat="44.24877" lon="5.41773">
        <ele>1177</ele>
        <time>2026-05-13T14:20:56.000Z</time>
      </trkpt>
      <trkpt lat="44.24877" lon="5.41773">
        <ele>1177</ele>
        <time>2026-05-13T14:20:57.000Z</time>
      </trkpt>
      <trkpt lat="44.24877" lon="5.41773">
        <ele>1177</ele>
        <time>2026-05-13T14:20:58.000Z</time>
      </trkpt>
      <trkpt lat="44.24877" lon="5.41773">
        <ele>1177</ele>
        <time>2026-05-13T14:20:59.000Z</time>
      </trkpt>
      <trkpt lat="44.24877" lon="5.41773">
        <ele>1177</ele>
        <time>2026-05-13T14:21:00.000Z</time>
      </trkpt>
      <trkpt lat="44.24878" lon="5.41773">
        <ele>1177</ele>
        <time>2026-05-13T14:21:01.000Z</time>
      </trkpt>
      <trkpt lat="44.24878" lon="5.41771">
        <ele>1177</ele>
        <time>2026-05-13T14:21:02.000Z</time>
      </trkpt>
      <trkpt lat="44.24878" lon="5.4177">
        <ele>1178</ele>
        <time>2026-05-13T14:21:03.000Z</time>
      </trkpt>
      <trkpt lat="44.24877" lon="5.41769">
        <ele>1177</ele>
        <time>2026-05-13T14:21:04.000Z</time>
      </trkpt>
      <trkpt lat="44.24877" lon="5.41768">
        <ele>1177</ele>
        <time>2026-05-13T14:21:05.000Z</time>
      </trkpt>
      <trkpt lat="44.24876" lon="5.41767">
        <ele>1176</ele>
        <time>2026-05-13T14:21:06.000Z</time>
      </trkpt>
      <trkpt lat="44.24876" lon="5.41767">
        <ele>1176</ele>
        <time>2026-05-13T14:21:07.000Z</time>
      </trkpt>
      <trkpt lat="44.24876" lon="5.41766">
        <ele>1175</ele>
        <time>2026-05-13T14:21:08.000Z</time>
      </trkpt>
      <trkpt lat="44.24876" lon="5.41767">
        <ele>1176</ele>
        <time>2026-05-13T14:21:09.000Z</time>
      </trkpt>
      <trkpt lat="44.24876" lon="5.41767">
        <ele>1175</ele>
        <time>2026-05-13T14:21:10.000Z</time>
      </trkpt>
      <trkpt lat="44.24876" lon="5.41767">
        <ele>1176</ele>
        <time>2026-05-13T14:21:11.000Z</time>
      </trkpt>
      <trkpt lat="44.24876" lon="5.41766">
        <ele>1176</ele>
        <time>2026-05-13T14:21:12.000Z</time>
      </trkpt>
      <trkpt lat="44.24876" lon="5.41765">
        <ele>1175</ele>
        <time>2026-05-13T14:21:13.000Z</time>
      </trkpt>
      <trkpt lat="44.24875" lon="5.41764">
        <ele>1175</ele>
        <time>2026-05-13T14:21:14.000Z</time>
      </trkpt>
      <trkpt lat="44.24875" lon="5.41763">
        <ele>1175</ele>
        <time>2026-05-13T14:21:15.000Z</time>
      </trkpt>
      <trkpt lat="44.24876" lon="5.41763">
        <ele>1175</ele>
        <time>2026-05-13T14:21:16.000Z</time>
      </trkpt>
      <trkpt lat="44.24876" lon="5.41763">
        <ele>1174</ele>
        <time>2026-05-13T14:21:17.000Z</time>
      </trkpt>
      <trkpt lat="44.24876" lon="5.41762">
        <ele>1174</ele>
        <time>2026-05-13T14:21:18.000Z</time>
      </trkpt>
      <trkpt lat="44.24876" lon="5.41762">
        <ele>1175</ele>
        <time>2026-05-13T14:21:19.000Z</time>
      </trkpt>
      <trkpt lat="44.24876" lon="5.41763">
        <ele>1175</ele>
        <time>2026-05-13T14:21:20.000Z</time>
      </trkpt>
      <trkpt lat="44.24877" lon="5.41763">
        <ele>1175</ele>
        <time>2026-05-13T14:21:21.000Z</time>
      </trkpt>
      <trkpt lat="44.24878" lon="5.41763">
        <ele>1175</ele>
        <time>2026-05-13T14:21:22.000Z</time>
      </trkpt>
      <trkpt lat="44.24878" lon="5.41763">
        <ele>1175</ele>
        <time>2026-05-13T14:21:23.000Z</time>
      </trkpt>
      <trkpt lat="44.24878" lon="5.41763">
        <ele>1175</ele>
        <time>2026-05-13T14:21:24.000Z</time>
      </trkpt>
      <trkpt lat="44.24878" lon="5.41763">
        <ele>1174</ele>
        <time>2026-05-13T14:21:25.000Z</time>
      </trkpt>
      <trkpt lat="44.24878" lon="5.41763">
        <ele>1174</ele>
        <time>2026-05-13T14:21:26.000Z</time>
      </trkpt>
      <trkpt lat="44.24878" lon="5.41763">
        <ele>1174</ele>
        <time>2026-05-13T14:21:27.000Z</time>
      </trkpt>
      <trkpt lat="44.24877" lon="5.41763">
        <ele>1174</ele>
        <time>2026-05-13T14:21:28.000Z</time>
      </trkpt>
      <trkpt lat="44.24878" lon="5.41763">
        <ele>1175</ele>
        <time>2026-05-13T14:21:29.000Z</time>
      </trkpt>
      <trkpt lat="44.24877" lon="5.41763">
        <ele>1176</ele>
        <time>2026-05-13T14:21:30.000Z</time>
      </trkpt>
      <trkpt lat="44.24877" lon="5.41763">
        <ele>1177</ele>
        <time>2026-05-13T14:21:31.000Z</time>
      </trkpt>
      <trkpt lat="44.24877" lon="5.41764">
        <ele>1177</ele>
        <time>2026-05-13T14:21:32.000Z</time>
      </trkpt>
      <trkpt lat="44.24877" lon="5.41764">
        <ele>1177</ele>
        <time>2026-05-13T14:21:33.000Z</time>
      </trkpt>
      <trkpt lat="44.24877" lon="5.41764">
        <ele>1177</ele>
        <time>2026-05-13T14:21:34.000Z</time>
      </trkpt>
      <trkpt lat="44.24877" lon="5.41764">
        <ele>1177</ele>
        <time>2026-05-13T14:21:35.000Z</time>
      </trkpt>
      <trkpt lat="44.24878" lon="5.41764">
        <ele>1177</ele>
        <time>2026-05-13T14:21:36.000Z</time>
      </trkpt>
      <trkpt lat="44.24878" lon="5.41764">
        <ele>1177</ele>
        <time>2026-05-13T14:21:37.000Z</time>
      </trkpt>
      <trkpt lat="44.24878" lon="5.41764">
        <ele>1178</ele>
        <time>2026-05-13T14:21:38.000Z</time>
      </trkpt>
      <trkpt lat="44.24878" lon="5.41764">
        <ele>1178</ele>
        <time>2026-05-13T14:21:39.000Z</time>
      </trkpt>
      <trkpt lat="44.24878" lon="5.41765">
        <ele>1177</ele>
        <time>2026-05-13T14:21:40.000Z</time>
      </trkpt>
      <trkpt lat="44.24878" lon="5.41765">
        <ele>1177</ele>
        <time>2026-05-13T14:21:41.000Z</time>
      </trkpt>
      <trkpt lat="44.24878" lon="5.41765">
        <ele>1177</ele>
        <time>2026-05-13T14:21:42.000Z</time>
      </trkpt>
      <trkpt lat="44.24878" lon="5.41764">
        <ele>1177</ele>
        <time>2026-05-13T14:21:43.000Z</time>
      </trkpt>
      <trkpt lat="44.24877" lon="5.41764">
        <ele>1176</ele>
        <time>2026-05-13T14:21:44.000Z</time>
      </trkpt>
      <trkpt lat="44.24876" lon="5.41765">
        <ele>1177</ele>
        <time>2026-05-13T14:21:45.000Z</time>
      </trkpt>
      <trkpt lat="44.24875" lon="5.41764">
        <ele>1176</ele>
        <time>2026-05-13T14:21:46.000Z</time>
      </trkpt>
      <trkpt lat="44.24875" lon="5.41764">
        <ele>1177</ele>
        <time>2026-05-13T14:21:47.000Z</time>
      </trkpt>
      <trkpt lat="44.24875" lon="5.41764">
        <ele>1177</ele>
        <time>2026-05-13T14:21:48.000Z</time>
      </trkpt>
      <trkpt lat="44.24875" lon="5.41765">
        <ele>1177</ele>
        <time>2026-05-13T14:21:49.000Z</time>
      </trkpt>
      <trkpt lat="44.24875" lon="5.41767">
        <ele>1177</ele>
        <time>2026-05-13T14:21:50.000Z</time>
      </trkpt>
      <trkpt lat="44.24876" lon="5.41767">
        <ele>1178</ele>
        <time>2026-05-13T14:21:51.000Z</time>
      </trkpt>
      <trkpt lat="44.24876" lon="5.41768">
        <ele>1177</ele>
        <time>2026-05-13T14:21:52.000Z</time>
      </trkpt>
      <trkpt lat="44.24875" lon="5.41769">
        <ele>1177</ele>
        <time>2026-05-13T14:21:53.000Z</time>
      </trkpt>
      <trkpt lat="44.24875" lon="5.41769">
        <ele>1177</ele>
        <time>2026-05-13T14:21:54.000Z</time>
      </trkpt>
      <trkpt lat="44.24875" lon="5.4177">
        <ele>1177</ele>
        <time>2026-05-13T14:21:55.000Z</time>
      </trkpt>
      <trkpt lat="44.24875" lon="5.41771">
        <ele>1176</ele>
        <time>2026-05-13T14:21:56.000Z</time>
      </trkpt>
      <trkpt lat="44.24875" lon="5.41771">
        <ele>1176</ele>
        <time>2026-05-13T14:21:57.000Z</time>
      </trkpt>
      <trkpt lat="44.24875" lon="5.41771">
        <ele>1176</ele>
        <time>2026-05-13T14:21:58.000Z</time>
      </trkpt>
      <trkpt lat="44.24875" lon="5.41771">
        <ele>1176</ele>
        <time>2026-05-13T14:21:59.000Z</time>
      </trkpt>
      <trkpt lat="44.24875" lon="5.41771">
        <ele>1176</ele>
        <time>2026-05-13T14:22:00.000Z</time>
      </trkpt>
      <trkpt lat="44.24875" lon="5.4177">
        <ele>1175</ele>
        <time>2026-05-13T14:22:01.000Z</time>
      </trkpt>
      <trkpt lat="44.24875" lon="5.4177">
        <ele>1175</ele>
        <time>2026-05-13T14:22:02.000Z</time>
      </trkpt>
      <trkpt lat="44.24875" lon="5.4177">
        <ele>1175</ele>
        <time>2026-05-13T14:22:03.000Z</time>
      </trkpt>
      <trkpt lat="44.24875" lon="5.4177">
        <ele>1175</ele>
        <time>2026-05-13T14:22:04.000Z</time>
      </trkpt>
      <trkpt lat="44.24875" lon="5.4177">
        <ele>1175</ele>
        <time>2026-05-13T14:22:05.000Z</time>
      </trkpt>
      <trkpt lat="44.24875" lon="5.4177">
        <ele>1175</ele>
        <time>2026-05-13T14:22:06.000Z</time>
      </trkpt>
      <trkpt lat="44.24875" lon="5.4177">
        <ele>1175</ele>
        <time>2026-05-13T14:22:07.000Z</time>
      </trkpt>
      <trkpt lat="44.24875" lon="5.4177">
        <ele>1175</ele>
        <time>2026-05-13T14:22:08.000Z</time>
      </trkpt>
      <trkpt lat="44.24875" lon="5.4177">
        <ele>1175</ele>
        <time>2026-05-13T14:22:09.000Z</time>
      </trkpt>
      <trkpt lat="44.24875" lon="5.4177">
        <ele>1175</ele>
        <time>2026-05-13T14:22:10.000Z</time>
      </trkpt>
      <trkpt lat="44.24875" lon="5.4177">
        <ele>1175</ele>
        <time>2026-05-13T14:22:11.000Z</time>
      </trkpt>
      <trkpt lat="44.24875" lon="5.4177">
        <ele>1175</ele>
        <time>2026-05-13T14:22:12.000Z</time>
      </trkpt>
      <trkpt lat="44.24875" lon="5.4177">
        <ele>1175</ele>
        <time>2026-05-13T14:22:13.000Z</time>
      </trkpt>
      <trkpt lat="44.24875" lon="5.4177">
        <ele>1175</ele>
        <time>2026-05-13T14:22:14.000Z</time>
      </trkpt>
      <trkpt lat="44.24875" lon="5.4177">
        <ele>1175</ele>
        <time>2026-05-13T14:22:15.000Z</time>
      </trkpt>
      <trkpt lat="44.24875" lon="5.4177">
        <ele>1175</ele>
        <time>2026-05-13T14:22:16.000Z</time>
      </trkpt>
      <trkpt lat="44.24875" lon="5.4177">
        <ele>1175</ele>
        <time>2026-05-13T14:22:17.000Z</time>
      </trkpt>
      <trkpt lat="44.24875" lon="5.4177">
        <ele>1175</ele>
        <time>2026-05-13T14:22:18.000Z</time>
      </trkpt>
      <trkpt lat="44.24875" lon="5.4177">
        <ele>1175</ele>
        <time>2026-05-13T14:22:19.000Z</time>
      </trkpt>
      <trkpt lat="44.24875" lon="5.4177">
        <ele>1175</ele>
        <time>2026-05-13T14:22:20.000Z</time>
      </trkpt>
      <trkpt lat="44.24874" lon="5.4177">
        <ele>1176</ele>
        <time>2026-05-13T14:22:21.000Z</time>
      </trkpt>
      <trkpt lat="44.24874" lon="5.4177">
        <ele>1176</ele>
        <time>2026-05-13T14:22:22.000Z</time>
      </trkpt>
      <trkpt lat="44.24874" lon="5.41771">
        <ele>1177</ele>
        <time>2026-05-13T14:22:23.000Z</time>
      </trkpt>
      <trkpt lat="44.24875" lon="5.41772">
        <ele>1177</ele>
        <time>2026-05-13T14:22:24.000Z</time>
      </trkpt>
      <trkpt lat="44.24875" lon="5.41773">
        <ele>1177</ele>
        <time>2026-05-13T14:22:25.000Z</time>
      </trkpt>
      <trkpt lat="44.24875" lon="5.41774">
        <ele>1178</ele>
        <time>2026-05-13T14:22:26.000Z</time>
      </trkpt>
      <trkpt lat="44.24876" lon="5.41774">
        <ele>1178</ele>
        <time>2026-05-13T14:22:27.000Z</time>
      </trkpt>
      <trkpt lat="44.24877" lon="5.41775">
        <ele>1178</ele>
        <time>2026-05-13T14:22:28.000Z</time>
      </trkpt>
      <trkpt lat="44.24877" lon="5.41775">
        <ele>1178</ele>
        <time>2026-05-13T14:22:29.000Z</time>
      </trkpt>
      <trkpt lat="44.24878" lon="5.41775">
        <ele>1178</ele>
        <time>2026-05-13T14:22:30.000Z</time>
      </trkpt>
      <trkpt lat="44.24877" lon="5.41774">
        <ele>1178</ele>
        <time>2026-05-13T14:22:31.000Z</time>
      </trkpt>
      <trkpt lat="44.24877" lon="5.41774">
        <ele>1178</ele>
        <time>2026-05-13T14:22:32.000Z</time>
      </trkpt>
      <trkpt lat="44.24877" lon="5.41774">
        <ele>1178</ele>
        <time>2026-05-13T14:22:33.000Z</time>
      </trkpt>
      <trkpt lat="44.24877" lon="5.41774">
        <ele>1178</ele>
        <time>2026-05-13T14:22:34.000Z</time>
      </trkpt>
      <trkpt lat="44.24877" lon="5.41773">
        <ele>1178</ele>
        <time>2026-05-13T14:22:35.000Z</time>
      </trkpt>
      <trkpt lat="44.24877" lon="5.41773">
        <ele>1178</ele>
        <time>2026-05-13T14:22:36.000Z</time>
      </trkpt>
      <trkpt lat="44.24877" lon="5.41773">
        <ele>1177</ele>
        <time>2026-05-13T14:22:37.000Z</time>
      </trkpt>
      <trkpt lat="44.24877" lon="5.41773">
        <ele>1177</ele>
        <time>2026-05-13T14:22:38.000Z</time>
      </trkpt>
      <trkpt lat="44.24877" lon="5.41774">
        <ele>1177</ele>
        <time>2026-05-13T14:22:39.000Z</time>
      </trkpt>
      <trkpt lat="44.24877" lon="5.41774">
        <ele>1177</ele>
        <time>2026-05-13T14:22:40.000Z</time>
      </trkpt>
      <trkpt lat="44.24877" lon="5.41774">
        <ele>1177</ele>
        <time>2026-05-13T14:22:41.000Z</time>
      </trkpt>
      <trkpt lat="44.24877" lon="5.41774">
        <ele>1177</ele>
        <time>2026-05-13T14:22:42.000Z</time>
      </trkpt>
      <trkpt lat="44.24877" lon="5.41774">
        <ele>1177</ele>
        <time>2026-05-13T14:22:43.000Z</time>
      </trkpt>
      <trkpt lat="44.24877" lon="5.41774">
        <ele>1177</ele>
        <time>2026-05-13T14:22:44.000Z</time>
      </trkpt>
      <trkpt lat="44.24877" lon="5.41774">
        <ele>1177</ele>
        <time>2026-05-13T14:22:45.000Z</time>
      </trkpt>
      <trkpt lat="44.24877" lon="5.41774">
        <ele>1177</ele>
        <time>2026-05-13T14:22:46.000Z</time>
      </trkpt>
      <trkpt lat="44.24877" lon="5.41774">
        <ele>1177</ele>
        <time>2026-05-13T14:22:47.000Z</time>
      </trkpt>
      <trkpt lat="44.24877" lon="5.41774">
        <ele>1177</ele>
        <time>2026-05-13T14:22:48.000Z</time>
      </trkpt>
      <trkpt lat="44.24877" lon="5.41774">
        <ele>1177</ele>
        <time>2026-05-13T14:22:49.000Z</time>
      </trkpt>
      <trkpt lat="44.24877" lon="5.41774">
        <ele>1177</ele>
        <time>2026-05-13T14:22:50.000Z</time>
      </trkpt>
      <trkpt lat="44.24877" lon="5.41774">
        <ele>1177</ele>
        <time>2026-05-13T14:22:51.000Z</time>
      </trkpt>
      <trkpt lat="44.24877" lon="5.41774">
        <ele>1177</ele>
        <time>2026-05-13T14:22:52.000Z</time>
      </trkpt>
      <trkpt lat="44.24877" lon="5.41774">
        <ele>1177</ele>
        <time>2026-05-13T14:22:53.000Z</time>
      </trkpt>
      <trkpt lat="44.24877" lon="5.41774">
        <ele>1177</ele>
        <time>2026-05-13T14:22:54.000Z</time>
      </trkpt>
      <trkpt lat="44.24877" lon="5.41774">
        <ele>1177</ele>
        <time>2026-05-13T14:22:55.000Z</time>
      </trkpt>
      <trkpt lat="44.24877" lon="5.41774">
        <ele>1177</ele>
        <time>2026-05-13T14:22:56.000Z</time>
      </trkpt>
      <trkpt lat="44.24877" lon="5.41774">
        <ele>1177</ele>
        <time>2026-05-13T14:22:57.000Z</time>
      </trkpt>
      <trkpt lat="44.24877" lon="5.41774">
        <ele>1177</ele>
        <time>2026-05-13T14:22:58.000Z</time>
      </trkpt>
      <trkpt lat="44.24877" lon="5.41774">
        <ele>1177</ele>
        <time>2026-05-13T14:22:59.000Z</time>
      </trkpt>
      <trkpt lat="44.24877" lon="5.41774">
        <ele>1177</ele>
        <time>2026-05-13T14:23:00.000Z</time>
      </trkpt>
      <trkpt lat="44.24877" lon="5.41774">
        <ele>1177</ele>
        <time>2026-05-13T14:23:01.000Z</time>
      </trkpt>
      <trkpt lat="44.24877" lon="5.41774">
        <ele>1177</ele>
        <time>2026-05-13T14:23:02.000Z</time>
      </trkpt>
      <trkpt lat="44.24877" lon="5.41774">
        <ele>1177</ele>
        <time>2026-05-13T14:23:03.000Z</time>
      </trkpt>
      <trkpt lat="44.24877" lon="5.41774">
        <ele>1177</ele>
        <time>2026-05-13T14:23:04.000Z</time>
      </trkpt>
      <trkpt lat="44.24877" lon="5.41774">
        <ele>1177</ele>
        <time>2026-05-13T14:23:05.000Z</time>
      </trkpt>
      <trkpt lat="44.24877" lon="5.41774">
        <ele>1177</ele>
        <time>2026-05-13T14:23:06.000Z</time>
      </trkpt>
      <trkpt lat="44.24877" lon="5.41774">
        <ele>1177</ele>
        <time>2026-05-13T14:23:07.000Z</time>
      </trkpt>
      <trkpt lat="44.24878" lon="5.41774">
        <ele>1177</ele>
        <time>2026-05-13T14:23:08.000Z</time>
      </trkpt>
      <trkpt lat="44.24877" lon="5.41774">
        <ele>1177</ele>
        <time>2026-05-13T14:23:09.000Z</time>
      </trkpt>
      <trkpt lat="44.24877" lon="5.41774">
        <ele>1177</ele>
        <time>2026-05-13T14:23:10.000Z</time>
      </trkpt>
      <trkpt lat="44.24876" lon="5.41774">
        <ele>1177</ele>
        <time>2026-05-13T14:23:11.000Z</time>
      </trkpt>
      <trkpt lat="44.24876" lon="5.41775">
        <ele>1177</ele>
        <time>2026-05-13T14:23:12.000Z</time>
      </trkpt>
      <trkpt lat="44.24875" lon="5.41775">
        <ele>1178</ele>
        <time>2026-05-13T14:23:13.000Z</time>
      </trkpt>
      <trkpt lat="44.24875" lon="5.41776">
        <ele>1177</ele>
        <time>2026-05-13T14:23:14.000Z</time>
      </trkpt>
      <trkpt lat="44.24875" lon="5.41777">
        <ele>1178</ele>
        <time>2026-05-13T14:23:15.000Z</time>
      </trkpt>
      <trkpt lat="44.24875" lon="5.41777">
        <ele>1177</ele>
        <time>2026-05-13T14:23:16.000Z</time>
      </trkpt>
      <trkpt lat="44.24875" lon="5.41777">
        <ele>1177</ele>
        <time>2026-05-13T14:23:17.000Z</time>
      </trkpt>
      <trkpt lat="44.24875" lon="5.41777">
        <ele>1177</ele>
        <time>2026-05-13T14:23:18.000Z</time>
      </trkpt>
      <trkpt lat="44.24875" lon="5.41777">
        <ele>1177</ele>
        <time>2026-05-13T14:23:19.000Z</time>
      </trkpt>
      <trkpt lat="44.24875" lon="5.41777">
        <ele>1177</ele>
        <time>2026-05-13T14:23:20.000Z</time>
      </trkpt>
      <trkpt lat="44.24875" lon="5.41777">
        <ele>1177</ele>
        <time>2026-05-13T14:23:21.000Z</time>
      </trkpt>
      <trkpt lat="44.24875" lon="5.41777">
        <ele>1177</ele>
        <time>2026-05-13T14:23:22.000Z</time>
      </trkpt>
      <trkpt lat="44.24875" lon="5.41777">
        <ele>1177</ele>
        <time>2026-05-13T14:23:23.000Z</time>
      </trkpt>
      <trkpt lat="44.24875" lon="5.41777">
        <ele>1177</ele>
        <time>2026-05-13T14:23:24.000Z</time>
      </trkpt>
      <trkpt lat="44.24875" lon="5.41777">
        <ele>1177</ele>
        <time>2026-05-13T14:23:25.000Z</time>
      </trkpt>
      <trkpt lat="44.24875" lon="5.41777">
        <ele>1177</ele>
        <time>2026-05-13T14:23:26.000Z</time>
      </trkpt>
      <trkpt lat="44.24875" lon="5.41777">
        <ele>1177</ele>
        <time>2026-05-13T14:23:27.000Z</time>
      </trkpt>
      <trkpt lat="44.24875" lon="5.41777">
        <ele>1177</ele>
        <time>2026-05-13T14:23:28.000Z</time>
      </trkpt>
      <trkpt lat="44.24875" lon="5.41777">
        <ele>1177</ele>
        <time>2026-05-13T14:23:29.000Z</time>
      </trkpt>
      <trkpt lat="44.24875" lon="5.41777">
        <ele>1177</ele>
        <time>2026-05-13T14:23:30.000Z</time>
      </trkpt>
      <trkpt lat="44.24875" lon="5.41777">
        <ele>1177</ele>
        <time>2026-05-13T14:23:31.000Z</time>
      </trkpt>
      <trkpt lat="44.24875" lon="5.41777">
        <ele>1177</ele>
        <time>2026-05-13T14:23:32.000Z</time>
      </trkpt>
      <trkpt lat="44.24875" lon="5.41777">
        <ele>1177</ele>
        <time>2026-05-13T14:23:33.000Z</time>
      </trkpt>
      <trkpt lat="44.24875" lon="5.41777">
        <ele>1177</ele>
        <time>2026-05-13T14:23:34.000Z</time>
      </trkpt>
      <trkpt lat="44.24875" lon="5.41777">
        <ele>1177</ele>
        <time>2026-05-13T14:23:35.000Z</time>
      </trkpt>
      <trkpt lat="44.24875" lon="5.41777">
        <ele>1177</ele>
        <time>2026-05-13T14:23:36.000Z</time>
      </trkpt>
      <trkpt lat="44.24875" lon="5.41777">
        <ele>1177</ele>
        <time>2026-05-13T14:23:37.000Z</time>
      </trkpt>
      <trkpt lat="44.24875" lon="5.41777">
        <ele>1177</ele>
        <time>2026-05-13T14:23:38.000Z</time>
      </trkpt>
      <trkpt lat="44.24875" lon="5.41777">
        <ele>1177</ele>
        <time>2026-05-13T14:23:39.000Z</time>
      </trkpt>
      <trkpt lat="44.24875" lon="5.41777">
        <ele>1177</ele>
        <time>2026-05-13T14:23:40.000Z</time>
      </trkpt>
      <trkpt lat="44.24875" lon="5.41777">
        <ele>1177</ele>
        <time>2026-05-13T14:23:41.000Z</time>
      </trkpt>
      <trkpt lat="44.24875" lon="5.41777">
        <ele>1177</ele>
        <time>2026-05-13T14:23:42.000Z</time>
      </trkpt>
      <trkpt lat="44.24875" lon="5.41777">
        <ele>1178</ele>
        <time>2026-05-13T14:23:43.000Z</time>
      </trkpt>
      <trkpt lat="44.24875" lon="5.41777">
        <ele>1178</ele>
        <time>2026-05-13T14:23:44.000Z</time>
      </trkpt>
      <trkpt lat="44.24875" lon="5.41777">
        <ele>1178</ele>
        <time>2026-05-13T14:23:45.000Z</time>
      </trkpt>
      <trkpt lat="44.24875" lon="5.41777">
        <ele>1178</ele>
        <time>2026-05-13T14:23:46.000Z</time>
      </trkpt>
      <trkpt lat="44.24875" lon="5.41777">
        <ele>1178</ele>
        <time>2026-05-13T14:23:47.000Z</time>
      </trkpt>
      <trkpt lat="44.24875" lon="5.41777">
        <ele>1178</ele>
        <time>2026-05-13T14:23:48.000Z</time>
      </trkpt>
      <trkpt lat="44.24875" lon="5.41777">
        <ele>1178</ele>
        <time>2026-05-13T14:23:49.000Z</time>
      </trkpt>
      <trkpt lat="44.24875" lon="5.41777">
        <ele>1178</ele>
        <time>2026-05-13T14:23:50.000Z</time>
      </trkpt>
      <trkpt lat="44.24875" lon="5.41777">
        <ele>1178</ele>
        <time>2026-05-13T14:23:51.000Z</time>
      </trkpt>
      <trkpt lat="44.24875" lon="5.41777">
        <ele>1178</ele>
        <time>2026-05-13T14:23:52.000Z</time>
      </trkpt>
      <trkpt lat="44.24875" lon="5.41777">
        <ele>1178</ele>
        <time>2026-05-13T14:23:53.000Z</time>
      </trkpt>
      <trkpt lat="44.24875" lon="5.41777">
        <ele>1178</ele>
        <time>2026-05-13T14:23:54.000Z</time>
      </trkpt>
      <trkpt lat="44.24875" lon="5.41777">
        <ele>1178</ele>
        <time>2026-05-13T14:23:55.000Z</time>
      </trkpt>
      <trkpt lat="44.24875" lon="5.41777">
        <ele>1178</ele>
        <time>2026-05-13T14:23:56.000Z</time>
      </trkpt>
      <trkpt lat="44.24875" lon="5.41777">
        <ele>1178</ele>
        <time>2026-05-13T14:23:57.000Z</time>
      </trkpt>
      <trkpt lat="44.24875" lon="5.41777">
        <ele>1178</ele>
        <time>2026-05-13T14:23:58.000Z</time>
      </trkpt>
      <trkpt lat="44.24875" lon="5.41777">
        <ele>1178</ele>
        <time>2026-05-13T14:23:59.000Z</time>
      </trkpt>
      <trkpt lat="44.24874" lon="5.41777">
        <ele>1178</ele>
        <time>2026-05-13T14:24:00.000Z</time>
      </trkpt>
      <trkpt lat="44.24874" lon="5.41777">
        <ele>1178</ele>
        <time>2026-05-13T14:24:01.000Z</time>
      </trkpt>
      <trkpt lat="44.24874" lon="5.41776">
        <ele>1178</ele>
        <time>2026-05-13T14:24:02.000Z</time>
      </trkpt>
      <trkpt lat="44.24873" lon="5.41776">
        <ele>1176</ele>
        <time>2026-05-13T14:24:03.000Z</time>
      </trkpt>
      <trkpt lat="44.24873" lon="5.41776">
        <ele>1177</ele>
        <time>2026-05-13T14:24:04.000Z</time>
      </trkpt>
      <trkpt lat="44.24873" lon="5.41776">
        <ele>1177</ele>
        <time>2026-05-13T14:24:05.000Z</time>
      </trkpt>
      <trkpt lat="44.24873" lon="5.41776">
        <ele>1177</ele>
        <time>2026-05-13T14:24:06.000Z</time>
      </trkpt>
      <trkpt lat="44.24873" lon="5.41776">
        <ele>1177</ele>
        <time>2026-05-13T14:24:07.000Z</time>
      </trkpt>
      <trkpt lat="44.24873" lon="5.41775">
        <ele>1177</ele>
        <time>2026-05-13T14:24:08.000Z</time>
      </trkpt>
      <trkpt lat="44.24872" lon="5.41776">
        <ele>1177</ele>
        <time>2026-05-13T14:24:09.000Z</time>
      </trkpt>
      <trkpt lat="44.24872" lon="5.41776">
        <ele>1177</ele>
        <time>2026-05-13T14:24:10.000Z</time>
      </trkpt>
      <trkpt lat="44.24872" lon="5.41776">
        <ele>1177</ele>
        <time>2026-05-13T14:24:11.000Z</time>
      </trkpt>
      <trkpt lat="44.24872" lon="5.41776">
        <ele>1177</ele>
        <time>2026-05-13T14:24:12.000Z</time>
      </trkpt>
      <trkpt lat="44.24872" lon="5.41777">
        <ele>1178</ele>
        <time>2026-05-13T14:24:13.000Z</time>
      </trkpt>
      <trkpt lat="44.24872" lon="5.41777">
        <ele>1178</ele>
        <time>2026-05-13T14:24:14.000Z</time>
      </trkpt>
      <trkpt lat="44.24872" lon="5.41777">
        <ele>1178</ele>
        <time>2026-05-13T14:24:15.000Z</time>
      </trkpt>
      <trkpt lat="44.24872" lon="5.41777">
        <ele>1178</ele>
        <time>2026-05-13T14:24:16.000Z</time>
      </trkpt>
      <trkpt lat="44.24872" lon="5.41776">
        <ele>1178</ele>
        <time>2026-05-13T14:24:17.000Z</time>
      </trkpt>
      <trkpt lat="44.24873" lon="5.41776">
        <ele>1178</ele>
        <time>2026-05-13T14:24:18.000Z</time>
      </trkpt>
      <trkpt lat="44.24873" lon="5.41776">
        <ele>1178</ele>
        <time>2026-05-13T14:24:19.000Z</time>
      </trkpt>
      <trkpt lat="44.24873" lon="5.41776">
        <ele>1178</ele>
        <time>2026-05-13T14:24:20.000Z</time>
      </trkpt>
      <trkpt lat="44.24873" lon="5.41776">
        <ele>1178</ele>
        <time>2026-05-13T14:24:21.000Z</time>
      </trkpt>
      <trkpt lat="44.24873" lon="5.41776">
        <ele>1178</ele>
        <time>2026-05-13T14:24:22.000Z</time>
      </trkpt>
      <trkpt lat="44.24873" lon="5.41776">
        <ele>1178</ele>
        <time>2026-05-13T14:24:23.000Z</time>
      </trkpt>
      <trkpt lat="44.24873" lon="5.41776">
        <ele>1178</ele>
        <time>2026-05-13T14:24:24.000Z</time>
      </trkpt>
      <trkpt lat="44.24873" lon="5.41776">
        <ele>1178</ele>
        <time>2026-05-13T14:24:25.000Z</time>
      </trkpt>
      <trkpt lat="44.24873" lon="5.41776">
        <ele>1178</ele>
        <time>2026-05-13T14:24:26.000Z</time>
      </trkpt>
      <trkpt lat="44.24873" lon="5.41776">
        <ele>1178</ele>
        <time>2026-05-13T14:24:27.000Z</time>
      </trkpt>
      <trkpt lat="44.24873" lon="5.41776">
        <ele>1178</ele>
        <time>2026-05-13T14:24:28.000Z</time>
      </trkpt>
      <trkpt lat="44.24873" lon="5.41776">
        <ele>1178</ele>
        <time>2026-05-13T14:24:29.000Z</time>
      </trkpt>
      <trkpt lat="44.24873" lon="5.41776">
        <ele>1178</ele>
        <time>2026-05-13T14:24:30.000Z</time>
      </trkpt>
      <trkpt lat="44.24873" lon="5.41776">
        <ele>1178</ele>
        <time>2026-05-13T14:24:31.000Z</time>
      </trkpt>
      <trkpt lat="44.24873" lon="5.41776">
        <ele>1178</ele>
        <time>2026-05-13T14:24:32.000Z</time>
      </trkpt>
      <trkpt lat="44.24873" lon="5.41776">
        <ele>1178</ele>
        <time>2026-05-13T14:24:33.000Z</time>
      </trkpt>
      <trkpt lat="44.24873" lon="5.41776">
        <ele>1178</ele>
        <time>2026-05-13T14:24:34.000Z</time>
      </trkpt>
      <trkpt lat="44.24873" lon="5.41776">
        <ele>1178</ele>
        <time>2026-05-13T14:24:35.000Z</time>
      </trkpt>
      <trkpt lat="44.24873" lon="5.41776">
        <ele>1178</ele>
        <time>2026-05-13T14:24:36.000Z</time>
      </trkpt>
      <trkpt lat="44.24873" lon="5.41776">
        <ele>1178</ele>
        <time>2026-05-13T14:24:37.000Z</time>
      </trkpt>
      <trkpt lat="44.24873" lon="5.41776">
        <ele>1178</ele>
        <time>2026-05-13T14:24:38.000Z</time>
      </trkpt>
      <trkpt lat="44.24873" lon="5.41776">
        <ele>1178</ele>
        <time>2026-05-13T14:24:39.000Z</time>
      </trkpt>
      <trkpt lat="44.24873" lon="5.41776">
        <ele>1178</ele>
        <time>2026-05-13T14:24:40.000Z</time>
      </trkpt>
      <trkpt lat="44.24873" lon="5.41776">
        <ele>1178</ele>
        <time>2026-05-13T14:24:41.000Z</time>
      </trkpt>
      <trkpt lat="44.24873" lon="5.41776">
        <ele>1178</ele>
        <time>2026-05-13T14:24:42.000Z</time>
      </trkpt>
      <trkpt lat="44.24873" lon="5.41776">
        <ele>1178</ele>
        <time>2026-05-13T14:24:43.000Z</time>
      </trkpt>
      <trkpt lat="44.24873" lon="5.41776">
        <ele>1178</ele>
        <time>2026-05-13T14:24:44.000Z</time>
      </trkpt>
      <trkpt lat="44.24873" lon="5.41776">
        <ele>1178</ele>
        <time>2026-05-13T14:24:45.000Z</time>
      </trkpt>
      <trkpt lat="44.24873" lon="5.41776">
        <ele>1178</ele>
        <time>2026-05-13T14:24:46.000Z</time>
      </trkpt>
      <trkpt lat="44.24873" lon="5.41776">
        <ele>1178</ele>
        <time>2026-05-13T14:24:47.000Z</time>
      </trkpt>
      <trkpt lat="44.24873" lon="5.41776">
        <ele>1178</ele>
        <time>2026-05-13T14:24:48.000Z</time>
      </trkpt>
      <trkpt lat="44.24873" lon="5.41776">
        <ele>1178</ele>
        <time>2026-05-13T14:24:49.000Z</time>
      </trkpt>
      <trkpt lat="44.24873" lon="5.41776">
        <ele>1178</ele>
        <time>2026-05-13T14:24:50.000Z</time>
      </trkpt>
      <trkpt lat="44.24873" lon="5.41776">
        <ele>1178</ele>
        <time>2026-05-13T14:24:51.000Z</time>
      </trkpt>
      <trkpt lat="44.24873" lon="5.41776">
        <ele>1178</ele>
        <time>2026-05-13T14:24:52.000Z</time>
      </trkpt>
      <trkpt lat="44.24873" lon="5.41776">
        <ele>1178</ele>
        <time>2026-05-13T14:24:53.000Z</time>
      </trkpt>
      <trkpt lat="44.24873" lon="5.41776">
        <ele>1178</ele>
        <time>2026-05-13T14:24:54.000Z</time>
      </trkpt>
      <trkpt lat="44.24873" lon="5.41776">
        <ele>1178</ele>
        <time>2026-05-13T14:24:55.000Z</time>
      </trkpt>
      <trkpt lat="44.24873" lon="5.41776">
        <ele>1178</ele>
        <time>2026-05-13T14:24:56.000Z</time>
      </trkpt>
      <trkpt lat="44.24873" lon="5.41776">
        <ele>1178</ele>
        <time>2026-05-13T14:24:57.000Z</time>
      </trkpt>
      <trkpt lat="44.24873" lon="5.41776">
        <ele>1178</ele>
        <time>2026-05-13T14:24:58.000Z</time>
      </trkpt>
      <trkpt lat="44.24873" lon="5.41776">
        <ele>1178</ele>
        <time>2026-05-13T14:24:59.000Z</time>
      </trkpt>
      <trkpt lat="44.24873" lon="5.41776">
        <ele>1178</ele>
        <time>2026-05-13T14:25:00.000Z</time>
      </trkpt>
      <trkpt lat="44.24873" lon="5.41776">
        <ele>1178</ele>
        <time>2026-05-13T14:25:01.000Z</time>
      </trkpt>
      <trkpt lat="44.24873" lon="5.41776">
        <ele>1178</ele>
        <time>2026-05-13T14:25:02.000Z</time>
      </trkpt>
      <trkpt lat="44.24873" lon="5.41776">
        <ele>1178</ele>
        <time>2026-05-13T14:25:03.000Z</time>
      </trkpt>
      <trkpt lat="44.24873" lon="5.41776">
        <ele>1178</ele>
        <time>2026-05-13T14:25:04.000Z</time>
      </trkpt>
      <trkpt lat="44.24873" lon="5.41776">
        <ele>1178</ele>
        <time>2026-05-13T14:25:05.000Z</time>
      </trkpt>
      <trkpt lat="44.24873" lon="5.41776">
        <ele>1178</ele>
        <time>2026-05-13T14:25:06.000Z</time>
      </trkpt>
      <trkpt lat="44.24873" lon="5.41776">
        <ele>1178</ele>
        <time>2026-05-13T14:25:07.000Z</time>
      </trkpt>
      <trkpt lat="44.24873" lon="5.41776">
        <ele>1178</ele>
        <time>2026-05-13T14:25:08.000Z</time>
      </trkpt>
      <trkpt lat="44.24873" lon="5.41776">
        <ele>1178</ele>
        <time>2026-05-13T14:25:09.000Z</time>
      </trkpt>
      <trkpt lat="44.24873" lon="5.41776">
        <ele>1178</ele>
        <time>2026-05-13T14:25:10.000Z</time>
      </trkpt>
      <trkpt lat="44.24873" lon="5.41776">
        <ele>1178</ele>
        <time>2026-05-13T14:25:11.000Z</time>
      </trkpt>
      <trkpt lat="44.24873" lon="5.41776">
        <ele>1178</ele>
        <time>2026-05-13T14:25:12.000Z</time>
      </trkpt>
      <trkpt lat="44.24873" lon="5.41776">
        <ele>1178</ele>
        <time>2026-05-13T14:25:13.000Z</time>
      </trkpt>
      <trkpt lat="44.24873" lon="5.41776">
        <ele>1178</ele>
        <time>2026-05-13T14:25:14.000Z</time>
      </trkpt>
      <trkpt lat="44.24873" lon="5.41776">
        <ele>1178</ele>
        <time>2026-05-13T14:25:15.000Z</time>
      </trkpt>
      <trkpt lat="44.24873" lon="5.41776">
        <ele>1178</ele>
        <time>2026-05-13T14:25:16.000Z</time>
      </trkpt>
      <trkpt lat="44.24873" lon="5.41776">
        <ele>1178</ele>
        <time>2026-05-13T14:25:17.000Z</time>
      </trkpt>
      <trkpt lat="44.24873" lon="5.41776">
        <ele>1178</ele>
        <time>2026-05-13T14:25:18.000Z</time>
      </trkpt>
      <trkpt lat="44.24873" lon="5.41776">
        <ele>1178</ele>
        <time>2026-05-13T14:25:19.000Z</time>
      </trkpt>
      <trkpt lat="44.24873" lon="5.41776">
        <ele>1178</ele>
        <time>2026-05-13T14:25:20.000Z</time>
      </trkpt>
      <trkpt lat="44.24873" lon="5.41776">
        <ele>1178</ele>
        <time>2026-05-13T14:25:21.000Z</time>
      </trkpt>
      <trkpt lat="44.24873" lon="5.41776">
        <ele>1178</ele>
        <time>2026-05-13T14:25:22.000Z</time>
      </trkpt>
      <trkpt lat="44.24873" lon="5.41776">
        <ele>1178</ele>
        <time>2026-05-13T14:25:23.000Z</time>
      </trkpt>
      <trkpt lat="44.24873" lon="5.41776">
        <ele>1178</ele>
        <time>2026-05-13T14:25:24.000Z</time>
      </trkpt>
      <trkpt lat="44.24873" lon="5.41776">
        <ele>1178</ele>
        <time>2026-05-13T14:25:25.000Z</time>
      </trkpt>
      <trkpt lat="44.24873" lon="5.41776">
        <ele>1178</ele>
        <time>2026-05-13T14:25:26.000Z</time>
      </trkpt>
      <trkpt lat="44.24873" lon="5.41776">
        <ele>1178</ele>
        <time>2026-05-13T14:25:27.000Z</time>
      </trkpt>
      <trkpt lat="44.24873" lon="5.41776">
        <ele>1178</ele>
        <time>2026-05-13T14:25:28.000Z</time>
      </trkpt>
      <trkpt lat="44.24873" lon="5.41776">
        <ele>1178</ele>
        <time>2026-05-13T14:25:29.000Z</time>
      </trkpt>
      <trkpt lat="44.24873" lon="5.41776">
        <ele>1178</ele>
        <time>2026-05-13T14:25:30.000Z</time>
      </trkpt>
      <trkpt lat="44.24873" lon="5.41776">
        <ele>1178</ele>
        <time>2026-05-13T14:25:31.000Z</time>
      </trkpt>
      <trkpt lat="44.24873" lon="5.41776">
        <ele>1178</ele>
        <time>2026-05-13T14:25:32.000Z</time>
      </trkpt>
      <trkpt lat="44.24873" lon="5.41776">
        <ele>1178</ele>
        <time>2026-05-13T14:25:33.000Z</time>
      </trkpt>
      <trkpt lat="44.24873" lon="5.41776">
        <ele>1178</ele>
        <time>2026-05-13T14:25:34.000Z</time>
      </trkpt>
      <trkpt lat="44.24873" lon="5.41776">
        <ele>1178</ele>
        <time>2026-05-13T14:25:35.000Z</time>
      </trkpt>
      <trkpt lat="44.24873" lon="5.41776">
        <ele>1178</ele>
        <time>2026-05-13T14:25:36.000Z</time>
      </trkpt>
      <trkpt lat="44.24873" lon="5.41776">
        <ele>1178</ele>
        <time>2026-05-13T14:25:37.000Z</time>
      </trkpt>
      <trkpt lat="44.24873" lon="5.41776">
        <ele>1178</ele>
        <time>2026-05-13T14:25:38.000Z</time>
      </trkpt>
      <trkpt lat="44.24873" lon="5.41776">
        <ele>1178</ele>
        <time>2026-05-13T14:25:39.000Z</time>
      </trkpt>
      <trkpt lat="44.24873" lon="5.41776">
        <ele>1178</ele>
        <time>2026-05-13T14:25:40.000Z</time>
      </trkpt>
      <trkpt lat="44.24873" lon="5.41776">
        <ele>1178</ele>
        <time>2026-05-13T14:25:41.000Z</time>
      </trkpt>
      <trkpt lat="44.24873" lon="5.41776">
        <ele>1178</ele>
        <time>2026-05-13T14:25:42.000Z</time>
      </trkpt>
      <trkpt lat="44.24873" lon="5.41776">
        <ele>1178</ele>
        <time>2026-05-13T14:25:43.000Z</time>
      </trkpt>
      <trkpt lat="44.24873" lon="5.41776">
        <ele>1178</ele>
        <time>2026-05-13T14:25:44.000Z</time>
      </trkpt>
      <trkpt lat="44.24873" lon="5.41776">
        <ele>1178</ele>
        <time>2026-05-13T14:25:45.000Z</time>
      </trkpt>
      <trkpt lat="44.24873" lon="5.41776">
        <ele>1178</ele>
        <time>2026-05-13T14:25:46.000Z</time>
      </trkpt>
      <trkpt lat="44.24873" lon="5.41776">
        <ele>1178</ele>
        <time>2026-05-13T14:25:47.000Z</time>
      </trkpt>
      <trkpt lat="44.24873" lon="5.41776">
        <ele>1178</ele>
        <time>2026-05-13T14:25:48.000Z</time>
      </trkpt>
      <trkpt lat="44.24873" lon="5.41776">
        <ele>1178</ele>
        <time>2026-05-13T14:25:49.000Z</time>
      </trkpt>
      <trkpt lat="44.24873" lon="5.41776">
        <ele>1178</ele>
        <time>2026-05-13T14:25:50.000Z</time>
      </trkpt>
      <trkpt lat="44.24873" lon="5.41776">
        <ele>1178</ele>
        <time>2026-05-13T14:25:51.000Z</time>
      </trkpt>
      <trkpt lat="44.24873" lon="5.41776">
        <ele>1178</ele>
        <time>2026-05-13T14:25:52.000Z</time>
      </trkpt>
      <trkpt lat="44.24873" lon="5.41776">
        <ele>1178</ele>
        <time>2026-05-13T14:25:53.000Z</time>
      </trkpt>
      <trkpt lat="44.24873" lon="5.41776">
        <ele>1178</ele>
        <time>2026-05-13T14:25:54.000Z</time>
      </trkpt>
      <trkpt lat="44.24873" lon="5.41776">
        <ele>1178</ele>
        <time>2026-05-13T14:25:55.000Z</time>
      </trkpt>
      <trkpt lat="44.24873" lon="5.41776">
        <ele>1178</ele>
        <time>2026-05-13T14:25:56.000Z</time>
      </trkpt>
      <trkpt lat="44.24873" lon="5.41776">
        <ele>1178</ele>
        <time>2026-05-13T14:25:57.000Z</time>
      </trkpt>
      <trkpt lat="44.24873" lon="5.41776">
        <ele>1178</ele>
        <time>2026-05-13T14:25:58.000Z</time>
      </trkpt>
      <trkpt lat="44.24873" lon="5.41776">
        <ele>1178</ele>
        <time>2026-05-13T14:25:59.000Z</time>
      </trkpt>
      <trkpt lat="44.24873" lon="5.41776">
        <ele>1178</ele>
        <time>2026-05-13T14:26:00.000Z</time>
      </trkpt>
      <trkpt lat="44.24873" lon="5.41776">
        <ele>1178</ele>
        <time>2026-05-13T14:26:01.000Z</time>
      </trkpt>
      <trkpt lat="44.24873" lon="5.41776">
        <ele>1178</ele>
        <time>2026-05-13T14:26:02.000Z</time>
      </trkpt>
      <trkpt lat="44.24873" lon="5.41776">
        <ele>1178</ele>
        <time>2026-05-13T14:26:03.000Z</time>
      </trkpt>
      <trkpt lat="44.24873" lon="5.41776">
        <ele>1178</ele>
        <time>2026-05-13T14:26:04.000Z</time>
      </trkpt>
      <trkpt lat="44.24873" lon="5.41776">
        <ele>1178</ele>
        <time>2026-05-13T14:26:05.000Z</time>
      </trkpt>
      <trkpt lat="44.24873" lon="5.41776">
        <ele>1178</ele>
        <time>2026-05-13T14:26:06.000Z</time>
      </trkpt>
      <trkpt lat="44.24873" lon="5.41776">
        <ele>1178</ele>
        <time>2026-05-13T14:26:07.000Z</time>
      </trkpt>
      <trkpt lat="44.24873" lon="5.41776">
        <ele>1178</ele>
        <time>2026-05-13T14:26:08.000Z</time>
      </trkpt>
      <trkpt lat="44.24873" lon="5.41776">
        <ele>1178</ele>
        <time>2026-05-13T14:26:09.000Z</time>
      </trkpt>
      <trkpt lat="44.24873" lon="5.41776">
        <ele>1178</ele>
        <time>2026-05-13T14:26:10.000Z</time>
      </trkpt>
      <trkpt lat="44.24873" lon="5.41776">
        <ele>1178</ele>
        <time>2026-05-13T14:26:11.000Z</time>
      </trkpt>
      <trkpt lat="44.24873" lon="5.41776">
        <ele>1178</ele>
        <time>2026-05-13T14:26:12.000Z</time>
      </trkpt>
      <trkpt lat="44.24873" lon="5.41776">
        <ele>1178</ele>
        <time>2026-05-13T14:26:13.000Z</time>
      </trkpt>
      <trkpt lat="44.24873" lon="5.41776">
        <ele>1178</ele>
        <time>2026-05-13T14:26:14.000Z</time>
      </trkpt>
      <trkpt lat="44.24873" lon="5.41776">
        <ele>1178</ele>
        <time>2026-05-13T14:26:15.000Z</time>
      </trkpt>
      <trkpt lat="44.24873" lon="5.41776">
        <ele>1178</ele>
        <time>2026-05-13T14:26:16.000Z</time>
      </trkpt>
      <trkpt lat="44.24873" lon="5.41776">
        <ele>1178</ele>
        <time>2026-05-13T14:26:17.000Z</time>
      </trkpt>
      <trkpt lat="44.24873" lon="5.41776">
        <ele>1178</ele>
        <time>2026-05-13T14:26:18.000Z</time>
      </trkpt>
      <trkpt lat="44.24873" lon="5.41776">
        <ele>1178</ele>
        <time>2026-05-13T14:26:19.000Z</time>
      </trkpt>
      <trkpt lat="44.24873" lon="5.41776">
        <ele>1178</ele>
        <time>2026-05-13T14:26:20.000Z</time>
      </trkpt>
      <trkpt lat="44.24873" lon="5.41776">
        <ele>1178</ele>
        <time>2026-05-13T14:26:21.000Z</time>
      </trkpt>
      <trkpt lat="44.24873" lon="5.41776">
        <ele>1178</ele>
        <time>2026-05-13T14:26:22.000Z</time>
      </trkpt>
      <trkpt lat="44.24873" lon="5.41776">
        <ele>1178</ele>
        <time>2026-05-13T14:26:23.000Z</time>
      </trkpt>
      <trkpt lat="44.24873" lon="5.41776">
        <ele>1178</ele>
        <time>2026-05-13T14:26:24.000Z</time>
      </trkpt>
      <trkpt lat="44.24873" lon="5.41776">
        <ele>1178</ele>
        <time>2026-05-13T14:26:25.000Z</time>
      </trkpt>
      <trkpt lat="44.24873" lon="5.41776">
        <ele>1178</ele>
        <time>2026-05-13T14:26:26.000Z</time>
      </trkpt>
      <trkpt lat="44.24873" lon="5.41776">
        <ele>1178</ele>
        <time>2026-05-13T14:26:27.000Z</time>
      </trkpt>
      <trkpt lat="44.24873" lon="5.41776">
        <ele>1178</ele>
        <time>2026-05-13T14:26:28.000Z</time>
      </trkpt>
      <trkpt lat="44.24873" lon="5.41776">
        <ele>1178</ele>
        <time>2026-05-13T14:26:29.000Z</time>
      </trkpt>
      <trkpt lat="44.24873" lon="5.41776">
        <ele>1178</ele>
        <time>2026-05-13T14:26:30.000Z</time>
      </trkpt>
      <trkpt lat="44.24873" lon="5.41776">
        <ele>1178</ele>
        <time>2026-05-13T14:26:31.000Z</time>
      </trkpt>
      <trkpt lat="44.24873" lon="5.41776">
        <ele>1178</ele>
        <time>2026-05-13T14:26:32.000Z</time>
      </trkpt>
      <trkpt lat="44.24873" lon="5.41776">
        <ele>1178</ele>
        <time>2026-05-13T14:26:33.000Z</time>
      </trkpt>
      <trkpt lat="44.24873" lon="5.41776">
        <ele>1178</ele>
        <time>2026-05-13T14:26:34.000Z</time>
      </trkpt>
      <trkpt lat="44.24873" lon="5.41776">
        <ele>1178</ele>
        <time>2026-05-13T14:26:35.000Z</time>
      </trkpt>
      <trkpt lat="44.24873" lon="5.41776">
        <ele>1178</ele>
        <time>2026-05-13T14:26:36.000Z</time>
      </trkpt>
      <trkpt lat="44.24873" lon="5.41776">
        <ele>1178</ele>
        <time>2026-05-13T14:26:37.000Z</time>
      </trkpt>
      <trkpt lat="44.24873" lon="5.41776">
        <ele>1178</ele>
        <time>2026-05-13T14:26:38.000Z</time>
      </trkpt>
      <trkpt lat="44.24873" lon="5.41776">
        <ele>1178</ele>
        <time>2026-05-13T14:26:39.000Z</time>
      </trkpt>
      <trkpt lat="44.24873" lon="5.41776">
        <ele>1178</ele>
        <time>2026-05-13T14:26:40.000Z</time>
      </trkpt>
      <trkpt lat="44.24873" lon="5.41776">
        <ele>1178</ele>
        <time>2026-05-13T14:26:41.000Z</time>
      </trkpt>
      <trkpt lat="44.24873" lon="5.41776">
        <ele>1178</ele>
        <time>2026-05-13T14:26:42.000Z</time>
      </trkpt>
      <trkpt lat="44.24873" lon="5.41776">
        <ele>1178</ele>
        <time>2026-05-13T14:26:43.000Z</time>
      </trkpt>
      <trkpt lat="44.24873" lon="5.41776">
        <ele>1178</ele>
        <time>2026-05-13T14:26:44.000Z</time>
      </trkpt>
      <trkpt lat="44.24873" lon="5.41776">
        <ele>1178</ele>
        <time>2026-05-13T14:26:45.000Z</time>
      </trkpt>
      <trkpt lat="44.24873" lon="5.41776">
        <ele>1178</ele>
        <time>2026-05-13T14:26:46.000Z</time>
      </trkpt>
      <trkpt lat="44.24873" lon="5.41776">
        <ele>1178</ele>
        <time>2026-05-13T14:26:47.000Z</time>
      </trkpt>
      <trkpt lat="44.24873" lon="5.41776">
        <ele>1178</ele>
        <time>2026-05-13T14:26:48.000Z</time>
      </trkpt>
      <trkpt lat="44.24873" lon="5.41776">
        <ele>1178</ele>
        <time>2026-05-13T14:26:49.000Z</time>
      </trkpt>
      <trkpt lat="44.24873" lon="5.41776">
        <ele>1177</ele>
        <time>2026-05-13T14:26:50.000Z</time>
      </trkpt>
      <trkpt lat="44.24873" lon="5.41776">
        <ele>1177</ele>
        <time>2026-05-13T14:26:51.000Z</time>
      </trkpt>
      <trkpt lat="44.24873" lon="5.41776">
        <ele>1177</ele>
        <time>2026-05-13T14:26:52.000Z</time>
      </trkpt>
      <trkpt lat="44.24873" lon="5.41776">
        <ele>1177</ele>
        <time>2026-05-13T14:26:53.000Z</time>
      </trkpt>
      <trkpt lat="44.24873" lon="5.41776">
        <ele>1177</ele>
        <time>2026-05-13T14:26:54.000Z</time>
      </trkpt>
      <trkpt lat="44.24873" lon="5.41776">
        <ele>1177</ele>
        <time>2026-05-13T14:26:55.000Z</time>
      </trkpt>
      <trkpt lat="44.24873" lon="5.41776">
        <ele>1177</ele>
        <time>2026-05-13T14:26:56.000Z</time>
      </trkpt>
      <trkpt lat="44.24873" lon="5.41776">
        <ele>1177</ele>
        <time>2026-05-13T14:26:57.000Z</time>
      </trkpt>
      <trkpt lat="44.24873" lon="5.41776">
        <ele>1177</ele>
        <time>2026-05-13T14:26:58.000Z</time>
      </trkpt>
      <trkpt lat="44.24873" lon="5.41776">
        <ele>1177</ele>
        <time>2026-05-13T14:26:59.000Z</time>
      </trkpt>
      <trkpt lat="44.24873" lon="5.41776">
        <ele>1177</ele>
        <time>2026-05-13T14:27:00.000Z</time>
      </trkpt>
      <trkpt lat="44.24873" lon="5.41776">
        <ele>1177</ele>
        <time>2026-05-13T14:27:01.000Z</time>
      </trkpt>
      <trkpt lat="44.24873" lon="5.41776">
        <ele>1177</ele>
        <time>2026-05-13T14:27:02.000Z</time>
      </trkpt>
      <trkpt lat="44.24873" lon="5.41776">
        <ele>1177</ele>
        <time>2026-05-13T14:27:03.000Z</time>
      </trkpt>
      <trkpt lat="44.24873" lon="5.41776">
        <ele>1177</ele>
        <time>2026-05-13T14:27:04.000Z</time>
      </trkpt>
      <trkpt lat="44.24873" lon="5.41776">
        <ele>1177</ele>
        <time>2026-05-13T14:27:05.000Z</time>
      </trkpt>
      <trkpt lat="44.24873" lon="5.41776">
        <ele>1177</ele>
        <time>2026-05-13T14:27:06.000Z</time>
      </trkpt>
      <trkpt lat="44.24873" lon="5.41776">
        <ele>1177</ele>
        <time>2026-05-13T14:27:07.000Z</time>
      </trkpt>
      <trkpt lat="44.24873" lon="5.41776">
        <ele>1177</ele>
        <time>2026-05-13T14:27:08.000Z</time>
      </trkpt>
      <trkpt lat="44.24873" lon="5.41776">
        <ele>1177</ele>
        <time>2026-05-13T14:27:09.000Z</time>
      </trkpt>
      <trkpt lat="44.24873" lon="5.41776">
        <ele>1177</ele>
        <time>2026-05-13T14:27:10.000Z</time>
      </trkpt>
      <trkpt lat="44.24873" lon="5.41776">
        <ele>1177</ele>
        <time>2026-05-13T14:27:11.000Z</time>
      </trkpt>
      <trkpt lat="44.24873" lon="5.41776">
        <ele>1177</ele>
        <time>2026-05-13T14:27:12.000Z</time>
      </trkpt>
      <trkpt lat="44.24873" lon="5.41776">
        <ele>1177</ele>
        <time>2026-05-13T14:27:13.000Z</time>
      </trkpt>
      <trkpt lat="44.24873" lon="5.41776">
        <ele>1177</ele>
        <time>2026-05-13T14:27:14.000Z</time>
      </trkpt>
      <trkpt lat="44.24873" lon="5.41776">
        <ele>1177</ele>
        <time>2026-05-13T14:27:15.000Z</time>
      </trkpt>
      <trkpt lat="44.24873" lon="5.41776">
        <ele>1177</ele>
        <time>2026-05-13T14:27:16.000Z</time>
      </trkpt>
      <trkpt lat="44.24873" lon="5.41776">
        <ele>1177</ele>
        <time>2026-05-13T14:27:17.000Z</time>
      </trkpt>
      <trkpt lat="44.24873" lon="5.41776">
        <ele>1177</ele>
        <time>2026-05-13T14:27:18.000Z</time>
      </trkpt>
      <trkpt lat="44.24873" lon="5.41776">
        <ele>1177</ele>
        <time>2026-05-13T14:27:19.000Z</time>
      </trkpt>
      <trkpt lat="44.24873" lon="5.41776">
        <ele>1177</ele>
        <time>2026-05-13T14:27:20.000Z</time>
      </trkpt>
      <trkpt lat="44.24873" lon="5.41776">
        <ele>1177</ele>
        <time>2026-05-13T14:27:21.000Z</time>
      </trkpt>
      <trkpt lat="44.24873" lon="5.41776">
        <ele>1177</ele>
        <time>2026-05-13T14:27:22.000Z</time>
      </trkpt>
      <trkpt lat="44.24873" lon="5.41776">
        <ele>1177</ele>
        <time>2026-05-13T14:27:23.000Z</time>
      </trkpt>
      <trkpt lat="44.24873" lon="5.41776">
        <ele>1177</ele>
        <time>2026-05-13T14:27:24.000Z</time>
      </trkpt>
      <trkpt lat="44.24873" lon="5.41776">
        <ele>1177</ele>
        <time>2026-05-13T14:27:25.000Z</time>
      </trkpt>
      <trkpt lat="44.24873" lon="5.41776">
        <ele>1177</ele>
        <time>2026-05-13T14:27:26.000Z</time>
      </trkpt>
      <trkpt lat="44.24873" lon="5.41776">
        <ele>1177</ele>
        <time>2026-05-13T14:27:27.000Z</time>
      </trkpt>
      <trkpt lat="44.24873" lon="5.41776">
        <ele>1177</ele>
        <time>2026-05-13T14:27:28.000Z</time>
      </trkpt>
      <trkpt lat="44.24873" lon="5.41776">
        <ele>1177</ele>
        <time>2026-05-13T14:27:29.000Z</time>
      </trkpt>
      <trkpt lat="44.24873" lon="5.41776">
        <ele>1177</ele>
        <time>2026-05-13T14:27:30.000Z</time>
      </trkpt>
      <trkpt lat="44.24873" lon="5.41776">
        <ele>1177</ele>
        <time>2026-05-13T14:27:31.000Z</time>
      </trkpt>
      <trkpt lat="44.24873" lon="5.41776">
        <ele>1177</ele>
        <time>2026-05-13T14:27:32.000Z</time>
      </trkpt>
      <trkpt lat="44.24873" lon="5.41776">
        <ele>1177</ele>
        <time>2026-05-13T14:27:33.000Z</time>
      </trkpt>
      <trkpt lat="44.24873" lon="5.41776">
        <ele>1177</ele>
        <time>2026-05-13T14:27:34.000Z</time>
      </trkpt>
      <trkpt lat="44.24873" lon="5.41776">
        <ele>1177</ele>
        <time>2026-05-13T14:27:35.000Z</time>
      </trkpt>
      <trkpt lat="44.24873" lon="5.41776">
        <ele>1177</ele>
        <time>2026-05-13T14:27:36.000Z</time>
      </trkpt>
      <trkpt lat="44.24873" lon="5.41776">
        <ele>1177</ele>
        <time>2026-05-13T14:27:37.000Z</time>
      </trkpt>
      <trkpt lat="44.24873" lon="5.41776">
        <ele>1177</ele>
        <time>2026-05-13T14:27:38.000Z</time>
      </trkpt>
      <trkpt lat="44.24873" lon="5.41776">
        <ele>1177</ele>
        <time>2026-05-13T14:27:39.000Z</time>
      </trkpt>
      <trkpt lat="44.24873" lon="5.41776">
        <ele>1177</ele>
        <time>2026-05-13T14:27:40.000Z</time>
      </trkpt>
      <trkpt lat="44.24873" lon="5.41776">
        <ele>1177</ele>
        <time>2026-05-13T14:27:41.000Z</time>
      </trkpt>
      <trkpt lat="44.24873" lon="5.41776">
        <ele>1177</ele>
        <time>2026-05-13T14:27:42.000Z</time>
      </trkpt>
      <trkpt lat="44.24873" lon="5.41776">
        <ele>1177</ele>
        <time>2026-05-13T14:27:43.000Z</time>
      </trkpt>
      <trkpt lat="44.24873" lon="5.41776">
        <ele>1177</ele>
        <time>2026-05-13T14:27:44.000Z</time>
      </trkpt>
      <trkpt lat="44.24873" lon="5.41776">
        <ele>1177</ele>
        <time>2026-05-13T14:27:45.000Z</time>
      </trkpt>
      <trkpt lat="44.24873" lon="5.41776">
        <ele>1177</ele>
        <time>2026-05-13T14:27:46.000Z</time>
      </trkpt>
      <trkpt lat="44.24873" lon="5.41776">
        <ele>1177</ele>
        <time>2026-05-13T14:27:47.000Z</time>
      </trkpt>
      <trkpt lat="44.24873" lon="5.41776">
        <ele>1177</ele>
        <time>2026-05-13T14:27:48.000Z</time>
      </trkpt>
      <trkpt lat="44.24873" lon="5.41776">
        <ele>1177</ele>
        <time>2026-05-13T14:27:49.000Z</time>
      </trkpt>
      <trkpt lat="44.24873" lon="5.41776">
        <ele>1177</ele>
        <time>2026-05-13T14:27:50.000Z</time>
      </trkpt>
      <trkpt lat="44.24873" lon="5.41776">
        <ele>1177</ele>
        <time>2026-05-13T14:27:51.000Z</time>
      </trkpt>
      <trkpt lat="44.24873" lon="5.41776">
        <ele>1177</ele>
        <time>2026-05-13T14:27:52.000Z</time>
      </trkpt>
      <trkpt lat="44.24873" lon="5.41776">
        <ele>1177</ele>
        <time>2026-05-13T14:27:53.000Z</time>
      </trkpt>
      <trkpt lat="44.24873" lon="5.41776">
        <ele>1177</ele>
        <time>2026-05-13T14:27:54.000Z</time>
      </trkpt>
      <trkpt lat="44.24873" lon="5.41776">
        <ele>1177</ele>
        <time>2026-05-13T14:27:55.000Z</time>
      </trkpt>
      <trkpt lat="44.24873" lon="5.41776">
        <ele>1177</ele>
        <time>2026-05-13T14:27:56.000Z</time>
      </trkpt>
      <trkpt lat="44.24873" lon="5.41776">
        <ele>1177</ele>
        <time>2026-05-13T14:27:57.000Z</time>
      </trkpt>
      <trkpt lat="44.24873" lon="5.41776">
        <ele>1177</ele>
        <time>2026-05-13T14:27:58.000Z</time>
      </trkpt>
      <trkpt lat="44.24873" lon="5.41776">
        <ele>1177</ele>
        <time>2026-05-13T14:27:59.000Z</time>
      </trkpt>
      <trkpt lat="44.24873" lon="5.41776">
        <ele>1177</ele>
        <time>2026-05-13T14:28:00.000Z</time>
      </trkpt>
      <trkpt lat="44.24873" lon="5.41776">
        <ele>1177</ele>
        <time>2026-05-13T14:28:01.000Z</time>
      </trkpt>
      <trkpt lat="44.24873" lon="5.41776">
        <ele>1177</ele>
        <time>2026-05-13T14:28:02.000Z</time>
      </trkpt>
      <trkpt lat="44.24873" lon="5.41776">
        <ele>1177</ele>
        <time>2026-05-13T14:28:03.000Z</time>
      </trkpt>
      <trkpt lat="44.24873" lon="5.41776">
        <ele>1177</ele>
        <time>2026-05-13T14:28:04.000Z</time>
      </trkpt>
      <trkpt lat="44.24873" lon="5.41776">
        <ele>1177</ele>
        <time>2026-05-13T14:28:05.000Z</time>
      </trkpt>
      <trkpt lat="44.24873" lon="5.41776">
        <ele>1177</ele>
        <time>2026-05-13T14:28:06.000Z</time>
      </trkpt>
      <trkpt lat="44.24873" lon="5.41776">
        <ele>1177</ele>
        <time>2026-05-13T14:28:07.000Z</time>
      </trkpt>
      <trkpt lat="44.24873" lon="5.41776">
        <ele>1177</ele>
        <time>2026-05-13T14:28:08.000Z</time>
      </trkpt>
      <trkpt lat="44.24873" lon="5.41776">
        <ele>1177</ele>
        <time>2026-05-13T14:28:09.000Z</time>
      </trkpt>
      <trkpt lat="44.24873" lon="5.41776">
        <ele>1177</ele>
        <time>2026-05-13T14:28:10.000Z</time>
      </trkpt>
      <trkpt lat="44.24873" lon="5.41776">
        <ele>1177</ele>
        <time>2026-05-13T14:28:11.000Z</time>
      </trkpt>
      <trkpt lat="44.24873" lon="5.41777">
        <ele>1178</ele>
        <time>2026-05-13T14:28:12.000Z</time>
      </trkpt>
      <trkpt lat="44.24874" lon="5.41778">
        <ele>1178</ele>
        <time>2026-05-13T14:28:13.000Z</time>
      </trkpt>
      <trkpt lat="44.24873" lon="5.41779">
        <ele>1179</ele>
        <time>2026-05-13T14:28:14.000Z</time>
      </trkpt>
      <trkpt lat="44.24874" lon="5.4178">
        <ele>1179</ele>
        <time>2026-05-13T14:28:15.000Z</time>
      </trkpt>
      <trkpt lat="44.24874" lon="5.41782">
        <ele>1179</ele>
        <time>2026-05-13T14:28:16.000Z</time>
      </trkpt>
      <trkpt lat="44.24873" lon="5.41785">
        <ele>1178</ele>
        <time>2026-05-13T14:28:17.000Z</time>
      </trkpt>
      <trkpt lat="44.24871" lon="5.41787">
        <ele>1178</ele>
        <time>2026-05-13T14:28:18.000Z</time>
      </trkpt>
      <trkpt lat="44.24867" lon="5.41786">
        <ele>1178</ele>
        <time>2026-05-13T14:28:19.000Z</time>
      </trkpt>
      <trkpt lat="44.24863" lon="5.41785">
        <ele>1177</ele>
        <time>2026-05-13T14:28:20.000Z</time>
      </trkpt>
      <trkpt lat="44.24859" lon="5.41784">
        <ele>1176</ele>
        <time>2026-05-13T14:28:21.000Z</time>
      </trkpt>
      <trkpt lat="44.24855" lon="5.41784">
        <ele>1176</ele>
        <time>2026-05-13T14:28:22.000Z</time>
      </trkpt>
      <trkpt lat="44.24851" lon="5.41787">
        <ele>1176</ele>
        <time>2026-05-13T14:28:23.000Z</time>
      </trkpt>
      <trkpt lat="44.24846" lon="5.41788">
        <ele>1176</ele>
        <time>2026-05-13T14:28:24.000Z</time>
      </trkpt>
      <trkpt lat="44.24842" lon="5.41789">
        <ele>1177</ele>
        <time>2026-05-13T14:28:25.000Z</time>
      </trkpt>
      <trkpt lat="44.24838" lon="5.41792">
        <ele>1176</ele>
        <time>2026-05-13T14:28:26.000Z</time>
      </trkpt>
      <trkpt lat="44.24835" lon="5.41794">
        <ele>1176</ele>
        <time>2026-05-13T14:28:27.000Z</time>
      </trkpt>
      <trkpt lat="44.24834" lon="5.41796">
        <ele>1176</ele>
        <time>2026-05-13T14:28:28.000Z</time>
      </trkpt>
      <trkpt lat="44.24833" lon="5.41798">
        <ele>1177</ele>
        <time>2026-05-13T14:28:29.000Z</time>
      </trkpt>
      <trkpt lat="44.24832" lon="5.41798">
        <ele>1177</ele>
        <time>2026-05-13T14:28:30.000Z</time>
      </trkpt>
      <trkpt lat="44.24831" lon="5.418">
        <ele>1177</ele>
        <time>2026-05-13T14:28:31.000Z</time>
      </trkpt>
      <trkpt lat="44.2483" lon="5.41802">
        <ele>1177</ele>
        <time>2026-05-13T14:28:32.000Z</time>
      </trkpt>
      <trkpt lat="44.24829" lon="5.41803">
        <ele>1177</ele>
        <time>2026-05-13T14:28:33.000Z</time>
      </trkpt>
      <trkpt lat="44.24828" lon="5.41805">
        <ele>1177</ele>
        <time>2026-05-13T14:28:34.000Z</time>
      </trkpt>
      <trkpt lat="44.24827" lon="5.41807">
        <ele>1177</ele>
        <time>2026-05-13T14:28:35.000Z</time>
      </trkpt>
      <trkpt lat="44.24826" lon="5.41808">
        <ele>1177</ele>
        <time>2026-05-13T14:28:36.000Z</time>
      </trkpt>
      <trkpt lat="44.24825" lon="5.41809">
        <ele>1177</ele>
        <time>2026-05-13T14:28:37.000Z</time>
      </trkpt>
      <trkpt lat="44.24824" lon="5.4181">
        <ele>1177</ele>
        <time>2026-05-13T14:28:38.000Z</time>
      </trkpt>
      <trkpt lat="44.24823" lon="5.41812">
        <ele>1177</ele>
        <time>2026-05-13T14:28:39.000Z</time>
      </trkpt>
      <trkpt lat="44.24822" lon="5.41812">
        <ele>1177</ele>
        <time>2026-05-13T14:28:40.000Z</time>
      </trkpt>
      <trkpt lat="44.24821" lon="5.41814">
        <ele>1177</ele>
        <time>2026-05-13T14:28:41.000Z</time>
      </trkpt>
      <trkpt lat="44.2482" lon="5.41816">
        <ele>1177</ele>
        <time>2026-05-13T14:28:42.000Z</time>
      </trkpt>
      <trkpt lat="44.24819" lon="5.41818">
        <ele>1177</ele>
        <time>2026-05-13T14:28:43.000Z</time>
      </trkpt>
      <trkpt lat="44.24818" lon="5.41819">
        <ele>1177</ele>
        <time>2026-05-13T14:28:44.000Z</time>
      </trkpt>
      <trkpt lat="44.24817" lon="5.4182">
        <ele>1178</ele>
        <time>2026-05-13T14:28:45.000Z</time>
      </trkpt>
      <trkpt lat="44.24816" lon="5.41822">
        <ele>1178</ele>
        <time>2026-05-13T14:28:46.000Z</time>
      </trkpt>
      <trkpt lat="44.24814" lon="5.41823">
        <ele>1178</ele>
        <time>2026-05-13T14:28:47.000Z</time>
      </trkpt>
      <trkpt lat="44.24814" lon="5.41824">
        <ele>1179</ele>
        <time>2026-05-13T14:28:48.000Z</time>
      </trkpt>
      <trkpt lat="44.24813" lon="5.41825">
        <ele>1179</ele>
        <time>2026-05-13T14:28:49.000Z</time>
      </trkpt>
      <trkpt lat="44.24812" lon="5.41827">
        <ele>1179</ele>
        <time>2026-05-13T14:28:50.000Z</time>
      </trkpt>
      <trkpt lat="44.24812" lon="5.41829">
        <ele>1180</ele>
        <time>2026-05-13T14:28:51.000Z</time>
      </trkpt>
      <trkpt lat="44.24811" lon="5.41831">
        <ele>1180</ele>
        <time>2026-05-13T14:28:52.000Z</time>
      </trkpt>
      <trkpt lat="44.24811" lon="5.41832">
        <ele>1181</ele>
        <time>2026-05-13T14:28:53.000Z</time>
      </trkpt>
      <trkpt lat="44.2481" lon="5.41833">
        <ele>1181</ele>
        <time>2026-05-13T14:28:54.000Z</time>
      </trkpt>
      <trkpt lat="44.24809" lon="5.41836">
        <ele>1181</ele>
        <time>2026-05-13T14:28:55.000Z</time>
      </trkpt>
      <trkpt lat="44.24808" lon="5.41837">
        <ele>1181</ele>
        <time>2026-05-13T14:28:56.000Z</time>
      </trkpt>
      <trkpt lat="44.24807" lon="5.41838">
        <ele>1182</ele>
        <time>2026-05-13T14:28:57.000Z</time>
      </trkpt>
      <trkpt lat="44.24806" lon="5.41839">
        <ele>1182</ele>
        <time>2026-05-13T14:28:58.000Z</time>
      </trkpt>
      <trkpt lat="44.24805" lon="5.4184">
        <ele>1183</ele>
        <time>2026-05-13T14:28:59.000Z</time>
      </trkpt>
      <trkpt lat="44.24804" lon="5.41841">
        <ele>1183</ele>
        <time>2026-05-13T14:29:00.000Z</time>
      </trkpt>
      <trkpt lat="44.24803" lon="5.41842">
        <ele>1183</ele>
        <time>2026-05-13T14:29:01.000Z</time>
      </trkpt>
      <trkpt lat="44.24803" lon="5.41843">
        <ele>1183</ele>
        <time>2026-05-13T14:29:02.000Z</time>
      </trkpt>
      <trkpt lat="44.24802" lon="5.41845">
        <ele>1183</ele>
        <time>2026-05-13T14:29:03.000Z</time>
      </trkpt>
      <trkpt lat="44.24801" lon="5.41846">
        <ele>1183</ele>
        <time>2026-05-13T14:29:04.000Z</time>
      </trkpt>
      <trkpt lat="44.24801" lon="5.41848">
        <ele>1183</ele>
        <time>2026-05-13T14:29:05.000Z</time>
      </trkpt>
      <trkpt lat="44.24801" lon="5.41848">
        <ele>1183</ele>
        <time>2026-05-13T14:29:06.000Z</time>
      </trkpt>
      <trkpt lat="44.24801" lon="5.41848">
        <ele>1183</ele>
        <time>2026-05-13T14:29:07.000Z</time>
      </trkpt>
      <trkpt lat="44.24801" lon="5.41848">
        <ele>1183</ele>
        <time>2026-05-13T14:29:08.000Z</time>
      </trkpt>
      <trkpt lat="44.24801" lon="5.41848">
        <ele>1183</ele>
        <time>2026-05-13T14:29:09.000Z</time>
      </trkpt>
      <trkpt lat="44.24801" lon="5.41848">
        <ele>1183</ele>
        <time>2026-05-13T14:29:10.000Z</time>
      </trkpt>
      <trkpt lat="44.24801" lon="5.41848">
        <ele>1183</ele>
        <time>2026-05-13T14:29:11.000Z</time>
      </trkpt>
      <trkpt lat="44.24801" lon="5.41848">
        <ele>1183</ele>
        <time>2026-05-13T14:29:12.000Z</time>
      </trkpt>
      <trkpt lat="44.24801" lon="5.41848">
        <ele>1183</ele>
        <time>2026-05-13T14:29:13.000Z</time>
      </trkpt>
      <trkpt lat="44.24801" lon="5.41848">
        <ele>1183</ele>
        <time>2026-05-13T14:29:14.000Z</time>
      </trkpt>
      <trkpt lat="44.24801" lon="5.41848">
        <ele>1183</ele>
        <time>2026-05-13T14:29:15.000Z</time>
      </trkpt>
      <trkpt lat="44.24801" lon="5.41849">
        <ele>1183</ele>
        <time>2026-05-13T14:29:16.000Z</time>
      </trkpt>
      <trkpt lat="44.24799" lon="5.4185">
        <ele>1183</ele>
        <time>2026-05-13T14:29:17.000Z</time>
      </trkpt>
      <trkpt lat="44.24799" lon="5.4185">
        <ele>1183</ele>
        <time>2026-05-13T14:29:18.000Z</time>
      </trkpt>
      <trkpt lat="44.24797" lon="5.41852">
        <ele>1183</ele>
        <time>2026-05-13T14:29:19.000Z</time>
      </trkpt>
      <trkpt lat="44.24796" lon="5.41853">
        <ele>1184</ele>
        <time>2026-05-13T14:29:20.000Z</time>
      </trkpt>
      <trkpt lat="44.24795" lon="5.41855">
        <ele>1184</ele>
        <time>2026-05-13T14:29:21.000Z</time>
      </trkpt>
      <trkpt lat="44.24794" lon="5.41857">
        <ele>1185</ele>
        <time>2026-05-13T14:29:22.000Z</time>
      </trkpt>
      <trkpt lat="44.24794" lon="5.41859">
        <ele>1185</ele>
        <time>2026-05-13T14:29:23.000Z</time>
      </trkpt>
      <trkpt lat="44.24793" lon="5.41861">
        <ele>1185</ele>
        <time>2026-05-13T14:29:24.000Z</time>
      </trkpt>
      <trkpt lat="44.24791" lon="5.41863">
        <ele>1185</ele>
        <time>2026-05-13T14:29:25.000Z</time>
      </trkpt>
      <trkpt lat="44.2479" lon="5.41866">
        <ele>1185</ele>
        <time>2026-05-13T14:29:26.000Z</time>
      </trkpt>
      <trkpt lat="44.24789" lon="5.41868">
        <ele>1186</ele>
        <time>2026-05-13T14:29:27.000Z</time>
      </trkpt>
      <trkpt lat="44.24787" lon="5.4187">
        <ele>1185</ele>
        <time>2026-05-13T14:29:28.000Z</time>
      </trkpt>
      <trkpt lat="44.24786" lon="5.41872">
        <ele>1186</ele>
        <time>2026-05-13T14:29:29.000Z</time>
      </trkpt>
      <trkpt lat="44.24784" lon="5.41873">
        <ele>1186</ele>
        <time>2026-05-13T14:29:30.000Z</time>
      </trkpt>
      <trkpt lat="44.24783" lon="5.41875">
        <ele>1186</ele>
        <time>2026-05-13T14:29:31.000Z</time>
      </trkpt>
      <trkpt lat="44.24781" lon="5.41877">
        <ele>1185</ele>
        <time>2026-05-13T14:29:32.000Z</time>
      </trkpt>
      <trkpt lat="44.2478" lon="5.41879">
        <ele>1186</ele>
        <time>2026-05-13T14:29:33.000Z</time>
      </trkpt>
      <trkpt lat="44.24777" lon="5.4188">
        <ele>1186</ele>
        <time>2026-05-13T14:29:34.000Z</time>
      </trkpt>
      <trkpt lat="44.24775" lon="5.4188">
        <ele>1186</ele>
        <time>2026-05-13T14:29:35.000Z</time>
      </trkpt>
      <trkpt lat="44.24773" lon="5.41882">
        <ele>1186</ele>
        <time>2026-05-13T14:29:36.000Z</time>
      </trkpt>
      <trkpt lat="44.24771" lon="5.41883">
        <ele>1186</ele>
        <time>2026-05-13T14:29:37.000Z</time>
      </trkpt>
      <trkpt lat="44.24769" lon="5.41885">
        <ele>1186</ele>
        <time>2026-05-13T14:29:38.000Z</time>
      </trkpt>
      <trkpt lat="44.24767" lon="5.41886">
        <ele>1187</ele>
        <time>2026-05-13T14:29:39.000Z</time>
      </trkpt>
      <trkpt lat="44.24765" lon="5.41888">
        <ele>1187</ele>
        <time>2026-05-13T14:29:40.000Z</time>
      </trkpt>
      <trkpt lat="44.24763" lon="5.4189">
        <ele>1187</ele>
        <time>2026-05-13T14:29:41.000Z</time>
      </trkpt>
      <trkpt lat="44.24761" lon="5.41893">
        <ele>1187</ele>
        <time>2026-05-13T14:29:42.000Z</time>
      </trkpt>
      <trkpt lat="44.24759" lon="5.41895">
        <ele>1186</ele>
        <time>2026-05-13T14:29:43.000Z</time>
      </trkpt>
      <trkpt lat="44.24757" lon="5.41898">
        <ele>1186</ele>
        <time>2026-05-13T14:29:44.000Z</time>
      </trkpt>
      <trkpt lat="44.24755" lon="5.41902">
        <ele>1186</ele>
        <time>2026-05-13T14:29:45.000Z</time>
      </trkpt>
      <trkpt lat="44.24754" lon="5.41906">
        <ele>1187</ele>
        <time>2026-05-13T14:29:46.000Z</time>
      </trkpt>
      <trkpt lat="44.24753" lon="5.4191">
        <ele>1186</ele>
        <time>2026-05-13T14:29:47.000Z</time>
      </trkpt>
      <trkpt lat="44.24752" lon="5.41913">
        <ele>1186</ele>
        <time>2026-05-13T14:29:48.000Z</time>
      </trkpt>
      <trkpt lat="44.2475" lon="5.41917">
        <ele>1185</ele>
        <time>2026-05-13T14:29:49.000Z</time>
      </trkpt>
      <trkpt lat="44.24748" lon="5.41919">
        <ele>1185</ele>
        <time>2026-05-13T14:29:50.000Z</time>
      </trkpt>
      <trkpt lat="44.24745" lon="5.41922">
        <ele>1185</ele>
        <time>2026-05-13T14:29:51.000Z</time>
      </trkpt>
      <trkpt lat="44.24743" lon="5.41924">
        <ele>1186</ele>
        <time>2026-05-13T14:29:52.000Z</time>
      </trkpt>
      <trkpt lat="44.24741" lon="5.41927">
        <ele>1186</ele>
        <time>2026-05-13T14:29:53.000Z</time>
      </trkpt>
      <trkpt lat="44.24739" lon="5.41928">
        <ele>1186</ele>
        <time>2026-05-13T14:29:54.000Z</time>
      </trkpt>
      <trkpt lat="44.24737" lon="5.4193">
        <ele>1186</ele>
        <time>2026-05-13T14:29:55.000Z</time>
      </trkpt>
      <trkpt lat="44.24735" lon="5.41932">
        <ele>1185</ele>
        <time>2026-05-13T14:29:56.000Z</time>
      </trkpt>
      <trkpt lat="44.24733" lon="5.41934">
        <ele>1185</ele>
        <time>2026-05-13T14:29:57.000Z</time>
      </trkpt>
      <trkpt lat="44.24731" lon="5.41934">
        <ele>1185</ele>
        <time>2026-05-13T14:29:58.000Z</time>
      </trkpt>
      <trkpt lat="44.24728" lon="5.41935">
        <ele>1185</ele>
        <time>2026-05-13T14:29:59.000Z</time>
      </trkpt>
      <trkpt lat="44.24725" lon="5.41935">
        <ele>1185</ele>
        <time>2026-05-13T14:30:00.000Z</time>
      </trkpt>
      <trkpt lat="44.24722" lon="5.41936">
        <ele>1185</ele>
        <time>2026-05-13T14:30:01.000Z</time>
      </trkpt>
      <trkpt lat="44.2472" lon="5.41938">
        <ele>1185</ele>
        <time>2026-05-13T14:30:02.000Z</time>
      </trkpt>
      <trkpt lat="44.24718" lon="5.4194">
        <ele>1186</ele>
        <time>2026-05-13T14:30:03.000Z</time>
      </trkpt>
      <trkpt lat="44.24716" lon="5.41941">
        <ele>1186</ele>
        <time>2026-05-13T14:30:04.000Z</time>
      </trkpt>
      <trkpt lat="44.24714" lon="5.41943">
        <ele>1186</ele>
        <time>2026-05-13T14:30:05.000Z</time>
      </trkpt>
      <trkpt lat="44.24712" lon="5.41944">
        <ele>1186</ele>
        <time>2026-05-13T14:30:06.000Z</time>
      </trkpt>
      <trkpt lat="44.2471" lon="5.41945">
        <ele>1186</ele>
        <time>2026-05-13T14:30:07.000Z</time>
      </trkpt>
      <trkpt lat="44.24708" lon="5.41946">
        <ele>1186</ele>
        <time>2026-05-13T14:30:08.000Z</time>
      </trkpt>
      <trkpt lat="44.24707" lon="5.41947">
        <ele>1186</ele>
        <time>2026-05-13T14:30:09.000Z</time>
      </trkpt>
      <trkpt lat="44.24705" lon="5.41948">
        <ele>1186</ele>
        <time>2026-05-13T14:30:10.000Z</time>
      </trkpt>
      <trkpt lat="44.24704" lon="5.41948">
        <ele>1187</ele>
        <time>2026-05-13T14:30:11.000Z</time>
      </trkpt>
      <trkpt lat="44.24702" lon="5.41949">
        <ele>1187</ele>
        <time>2026-05-13T14:30:12.000Z</time>
      </trkpt>
      <trkpt lat="44.24701" lon="5.4195">
        <ele>1187</ele>
        <time>2026-05-13T14:30:13.000Z</time>
      </trkpt>
      <trkpt lat="44.24699" lon="5.4195">
        <ele>1188</ele>
        <time>2026-05-13T14:30:14.000Z</time>
      </trkpt>
      <trkpt lat="44.24698" lon="5.41952">
        <ele>1188</ele>
        <time>2026-05-13T14:30:15.000Z</time>
      </trkpt>
      <trkpt lat="44.24697" lon="5.41953">
        <ele>1188</ele>
        <time>2026-05-13T14:30:16.000Z</time>
      </trkpt>
      <trkpt lat="44.24696" lon="5.41954">
        <ele>1188</ele>
        <time>2026-05-13T14:30:17.000Z</time>
      </trkpt>
      <trkpt lat="44.24695" lon="5.41956">
        <ele>1188</ele>
        <time>2026-05-13T14:30:18.000Z</time>
      </trkpt>
      <trkpt lat="44.24694" lon="5.41958">
        <ele>1188</ele>
        <time>2026-05-13T14:30:19.000Z</time>
      </trkpt>
      <trkpt lat="44.24693" lon="5.4196">
        <ele>1188</ele>
        <time>2026-05-13T14:30:20.000Z</time>
      </trkpt>
      <trkpt lat="44.24692" lon="5.41962">
        <ele>1189</ele>
        <time>2026-05-13T14:30:21.000Z</time>
      </trkpt>
      <trkpt lat="44.2469" lon="5.41963">
        <ele>1189</ele>
        <time>2026-05-13T14:30:22.000Z</time>
      </trkpt>
      <trkpt lat="44.24689" lon="5.41964">
        <ele>1189</ele>
        <time>2026-05-13T14:30:23.000Z</time>
      </trkpt>
      <trkpt lat="44.24689" lon="5.41965">
        <ele>1190</ele>
        <time>2026-05-13T14:30:24.000Z</time>
      </trkpt>
      <trkpt lat="44.24688" lon="5.41968">
        <ele>1190</ele>
        <time>2026-05-13T14:30:25.000Z</time>
      </trkpt>
      <trkpt lat="44.24687" lon="5.41969">
        <ele>1190</ele>
        <time>2026-05-13T14:30:26.000Z</time>
      </trkpt>
      <trkpt lat="44.24687" lon="5.41972">
        <ele>1191</ele>
        <time>2026-05-13T14:30:27.000Z</time>
      </trkpt>
      <trkpt lat="44.24686" lon="5.41973">
        <ele>1191</ele>
        <time>2026-05-13T14:30:28.000Z</time>
      </trkpt>
      <trkpt lat="44.24685" lon="5.41975">
        <ele>1191</ele>
        <time>2026-05-13T14:30:29.000Z</time>
      </trkpt>
      <trkpt lat="44.24684" lon="5.41977">
        <ele>1191</ele>
        <time>2026-05-13T14:30:30.000Z</time>
      </trkpt>
      <trkpt lat="44.24683" lon="5.41978">
        <ele>1191</ele>
        <time>2026-05-13T14:30:31.000Z</time>
      </trkpt>
      <trkpt lat="44.24682" lon="5.41979">
        <ele>1190</ele>
        <time>2026-05-13T14:30:32.000Z</time>
      </trkpt>
      <trkpt lat="44.24681" lon="5.41979">
        <ele>1190</ele>
        <time>2026-05-13T14:30:33.000Z</time>
      </trkpt>
      <trkpt lat="44.2468" lon="5.4198">
        <ele>1191</ele>
        <time>2026-05-13T14:30:34.000Z</time>
      </trkpt>
      <trkpt lat="44.24679" lon="5.41982">
        <ele>1190</ele>
        <time>2026-05-13T14:30:35.000Z</time>
      </trkpt>
      <trkpt lat="44.24678" lon="5.41983">
        <ele>1190</ele>
        <time>2026-05-13T14:30:36.000Z</time>
      </trkpt>
      <trkpt lat="44.24677" lon="5.41985">
        <ele>1190</ele>
        <time>2026-05-13T14:30:37.000Z</time>
      </trkpt>
      <trkpt lat="44.24675" lon="5.41985">
        <ele>1190</ele>
        <time>2026-05-13T14:30:38.000Z</time>
      </trkpt>
      <trkpt lat="44.24674" lon="5.41986">
        <ele>1190</ele>
        <time>2026-05-13T14:30:39.000Z</time>
      </trkpt>
      <trkpt lat="44.24673" lon="5.41988">
        <ele>1191</ele>
        <time>2026-05-13T14:30:40.000Z</time>
      </trkpt>
      <trkpt lat="44.24672" lon="5.41989">
        <ele>1191</ele>
        <time>2026-05-13T14:30:41.000Z</time>
      </trkpt>
      <trkpt lat="44.24671" lon="5.4199">
        <ele>1192</ele>
        <time>2026-05-13T14:30:42.000Z</time>
      </trkpt>
      <trkpt lat="44.2467" lon="5.41991">
        <ele>1192</ele>
        <time>2026-05-13T14:30:43.000Z</time>
      </trkpt>
      <trkpt lat="44.24669" lon="5.41993">
        <ele>1192</ele>
        <time>2026-05-13T14:30:44.000Z</time>
      </trkpt>
      <trkpt lat="44.24667" lon="5.41994">
        <ele>1192</ele>
        <time>2026-05-13T14:30:45.000Z</time>
      </trkpt>
      <trkpt lat="44.24666" lon="5.41995">
        <ele>1192</ele>
        <time>2026-05-13T14:30:46.000Z</time>
      </trkpt>
      <trkpt lat="44.24665" lon="5.41997">
        <ele>1192</ele>
        <time>2026-05-13T14:30:47.000Z</time>
      </trkpt>
      <trkpt lat="44.24664" lon="5.41999">
        <ele>1192</ele>
        <time>2026-05-13T14:30:48.000Z</time>
      </trkpt>
      <trkpt lat="44.24663" lon="5.42002">
        <ele>1191</ele>
        <time>2026-05-13T14:30:49.000Z</time>
      </trkpt>
      <trkpt lat="44.24662" lon="5.42004">
        <ele>1192</ele>
        <time>2026-05-13T14:30:50.000Z</time>
      </trkpt>
      <trkpt lat="44.24661" lon="5.42005">
        <ele>1192</ele>
        <time>2026-05-13T14:30:51.000Z</time>
      </trkpt>
      <trkpt lat="44.2466" lon="5.42007">
        <ele>1192</ele>
        <time>2026-05-13T14:30:52.000Z</time>
      </trkpt>
      <trkpt lat="44.2466" lon="5.42009">
        <ele>1192</ele>
        <time>2026-05-13T14:30:53.000Z</time>
      </trkpt>
      <trkpt lat="44.2466" lon="5.42011">
        <ele>1192</ele>
        <time>2026-05-13T14:30:54.000Z</time>
      </trkpt>
      <trkpt lat="44.24659" lon="5.42013">
        <ele>1192</ele>
        <time>2026-05-13T14:30:55.000Z</time>
      </trkpt>
      <trkpt lat="44.24659" lon="5.42016">
        <ele>1192</ele>
        <time>2026-05-13T14:30:56.000Z</time>
      </trkpt>
      <trkpt lat="44.24659" lon="5.4202">
        <ele>1191</ele>
        <time>2026-05-13T14:30:57.000Z</time>
      </trkpt>
      <trkpt lat="44.24659" lon="5.42023">
        <ele>1190</ele>
        <time>2026-05-13T14:30:58.000Z</time>
      </trkpt>
      <trkpt lat="44.24658" lon="5.42027">
        <ele>1190</ele>
        <time>2026-05-13T14:30:59.000Z</time>
      </trkpt>
      <trkpt lat="44.24658" lon="5.4203">
        <ele>1189</ele>
        <time>2026-05-13T14:31:00.000Z</time>
      </trkpt>
      <trkpt lat="44.24659" lon="5.42034">
        <ele>1189</ele>
        <time>2026-05-13T14:31:01.000Z</time>
      </trkpt>
      <trkpt lat="44.2466" lon="5.42037">
        <ele>1188</ele>
        <time>2026-05-13T14:31:02.000Z</time>
      </trkpt>
      <trkpt lat="44.2466" lon="5.4204">
        <ele>1188</ele>
        <time>2026-05-13T14:31:03.000Z</time>
      </trkpt>
      <trkpt lat="44.2466" lon="5.4204">
        <ele>1188</ele>
        <time>2026-05-13T14:31:04.000Z</time>
      </trkpt>
      <trkpt lat="44.2466" lon="5.42041">
        <ele>1188</ele>
        <time>2026-05-13T14:31:05.000Z</time>
      </trkpt>
      <trkpt lat="44.2466" lon="5.42042">
        <ele>1188</ele>
        <time>2026-05-13T14:31:06.000Z</time>
      </trkpt>
      <trkpt lat="44.2466" lon="5.42047">
        <ele>1187</ele>
        <time>2026-05-13T14:31:07.000Z</time>
      </trkpt>
      <trkpt lat="44.24662" lon="5.42052">
        <ele>1186</ele>
        <time>2026-05-13T14:31:08.000Z</time>
      </trkpt>
      <trkpt lat="44.24663" lon="5.42059">
        <ele>1185</ele>
        <time>2026-05-13T14:31:09.000Z</time>
      </trkpt>
      <trkpt lat="44.24663" lon="5.42067">
        <ele>1184</ele>
        <time>2026-05-13T14:31:10.000Z</time>
      </trkpt>
      <trkpt lat="44.24662" lon="5.42073">
        <ele>1184</ele>
        <time>2026-05-13T14:31:11.000Z</time>
      </trkpt>
      <trkpt lat="44.24662" lon="5.42079">
        <ele>1184</ele>
        <time>2026-05-13T14:31:12.000Z</time>
      </trkpt>
      <trkpt lat="44.24662" lon="5.42085">
        <ele>1183</ele>
        <time>2026-05-13T14:31:13.000Z</time>
      </trkpt>
      <trkpt lat="44.24661" lon="5.42091">
        <ele>1182</ele>
        <time>2026-05-13T14:31:14.000Z</time>
      </trkpt>
      <trkpt lat="44.24661" lon="5.42097">
        <ele>1181</ele>
        <time>2026-05-13T14:31:15.000Z</time>
      </trkpt>
      <trkpt lat="44.2466" lon="5.42104">
        <ele>1181</ele>
        <time>2026-05-13T14:31:16.000Z</time>
      </trkpt>
      <trkpt lat="44.24658" lon="5.42112">
        <ele>1182</ele>
        <time>2026-05-13T14:31:17.000Z</time>
      </trkpt>
      <trkpt lat="44.24656" lon="5.42119">
        <ele>1182</ele>
        <time>2026-05-13T14:31:18.000Z</time>
      </trkpt>
      <trkpt lat="44.24656" lon="5.42126">
        <ele>1182</ele>
        <time>2026-05-13T14:31:19.000Z</time>
      </trkpt>
      <trkpt lat="44.24654" lon="5.42133">
        <ele>1182</ele>
        <time>2026-05-13T14:31:20.000Z</time>
      </trkpt>
      <trkpt lat="44.24653" lon="5.42138">
        <ele>1182</ele>
        <time>2026-05-13T14:31:21.000Z</time>
      </trkpt>
      <trkpt lat="44.24652" lon="5.42143">
        <ele>1182</ele>
        <time>2026-05-13T14:31:22.000Z</time>
      </trkpt>
      <trkpt lat="44.24653" lon="5.42146">
        <ele>1182</ele>
        <time>2026-05-13T14:31:23.000Z</time>
      </trkpt>
      <trkpt lat="44.24653" lon="5.42149">
        <ele>1183</ele>
        <time>2026-05-13T14:31:24.000Z</time>
      </trkpt>
      <trkpt lat="44.24654" lon="5.42151">
        <ele>1183</ele>
        <time>2026-05-13T14:31:25.000Z</time>
      </trkpt>
      <trkpt lat="44.24654" lon="5.42153">
        <ele>1182</ele>
        <time>2026-05-13T14:31:26.000Z</time>
      </trkpt>
      <trkpt lat="44.24654" lon="5.42155">
        <ele>1182</ele>
        <time>2026-05-13T14:31:27.000Z</time>
      </trkpt>
      <trkpt lat="44.24653" lon="5.42156">
        <ele>1183</ele>
        <time>2026-05-13T14:31:28.000Z</time>
      </trkpt>
      <trkpt lat="44.24653" lon="5.42158">
        <ele>1183</ele>
        <time>2026-05-13T14:31:29.000Z</time>
      </trkpt>
      <trkpt lat="44.24653" lon="5.42159">
        <ele>1183</ele>
        <time>2026-05-13T14:31:30.000Z</time>
      </trkpt>
      <trkpt lat="44.24653" lon="5.42161">
        <ele>1183</ele>
        <time>2026-05-13T14:31:31.000Z</time>
      </trkpt>
      <trkpt lat="44.24653" lon="5.42163">
        <ele>1183</ele>
        <time>2026-05-13T14:31:32.000Z</time>
      </trkpt>
      <trkpt lat="44.24652" lon="5.42163">
        <ele>1183</ele>
        <time>2026-05-13T14:31:33.000Z</time>
      </trkpt>
      <trkpt lat="44.24652" lon="5.42163">
        <ele>1183</ele>
        <time>2026-05-13T14:31:34.000Z</time>
      </trkpt>
      <trkpt lat="44.24652" lon="5.42163">
        <ele>1183</ele>
        <time>2026-05-13T14:31:35.000Z</time>
      </trkpt>
      <trkpt lat="44.24652" lon="5.42163">
        <ele>1183</ele>
        <time>2026-05-13T14:31:36.000Z</time>
      </trkpt>
      <trkpt lat="44.24652" lon="5.42163">
        <ele>1183</ele>
        <time>2026-05-13T14:31:37.000Z</time>
      </trkpt>
      <trkpt lat="44.24652" lon="5.42163">
        <ele>1183</ele>
        <time>2026-05-13T14:31:38.000Z</time>
      </trkpt>
      <trkpt lat="44.24652" lon="5.42163">
        <ele>1183</ele>
        <time>2026-05-13T14:31:39.000Z</time>
      </trkpt>
      <trkpt lat="44.24652" lon="5.42163">
        <ele>1183</ele>
        <time>2026-05-13T14:31:40.000Z</time>
      </trkpt>
      <trkpt lat="44.24652" lon="5.42163">
        <ele>1183</ele>
        <time>2026-05-13T14:31:41.000Z</time>
      </trkpt>
      <trkpt lat="44.24652" lon="5.42163">
        <ele>1183</ele>
        <time>2026-05-13T14:31:42.000Z</time>
      </trkpt>
      <trkpt lat="44.24652" lon="5.42163">
        <ele>1183</ele>
        <time>2026-05-13T14:31:43.000Z</time>
      </trkpt>
      <trkpt lat="44.24652" lon="5.42163">
        <ele>1183</ele>
        <time>2026-05-13T14:31:44.000Z</time>
      </trkpt>
      <trkpt lat="44.24652" lon="5.42163">
        <ele>1183</ele>
        <time>2026-05-13T14:31:45.000Z</time>
      </trkpt>
      <trkpt lat="44.24652" lon="5.42163">
        <ele>1183</ele>
        <time>2026-05-13T14:31:46.000Z</time>
      </trkpt>
      <trkpt lat="44.24652" lon="5.42163">
        <ele>1183</ele>
        <time>2026-05-13T14:31:47.000Z</time>
      </trkpt>
      <trkpt lat="44.24652" lon="5.42163">
        <ele>1183</ele>
        <time>2026-05-13T14:31:48.000Z</time>
      </trkpt>
      <trkpt lat="44.24651" lon="5.42164">
        <ele>1183</ele>
        <time>2026-05-13T14:31:49.000Z</time>
      </trkpt>
      <trkpt lat="44.24651" lon="5.42164">
        <ele>1183</ele>
        <time>2026-05-13T14:31:50.000Z</time>
      </trkpt>
      <trkpt lat="44.2465" lon="5.42166">
        <ele>1182</ele>
        <time>2026-05-13T14:31:51.000Z</time>
      </trkpt>
      <trkpt lat="44.24649" lon="5.42167">
        <ele>1182</ele>
        <time>2026-05-13T14:31:52.000Z</time>
      </trkpt>
      <trkpt lat="44.24648" lon="5.42167">
        <ele>1181</ele>
        <time>2026-05-13T14:31:53.000Z</time>
      </trkpt>
      <trkpt lat="44.24647" lon="5.42168">
        <ele>1180</ele>
        <time>2026-05-13T14:31:54.000Z</time>
      </trkpt>
      <trkpt lat="44.24646" lon="5.42169">
        <ele>1180</ele>
        <time>2026-05-13T14:31:55.000Z</time>
      </trkpt>
      <trkpt lat="44.24646" lon="5.42171">
        <ele>1179</ele>
        <time>2026-05-13T14:31:56.000Z</time>
      </trkpt>
      <trkpt lat="44.24644" lon="5.42173">
        <ele>1179</ele>
        <time>2026-05-13T14:31:57.000Z</time>
      </trkpt>
      <trkpt lat="44.24643" lon="5.42176">
        <ele>1177</ele>
        <time>2026-05-13T14:31:58.000Z</time>
      </trkpt>
      <trkpt lat="44.2464" lon="5.42178">
        <ele>1175</ele>
        <time>2026-05-13T14:31:59.000Z</time>
      </trkpt>
      <trkpt lat="44.24637" lon="5.42182">
        <ele>1173</ele>
        <time>2026-05-13T14:32:00.000Z</time>
      </trkpt>
      <trkpt lat="44.24632" lon="5.42184">
        <ele>1170</ele>
        <time>2026-05-13T14:32:01.000Z</time>
      </trkpt>
      <trkpt lat="44.24628" lon="5.42189">
        <ele>1167</ele>
        <time>2026-05-13T14:32:02.000Z</time>
      </trkpt>
      <trkpt lat="44.24624" lon="5.42192">
        <ele>1164</ele>
        <time>2026-05-13T14:32:03.000Z</time>
      </trkpt>
      <trkpt lat="44.2462" lon="5.42196">
        <ele>1161</ele>
        <time>2026-05-13T14:32:04.000Z</time>
      </trkpt>
      <trkpt lat="44.24616" lon="5.422">
        <ele>1159</ele>
        <time>2026-05-13T14:32:05.000Z</time>
      </trkpt>
      <trkpt lat="44.24611" lon="5.42203">
        <ele>1157</ele>
        <time>2026-05-13T14:32:06.000Z</time>
      </trkpt>
      <trkpt lat="44.24607" lon="5.42207">
        <ele>1156</ele>
        <time>2026-05-13T14:32:07.000Z</time>
      </trkpt>
      <trkpt lat="44.24603" lon="5.4221">
        <ele>1155</ele>
        <time>2026-05-13T14:32:08.000Z</time>
      </trkpt>
      <trkpt lat="44.24599" lon="5.42214">
        <ele>1155</ele>
        <time>2026-05-13T14:32:09.000Z</time>
      </trkpt>
      <trkpt lat="44.24595" lon="5.42217">
        <ele>1154</ele>
        <time>2026-05-13T14:32:10.000Z</time>
      </trkpt>
      <trkpt lat="44.24592" lon="5.4222">
        <ele>1153</ele>
        <time>2026-05-13T14:32:11.000Z</time>
      </trkpt>
      <trkpt lat="44.24588" lon="5.42222">
        <ele>1152</ele>
        <time>2026-05-13T14:32:12.000Z</time>
      </trkpt>
      <trkpt lat="44.24584" lon="5.42224">
        <ele>1151</ele>
        <time>2026-05-13T14:32:13.000Z</time>
      </trkpt>
      <trkpt lat="44.24583" lon="5.42226">
        <ele>1150</ele>
        <time>2026-05-13T14:32:14.000Z</time>
      </trkpt>
      <trkpt lat="44.24581" lon="5.42227">
        <ele>1150</ele>
        <time>2026-05-13T14:32:15.000Z</time>
      </trkpt>
      <trkpt lat="44.2458" lon="5.42228">
        <ele>1150</ele>
        <time>2026-05-13T14:32:16.000Z</time>
      </trkpt>
      <trkpt lat="44.24578" lon="5.42229">
        <ele>1150</ele>
        <time>2026-05-13T14:32:17.000Z</time>
      </trkpt>
      <trkpt lat="44.24577" lon="5.4223">
        <ele>1149</ele>
        <time>2026-05-13T14:32:18.000Z</time>
      </trkpt>
      <trkpt lat="44.24574" lon="5.42231">
        <ele>1149</ele>
        <time>2026-05-13T14:32:19.000Z</time>
      </trkpt>
      <trkpt lat="44.24572" lon="5.42232">
        <ele>1149</ele>
        <time>2026-05-13T14:32:20.000Z</time>
      </trkpt>
      <trkpt lat="44.2457" lon="5.42233">
        <ele>1149</ele>
        <time>2026-05-13T14:32:21.000Z</time>
      </trkpt>
      <trkpt lat="44.24569" lon="5.42234">
        <ele>1149</ele>
        <time>2026-05-13T14:32:22.000Z</time>
      </trkpt>
      <trkpt lat="44.24568" lon="5.42236">
        <ele>1149</ele>
        <time>2026-05-13T14:32:23.000Z</time>
      </trkpt>
      <trkpt lat="44.24569" lon="5.42236">
        <ele>1149</ele>
        <time>2026-05-13T14:32:24.000Z</time>
      </trkpt>
      <trkpt lat="44.24569" lon="5.42236">
        <ele>1149</ele>
        <time>2026-05-13T14:32:25.000Z</time>
      </trkpt>
      <trkpt lat="44.24569" lon="5.42236">
        <ele>1149</ele>
        <time>2026-05-13T14:32:26.000Z</time>
      </trkpt>
      <trkpt lat="44.24569" lon="5.42236">
        <ele>1149</ele>
        <time>2026-05-13T14:32:27.000Z</time>
      </trkpt>
      <trkpt lat="44.24569" lon="5.42236">
        <ele>1149</ele>
        <time>2026-05-13T14:32:28.000Z</time>
      </trkpt>
      <trkpt lat="44.24569" lon="5.42236">
        <ele>1149</ele>
        <time>2026-05-13T14:32:29.000Z</time>
      </trkpt>
      <trkpt lat="44.24569" lon="5.42236">
        <ele>1149</ele>
        <time>2026-05-13T14:32:30.000Z</time>
      </trkpt>
      <trkpt lat="44.24569" lon="5.42236">
        <ele>1149</ele>
        <time>2026-05-13T14:32:31.000Z</time>
      </trkpt>
      <trkpt lat="44.24569" lon="5.42236">
        <ele>1149</ele>
        <time>2026-05-13T14:32:32.000Z</time>
      </trkpt>
      <trkpt lat="44.24569" lon="5.42236">
        <ele>1149</ele>
        <time>2026-05-13T14:32:33.000Z</time>
      </trkpt>
      <trkpt lat="44.24569" lon="5.42236">
        <ele>1149</ele>
        <time>2026-05-13T14:32:34.000Z</time>
      </trkpt>
      <trkpt lat="44.24569" lon="5.42236">
        <ele>1149</ele>
        <time>2026-05-13T14:32:35.000Z</time>
      </trkpt>
      <trkpt lat="44.24569" lon="5.42236">
        <ele>1149</ele>
        <time>2026-05-13T14:32:36.000Z</time>
      </trkpt>
      <trkpt lat="44.24569" lon="5.42236">
        <ele>1149</ele>
        <time>2026-05-13T14:32:37.000Z</time>
      </trkpt>
      <trkpt lat="44.24569" lon="5.42236">
        <ele>1149</ele>
        <time>2026-05-13T14:32:38.000Z</time>
      </trkpt>
      <trkpt lat="44.24569" lon="5.42236">
        <ele>1149</ele>
        <time>2026-05-13T14:32:39.000Z</time>
      </trkpt>
      <trkpt lat="44.24569" lon="5.42236">
        <ele>1149</ele>
        <time>2026-05-13T14:32:40.000Z</time>
      </trkpt>
      <trkpt lat="44.24569" lon="5.42236">
        <ele>1149</ele>
        <time>2026-05-13T14:32:41.000Z</time>
      </trkpt>
      <trkpt lat="44.24569" lon="5.42236">
        <ele>1149</ele>
        <time>2026-05-13T14:32:42.000Z</time>
      </trkpt>
      <trkpt lat="44.24569" lon="5.42236">
        <ele>1149</ele>
        <time>2026-05-13T14:32:43.000Z</time>
      </trkpt>
      <trkpt lat="44.24569" lon="5.42236">
        <ele>1149</ele>
        <time>2026-05-13T14:32:44.000Z</time>
      </trkpt>
      <trkpt lat="44.24569" lon="5.42236">
        <ele>1149</ele>
        <time>2026-05-13T14:32:45.000Z</time>
      </trkpt>
      <trkpt lat="44.24568" lon="5.42236">
        <ele>1149</ele>
        <time>2026-05-13T14:32:46.000Z</time>
      </trkpt>
      <trkpt lat="44.24566" lon="5.42237">
        <ele>1149</ele>
        <time>2026-05-13T14:32:47.000Z</time>
      </trkpt>
      <trkpt lat="44.24565" lon="5.42238">
        <ele>1149</ele>
        <time>2026-05-13T14:32:48.000Z</time>
      </trkpt>
      <trkpt lat="44.24562" lon="5.42238">
        <ele>1148</ele>
        <time>2026-05-13T14:32:49.000Z</time>
      </trkpt>
      <trkpt lat="44.24561" lon="5.42239">
        <ele>1148</ele>
        <time>2026-05-13T14:32:50.000Z</time>
      </trkpt>
      <trkpt lat="44.2456" lon="5.42239">
        <ele>1148</ele>
        <time>2026-05-13T14:32:51.000Z</time>
      </trkpt>
      <trkpt lat="44.2456" lon="5.42239">
        <ele>1148</ele>
        <time>2026-05-13T14:32:52.000Z</time>
      </trkpt>
      <trkpt lat="44.2456" lon="5.42239">
        <ele>1148</ele>
        <time>2026-05-13T14:32:53.000Z</time>
      </trkpt>
      <trkpt lat="44.2456" lon="5.42239">
        <ele>1148</ele>
        <time>2026-05-13T14:32:54.000Z</time>
      </trkpt>
      <trkpt lat="44.2456" lon="5.42239">
        <ele>1148</ele>
        <time>2026-05-13T14:32:55.000Z</time>
      </trkpt>
      <trkpt lat="44.2456" lon="5.42239">
        <ele>1148</ele>
        <time>2026-05-13T14:32:56.000Z</time>
      </trkpt>
      <trkpt lat="44.2456" lon="5.42239">
        <ele>1148</ele>
        <time>2026-05-13T14:32:57.000Z</time>
      </trkpt>
      <trkpt lat="44.2456" lon="5.42239">
        <ele>1148</ele>
        <time>2026-05-13T14:32:58.000Z</time>
      </trkpt>
      <trkpt lat="44.2456" lon="5.42239">
        <ele>1148</ele>
        <time>2026-05-13T14:32:59.000Z</time>
      </trkpt>
      <trkpt lat="44.2456" lon="5.42239">
        <ele>1148</ele>
        <time>2026-05-13T14:33:00.000Z</time>
      </trkpt>
      <trkpt lat="44.2456" lon="5.42239">
        <ele>1148</ele>
        <time>2026-05-13T14:33:01.000Z</time>
      </trkpt>
      <trkpt lat="44.2456" lon="5.42239">
        <ele>1148</ele>
        <time>2026-05-13T14:33:02.000Z</time>
      </trkpt>
      <trkpt lat="44.2456" lon="5.42239">
        <ele>1148</ele>
        <time>2026-05-13T14:33:03.000Z</time>
      </trkpt>
      <trkpt lat="44.2456" lon="5.42239">
        <ele>1148</ele>
        <time>2026-05-13T14:33:04.000Z</time>
      </trkpt>
      <trkpt lat="44.2456" lon="5.42239">
        <ele>1148</ele>
        <time>2026-05-13T14:33:05.000Z</time>
      </trkpt>
      <trkpt lat="44.2456" lon="5.42239">
        <ele>1148</ele>
        <time>2026-05-13T14:33:06.000Z</time>
      </trkpt>
      <trkpt lat="44.2456" lon="5.42239">
        <ele>1148</ele>
        <time>2026-05-13T14:33:07.000Z</time>
      </trkpt>
      <trkpt lat="44.2456" lon="5.42239">
        <ele>1148</ele>
        <time>2026-05-13T14:33:08.000Z</time>
      </trkpt>
      <trkpt lat="44.2456" lon="5.42239">
        <ele>1148</ele>
        <time>2026-05-13T14:33:09.000Z</time>
      </trkpt>
      <trkpt lat="44.2456" lon="5.42239">
        <ele>1148</ele>
        <time>2026-05-13T14:33:10.000Z</time>
      </trkpt>
      <trkpt lat="44.2456" lon="5.42239">
        <ele>1148</ele>
        <time>2026-05-13T14:33:11.000Z</time>
      </trkpt>
      <trkpt lat="44.2456" lon="5.42239">
        <ele>1148</ele>
        <time>2026-05-13T14:33:12.000Z</time>
      </trkpt>
      <trkpt lat="44.2456" lon="5.42239">
        <ele>1148</ele>
        <time>2026-05-13T14:33:13.000Z</time>
      </trkpt>
      <trkpt lat="44.2456" lon="5.42239">
        <ele>1148</ele>
        <time>2026-05-13T14:33:14.000Z</time>
      </trkpt>
      <trkpt lat="44.2456" lon="5.42239">
        <ele>1148</ele>
        <time>2026-05-13T14:33:15.000Z</time>
      </trkpt>
      <trkpt lat="44.2456" lon="5.42239">
        <ele>1148</ele>
        <time>2026-05-13T14:33:16.000Z</time>
      </trkpt>
      <trkpt lat="44.2456" lon="5.42239">
        <ele>1148</ele>
        <time>2026-05-13T14:33:17.000Z</time>
      </trkpt>
      <trkpt lat="44.2456" lon="5.42239">
        <ele>1148</ele>
        <time>2026-05-13T14:33:18.000Z</time>
      </trkpt>
      <trkpt lat="44.24561" lon="5.42238">
        <ele>1148</ele>
        <time>2026-05-13T14:33:19.000Z</time>
      </trkpt>
      <trkpt lat="44.24561" lon="5.42239">
        <ele>1148</ele>
        <time>2026-05-13T14:33:20.000Z</time>
      </trkpt>
      <trkpt lat="44.2456" lon="5.42239">
        <ele>1148</ele>
        <time>2026-05-13T14:33:21.000Z</time>
      </trkpt>
      <trkpt lat="44.24558" lon="5.42241">
        <ele>1147</ele>
        <time>2026-05-13T14:33:22.000Z</time>
      </trkpt>
      <trkpt lat="44.24556" lon="5.42243">
        <ele>1147</ele>
        <time>2026-05-13T14:33:23.000Z</time>
      </trkpt>
      <trkpt lat="44.24552" lon="5.42244">
        <ele>1147</ele>
        <time>2026-05-13T14:33:24.000Z</time>
      </trkpt>
      <trkpt lat="44.24549" lon="5.42245">
        <ele>1146</ele>
        <time>2026-05-13T14:33:25.000Z</time>
      </trkpt>
      <trkpt lat="44.24546" lon="5.42248">
        <ele>1146</ele>
        <time>2026-05-13T14:33:26.000Z</time>
      </trkpt>
      <trkpt lat="44.24542" lon="5.42251">
        <ele>1145</ele>
        <time>2026-05-13T14:33:27.000Z</time>
      </trkpt>
      <trkpt lat="44.24538" lon="5.42256">
        <ele>1144</ele>
        <time>2026-05-13T14:33:28.000Z</time>
      </trkpt>
      <trkpt lat="44.24534" lon="5.4226">
        <ele>1142</ele>
        <time>2026-05-13T14:33:29.000Z</time>
      </trkpt>
      <trkpt lat="44.24531" lon="5.42265">
        <ele>1141</ele>
        <time>2026-05-13T14:33:30.000Z</time>
      </trkpt>
      <trkpt lat="44.24526" lon="5.4227">
        <ele>1141</ele>
        <time>2026-05-13T14:33:31.000Z</time>
      </trkpt>
      <trkpt lat="44.24521" lon="5.42276">
        <ele>1140</ele>
        <time>2026-05-13T14:33:32.000Z</time>
      </trkpt>
      <trkpt lat="44.24516" lon="5.42281">
        <ele>1139</ele>
        <time>2026-05-13T14:33:33.000Z</time>
      </trkpt>
      <trkpt lat="44.24511" lon="5.42287">
        <ele>1139</ele>
        <time>2026-05-13T14:33:34.000Z</time>
      </trkpt>
      <trkpt lat="44.24506" lon="5.42291">
        <ele>1138</ele>
        <time>2026-05-13T14:33:35.000Z</time>
      </trkpt>
      <trkpt lat="44.24503" lon="5.42294">
        <ele>1137</ele>
        <time>2026-05-13T14:33:36.000Z</time>
      </trkpt>
      <trkpt lat="44.245" lon="5.42297">
        <ele>1136</ele>
        <time>2026-05-13T14:33:37.000Z</time>
      </trkpt>
      <trkpt lat="44.24496" lon="5.423">
        <ele>1134</ele>
        <time>2026-05-13T14:33:38.000Z</time>
      </trkpt>
      <trkpt lat="44.24492" lon="5.42305">
        <ele>1133</ele>
        <time>2026-05-13T14:33:39.000Z</time>
      </trkpt>
      <trkpt lat="44.24487" lon="5.42309">
        <ele>1131</ele>
        <time>2026-05-13T14:33:40.000Z</time>
      </trkpt>
      <trkpt lat="44.24482" lon="5.42313">
        <ele>1130</ele>
        <time>2026-05-13T14:33:41.000Z</time>
      </trkpt>
      <trkpt lat="44.24477" lon="5.42316">
        <ele>1129</ele>
        <time>2026-05-13T14:33:42.000Z</time>
      </trkpt>
      <trkpt lat="44.24472" lon="5.4232">
        <ele>1128</ele>
        <time>2026-05-13T14:33:43.000Z</time>
      </trkpt>
      <trkpt lat="44.24467" lon="5.42324">
        <ele>1128</ele>
        <time>2026-05-13T14:33:44.000Z</time>
      </trkpt>
      <trkpt lat="44.24462" lon="5.42329">
        <ele>1127</ele>
        <time>2026-05-13T14:33:45.000Z</time>
      </trkpt>
      <trkpt lat="44.24457" lon="5.42334">
        <ele>1126</ele>
        <time>2026-05-13T14:33:46.000Z</time>
      </trkpt>
      <trkpt lat="44.24452" lon="5.42339">
        <ele>1125</ele>
        <time>2026-05-13T14:33:47.000Z</time>
      </trkpt>
      <trkpt lat="44.24446" lon="5.42344">
        <ele>1125</ele>
        <time>2026-05-13T14:33:48.000Z</time>
      </trkpt>
      <trkpt lat="44.24442" lon="5.4235">
        <ele>1126</ele>
        <time>2026-05-13T14:33:49.000Z</time>
      </trkpt>
      <trkpt lat="44.24438" lon="5.42355">
        <ele>1126</ele>
        <time>2026-05-13T14:33:50.000Z</time>
      </trkpt>
      <trkpt lat="44.24433" lon="5.4236">
        <ele>1126</ele>
        <time>2026-05-13T14:33:51.000Z</time>
      </trkpt>
      <trkpt lat="44.24429" lon="5.42364">
        <ele>1126</ele>
        <time>2026-05-13T14:33:52.000Z</time>
      </trkpt>
      <trkpt lat="44.24425" lon="5.42368">
        <ele>1126</ele>
        <time>2026-05-13T14:33:53.000Z</time>
      </trkpt>
      <trkpt lat="44.24422" lon="5.42373">
        <ele>1127</ele>
        <time>2026-05-13T14:33:54.000Z</time>
      </trkpt>
      <trkpt lat="44.2442" lon="5.42377">
        <ele>1127</ele>
        <time>2026-05-13T14:33:55.000Z</time>
      </trkpt>
      <trkpt lat="44.24417" lon="5.42382">
        <ele>1127</ele>
        <time>2026-05-13T14:33:56.000Z</time>
      </trkpt>
      <trkpt lat="44.24413" lon="5.42387">
        <ele>1128</ele>
        <time>2026-05-13T14:33:57.000Z</time>
      </trkpt>
      <trkpt lat="44.24412" lon="5.42392">
        <ele>1127</ele>
        <time>2026-05-13T14:33:58.000Z</time>
      </trkpt>
      <trkpt lat="44.2441" lon="5.42397">
        <ele>1126</ele>
        <time>2026-05-13T14:33:59.000Z</time>
      </trkpt>
      <trkpt lat="44.24408" lon="5.42402">
        <ele>1126</ele>
        <time>2026-05-13T14:34:00.000Z</time>
      </trkpt>
      <trkpt lat="44.24404" lon="5.42406">
        <ele>1126</ele>
        <time>2026-05-13T14:34:01.000Z</time>
      </trkpt>
      <trkpt lat="44.244" lon="5.42409">
        <ele>1126</ele>
        <time>2026-05-13T14:34:02.000Z</time>
      </trkpt>
      <trkpt lat="44.24396" lon="5.42411">
        <ele>1126</ele>
        <time>2026-05-13T14:34:03.000Z</time>
      </trkpt>
      <trkpt lat="44.24393" lon="5.42413">
        <ele>1126</ele>
        <time>2026-05-13T14:34:04.000Z</time>
      </trkpt>
      <trkpt lat="44.24389" lon="5.42415">
        <ele>1126</ele>
        <time>2026-05-13T14:34:05.000Z</time>
      </trkpt>
      <trkpt lat="44.24386" lon="5.42417">
        <ele>1126</ele>
        <time>2026-05-13T14:34:06.000Z</time>
      </trkpt>
      <trkpt lat="44.24383" lon="5.4242">
        <ele>1126</ele>
        <time>2026-05-13T14:34:07.000Z</time>
      </trkpt>
      <trkpt lat="44.2438" lon="5.42423">
        <ele>1125</ele>
        <time>2026-05-13T14:34:08.000Z</time>
      </trkpt>
      <trkpt lat="44.24377" lon="5.42426">
        <ele>1126</ele>
        <time>2026-05-13T14:34:09.000Z</time>
      </trkpt>
      <trkpt lat="44.24375" lon="5.42428">
        <ele>1126</ele>
        <time>2026-05-13T14:34:10.000Z</time>
      </trkpt>
      <trkpt lat="44.24373" lon="5.42431">
        <ele>1126</ele>
        <time>2026-05-13T14:34:11.000Z</time>
      </trkpt>
      <trkpt lat="44.2437" lon="5.42434">
        <ele>1126</ele>
        <time>2026-05-13T14:34:12.000Z</time>
      </trkpt>
      <trkpt lat="44.24368" lon="5.42437">
        <ele>1126</ele>
        <time>2026-05-13T14:34:13.000Z</time>
      </trkpt>
      <trkpt lat="44.24366" lon="5.42438">
        <ele>1126</ele>
        <time>2026-05-13T14:34:14.000Z</time>
      </trkpt>
      <trkpt lat="44.24364" lon="5.4244">
        <ele>1126</ele>
        <time>2026-05-13T14:34:15.000Z</time>
      </trkpt>
      <trkpt lat="44.24361" lon="5.42442">
        <ele>1126</ele>
        <time>2026-05-13T14:34:16.000Z</time>
      </trkpt>
      <trkpt lat="44.24359" lon="5.42444">
        <ele>1126</ele>
        <time>2026-05-13T14:34:17.000Z</time>
      </trkpt>
      <trkpt lat="44.24356" lon="5.42445">
        <ele>1126</ele>
        <time>2026-05-13T14:34:18.000Z</time>
      </trkpt>
      <trkpt lat="44.24354" lon="5.42448">
        <ele>1127</ele>
        <time>2026-05-13T14:34:19.000Z</time>
      </trkpt>
      <trkpt lat="44.24352" lon="5.4245">
        <ele>1127</ele>
        <time>2026-05-13T14:34:20.000Z</time>
      </trkpt>
      <trkpt lat="44.24349" lon="5.42452">
        <ele>1127</ele>
        <time>2026-05-13T14:34:21.000Z</time>
      </trkpt>
      <trkpt lat="44.24347" lon="5.42455">
        <ele>1127</ele>
        <time>2026-05-13T14:34:22.000Z</time>
      </trkpt>
      <trkpt lat="44.24344" lon="5.42456">
        <ele>1127</ele>
        <time>2026-05-13T14:34:23.000Z</time>
      </trkpt>
      <trkpt lat="44.24342" lon="5.42458">
        <ele>1127</ele>
        <time>2026-05-13T14:34:24.000Z</time>
      </trkpt>
      <trkpt lat="44.2434" lon="5.42459">
        <ele>1126</ele>
        <time>2026-05-13T14:34:25.000Z</time>
      </trkpt>
      <trkpt lat="44.24337" lon="5.42461">
        <ele>1126</ele>
        <time>2026-05-13T14:34:26.000Z</time>
      </trkpt>
      <trkpt lat="44.24335" lon="5.42463">
        <ele>1126</ele>
        <time>2026-05-13T14:34:27.000Z</time>
      </trkpt>
      <trkpt lat="44.24333" lon="5.42465">
        <ele>1125</ele>
        <time>2026-05-13T14:34:28.000Z</time>
      </trkpt>
      <trkpt lat="44.2433" lon="5.42467">
        <ele>1125</ele>
        <time>2026-05-13T14:34:29.000Z</time>
      </trkpt>
      <trkpt lat="44.24327" lon="5.42469">
        <ele>1125</ele>
        <time>2026-05-13T14:34:30.000Z</time>
      </trkpt>
      <trkpt lat="44.24325" lon="5.42471">
        <ele>1126</ele>
        <time>2026-05-13T14:34:31.000Z</time>
      </trkpt>
      <trkpt lat="44.24321" lon="5.42472">
        <ele>1126</ele>
        <time>2026-05-13T14:34:32.000Z</time>
      </trkpt>
      <trkpt lat="44.24318" lon="5.42473">
        <ele>1125</ele>
        <time>2026-05-13T14:34:33.000Z</time>
      </trkpt>
      <trkpt lat="44.24316" lon="5.42475">
        <ele>1125</ele>
        <time>2026-05-13T14:34:34.000Z</time>
      </trkpt>
      <trkpt lat="44.24313" lon="5.42477">
        <ele>1126</ele>
        <time>2026-05-13T14:34:35.000Z</time>
      </trkpt>
      <trkpt lat="44.24309" lon="5.42479">
        <ele>1126</ele>
        <time>2026-05-13T14:34:36.000Z</time>
      </trkpt>
      <trkpt lat="44.24307" lon="5.42482">
        <ele>1127</ele>
        <time>2026-05-13T14:34:37.000Z</time>
      </trkpt>
      <trkpt lat="44.24305" lon="5.42483">
        <ele>1127</ele>
        <time>2026-05-13T14:34:38.000Z</time>
      </trkpt>
      <trkpt lat="44.24303" lon="5.42485">
        <ele>1127</ele>
        <time>2026-05-13T14:34:39.000Z</time>
      </trkpt>
      <trkpt lat="44.243" lon="5.42486">
        <ele>1127</ele>
        <time>2026-05-13T14:34:40.000Z</time>
      </trkpt>
      <trkpt lat="44.24297" lon="5.42485">
        <ele>1127</ele>
        <time>2026-05-13T14:34:41.000Z</time>
      </trkpt>
      <trkpt lat="44.24294" lon="5.42485">
        <ele>1127</ele>
        <time>2026-05-13T14:34:42.000Z</time>
      </trkpt>
      <trkpt lat="44.24291" lon="5.42487">
        <ele>1127</ele>
        <time>2026-05-13T14:34:43.000Z</time>
      </trkpt>
      <trkpt lat="44.24288" lon="5.4249">
        <ele>1127</ele>
        <time>2026-05-13T14:34:44.000Z</time>
      </trkpt>
      <trkpt lat="44.24286" lon="5.42492">
        <ele>1127</ele>
        <time>2026-05-13T14:34:45.000Z</time>
      </trkpt>
      <trkpt lat="44.24284" lon="5.42494">
        <ele>1127</ele>
        <time>2026-05-13T14:34:46.000Z</time>
      </trkpt>
      <trkpt lat="44.24281" lon="5.42497">
        <ele>1127</ele>
        <time>2026-05-13T14:34:47.000Z</time>
      </trkpt>
      <trkpt lat="44.24279" lon="5.42498">
        <ele>1127</ele>
        <time>2026-05-13T14:34:48.000Z</time>
      </trkpt>
      <trkpt lat="44.24276" lon="5.42499">
        <ele>1127</ele>
        <time>2026-05-13T14:34:49.000Z</time>
      </trkpt>
      <trkpt lat="44.24273" lon="5.42501">
        <ele>1128</ele>
        <time>2026-05-13T14:34:50.000Z</time>
      </trkpt>
      <trkpt lat="44.24271" lon="5.42502">
        <ele>1128</ele>
        <time>2026-05-13T14:34:51.000Z</time>
      </trkpt>
      <trkpt lat="44.24268" lon="5.42503">
        <ele>1128</ele>
        <time>2026-05-13T14:34:52.000Z</time>
      </trkpt>
      <trkpt lat="44.24266" lon="5.42505">
        <ele>1128</ele>
        <time>2026-05-13T14:34:53.000Z</time>
      </trkpt>
      <trkpt lat="44.24264" lon="5.42506">
        <ele>1129</ele>
        <time>2026-05-13T14:34:54.000Z</time>
      </trkpt>
      <trkpt lat="44.24263" lon="5.42507">
        <ele>1128</ele>
        <time>2026-05-13T14:34:55.000Z</time>
      </trkpt>
      <trkpt lat="44.24261" lon="5.42509">
        <ele>1129</ele>
        <time>2026-05-13T14:34:56.000Z</time>
      </trkpt>
      <trkpt lat="44.2426" lon="5.42511">
        <ele>1129</ele>
        <time>2026-05-13T14:34:57.000Z</time>
      </trkpt>
      <trkpt lat="44.24257" lon="5.42512">
        <ele>1129</ele>
        <time>2026-05-13T14:34:58.000Z</time>
      </trkpt>
      <trkpt lat="44.24255" lon="5.42514">
        <ele>1129</ele>
        <time>2026-05-13T14:34:59.000Z</time>
      </trkpt>
      <trkpt lat="44.24253" lon="5.42515">
        <ele>1129</ele>
        <time>2026-05-13T14:35:00.000Z</time>
      </trkpt>
      <trkpt lat="44.24251" lon="5.42517">
        <ele>1129</ele>
        <time>2026-05-13T14:35:01.000Z</time>
      </trkpt>
      <trkpt lat="44.24248" lon="5.42518">
        <ele>1129</ele>
        <time>2026-05-13T14:35:02.000Z</time>
      </trkpt>
      <trkpt lat="44.24246" lon="5.42519">
        <ele>1129</ele>
        <time>2026-05-13T14:35:03.000Z</time>
      </trkpt>
      <trkpt lat="44.24244" lon="5.4252">
        <ele>1130</ele>
        <time>2026-05-13T14:35:04.000Z</time>
      </trkpt>
      <trkpt lat="44.24241" lon="5.42521">
        <ele>1130</ele>
        <time>2026-05-13T14:35:05.000Z</time>
      </trkpt>
      <trkpt lat="44.24239" lon="5.42522">
        <ele>1130</ele>
        <time>2026-05-13T14:35:06.000Z</time>
      </trkpt>
      <trkpt lat="44.24237" lon="5.42522">
        <ele>1129</ele>
        <time>2026-05-13T14:35:07.000Z</time>
      </trkpt>
      <trkpt lat="44.24234" lon="5.42522">
        <ele>1129</ele>
        <time>2026-05-13T14:35:08.000Z</time>
      </trkpt>
      <trkpt lat="44.24232" lon="5.42522">
        <ele>1129</ele>
        <time>2026-05-13T14:35:09.000Z</time>
      </trkpt>
      <trkpt lat="44.2423" lon="5.42522">
        <ele>1129</ele>
        <time>2026-05-13T14:35:10.000Z</time>
      </trkpt>
      <trkpt lat="44.24227" lon="5.42523">
        <ele>1129</ele>
        <time>2026-05-13T14:35:11.000Z</time>
      </trkpt>
      <trkpt lat="44.24225" lon="5.42524">
        <ele>1129</ele>
        <time>2026-05-13T14:35:12.000Z</time>
      </trkpt>
      <trkpt lat="44.24222" lon="5.42526">
        <ele>1129</ele>
        <time>2026-05-13T14:35:13.000Z</time>
      </trkpt>
      <trkpt lat="44.2422" lon="5.42528">
        <ele>1128</ele>
        <time>2026-05-13T14:35:14.000Z</time>
      </trkpt>
      <trkpt lat="44.24218" lon="5.42531">
        <ele>1127</ele>
        <time>2026-05-13T14:35:15.000Z</time>
      </trkpt>
      <trkpt lat="44.24216" lon="5.42534">
        <ele>1127</ele>
        <time>2026-05-13T14:35:16.000Z</time>
      </trkpt>
      <trkpt lat="44.24214" lon="5.42538">
        <ele>1127</ele>
        <time>2026-05-13T14:35:17.000Z</time>
      </trkpt>
      <trkpt lat="44.24212" lon="5.42542">
        <ele>1126</ele>
        <time>2026-05-13T14:35:18.000Z</time>
      </trkpt>
      <trkpt lat="44.2421" lon="5.42545">
        <ele>1126</ele>
        <time>2026-05-13T14:35:19.000Z</time>
      </trkpt>
      <trkpt lat="44.24208" lon="5.42549">
        <ele>1126</ele>
        <time>2026-05-13T14:35:20.000Z</time>
      </trkpt>
      <trkpt lat="44.24207" lon="5.42553">
        <ele>1126</ele>
        <time>2026-05-13T14:35:21.000Z</time>
      </trkpt>
      <trkpt lat="44.24206" lon="5.42556">
        <ele>1126</ele>
        <time>2026-05-13T14:35:22.000Z</time>
      </trkpt>
      <trkpt lat="44.24205" lon="5.42559">
        <ele>1126</ele>
        <time>2026-05-13T14:35:23.000Z</time>
      </trkpt>
      <trkpt lat="44.24204" lon="5.42562">
        <ele>1125</ele>
        <time>2026-05-13T14:35:24.000Z</time>
      </trkpt>
      <trkpt lat="44.24202" lon="5.42566">
        <ele>1126</ele>
        <time>2026-05-13T14:35:25.000Z</time>
      </trkpt>
      <trkpt lat="44.242" lon="5.4257">
        <ele>1126</ele>
        <time>2026-05-13T14:35:26.000Z</time>
      </trkpt>
      <trkpt lat="44.24197" lon="5.42573">
        <ele>1126</ele>
        <time>2026-05-13T14:35:27.000Z</time>
      </trkpt>
      <trkpt lat="44.24195" lon="5.42576">
        <ele>1125</ele>
        <time>2026-05-13T14:35:28.000Z</time>
      </trkpt>
      <trkpt lat="44.24193" lon="5.42579">
        <ele>1125</ele>
        <time>2026-05-13T14:35:29.000Z</time>
      </trkpt>
      <trkpt lat="44.2419" lon="5.42582">
        <ele>1124</ele>
        <time>2026-05-13T14:35:30.000Z</time>
      </trkpt>
      <trkpt lat="44.24187" lon="5.42583">
        <ele>1124</ele>
        <time>2026-05-13T14:35:31.000Z</time>
      </trkpt>
      <trkpt lat="44.24185" lon="5.42584">
        <ele>1125</ele>
        <time>2026-05-13T14:35:32.000Z</time>
      </trkpt>
      <trkpt lat="44.24183" lon="5.42585">
        <ele>1125</ele>
        <time>2026-05-13T14:35:33.000Z</time>
      </trkpt>
      <trkpt lat="44.2418" lon="5.42586">
        <ele>1125</ele>
        <time>2026-05-13T14:35:34.000Z</time>
      </trkpt>
      <trkpt lat="44.24179" lon="5.42586">
        <ele>1126</ele>
        <time>2026-05-13T14:35:35.000Z</time>
      </trkpt>
      <trkpt lat="44.24178" lon="5.42587">
        <ele>1126</ele>
        <time>2026-05-13T14:35:36.000Z</time>
      </trkpt>
      <trkpt lat="44.24178" lon="5.42589">
        <ele>1126</ele>
        <time>2026-05-13T14:35:37.000Z</time>
      </trkpt>
      <trkpt lat="44.24178" lon="5.4259">
        <ele>1125</ele>
        <time>2026-05-13T14:35:38.000Z</time>
      </trkpt>
      <trkpt lat="44.24178" lon="5.4259">
        <ele>1124</ele>
        <time>2026-05-13T14:35:39.000Z</time>
      </trkpt>
      <trkpt lat="44.24177" lon="5.4259">
        <ele>1124</ele>
        <time>2026-05-13T14:35:40.000Z</time>
      </trkpt>
      <trkpt lat="44.24178" lon="5.42591">
        <ele>1124</ele>
        <time>2026-05-13T14:35:41.000Z</time>
      </trkpt>
      <trkpt lat="44.24177" lon="5.42592">
        <ele>1124</ele>
        <time>2026-05-13T14:35:42.000Z</time>
      </trkpt>
      <trkpt lat="44.24177" lon="5.42592">
        <ele>1123</ele>
        <time>2026-05-13T14:35:43.000Z</time>
      </trkpt>
      <trkpt lat="44.24176" lon="5.42592">
        <ele>1123</ele>
        <time>2026-05-13T14:35:44.000Z</time>
      </trkpt>
      <trkpt lat="44.24176" lon="5.42592">
        <ele>1122</ele>
        <time>2026-05-13T14:35:45.000Z</time>
      </trkpt>
      <trkpt lat="44.24176" lon="5.42592">
        <ele>1123</ele>
        <time>2026-05-13T14:35:46.000Z</time>
      </trkpt>
      <trkpt lat="44.24175" lon="5.42592">
        <ele>1123</ele>
        <time>2026-05-13T14:35:47.000Z</time>
      </trkpt>
      <trkpt lat="44.24175" lon="5.42591">
        <ele>1123</ele>
        <time>2026-05-13T14:35:48.000Z</time>
      </trkpt>
      <trkpt lat="44.24175" lon="5.42591">
        <ele>1123</ele>
        <time>2026-05-13T14:35:49.000Z</time>
      </trkpt>
      <trkpt lat="44.24175" lon="5.42591">
        <ele>1123</ele>
        <time>2026-05-13T14:35:50.000Z</time>
      </trkpt>
      <trkpt lat="44.24175" lon="5.42591">
        <ele>1123</ele>
        <time>2026-05-13T14:35:51.000Z</time>
      </trkpt>
      <trkpt lat="44.24175" lon="5.42591">
        <ele>1123</ele>
        <time>2026-05-13T14:35:52.000Z</time>
      </trkpt>
      <trkpt lat="44.24175" lon="5.42591">
        <ele>1123</ele>
        <time>2026-05-13T14:35:53.000Z</time>
      </trkpt>
      <trkpt lat="44.24175" lon="5.42591">
        <ele>1123</ele>
        <time>2026-05-13T14:35:54.000Z</time>
      </trkpt>
      <trkpt lat="44.24175" lon="5.42591">
        <ele>1123</ele>
        <time>2026-05-13T14:35:55.000Z</time>
      </trkpt>
      <trkpt lat="44.24175" lon="5.42591">
        <ele>1123</ele>
        <time>2026-05-13T14:35:56.000Z</time>
      </trkpt>
      <trkpt lat="44.24175" lon="5.42591">
        <ele>1123</ele>
        <time>2026-05-13T14:35:57.000Z</time>
      </trkpt>
      <trkpt lat="44.24175" lon="5.42591">
        <ele>1123</ele>
        <time>2026-05-13T14:35:58.000Z</time>
      </trkpt>
      <trkpt lat="44.24175" lon="5.42591">
        <ele>1123</ele>
        <time>2026-05-13T14:35:59.000Z</time>
      </trkpt>
      <trkpt lat="44.24175" lon="5.42592">
        <ele>1123</ele>
        <time>2026-05-13T14:36:00.000Z</time>
      </trkpt>
      <trkpt lat="44.24175" lon="5.42592">
        <ele>1123</ele>
        <time>2026-05-13T14:36:01.000Z</time>
      </trkpt>
      <trkpt lat="44.24175" lon="5.42592">
        <ele>1123</ele>
        <time>2026-05-13T14:36:02.000Z</time>
      </trkpt>
      <trkpt lat="44.24175" lon="5.42592">
        <ele>1123</ele>
        <time>2026-05-13T14:36:03.000Z</time>
      </trkpt>
      <trkpt lat="44.24175" lon="5.42592">
        <ele>1123</ele>
        <time>2026-05-13T14:36:04.000Z</time>
      </trkpt>
      <trkpt lat="44.24175" lon="5.42592">
        <ele>1123</ele>
        <time>2026-05-13T14:36:05.000Z</time>
      </trkpt>
      <trkpt lat="44.24175" lon="5.42592">
        <ele>1125</ele>
        <time>2026-05-13T14:36:06.000Z</time>
      </trkpt>
      <trkpt lat="44.24175" lon="5.42592">
        <ele>1125</ele>
        <time>2026-05-13T14:36:07.000Z</time>
      </trkpt>
      <trkpt lat="44.24175" lon="5.42592">
        <ele>1125</ele>
        <time>2026-05-13T14:36:08.000Z</time>
      </trkpt>
      <trkpt lat="44.24174" lon="5.42592">
        <ele>1125</ele>
        <time>2026-05-13T14:36:09.000Z</time>
      </trkpt>
      <trkpt lat="44.24174" lon="5.42591">
        <ele>1124</ele>
        <time>2026-05-13T14:36:10.000Z</time>
      </trkpt>
      <trkpt lat="44.24173" lon="5.42591">
        <ele>1124</ele>
        <time>2026-05-13T14:36:11.000Z</time>
      </trkpt>
      <trkpt lat="44.24173" lon="5.42592">
        <ele>1125</ele>
        <time>2026-05-13T14:36:12.000Z</time>
      </trkpt>
      <trkpt lat="44.24174" lon="5.42594">
        <ele>1124</ele>
        <time>2026-05-13T14:36:13.000Z</time>
      </trkpt>
      <trkpt lat="44.24175" lon="5.42595">
        <ele>1123</ele>
        <time>2026-05-13T14:36:14.000Z</time>
      </trkpt>
      <trkpt lat="44.24176" lon="5.42594">
        <ele>1123</ele>
        <time>2026-05-13T14:36:15.000Z</time>
      </trkpt>
      <trkpt lat="44.24176" lon="5.42594">
        <ele>1123</ele>
        <time>2026-05-13T14:36:16.000Z</time>
      </trkpt>
      <trkpt lat="44.24176" lon="5.42594">
        <ele>1123</ele>
        <time>2026-05-13T14:36:17.000Z</time>
      </trkpt>
      <trkpt lat="44.24176" lon="5.42594">
        <ele>1123</ele>
        <time>2026-05-13T14:36:18.000Z</time>
      </trkpt>
      <trkpt lat="44.24176" lon="5.42594">
        <ele>1123</ele>
        <time>2026-05-13T14:36:19.000Z</time>
      </trkpt>
      <trkpt lat="44.24176" lon="5.42594">
        <ele>1123</ele>
        <time>2026-05-13T14:36:20.000Z</time>
      </trkpt>
      <trkpt lat="44.24176" lon="5.42594">
        <ele>1123</ele>
        <time>2026-05-13T14:36:21.000Z</time>
      </trkpt>
      <trkpt lat="44.24176" lon="5.42595">
        <ele>1122</ele>
        <time>2026-05-13T14:36:22.000Z</time>
      </trkpt>
      <trkpt lat="44.24176" lon="5.42595">
        <ele>1122</ele>
        <time>2026-05-13T14:36:23.000Z</time>
      </trkpt>
      <trkpt lat="44.24176" lon="5.42595">
        <ele>1123</ele>
        <time>2026-05-13T14:36:24.000Z</time>
      </trkpt>
      <trkpt lat="44.24175" lon="5.42595">
        <ele>1123</ele>
        <time>2026-05-13T14:36:25.000Z</time>
      </trkpt>
      <trkpt lat="44.24175" lon="5.42595">
        <ele>1123</ele>
        <time>2026-05-13T14:36:26.000Z</time>
      </trkpt>
      <trkpt lat="44.24175" lon="5.42596">
        <ele>1123</ele>
        <time>2026-05-13T14:36:27.000Z</time>
      </trkpt>
      <trkpt lat="44.24174" lon="5.42597">
        <ele>1123</ele>
        <time>2026-05-13T14:36:28.000Z</time>
      </trkpt>
      <trkpt lat="44.24174" lon="5.42599">
        <ele>1122</ele>
        <time>2026-05-13T14:36:29.000Z</time>
      </trkpt>
      <trkpt lat="44.24173" lon="5.42598">
        <ele>1123</ele>
        <time>2026-05-13T14:36:30.000Z</time>
      </trkpt>
      <trkpt lat="44.24173" lon="5.42598">
        <ele>1123</ele>
        <time>2026-05-13T14:36:31.000Z</time>
      </trkpt>
      <trkpt lat="44.24173" lon="5.42598">
        <ele>1123</ele>
        <time>2026-05-13T14:36:32.000Z</time>
      </trkpt>
      <trkpt lat="44.24173" lon="5.42598">
        <ele>1123</ele>
        <time>2026-05-13T14:36:33.000Z</time>
      </trkpt>
      <trkpt lat="44.24173" lon="5.42598">
        <ele>1123</ele>
        <time>2026-05-13T14:36:34.000Z</time>
      </trkpt>
      <trkpt lat="44.24174" lon="5.42598">
        <ele>1123</ele>
        <time>2026-05-13T14:36:35.000Z</time>
      </trkpt>
      <trkpt lat="44.24173" lon="5.42598">
        <ele>1123</ele>
        <time>2026-05-13T14:36:36.000Z</time>
      </trkpt>
      <trkpt lat="44.24172" lon="5.42598">
        <ele>1123</ele>
        <time>2026-05-13T14:36:37.000Z</time>
      </trkpt>
      <trkpt lat="44.24171" lon="5.42599">
        <ele>1123</ele>
        <time>2026-05-13T14:36:38.000Z</time>
      </trkpt>
      <trkpt lat="44.2417" lon="5.42599">
        <ele>1123</ele>
        <time>2026-05-13T14:36:39.000Z</time>
      </trkpt>
      <trkpt lat="44.24169" lon="5.42599">
        <ele>1123</ele>
        <time>2026-05-13T14:36:40.000Z</time>
      </trkpt>
      <trkpt lat="44.24168" lon="5.42599">
        <ele>1123</ele>
        <time>2026-05-13T14:36:41.000Z</time>
      </trkpt>
      <trkpt lat="44.24167" lon="5.42599">
        <ele>1123</ele>
        <time>2026-05-13T14:36:42.000Z</time>
      </trkpt>
      <trkpt lat="44.24166" lon="5.42599">
        <ele>1123</ele>
        <time>2026-05-13T14:36:43.000Z</time>
      </trkpt>
      <trkpt lat="44.24165" lon="5.42601">
        <ele>1123</ele>
        <time>2026-05-13T14:36:44.000Z</time>
      </trkpt>
      <trkpt lat="44.24164" lon="5.42601">
        <ele>1123</ele>
        <time>2026-05-13T14:36:45.000Z</time>
      </trkpt>
      <trkpt lat="44.24163" lon="5.42602">
        <ele>1123</ele>
        <time>2026-05-13T14:36:46.000Z</time>
      </trkpt>
      <trkpt lat="44.24162" lon="5.42602">
        <ele>1123</ele>
        <time>2026-05-13T14:36:47.000Z</time>
      </trkpt>
      <trkpt lat="44.24161" lon="5.42602">
        <ele>1123</ele>
        <time>2026-05-13T14:36:48.000Z</time>
      </trkpt>
      <trkpt lat="44.2416" lon="5.42602">
        <ele>1123</ele>
        <time>2026-05-13T14:36:49.000Z</time>
      </trkpt>
      <trkpt lat="44.24159" lon="5.42602">
        <ele>1123</ele>
        <time>2026-05-13T14:36:50.000Z</time>
      </trkpt>
      <trkpt lat="44.24159" lon="5.42603">
        <ele>1123</ele>
        <time>2026-05-13T14:36:51.000Z</time>
      </trkpt>
      <trkpt lat="44.24159" lon="5.42603">
        <ele>1123</ele>
        <time>2026-05-13T14:36:52.000Z</time>
      </trkpt>
      <trkpt lat="44.24159" lon="5.42603">
        <ele>1123</ele>
        <time>2026-05-13T14:36:53.000Z</time>
      </trkpt>
      <trkpt lat="44.24159" lon="5.42603">
        <ele>1123</ele>
        <time>2026-05-13T14:36:54.000Z</time>
      </trkpt>
      <trkpt lat="44.24159" lon="5.42603">
        <ele>1123</ele>
        <time>2026-05-13T14:36:55.000Z</time>
      </trkpt>
      <trkpt lat="44.24159" lon="5.42603">
        <ele>1123</ele>
        <time>2026-05-13T14:36:56.000Z</time>
      </trkpt>
      <trkpt lat="44.24159" lon="5.42603">
        <ele>1123</ele>
        <time>2026-05-13T14:36:57.000Z</time>
      </trkpt>
      <trkpt lat="44.24159" lon="5.42603">
        <ele>1123</ele>
        <time>2026-05-13T14:36:58.000Z</time>
      </trkpt>
      <trkpt lat="44.24159" lon="5.42603">
        <ele>1123</ele>
        <time>2026-05-13T14:36:59.000Z</time>
      </trkpt>
      <trkpt lat="44.24159" lon="5.42603">
        <ele>1123</ele>
        <time>2026-05-13T14:37:00.000Z</time>
      </trkpt>
      <trkpt lat="44.24159" lon="5.42603">
        <ele>1123</ele>
        <time>2026-05-13T14:37:01.000Z</time>
      </trkpt>
      <trkpt lat="44.24159" lon="5.42603">
        <ele>1123</ele>
        <time>2026-05-13T14:37:02.000Z</time>
      </trkpt>
      <trkpt lat="44.24159" lon="5.42603">
        <ele>1123</ele>
        <time>2026-05-13T14:37:03.000Z</time>
      </trkpt>
      <trkpt lat="44.24159" lon="5.42603">
        <ele>1122</ele>
        <time>2026-05-13T14:37:04.000Z</time>
      </trkpt>
      <trkpt lat="44.2416" lon="5.42603">
        <ele>1122</ele>
        <time>2026-05-13T14:37:05.000Z</time>
      </trkpt>
      <trkpt lat="44.2416" lon="5.42602">
        <ele>1121</ele>
        <time>2026-05-13T14:37:06.000Z</time>
      </trkpt>
      <trkpt lat="44.2416" lon="5.42602">
        <ele>1122</ele>
        <time>2026-05-13T14:37:07.000Z</time>
      </trkpt>
      <trkpt lat="44.2416" lon="5.42602">
        <ele>1122</ele>
        <time>2026-05-13T14:37:08.000Z</time>
      </trkpt>
      <trkpt lat="44.2416" lon="5.42603">
        <ele>1122</ele>
        <time>2026-05-13T14:37:09.000Z</time>
      </trkpt>
      <trkpt lat="44.2416" lon="5.42604">
        <ele>1122</ele>
        <time>2026-05-13T14:37:10.000Z</time>
      </trkpt>
      <trkpt lat="44.2416" lon="5.42604">
        <ele>1122</ele>
        <time>2026-05-13T14:37:11.000Z</time>
      </trkpt>
      <trkpt lat="44.2416" lon="5.42604">
        <ele>1122</ele>
        <time>2026-05-13T14:37:12.000Z</time>
      </trkpt>
      <trkpt lat="44.2416" lon="5.42604">
        <ele>1122</ele>
        <time>2026-05-13T14:37:13.000Z</time>
      </trkpt>
      <trkpt lat="44.2416" lon="5.42604">
        <ele>1122</ele>
        <time>2026-05-13T14:37:14.000Z</time>
      </trkpt>
      <trkpt lat="44.2416" lon="5.42604">
        <ele>1122</ele>
        <time>2026-05-13T14:37:15.000Z</time>
      </trkpt>
      <trkpt lat="44.2416" lon="5.42604">
        <ele>1122</ele>
        <time>2026-05-13T14:37:16.000Z</time>
      </trkpt>
      <trkpt lat="44.24161" lon="5.42603">
        <ele>1121</ele>
        <time>2026-05-13T14:37:17.000Z</time>
      </trkpt>
      <trkpt lat="44.2416" lon="5.42603">
        <ele>1121</ele>
        <time>2026-05-13T14:37:18.000Z</time>
      </trkpt>
      <trkpt lat="44.2416" lon="5.42603">
        <ele>1122</ele>
        <time>2026-05-13T14:37:19.000Z</time>
      </trkpt>
      <trkpt lat="44.2416" lon="5.42603">
        <ele>1121</ele>
        <time>2026-05-13T14:37:20.000Z</time>
      </trkpt>
      <trkpt lat="44.2416" lon="5.42603">
        <ele>1121</ele>
        <time>2026-05-13T14:37:21.000Z</time>
      </trkpt>
      <trkpt lat="44.2416" lon="5.42603">
        <ele>1121</ele>
        <time>2026-05-13T14:37:22.000Z</time>
      </trkpt>
      <trkpt lat="44.2416" lon="5.42603">
        <ele>1121</ele>
        <time>2026-05-13T14:37:23.000Z</time>
      </trkpt>
      <trkpt lat="44.2416" lon="5.42602">
        <ele>1121</ele>
        <time>2026-05-13T14:37:24.000Z</time>
      </trkpt>
      <trkpt lat="44.2416" lon="5.42602">
        <ele>1121</ele>
        <time>2026-05-13T14:37:25.000Z</time>
      </trkpt>
      <trkpt lat="44.2416" lon="5.42602">
        <ele>1121</ele>
        <time>2026-05-13T14:37:26.000Z</time>
      </trkpt>
      <trkpt lat="44.2416" lon="5.42602">
        <ele>1121</ele>
        <time>2026-05-13T14:37:27.000Z</time>
      </trkpt>
      <trkpt lat="44.2416" lon="5.42602">
        <ele>1121</ele>
        <time>2026-05-13T14:37:28.000Z</time>
      </trkpt>
      <trkpt lat="44.2416" lon="5.42602">
        <ele>1121</ele>
        <time>2026-05-13T14:37:29.000Z</time>
      </trkpt>
      <trkpt lat="44.2416" lon="5.42602">
        <ele>1121</ele>
        <time>2026-05-13T14:37:30.000Z</time>
      </trkpt>
      <trkpt lat="44.2416" lon="5.42602">
        <ele>1121</ele>
        <time>2026-05-13T14:37:31.000Z</time>
      </trkpt>
      <trkpt lat="44.2416" lon="5.42602">
        <ele>1121</ele>
        <time>2026-05-13T14:37:32.000Z</time>
      </trkpt>
      <trkpt lat="44.2416" lon="5.42602">
        <ele>1121</ele>
        <time>2026-05-13T14:37:33.000Z</time>
      </trkpt>
      <trkpt lat="44.2416" lon="5.42602">
        <ele>1121</ele>
        <time>2026-05-13T14:37:34.000Z</time>
      </trkpt>
      <trkpt lat="44.2416" lon="5.42602">
        <ele>1121</ele>
        <time>2026-05-13T14:37:35.000Z</time>
      </trkpt>
      <trkpt lat="44.2416" lon="5.42602">
        <ele>1121</ele>
        <time>2026-05-13T14:37:36.000Z</time>
      </trkpt>
      <trkpt lat="44.2416" lon="5.42602">
        <ele>1121</ele>
        <time>2026-05-13T14:37:37.000Z</time>
      </trkpt>
      <trkpt lat="44.2416" lon="5.42602">
        <ele>1121</ele>
        <time>2026-05-13T14:37:38.000Z</time>
      </trkpt>
      <trkpt lat="44.2416" lon="5.42602">
        <ele>1121</ele>
        <time>2026-05-13T14:37:39.000Z</time>
      </trkpt>
      <trkpt lat="44.2416" lon="5.42602">
        <ele>1121</ele>
        <time>2026-05-13T14:37:40.000Z</time>
      </trkpt>
      <trkpt lat="44.2416" lon="5.42602">
        <ele>1121</ele>
        <time>2026-05-13T14:37:41.000Z</time>
      </trkpt>
      <trkpt lat="44.2416" lon="5.42602">
        <ele>1121</ele>
        <time>2026-05-13T14:37:42.000Z</time>
      </trkpt>
      <trkpt lat="44.2416" lon="5.42602">
        <ele>1121</ele>
        <time>2026-05-13T14:37:43.000Z</time>
      </trkpt>
      <trkpt lat="44.2416" lon="5.42602">
        <ele>1121</ele>
        <time>2026-05-13T14:37:44.000Z</time>
      </trkpt>
      <trkpt lat="44.2416" lon="5.42602">
        <ele>1121</ele>
        <time>2026-05-13T14:37:45.000Z</time>
      </trkpt>
      <trkpt lat="44.24159" lon="5.42602">
        <ele>1121</ele>
        <time>2026-05-13T14:37:46.000Z</time>
      </trkpt>
      <trkpt lat="44.24159" lon="5.42602">
        <ele>1121</ele>
        <time>2026-05-13T14:37:47.000Z</time>
      </trkpt>
      <trkpt lat="44.24158" lon="5.42601">
        <ele>1122</ele>
        <time>2026-05-13T14:37:48.000Z</time>
      </trkpt>
      <trkpt lat="44.24158" lon="5.42601">
        <ele>1122</ele>
        <time>2026-05-13T14:37:49.000Z</time>
      </trkpt>
      <trkpt lat="44.24157" lon="5.42601">
        <ele>1121</ele>
        <time>2026-05-13T14:37:50.000Z</time>
      </trkpt>
      <trkpt lat="44.24156" lon="5.42602">
        <ele>1121</ele>
        <time>2026-05-13T14:37:51.000Z</time>
      </trkpt>
      <trkpt lat="44.24155" lon="5.42603">
        <ele>1120</ele>
        <time>2026-05-13T14:37:52.000Z</time>
      </trkpt>
      <trkpt lat="44.24156" lon="5.42605">
        <ele>1120</ele>
        <time>2026-05-13T14:37:53.000Z</time>
      </trkpt>
      <trkpt lat="44.24156" lon="5.42606">
        <ele>1121</ele>
        <time>2026-05-13T14:37:54.000Z</time>
      </trkpt>
      <trkpt lat="44.24155" lon="5.42606">
        <ele>1121</ele>
        <time>2026-05-13T14:37:55.000Z</time>
      </trkpt>
      <trkpt lat="44.24155" lon="5.42607">
        <ele>1121</ele>
        <time>2026-05-13T14:37:56.000Z</time>
      </trkpt>
      <trkpt lat="44.24155" lon="5.42608">
        <ele>1121</ele>
        <time>2026-05-13T14:37:57.000Z</time>
      </trkpt>
      <trkpt lat="44.24155" lon="5.42611">
        <ele>1121</ele>
        <time>2026-05-13T14:37:58.000Z</time>
      </trkpt>
      <trkpt lat="44.24155" lon="5.42614">
        <ele>1122</ele>
        <time>2026-05-13T14:37:59.000Z</time>
      </trkpt>
      <trkpt lat="44.24155" lon="5.42617">
        <ele>1121</ele>
        <time>2026-05-13T14:38:00.000Z</time>
      </trkpt>
      <trkpt lat="44.24156" lon="5.4262">
        <ele>1120</ele>
        <time>2026-05-13T14:38:01.000Z</time>
      </trkpt>
      <trkpt lat="44.24154" lon="5.42623">
        <ele>1120</ele>
        <time>2026-05-13T14:38:02.000Z</time>
      </trkpt>
      <trkpt lat="44.24153" lon="5.42626">
        <ele>1120</ele>
        <time>2026-05-13T14:38:03.000Z</time>
      </trkpt>
      <trkpt lat="44.24151" lon="5.42628">
        <ele>1120</ele>
        <time>2026-05-13T14:38:04.000Z</time>
      </trkpt>
      <trkpt lat="44.2415" lon="5.4263">
        <ele>1119</ele>
        <time>2026-05-13T14:38:05.000Z</time>
      </trkpt>
      <trkpt lat="44.24149" lon="5.42632">
        <ele>1119</ele>
        <time>2026-05-13T14:38:06.000Z</time>
      </trkpt>
      <trkpt lat="44.24149" lon="5.42633">
        <ele>1119</ele>
        <time>2026-05-13T14:38:07.000Z</time>
      </trkpt>
      <trkpt lat="44.24149" lon="5.42634">
        <ele>1119</ele>
        <time>2026-05-13T14:38:08.000Z</time>
      </trkpt>
      <trkpt lat="44.24148" lon="5.42634">
        <ele>1118</ele>
        <time>2026-05-13T14:38:09.000Z</time>
      </trkpt>
      <trkpt lat="44.24146" lon="5.42635">
        <ele>1118</ele>
        <time>2026-05-13T14:38:10.000Z</time>
      </trkpt>
      <trkpt lat="44.24143" lon="5.42637">
        <ele>1119</ele>
        <time>2026-05-13T14:38:11.000Z</time>
      </trkpt>
      <trkpt lat="44.24141" lon="5.42638">
        <ele>1118</ele>
        <time>2026-05-13T14:38:12.000Z</time>
      </trkpt>
      <trkpt lat="44.24138" lon="5.4264">
        <ele>1118</ele>
        <time>2026-05-13T14:38:13.000Z</time>
      </trkpt>
      <trkpt lat="44.24136" lon="5.42641">
        <ele>1118</ele>
        <time>2026-05-13T14:38:14.000Z</time>
      </trkpt>
      <trkpt lat="44.24133" lon="5.42643">
        <ele>1118</ele>
        <time>2026-05-13T14:38:15.000Z</time>
      </trkpt>
      <trkpt lat="44.24131" lon="5.42644">
        <ele>1118</ele>
        <time>2026-05-13T14:38:16.000Z</time>
      </trkpt>
      <trkpt lat="44.24129" lon="5.42645">
        <ele>1117</ele>
        <time>2026-05-13T14:38:17.000Z</time>
      </trkpt>
      <trkpt lat="44.24126" lon="5.42646">
        <ele>1116</ele>
        <time>2026-05-13T14:38:18.000Z</time>
      </trkpt>
      <trkpt lat="44.24123" lon="5.42648">
        <ele>1115</ele>
        <time>2026-05-13T14:38:19.000Z</time>
      </trkpt>
      <trkpt lat="44.24121" lon="5.4265">
        <ele>1115</ele>
        <time>2026-05-13T14:38:20.000Z</time>
      </trkpt>
      <trkpt lat="44.24118" lon="5.42651">
        <ele>1114</ele>
        <time>2026-05-13T14:38:21.000Z</time>
      </trkpt>
      <trkpt lat="44.24115" lon="5.42653">
        <ele>1114</ele>
        <time>2026-05-13T14:38:22.000Z</time>
      </trkpt>
      <trkpt lat="44.24113" lon="5.42654">
        <ele>1113</ele>
        <time>2026-05-13T14:38:23.000Z</time>
      </trkpt>
      <trkpt lat="44.2411" lon="5.42655">
        <ele>1112</ele>
        <time>2026-05-13T14:38:24.000Z</time>
      </trkpt>
      <trkpt lat="44.24106" lon="5.42657">
        <ele>1111</ele>
        <time>2026-05-13T14:38:25.000Z</time>
      </trkpt>
      <trkpt lat="44.24102" lon="5.42661">
        <ele>1110</ele>
        <time>2026-05-13T14:38:26.000Z</time>
      </trkpt>
      <trkpt lat="44.24096" lon="5.42663">
        <ele>1107</ele>
        <time>2026-05-13T14:38:27.000Z</time>
      </trkpt>
      <trkpt lat="44.24089" lon="5.42666">
        <ele>1107</ele>
        <time>2026-05-13T14:38:28.000Z</time>
      </trkpt>
      <trkpt lat="44.24082" lon="5.42669">
        <ele>1106</ele>
        <time>2026-05-13T14:38:29.000Z</time>
      </trkpt>
      <trkpt lat="44.24074" lon="5.42673">
        <ele>1105</ele>
        <time>2026-05-13T14:38:30.000Z</time>
      </trkpt>
      <trkpt lat="44.24066" lon="5.42676">
        <ele>1105</ele>
        <time>2026-05-13T14:38:31.000Z</time>
      </trkpt>
      <trkpt lat="44.24058" lon="5.42677">
        <ele>1105</ele>
        <time>2026-05-13T14:38:32.000Z</time>
      </trkpt>
      <trkpt lat="44.24051" lon="5.42678">
        <ele>1105</ele>
        <time>2026-05-13T14:38:33.000Z</time>
      </trkpt>
      <trkpt lat="44.24043" lon="5.4268">
        <ele>1104</ele>
        <time>2026-05-13T14:38:34.000Z</time>
      </trkpt>
      <trkpt lat="44.24036" lon="5.42681">
        <ele>1104</ele>
        <time>2026-05-13T14:38:35.000Z</time>
      </trkpt>
      <trkpt lat="44.24028" lon="5.42682">
        <ele>1104</ele>
        <time>2026-05-13T14:38:36.000Z</time>
      </trkpt>
      <trkpt lat="44.2402" lon="5.42684">
        <ele>1103</ele>
        <time>2026-05-13T14:38:37.000Z</time>
      </trkpt>
      <trkpt lat="44.24011" lon="5.42685">
        <ele>1103</ele>
        <time>2026-05-13T14:38:38.000Z</time>
      </trkpt>
      <trkpt lat="44.24002" lon="5.42686">
        <ele>1103</ele>
        <time>2026-05-13T14:38:39.000Z</time>
      </trkpt>
      <trkpt lat="44.23994" lon="5.42688">
        <ele>1102</ele>
        <time>2026-05-13T14:38:40.000Z</time>
      </trkpt>
      <trkpt lat="44.23986" lon="5.42689">
        <ele>1101</ele>
        <time>2026-05-13T14:38:41.000Z</time>
      </trkpt>
      <trkpt lat="44.23978" lon="5.42691">
        <ele>1101</ele>
        <time>2026-05-13T14:38:42.000Z</time>
      </trkpt>
      <trkpt lat="44.23969" lon="5.42693">
        <ele>1100</ele>
        <time>2026-05-13T14:38:43.000Z</time>
      </trkpt>
      <trkpt lat="44.2396" lon="5.42695">
        <ele>1099</ele>
        <time>2026-05-13T14:38:44.000Z</time>
      </trkpt>
      <trkpt lat="44.23951" lon="5.42699">
        <ele>1097</ele>
        <time>2026-05-13T14:38:45.000Z</time>
      </trkpt>
      <trkpt lat="44.23942" lon="5.427">
        <ele>1095</ele>
        <time>2026-05-13T14:38:46.000Z</time>
      </trkpt>
      <trkpt lat="44.23932" lon="5.42702">
        <ele>1095</ele>
        <time>2026-05-13T14:38:47.000Z</time>
      </trkpt>
      <trkpt lat="44.23923" lon="5.42703">
        <ele>1095</ele>
        <time>2026-05-13T14:38:48.000Z</time>
      </trkpt>
      <trkpt lat="44.23917" lon="5.42702">
        <ele>1095</ele>
        <time>2026-05-13T14:38:49.000Z</time>
      </trkpt>
      <trkpt lat="44.23912" lon="5.42703">
        <ele>1094</ele>
        <time>2026-05-13T14:38:50.000Z</time>
      </trkpt>
      <trkpt lat="44.23907" lon="5.42704">
        <ele>1093</ele>
        <time>2026-05-13T14:38:51.000Z</time>
      </trkpt>
      <trkpt lat="44.23903" lon="5.42705">
        <ele>1092</ele>
        <time>2026-05-13T14:38:52.000Z</time>
      </trkpt>
      <trkpt lat="44.23899" lon="5.42704">
        <ele>1092</ele>
        <time>2026-05-13T14:38:53.000Z</time>
      </trkpt>
      <trkpt lat="44.23895" lon="5.42704">
        <ele>1092</ele>
        <time>2026-05-13T14:38:54.000Z</time>
      </trkpt>
      <trkpt lat="44.2389" lon="5.42704">
        <ele>1091</ele>
        <time>2026-05-13T14:38:55.000Z</time>
      </trkpt>
      <trkpt lat="44.23887" lon="5.42704">
        <ele>1091</ele>
        <time>2026-05-13T14:38:56.000Z</time>
      </trkpt>
      <trkpt lat="44.23884" lon="5.42705">
        <ele>1090</ele>
        <time>2026-05-13T14:38:57.000Z</time>
      </trkpt>
      <trkpt lat="44.23879" lon="5.42705">
        <ele>1089</ele>
        <time>2026-05-13T14:38:58.000Z</time>
      </trkpt>
      <trkpt lat="44.23873" lon="5.42707">
        <ele>1087</ele>
        <time>2026-05-13T14:38:59.000Z</time>
      </trkpt>
      <trkpt lat="44.23867" lon="5.42709">
        <ele>1085</ele>
        <time>2026-05-13T14:39:00.000Z</time>
      </trkpt>
      <trkpt lat="44.23861" lon="5.4271">
        <ele>1083</ele>
        <time>2026-05-13T14:39:01.000Z</time>
      </trkpt>
      <trkpt lat="44.23855" lon="5.42711">
        <ele>1081</ele>
        <time>2026-05-13T14:39:02.000Z</time>
      </trkpt>
      <trkpt lat="44.23848" lon="5.42711">
        <ele>1079</ele>
        <time>2026-05-13T14:39:03.000Z</time>
      </trkpt>
      <trkpt lat="44.23839" lon="5.42709">
        <ele>1078</ele>
        <time>2026-05-13T14:39:04.000Z</time>
      </trkpt>
      <trkpt lat="44.23831" lon="5.42707">
        <ele>1078</ele>
        <time>2026-05-13T14:39:05.000Z</time>
      </trkpt>
      <trkpt lat="44.23823" lon="5.42705">
        <ele>1077</ele>
        <time>2026-05-13T14:39:06.000Z</time>
      </trkpt>
      <trkpt lat="44.23816" lon="5.42704">
        <ele>1076</ele>
        <time>2026-05-13T14:39:07.000Z</time>
      </trkpt>
      <trkpt lat="44.23809" lon="5.42704">
        <ele>1076</ele>
        <time>2026-05-13T14:39:08.000Z</time>
      </trkpt>
      <trkpt lat="44.23804" lon="5.42704">
        <ele>1075</ele>
        <time>2026-05-13T14:39:09.000Z</time>
      </trkpt>
      <trkpt lat="44.23801" lon="5.42703">
        <ele>1076</ele>
        <time>2026-05-13T14:39:10.000Z</time>
      </trkpt>
      <trkpt lat="44.23798" lon="5.42703">
        <ele>1075</ele>
        <time>2026-05-13T14:39:11.000Z</time>
      </trkpt>
      <trkpt lat="44.23796" lon="5.42702">
        <ele>1075</ele>
        <time>2026-05-13T14:39:12.000Z</time>
      </trkpt>
      <trkpt lat="44.23793" lon="5.42701">
        <ele>1074</ele>
        <time>2026-05-13T14:39:13.000Z</time>
      </trkpt>
      <trkpt lat="44.2379" lon="5.427">
        <ele>1073</ele>
        <time>2026-05-13T14:39:14.000Z</time>
      </trkpt>
      <trkpt lat="44.23787" lon="5.42699">
        <ele>1072</ele>
        <time>2026-05-13T14:39:15.000Z</time>
      </trkpt>
      <trkpt lat="44.23783" lon="5.427">
        <ele>1071</ele>
        <time>2026-05-13T14:39:16.000Z</time>
      </trkpt>
      <trkpt lat="44.23779" lon="5.42701">
        <ele>1070</ele>
        <time>2026-05-13T14:39:17.000Z</time>
      </trkpt>
      <trkpt lat="44.23775" lon="5.42701">
        <ele>1068</ele>
        <time>2026-05-13T14:39:18.000Z</time>
      </trkpt>
      <trkpt lat="44.2377" lon="5.42701">
        <ele>1067</ele>
        <time>2026-05-13T14:39:19.000Z</time>
      </trkpt>
      <trkpt lat="44.23765" lon="5.42701">
        <ele>1066</ele>
        <time>2026-05-13T14:39:20.000Z</time>
      </trkpt>
      <trkpt lat="44.23761" lon="5.42698">
        <ele>1065</ele>
        <time>2026-05-13T14:39:21.000Z</time>
      </trkpt>
      <trkpt lat="44.23758" lon="5.42694">
        <ele>1065</ele>
        <time>2026-05-13T14:39:22.000Z</time>
      </trkpt>
      <trkpt lat="44.23755" lon="5.42692">
        <ele>1065</ele>
        <time>2026-05-13T14:39:23.000Z</time>
      </trkpt>
      <trkpt lat="44.23753" lon="5.4269">
        <ele>1064</ele>
        <time>2026-05-13T14:39:24.000Z</time>
      </trkpt>
      <trkpt lat="44.23753" lon="5.42689">
        <ele>1064</ele>
        <time>2026-05-13T14:39:25.000Z</time>
      </trkpt>
      <trkpt lat="44.23752" lon="5.42687">
        <ele>1064</ele>
        <time>2026-05-13T14:39:26.000Z</time>
      </trkpt>
      <trkpt lat="44.2375" lon="5.42685">
        <ele>1064</ele>
        <time>2026-05-13T14:39:27.000Z</time>
      </trkpt>
      <trkpt lat="44.23748" lon="5.42681">
        <ele>1063</ele>
        <time>2026-05-13T14:39:28.000Z</time>
      </trkpt>
      <trkpt lat="44.23747" lon="5.42676">
        <ele>1061</ele>
        <time>2026-05-13T14:39:29.000Z</time>
      </trkpt>
      <trkpt lat="44.23746" lon="5.42668">
        <ele>1058</ele>
        <time>2026-05-13T14:39:30.000Z</time>
      </trkpt>
      <trkpt lat="44.23746" lon="5.42658">
        <ele>1057</ele>
        <time>2026-05-13T14:39:31.000Z</time>
      </trkpt>
      <trkpt lat="44.23746" lon="5.42649">
        <ele>1057</ele>
        <time>2026-05-13T14:39:32.000Z</time>
      </trkpt>
      <trkpt lat="44.23746" lon="5.42641">
        <ele>1057</ele>
        <time>2026-05-13T14:39:33.000Z</time>
      </trkpt>
      <trkpt lat="44.23746" lon="5.42633">
        <ele>1056</ele>
        <time>2026-05-13T14:39:34.000Z</time>
      </trkpt>
      <trkpt lat="44.23747" lon="5.42623">
        <ele>1055</ele>
        <time>2026-05-13T14:39:35.000Z</time>
      </trkpt>
      <trkpt lat="44.23748" lon="5.42614">
        <ele>1054</ele>
        <time>2026-05-13T14:39:36.000Z</time>
      </trkpt>
      <trkpt lat="44.2375" lon="5.42605">
        <ele>1054</ele>
        <time>2026-05-13T14:39:37.000Z</time>
      </trkpt>
      <trkpt lat="44.23753" lon="5.42597">
        <ele>1052</ele>
        <time>2026-05-13T14:39:38.000Z</time>
      </trkpt>
      <trkpt lat="44.23754" lon="5.42589">
        <ele>1051</ele>
        <time>2026-05-13T14:39:39.000Z</time>
      </trkpt>
      <trkpt lat="44.23756" lon="5.42582">
        <ele>1050</ele>
        <time>2026-05-13T14:39:40.000Z</time>
      </trkpt>
      <trkpt lat="44.23757" lon="5.42576">
        <ele>1049</ele>
        <time>2026-05-13T14:39:41.000Z</time>
      </trkpt>
      <trkpt lat="44.23758" lon="5.42572">
        <ele>1048</ele>
        <time>2026-05-13T14:39:42.000Z</time>
      </trkpt>
      <trkpt lat="44.23758" lon="5.42569">
        <ele>1048</ele>
        <time>2026-05-13T14:39:43.000Z</time>
      </trkpt>
      <trkpt lat="44.23759" lon="5.42565">
        <ele>1048</ele>
        <time>2026-05-13T14:39:44.000Z</time>
      </trkpt>
      <trkpt lat="44.2376" lon="5.4256">
        <ele>1047</ele>
        <time>2026-05-13T14:39:45.000Z</time>
      </trkpt>
      <trkpt lat="44.23759" lon="5.42554">
        <ele>1046</ele>
        <time>2026-05-13T14:39:46.000Z</time>
      </trkpt>
      <trkpt lat="44.23759" lon="5.4255">
        <ele>1046</ele>
        <time>2026-05-13T14:39:47.000Z</time>
      </trkpt>
      <trkpt lat="44.23759" lon="5.42546">
        <ele>1045</ele>
        <time>2026-05-13T14:39:48.000Z</time>
      </trkpt>
      <trkpt lat="44.23759" lon="5.42542">
        <ele>1044</ele>
        <time>2026-05-13T14:39:49.000Z</time>
      </trkpt>
      <trkpt lat="44.23758" lon="5.42539">
        <ele>1044</ele>
        <time>2026-05-13T14:39:50.000Z</time>
      </trkpt>
      <trkpt lat="44.23758" lon="5.42534">
        <ele>1043</ele>
        <time>2026-05-13T14:39:51.000Z</time>
      </trkpt>
      <trkpt lat="44.23757" lon="5.42529">
        <ele>1042</ele>
        <time>2026-05-13T14:39:52.000Z</time>
      </trkpt>
      <trkpt lat="44.23758" lon="5.42526">
        <ele>1042</ele>
        <time>2026-05-13T14:39:53.000Z</time>
      </trkpt>
      <trkpt lat="44.23758" lon="5.42523">
        <ele>1041</ele>
        <time>2026-05-13T14:39:54.000Z</time>
      </trkpt>
      <trkpt lat="44.23758" lon="5.42522">
        <ele>1041</ele>
        <time>2026-05-13T14:39:55.000Z</time>
      </trkpt>
      <trkpt lat="44.23757" lon="5.4252">
        <ele>1041</ele>
        <time>2026-05-13T14:39:56.000Z</time>
      </trkpt>
      <trkpt lat="44.23756" lon="5.42519">
        <ele>1041</ele>
        <time>2026-05-13T14:39:57.000Z</time>
      </trkpt>
      <trkpt lat="44.23755" lon="5.42519">
        <ele>1041</ele>
        <time>2026-05-13T14:39:58.000Z</time>
      </trkpt>
      <trkpt lat="44.23754" lon="5.42518">
        <ele>1041</ele>
        <time>2026-05-13T14:39:59.000Z</time>
      </trkpt>
      <trkpt lat="44.23752" lon="5.42518">
        <ele>1040</ele>
        <time>2026-05-13T14:40:00.000Z</time>
      </trkpt>
      <trkpt lat="44.23751" lon="5.42517">
        <ele>1040</ele>
        <time>2026-05-13T14:40:01.000Z</time>
      </trkpt>
      <trkpt lat="44.23748" lon="5.42515">
        <ele>1040</ele>
        <time>2026-05-13T14:40:02.000Z</time>
      </trkpt>
      <trkpt lat="44.23746" lon="5.42514">
        <ele>1040</ele>
        <time>2026-05-13T14:40:03.000Z</time>
      </trkpt>
      <trkpt lat="44.23745" lon="5.42514">
        <ele>1040</ele>
        <time>2026-05-13T14:40:04.000Z</time>
      </trkpt>
      <trkpt lat="44.23743" lon="5.42513">
        <ele>1040</ele>
        <time>2026-05-13T14:40:05.000Z</time>
      </trkpt>
      <trkpt lat="44.23741" lon="5.42512">
        <ele>1040</ele>
        <time>2026-05-13T14:40:06.000Z</time>
      </trkpt>
      <trkpt lat="44.23738" lon="5.42513">
        <ele>1039</ele>
        <time>2026-05-13T14:40:07.000Z</time>
      </trkpt>
      <trkpt lat="44.23735" lon="5.42515">
        <ele>1039</ele>
        <time>2026-05-13T14:40:08.000Z</time>
      </trkpt>
      <trkpt lat="44.23732" lon="5.42516">
        <ele>1040</ele>
        <time>2026-05-13T14:40:09.000Z</time>
      </trkpt>
      <trkpt lat="44.2373" lon="5.42516">
        <ele>1039</ele>
        <time>2026-05-13T14:40:10.000Z</time>
      </trkpt>
      <trkpt lat="44.23727" lon="5.42515">
        <ele>1039</ele>
        <time>2026-05-13T14:40:11.000Z</time>
      </trkpt>
      <trkpt lat="44.23725" lon="5.42516">
        <ele>1038</ele>
        <time>2026-05-13T14:40:12.000Z</time>
      </trkpt>
      <trkpt lat="44.23723" lon="5.42517">
        <ele>1038</ele>
        <time>2026-05-13T14:40:13.000Z</time>
      </trkpt>
      <trkpt lat="44.2372" lon="5.42518">
        <ele>1038</ele>
        <time>2026-05-13T14:40:14.000Z</time>
      </trkpt>
      <trkpt lat="44.23718" lon="5.42519">
        <ele>1038</ele>
        <time>2026-05-13T14:40:15.000Z</time>
      </trkpt>
      <trkpt lat="44.23715" lon="5.42519">
        <ele>1037</ele>
        <time>2026-05-13T14:40:16.000Z</time>
      </trkpt>
      <trkpt lat="44.23712" lon="5.42519">
        <ele>1037</ele>
        <time>2026-05-13T14:40:17.000Z</time>
      </trkpt>
      <trkpt lat="44.23709" lon="5.42519">
        <ele>1036</ele>
        <time>2026-05-13T14:40:18.000Z</time>
      </trkpt>
      <trkpt lat="44.23704" lon="5.4252">
        <ele>1034</ele>
        <time>2026-05-13T14:40:19.000Z</time>
      </trkpt>
      <trkpt lat="44.237" lon="5.42519">
        <ele>1032</ele>
        <time>2026-05-13T14:40:20.000Z</time>
      </trkpt>
      <trkpt lat="44.23695" lon="5.42519">
        <ele>1031</ele>
        <time>2026-05-13T14:40:21.000Z</time>
      </trkpt>
      <trkpt lat="44.23691" lon="5.42518">
        <ele>1030</ele>
        <time>2026-05-13T14:40:22.000Z</time>
      </trkpt>
      <trkpt lat="44.23687" lon="5.42515">
        <ele>1029</ele>
        <time>2026-05-13T14:40:23.000Z</time>
      </trkpt>
      <trkpt lat="44.23684" lon="5.42512">
        <ele>1028</ele>
        <time>2026-05-13T14:40:24.000Z</time>
      </trkpt>
      <trkpt lat="44.23682" lon="5.42508">
        <ele>1028</ele>
        <time>2026-05-13T14:40:25.000Z</time>
      </trkpt>
      <trkpt lat="44.23682" lon="5.42504">
        <ele>1027</ele>
        <time>2026-05-13T14:40:26.000Z</time>
      </trkpt>
      <trkpt lat="44.23683" lon="5.42499">
        <ele>1026</ele>
        <time>2026-05-13T14:40:27.000Z</time>
      </trkpt>
      <trkpt lat="44.23683" lon="5.42493">
        <ele>1025</ele>
        <time>2026-05-13T14:40:28.000Z</time>
      </trkpt>
      <trkpt lat="44.23683" lon="5.42488">
        <ele>1024</ele>
        <time>2026-05-13T14:40:29.000Z</time>
      </trkpt>
      <trkpt lat="44.23682" lon="5.42484">
        <ele>1023</ele>
        <time>2026-05-13T14:40:30.000Z</time>
      </trkpt>
      <trkpt lat="44.23679" lon="5.42482">
        <ele>1022</ele>
        <time>2026-05-13T14:40:31.000Z</time>
      </trkpt>
      <trkpt lat="44.23675" lon="5.42484">
        <ele>1021</ele>
        <time>2026-05-13T14:40:32.000Z</time>
      </trkpt>
      <trkpt lat="44.2367" lon="5.42486">
        <ele>1020</ele>
        <time>2026-05-13T14:40:33.000Z</time>
      </trkpt>
      <trkpt lat="44.23666" lon="5.42488">
        <ele>1019</ele>
        <time>2026-05-13T14:40:34.000Z</time>
      </trkpt>
      <trkpt lat="44.23662" lon="5.42486">
        <ele>1019</ele>
        <time>2026-05-13T14:40:35.000Z</time>
      </trkpt>
      <trkpt lat="44.23658" lon="5.42484">
        <ele>1017</ele>
        <time>2026-05-13T14:40:36.000Z</time>
      </trkpt>
      <trkpt lat="44.23653" lon="5.42481">
        <ele>1016</ele>
        <time>2026-05-13T14:40:37.000Z</time>
      </trkpt>
      <trkpt lat="44.23648" lon="5.42477">
        <ele>1016</ele>
        <time>2026-05-13T14:40:38.000Z</time>
      </trkpt>
      <trkpt lat="44.23645" lon="5.42473">
        <ele>1015</ele>
        <time>2026-05-13T14:40:39.000Z</time>
      </trkpt>
      <trkpt lat="44.23641" lon="5.4247">
        <ele>1015</ele>
        <time>2026-05-13T14:40:40.000Z</time>
      </trkpt>
      <trkpt lat="44.23638" lon="5.42467">
        <ele>1014</ele>
        <time>2026-05-13T14:40:41.000Z</time>
      </trkpt>
      <trkpt lat="44.23635" lon="5.42465">
        <ele>1013</ele>
        <time>2026-05-13T14:40:42.000Z</time>
      </trkpt>
      <trkpt lat="44.23633" lon="5.42462">
        <ele>1012</ele>
        <time>2026-05-13T14:40:43.000Z</time>
      </trkpt>
      <trkpt lat="44.23629" lon="5.4246">
        <ele>1011</ele>
        <time>2026-05-13T14:40:44.000Z</time>
      </trkpt>
      <trkpt lat="44.23625" lon="5.42458">
        <ele>1009</ele>
        <time>2026-05-13T14:40:45.000Z</time>
      </trkpt>
      <trkpt lat="44.23621" lon="5.42458">
        <ele>1007</ele>
        <time>2026-05-13T14:40:46.000Z</time>
      </trkpt>
      <trkpt lat="44.23617" lon="5.42457">
        <ele>1006</ele>
        <time>2026-05-13T14:40:47.000Z</time>
      </trkpt>
      <trkpt lat="44.23612" lon="5.42458">
        <ele>1005</ele>
        <time>2026-05-13T14:40:48.000Z</time>
      </trkpt>
      <trkpt lat="44.23608" lon="5.42459">
        <ele>1004</ele>
        <time>2026-05-13T14:40:49.000Z</time>
      </trkpt>
      <trkpt lat="44.23605" lon="5.42459">
        <ele>1003</ele>
        <time>2026-05-13T14:40:50.000Z</time>
      </trkpt>
      <trkpt lat="44.23602" lon="5.42459">
        <ele>1003</ele>
        <time>2026-05-13T14:40:51.000Z</time>
      </trkpt>
      <trkpt lat="44.23598" lon="5.42459">
        <ele>1002</ele>
        <time>2026-05-13T14:40:52.000Z</time>
      </trkpt>
      <trkpt lat="44.23596" lon="5.42459">
        <ele>1002</ele>
        <time>2026-05-13T14:40:53.000Z</time>
      </trkpt>
      <trkpt lat="44.23594" lon="5.42458">
        <ele>1001</ele>
        <time>2026-05-13T14:40:54.000Z</time>
      </trkpt>
      <trkpt lat="44.23593" lon="5.42457">
        <ele>1001</ele>
        <time>2026-05-13T14:40:55.000Z</time>
      </trkpt>
      <trkpt lat="44.23592" lon="5.42456">
        <ele>1001</ele>
        <time>2026-05-13T14:40:56.000Z</time>
      </trkpt>
      <trkpt lat="44.23592" lon="5.42456">
        <ele>1001</ele>
        <time>2026-05-13T14:40:57.000Z</time>
      </trkpt>
      <trkpt lat="44.23592" lon="5.42456">
        <ele>1001</ele>
        <time>2026-05-13T14:40:58.000Z</time>
      </trkpt>
      <trkpt lat="44.23592" lon="5.42456">
        <ele>1001</ele>
        <time>2026-05-13T14:40:59.000Z</time>
      </trkpt>
      <trkpt lat="44.23592" lon="5.42457">
        <ele>1001</ele>
        <time>2026-05-13T14:41:00.000Z</time>
      </trkpt>
      <trkpt lat="44.23592" lon="5.42457">
        <ele>1001</ele>
        <time>2026-05-13T14:41:01.000Z</time>
      </trkpt>
      <trkpt lat="44.23592" lon="5.42457">
        <ele>1001</ele>
        <time>2026-05-13T14:41:02.000Z</time>
      </trkpt>
      <trkpt lat="44.23592" lon="5.42457">
        <ele>1001</ele>
        <time>2026-05-13T14:41:03.000Z</time>
      </trkpt>
      <trkpt lat="44.23592" lon="5.42457">
        <ele>1001</ele>
        <time>2026-05-13T14:41:04.000Z</time>
      </trkpt>
      <trkpt lat="44.23592" lon="5.42457">
        <ele>1001</ele>
        <time>2026-05-13T14:41:05.000Z</time>
      </trkpt>
      <trkpt lat="44.23592" lon="5.42457">
        <ele>1001</ele>
        <time>2026-05-13T14:41:06.000Z</time>
      </trkpt>
      <trkpt lat="44.23592" lon="5.42457">
        <ele>1001</ele>
        <time>2026-05-13T14:41:07.000Z</time>
      </trkpt>
      <trkpt lat="44.23592" lon="5.42457">
        <ele>1001</ele>
        <time>2026-05-13T14:41:08.000Z</time>
      </trkpt>
      <trkpt lat="44.23592" lon="5.42457">
        <ele>1001</ele>
        <time>2026-05-13T14:41:09.000Z</time>
      </trkpt>
      <trkpt lat="44.23592" lon="5.42457">
        <ele>1001</ele>
        <time>2026-05-13T14:41:10.000Z</time>
      </trkpt>
      <trkpt lat="44.23592" lon="5.42457">
        <ele>1001</ele>
        <time>2026-05-13T14:41:11.000Z</time>
      </trkpt>
      <trkpt lat="44.23592" lon="5.42457">
        <ele>1001</ele>
        <time>2026-05-13T14:41:12.000Z</time>
      </trkpt>
      <trkpt lat="44.23592" lon="5.42457">
        <ele>1001</ele>
        <time>2026-05-13T14:41:13.000Z</time>
      </trkpt>
      <trkpt lat="44.23592" lon="5.42457">
        <ele>1001</ele>
        <time>2026-05-13T14:41:14.000Z</time>
      </trkpt>
      <trkpt lat="44.23592" lon="5.42457">
        <ele>1001</ele>
        <time>2026-05-13T14:41:15.000Z</time>
      </trkpt>
      <trkpt lat="44.23592" lon="5.42457">
        <ele>1001</ele>
        <time>2026-05-13T14:41:16.000Z</time>
      </trkpt>
      <trkpt lat="44.23592" lon="5.42457">
        <ele>1001</ele>
        <time>2026-05-13T14:41:17.000Z</time>
      </trkpt>
      <trkpt lat="44.23592" lon="5.42457">
        <ele>1001</ele>
        <time>2026-05-13T14:41:18.000Z</time>
      </trkpt>
      <trkpt lat="44.23592" lon="5.42457">
        <ele>1001</ele>
        <time>2026-05-13T14:41:19.000Z</time>
      </trkpt>
      <trkpt lat="44.23592" lon="5.42457">
        <ele>1001</ele>
        <time>2026-05-13T14:41:20.000Z</time>
      </trkpt>
      <trkpt lat="44.23592" lon="5.42457">
        <ele>1001</ele>
        <time>2026-05-13T14:41:21.000Z</time>
      </trkpt>
      <trkpt lat="44.23592" lon="5.42457">
        <ele>1001</ele>
        <time>2026-05-13T14:41:22.000Z</time>
      </trkpt>
      <trkpt lat="44.23592" lon="5.42457">
        <ele>1001</ele>
        <time>2026-05-13T14:41:23.000Z</time>
      </trkpt>
      <trkpt lat="44.23592" lon="5.42457">
        <ele>1001</ele>
        <time>2026-05-13T14:41:24.000Z</time>
      </trkpt>
      <trkpt lat="44.23592" lon="5.42457">
        <ele>1001</ele>
        <time>2026-05-13T14:41:25.000Z</time>
      </trkpt>
      <trkpt lat="44.23592" lon="5.42457">
        <ele>1001</ele>
        <time>2026-05-13T14:41:26.000Z</time>
      </trkpt>
      <trkpt lat="44.23592" lon="5.42457">
        <ele>1001</ele>
        <time>2026-05-13T14:41:27.000Z</time>
      </trkpt>
      <trkpt lat="44.23592" lon="5.42457">
        <ele>1001</ele>
        <time>2026-05-13T14:41:28.000Z</time>
      </trkpt>
      <trkpt lat="44.23592" lon="5.42457">
        <ele>1001</ele>
        <time>2026-05-13T14:41:29.000Z</time>
      </trkpt>
      <trkpt lat="44.23592" lon="5.42457">
        <ele>1001</ele>
        <time>2026-05-13T14:41:30.000Z</time>
      </trkpt>
      <trkpt lat="44.23592" lon="5.42457">
        <ele>1001</ele>
        <time>2026-05-13T14:41:31.000Z</time>
      </trkpt>
      <trkpt lat="44.23592" lon="5.42457">
        <ele>1001</ele>
        <time>2026-05-13T14:41:32.000Z</time>
      </trkpt>
      <trkpt lat="44.23592" lon="5.42457">
        <ele>1001</ele>
        <time>2026-05-13T14:41:33.000Z</time>
      </trkpt>
      <trkpt lat="44.23592" lon="5.42457">
        <ele>1001</ele>
        <time>2026-05-13T14:41:34.000Z</time>
      </trkpt>
      <trkpt lat="44.23592" lon="5.42457">
        <ele>1001</ele>
        <time>2026-05-13T14:41:35.000Z</time>
      </trkpt>
      <trkpt lat="44.23592" lon="5.42457">
        <ele>1001</ele>
        <time>2026-05-13T14:41:36.000Z</time>
      </trkpt>
      <trkpt lat="44.23592" lon="5.42457">
        <ele>1001</ele>
        <time>2026-05-13T14:41:37.000Z</time>
      </trkpt>
      <trkpt lat="44.23592" lon="5.42457">
        <ele>1001</ele>
        <time>2026-05-13T14:41:38.000Z</time>
      </trkpt>
      <trkpt lat="44.23592" lon="5.42457">
        <ele>1001</ele>
        <time>2026-05-13T14:41:39.000Z</time>
      </trkpt>
      <trkpt lat="44.23592" lon="5.42457">
        <ele>1001</ele>
        <time>2026-05-13T14:41:40.000Z</time>
      </trkpt>
      <trkpt lat="44.23592" lon="5.42457">
        <ele>1001</ele>
        <time>2026-05-13T14:41:41.000Z</time>
      </trkpt>
      <trkpt lat="44.23592" lon="5.42457">
        <ele>1001</ele>
        <time>2026-05-13T14:41:42.000Z</time>
      </trkpt>
      <trkpt lat="44.23592" lon="5.42457">
        <ele>1001</ele>
        <time>2026-05-13T14:41:43.000Z</time>
      </trkpt>
      <trkpt lat="44.23592" lon="5.42457">
        <ele>1001</ele>
        <time>2026-05-13T14:41:44.000Z</time>
      </trkpt>
      <trkpt lat="44.23593" lon="5.42456">
        <ele>1000</ele>
        <time>2026-05-13T14:41:45.000Z</time>
      </trkpt>
      <trkpt lat="44.23593" lon="5.42456">
        <ele>1000</ele>
        <time>2026-05-13T14:41:46.000Z</time>
      </trkpt>
      <trkpt lat="44.23592" lon="5.42455">
        <ele>1000</ele>
        <time>2026-05-13T14:41:47.000Z</time>
      </trkpt>
      <trkpt lat="44.23591" lon="5.42453">
        <ele>1000</ele>
        <time>2026-05-13T14:41:48.000Z</time>
      </trkpt>
      <trkpt lat="44.23589" lon="5.4245">
        <ele>1000</ele>
        <time>2026-05-13T14:41:49.000Z</time>
      </trkpt>
      <trkpt lat="44.23587" lon="5.42448">
        <ele>1000</ele>
        <time>2026-05-13T14:41:50.000Z</time>
      </trkpt>
      <trkpt lat="44.23585" lon="5.42445">
        <ele>999</ele>
        <time>2026-05-13T14:41:51.000Z</time>
      </trkpt>
      <trkpt lat="44.23582" lon="5.42443">
        <ele>999</ele>
        <time>2026-05-13T14:41:52.000Z</time>
      </trkpt>
      <trkpt lat="44.23579" lon="5.4244">
        <ele>998</ele>
        <time>2026-05-13T14:41:53.000Z</time>
      </trkpt>
      <trkpt lat="44.23577" lon="5.42438">
        <ele>997</ele>
        <time>2026-05-13T14:41:54.000Z</time>
      </trkpt>
      <trkpt lat="44.23574" lon="5.42436">
        <ele>996</ele>
        <time>2026-05-13T14:41:55.000Z</time>
      </trkpt>
      <trkpt lat="44.23571" lon="5.42437">
        <ele>996</ele>
        <time>2026-05-13T14:41:56.000Z</time>
      </trkpt>
      <trkpt lat="44.23569" lon="5.42438">
        <ele>995</ele>
        <time>2026-05-13T14:41:57.000Z</time>
      </trkpt>
      <trkpt lat="44.23568" lon="5.4244">
        <ele>995</ele>
        <time>2026-05-13T14:41:58.000Z</time>
      </trkpt>
      <trkpt lat="44.23566" lon="5.42441">
        <ele>994</ele>
        <time>2026-05-13T14:41:59.000Z</time>
      </trkpt>
      <trkpt lat="44.23566" lon="5.42443">
        <ele>995</ele>
        <time>2026-05-13T14:42:00.000Z</time>
      </trkpt>
      <trkpt lat="44.23566" lon="5.42445">
        <ele>994</ele>
        <time>2026-05-13T14:42:01.000Z</time>
      </trkpt>
      <trkpt lat="44.23566" lon="5.42447">
        <ele>994</ele>
        <time>2026-05-13T14:42:02.000Z</time>
      </trkpt>
      <trkpt lat="44.23565" lon="5.42447">
        <ele>993</ele>
        <time>2026-05-13T14:42:03.000Z</time>
      </trkpt>
      <trkpt lat="44.23565" lon="5.42447">
        <ele>993</ele>
        <time>2026-05-13T14:42:04.000Z</time>
      </trkpt>
      <trkpt lat="44.23565" lon="5.42447">
        <ele>993</ele>
        <time>2026-05-13T14:42:05.000Z</time>
      </trkpt>
      <trkpt lat="44.23565" lon="5.42446">
        <ele>993</ele>
        <time>2026-05-13T14:42:06.000Z</time>
      </trkpt>
      <trkpt lat="44.23565" lon="5.42446">
        <ele>992</ele>
        <time>2026-05-13T14:42:07.000Z</time>
      </trkpt>
      <trkpt lat="44.23565" lon="5.42446">
        <ele>992</ele>
        <time>2026-05-13T14:42:08.000Z</time>
      </trkpt>
      <trkpt lat="44.23565" lon="5.42446">
        <ele>992</ele>
        <time>2026-05-13T14:42:09.000Z</time>
      </trkpt>
      <trkpt lat="44.23565" lon="5.42447">
        <ele>992</ele>
        <time>2026-05-13T14:42:10.000Z</time>
      </trkpt>
      <trkpt lat="44.23565" lon="5.42447">
        <ele>992</ele>
        <time>2026-05-13T14:42:11.000Z</time>
      </trkpt>
      <trkpt lat="44.23565" lon="5.42447">
        <ele>992</ele>
        <time>2026-05-13T14:42:12.000Z</time>
      </trkpt>
      <trkpt lat="44.23565" lon="5.42447">
        <ele>992</ele>
        <time>2026-05-13T14:42:13.000Z</time>
      </trkpt>
      <trkpt lat="44.23565" lon="5.42447">
        <ele>992</ele>
        <time>2026-05-13T14:42:14.000Z</time>
      </trkpt>
      <trkpt lat="44.23565" lon="5.42446">
        <ele>992</ele>
        <time>2026-05-13T14:42:15.000Z</time>
      </trkpt>
      <trkpt lat="44.23564" lon="5.42446">
        <ele>991</ele>
        <time>2026-05-13T14:42:16.000Z</time>
      </trkpt>
      <trkpt lat="44.23564" lon="5.42447">
        <ele>992</ele>
        <time>2026-05-13T14:42:17.000Z</time>
      </trkpt>
      <trkpt lat="44.23565" lon="5.42448">
        <ele>992</ele>
        <time>2026-05-13T14:42:18.000Z</time>
      </trkpt>
      <trkpt lat="44.23564" lon="5.42448">
        <ele>992</ele>
        <time>2026-05-13T14:42:19.000Z</time>
      </trkpt>
      <trkpt lat="44.23564" lon="5.42448">
        <ele>992</ele>
        <time>2026-05-13T14:42:20.000Z</time>
      </trkpt>
      <trkpt lat="44.23564" lon="5.42448">
        <ele>992</ele>
        <time>2026-05-13T14:42:21.000Z</time>
      </trkpt>
      <trkpt lat="44.23564" lon="5.42448">
        <ele>992</ele>
        <time>2026-05-13T14:42:22.000Z</time>
      </trkpt>
      <trkpt lat="44.23565" lon="5.42449">
        <ele>992</ele>
        <time>2026-05-13T14:42:23.000Z</time>
      </trkpt>
      <trkpt lat="44.23564" lon="5.4245">
        <ele>992</ele>
        <time>2026-05-13T14:42:24.000Z</time>
      </trkpt>
      <trkpt lat="44.23564" lon="5.4245">
        <ele>991</ele>
        <time>2026-05-13T14:42:25.000Z</time>
      </trkpt>
      <trkpt lat="44.23564" lon="5.42451">
        <ele>990</ele>
        <time>2026-05-13T14:42:26.000Z</time>
      </trkpt>
      <trkpt lat="44.23564" lon="5.42451">
        <ele>990</ele>
        <time>2026-05-13T14:42:27.000Z</time>
      </trkpt>
      <trkpt lat="44.23563" lon="5.4245">
        <ele>990</ele>
        <time>2026-05-13T14:42:28.000Z</time>
      </trkpt>
      <trkpt lat="44.23563" lon="5.42449">
        <ele>990</ele>
        <time>2026-05-13T14:42:29.000Z</time>
      </trkpt>
      <trkpt lat="44.23563" lon="5.42449">
        <ele>990</ele>
        <time>2026-05-13T14:42:30.000Z</time>
      </trkpt>
      <trkpt lat="44.23562" lon="5.42449">
        <ele>989</ele>
        <time>2026-05-13T14:42:31.000Z</time>
      </trkpt>
      <trkpt lat="44.23562" lon="5.42449">
        <ele>989</ele>
        <time>2026-05-13T14:42:32.000Z</time>
      </trkpt>
      <trkpt lat="44.23562" lon="5.42449">
        <ele>989</ele>
        <time>2026-05-13T14:42:33.000Z</time>
      </trkpt>
      <trkpt lat="44.23562" lon="5.42449">
        <ele>989</ele>
        <time>2026-05-13T14:42:34.000Z</time>
      </trkpt>
      <trkpt lat="44.23562" lon="5.42449">
        <ele>989</ele>
        <time>2026-05-13T14:42:35.000Z</time>
      </trkpt>
      <trkpt lat="44.23562" lon="5.42448">
        <ele>989</ele>
        <time>2026-05-13T14:42:36.000Z</time>
      </trkpt>
      <trkpt lat="44.23561" lon="5.42447">
        <ele>989</ele>
        <time>2026-05-13T14:42:37.000Z</time>
      </trkpt>
      <trkpt lat="44.2356" lon="5.42446">
        <ele>989</ele>
        <time>2026-05-13T14:42:38.000Z</time>
      </trkpt>
      <trkpt lat="44.2356" lon="5.42445">
        <ele>989</ele>
        <time>2026-05-13T14:42:39.000Z</time>
      </trkpt>
      <trkpt lat="44.23559" lon="5.42443">
        <ele>988</ele>
        <time>2026-05-13T14:42:40.000Z</time>
      </trkpt>
      <trkpt lat="44.23557" lon="5.42442">
        <ele>988</ele>
        <time>2026-05-13T14:42:41.000Z</time>
      </trkpt>
      <trkpt lat="44.23554" lon="5.42442">
        <ele>988</ele>
        <time>2026-05-13T14:42:42.000Z</time>
      </trkpt>
      <trkpt lat="44.23551" lon="5.42441">
        <ele>988</ele>
        <time>2026-05-13T14:42:43.000Z</time>
      </trkpt>
      <trkpt lat="44.23548" lon="5.42439">
        <ele>988</ele>
        <time>2026-05-13T14:42:44.000Z</time>
      </trkpt>
      <trkpt lat="44.23545" lon="5.42437">
        <ele>987</ele>
        <time>2026-05-13T14:42:45.000Z</time>
      </trkpt>
      <trkpt lat="44.23541" lon="5.42435">
        <ele>987</ele>
        <time>2026-05-13T14:42:46.000Z</time>
      </trkpt>
      <trkpt lat="44.23537" lon="5.42432">
        <ele>986</ele>
        <time>2026-05-13T14:42:47.000Z</time>
      </trkpt>
      <trkpt lat="44.23533" lon="5.42431">
        <ele>986</ele>
        <time>2026-05-13T14:42:48.000Z</time>
      </trkpt>
      <trkpt lat="44.23529" lon="5.4243">
        <ele>986</ele>
        <time>2026-05-13T14:42:49.000Z</time>
      </trkpt>
      <trkpt lat="44.23525" lon="5.42429">
        <ele>986</ele>
        <time>2026-05-13T14:42:50.000Z</time>
      </trkpt>
      <trkpt lat="44.23522" lon="5.42427">
        <ele>986</ele>
        <time>2026-05-13T14:42:51.000Z</time>
      </trkpt>
      <trkpt lat="44.23519" lon="5.42426">
        <ele>986</ele>
        <time>2026-05-13T14:42:52.000Z</time>
      </trkpt>
      <trkpt lat="44.23516" lon="5.42427">
        <ele>986</ele>
        <time>2026-05-13T14:42:53.000Z</time>
      </trkpt>
      <trkpt lat="44.23513" lon="5.42426">
        <ele>986</ele>
        <time>2026-05-13T14:42:54.000Z</time>
      </trkpt>
      <trkpt lat="44.2351" lon="5.42426">
        <ele>986</ele>
        <time>2026-05-13T14:42:55.000Z</time>
      </trkpt>
      <trkpt lat="44.23507" lon="5.42424">
        <ele>985</ele>
        <time>2026-05-13T14:42:56.000Z</time>
      </trkpt>
      <trkpt lat="44.23505" lon="5.42423">
        <ele>985</ele>
        <time>2026-05-13T14:42:57.000Z</time>
      </trkpt>
      <trkpt lat="44.23503" lon="5.42422">
        <ele>984</ele>
        <time>2026-05-13T14:42:58.000Z</time>
      </trkpt>
      <trkpt lat="44.23501" lon="5.4242">
        <ele>984</ele>
        <time>2026-05-13T14:42:59.000Z</time>
      </trkpt>
      <trkpt lat="44.23498" lon="5.42418">
        <ele>983</ele>
        <time>2026-05-13T14:43:00.000Z</time>
      </trkpt>
      <trkpt lat="44.23496" lon="5.42416">
        <ele>983</ele>
        <time>2026-05-13T14:43:01.000Z</time>
      </trkpt>
      <trkpt lat="44.23493" lon="5.42414">
        <ele>982</ele>
        <time>2026-05-13T14:43:02.000Z</time>
      </trkpt>
      <trkpt lat="44.23492" lon="5.42412">
        <ele>982</ele>
        <time>2026-05-13T14:43:03.000Z</time>
      </trkpt>
      <trkpt lat="44.2349" lon="5.42409">
        <ele>981</ele>
        <time>2026-05-13T14:43:04.000Z</time>
      </trkpt>
      <trkpt lat="44.23487" lon="5.42408">
        <ele>980</ele>
        <time>2026-05-13T14:43:05.000Z</time>
      </trkpt>
      <trkpt lat="44.23485" lon="5.42406">
        <ele>980</ele>
        <time>2026-05-13T14:43:06.000Z</time>
      </trkpt>
      <trkpt lat="44.23484" lon="5.42404">
        <ele>979</ele>
        <time>2026-05-13T14:43:07.000Z</time>
      </trkpt>
      <trkpt lat="44.23482" lon="5.42402">
        <ele>978</ele>
        <time>2026-05-13T14:43:08.000Z</time>
      </trkpt>
      <trkpt lat="44.23481" lon="5.42401">
        <ele>978</ele>
        <time>2026-05-13T14:43:09.000Z</time>
      </trkpt>
      <trkpt lat="44.23479" lon="5.424">
        <ele>978</ele>
        <time>2026-05-13T14:43:10.000Z</time>
      </trkpt>
      <trkpt lat="44.23477" lon="5.424">
        <ele>977</ele>
        <time>2026-05-13T14:43:11.000Z</time>
      </trkpt>
      <trkpt lat="44.23474" lon="5.424">
        <ele>977</ele>
        <time>2026-05-13T14:43:12.000Z</time>
      </trkpt>
      <trkpt lat="44.23472" lon="5.42398">
        <ele>976</ele>
        <time>2026-05-13T14:43:13.000Z</time>
      </trkpt>
      <trkpt lat="44.23471" lon="5.42398">
        <ele>975</ele>
        <time>2026-05-13T14:43:14.000Z</time>
      </trkpt>
      <trkpt lat="44.23469" lon="5.42398">
        <ele>974</ele>
        <time>2026-05-13T14:43:15.000Z</time>
      </trkpt>
      <trkpt lat="44.23468" lon="5.42397">
        <ele>974</ele>
        <time>2026-05-13T14:43:16.000Z</time>
      </trkpt>
      <trkpt lat="44.23466" lon="5.42397">
        <ele>973</ele>
        <time>2026-05-13T14:43:17.000Z</time>
      </trkpt>
      <trkpt lat="44.23465" lon="5.42397">
        <ele>973</ele>
        <time>2026-05-13T14:43:18.000Z</time>
      </trkpt>
      <trkpt lat="44.23464" lon="5.42397">
        <ele>973</ele>
        <time>2026-05-13T14:43:19.000Z</time>
      </trkpt>
      <trkpt lat="44.23464" lon="5.42396">
        <ele>973</ele>
        <time>2026-05-13T14:43:20.000Z</time>
      </trkpt>
      <trkpt lat="44.23464" lon="5.42395">
        <ele>973</ele>
        <time>2026-05-13T14:43:21.000Z</time>
      </trkpt>
      <trkpt lat="44.23464" lon="5.42396">
        <ele>972</ele>
        <time>2026-05-13T14:43:22.000Z</time>
      </trkpt>
      <trkpt lat="44.23464" lon="5.42396">
        <ele>972</ele>
        <time>2026-05-13T14:43:23.000Z</time>
      </trkpt>
      <trkpt lat="44.23464" lon="5.42396">
        <ele>972</ele>
        <time>2026-05-13T14:43:24.000Z</time>
      </trkpt>
      <trkpt lat="44.23464" lon="5.42396">
        <ele>972</ele>
        <time>2026-05-13T14:43:25.000Z</time>
      </trkpt>
      <trkpt lat="44.23464" lon="5.42396">
        <ele>972</ele>
        <time>2026-05-13T14:43:26.000Z</time>
      </trkpt>
      <trkpt lat="44.23464" lon="5.42396">
        <ele>972</ele>
        <time>2026-05-13T14:43:27.000Z</time>
      </trkpt>
      <trkpt lat="44.23464" lon="5.42396">
        <ele>972</ele>
        <time>2026-05-13T14:43:28.000Z</time>
      </trkpt>
      <trkpt lat="44.23464" lon="5.42396">
        <ele>972</ele>
        <time>2026-05-13T14:43:29.000Z</time>
      </trkpt>
      <trkpt lat="44.23464" lon="5.42396">
        <ele>972</ele>
        <time>2026-05-13T14:43:30.000Z</time>
      </trkpt>
      <trkpt lat="44.23464" lon="5.42396">
        <ele>972</ele>
        <time>2026-05-13T14:43:31.000Z</time>
      </trkpt>
      <trkpt lat="44.23464" lon="5.42396">
        <ele>972</ele>
        <time>2026-05-13T14:43:32.000Z</time>
      </trkpt>
      <trkpt lat="44.23464" lon="5.42396">
        <ele>972</ele>
        <time>2026-05-13T14:43:33.000Z</time>
      </trkpt>
      <trkpt lat="44.23464" lon="5.42396">
        <ele>972</ele>
        <time>2026-05-13T14:43:34.000Z</time>
      </trkpt>
      <trkpt lat="44.23464" lon="5.42396">
        <ele>972</ele>
        <time>2026-05-13T14:43:35.000Z</time>
      </trkpt>
      <trkpt lat="44.23464" lon="5.42396">
        <ele>972</ele>
        <time>2026-05-13T14:43:36.000Z</time>
      </trkpt>
      <trkpt lat="44.23464" lon="5.42396">
        <ele>972</ele>
        <time>2026-05-13T14:43:37.000Z</time>
      </trkpt>
      <trkpt lat="44.23464" lon="5.42397">
        <ele>972</ele>
        <time>2026-05-13T14:43:38.000Z</time>
      </trkpt>
      <trkpt lat="44.23464" lon="5.42397">
        <ele>972</ele>
        <time>2026-05-13T14:43:39.000Z</time>
      </trkpt>
      <trkpt lat="44.23464" lon="5.42397">
        <ele>972</ele>
        <time>2026-05-13T14:43:40.000Z</time>
      </trkpt>
      <trkpt lat="44.23464" lon="5.42397">
        <ele>972</ele>
        <time>2026-05-13T14:43:41.000Z</time>
      </trkpt>
      <trkpt lat="44.23464" lon="5.42397">
        <ele>972</ele>
        <time>2026-05-13T14:43:42.000Z</time>
      </trkpt>
      <trkpt lat="44.23464" lon="5.42397">
        <ele>972</ele>
        <time>2026-05-13T14:43:43.000Z</time>
      </trkpt>
      <trkpt lat="44.23464" lon="5.42397">
        <ele>972</ele>
        <time>2026-05-13T14:43:44.000Z</time>
      </trkpt>
      <trkpt lat="44.23464" lon="5.42397">
        <ele>972</ele>
        <time>2026-05-13T14:43:45.000Z</time>
      </trkpt>
      <trkpt lat="44.23464" lon="5.42397">
        <ele>972</ele>
        <time>2026-05-13T14:43:46.000Z</time>
      </trkpt>
      <trkpt lat="44.23464" lon="5.42397">
        <ele>972</ele>
        <time>2026-05-13T14:43:47.000Z</time>
      </trkpt>
      <trkpt lat="44.23464" lon="5.42397">
        <ele>972</ele>
        <time>2026-05-13T14:43:48.000Z</time>
      </trkpt>
      <trkpt lat="44.23464" lon="5.42397">
        <ele>972</ele>
        <time>2026-05-13T14:43:49.000Z</time>
      </trkpt>
      <trkpt lat="44.23464" lon="5.42397">
        <ele>972</ele>
        <time>2026-05-13T14:43:50.000Z</time>
      </trkpt>
      <trkpt lat="44.23464" lon="5.42397">
        <ele>972</ele>
        <time>2026-05-13T14:43:51.000Z</time>
      </trkpt>
      <trkpt lat="44.23464" lon="5.42397">
        <ele>972</ele>
        <time>2026-05-13T14:43:52.000Z</time>
      </trkpt>
      <trkpt lat="44.23464" lon="5.42397">
        <ele>972</ele>
        <time>2026-05-13T14:43:53.000Z</time>
      </trkpt>
      <trkpt lat="44.23464" lon="5.42397">
        <ele>972</ele>
        <time>2026-05-13T14:43:54.000Z</time>
      </trkpt>
      <trkpt lat="44.23464" lon="5.42397">
        <ele>972</ele>
        <time>2026-05-13T14:43:55.000Z</time>
      </trkpt>
      <trkpt lat="44.23464" lon="5.42396">
        <ele>972</ele>
        <time>2026-05-13T14:43:56.000Z</time>
      </trkpt>
      <trkpt lat="44.23464" lon="5.42396">
        <ele>971</ele>
        <time>2026-05-13T14:43:57.000Z</time>
      </trkpt>
      <trkpt lat="44.23464" lon="5.42397">
        <ele>971</ele>
        <time>2026-05-13T14:43:58.000Z</time>
      </trkpt>
      <trkpt lat="44.23464" lon="5.42398">
        <ele>971</ele>
        <time>2026-05-13T14:43:59.000Z</time>
      </trkpt>
      <trkpt lat="44.23465" lon="5.42399">
        <ele>970</ele>
        <time>2026-05-13T14:44:00.000Z</time>
      </trkpt>
      <trkpt lat="44.23465" lon="5.424">
        <ele>970</ele>
        <time>2026-05-13T14:44:01.000Z</time>
      </trkpt>
      <trkpt lat="44.23466" lon="5.42399">
        <ele>969</ele>
        <time>2026-05-13T14:44:02.000Z</time>
      </trkpt>
      <trkpt lat="44.23467" lon="5.424">
        <ele>968</ele>
        <time>2026-05-13T14:44:03.000Z</time>
      </trkpt>
      <trkpt lat="44.23467" lon="5.424">
        <ele>967</ele>
        <time>2026-05-13T14:44:04.000Z</time>
      </trkpt>
      <trkpt lat="44.23467" lon="5.42401">
        <ele>967</ele>
        <time>2026-05-13T14:44:05.000Z</time>
      </trkpt>
      <trkpt lat="44.23467" lon="5.42402">
        <ele>966</ele>
        <time>2026-05-13T14:44:06.000Z</time>
      </trkpt>
      <trkpt lat="44.23466" lon="5.42404">
        <ele>966</ele>
        <time>2026-05-13T14:44:07.000Z</time>
      </trkpt>
      <trkpt lat="44.23466" lon="5.42406">
        <ele>965</ele>
        <time>2026-05-13T14:44:08.000Z</time>
      </trkpt>
      <trkpt lat="44.23466" lon="5.42408">
        <ele>964</ele>
        <time>2026-05-13T14:44:09.000Z</time>
      </trkpt>
      <trkpt lat="44.23466" lon="5.42409">
        <ele>964</ele>
        <time>2026-05-13T14:44:10.000Z</time>
      </trkpt>
      <trkpt lat="44.23465" lon="5.4241">
        <ele>964</ele>
        <time>2026-05-13T14:44:11.000Z</time>
      </trkpt>
      <trkpt lat="44.23463" lon="5.4241">
        <ele>964</ele>
        <time>2026-05-13T14:44:12.000Z</time>
      </trkpt>
      <trkpt lat="44.23462" lon="5.4241">
        <ele>964</ele>
        <time>2026-05-13T14:44:13.000Z</time>
      </trkpt>
      <trkpt lat="44.23461" lon="5.42409">
        <ele>964</ele>
        <time>2026-05-13T14:44:14.000Z</time>
      </trkpt>
      <trkpt lat="44.23461" lon="5.42408">
        <ele>964</ele>
        <time>2026-05-13T14:44:15.000Z</time>
      </trkpt>
      <trkpt lat="44.2346" lon="5.42408">
        <ele>964</ele>
        <time>2026-05-13T14:44:16.000Z</time>
      </trkpt>
      <trkpt lat="44.23459" lon="5.42408">
        <ele>964</ele>
        <time>2026-05-13T14:44:17.000Z</time>
      </trkpt>
      <trkpt lat="44.23457" lon="5.42408">
        <ele>964</ele>
        <time>2026-05-13T14:44:18.000Z</time>
      </trkpt>
      <trkpt lat="44.23456" lon="5.42409">
        <ele>964</ele>
        <time>2026-05-13T14:44:19.000Z</time>
      </trkpt>
      <trkpt lat="44.23454" lon="5.4241">
        <ele>964</ele>
        <time>2026-05-13T14:44:20.000Z</time>
      </trkpt>
      <trkpt lat="44.23452" lon="5.4241">
        <ele>963</ele>
        <time>2026-05-13T14:44:21.000Z</time>
      </trkpt>
      <trkpt lat="44.23451" lon="5.4241">
        <ele>963</ele>
        <time>2026-05-13T14:44:22.000Z</time>
      </trkpt>
      <trkpt lat="44.23449" lon="5.4241">
        <ele>962</ele>
        <time>2026-05-13T14:44:23.000Z</time>
      </trkpt>
      <trkpt lat="44.23447" lon="5.42408">
        <ele>961</ele>
        <time>2026-05-13T14:44:24.000Z</time>
      </trkpt>
      <trkpt lat="44.23445" lon="5.42406">
        <ele>961</ele>
        <time>2026-05-13T14:44:25.000Z</time>
      </trkpt>
      <trkpt lat="44.23443" lon="5.42404">
        <ele>961</ele>
        <time>2026-05-13T14:44:26.000Z</time>
      </trkpt>
      <trkpt lat="44.23442" lon="5.42401">
        <ele>960</ele>
        <time>2026-05-13T14:44:27.000Z</time>
      </trkpt>
      <trkpt lat="44.23442" lon="5.42399">
        <ele>959</ele>
        <time>2026-05-13T14:44:28.000Z</time>
      </trkpt>
      <trkpt lat="44.23441" lon="5.42399">
        <ele>959</ele>
        <time>2026-05-13T14:44:29.000Z</time>
      </trkpt>
      <trkpt lat="44.2344" lon="5.42398">
        <ele>959</ele>
        <time>2026-05-13T14:44:30.000Z</time>
      </trkpt>
      <trkpt lat="44.2344" lon="5.42398">
        <ele>959</ele>
        <time>2026-05-13T14:44:31.000Z</time>
      </trkpt>
      <trkpt lat="44.2344" lon="5.42397">
        <ele>959</ele>
        <time>2026-05-13T14:44:32.000Z</time>
      </trkpt>
      <trkpt lat="44.2344" lon="5.42397">
        <ele>958</ele>
        <time>2026-05-13T14:44:33.000Z</time>
      </trkpt>
      <trkpt lat="44.23439" lon="5.42397">
        <ele>958</ele>
        <time>2026-05-13T14:44:34.000Z</time>
      </trkpt>
      <trkpt lat="44.23439" lon="5.42397">
        <ele>958</ele>
        <time>2026-05-13T14:44:35.000Z</time>
      </trkpt>
      <trkpt lat="44.23439" lon="5.42397">
        <ele>958</ele>
        <time>2026-05-13T14:44:36.000Z</time>
      </trkpt>
      <trkpt lat="44.2344" lon="5.42396">
        <ele>958</ele>
        <time>2026-05-13T14:44:37.000Z</time>
      </trkpt>
      <trkpt lat="44.2344" lon="5.42397">
        <ele>959</ele>
        <time>2026-05-13T14:44:38.000Z</time>
      </trkpt>
      <trkpt lat="44.2344" lon="5.42397">
        <ele>959</ele>
        <time>2026-05-13T14:44:39.000Z</time>
      </trkpt>
      <trkpt lat="44.2344" lon="5.42397">
        <ele>958</ele>
        <time>2026-05-13T14:44:40.000Z</time>
      </trkpt>
      <trkpt lat="44.2344" lon="5.42397">
        <ele>958</ele>
        <time>2026-05-13T14:44:41.000Z</time>
      </trkpt>
      <trkpt lat="44.2344" lon="5.42397">
        <ele>958</ele>
        <time>2026-05-13T14:44:42.000Z</time>
      </trkpt>
      <trkpt lat="44.2344" lon="5.42397">
        <ele>958</ele>
        <time>2026-05-13T14:44:43.000Z</time>
      </trkpt>
      <trkpt lat="44.2344" lon="5.42397">
        <ele>958</ele>
        <time>2026-05-13T14:44:44.000Z</time>
      </trkpt>
      <trkpt lat="44.2344" lon="5.42397">
        <ele>958</ele>
        <time>2026-05-13T14:44:45.000Z</time>
      </trkpt>
      <trkpt lat="44.2344" lon="5.42397">
        <ele>958</ele>
        <time>2026-05-13T14:44:46.000Z</time>
      </trkpt>
      <trkpt lat="44.2344" lon="5.42397">
        <ele>958</ele>
        <time>2026-05-13T14:44:47.000Z</time>
      </trkpt>
      <trkpt lat="44.2344" lon="5.42397">
        <ele>958</ele>
        <time>2026-05-13T14:44:48.000Z</time>
      </trkpt>
      <trkpt lat="44.2344" lon="5.42397">
        <ele>958</ele>
        <time>2026-05-13T14:44:49.000Z</time>
      </trkpt>
      <trkpt lat="44.2344" lon="5.42397">
        <ele>958</ele>
        <time>2026-05-13T14:44:50.000Z</time>
      </trkpt>
      <trkpt lat="44.2344" lon="5.42397">
        <ele>958</ele>
        <time>2026-05-13T14:44:51.000Z</time>
      </trkpt>
      <trkpt lat="44.2344" lon="5.42397">
        <ele>958</ele>
        <time>2026-05-13T14:44:52.000Z</time>
      </trkpt>
      <trkpt lat="44.2344" lon="5.42397">
        <ele>958</ele>
        <time>2026-05-13T14:44:53.000Z</time>
      </trkpt>
      <trkpt lat="44.23441" lon="5.42399">
        <ele>958</ele>
        <time>2026-05-13T14:44:54.000Z</time>
      </trkpt>
      <trkpt lat="44.23442" lon="5.424">
        <ele>959</ele>
        <time>2026-05-13T14:44:55.000Z</time>
      </trkpt>
      <trkpt lat="44.23443" lon="5.42402">
        <ele>959</ele>
        <time>2026-05-13T14:44:56.000Z</time>
      </trkpt>
      <trkpt lat="44.23443" lon="5.42403">
        <ele>960</ele>
        <time>2026-05-13T14:44:57.000Z</time>
      </trkpt>
      <trkpt lat="44.23444" lon="5.42404">
        <ele>960</ele>
        <time>2026-05-13T14:44:58.000Z</time>
      </trkpt>
      <trkpt lat="44.23445" lon="5.42404">
        <ele>960</ele>
        <time>2026-05-13T14:44:59.000Z</time>
      </trkpt>
      <trkpt lat="44.23446" lon="5.42406">
        <ele>960</ele>
        <time>2026-05-13T14:45:00.000Z</time>
      </trkpt>
      <trkpt lat="44.23447" lon="5.42407">
        <ele>960</ele>
        <time>2026-05-13T14:45:01.000Z</time>
      </trkpt>
      <trkpt lat="44.23448" lon="5.42408">
        <ele>961</ele>
        <time>2026-05-13T14:45:02.000Z</time>
      </trkpt>
      <trkpt lat="44.2345" lon="5.4241">
        <ele>960</ele>
        <time>2026-05-13T14:45:03.000Z</time>
      </trkpt>
      <trkpt lat="44.2345" lon="5.4241">
        <ele>961</ele>
        <time>2026-05-13T14:45:04.000Z</time>
      </trkpt>
      <trkpt lat="44.2345" lon="5.4241">
        <ele>961</ele>
        <time>2026-05-13T14:45:05.000Z</time>
      </trkpt>
      <trkpt lat="44.23451" lon="5.42411">
        <ele>961</ele>
        <time>2026-05-13T14:45:06.000Z</time>
      </trkpt>
      <trkpt lat="44.23451" lon="5.42412">
        <ele>961</ele>
        <time>2026-05-13T14:45:07.000Z</time>
      </trkpt>
      <trkpt lat="44.23452" lon="5.42412">
        <ele>961</ele>
        <time>2026-05-13T14:45:08.000Z</time>
      </trkpt>
      <trkpt lat="44.23453" lon="5.42412">
        <ele>961</ele>
        <time>2026-05-13T14:45:09.000Z</time>
      </trkpt>
      <trkpt lat="44.23453" lon="5.42411">
        <ele>962</ele>
        <time>2026-05-13T14:45:10.000Z</time>
      </trkpt>
      <trkpt lat="44.23453" lon="5.4241">
        <ele>962</ele>
        <time>2026-05-13T14:45:11.000Z</time>
      </trkpt>
      <trkpt lat="44.23453" lon="5.4241">
        <ele>963</ele>
        <time>2026-05-13T14:45:12.000Z</time>
      </trkpt>
      <trkpt lat="44.23454" lon="5.42409">
        <ele>963</ele>
        <time>2026-05-13T14:45:13.000Z</time>
      </trkpt>
      <trkpt lat="44.23454" lon="5.42409">
        <ele>964</ele>
        <time>2026-05-13T14:45:14.000Z</time>
      </trkpt>
      <trkpt lat="44.23455" lon="5.42408">
        <ele>964</ele>
        <time>2026-05-13T14:45:15.000Z</time>
      </trkpt>
      <trkpt lat="44.23456" lon="5.42407">
        <ele>965</ele>
        <time>2026-05-13T14:45:16.000Z</time>
      </trkpt>
      <trkpt lat="44.23456" lon="5.42407">
        <ele>965</ele>
        <time>2026-05-13T14:45:17.000Z</time>
      </trkpt>
      <trkpt lat="44.23457" lon="5.42407">
        <ele>965</ele>
        <time>2026-05-13T14:45:18.000Z</time>
      </trkpt>
      <trkpt lat="44.23458" lon="5.42407">
        <ele>965</ele>
        <time>2026-05-13T14:45:19.000Z</time>
      </trkpt>
      <trkpt lat="44.23459" lon="5.42408">
        <ele>965</ele>
        <time>2026-05-13T14:45:20.000Z</time>
      </trkpt>
      <trkpt lat="44.2346" lon="5.42408">
        <ele>964</ele>
        <time>2026-05-13T14:45:21.000Z</time>
      </trkpt>
      <trkpt lat="44.2346" lon="5.42408">
        <ele>965</ele>
        <time>2026-05-13T14:45:22.000Z</time>
      </trkpt>
      <trkpt lat="44.23461" lon="5.42409">
        <ele>965</ele>
        <time>2026-05-13T14:45:23.000Z</time>
      </trkpt>
      <trkpt lat="44.23462" lon="5.4241">
        <ele>965</ele>
        <time>2026-05-13T14:45:24.000Z</time>
      </trkpt>
      <trkpt lat="44.23463" lon="5.42411">
        <ele>965</ele>
        <time>2026-05-13T14:45:25.000Z</time>
      </trkpt>
      <trkpt lat="44.23463" lon="5.42411">
        <ele>965</ele>
        <time>2026-05-13T14:45:26.000Z</time>
      </trkpt>
      <trkpt lat="44.23464" lon="5.42411">
        <ele>965</ele>
        <time>2026-05-13T14:45:27.000Z</time>
      </trkpt>
      <trkpt lat="44.23465" lon="5.42412">
        <ele>965</ele>
        <time>2026-05-13T14:45:28.000Z</time>
      </trkpt>
      <trkpt lat="44.23465" lon="5.42412">
        <ele>965</ele>
        <time>2026-05-13T14:45:29.000Z</time>
      </trkpt>
      <trkpt lat="44.23466" lon="5.42412">
        <ele>965</ele>
        <time>2026-05-13T14:45:30.000Z</time>
      </trkpt>
      <trkpt lat="44.23466" lon="5.42413">
        <ele>965</ele>
        <time>2026-05-13T14:45:31.000Z</time>
      </trkpt>
      <trkpt lat="44.23467" lon="5.42413">
        <ele>966</ele>
        <time>2026-05-13T14:45:32.000Z</time>
      </trkpt>
      <trkpt lat="44.23467" lon="5.42412">
        <ele>965</ele>
        <time>2026-05-13T14:45:33.000Z</time>
      </trkpt>
      <trkpt lat="44.23467" lon="5.42412">
        <ele>965</ele>
        <time>2026-05-13T14:45:34.000Z</time>
      </trkpt>
      <trkpt lat="44.23468" lon="5.42411">
        <ele>965</ele>
        <time>2026-05-13T14:45:35.000Z</time>
      </trkpt>
      <trkpt lat="44.23468" lon="5.42411">
        <ele>966</ele>
        <time>2026-05-13T14:45:36.000Z</time>
      </trkpt>
      <trkpt lat="44.23469" lon="5.42412">
        <ele>966</ele>
        <time>2026-05-13T14:45:37.000Z</time>
      </trkpt>
      <trkpt lat="44.23469" lon="5.42413">
        <ele>966</ele>
        <time>2026-05-13T14:45:38.000Z</time>
      </trkpt>
      <trkpt lat="44.2347" lon="5.42413">
        <ele>966</ele>
        <time>2026-05-13T14:45:39.000Z</time>
      </trkpt>
      <trkpt lat="44.2347" lon="5.42413">
        <ele>966</ele>
        <time>2026-05-13T14:45:40.000Z</time>
      </trkpt>
      <trkpt lat="44.23471" lon="5.42413">
        <ele>966</ele>
        <time>2026-05-13T14:45:41.000Z</time>
      </trkpt>
      <trkpt lat="44.23471" lon="5.42414">
        <ele>966</ele>
        <time>2026-05-13T14:45:42.000Z</time>
      </trkpt>
      <trkpt lat="44.23471" lon="5.42415">
        <ele>967</ele>
        <time>2026-05-13T14:45:43.000Z</time>
      </trkpt>
      <trkpt lat="44.23472" lon="5.42415">
        <ele>967</ele>
        <time>2026-05-13T14:45:44.000Z</time>
      </trkpt>
      <trkpt lat="44.23473" lon="5.42415">
        <ele>967</ele>
        <time>2026-05-13T14:45:45.000Z</time>
      </trkpt>
      <trkpt lat="44.23474" lon="5.42416">
        <ele>967</ele>
        <time>2026-05-13T14:45:46.000Z</time>
      </trkpt>
      <trkpt lat="44.23474" lon="5.42417">
        <ele>968</ele>
        <time>2026-05-13T14:45:47.000Z</time>
      </trkpt>
      <trkpt lat="44.23475" lon="5.42417">
        <ele>969</ele>
        <time>2026-05-13T14:45:48.000Z</time>
      </trkpt>
      <trkpt lat="44.23475" lon="5.42418">
        <ele>969</ele>
        <time>2026-05-13T14:45:49.000Z</time>
      </trkpt>
      <trkpt lat="44.23475" lon="5.42418">
        <ele>969</ele>
        <time>2026-05-13T14:45:50.000Z</time>
      </trkpt>
      <trkpt lat="44.23476" lon="5.42419">
        <ele>969</ele>
        <time>2026-05-13T14:45:51.000Z</time>
      </trkpt>
      <trkpt lat="44.23476" lon="5.42419">
        <ele>969</ele>
        <time>2026-05-13T14:45:52.000Z</time>
      </trkpt>
      <trkpt lat="44.23476" lon="5.42419">
        <ele>969</ele>
        <time>2026-05-13T14:45:53.000Z</time>
      </trkpt>
      <trkpt lat="44.23476" lon="5.42419">
        <ele>969</ele>
        <time>2026-05-13T14:45:54.000Z</time>
      </trkpt>
      <trkpt lat="44.23476" lon="5.42419">
        <ele>969</ele>
        <time>2026-05-13T14:45:55.000Z</time>
      </trkpt>
      <trkpt lat="44.23477" lon="5.4242">
        <ele>969</ele>
        <time>2026-05-13T14:45:56.000Z</time>
      </trkpt>
      <trkpt lat="44.23477" lon="5.42421">
        <ele>969</ele>
        <time>2026-05-13T14:45:57.000Z</time>
      </trkpt>
      <trkpt lat="44.23478" lon="5.42421">
        <ele>968</ele>
        <time>2026-05-13T14:45:58.000Z</time>
      </trkpt>
      <trkpt lat="44.23478" lon="5.42421">
        <ele>968</ele>
        <time>2026-05-13T14:45:59.000Z</time>
      </trkpt>
      <trkpt lat="44.23479" lon="5.42421">
        <ele>969</ele>
        <time>2026-05-13T14:46:00.000Z</time>
      </trkpt>
      <trkpt lat="44.23479" lon="5.42421">
        <ele>969</ele>
        <time>2026-05-13T14:46:01.000Z</time>
      </trkpt>
      <trkpt lat="44.2348" lon="5.42421">
        <ele>969</ele>
        <time>2026-05-13T14:46:02.000Z</time>
      </trkpt>
      <trkpt lat="44.23481" lon="5.42421">
        <ele>969</ele>
        <time>2026-05-13T14:46:03.000Z</time>
      </trkpt>
      <trkpt lat="44.23481" lon="5.42422">
        <ele>970</ele>
        <time>2026-05-13T14:46:04.000Z</time>
      </trkpt>
      <trkpt lat="44.23482" lon="5.42422">
        <ele>970</ele>
        <time>2026-05-13T14:46:05.000Z</time>
      </trkpt>
      <trkpt lat="44.23482" lon="5.42422">
        <ele>970</ele>
        <time>2026-05-13T14:46:06.000Z</time>
      </trkpt>
      <trkpt lat="44.23483" lon="5.42422">
        <ele>971</ele>
        <time>2026-05-13T14:46:07.000Z</time>
      </trkpt>
      <trkpt lat="44.23483" lon="5.42423">
        <ele>971</ele>
        <time>2026-05-13T14:46:08.000Z</time>
      </trkpt>
      <trkpt lat="44.23484" lon="5.42424">
        <ele>971</ele>
        <time>2026-05-13T14:46:09.000Z</time>
      </trkpt>
      <trkpt lat="44.23484" lon="5.42425">
        <ele>971</ele>
        <time>2026-05-13T14:46:10.000Z</time>
      </trkpt>
      <trkpt lat="44.23485" lon="5.42426">
        <ele>971</ele>
        <time>2026-05-13T14:46:11.000Z</time>
      </trkpt>
      <trkpt lat="44.23485" lon="5.42426">
        <ele>972</ele>
        <time>2026-05-13T14:46:12.000Z</time>
      </trkpt>
      <trkpt lat="44.23485" lon="5.42426">
        <ele>972</ele>
        <time>2026-05-13T14:46:13.000Z</time>
      </trkpt>
      <trkpt lat="44.23486" lon="5.42427">
        <ele>971</ele>
        <time>2026-05-13T14:46:14.000Z</time>
      </trkpt>
      <trkpt lat="44.23486" lon="5.42426">
        <ele>972</ele>
        <time>2026-05-13T14:46:15.000Z</time>
      </trkpt>
      <trkpt lat="44.23487" lon="5.42426">
        <ele>972</ele>
        <time>2026-05-13T14:46:16.000Z</time>
      </trkpt>
      <trkpt lat="44.23487" lon="5.42426">
        <ele>972</ele>
        <time>2026-05-13T14:46:17.000Z</time>
      </trkpt>
      <trkpt lat="44.23487" lon="5.42426">
        <ele>972</ele>
        <time>2026-05-13T14:46:18.000Z</time>
      </trkpt>
      <trkpt lat="44.23487" lon="5.42425">
        <ele>972</ele>
        <time>2026-05-13T14:46:19.000Z</time>
      </trkpt>
      <trkpt lat="44.23488" lon="5.42425">
        <ele>972</ele>
        <time>2026-05-13T14:46:20.000Z</time>
      </trkpt>
      <trkpt lat="44.23488" lon="5.42425">
        <ele>972</ele>
        <time>2026-05-13T14:46:21.000Z</time>
      </trkpt>
      <trkpt lat="44.23487" lon="5.42425">
        <ele>973</ele>
        <time>2026-05-13T14:46:22.000Z</time>
      </trkpt>
      <trkpt lat="44.23488" lon="5.42425">
        <ele>973</ele>
        <time>2026-05-13T14:46:23.000Z</time>
      </trkpt>
      <trkpt lat="44.23488" lon="5.42425">
        <ele>973</ele>
        <time>2026-05-13T14:46:24.000Z</time>
      </trkpt>
      <trkpt lat="44.23488" lon="5.42424">
        <ele>974</ele>
        <time>2026-05-13T14:46:25.000Z</time>
      </trkpt>
      <trkpt lat="44.23488" lon="5.42424">
        <ele>974</ele>
        <time>2026-05-13T14:46:26.000Z</time>
      </trkpt>
      <trkpt lat="44.23489" lon="5.42425">
        <ele>975</ele>
        <time>2026-05-13T14:46:27.000Z</time>
      </trkpt>
      <trkpt lat="44.23489" lon="5.42425">
        <ele>975</ele>
        <time>2026-05-13T14:46:28.000Z</time>
      </trkpt>
      <trkpt lat="44.23489" lon="5.42425">
        <ele>975</ele>
        <time>2026-05-13T14:46:29.000Z</time>
      </trkpt>
      <trkpt lat="44.2349" lon="5.42425">
        <ele>974</ele>
        <time>2026-05-13T14:46:30.000Z</time>
      </trkpt>
      <trkpt lat="44.2349" lon="5.42425">
        <ele>974</ele>
        <time>2026-05-13T14:46:31.000Z</time>
      </trkpt>
      <trkpt lat="44.23491" lon="5.42425">
        <ele>974</ele>
        <time>2026-05-13T14:46:32.000Z</time>
      </trkpt>
      <trkpt lat="44.23491" lon="5.42425">
        <ele>974</ele>
        <time>2026-05-13T14:46:33.000Z</time>
      </trkpt>
      <trkpt lat="44.23491" lon="5.42424">
        <ele>974</ele>
        <time>2026-05-13T14:46:34.000Z</time>
      </trkpt>
      <trkpt lat="44.23491" lon="5.42423">
        <ele>974</ele>
        <time>2026-05-13T14:46:35.000Z</time>
      </trkpt>
      <trkpt lat="44.23492" lon="5.42424">
        <ele>974</ele>
        <time>2026-05-13T14:46:36.000Z</time>
      </trkpt>
      <trkpt lat="44.23492" lon="5.42424">
        <ele>975</ele>
        <time>2026-05-13T14:46:37.000Z</time>
      </trkpt>
      <trkpt lat="44.23492" lon="5.42423">
        <ele>974</ele>
        <time>2026-05-13T14:46:38.000Z</time>
      </trkpt>
      <trkpt lat="44.23492" lon="5.42423">
        <ele>974</ele>
        <time>2026-05-13T14:46:39.000Z</time>
      </trkpt>
      <trkpt lat="44.23492" lon="5.42424">
        <ele>974</ele>
        <time>2026-05-13T14:46:40.000Z</time>
      </trkpt>
      <trkpt lat="44.23492" lon="5.42424">
        <ele>974</ele>
        <time>2026-05-13T14:46:41.000Z</time>
      </trkpt>
      <trkpt lat="44.23493" lon="5.42424">
        <ele>975</ele>
        <time>2026-05-13T14:46:42.000Z</time>
      </trkpt>
      <trkpt lat="44.23493" lon="5.42424">
        <ele>975</ele>
        <time>2026-05-13T14:46:43.000Z</time>
      </trkpt>
      <trkpt lat="44.23493" lon="5.42424">
        <ele>975</ele>
        <time>2026-05-13T14:46:44.000Z</time>
      </trkpt>
      <trkpt lat="44.23493" lon="5.42424">
        <ele>975</ele>
        <time>2026-05-13T14:46:45.000Z</time>
      </trkpt>
      <trkpt lat="44.23493" lon="5.42424">
        <ele>975</ele>
        <time>2026-05-13T14:46:46.000Z</time>
      </trkpt>
      <trkpt lat="44.23493" lon="5.42423">
        <ele>974</ele>
        <time>2026-05-13T14:46:47.000Z</time>
      </trkpt>
      <trkpt lat="44.23493" lon="5.42423">
        <ele>975</ele>
        <time>2026-05-13T14:46:48.000Z</time>
      </trkpt>
      <trkpt lat="44.23493" lon="5.42422">
        <ele>975</ele>
        <time>2026-05-13T14:46:49.000Z</time>
      </trkpt>
      <trkpt lat="44.23493" lon="5.42423">
        <ele>975</ele>
        <time>2026-05-13T14:46:50.000Z</time>
      </trkpt>
      <trkpt lat="44.23492" lon="5.42423">
        <ele>975</ele>
        <time>2026-05-13T14:46:51.000Z</time>
      </trkpt>
      <trkpt lat="44.23493" lon="5.42423">
        <ele>975</ele>
        <time>2026-05-13T14:46:52.000Z</time>
      </trkpt>
      <trkpt lat="44.23493" lon="5.42423">
        <ele>975</ele>
        <time>2026-05-13T14:46:53.000Z</time>
      </trkpt>
      <trkpt lat="44.23493" lon="5.42423">
        <ele>975</ele>
        <time>2026-05-13T14:46:54.000Z</time>
      </trkpt>
      <trkpt lat="44.23493" lon="5.42423">
        <ele>975</ele>
        <time>2026-05-13T14:46:55.000Z</time>
      </trkpt>
      <trkpt lat="44.23494" lon="5.42424">
        <ele>976</ele>
        <time>2026-05-13T14:46:56.000Z</time>
      </trkpt>
      <trkpt lat="44.23495" lon="5.42424">
        <ele>975</ele>
        <time>2026-05-13T14:46:57.000Z</time>
      </trkpt>
      <trkpt lat="44.23495" lon="5.42424">
        <ele>976</ele>
        <time>2026-05-13T14:46:58.000Z</time>
      </trkpt>
      <trkpt lat="44.23496" lon="5.42426">
        <ele>976</ele>
        <time>2026-05-13T14:46:59.000Z</time>
      </trkpt>
      <trkpt lat="44.23497" lon="5.42426">
        <ele>976</ele>
        <time>2026-05-13T14:47:00.000Z</time>
      </trkpt>
      <trkpt lat="44.23497" lon="5.42427">
        <ele>976</ele>
        <time>2026-05-13T14:47:01.000Z</time>
      </trkpt>
      <trkpt lat="44.23498" lon="5.42427">
        <ele>976</ele>
        <time>2026-05-13T14:47:02.000Z</time>
      </trkpt>
      <trkpt lat="44.23498" lon="5.42427">
        <ele>977</ele>
        <time>2026-05-13T14:47:03.000Z</time>
      </trkpt>
      <trkpt lat="44.23498" lon="5.42428">
        <ele>977</ele>
        <time>2026-05-13T14:47:04.000Z</time>
      </trkpt>
      <trkpt lat="44.23498" lon="5.42428">
        <ele>978</ele>
        <time>2026-05-13T14:47:05.000Z</time>
      </trkpt>
      <trkpt lat="44.23499" lon="5.42428">
        <ele>978</ele>
        <time>2026-05-13T14:47:06.000Z</time>
      </trkpt>
      <trkpt lat="44.235" lon="5.42429">
        <ele>978</ele>
        <time>2026-05-13T14:47:07.000Z</time>
      </trkpt>
      <trkpt lat="44.23501" lon="5.42428">
        <ele>979</ele>
        <time>2026-05-13T14:47:08.000Z</time>
      </trkpt>
      <trkpt lat="44.23501" lon="5.42428">
        <ele>979</ele>
        <time>2026-05-13T14:47:09.000Z</time>
      </trkpt>
      <trkpt lat="44.23501" lon="5.42427">
        <ele>978</ele>
        <time>2026-05-13T14:47:10.000Z</time>
      </trkpt>
      <trkpt lat="44.23501" lon="5.42426">
        <ele>979</ele>
        <time>2026-05-13T14:47:11.000Z</time>
      </trkpt>
      <trkpt lat="44.23501" lon="5.42425">
        <ele>978</ele>
        <time>2026-05-13T14:47:12.000Z</time>
      </trkpt>
      <trkpt lat="44.23501" lon="5.42423">
        <ele>978</ele>
        <time>2026-05-13T14:47:13.000Z</time>
      </trkpt>
      <trkpt lat="44.235" lon="5.42422">
        <ele>979</ele>
        <time>2026-05-13T14:47:14.000Z</time>
      </trkpt>
      <trkpt lat="44.235" lon="5.42422">
        <ele>979</ele>
        <time>2026-05-13T14:47:15.000Z</time>
      </trkpt>
      <trkpt lat="44.23499" lon="5.42421">
        <ele>979</ele>
        <time>2026-05-13T14:47:16.000Z</time>
      </trkpt>
      <trkpt lat="44.23499" lon="5.42421">
        <ele>979</ele>
        <time>2026-05-13T14:47:17.000Z</time>
      </trkpt>
      <trkpt lat="44.23499" lon="5.42421">
        <ele>979</ele>
        <time>2026-05-13T14:47:18.000Z</time>
      </trkpt>
      <trkpt lat="44.23499" lon="5.42421">
        <ele>979</ele>
        <time>2026-05-13T14:47:19.000Z</time>
      </trkpt>
      <trkpt lat="44.235" lon="5.42421">
        <ele>979</ele>
        <time>2026-05-13T14:47:20.000Z</time>
      </trkpt>
      <trkpt lat="44.23499" lon="5.42421">
        <ele>978</ele>
        <time>2026-05-13T14:47:21.000Z</time>
      </trkpt>
      <trkpt lat="44.23499" lon="5.42421">
        <ele>979</ele>
        <time>2026-05-13T14:47:22.000Z</time>
      </trkpt>
      <trkpt lat="44.23498" lon="5.42421">
        <ele>979</ele>
        <time>2026-05-13T14:47:23.000Z</time>
      </trkpt>
      <trkpt lat="44.23498" lon="5.4242">
        <ele>979</ele>
        <time>2026-05-13T14:47:24.000Z</time>
      </trkpt>
      <trkpt lat="44.23499" lon="5.4242">
        <ele>979</ele>
        <time>2026-05-13T14:47:25.000Z</time>
      </trkpt>
      <trkpt lat="44.23499" lon="5.4242">
        <ele>979</ele>
        <time>2026-05-13T14:47:26.000Z</time>
      </trkpt>
      <trkpt lat="44.23499" lon="5.42419">
        <ele>980</ele>
        <time>2026-05-13T14:47:27.000Z</time>
      </trkpt>
      <trkpt lat="44.235" lon="5.42419">
        <ele>980</ele>
        <time>2026-05-13T14:47:28.000Z</time>
      </trkpt>
      <trkpt lat="44.235" lon="5.4242">
        <ele>980</ele>
        <time>2026-05-13T14:47:29.000Z</time>
      </trkpt>
      <trkpt lat="44.235" lon="5.42421">
        <ele>981</ele>
        <time>2026-05-13T14:47:30.000Z</time>
      </trkpt>
      <trkpt lat="44.23501" lon="5.42422">
        <ele>981</ele>
        <time>2026-05-13T14:47:31.000Z</time>
      </trkpt>
      <trkpt lat="44.23502" lon="5.42422">
        <ele>982</ele>
        <time>2026-05-13T14:47:32.000Z</time>
      </trkpt>
      <trkpt lat="44.23503" lon="5.42423">
        <ele>982</ele>
        <time>2026-05-13T14:47:33.000Z</time>
      </trkpt>
      <trkpt lat="44.23503" lon="5.42423">
        <ele>982</ele>
        <time>2026-05-13T14:47:34.000Z</time>
      </trkpt>
      <trkpt lat="44.23505" lon="5.42423">
        <ele>982</ele>
        <time>2026-05-13T14:47:35.000Z</time>
      </trkpt>
      <trkpt lat="44.23505" lon="5.42424">
        <ele>982</ele>
        <time>2026-05-13T14:47:36.000Z</time>
      </trkpt>
      <trkpt lat="44.23505" lon="5.42423">
        <ele>982</ele>
        <time>2026-05-13T14:47:37.000Z</time>
      </trkpt>
      <trkpt lat="44.23506" lon="5.42423">
        <ele>982</ele>
        <time>2026-05-13T14:47:38.000Z</time>
      </trkpt>
      <trkpt lat="44.23507" lon="5.42423">
        <ele>983</ele>
        <time>2026-05-13T14:47:39.000Z</time>
      </trkpt>
      <trkpt lat="44.23508" lon="5.42424">
        <ele>983</ele>
        <time>2026-05-13T14:47:40.000Z</time>
      </trkpt>
      <trkpt lat="44.23508" lon="5.42424">
        <ele>983</ele>
        <time>2026-05-13T14:47:41.000Z</time>
      </trkpt>
      <trkpt lat="44.23508" lon="5.42424">
        <ele>983</ele>
        <time>2026-05-13T14:47:42.000Z</time>
      </trkpt>
      <trkpt lat="44.23509" lon="5.42425">
        <ele>984</ele>
        <time>2026-05-13T14:47:43.000Z</time>
      </trkpt>
      <trkpt lat="44.23509" lon="5.42425">
        <ele>985</ele>
        <time>2026-05-13T14:47:44.000Z</time>
      </trkpt>
      <trkpt lat="44.2351" lon="5.42426">
        <ele>985</ele>
        <time>2026-05-13T14:47:45.000Z</time>
      </trkpt>
      <trkpt lat="44.23511" lon="5.42426">
        <ele>985</ele>
        <time>2026-05-13T14:47:46.000Z</time>
      </trkpt>
      <trkpt lat="44.23511" lon="5.42426">
        <ele>984</ele>
        <time>2026-05-13T14:47:47.000Z</time>
      </trkpt>
      <trkpt lat="44.23512" lon="5.42426">
        <ele>985</ele>
        <time>2026-05-13T14:47:48.000Z</time>
      </trkpt>
      <trkpt lat="44.23513" lon="5.42426">
        <ele>986</ele>
        <time>2026-05-13T14:47:49.000Z</time>
      </trkpt>
      <trkpt lat="44.23512" lon="5.42426">
        <ele>986</ele>
        <time>2026-05-13T14:47:50.000Z</time>
      </trkpt>
      <trkpt lat="44.23513" lon="5.42427">
        <ele>986</ele>
        <time>2026-05-13T14:47:51.000Z</time>
      </trkpt>
      <trkpt lat="44.23514" lon="5.42427">
        <ele>986</ele>
        <time>2026-05-13T14:47:52.000Z</time>
      </trkpt>
      <trkpt lat="44.23515" lon="5.42427">
        <ele>987</ele>
        <time>2026-05-13T14:47:53.000Z</time>
      </trkpt>
      <trkpt lat="44.23516" lon="5.42427">
        <ele>987</ele>
        <time>2026-05-13T14:47:54.000Z</time>
      </trkpt>
      <trkpt lat="44.23517" lon="5.42427">
        <ele>987</ele>
        <time>2026-05-13T14:47:55.000Z</time>
      </trkpt>
      <trkpt lat="44.23518" lon="5.42427">
        <ele>988</ele>
        <time>2026-05-13T14:47:56.000Z</time>
      </trkpt>
      <trkpt lat="44.23518" lon="5.42428">
        <ele>988</ele>
        <time>2026-05-13T14:47:57.000Z</time>
      </trkpt>
      <trkpt lat="44.23519" lon="5.42427">
        <ele>988</ele>
        <time>2026-05-13T14:47:58.000Z</time>
      </trkpt>
      <trkpt lat="44.23519" lon="5.42427">
        <ele>988</ele>
        <time>2026-05-13T14:47:59.000Z</time>
      </trkpt>
      <trkpt lat="44.2352" lon="5.42427">
        <ele>988</ele>
        <time>2026-05-13T14:48:00.000Z</time>
      </trkpt>
      <trkpt lat="44.2352" lon="5.42427">
        <ele>987</ele>
        <time>2026-05-13T14:48:01.000Z</time>
      </trkpt>
      <trkpt lat="44.23521" lon="5.42427">
        <ele>987</ele>
        <time>2026-05-13T14:48:02.000Z</time>
      </trkpt>
      <trkpt lat="44.23522" lon="5.42427">
        <ele>987</ele>
        <time>2026-05-13T14:48:03.000Z</time>
      </trkpt>
      <trkpt lat="44.23522" lon="5.42427">
        <ele>986</ele>
        <time>2026-05-13T14:48:04.000Z</time>
      </trkpt>
      <trkpt lat="44.23523" lon="5.42428">
        <ele>986</ele>
        <time>2026-05-13T14:48:05.000Z</time>
      </trkpt>
      <trkpt lat="44.23524" lon="5.42429">
        <ele>986</ele>
        <time>2026-05-13T14:48:06.000Z</time>
      </trkpt>
      <trkpt lat="44.23525" lon="5.42429">
        <ele>986</ele>
        <time>2026-05-13T14:48:07.000Z</time>
      </trkpt>
      <trkpt lat="44.23525" lon="5.4243">
        <ele>986</ele>
        <time>2026-05-13T14:48:08.000Z</time>
      </trkpt>
      <trkpt lat="44.23526" lon="5.42429">
        <ele>987</ele>
        <time>2026-05-13T14:48:09.000Z</time>
      </trkpt>
      <trkpt lat="44.23525" lon="5.42427">
        <ele>987</ele>
        <time>2026-05-13T14:48:10.000Z</time>
      </trkpt>
      <trkpt lat="44.23525" lon="5.42428">
        <ele>987</ele>
        <time>2026-05-13T14:48:11.000Z</time>
      </trkpt>
      <trkpt lat="44.23525" lon="5.42428">
        <ele>987</ele>
        <time>2026-05-13T14:48:12.000Z</time>
      </trkpt>
      <trkpt lat="44.23525" lon="5.42428">
        <ele>987</ele>
        <time>2026-05-13T14:48:13.000Z</time>
      </trkpt>
      <trkpt lat="44.23524" lon="5.42427">
        <ele>986</ele>
        <time>2026-05-13T14:48:14.000Z</time>
      </trkpt>
      <trkpt lat="44.23524" lon="5.42427">
        <ele>986</ele>
        <time>2026-05-13T14:48:15.000Z</time>
      </trkpt>
      <trkpt lat="44.23524" lon="5.42427">
        <ele>986</ele>
        <time>2026-05-13T14:48:16.000Z</time>
      </trkpt>
      <trkpt lat="44.23524" lon="5.42427">
        <ele>986</ele>
        <time>2026-05-13T14:48:17.000Z</time>
      </trkpt>
      <trkpt lat="44.23524" lon="5.42427">
        <ele>986</ele>
        <time>2026-05-13T14:48:18.000Z</time>
      </trkpt>
      <trkpt lat="44.23524" lon="5.42427">
        <ele>986</ele>
        <time>2026-05-13T14:48:19.000Z</time>
      </trkpt>
      <trkpt lat="44.23524" lon="5.42427">
        <ele>986</ele>
        <time>2026-05-13T14:48:20.000Z</time>
      </trkpt>
      <trkpt lat="44.23524" lon="5.42427">
        <ele>986</ele>
        <time>2026-05-13T14:48:21.000Z</time>
      </trkpt>
      <trkpt lat="44.23524" lon="5.42427">
        <ele>986</ele>
        <time>2026-05-13T14:48:22.000Z</time>
      </trkpt>
      <trkpt lat="44.23524" lon="5.42427">
        <ele>986</ele>
        <time>2026-05-13T14:48:23.000Z</time>
      </trkpt>
      <trkpt lat="44.23524" lon="5.42427">
        <ele>986</ele>
        <time>2026-05-13T14:48:24.000Z</time>
      </trkpt>
      <trkpt lat="44.23524" lon="5.42427">
        <ele>986</ele>
        <time>2026-05-13T14:48:25.000Z</time>
      </trkpt>
      <trkpt lat="44.23524" lon="5.42427">
        <ele>986</ele>
        <time>2026-05-13T14:48:26.000Z</time>
      </trkpt>
      <trkpt lat="44.23524" lon="5.42427">
        <ele>986</ele>
        <time>2026-05-13T14:48:27.000Z</time>
      </trkpt>
      <trkpt lat="44.23524" lon="5.42427">
        <ele>986</ele>
        <time>2026-05-13T14:48:28.000Z</time>
      </trkpt>
      <trkpt lat="44.23524" lon="5.42427">
        <ele>986</ele>
        <time>2026-05-13T14:48:29.000Z</time>
      </trkpt>
      <trkpt lat="44.23524" lon="5.42427">
        <ele>986</ele>
        <time>2026-05-13T14:48:30.000Z</time>
      </trkpt>
      <trkpt lat="44.23524" lon="5.42427">
        <ele>986</ele>
        <time>2026-05-13T14:48:31.000Z</time>
      </trkpt>
      <trkpt lat="44.23524" lon="5.42427">
        <ele>986</ele>
        <time>2026-05-13T14:48:32.000Z</time>
      </trkpt>
      <trkpt lat="44.23524" lon="5.42427">
        <ele>986</ele>
        <time>2026-05-13T14:48:33.000Z</time>
      </trkpt>
      <trkpt lat="44.23524" lon="5.42427">
        <ele>986</ele>
        <time>2026-05-13T14:48:34.000Z</time>
      </trkpt>
      <trkpt lat="44.23524" lon="5.42427">
        <ele>986</ele>
        <time>2026-05-13T14:48:35.000Z</time>
      </trkpt>
      <trkpt lat="44.23524" lon="5.42427">
        <ele>986</ele>
        <time>2026-05-13T14:48:36.000Z</time>
      </trkpt>
      <trkpt lat="44.23524" lon="5.42427">
        <ele>986</ele>
        <time>2026-05-13T14:48:37.000Z</time>
      </trkpt>
      <trkpt lat="44.23524" lon="5.42427">
        <ele>986</ele>
        <time>2026-05-13T14:48:38.000Z</time>
      </trkpt>
      <trkpt lat="44.23524" lon="5.42427">
        <ele>986</ele>
        <time>2026-05-13T14:48:39.000Z</time>
      </trkpt>
      <trkpt lat="44.23524" lon="5.42427">
        <ele>986</ele>
        <time>2026-05-13T14:48:40.000Z</time>
      </trkpt>
      <trkpt lat="44.23524" lon="5.42427">
        <ele>986</ele>
        <time>2026-05-13T14:48:41.000Z</time>
      </trkpt>
      <trkpt lat="44.23524" lon="5.42427">
        <ele>986</ele>
        <time>2026-05-13T14:48:42.000Z</time>
      </trkpt>
      <trkpt lat="44.23524" lon="5.42427">
        <ele>986</ele>
        <time>2026-05-13T14:48:43.000Z</time>
      </trkpt>
      <trkpt lat="44.23524" lon="5.42427">
        <ele>986</ele>
        <time>2026-05-13T14:48:44.000Z</time>
      </trkpt>
      <trkpt lat="44.23524" lon="5.42427">
        <ele>986</ele>
        <time>2026-05-13T14:48:45.000Z</time>
      </trkpt>
      <trkpt lat="44.23524" lon="5.42427">
        <ele>986</ele>
        <time>2026-05-13T14:48:46.000Z</time>
      </trkpt>
      <trkpt lat="44.23524" lon="5.42427">
        <ele>986</ele>
        <time>2026-05-13T14:48:47.000Z</time>
      </trkpt>
      <trkpt lat="44.23524" lon="5.42427">
        <ele>986</ele>
        <time>2026-05-13T14:48:48.000Z</time>
      </trkpt>
      <trkpt lat="44.23524" lon="5.42427">
        <ele>986</ele>
        <time>2026-05-13T14:48:49.000Z</time>
      </trkpt>
      <trkpt lat="44.23524" lon="5.42427">
        <ele>986</ele>
        <time>2026-05-13T14:48:50.000Z</time>
      </trkpt>
      <trkpt lat="44.23524" lon="5.42427">
        <ele>986</ele>
        <time>2026-05-13T14:48:51.000Z</time>
      </trkpt>
      <trkpt lat="44.23524" lon="5.42427">
        <ele>986</ele>
        <time>2026-05-13T14:48:52.000Z</time>
      </trkpt>
      <trkpt lat="44.23524" lon="5.42428">
        <ele>986</ele>
        <time>2026-05-13T14:48:53.000Z</time>
      </trkpt>
      <trkpt lat="44.23524" lon="5.42428">
        <ele>986</ele>
        <time>2026-05-13T14:48:54.000Z</time>
      </trkpt>
      <trkpt lat="44.23524" lon="5.42428">
        <ele>986</ele>
        <time>2026-05-13T14:48:55.000Z</time>
      </trkpt>
      <trkpt lat="44.23524" lon="5.42428">
        <ele>986</ele>
        <time>2026-05-13T14:48:56.000Z</time>
      </trkpt>
      <trkpt lat="44.23524" lon="5.42428">
        <ele>986</ele>
        <time>2026-05-13T14:48:57.000Z</time>
      </trkpt>
      <trkpt lat="44.23524" lon="5.42428">
        <ele>986</ele>
        <time>2026-05-13T14:48:58.000Z</time>
      </trkpt>
      <trkpt lat="44.23525" lon="5.42428">
        <ele>986</ele>
        <time>2026-05-13T14:48:59.000Z</time>
      </trkpt>
      <trkpt lat="44.23525" lon="5.42428">
        <ele>986</ele>
        <time>2026-05-13T14:49:00.000Z</time>
      </trkpt>
      <trkpt lat="44.23525" lon="5.42428">
        <ele>986</ele>
        <time>2026-05-13T14:49:01.000Z</time>
      </trkpt>
      <trkpt lat="44.23525" lon="5.42428">
        <ele>986</ele>
        <time>2026-05-13T14:49:02.000Z</time>
      </trkpt>
      <trkpt lat="44.23525" lon="5.42428">
        <ele>986</ele>
        <time>2026-05-13T14:49:03.000Z</time>
      </trkpt>
      <trkpt lat="44.23525" lon="5.42428">
        <ele>986</ele>
        <time>2026-05-13T14:49:04.000Z</time>
      </trkpt>
      <trkpt lat="44.23525" lon="5.42428">
        <ele>986</ele>
        <time>2026-05-13T14:49:05.000Z</time>
      </trkpt>
      <trkpt lat="44.23525" lon="5.42428">
        <ele>986</ele>
        <time>2026-05-13T14:49:06.000Z</time>
      </trkpt>
      <trkpt lat="44.23525" lon="5.42428">
        <ele>986</ele>
        <time>2026-05-13T14:49:07.000Z</time>
      </trkpt>
      <trkpt lat="44.23525" lon="5.42428">
        <ele>986</ele>
        <time>2026-05-13T14:49:08.000Z</time>
      </trkpt>
      <trkpt lat="44.23525" lon="5.42428">
        <ele>986</ele>
        <time>2026-05-13T14:49:09.000Z</time>
      </trkpt>
      <trkpt lat="44.23525" lon="5.42428">
        <ele>986</ele>
        <time>2026-05-13T14:49:10.000Z</time>
      </trkpt>
      <trkpt lat="44.23525" lon="5.42428">
        <ele>986</ele>
        <time>2026-05-13T14:49:11.000Z</time>
      </trkpt>
      <trkpt lat="44.23525" lon="5.42428">
        <ele>986</ele>
        <time>2026-05-13T14:49:12.000Z</time>
      </trkpt>
      <trkpt lat="44.23525" lon="5.42428">
        <ele>986</ele>
        <time>2026-05-13T14:49:13.000Z</time>
      </trkpt>
      <trkpt lat="44.23525" lon="5.42428">
        <ele>986</ele>
        <time>2026-05-13T14:49:14.000Z</time>
      </trkpt>
      <trkpt lat="44.23525" lon="5.42428">
        <ele>986</ele>
        <time>2026-05-13T14:49:15.000Z</time>
      </trkpt>
      <trkpt lat="44.23525" lon="5.42428">
        <ele>986</ele>
        <time>2026-05-13T14:49:16.000Z</time>
      </trkpt>
      <trkpt lat="44.23525" lon="5.42428">
        <ele>986</ele>
        <time>2026-05-13T14:49:17.000Z</time>
      </trkpt>
      <trkpt lat="44.23525" lon="5.42428">
        <ele>986</ele>
        <time>2026-05-13T14:49:18.000Z</time>
      </trkpt>
      <trkpt lat="44.23525" lon="5.42428">
        <ele>986</ele>
        <time>2026-05-13T14:49:19.000Z</time>
      </trkpt>
      <trkpt lat="44.23525" lon="5.42428">
        <ele>986</ele>
        <time>2026-05-13T14:49:20.000Z</time>
      </trkpt>
      <trkpt lat="44.23525" lon="5.42428">
        <ele>986</ele>
        <time>2026-05-13T14:49:21.000Z</time>
      </trkpt>
      <trkpt lat="44.23525" lon="5.42428">
        <ele>986</ele>
        <time>2026-05-13T14:49:22.000Z</time>
      </trkpt>
      <trkpt lat="44.23525" lon="5.42428">
        <ele>986</ele>
        <time>2026-05-13T14:49:23.000Z</time>
      </trkpt>
      <trkpt lat="44.23524" lon="5.42429">
        <ele>986</ele>
        <time>2026-05-13T14:49:24.000Z</time>
      </trkpt>
      <trkpt lat="44.23524" lon="5.42429">
        <ele>986</ele>
        <time>2026-05-13T14:49:25.000Z</time>
      </trkpt>
      <trkpt lat="44.23524" lon="5.42429">
        <ele>986</ele>
        <time>2026-05-13T14:49:26.000Z</time>
      </trkpt>
      <trkpt lat="44.23524" lon="5.42429">
        <ele>986</ele>
        <time>2026-05-13T14:49:27.000Z</time>
      </trkpt>
      <trkpt lat="44.23525" lon="5.42429">
        <ele>986</ele>
        <time>2026-05-13T14:49:28.000Z</time>
      </trkpt>
      <trkpt lat="44.23524" lon="5.42428">
        <ele>985</ele>
        <time>2026-05-13T14:49:29.000Z</time>
      </trkpt>
      <trkpt lat="44.23525" lon="5.42428">
        <ele>986</ele>
        <time>2026-05-13T14:49:30.000Z</time>
      </trkpt>
      <trkpt lat="44.23525" lon="5.42428">
        <ele>986</ele>
        <time>2026-05-13T14:49:31.000Z</time>
      </trkpt>
      <trkpt lat="44.23525" lon="5.42428">
        <ele>986</ele>
        <time>2026-05-13T14:49:32.000Z</time>
      </trkpt>
      <trkpt lat="44.23525" lon="5.42428">
        <ele>986</ele>
        <time>2026-05-13T14:49:33.000Z</time>
      </trkpt>
      <trkpt lat="44.23525" lon="5.42428">
        <ele>986</ele>
        <time>2026-05-13T14:49:34.000Z</time>
      </trkpt>
      <trkpt lat="44.23526" lon="5.42428">
        <ele>986</ele>
        <time>2026-05-13T14:49:35.000Z</time>
      </trkpt>
      <trkpt lat="44.23526" lon="5.42428">
        <ele>986</ele>
        <time>2026-05-13T14:49:36.000Z</time>
      </trkpt>
      <trkpt lat="44.23526" lon="5.42429">
        <ele>986</ele>
        <time>2026-05-13T14:49:37.000Z</time>
      </trkpt>
      <trkpt lat="44.23526" lon="5.4243">
        <ele>986</ele>
        <time>2026-05-13T14:49:38.000Z</time>
      </trkpt>
      <trkpt lat="44.23527" lon="5.42431">
        <ele>986</ele>
        <time>2026-05-13T14:49:39.000Z</time>
      </trkpt>
      <trkpt lat="44.23529" lon="5.42431">
        <ele>986</ele>
        <time>2026-05-13T14:49:40.000Z</time>
      </trkpt>
      <trkpt lat="44.23531" lon="5.42431">
        <ele>986</ele>
        <time>2026-05-13T14:49:41.000Z</time>
      </trkpt>
      <trkpt lat="44.23532" lon="5.42432">
        <ele>986</ele>
        <time>2026-05-13T14:49:42.000Z</time>
      </trkpt>
      <trkpt lat="44.23534" lon="5.42433">
        <ele>987</ele>
        <time>2026-05-13T14:49:43.000Z</time>
      </trkpt>
      <trkpt lat="44.23536" lon="5.42433">
        <ele>987</ele>
        <time>2026-05-13T14:49:44.000Z</time>
      </trkpt>
      <trkpt lat="44.23539" lon="5.42434">
        <ele>987</ele>
        <time>2026-05-13T14:49:45.000Z</time>
      </trkpt>
      <trkpt lat="44.23541" lon="5.42435">
        <ele>988</ele>
        <time>2026-05-13T14:49:46.000Z</time>
      </trkpt>
      <trkpt lat="44.23543" lon="5.42436">
        <ele>988</ele>
        <time>2026-05-13T14:49:47.000Z</time>
      </trkpt>
      <trkpt lat="44.23545" lon="5.42437">
        <ele>988</ele>
        <time>2026-05-13T14:49:48.000Z</time>
      </trkpt>
      <trkpt lat="44.23547" lon="5.42438">
        <ele>988</ele>
        <time>2026-05-13T14:49:49.000Z</time>
      </trkpt>
      <trkpt lat="44.23549" lon="5.42439">
        <ele>988</ele>
        <time>2026-05-13T14:49:50.000Z</time>
      </trkpt>
      <trkpt lat="44.2355" lon="5.4244">
        <ele>988</ele>
        <time>2026-05-13T14:49:51.000Z</time>
      </trkpt>
      <trkpt lat="44.23552" lon="5.42441">
        <ele>988</ele>
        <time>2026-05-13T14:49:52.000Z</time>
      </trkpt>
      <trkpt lat="44.23553" lon="5.42441">
        <ele>988</ele>
        <time>2026-05-13T14:49:53.000Z</time>
      </trkpt>
      <trkpt lat="44.23555" lon="5.42441">
        <ele>988</ele>
        <time>2026-05-13T14:49:54.000Z</time>
      </trkpt>
      <trkpt lat="44.23556" lon="5.4244">
        <ele>988</ele>
        <time>2026-05-13T14:49:55.000Z</time>
      </trkpt>
      <trkpt lat="44.23558" lon="5.42441">
        <ele>989</ele>
        <time>2026-05-13T14:49:56.000Z</time>
      </trkpt>
      <trkpt lat="44.23559" lon="5.42441">
        <ele>989</ele>
        <time>2026-05-13T14:49:57.000Z</time>
      </trkpt>
      <trkpt lat="44.23561" lon="5.42442">
        <ele>989</ele>
        <time>2026-05-13T14:49:58.000Z</time>
      </trkpt>
      <trkpt lat="44.23562" lon="5.42444">
        <ele>990</ele>
        <time>2026-05-13T14:49:59.000Z</time>
      </trkpt>
      <trkpt lat="44.23563" lon="5.42446">
        <ele>990</ele>
        <time>2026-05-13T14:50:00.000Z</time>
      </trkpt>
      <trkpt lat="44.23564" lon="5.42446">
        <ele>990</ele>
        <time>2026-05-13T14:50:01.000Z</time>
      </trkpt>
      <trkpt lat="44.23565" lon="5.42446">
        <ele>990</ele>
        <time>2026-05-13T14:50:02.000Z</time>
      </trkpt>
      <trkpt lat="44.23566" lon="5.42448">
        <ele>990</ele>
        <time>2026-05-13T14:50:03.000Z</time>
      </trkpt>
      <trkpt lat="44.23567" lon="5.42449">
        <ele>990</ele>
        <time>2026-05-13T14:50:04.000Z</time>
      </trkpt>
      <trkpt lat="44.23569" lon="5.42451">
        <ele>990</ele>
        <time>2026-05-13T14:50:05.000Z</time>
      </trkpt>
      <trkpt lat="44.2357" lon="5.42454">
        <ele>990</ele>
        <time>2026-05-13T14:50:06.000Z</time>
      </trkpt>
      <trkpt lat="44.23571" lon="5.42457">
        <ele>990</ele>
        <time>2026-05-13T14:50:07.000Z</time>
      </trkpt>
      <trkpt lat="44.23573" lon="5.4246">
        <ele>990</ele>
        <time>2026-05-13T14:50:08.000Z</time>
      </trkpt>
      <trkpt lat="44.23575" lon="5.42464">
        <ele>989</ele>
        <time>2026-05-13T14:50:09.000Z</time>
      </trkpt>
      <trkpt lat="44.23577" lon="5.42468">
        <ele>989</ele>
        <time>2026-05-13T14:50:10.000Z</time>
      </trkpt>
      <trkpt lat="44.23578" lon="5.42471">
        <ele>989</ele>
        <time>2026-05-13T14:50:11.000Z</time>
      </trkpt>
      <trkpt lat="44.23579" lon="5.42475">
        <ele>989</ele>
        <time>2026-05-13T14:50:12.000Z</time>
      </trkpt>
      <trkpt lat="44.2358" lon="5.4248">
        <ele>989</ele>
        <time>2026-05-13T14:50:13.000Z</time>
      </trkpt>
      <trkpt lat="44.2358" lon="5.42485">
        <ele>988</ele>
        <time>2026-05-13T14:50:14.000Z</time>
      </trkpt>
      <trkpt lat="44.2358" lon="5.4249">
        <ele>988</ele>
        <time>2026-05-13T14:50:15.000Z</time>
      </trkpt>
      <trkpt lat="44.2358" lon="5.42496">
        <ele>988</ele>
        <time>2026-05-13T14:50:16.000Z</time>
      </trkpt>
      <trkpt lat="44.2358" lon="5.42501">
        <ele>987</ele>
        <time>2026-05-13T14:50:17.000Z</time>
      </trkpt>
      <trkpt lat="44.2358" lon="5.42507">
        <ele>986</ele>
        <time>2026-05-13T14:50:18.000Z</time>
      </trkpt>
      <trkpt lat="44.23579" lon="5.42513">
        <ele>986</ele>
        <time>2026-05-13T14:50:19.000Z</time>
      </trkpt>
      <trkpt lat="44.23579" lon="5.4252">
        <ele>985</ele>
        <time>2026-05-13T14:50:20.000Z</time>
      </trkpt>
      <trkpt lat="44.23578" lon="5.42527">
        <ele>986</ele>
        <time>2026-05-13T14:50:21.000Z</time>
      </trkpt>
      <trkpt lat="44.23576" lon="5.42534">
        <ele>986</ele>
        <time>2026-05-13T14:50:22.000Z</time>
      </trkpt>
      <trkpt lat="44.23575" lon="5.4254">
        <ele>985</ele>
        <time>2026-05-13T14:50:23.000Z</time>
      </trkpt>
      <trkpt lat="44.23574" lon="5.42548">
        <ele>984</ele>
        <time>2026-05-13T14:50:24.000Z</time>
      </trkpt>
      <trkpt lat="44.23573" lon="5.42557">
        <ele>983</ele>
        <time>2026-05-13T14:50:25.000Z</time>
      </trkpt>
      <trkpt lat="44.23572" lon="5.42565">
        <ele>983</ele>
        <time>2026-05-13T14:50:26.000Z</time>
      </trkpt>
      <trkpt lat="44.23571" lon="5.42573">
        <ele>982</ele>
        <time>2026-05-13T14:50:27.000Z</time>
      </trkpt>
      <trkpt lat="44.23569" lon="5.42581">
        <ele>982</ele>
        <time>2026-05-13T14:50:28.000Z</time>
      </trkpt>
      <trkpt lat="44.23565" lon="5.4259">
        <ele>981</ele>
        <time>2026-05-13T14:50:29.000Z</time>
      </trkpt>
      <trkpt lat="44.2356" lon="5.42597">
        <ele>981</ele>
        <time>2026-05-13T14:50:30.000Z</time>
      </trkpt>
      <trkpt lat="44.23557" lon="5.42605">
        <ele>981</ele>
        <time>2026-05-13T14:50:31.000Z</time>
      </trkpt>
      <trkpt lat="44.23552" lon="5.42614">
        <ele>981</ele>
        <time>2026-05-13T14:50:32.000Z</time>
      </trkpt>
      <trkpt lat="44.2355" lon="5.42622">
        <ele>980</ele>
        <time>2026-05-13T14:50:33.000Z</time>
      </trkpt>
      <trkpt lat="44.23549" lon="5.42628">
        <ele>980</ele>
        <time>2026-05-13T14:50:34.000Z</time>
      </trkpt>
      <trkpt lat="44.23549" lon="5.42634">
        <ele>979</ele>
        <time>2026-05-13T14:50:35.000Z</time>
      </trkpt>
      <trkpt lat="44.2355" lon="5.42639">
        <ele>979</ele>
        <time>2026-05-13T14:50:36.000Z</time>
      </trkpt>
      <trkpt lat="44.23551" lon="5.42645">
        <ele>979</ele>
        <time>2026-05-13T14:50:37.000Z</time>
      </trkpt>
      <trkpt lat="44.23552" lon="5.42652">
        <ele>979</ele>
        <time>2026-05-13T14:50:38.000Z</time>
      </trkpt>
      <trkpt lat="44.23553" lon="5.42657">
        <ele>978</ele>
        <time>2026-05-13T14:50:39.000Z</time>
      </trkpt>
      <trkpt lat="44.23553" lon="5.42661">
        <ele>978</ele>
        <time>2026-05-13T14:50:40.000Z</time>
      </trkpt>
      <trkpt lat="44.23555" lon="5.42665">
        <ele>977</ele>
        <time>2026-05-13T14:50:41.000Z</time>
      </trkpt>
      <trkpt lat="44.23556" lon="5.42668">
        <ele>977</ele>
        <time>2026-05-13T14:50:42.000Z</time>
      </trkpt>
      <trkpt lat="44.23557" lon="5.42671">
        <ele>977</ele>
        <time>2026-05-13T14:50:43.000Z</time>
      </trkpt>
      <trkpt lat="44.23557" lon="5.42674">
        <ele>977</ele>
        <time>2026-05-13T14:50:44.000Z</time>
      </trkpt>
      <trkpt lat="44.23557" lon="5.42675">
        <ele>977</ele>
        <time>2026-05-13T14:50:45.000Z</time>
      </trkpt>
      <trkpt lat="44.23556" lon="5.42676">
        <ele>977</ele>
        <time>2026-05-13T14:50:46.000Z</time>
      </trkpt>
      <trkpt lat="44.23556" lon="5.42678">
        <ele>977</ele>
        <time>2026-05-13T14:50:47.000Z</time>
      </trkpt>
      <trkpt lat="44.23557" lon="5.42678">
        <ele>978</ele>
        <time>2026-05-13T14:50:48.000Z</time>
      </trkpt>
      <trkpt lat="44.23557" lon="5.42679">
        <ele>977</ele>
        <time>2026-05-13T14:50:49.000Z</time>
      </trkpt>
      <trkpt lat="44.23556" lon="5.42679">
        <ele>977</ele>
        <time>2026-05-13T14:50:50.000Z</time>
      </trkpt>
      <trkpt lat="44.23555" lon="5.42679">
        <ele>978</ele>
        <time>2026-05-13T14:50:51.000Z</time>
      </trkpt>
      <trkpt lat="44.23555" lon="5.4268">
        <ele>977</ele>
        <time>2026-05-13T14:50:52.000Z</time>
      </trkpt>
      <trkpt lat="44.23555" lon="5.4268">
        <ele>977</ele>
        <time>2026-05-13T14:50:53.000Z</time>
      </trkpt>
      <trkpt lat="44.23555" lon="5.42679">
        <ele>977</ele>
        <time>2026-05-13T14:50:54.000Z</time>
      </trkpt>
      <trkpt lat="44.23555" lon="5.42679">
        <ele>977</ele>
        <time>2026-05-13T14:50:55.000Z</time>
      </trkpt>
      <trkpt lat="44.23555" lon="5.4268">
        <ele>977</ele>
        <time>2026-05-13T14:50:56.000Z</time>
      </trkpt>
      <trkpt lat="44.23555" lon="5.42679">
        <ele>977</ele>
        <time>2026-05-13T14:50:57.000Z</time>
      </trkpt>
      <trkpt lat="44.23555" lon="5.42679">
        <ele>977</ele>
        <time>2026-05-13T14:50:58.000Z</time>
      </trkpt>
      <trkpt lat="44.23555" lon="5.42679">
        <ele>977</ele>
        <time>2026-05-13T14:50:59.000Z</time>
      </trkpt>
      <trkpt lat="44.23555" lon="5.4268">
        <ele>977</ele>
        <time>2026-05-13T14:51:00.000Z</time>
      </trkpt>
      <trkpt lat="44.23554" lon="5.42679">
        <ele>977</ele>
        <time>2026-05-13T14:51:01.000Z</time>
      </trkpt>
      <trkpt lat="44.23553" lon="5.42678">
        <ele>978</ele>
        <time>2026-05-13T14:51:02.000Z</time>
      </trkpt>
      <trkpt lat="44.23552" lon="5.42678">
        <ele>977</ele>
        <time>2026-05-13T14:51:03.000Z</time>
      </trkpt>
      <trkpt lat="44.23552" lon="5.4268">
        <ele>977</ele>
        <time>2026-05-13T14:51:04.000Z</time>
      </trkpt>
      <trkpt lat="44.23552" lon="5.42683">
        <ele>977</ele>
        <time>2026-05-13T14:51:05.000Z</time>
      </trkpt>
      <trkpt lat="44.23552" lon="5.42684">
        <ele>977</ele>
        <time>2026-05-13T14:51:06.000Z</time>
      </trkpt>
      <trkpt lat="44.23553" lon="5.42685">
        <ele>976</ele>
        <time>2026-05-13T14:51:07.000Z</time>
      </trkpt>
      <trkpt lat="44.23553" lon="5.42686">
        <ele>976</ele>
        <time>2026-05-13T14:51:08.000Z</time>
      </trkpt>
      <trkpt lat="44.23552" lon="5.42687">
        <ele>977</ele>
        <time>2026-05-13T14:51:09.000Z</time>
      </trkpt>
      <trkpt lat="44.23553" lon="5.42686">
        <ele>977</ele>
        <time>2026-05-13T14:51:10.000Z</time>
      </trkpt>
      <trkpt lat="44.23554" lon="5.42685">
        <ele>977</ele>
        <time>2026-05-13T14:51:11.000Z</time>
      </trkpt>
      <trkpt lat="44.23554" lon="5.42685">
        <ele>977</ele>
        <time>2026-05-13T14:51:12.000Z</time>
      </trkpt>
      <trkpt lat="44.23554" lon="5.42685">
        <ele>977</ele>
        <time>2026-05-13T14:51:13.000Z</time>
      </trkpt>
      <trkpt lat="44.23554" lon="5.42685">
        <ele>977</ele>
        <time>2026-05-13T14:51:14.000Z</time>
      </trkpt>
      <trkpt lat="44.23553" lon="5.42684">
        <ele>977</ele>
        <time>2026-05-13T14:51:15.000Z</time>
      </trkpt>
      <trkpt lat="44.23552" lon="5.42683">
        <ele>977</ele>
        <time>2026-05-13T14:51:16.000Z</time>
      </trkpt>
      <trkpt lat="44.23553" lon="5.42683">
        <ele>977</ele>
        <time>2026-05-13T14:51:17.000Z</time>
      </trkpt>
      <trkpt lat="44.23554" lon="5.42682">
        <ele>977</ele>
        <time>2026-05-13T14:51:18.000Z</time>
      </trkpt>
      <trkpt lat="44.23555" lon="5.42682">
        <ele>977</ele>
        <time>2026-05-13T14:51:19.000Z</time>
      </trkpt>
      <trkpt lat="44.23556" lon="5.42682">
        <ele>977</ele>
        <time>2026-05-13T14:51:20.000Z</time>
      </trkpt>
      <trkpt lat="44.23556" lon="5.42684">
        <ele>977</ele>
        <time>2026-05-13T14:51:21.000Z</time>
      </trkpt>
      <trkpt lat="44.23557" lon="5.42685">
        <ele>977</ele>
        <time>2026-05-13T14:51:22.000Z</time>
      </trkpt>
      <trkpt lat="44.23556" lon="5.42686">
        <ele>977</ele>
        <time>2026-05-13T14:51:23.000Z</time>
      </trkpt>
      <trkpt lat="44.23556" lon="5.42688">
        <ele>977</ele>
        <time>2026-05-13T14:51:24.000Z</time>
      </trkpt>
      <trkpt lat="44.23556" lon="5.4269">
        <ele>976</ele>
        <time>2026-05-13T14:51:25.000Z</time>
      </trkpt>
      <trkpt lat="44.23556" lon="5.42691">
        <ele>976</ele>
        <time>2026-05-13T14:51:26.000Z</time>
      </trkpt>
      <trkpt lat="44.23556" lon="5.42693">
        <ele>976</ele>
        <time>2026-05-13T14:51:27.000Z</time>
      </trkpt>
      <trkpt lat="44.23556" lon="5.42697">
        <ele>975</ele>
        <time>2026-05-13T14:51:28.000Z</time>
      </trkpt>
      <trkpt lat="44.23555" lon="5.42701">
        <ele>975</ele>
        <time>2026-05-13T14:51:29.000Z</time>
      </trkpt>
      <trkpt lat="44.23554" lon="5.42706">
        <ele>975</ele>
        <time>2026-05-13T14:51:30.000Z</time>
      </trkpt>
      <trkpt lat="44.23554" lon="5.4271">
        <ele>975</ele>
        <time>2026-05-13T14:51:31.000Z</time>
      </trkpt>
      <trkpt lat="44.23553" lon="5.42714">
        <ele>974</ele>
        <time>2026-05-13T14:51:32.000Z</time>
      </trkpt>
      <trkpt lat="44.23551" lon="5.42718">
        <ele>974</ele>
        <time>2026-05-13T14:51:33.000Z</time>
      </trkpt>
      <trkpt lat="44.2355" lon="5.42722">
        <ele>974</ele>
        <time>2026-05-13T14:51:34.000Z</time>
      </trkpt>
      <trkpt lat="44.23548" lon="5.42725">
        <ele>974</ele>
        <time>2026-05-13T14:51:35.000Z</time>
      </trkpt>
      <trkpt lat="44.23546" lon="5.42728">
        <ele>974</ele>
        <time>2026-05-13T14:51:36.000Z</time>
      </trkpt>
      <trkpt lat="44.23544" lon="5.4273">
        <ele>974</ele>
        <time>2026-05-13T14:51:37.000Z</time>
      </trkpt>
      <trkpt lat="44.23542" lon="5.42731">
        <ele>974</ele>
        <time>2026-05-13T14:51:38.000Z</time>
      </trkpt>
      <trkpt lat="44.23539" lon="5.42732">
        <ele>974</ele>
        <time>2026-05-13T14:51:39.000Z</time>
      </trkpt>
      <trkpt lat="44.23536" lon="5.42736">
        <ele>973</ele>
        <time>2026-05-13T14:51:40.000Z</time>
      </trkpt>
      <trkpt lat="44.23533" lon="5.4274">
        <ele>972</ele>
        <time>2026-05-13T14:51:41.000Z</time>
      </trkpt>
      <trkpt lat="44.23531" lon="5.42745">
        <ele>971</ele>
        <time>2026-05-13T14:51:42.000Z</time>
      </trkpt>
      <trkpt lat="44.23529" lon="5.42751">
        <ele>970</ele>
        <time>2026-05-13T14:51:43.000Z</time>
      </trkpt>
      <trkpt lat="44.23527" lon="5.42757">
        <ele>970</ele>
        <time>2026-05-13T14:51:44.000Z</time>
      </trkpt>
      <trkpt lat="44.23525" lon="5.42763">
        <ele>969</ele>
        <time>2026-05-13T14:51:45.000Z</time>
      </trkpt>
      <trkpt lat="44.23522" lon="5.42768">
        <ele>968</ele>
        <time>2026-05-13T14:51:46.000Z</time>
      </trkpt>
      <trkpt lat="44.23518" lon="5.42773">
        <ele>967</ele>
        <time>2026-05-13T14:51:47.000Z</time>
      </trkpt>
      <trkpt lat="44.23514" lon="5.42777">
        <ele>966</ele>
        <time>2026-05-13T14:51:48.000Z</time>
      </trkpt>
      <trkpt lat="44.23511" lon="5.42779">
        <ele>965</ele>
        <time>2026-05-13T14:51:49.000Z</time>
      </trkpt>
      <trkpt lat="44.23508" lon="5.42783">
        <ele>965</ele>
        <time>2026-05-13T14:51:50.000Z</time>
      </trkpt>
      <trkpt lat="44.23504" lon="5.42787">
        <ele>964</ele>
        <time>2026-05-13T14:51:51.000Z</time>
      </trkpt>
      <trkpt lat="44.23504" lon="5.42794">
        <ele>963</ele>
        <time>2026-05-13T14:51:52.000Z</time>
      </trkpt>
      <trkpt lat="44.23506" lon="5.42799">
        <ele>963</ele>
        <time>2026-05-13T14:51:53.000Z</time>
      </trkpt>
      <trkpt lat="44.23509" lon="5.42802">
        <ele>962</ele>
        <time>2026-05-13T14:51:54.000Z</time>
      </trkpt>
      <trkpt lat="44.23513" lon="5.42805">
        <ele>961</ele>
        <time>2026-05-13T14:51:55.000Z</time>
      </trkpt>
      <trkpt lat="44.23517" lon="5.42807">
        <ele>960</ele>
        <time>2026-05-13T14:51:56.000Z</time>
      </trkpt>
      <trkpt lat="44.2352" lon="5.4281">
        <ele>960</ele>
        <time>2026-05-13T14:51:57.000Z</time>
      </trkpt>
      <trkpt lat="44.23522" lon="5.42813">
        <ele>959</ele>
        <time>2026-05-13T14:51:58.000Z</time>
      </trkpt>
      <trkpt lat="44.23525" lon="5.42815">
        <ele>959</ele>
        <time>2026-05-13T14:51:59.000Z</time>
      </trkpt>
      <trkpt lat="44.23529" lon="5.42818">
        <ele>958</ele>
        <time>2026-05-13T14:52:00.000Z</time>
      </trkpt>
      <trkpt lat="44.23532" lon="5.42822">
        <ele>957</ele>
        <time>2026-05-13T14:52:01.000Z</time>
      </trkpt>
      <trkpt lat="44.23535" lon="5.42827">
        <ele>956</ele>
        <time>2026-05-13T14:52:02.000Z</time>
      </trkpt>
      <trkpt lat="44.23538" lon="5.42831">
        <ele>955</ele>
        <time>2026-05-13T14:52:03.000Z</time>
      </trkpt>
      <trkpt lat="44.23539" lon="5.42837">
        <ele>955</ele>
        <time>2026-05-13T14:52:04.000Z</time>
      </trkpt>
      <trkpt lat="44.23538" lon="5.42842">
        <ele>954</ele>
        <time>2026-05-13T14:52:05.000Z</time>
      </trkpt>
      <trkpt lat="44.23534" lon="5.42846">
        <ele>953</ele>
        <time>2026-05-13T14:52:06.000Z</time>
      </trkpt>
      <trkpt lat="44.23529" lon="5.42849">
        <ele>952</ele>
        <time>2026-05-13T14:52:07.000Z</time>
      </trkpt>
      <trkpt lat="44.23525" lon="5.42852">
        <ele>951</ele>
        <time>2026-05-13T14:52:08.000Z</time>
      </trkpt>
      <trkpt lat="44.23523" lon="5.42856">
        <ele>950</ele>
        <time>2026-05-13T14:52:09.000Z</time>
      </trkpt>
      <trkpt lat="44.23522" lon="5.4286">
        <ele>949</ele>
        <time>2026-05-13T14:52:10.000Z</time>
      </trkpt>
      <trkpt lat="44.23519" lon="5.42866">
        <ele>947</ele>
        <time>2026-05-13T14:52:11.000Z</time>
      </trkpt>
      <trkpt lat="44.23518" lon="5.42873">
        <ele>945</ele>
        <time>2026-05-13T14:52:12.000Z</time>
      </trkpt>
      <trkpt lat="44.23516" lon="5.42879">
        <ele>944</ele>
        <time>2026-05-13T14:52:13.000Z</time>
      </trkpt>
      <trkpt lat="44.23513" lon="5.42885">
        <ele>943</ele>
        <time>2026-05-13T14:52:14.000Z</time>
      </trkpt>
      <trkpt lat="44.23509" lon="5.4289">
        <ele>941</ele>
        <time>2026-05-13T14:52:15.000Z</time>
      </trkpt>
      <trkpt lat="44.23504" lon="5.42896">
        <ele>939</ele>
        <time>2026-05-13T14:52:16.000Z</time>
      </trkpt>
      <trkpt lat="44.235" lon="5.42902">
        <ele>938</ele>
        <time>2026-05-13T14:52:17.000Z</time>
      </trkpt>
      <trkpt lat="44.23495" lon="5.42909">
        <ele>937</ele>
        <time>2026-05-13T14:52:18.000Z</time>
      </trkpt>
      <trkpt lat="44.23491" lon="5.42914">
        <ele>937</ele>
        <time>2026-05-13T14:52:19.000Z</time>
      </trkpt>
      <trkpt lat="44.23488" lon="5.4292">
        <ele>935</ele>
        <time>2026-05-13T14:52:20.000Z</time>
      </trkpt>
      <trkpt lat="44.23484" lon="5.42924">
        <ele>934</ele>
        <time>2026-05-13T14:52:21.000Z</time>
      </trkpt>
      <trkpt lat="44.23481" lon="5.42928">
        <ele>933</ele>
        <time>2026-05-13T14:52:22.000Z</time>
      </trkpt>
      <trkpt lat="44.23477" lon="5.42934">
        <ele>931</ele>
        <time>2026-05-13T14:52:23.000Z</time>
      </trkpt>
      <trkpt lat="44.23473" lon="5.4294">
        <ele>929</ele>
        <time>2026-05-13T14:52:24.000Z</time>
      </trkpt>
      <trkpt lat="44.2347" lon="5.42945">
        <ele>928</ele>
        <time>2026-05-13T14:52:25.000Z</time>
      </trkpt>
      <trkpt lat="44.23467" lon="5.42949">
        <ele>927</ele>
        <time>2026-05-13T14:52:26.000Z</time>
      </trkpt>
      <trkpt lat="44.23463" lon="5.42949">
        <ele>927</ele>
        <time>2026-05-13T14:52:27.000Z</time>
      </trkpt>
      <trkpt lat="44.2346" lon="5.42946">
        <ele>926</ele>
        <time>2026-05-13T14:52:28.000Z</time>
      </trkpt>
      <trkpt lat="44.23459" lon="5.42941">
        <ele>926</ele>
        <time>2026-05-13T14:52:29.000Z</time>
      </trkpt>
      <trkpt lat="44.23458" lon="5.42935">
        <ele>925</ele>
        <time>2026-05-13T14:52:30.000Z</time>
      </trkpt>
      <trkpt lat="44.23456" lon="5.42931">
        <ele>924</ele>
        <time>2026-05-13T14:52:31.000Z</time>
      </trkpt>
      <trkpt lat="44.23456" lon="5.42928">
        <ele>924</ele>
        <time>2026-05-13T14:52:32.000Z</time>
      </trkpt>
      <trkpt lat="44.23455" lon="5.42929">
        <ele>923</ele>
        <time>2026-05-13T14:52:33.000Z</time>
      </trkpt>
      <trkpt lat="44.23454" lon="5.42931">
        <ele>923</ele>
        <time>2026-05-13T14:52:34.000Z</time>
      </trkpt>
      <trkpt lat="44.23454" lon="5.42931">
        <ele>923</ele>
        <time>2026-05-13T14:52:35.000Z</time>
      </trkpt>
      <trkpt lat="44.23454" lon="5.42931">
        <ele>923</ele>
        <time>2026-05-13T14:52:36.000Z</time>
      </trkpt>
      <trkpt lat="44.23454" lon="5.42932">
        <ele>922</ele>
        <time>2026-05-13T14:52:37.000Z</time>
      </trkpt>
      <trkpt lat="44.23455" lon="5.42932">
        <ele>921</ele>
        <time>2026-05-13T14:52:38.000Z</time>
      </trkpt>
      <trkpt lat="44.23455" lon="5.42931">
        <ele>920</ele>
        <time>2026-05-13T14:52:39.000Z</time>
      </trkpt>
      <trkpt lat="44.23454" lon="5.42931">
        <ele>920</ele>
        <time>2026-05-13T14:52:40.000Z</time>
      </trkpt>
      <trkpt lat="44.23454" lon="5.42931">
        <ele>920</ele>
        <time>2026-05-13T14:52:41.000Z</time>
      </trkpt>
      <trkpt lat="44.23455" lon="5.42931">
        <ele>921</ele>
        <time>2026-05-13T14:52:42.000Z</time>
      </trkpt>
      <trkpt lat="44.23454" lon="5.4293">
        <ele>920</ele>
        <time>2026-05-13T14:52:43.000Z</time>
      </trkpt>
      <trkpt lat="44.23455" lon="5.42929">
        <ele>920</ele>
        <time>2026-05-13T14:52:44.000Z</time>
      </trkpt>
      <trkpt lat="44.23455" lon="5.42929">
        <ele>920</ele>
        <time>2026-05-13T14:52:45.000Z</time>
      </trkpt>
      <trkpt lat="44.23455" lon="5.42929">
        <ele>920</ele>
        <time>2026-05-13T14:52:46.000Z</time>
      </trkpt>
      <trkpt lat="44.23455" lon="5.42929">
        <ele>920</ele>
        <time>2026-05-13T14:52:47.000Z</time>
      </trkpt>
      <trkpt lat="44.23456" lon="5.42929">
        <ele>920</ele>
        <time>2026-05-13T14:52:48.000Z</time>
      </trkpt>
      <trkpt lat="44.23456" lon="5.42929">
        <ele>920</ele>
        <time>2026-05-13T14:52:49.000Z</time>
      </trkpt>
      <trkpt lat="44.23456" lon="5.42929">
        <ele>920</ele>
        <time>2026-05-13T14:52:50.000Z</time>
      </trkpt>
      <trkpt lat="44.23456" lon="5.42929">
        <ele>920</ele>
        <time>2026-05-13T14:52:51.000Z</time>
      </trkpt>
      <trkpt lat="44.23456" lon="5.42929">
        <ele>920</ele>
        <time>2026-05-13T14:52:52.000Z</time>
      </trkpt>
      <trkpt lat="44.23456" lon="5.42929">
        <ele>920</ele>
        <time>2026-05-13T14:52:53.000Z</time>
      </trkpt>
      <trkpt lat="44.23456" lon="5.42929">
        <ele>920</ele>
        <time>2026-05-13T14:52:54.000Z</time>
      </trkpt>
      <trkpt lat="44.23456" lon="5.4293">
        <ele>920</ele>
        <time>2026-05-13T14:52:55.000Z</time>
      </trkpt>
      <trkpt lat="44.23456" lon="5.4293">
        <ele>920</ele>
        <time>2026-05-13T14:52:56.000Z</time>
      </trkpt>
      <trkpt lat="44.23456" lon="5.42929">
        <ele>920</ele>
        <time>2026-05-13T14:52:57.000Z</time>
      </trkpt>
      <trkpt lat="44.23456" lon="5.42929">
        <ele>920</ele>
        <time>2026-05-13T14:52:58.000Z</time>
      </trkpt>
      <trkpt lat="44.23457" lon="5.42929">
        <ele>920</ele>
        <time>2026-05-13T14:52:59.000Z</time>
      </trkpt>
      <trkpt lat="44.23457" lon="5.42929">
        <ele>920</ele>
        <time>2026-05-13T14:53:00.000Z</time>
      </trkpt>
      <trkpt lat="44.23457" lon="5.42929">
        <ele>920</ele>
        <time>2026-05-13T14:53:01.000Z</time>
      </trkpt>
      <trkpt lat="44.23457" lon="5.42929">
        <ele>920</ele>
        <time>2026-05-13T14:53:02.000Z</time>
      </trkpt>
      <trkpt lat="44.23457" lon="5.42929">
        <ele>920</ele>
        <time>2026-05-13T14:53:03.000Z</time>
      </trkpt>
      <trkpt lat="44.23457" lon="5.42929">
        <ele>920</ele>
        <time>2026-05-13T14:53:04.000Z</time>
      </trkpt>
      <trkpt lat="44.23457" lon="5.42929">
        <ele>920</ele>
        <time>2026-05-13T14:53:05.000Z</time>
      </trkpt>
      <trkpt lat="44.23457" lon="5.42929">
        <ele>920</ele>
        <time>2026-05-13T14:53:06.000Z</time>
      </trkpt>
      <trkpt lat="44.23457" lon="5.42929">
        <ele>920</ele>
        <time>2026-05-13T14:53:07.000Z</time>
      </trkpt>
      <trkpt lat="44.23457" lon="5.42929">
        <ele>920</ele>
        <time>2026-05-13T14:53:08.000Z</time>
      </trkpt>
      <trkpt lat="44.23457" lon="5.42929">
        <ele>920</ele>
        <time>2026-05-13T14:53:09.000Z</time>
      </trkpt>
      <trkpt lat="44.23457" lon="5.42929">
        <ele>920</ele>
        <time>2026-05-13T14:53:10.000Z</time>
      </trkpt>
      <trkpt lat="44.23457" lon="5.42929">
        <ele>920</ele>
        <time>2026-05-13T14:53:11.000Z</time>
      </trkpt>
      <trkpt lat="44.23457" lon="5.42929">
        <ele>920</ele>
        <time>2026-05-13T14:53:12.000Z</time>
      </trkpt>
      <trkpt lat="44.23457" lon="5.42929">
        <ele>920</ele>
        <time>2026-05-13T14:53:13.000Z</time>
      </trkpt>
      <trkpt lat="44.23457" lon="5.42929">
        <ele>920</ele>
        <time>2026-05-13T14:53:14.000Z</time>
      </trkpt>
      <trkpt lat="44.23457" lon="5.42929">
        <ele>920</ele>
        <time>2026-05-13T14:53:15.000Z</time>
      </trkpt>
      <trkpt lat="44.23457" lon="5.42929">
        <ele>920</ele>
        <time>2026-05-13T14:53:16.000Z</time>
      </trkpt>
      <trkpt lat="44.23457" lon="5.42929">
        <ele>920</ele>
        <time>2026-05-13T14:53:17.000Z</time>
      </trkpt>
      <trkpt lat="44.23457" lon="5.42929">
        <ele>920</ele>
        <time>2026-05-13T14:53:18.000Z</time>
      </trkpt>
      <trkpt lat="44.23457" lon="5.42929">
        <ele>920</ele>
        <time>2026-05-13T14:53:19.000Z</time>
      </trkpt>
      <trkpt lat="44.23457" lon="5.42929">
        <ele>920</ele>
        <time>2026-05-13T14:53:20.000Z</time>
      </trkpt>
      <trkpt lat="44.23457" lon="5.42929">
        <ele>920</ele>
        <time>2026-05-13T14:53:21.000Z</time>
      </trkpt>
      <trkpt lat="44.23457" lon="5.42929">
        <ele>920</ele>
        <time>2026-05-13T14:53:22.000Z</time>
      </trkpt>
      <trkpt lat="44.23457" lon="5.42929">
        <ele>920</ele>
        <time>2026-05-13T14:53:23.000Z</time>
      </trkpt>
      <trkpt lat="44.23457" lon="5.42929">
        <ele>920</ele>
        <time>2026-05-13T14:53:24.000Z</time>
      </trkpt>
      <trkpt lat="44.23457" lon="5.42929">
        <ele>920</ele>
        <time>2026-05-13T14:53:25.000Z</time>
      </trkpt>
      <trkpt lat="44.23457" lon="5.42929">
        <ele>920</ele>
        <time>2026-05-13T14:53:26.000Z</time>
      </trkpt>
      <trkpt lat="44.23457" lon="5.42929">
        <ele>920</ele>
        <time>2026-05-13T14:53:27.000Z</time>
      </trkpt>
      <trkpt lat="44.23457" lon="5.42929">
        <ele>920</ele>
        <time>2026-05-13T14:53:28.000Z</time>
      </trkpt>
      <trkpt lat="44.23457" lon="5.42929">
        <ele>920</ele>
        <time>2026-05-13T14:53:29.000Z</time>
      </trkpt>
      <trkpt lat="44.23457" lon="5.42929">
        <ele>920</ele>
        <time>2026-05-13T14:53:30.000Z</time>
      </trkpt>
      <trkpt lat="44.23457" lon="5.42929">
        <ele>920</ele>
        <time>2026-05-13T14:53:31.000Z</time>
      </trkpt>
      <trkpt lat="44.23457" lon="5.42929">
        <ele>920</ele>
        <time>2026-05-13T14:53:32.000Z</time>
      </trkpt>
      <trkpt lat="44.23457" lon="5.42929">
        <ele>920</ele>
        <time>2026-05-13T14:53:33.000Z</time>
      </trkpt>
      <trkpt lat="44.23457" lon="5.42929">
        <ele>920</ele>
        <time>2026-05-13T14:53:34.000Z</time>
      </trkpt>
      <trkpt lat="44.23457" lon="5.42929">
        <ele>920</ele>
        <time>2026-05-13T14:53:35.000Z</time>
      </trkpt>
      <trkpt lat="44.23457" lon="5.42929">
        <ele>920</ele>
        <time>2026-05-13T14:53:36.000Z</time>
      </trkpt>
      <trkpt lat="44.23457" lon="5.42929">
        <ele>920</ele>
        <time>2026-05-13T14:53:37.000Z</time>
      </trkpt>
      <trkpt lat="44.23457" lon="5.42929">
        <ele>920</ele>
        <time>2026-05-13T14:53:38.000Z</time>
      </trkpt>
      <trkpt lat="44.23457" lon="5.42929">
        <ele>920</ele>
        <time>2026-05-13T14:53:39.000Z</time>
      </trkpt>
      <trkpt lat="44.23457" lon="5.42929">
        <ele>920</ele>
        <time>2026-05-13T14:53:40.000Z</time>
      </trkpt>
      <trkpt lat="44.23457" lon="5.42929">
        <ele>920</ele>
        <time>2026-05-13T14:53:41.000Z</time>
      </trkpt>
      <trkpt lat="44.23457" lon="5.42929">
        <ele>920</ele>
        <time>2026-05-13T14:53:42.000Z</time>
      </trkpt>
      <trkpt lat="44.23457" lon="5.42929">
        <ele>920</ele>
        <time>2026-05-13T14:53:43.000Z</time>
      </trkpt>
      <trkpt lat="44.23457" lon="5.42929">
        <ele>920</ele>
        <time>2026-05-13T14:53:44.000Z</time>
      </trkpt>
      <trkpt lat="44.23457" lon="5.42929">
        <ele>920</ele>
        <time>2026-05-13T14:53:45.000Z</time>
      </trkpt>
      <trkpt lat="44.23457" lon="5.42929">
        <ele>920</ele>
        <time>2026-05-13T14:53:46.000Z</time>
      </trkpt>
      <trkpt lat="44.23457" lon="5.42929">
        <ele>920</ele>
        <time>2026-05-13T14:53:47.000Z</time>
      </trkpt>
      <trkpt lat="44.23457" lon="5.42929">
        <ele>920</ele>
        <time>2026-05-13T14:53:48.000Z</time>
      </trkpt>
      <trkpt lat="44.23457" lon="5.42929">
        <ele>920</ele>
        <time>2026-05-13T14:53:49.000Z</time>
      </trkpt>
      <trkpt lat="44.23457" lon="5.42929">
        <ele>920</ele>
        <time>2026-05-13T14:53:50.000Z</time>
      </trkpt>
      <trkpt lat="44.23457" lon="5.42929">
        <ele>920</ele>
        <time>2026-05-13T14:53:51.000Z</time>
      </trkpt>
      <trkpt lat="44.23457" lon="5.42929">
        <ele>920</ele>
        <time>2026-05-13T14:53:52.000Z</time>
      </trkpt>
      <trkpt lat="44.23457" lon="5.42929">
        <ele>920</ele>
        <time>2026-05-13T14:53:53.000Z</time>
      </trkpt>
      <trkpt lat="44.23457" lon="5.42929">
        <ele>920</ele>
        <time>2026-05-13T14:53:54.000Z</time>
      </trkpt>
      <trkpt lat="44.23456" lon="5.4293">
        <ele>919</ele>
        <time>2026-05-13T14:53:55.000Z</time>
      </trkpt>
      <trkpt lat="44.23456" lon="5.4293">
        <ele>919</ele>
        <time>2026-05-13T14:53:56.000Z</time>
      </trkpt>
      <trkpt lat="44.23456" lon="5.4293">
        <ele>919</ele>
        <time>2026-05-13T14:53:57.000Z</time>
      </trkpt>
      <trkpt lat="44.23456" lon="5.4293">
        <ele>919</ele>
        <time>2026-05-13T14:53:58.000Z</time>
      </trkpt>
      <trkpt lat="44.23456" lon="5.4293">
        <ele>919</ele>
        <time>2026-05-13T14:53:59.000Z</time>
      </trkpt>
      <trkpt lat="44.23456" lon="5.4293">
        <ele>919</ele>
        <time>2026-05-13T14:54:00.000Z</time>
      </trkpt>
      <trkpt lat="44.23456" lon="5.4293">
        <ele>920</ele>
        <time>2026-05-13T14:54:01.000Z</time>
      </trkpt>
      <trkpt lat="44.23457" lon="5.4293">
        <ele>920</ele>
        <time>2026-05-13T14:54:02.000Z</time>
      </trkpt>
      <trkpt lat="44.23457" lon="5.4293">
        <ele>920</ele>
        <time>2026-05-13T14:54:03.000Z</time>
      </trkpt>
      <trkpt lat="44.23457" lon="5.4293">
        <ele>920</ele>
        <time>2026-05-13T14:54:04.000Z</time>
      </trkpt>
      <trkpt lat="44.23457" lon="5.4293">
        <ele>920</ele>
        <time>2026-05-13T14:54:05.000Z</time>
      </trkpt>
      <trkpt lat="44.23457" lon="5.4293">
        <ele>920</ele>
        <time>2026-05-13T14:54:06.000Z</time>
      </trkpt>
      <trkpt lat="44.23457" lon="5.4293">
        <ele>920</ele>
        <time>2026-05-13T14:54:07.000Z</time>
      </trkpt>
      <trkpt lat="44.23457" lon="5.4293">
        <ele>920</ele>
        <time>2026-05-13T14:54:08.000Z</time>
      </trkpt>
      <trkpt lat="44.23457" lon="5.4293">
        <ele>920</ele>
        <time>2026-05-13T14:54:09.000Z</time>
      </trkpt>
      <trkpt lat="44.23457" lon="5.4293">
        <ele>920</ele>
        <time>2026-05-13T14:54:10.000Z</time>
      </trkpt>
      <trkpt lat="44.23457" lon="5.4293">
        <ele>920</ele>
        <time>2026-05-13T14:54:11.000Z</time>
      </trkpt>
      <trkpt lat="44.23457" lon="5.4293">
        <ele>920</ele>
        <time>2026-05-13T14:54:12.000Z</time>
      </trkpt>
      <trkpt lat="44.23457" lon="5.4293">
        <ele>920</ele>
        <time>2026-05-13T14:54:13.000Z</time>
      </trkpt>
      <trkpt lat="44.23457" lon="5.4293">
        <ele>920</ele>
        <time>2026-05-13T14:54:14.000Z</time>
      </trkpt>
      <trkpt lat="44.23457" lon="5.4293">
        <ele>920</ele>
        <time>2026-05-13T14:54:15.000Z</time>
      </trkpt>
      <trkpt lat="44.23457" lon="5.4293">
        <ele>920</ele>
        <time>2026-05-13T14:54:16.000Z</time>
      </trkpt>
      <trkpt lat="44.23457" lon="5.4293">
        <ele>920</ele>
        <time>2026-05-13T14:54:17.000Z</time>
      </trkpt>
      <trkpt lat="44.23457" lon="5.4293">
        <ele>920</ele>
        <time>2026-05-13T14:54:18.000Z</time>
      </trkpt>
      <trkpt lat="44.23457" lon="5.4293">
        <ele>920</ele>
        <time>2026-05-13T14:54:19.000Z</time>
      </trkpt>
      <trkpt lat="44.23457" lon="5.4293">
        <ele>920</ele>
        <time>2026-05-13T14:54:20.000Z</time>
      </trkpt>
      <trkpt lat="44.23456" lon="5.42928">
        <ele>919</ele>
        <time>2026-05-13T14:54:21.000Z</time>
      </trkpt>
      <trkpt lat="44.23456" lon="5.42926">
        <ele>919</ele>
        <time>2026-05-13T14:54:22.000Z</time>
      </trkpt>
      <trkpt lat="44.23455" lon="5.42922">
        <ele>919</ele>
        <time>2026-05-13T14:54:23.000Z</time>
      </trkpt>
      <trkpt lat="44.23454" lon="5.42918">
        <ele>918</ele>
        <time>2026-05-13T14:54:24.000Z</time>
      </trkpt>
      <trkpt lat="44.23452" lon="5.42913">
        <ele>918</ele>
        <time>2026-05-13T14:54:25.000Z</time>
      </trkpt>
      <trkpt lat="44.2345" lon="5.42909">
        <ele>917</ele>
        <time>2026-05-13T14:54:26.000Z</time>
      </trkpt>
      <trkpt lat="44.23446" lon="5.42905">
        <ele>916</ele>
        <time>2026-05-13T14:54:27.000Z</time>
      </trkpt>
      <trkpt lat="44.23442" lon="5.42902">
        <ele>915</ele>
        <time>2026-05-13T14:54:28.000Z</time>
      </trkpt>
      <trkpt lat="44.23439" lon="5.42901">
        <ele>915</ele>
        <time>2026-05-13T14:54:29.000Z</time>
      </trkpt>
      <trkpt lat="44.23436" lon="5.42901">
        <ele>915</ele>
        <time>2026-05-13T14:54:30.000Z</time>
      </trkpt>
      <trkpt lat="44.23432" lon="5.42902">
        <ele>915</ele>
        <time>2026-05-13T14:54:31.000Z</time>
      </trkpt>
      <trkpt lat="44.23427" lon="5.42902">
        <ele>914</ele>
        <time>2026-05-13T14:54:32.000Z</time>
      </trkpt>
      <trkpt lat="44.23421" lon="5.42902">
        <ele>912</ele>
        <time>2026-05-13T14:54:33.000Z</time>
      </trkpt>
      <trkpt lat="44.23416" lon="5.42904">
        <ele>911</ele>
        <time>2026-05-13T14:54:34.000Z</time>
      </trkpt>
      <trkpt lat="44.2341" lon="5.42907">
        <ele>909</ele>
        <time>2026-05-13T14:54:35.000Z</time>
      </trkpt>
      <trkpt lat="44.23404" lon="5.42909">
        <ele>908</ele>
        <time>2026-05-13T14:54:36.000Z</time>
      </trkpt>
      <trkpt lat="44.23398" lon="5.42909">
        <ele>907</ele>
        <time>2026-05-13T14:54:37.000Z</time>
      </trkpt>
      <trkpt lat="44.23392" lon="5.42907">
        <ele>906</ele>
        <time>2026-05-13T14:54:38.000Z</time>
      </trkpt>
      <trkpt lat="44.23386" lon="5.42903">
        <ele>906</ele>
        <time>2026-05-13T14:54:39.000Z</time>
      </trkpt>
      <trkpt lat="44.23381" lon="5.42899">
        <ele>906</ele>
        <time>2026-05-13T14:54:40.000Z</time>
      </trkpt>
      <trkpt lat="44.23376" lon="5.42898">
        <ele>905</ele>
        <time>2026-05-13T14:54:41.000Z</time>
      </trkpt>
      <trkpt lat="44.23372" lon="5.42902">
        <ele>904</ele>
        <time>2026-05-13T14:54:42.000Z</time>
      </trkpt>
      <trkpt lat="44.2337" lon="5.42907">
        <ele>902</ele>
        <time>2026-05-13T14:54:43.000Z</time>
      </trkpt>
      <trkpt lat="44.23366" lon="5.42914">
        <ele>902</ele>
        <time>2026-05-13T14:54:44.000Z</time>
      </trkpt>
      <trkpt lat="44.23363" lon="5.42922">
        <ele>900</ele>
        <time>2026-05-13T14:54:45.000Z</time>
      </trkpt>
      <trkpt lat="44.2336" lon="5.42931">
        <ele>899</ele>
        <time>2026-05-13T14:54:46.000Z</time>
      </trkpt>
      <trkpt lat="44.23358" lon="5.42941">
        <ele>898</ele>
        <time>2026-05-13T14:54:47.000Z</time>
      </trkpt>
      <trkpt lat="44.23357" lon="5.42949">
        <ele>896</ele>
        <time>2026-05-13T14:54:48.000Z</time>
      </trkpt>
      <trkpt lat="44.23356" lon="5.42959">
        <ele>895</ele>
        <time>2026-05-13T14:54:49.000Z</time>
      </trkpt>
      <trkpt lat="44.23355" lon="5.42968">
        <ele>894</ele>
        <time>2026-05-13T14:54:50.000Z</time>
      </trkpt>
      <trkpt lat="44.23352" lon="5.42977">
        <ele>891</ele>
        <time>2026-05-13T14:54:51.000Z</time>
      </trkpt>
      <trkpt lat="44.23351" lon="5.42987">
        <ele>889</ele>
        <time>2026-05-13T14:54:52.000Z</time>
      </trkpt>
      <trkpt lat="44.2335" lon="5.42998">
        <ele>886</ele>
        <time>2026-05-13T14:54:53.000Z</time>
      </trkpt>
      <trkpt lat="44.2335" lon="5.4301">
        <ele>885</ele>
        <time>2026-05-13T14:54:54.000Z</time>
      </trkpt>
      <trkpt lat="44.2335" lon="5.4302">
        <ele>885</ele>
        <time>2026-05-13T14:54:55.000Z</time>
      </trkpt>
      <trkpt lat="44.23348" lon="5.43029">
        <ele>884</ele>
        <time>2026-05-13T14:54:56.000Z</time>
      </trkpt>
      <trkpt lat="44.23344" lon="5.43038">
        <ele>883</ele>
        <time>2026-05-13T14:54:57.000Z</time>
      </trkpt>
      <trkpt lat="44.2334" lon="5.43047">
        <ele>881</ele>
        <time>2026-05-13T14:54:58.000Z</time>
      </trkpt>
      <trkpt lat="44.23336" lon="5.43055">
        <ele>880</ele>
        <time>2026-05-13T14:54:59.000Z</time>
      </trkpt>
      <trkpt lat="44.23332" lon="5.43064">
        <ele>879</ele>
        <time>2026-05-13T14:55:00.000Z</time>
      </trkpt>
      <trkpt lat="44.23328" lon="5.43072">
        <ele>877</ele>
        <time>2026-05-13T14:55:01.000Z</time>
      </trkpt>
      <trkpt lat="44.23326" lon="5.4308">
        <ele>877</ele>
        <time>2026-05-13T14:55:02.000Z</time>
      </trkpt>
      <trkpt lat="44.23324" lon="5.43087">
        <ele>876</ele>
        <time>2026-05-13T14:55:03.000Z</time>
      </trkpt>
      <trkpt lat="44.23323" lon="5.43092">
        <ele>875</ele>
        <time>2026-05-13T14:55:04.000Z</time>
      </trkpt>
      <trkpt lat="44.23321" lon="5.43097">
        <ele>874</ele>
        <time>2026-05-13T14:55:05.000Z</time>
      </trkpt>
      <trkpt lat="44.23317" lon="5.431">
        <ele>872</ele>
        <time>2026-05-13T14:55:06.000Z</time>
      </trkpt>
      <trkpt lat="44.23312" lon="5.43101">
        <ele>871</ele>
        <time>2026-05-13T14:55:07.000Z</time>
      </trkpt>
      <trkpt lat="44.23307" lon="5.43104">
        <ele>870</ele>
        <time>2026-05-13T14:55:08.000Z</time>
      </trkpt>
      <trkpt lat="44.23302" lon="5.43107">
        <ele>869</ele>
        <time>2026-05-13T14:55:09.000Z</time>
      </trkpt>
      <trkpt lat="44.23298" lon="5.43112">
        <ele>868</ele>
        <time>2026-05-13T14:55:10.000Z</time>
      </trkpt>
      <trkpt lat="44.23295" lon="5.43118">
        <ele>868</ele>
        <time>2026-05-13T14:55:11.000Z</time>
      </trkpt>
      <trkpt lat="44.23292" lon="5.43124">
        <ele>868</ele>
        <time>2026-05-13T14:55:12.000Z</time>
      </trkpt>
      <trkpt lat="44.23287" lon="5.43127">
        <ele>869</ele>
        <time>2026-05-13T14:55:13.000Z</time>
      </trkpt>
      <trkpt lat="44.23282" lon="5.43128">
        <ele>869</ele>
        <time>2026-05-13T14:55:14.000Z</time>
      </trkpt>
      <trkpt lat="44.23278" lon="5.43128">
        <ele>869</ele>
        <time>2026-05-13T14:55:15.000Z</time>
      </trkpt>
      <trkpt lat="44.23274" lon="5.43128">
        <ele>868</ele>
        <time>2026-05-13T14:55:16.000Z</time>
      </trkpt>
      <trkpt lat="44.2327" lon="5.43127">
        <ele>868</ele>
        <time>2026-05-13T14:55:17.000Z</time>
      </trkpt>
      <trkpt lat="44.23266" lon="5.43126">
        <ele>869</ele>
        <time>2026-05-13T14:55:18.000Z</time>
      </trkpt>
      <trkpt lat="44.23262" lon="5.43125">
        <ele>868</ele>
        <time>2026-05-13T14:55:19.000Z</time>
      </trkpt>
      <trkpt lat="44.23259" lon="5.43123">
        <ele>868</ele>
        <time>2026-05-13T14:55:20.000Z</time>
      </trkpt>
      <trkpt lat="44.23256" lon="5.43121">
        <ele>868</ele>
        <time>2026-05-13T14:55:21.000Z</time>
      </trkpt>
      <trkpt lat="44.23252" lon="5.43118">
        <ele>868</ele>
        <time>2026-05-13T14:55:22.000Z</time>
      </trkpt>
      <trkpt lat="44.23249" lon="5.43115">
        <ele>868</ele>
        <time>2026-05-13T14:55:23.000Z</time>
      </trkpt>
      <trkpt lat="44.23246" lon="5.4311">
        <ele>868</ele>
        <time>2026-05-13T14:55:24.000Z</time>
      </trkpt>
      <trkpt lat="44.23243" lon="5.43105">
        <ele>867</ele>
        <time>2026-05-13T14:55:25.000Z</time>
      </trkpt>
      <trkpt lat="44.2324" lon="5.431">
        <ele>866</ele>
        <time>2026-05-13T14:55:26.000Z</time>
      </trkpt>
      <trkpt lat="44.23237" lon="5.43094">
        <ele>866</ele>
        <time>2026-05-13T14:55:27.000Z</time>
      </trkpt>
      <trkpt lat="44.23235" lon="5.43086">
        <ele>865</ele>
        <time>2026-05-13T14:55:28.000Z</time>
      </trkpt>
      <trkpt lat="44.23233" lon="5.43077">
        <ele>865</ele>
        <time>2026-05-13T14:55:29.000Z</time>
      </trkpt>
      <trkpt lat="44.23231" lon="5.43068">
        <ele>864</ele>
        <time>2026-05-13T14:55:30.000Z</time>
      </trkpt>
      <trkpt lat="44.23228" lon="5.4306">
        <ele>863</ele>
        <time>2026-05-13T14:55:31.000Z</time>
      </trkpt>
      <trkpt lat="44.23222" lon="5.43056">
        <ele>864</ele>
        <time>2026-05-13T14:55:32.000Z</time>
      </trkpt>
      <trkpt lat="44.23217" lon="5.43053">
        <ele>864</ele>
        <time>2026-05-13T14:55:33.000Z</time>
      </trkpt>
      <trkpt lat="44.23212" lon="5.4305">
        <ele>864</ele>
        <time>2026-05-13T14:55:34.000Z</time>
      </trkpt>
      <trkpt lat="44.23206" lon="5.43048">
        <ele>865</ele>
        <time>2026-05-13T14:55:35.000Z</time>
      </trkpt>
      <trkpt lat="44.23203" lon="5.43046">
        <ele>866</ele>
        <time>2026-05-13T14:55:36.000Z</time>
      </trkpt>
      <trkpt lat="44.232" lon="5.43044">
        <ele>865</ele>
        <time>2026-05-13T14:55:37.000Z</time>
      </trkpt>
      <trkpt lat="44.23198" lon="5.43041">
        <ele>866</ele>
        <time>2026-05-13T14:55:38.000Z</time>
      </trkpt>
      <trkpt lat="44.23195" lon="5.43038">
        <ele>866</ele>
        <time>2026-05-13T14:55:39.000Z</time>
      </trkpt>
      <trkpt lat="44.23193" lon="5.43035">
        <ele>866</ele>
        <time>2026-05-13T14:55:40.000Z</time>
      </trkpt>
      <trkpt lat="44.23192" lon="5.43033">
        <ele>866</ele>
        <time>2026-05-13T14:55:41.000Z</time>
      </trkpt>
      <trkpt lat="44.2319" lon="5.43029">
        <ele>866</ele>
        <time>2026-05-13T14:55:42.000Z</time>
      </trkpt>
      <trkpt lat="44.23189" lon="5.43026">
        <ele>867</ele>
        <time>2026-05-13T14:55:43.000Z</time>
      </trkpt>
      <trkpt lat="44.23188" lon="5.43024">
        <ele>867</ele>
        <time>2026-05-13T14:55:44.000Z</time>
      </trkpt>
      <trkpt lat="44.23187" lon="5.43021">
        <ele>867</ele>
        <time>2026-05-13T14:55:45.000Z</time>
      </trkpt>
      <trkpt lat="44.23186" lon="5.43019">
        <ele>867</ele>
        <time>2026-05-13T14:55:46.000Z</time>
      </trkpt>
      <trkpt lat="44.23185" lon="5.43016">
        <ele>867</ele>
        <time>2026-05-13T14:55:47.000Z</time>
      </trkpt>
      <trkpt lat="44.23184" lon="5.43014">
        <ele>867</ele>
        <time>2026-05-13T14:55:48.000Z</time>
      </trkpt>
      <trkpt lat="44.23183" lon="5.43011">
        <ele>867</ele>
        <time>2026-05-13T14:55:49.000Z</time>
      </trkpt>
      <trkpt lat="44.23182" lon="5.43009">
        <ele>867</ele>
        <time>2026-05-13T14:55:50.000Z</time>
      </trkpt>
      <trkpt lat="44.23181" lon="5.43006">
        <ele>868</ele>
        <time>2026-05-13T14:55:51.000Z</time>
      </trkpt>
      <trkpt lat="44.23181" lon="5.43004">
        <ele>868</ele>
        <time>2026-05-13T14:55:52.000Z</time>
      </trkpt>
      <trkpt lat="44.2318" lon="5.43001">
        <ele>868</ele>
        <time>2026-05-13T14:55:53.000Z</time>
      </trkpt>
      <trkpt lat="44.23179" lon="5.42998">
        <ele>868</ele>
        <time>2026-05-13T14:55:54.000Z</time>
      </trkpt>
      <trkpt lat="44.23179" lon="5.42995">
        <ele>869</ele>
        <time>2026-05-13T14:55:55.000Z</time>
      </trkpt>
      <trkpt lat="44.23179" lon="5.42993">
        <ele>869</ele>
        <time>2026-05-13T14:55:56.000Z</time>
      </trkpt>
      <trkpt lat="44.23178" lon="5.4299">
        <ele>869</ele>
        <time>2026-05-13T14:55:57.000Z</time>
      </trkpt>
      <trkpt lat="44.23178" lon="5.42987">
        <ele>869</ele>
        <time>2026-05-13T14:55:58.000Z</time>
      </trkpt>
      <trkpt lat="44.23178" lon="5.42985">
        <ele>869</ele>
        <time>2026-05-13T14:55:59.000Z</time>
      </trkpt>
      <trkpt lat="44.23178" lon="5.42982">
        <ele>870</ele>
        <time>2026-05-13T14:56:00.000Z</time>
      </trkpt>
      <trkpt lat="44.23178" lon="5.42981">
        <ele>870</ele>
        <time>2026-05-13T14:56:01.000Z</time>
      </trkpt>
      <trkpt lat="44.23178" lon="5.42978">
        <ele>870</ele>
        <time>2026-05-13T14:56:02.000Z</time>
      </trkpt>
      <trkpt lat="44.23179" lon="5.42976">
        <ele>870</ele>
        <time>2026-05-13T14:56:03.000Z</time>
      </trkpt>
      <trkpt lat="44.23179" lon="5.42973">
        <ele>870</ele>
        <time>2026-05-13T14:56:04.000Z</time>
      </trkpt>
      <trkpt lat="44.2318" lon="5.42971">
        <ele>871</ele>
        <time>2026-05-13T14:56:05.000Z</time>
      </trkpt>
      <trkpt lat="44.23181" lon="5.42969">
        <ele>871</ele>
        <time>2026-05-13T14:56:06.000Z</time>
      </trkpt>
      <trkpt lat="44.23181" lon="5.42968">
        <ele>871</ele>
        <time>2026-05-13T14:56:07.000Z</time>
      </trkpt>
      <trkpt lat="44.23182" lon="5.42966">
        <ele>871</ele>
        <time>2026-05-13T14:56:08.000Z</time>
      </trkpt>
      <trkpt lat="44.23183" lon="5.42964">
        <ele>871</ele>
        <time>2026-05-13T14:56:09.000Z</time>
      </trkpt>
      <trkpt lat="44.23184" lon="5.42962">
        <ele>871</ele>
        <time>2026-05-13T14:56:10.000Z</time>
      </trkpt>
      <trkpt lat="44.23184" lon="5.4296">
        <ele>871</ele>
        <time>2026-05-13T14:56:11.000Z</time>
      </trkpt>
      <trkpt lat="44.23185" lon="5.42959">
        <ele>872</ele>
        <time>2026-05-13T14:56:12.000Z</time>
      </trkpt>
      <trkpt lat="44.23186" lon="5.42957">
        <ele>872</ele>
        <time>2026-05-13T14:56:13.000Z</time>
      </trkpt>
      <trkpt lat="44.23186" lon="5.42955">
        <ele>872</ele>
        <time>2026-05-13T14:56:14.000Z</time>
      </trkpt>
      <trkpt lat="44.23187" lon="5.42953">
        <ele>872</ele>
        <time>2026-05-13T14:56:15.000Z</time>
      </trkpt>
      <trkpt lat="44.23188" lon="5.42951">
        <ele>873</ele>
        <time>2026-05-13T14:56:16.000Z</time>
      </trkpt>
      <trkpt lat="44.23188" lon="5.4295">
        <ele>873</ele>
        <time>2026-05-13T14:56:17.000Z</time>
      </trkpt>
      <trkpt lat="44.23188" lon="5.42948">
        <ele>873</ele>
        <time>2026-05-13T14:56:18.000Z</time>
      </trkpt>
      <trkpt lat="44.23188" lon="5.42946">
        <ele>873</ele>
        <time>2026-05-13T14:56:19.000Z</time>
      </trkpt>
      <trkpt lat="44.23189" lon="5.42944">
        <ele>873</ele>
        <time>2026-05-13T14:56:20.000Z</time>
      </trkpt>
      <trkpt lat="44.2319" lon="5.42943">
        <ele>873</ele>
        <time>2026-05-13T14:56:21.000Z</time>
      </trkpt>
      <trkpt lat="44.23191" lon="5.42941">
        <ele>873</ele>
        <time>2026-05-13T14:56:22.000Z</time>
      </trkpt>
      <trkpt lat="44.23193" lon="5.4294">
        <ele>873</ele>
        <time>2026-05-13T14:56:23.000Z</time>
      </trkpt>
      <trkpt lat="44.23193" lon="5.42938">
        <ele>873</ele>
        <time>2026-05-13T14:56:24.000Z</time>
      </trkpt>
      <trkpt lat="44.23194" lon="5.42936">
        <ele>873</ele>
        <time>2026-05-13T14:56:25.000Z</time>
      </trkpt>
      <trkpt lat="44.23195" lon="5.42935">
        <ele>874</ele>
        <time>2026-05-13T14:56:26.000Z</time>
      </trkpt>
      <trkpt lat="44.23197" lon="5.42934">
        <ele>874</ele>
        <time>2026-05-13T14:56:27.000Z</time>
      </trkpt>
      <trkpt lat="44.23198" lon="5.42933">
        <ele>874</ele>
        <time>2026-05-13T14:56:28.000Z</time>
      </trkpt>
      <trkpt lat="44.23199" lon="5.42931">
        <ele>874</ele>
        <time>2026-05-13T14:56:29.000Z</time>
      </trkpt>
      <trkpt lat="44.232" lon="5.42929">
        <ele>874</ele>
        <time>2026-05-13T14:56:30.000Z</time>
      </trkpt>
      <trkpt lat="44.23201" lon="5.42928">
        <ele>874</ele>
        <time>2026-05-13T14:56:31.000Z</time>
      </trkpt>
      <trkpt lat="44.23202" lon="5.42926">
        <ele>874</ele>
        <time>2026-05-13T14:56:32.000Z</time>
      </trkpt>
      <trkpt lat="44.23203" lon="5.42925">
        <ele>874</ele>
        <time>2026-05-13T14:56:33.000Z</time>
      </trkpt>
      <trkpt lat="44.23204" lon="5.42923">
        <ele>875</ele>
        <time>2026-05-13T14:56:34.000Z</time>
      </trkpt>
      <trkpt lat="44.23205" lon="5.42921">
        <ele>875</ele>
        <time>2026-05-13T14:56:35.000Z</time>
      </trkpt>
      <trkpt lat="44.23206" lon="5.42919">
        <ele>875</ele>
        <time>2026-05-13T14:56:36.000Z</time>
      </trkpt>
      <trkpt lat="44.23206" lon="5.42917">
        <ele>875</ele>
        <time>2026-05-13T14:56:37.000Z</time>
      </trkpt>
      <trkpt lat="44.23208" lon="5.42916">
        <ele>876</ele>
        <time>2026-05-13T14:56:38.000Z</time>
      </trkpt>
      <trkpt lat="44.23208" lon="5.42914">
        <ele>876</ele>
        <time>2026-05-13T14:56:39.000Z</time>
      </trkpt>
      <trkpt lat="44.23209" lon="5.42912">
        <ele>876</ele>
        <time>2026-05-13T14:56:40.000Z</time>
      </trkpt>
      <trkpt lat="44.2321" lon="5.4291">
        <ele>877</ele>
        <time>2026-05-13T14:56:41.000Z</time>
      </trkpt>
      <trkpt lat="44.23211" lon="5.42908">
        <ele>877</ele>
        <time>2026-05-13T14:56:42.000Z</time>
      </trkpt>
      <trkpt lat="44.23212" lon="5.42907">
        <ele>877</ele>
        <time>2026-05-13T14:56:43.000Z</time>
      </trkpt>
      <trkpt lat="44.23213" lon="5.42905">
        <ele>877</ele>
        <time>2026-05-13T14:56:44.000Z</time>
      </trkpt>
      <trkpt lat="44.23213" lon="5.42903">
        <ele>877</ele>
        <time>2026-05-13T14:56:45.000Z</time>
      </trkpt>
      <trkpt lat="44.23214" lon="5.42901">
        <ele>877</ele>
        <time>2026-05-13T14:56:46.000Z</time>
      </trkpt>
      <trkpt lat="44.23214" lon="5.42899">
        <ele>878</ele>
        <time>2026-05-13T14:56:47.000Z</time>
      </trkpt>
      <trkpt lat="44.23215" lon="5.42897">
        <ele>878</ele>
        <time>2026-05-13T14:56:48.000Z</time>
      </trkpt>
      <trkpt lat="44.23215" lon="5.42894">
        <ele>879</ele>
        <time>2026-05-13T14:56:49.000Z</time>
      </trkpt>
      <trkpt lat="44.23215" lon="5.42893">
        <ele>879</ele>
        <time>2026-05-13T14:56:50.000Z</time>
      </trkpt>
      <trkpt lat="44.23216" lon="5.4289">
        <ele>879</ele>
        <time>2026-05-13T14:56:51.000Z</time>
      </trkpt>
      <trkpt lat="44.23216" lon="5.42887">
        <ele>880</ele>
        <time>2026-05-13T14:56:52.000Z</time>
      </trkpt>
      <trkpt lat="44.23217" lon="5.42885">
        <ele>880</ele>
        <time>2026-05-13T14:56:53.000Z</time>
      </trkpt>
      <trkpt lat="44.23218" lon="5.42884">
        <ele>881</ele>
        <time>2026-05-13T14:56:54.000Z</time>
      </trkpt>
      <trkpt lat="44.23218" lon="5.42881">
        <ele>881</ele>
        <time>2026-05-13T14:56:55.000Z</time>
      </trkpt>
      <trkpt lat="44.23219" lon="5.42877">
        <ele>881</ele>
        <time>2026-05-13T14:56:56.000Z</time>
      </trkpt>
      <trkpt lat="44.23219" lon="5.42875">
        <ele>881</ele>
        <time>2026-05-13T14:56:57.000Z</time>
      </trkpt>
      <trkpt lat="44.2322" lon="5.42872">
        <ele>881</ele>
        <time>2026-05-13T14:56:58.000Z</time>
      </trkpt>
      <trkpt lat="44.23221" lon="5.42869">
        <ele>882</ele>
        <time>2026-05-13T14:56:59.000Z</time>
      </trkpt>
      <trkpt lat="44.23221" lon="5.42866">
        <ele>881</ele>
        <time>2026-05-13T14:57:00.000Z</time>
      </trkpt>
      <trkpt lat="44.23222" lon="5.42864">
        <ele>882</ele>
        <time>2026-05-13T14:57:01.000Z</time>
      </trkpt>
      <trkpt lat="44.23222" lon="5.42862">
        <ele>882</ele>
        <time>2026-05-13T14:57:02.000Z</time>
      </trkpt>
      <trkpt lat="44.23223" lon="5.4286">
        <ele>882</ele>
        <time>2026-05-13T14:57:03.000Z</time>
      </trkpt>
      <trkpt lat="44.23223" lon="5.42858">
        <ele>882</ele>
        <time>2026-05-13T14:57:04.000Z</time>
      </trkpt>
      <trkpt lat="44.23223" lon="5.42856">
        <ele>882</ele>
        <time>2026-05-13T14:57:05.000Z</time>
      </trkpt>
      <trkpt lat="44.23223" lon="5.42854">
        <ele>882</ele>
        <time>2026-05-13T14:57:06.000Z</time>
      </trkpt>
      <trkpt lat="44.23223" lon="5.42852">
        <ele>882</ele>
        <time>2026-05-13T14:57:07.000Z</time>
      </trkpt>
      <trkpt lat="44.23223" lon="5.4285">
        <ele>881</ele>
        <time>2026-05-13T14:57:08.000Z</time>
      </trkpt>
      <trkpt lat="44.23222" lon="5.42848">
        <ele>881</ele>
        <time>2026-05-13T14:57:09.000Z</time>
      </trkpt>
      <trkpt lat="44.23221" lon="5.42847">
        <ele>881</ele>
        <time>2026-05-13T14:57:10.000Z</time>
      </trkpt>
      <trkpt lat="44.2322" lon="5.42845">
        <ele>881</ele>
        <time>2026-05-13T14:57:11.000Z</time>
      </trkpt>
      <trkpt lat="44.23218" lon="5.42843">
        <ele>880</ele>
        <time>2026-05-13T14:57:12.000Z</time>
      </trkpt>
      <trkpt lat="44.23218" lon="5.42841">
        <ele>880</ele>
        <time>2026-05-13T14:57:13.000Z</time>
      </trkpt>
      <trkpt lat="44.23216" lon="5.42839">
        <ele>880</ele>
        <time>2026-05-13T14:57:14.000Z</time>
      </trkpt>
      <trkpt lat="44.23215" lon="5.42837">
        <ele>880</ele>
        <time>2026-05-13T14:57:15.000Z</time>
      </trkpt>
      <trkpt lat="44.23214" lon="5.42834">
        <ele>880</ele>
        <time>2026-05-13T14:57:16.000Z</time>
      </trkpt>
      <trkpt lat="44.23214" lon="5.42832">
        <ele>880</ele>
        <time>2026-05-13T14:57:17.000Z</time>
      </trkpt>
      <trkpt lat="44.23213" lon="5.4283">
        <ele>879</ele>
        <time>2026-05-13T14:57:18.000Z</time>
      </trkpt>
      <trkpt lat="44.23212" lon="5.42827">
        <ele>879</ele>
        <time>2026-05-13T14:57:19.000Z</time>
      </trkpt>
      <trkpt lat="44.23211" lon="5.42825">
        <ele>879</ele>
        <time>2026-05-13T14:57:20.000Z</time>
      </trkpt>
      <trkpt lat="44.23211" lon="5.42823">
        <ele>879</ele>
        <time>2026-05-13T14:57:21.000Z</time>
      </trkpt>
      <trkpt lat="44.2321" lon="5.42821">
        <ele>879</ele>
        <time>2026-05-13T14:57:22.000Z</time>
      </trkpt>
      <trkpt lat="44.23209" lon="5.42818">
        <ele>878</ele>
        <time>2026-05-13T14:57:23.000Z</time>
      </trkpt>
      <trkpt lat="44.23208" lon="5.42816">
        <ele>878</ele>
        <time>2026-05-13T14:57:24.000Z</time>
      </trkpt>
      <trkpt lat="44.23206" lon="5.42813">
        <ele>878</ele>
        <time>2026-05-13T14:57:25.000Z</time>
      </trkpt>
      <trkpt lat="44.23205" lon="5.4281">
        <ele>878</ele>
        <time>2026-05-13T14:57:26.000Z</time>
      </trkpt>
      <trkpt lat="44.23205" lon="5.42809">
        <ele>879</ele>
        <time>2026-05-13T14:57:27.000Z</time>
      </trkpt>
      <trkpt lat="44.23205" lon="5.42808">
        <ele>878</ele>
        <time>2026-05-13T14:57:28.000Z</time>
      </trkpt>
      <trkpt lat="44.23203" lon="5.42806">
        <ele>879</ele>
        <time>2026-05-13T14:57:29.000Z</time>
      </trkpt>
      <trkpt lat="44.23203" lon="5.42807">
        <ele>879</ele>
        <time>2026-05-13T14:57:30.000Z</time>
      </trkpt>
      <trkpt lat="44.23202" lon="5.42808">
        <ele>879</ele>
        <time>2026-05-13T14:57:31.000Z</time>
      </trkpt>
      <trkpt lat="44.23203" lon="5.4281">
        <ele>879</ele>
        <time>2026-05-13T14:57:32.000Z</time>
      </trkpt>
      <trkpt lat="44.23204" lon="5.42813">
        <ele>878</ele>
        <time>2026-05-13T14:57:33.000Z</time>
      </trkpt>
      <trkpt lat="44.23206" lon="5.42814">
        <ele>878</ele>
        <time>2026-05-13T14:57:34.000Z</time>
      </trkpt>
      <trkpt lat="44.23208" lon="5.42815">
        <ele>878</ele>
        <time>2026-05-13T14:57:35.000Z</time>
      </trkpt>
      <trkpt lat="44.2321" lon="5.42815">
        <ele>878</ele>
        <time>2026-05-13T14:57:36.000Z</time>
      </trkpt>
      <trkpt lat="44.23212" lon="5.42813">
        <ele>878</ele>
        <time>2026-05-13T14:57:37.000Z</time>
      </trkpt>
      <trkpt lat="44.23213" lon="5.42811">
        <ele>879</ele>
        <time>2026-05-13T14:57:38.000Z</time>
      </trkpt>
      <trkpt lat="44.23214" lon="5.42808">
        <ele>879</ele>
        <time>2026-05-13T14:57:39.000Z</time>
      </trkpt>
      <trkpt lat="44.23214" lon="5.42806">
        <ele>879</ele>
        <time>2026-05-13T14:57:40.000Z</time>
      </trkpt>
      <trkpt lat="44.23214" lon="5.42804">
        <ele>879</ele>
        <time>2026-05-13T14:57:41.000Z</time>
      </trkpt>
      <trkpt lat="44.23215" lon="5.42801">
        <ele>879</ele>
        <time>2026-05-13T14:57:42.000Z</time>
      </trkpt>
      <trkpt lat="44.23215" lon="5.42798">
        <ele>879</ele>
        <time>2026-05-13T14:57:43.000Z</time>
      </trkpt>
      <trkpt lat="44.23216" lon="5.42795">
        <ele>879</ele>
        <time>2026-05-13T14:57:44.000Z</time>
      </trkpt>
      <trkpt lat="44.23217" lon="5.42793">
        <ele>879</ele>
        <time>2026-05-13T14:57:45.000Z</time>
      </trkpt>
      <trkpt lat="44.23217" lon="5.4279">
        <ele>879</ele>
        <time>2026-05-13T14:57:46.000Z</time>
      </trkpt>
      <trkpt lat="44.23217" lon="5.42787">
        <ele>879</ele>
        <time>2026-05-13T14:57:47.000Z</time>
      </trkpt>
      <trkpt lat="44.23217" lon="5.42783">
        <ele>879</ele>
        <time>2026-05-13T14:57:48.000Z</time>
      </trkpt>
      <trkpt lat="44.23216" lon="5.4278">
        <ele>878</ele>
        <time>2026-05-13T14:57:49.000Z</time>
      </trkpt>
      <trkpt lat="44.23215" lon="5.42777">
        <ele>878</ele>
        <time>2026-05-13T14:57:50.000Z</time>
      </trkpt>
      <trkpt lat="44.23212" lon="5.42775">
        <ele>878</ele>
        <time>2026-05-13T14:57:51.000Z</time>
      </trkpt>
      <trkpt lat="44.23209" lon="5.42772">
        <ele>878</ele>
        <time>2026-05-13T14:57:52.000Z</time>
      </trkpt>
      <trkpt lat="44.23206" lon="5.42769">
        <ele>877</ele>
        <time>2026-05-13T14:57:53.000Z</time>
      </trkpt>
      <trkpt lat="44.23203" lon="5.42764">
        <ele>876</ele>
        <time>2026-05-13T14:57:54.000Z</time>
      </trkpt>
      <trkpt lat="44.23201" lon="5.42759">
        <ele>876</ele>
        <time>2026-05-13T14:57:55.000Z</time>
      </trkpt>
      <trkpt lat="44.23198" lon="5.42754">
        <ele>876</ele>
        <time>2026-05-13T14:57:56.000Z</time>
      </trkpt>
      <trkpt lat="44.23195" lon="5.42748">
        <ele>876</ele>
        <time>2026-05-13T14:57:57.000Z</time>
      </trkpt>
      <trkpt lat="44.23194" lon="5.42743">
        <ele>876</ele>
        <time>2026-05-13T14:57:58.000Z</time>
      </trkpt>
      <trkpt lat="44.23192" lon="5.4274">
        <ele>877</ele>
        <time>2026-05-13T14:57:59.000Z</time>
      </trkpt>
      <trkpt lat="44.2319" lon="5.42737">
        <ele>876</ele>
        <time>2026-05-13T14:58:00.000Z</time>
      </trkpt>
      <trkpt lat="44.23188" lon="5.42735">
        <ele>876</ele>
        <time>2026-05-13T14:58:01.000Z</time>
      </trkpt>
      <trkpt lat="44.23188" lon="5.42732">
        <ele>876</ele>
        <time>2026-05-13T14:58:02.000Z</time>
      </trkpt>
      <trkpt lat="44.23188" lon="5.4273">
        <ele>876</ele>
        <time>2026-05-13T14:58:03.000Z</time>
      </trkpt>
      <trkpt lat="44.23187" lon="5.42728">
        <ele>876</ele>
        <time>2026-05-13T14:58:04.000Z</time>
      </trkpt>
      <trkpt lat="44.23186" lon="5.42728">
        <ele>876</ele>
        <time>2026-05-13T14:58:05.000Z</time>
      </trkpt>
      <trkpt lat="44.23185" lon="5.42729">
        <ele>876</ele>
        <time>2026-05-13T14:58:06.000Z</time>
      </trkpt>
      <trkpt lat="44.23185" lon="5.42732">
        <ele>875</ele>
        <time>2026-05-13T14:58:07.000Z</time>
      </trkpt>
      <trkpt lat="44.23186" lon="5.42735">
        <ele>875</ele>
        <time>2026-05-13T14:58:08.000Z</time>
      </trkpt>
      <trkpt lat="44.23188" lon="5.42737">
        <ele>876</ele>
        <time>2026-05-13T14:58:09.000Z</time>
      </trkpt>
      <trkpt lat="44.23189" lon="5.42738">
        <ele>876</ele>
        <time>2026-05-13T14:58:10.000Z</time>
      </trkpt>
      <trkpt lat="44.23191" lon="5.4274">
        <ele>876</ele>
        <time>2026-05-13T14:58:11.000Z</time>
      </trkpt>
      <trkpt lat="44.23193" lon="5.42742">
        <ele>876</ele>
        <time>2026-05-13T14:58:12.000Z</time>
      </trkpt>
      <trkpt lat="44.23194" lon="5.42744">
        <ele>876</ele>
        <time>2026-05-13T14:58:13.000Z</time>
      </trkpt>
      <trkpt lat="44.23196" lon="5.42747">
        <ele>876</ele>
        <time>2026-05-13T14:58:14.000Z</time>
      </trkpt>
      <trkpt lat="44.23197" lon="5.42751">
        <ele>876</ele>
        <time>2026-05-13T14:58:15.000Z</time>
      </trkpt>
      <trkpt lat="44.23199" lon="5.42755">
        <ele>876</ele>
        <time>2026-05-13T14:58:16.000Z</time>
      </trkpt>
      <trkpt lat="44.232" lon="5.42758">
        <ele>876</ele>
        <time>2026-05-13T14:58:17.000Z</time>
      </trkpt>
      <trkpt lat="44.23202" lon="5.4276">
        <ele>876</ele>
        <time>2026-05-13T14:58:18.000Z</time>
      </trkpt>
      <trkpt lat="44.23203" lon="5.42763">
        <ele>876</ele>
        <time>2026-05-13T14:58:19.000Z</time>
      </trkpt>
      <trkpt lat="44.23205" lon="5.42765">
        <ele>876</ele>
        <time>2026-05-13T14:58:20.000Z</time>
      </trkpt>
      <trkpt lat="44.23206" lon="5.42768">
        <ele>876</ele>
        <time>2026-05-13T14:58:21.000Z</time>
      </trkpt>
      <trkpt lat="44.23208" lon="5.42771">
        <ele>877</ele>
        <time>2026-05-13T14:58:22.000Z</time>
      </trkpt>
      <trkpt lat="44.23209" lon="5.42774">
        <ele>877</ele>
        <time>2026-05-13T14:58:23.000Z</time>
      </trkpt>
      <trkpt lat="44.23212" lon="5.42775">
        <ele>877</ele>
        <time>2026-05-13T14:58:24.000Z</time>
      </trkpt>
      <trkpt lat="44.23213" lon="5.42776">
        <ele>878</ele>
        <time>2026-05-13T14:58:25.000Z</time>
      </trkpt>
      <trkpt lat="44.23215" lon="5.42778">
        <ele>878</ele>
        <time>2026-05-13T14:58:26.000Z</time>
      </trkpt>
      <trkpt lat="44.23216" lon="5.42781">
        <ele>878</ele>
        <time>2026-05-13T14:58:27.000Z</time>
      </trkpt>
      <trkpt lat="44.23217" lon="5.42785">
        <ele>878</ele>
        <time>2026-05-13T14:58:28.000Z</time>
      </trkpt>
      <trkpt lat="44.23218" lon="5.42788">
        <ele>878</ele>
        <time>2026-05-13T14:58:29.000Z</time>
      </trkpt>
      <trkpt lat="44.23217" lon="5.42791">
        <ele>879</ele>
        <time>2026-05-13T14:58:30.000Z</time>
      </trkpt>
      <trkpt lat="44.23216" lon="5.42795">
        <ele>879</ele>
        <time>2026-05-13T14:58:31.000Z</time>
      </trkpt>
      <trkpt lat="44.23215" lon="5.42799">
        <ele>879</ele>
        <time>2026-05-13T14:58:32.000Z</time>
      </trkpt>
      <trkpt lat="44.23215" lon="5.42803">
        <ele>879</ele>
        <time>2026-05-13T14:58:33.000Z</time>
      </trkpt>
      <trkpt lat="44.23214" lon="5.42807">
        <ele>879</ele>
        <time>2026-05-13T14:58:34.000Z</time>
      </trkpt>
      <trkpt lat="44.23213" lon="5.42811">
        <ele>879</ele>
        <time>2026-05-13T14:58:35.000Z</time>
      </trkpt>
      <trkpt lat="44.23211" lon="5.42813">
        <ele>880</ele>
        <time>2026-05-13T14:58:36.000Z</time>
      </trkpt>
      <trkpt lat="44.23208" lon="5.42813">
        <ele>880</ele>
        <time>2026-05-13T14:58:37.000Z</time>
      </trkpt>
      <trkpt lat="44.23205" lon="5.42811">
        <ele>880</ele>
        <time>2026-05-13T14:58:38.000Z</time>
      </trkpt>
      <trkpt lat="44.23203" lon="5.42808">
        <ele>879</ele>
        <time>2026-05-13T14:58:39.000Z</time>
      </trkpt>
      <trkpt lat="44.23202" lon="5.42804">
        <ele>879</ele>
        <time>2026-05-13T14:58:40.000Z</time>
      </trkpt>
      <trkpt lat="44.232" lon="5.428">
        <ele>879</ele>
        <time>2026-05-13T14:58:41.000Z</time>
      </trkpt>
      <trkpt lat="44.23198" lon="5.42798">
        <ele>879</ele>
        <time>2026-05-13T14:58:42.000Z</time>
      </trkpt>
      <trkpt lat="44.23196" lon="5.42795">
        <ele>879</ele>
        <time>2026-05-13T14:58:43.000Z</time>
      </trkpt>
      <trkpt lat="44.23193" lon="5.42792">
        <ele>879</ele>
        <time>2026-05-13T14:58:44.000Z</time>
      </trkpt>
      <trkpt lat="44.2319" lon="5.42791">
        <ele>878</ele>
        <time>2026-05-13T14:58:45.000Z</time>
      </trkpt>
      <trkpt lat="44.23187" lon="5.4279">
        <ele>878</ele>
        <time>2026-05-13T14:58:46.000Z</time>
      </trkpt>
      <trkpt lat="44.23184" lon="5.4279">
        <ele>878</ele>
        <time>2026-05-13T14:58:47.000Z</time>
      </trkpt>
      <trkpt lat="44.23181" lon="5.4279">
        <ele>878</ele>
        <time>2026-05-13T14:58:48.000Z</time>
      </trkpt>
      <trkpt lat="44.23177" lon="5.4279">
        <ele>878</ele>
        <time>2026-05-13T14:58:49.000Z</time>
      </trkpt>
      <trkpt lat="44.23174" lon="5.42791">
        <ele>878</ele>
        <time>2026-05-13T14:58:50.000Z</time>
      </trkpt>
      <trkpt lat="44.23171" lon="5.42791">
        <ele>878</ele>
        <time>2026-05-13T14:58:51.000Z</time>
      </trkpt>
      <trkpt lat="44.23169" lon="5.4279">
        <ele>878</ele>
        <time>2026-05-13T14:58:52.000Z</time>
      </trkpt>
      <trkpt lat="44.23166" lon="5.4279">
        <ele>878</ele>
        <time>2026-05-13T14:58:53.000Z</time>
      </trkpt>
      <trkpt lat="44.23163" lon="5.42788">
        <ele>878</ele>
        <time>2026-05-13T14:58:54.000Z</time>
      </trkpt>
      <trkpt lat="44.23161" lon="5.42786">
        <ele>878</ele>
        <time>2026-05-13T14:58:55.000Z</time>
      </trkpt>
      <trkpt lat="44.23158" lon="5.42783">
        <ele>878</ele>
        <time>2026-05-13T14:58:56.000Z</time>
      </trkpt>
      <trkpt lat="44.23155" lon="5.4278">
        <ele>877</ele>
        <time>2026-05-13T14:58:57.000Z</time>
      </trkpt>
      <trkpt lat="44.23152" lon="5.42777">
        <ele>876</ele>
        <time>2026-05-13T14:58:58.000Z</time>
      </trkpt>
      <trkpt lat="44.23148" lon="5.42772">
        <ele>876</ele>
        <time>2026-05-13T14:58:59.000Z</time>
      </trkpt>
      <trkpt lat="44.23145" lon="5.42767">
        <ele>875</ele>
        <time>2026-05-13T14:59:00.000Z</time>
      </trkpt>
      <trkpt lat="44.2314" lon="5.42761">
        <ele>875</ele>
        <time>2026-05-13T14:59:01.000Z</time>
      </trkpt>
      <trkpt lat="44.23138" lon="5.42753">
        <ele>876</ele>
        <time>2026-05-13T14:59:02.000Z</time>
      </trkpt>
      <trkpt lat="44.23138" lon="5.42746">
        <ele>875</ele>
        <time>2026-05-13T14:59:03.000Z</time>
      </trkpt>
      <trkpt lat="44.2314" lon="5.42739">
        <ele>875</ele>
        <time>2026-05-13T14:59:04.000Z</time>
      </trkpt>
      <trkpt lat="44.23143" lon="5.42734">
        <ele>874</ele>
        <time>2026-05-13T14:59:05.000Z</time>
      </trkpt>
      <trkpt lat="44.23146" lon="5.42729">
        <ele>874</ele>
        <time>2026-05-13T14:59:06.000Z</time>
      </trkpt>
      <trkpt lat="44.23149" lon="5.42724">
        <ele>874</ele>
        <time>2026-05-13T14:59:07.000Z</time>
      </trkpt>
      <trkpt lat="44.23151" lon="5.42717">
        <ele>873</ele>
        <time>2026-05-13T14:59:08.000Z</time>
      </trkpt>
      <trkpt lat="44.23151" lon="5.42709">
        <ele>873</ele>
        <time>2026-05-13T14:59:09.000Z</time>
      </trkpt>
      <trkpt lat="44.2315" lon="5.42702">
        <ele>872</ele>
        <time>2026-05-13T14:59:10.000Z</time>
      </trkpt>
      <trkpt lat="44.23148" lon="5.42696">
        <ele>872</ele>
        <time>2026-05-13T14:59:11.000Z</time>
      </trkpt>
      <trkpt lat="44.23146" lon="5.4269">
        <ele>872</ele>
        <time>2026-05-13T14:59:12.000Z</time>
      </trkpt>
      <trkpt lat="44.23143" lon="5.42685">
        <ele>871</ele>
        <time>2026-05-13T14:59:13.000Z</time>
      </trkpt>
      <trkpt lat="44.23141" lon="5.4268">
        <ele>871</ele>
        <time>2026-05-13T14:59:14.000Z</time>
      </trkpt>
      <trkpt lat="44.23139" lon="5.42674">
        <ele>870</ele>
        <time>2026-05-13T14:59:15.000Z</time>
      </trkpt>
      <trkpt lat="44.23136" lon="5.42668">
        <ele>870</ele>
        <time>2026-05-13T14:59:16.000Z</time>
      </trkpt>
      <trkpt lat="44.23133" lon="5.42662">
        <ele>869</ele>
        <time>2026-05-13T14:59:17.000Z</time>
      </trkpt>
      <trkpt lat="44.2313" lon="5.42656">
        <ele>869</ele>
        <time>2026-05-13T14:59:18.000Z</time>
      </trkpt>
      <trkpt lat="44.23127" lon="5.42649">
        <ele>869</ele>
        <time>2026-05-13T14:59:19.000Z</time>
      </trkpt>
      <trkpt lat="44.23123" lon="5.42643">
        <ele>869</ele>
        <time>2026-05-13T14:59:20.000Z</time>
      </trkpt>
      <trkpt lat="44.23119" lon="5.42639">
        <ele>868</ele>
        <time>2026-05-13T14:59:21.000Z</time>
      </trkpt>
      <trkpt lat="44.23115" lon="5.42634">
        <ele>869</ele>
        <time>2026-05-13T14:59:22.000Z</time>
      </trkpt>
      <trkpt lat="44.23111" lon="5.4263">
        <ele>869</ele>
        <time>2026-05-13T14:59:23.000Z</time>
      </trkpt>
      <trkpt lat="44.23108" lon="5.42626">
        <ele>869</ele>
        <time>2026-05-13T14:59:24.000Z</time>
      </trkpt>
      <trkpt lat="44.23106" lon="5.42621">
        <ele>868</ele>
        <time>2026-05-13T14:59:25.000Z</time>
      </trkpt>
      <trkpt lat="44.23104" lon="5.42617">
        <ele>868</ele>
        <time>2026-05-13T14:59:26.000Z</time>
      </trkpt>
      <trkpt lat="44.23103" lon="5.42613">
        <ele>868</ele>
        <time>2026-05-13T14:59:27.000Z</time>
      </trkpt>
      <trkpt lat="44.23101" lon="5.4261">
        <ele>868</ele>
        <time>2026-05-13T14:59:28.000Z</time>
      </trkpt>
      <trkpt lat="44.231" lon="5.42607">
        <ele>868</ele>
        <time>2026-05-13T14:59:29.000Z</time>
      </trkpt>
      <trkpt lat="44.23098" lon="5.42605">
        <ele>868</ele>
        <time>2026-05-13T14:59:30.000Z</time>
      </trkpt>
      <trkpt lat="44.23096" lon="5.42601">
        <ele>869</ele>
        <time>2026-05-13T14:59:31.000Z</time>
      </trkpt>
      <trkpt lat="44.23095" lon="5.42599">
        <ele>869</ele>
        <time>2026-05-13T14:59:32.000Z</time>
      </trkpt>
      <trkpt lat="44.23093" lon="5.42595">
        <ele>869</ele>
        <time>2026-05-13T14:59:33.000Z</time>
      </trkpt>
      <trkpt lat="44.23092" lon="5.42592">
        <ele>869</ele>
        <time>2026-05-13T14:59:34.000Z</time>
      </trkpt>
      <trkpt lat="44.23091" lon="5.42589">
        <ele>868</ele>
        <time>2026-05-13T14:59:35.000Z</time>
      </trkpt>
      <trkpt lat="44.23089" lon="5.42587">
        <ele>868</ele>
        <time>2026-05-13T14:59:36.000Z</time>
      </trkpt>
      <trkpt lat="44.23088" lon="5.42585">
        <ele>869</ele>
        <time>2026-05-13T14:59:37.000Z</time>
      </trkpt>
      <trkpt lat="44.23087" lon="5.42582">
        <ele>869</ele>
        <time>2026-05-13T14:59:38.000Z</time>
      </trkpt>
      <trkpt lat="44.23086" lon="5.4258">
        <ele>869</ele>
        <time>2026-05-13T14:59:39.000Z</time>
      </trkpt>
      <trkpt lat="44.23085" lon="5.42578">
        <ele>869</ele>
        <time>2026-05-13T14:59:40.000Z</time>
      </trkpt>
      <trkpt lat="44.23085" lon="5.42576">
        <ele>869</ele>
        <time>2026-05-13T14:59:41.000Z</time>
      </trkpt>
      <trkpt lat="44.23084" lon="5.42575">
        <ele>869</ele>
        <time>2026-05-13T14:59:42.000Z</time>
      </trkpt>
      <trkpt lat="44.23083" lon="5.42573">
        <ele>870</ele>
        <time>2026-05-13T14:59:43.000Z</time>
      </trkpt>
      <trkpt lat="44.23081" lon="5.42572">
        <ele>870</ele>
        <time>2026-05-13T14:59:44.000Z</time>
      </trkpt>
      <trkpt lat="44.2308" lon="5.42571">
        <ele>871</ele>
        <time>2026-05-13T14:59:45.000Z</time>
      </trkpt>
      <trkpt lat="44.23079" lon="5.42569">
        <ele>871</ele>
        <time>2026-05-13T14:59:46.000Z</time>
      </trkpt>
      <trkpt lat="44.23077" lon="5.42568">
        <ele>871</ele>
        <time>2026-05-13T14:59:47.000Z</time>
      </trkpt>
      <trkpt lat="44.23076" lon="5.42568">
        <ele>872</ele>
        <time>2026-05-13T14:59:48.000Z</time>
      </trkpt>
      <trkpt lat="44.23075" lon="5.42567">
        <ele>872</ele>
        <time>2026-05-13T14:59:49.000Z</time>
      </trkpt>
      <trkpt lat="44.23073" lon="5.42567">
        <ele>872</ele>
        <time>2026-05-13T14:59:50.000Z</time>
      </trkpt>
      <trkpt lat="44.23072" lon="5.42567">
        <ele>872</ele>
        <time>2026-05-13T14:59:51.000Z</time>
      </trkpt>
      <trkpt lat="44.2307" lon="5.42568">
        <ele>872</ele>
        <time>2026-05-13T14:59:52.000Z</time>
      </trkpt>
      <trkpt lat="44.23069" lon="5.42568">
        <ele>873</ele>
        <time>2026-05-13T14:59:53.000Z</time>
      </trkpt>
      <trkpt lat="44.23068" lon="5.42568">
        <ele>873</ele>
        <time>2026-05-13T14:59:54.000Z</time>
      </trkpt>
      <trkpt lat="44.23066" lon="5.42568">
        <ele>874</ele>
        <time>2026-05-13T14:59:55.000Z</time>
      </trkpt>
      <trkpt lat="44.23065" lon="5.42569">
        <ele>874</ele>
        <time>2026-05-13T14:59:56.000Z</time>
      </trkpt>
      <trkpt lat="44.23064" lon="5.4257">
        <ele>873</ele>
        <time>2026-05-13T14:59:57.000Z</time>
      </trkpt>
      <trkpt lat="44.23062" lon="5.4257">
        <ele>874</ele>
        <time>2026-05-13T14:59:58.000Z</time>
      </trkpt>
      <trkpt lat="44.2306" lon="5.42571">
        <ele>874</ele>
        <time>2026-05-13T14:59:59.000Z</time>
      </trkpt>
      <trkpt lat="44.23059" lon="5.42572">
        <ele>874</ele>
        <time>2026-05-13T15:00:00.000Z</time>
      </trkpt>
      <trkpt lat="44.23057" lon="5.42572">
        <ele>874</ele>
        <time>2026-05-13T15:00:01.000Z</time>
      </trkpt>
      <trkpt lat="44.23056" lon="5.42572">
        <ele>874</ele>
        <time>2026-05-13T15:00:02.000Z</time>
      </trkpt>
      <trkpt lat="44.23055" lon="5.42573">
        <ele>874</ele>
        <time>2026-05-13T15:00:03.000Z</time>
      </trkpt>
      <trkpt lat="44.23054" lon="5.42574">
        <ele>874</ele>
        <time>2026-05-13T15:00:04.000Z</time>
      </trkpt>
      <trkpt lat="44.23053" lon="5.42574">
        <ele>874</ele>
        <time>2026-05-13T15:00:05.000Z</time>
      </trkpt>
      <trkpt lat="44.23052" lon="5.42574">
        <ele>874</ele>
        <time>2026-05-13T15:00:06.000Z</time>
      </trkpt>
      <trkpt lat="44.23051" lon="5.42574">
        <ele>874</ele>
        <time>2026-05-13T15:00:07.000Z</time>
      </trkpt>
      <trkpt lat="44.23049" lon="5.42574">
        <ele>874</ele>
        <time>2026-05-13T15:00:08.000Z</time>
      </trkpt>
      <trkpt lat="44.23048" lon="5.42574">
        <ele>874</ele>
        <time>2026-05-13T15:00:09.000Z</time>
      </trkpt>
      <trkpt lat="44.23047" lon="5.42574">
        <ele>874</ele>
        <time>2026-05-13T15:00:10.000Z</time>
      </trkpt>
      <trkpt lat="44.23045" lon="5.42574">
        <ele>875</ele>
        <time>2026-05-13T15:00:11.000Z</time>
      </trkpt>
      <trkpt lat="44.23044" lon="5.42574">
        <ele>875</ele>
        <time>2026-05-13T15:00:12.000Z</time>
      </trkpt>
      <trkpt lat="44.23042" lon="5.42574">
        <ele>875</ele>
        <time>2026-05-13T15:00:13.000Z</time>
      </trkpt>
      <trkpt lat="44.23041" lon="5.42574">
        <ele>875</ele>
        <time>2026-05-13T15:00:14.000Z</time>
      </trkpt>
      <trkpt lat="44.23039" lon="5.42575">
        <ele>875</ele>
        <time>2026-05-13T15:00:15.000Z</time>
      </trkpt>
      <trkpt lat="44.23037" lon="5.42575">
        <ele>876</ele>
        <time>2026-05-13T15:00:16.000Z</time>
      </trkpt>
      <trkpt lat="44.23036" lon="5.42576">
        <ele>876</ele>
        <time>2026-05-13T15:00:17.000Z</time>
      </trkpt>
      <trkpt lat="44.23034" lon="5.42576">
        <ele>876</ele>
        <time>2026-05-13T15:00:18.000Z</time>
      </trkpt>
      <trkpt lat="44.23033" lon="5.42576">
        <ele>875</ele>
        <time>2026-05-13T15:00:19.000Z</time>
      </trkpt>
      <trkpt lat="44.23031" lon="5.42576">
        <ele>875</ele>
        <time>2026-05-13T15:00:20.000Z</time>
      </trkpt>
      <trkpt lat="44.23029" lon="5.42577">
        <ele>875</ele>
        <time>2026-05-13T15:00:21.000Z</time>
      </trkpt>
      <trkpt lat="44.23027" lon="5.42576">
        <ele>876</ele>
        <time>2026-05-13T15:00:22.000Z</time>
      </trkpt>
      <trkpt lat="44.23026" lon="5.42576">
        <ele>875</ele>
        <time>2026-05-13T15:00:23.000Z</time>
      </trkpt>
      <trkpt lat="44.23025" lon="5.42575">
        <ele>876</ele>
        <time>2026-05-13T15:00:24.000Z</time>
      </trkpt>
      <trkpt lat="44.23023" lon="5.42575">
        <ele>876</ele>
        <time>2026-05-13T15:00:25.000Z</time>
      </trkpt>
      <trkpt lat="44.23021" lon="5.42574">
        <ele>876</ele>
        <time>2026-05-13T15:00:26.000Z</time>
      </trkpt>
      <trkpt lat="44.23019" lon="5.42573">
        <ele>876</ele>
        <time>2026-05-13T15:00:27.000Z</time>
      </trkpt>
      <trkpt lat="44.23018" lon="5.42573">
        <ele>876</ele>
        <time>2026-05-13T15:00:28.000Z</time>
      </trkpt>
      <trkpt lat="44.23015" lon="5.42571">
        <ele>876</ele>
        <time>2026-05-13T15:00:29.000Z</time>
      </trkpt>
      <trkpt lat="44.23013" lon="5.4257">
        <ele>875</ele>
        <time>2026-05-13T15:00:30.000Z</time>
      </trkpt>
      <trkpt lat="44.2301" lon="5.42569">
        <ele>875</ele>
        <time>2026-05-13T15:00:31.000Z</time>
      </trkpt>
      <trkpt lat="44.23007" lon="5.42567">
        <ele>875</ele>
        <time>2026-05-13T15:00:32.000Z</time>
      </trkpt>
      <trkpt lat="44.23004" lon="5.42565">
        <ele>875</ele>
        <time>2026-05-13T15:00:33.000Z</time>
      </trkpt>
      <trkpt lat="44.23" lon="5.42563">
        <ele>875</ele>
        <time>2026-05-13T15:00:34.000Z</time>
      </trkpt>
      <trkpt lat="44.22997" lon="5.42562">
        <ele>876</ele>
        <time>2026-05-13T15:00:35.000Z</time>
      </trkpt>
      <trkpt lat="44.22993" lon="5.42561">
        <ele>876</ele>
        <time>2026-05-13T15:00:36.000Z</time>
      </trkpt>
      <trkpt lat="44.22989" lon="5.42559">
        <ele>875</ele>
        <time>2026-05-13T15:00:37.000Z</time>
      </trkpt>
      <trkpt lat="44.22984" lon="5.42557">
        <ele>875</ele>
        <time>2026-05-13T15:00:38.000Z</time>
      </trkpt>
      <trkpt lat="44.22979" lon="5.42556">
        <ele>875</ele>
        <time>2026-05-13T15:00:39.000Z</time>
      </trkpt>
      <trkpt lat="44.22974" lon="5.42555">
        <ele>874</ele>
        <time>2026-05-13T15:00:40.000Z</time>
      </trkpt>
      <trkpt lat="44.22969" lon="5.42553">
        <ele>873</ele>
        <time>2026-05-13T15:00:41.000Z</time>
      </trkpt>
      <trkpt lat="44.22963" lon="5.42552">
        <ele>872</ele>
        <time>2026-05-13T15:00:42.000Z</time>
      </trkpt>
      <trkpt lat="44.22957" lon="5.42552">
        <ele>871</ele>
        <time>2026-05-13T15:00:43.000Z</time>
      </trkpt>
      <trkpt lat="44.2295" lon="5.42551">
        <ele>871</ele>
        <time>2026-05-13T15:00:44.000Z</time>
      </trkpt>
      <trkpt lat="44.22945" lon="5.42549">
        <ele>870</ele>
        <time>2026-05-13T15:00:45.000Z</time>
      </trkpt>
      <trkpt lat="44.2294" lon="5.42546">
        <ele>870</ele>
        <time>2026-05-13T15:00:46.000Z</time>
      </trkpt>
      <trkpt lat="44.22935" lon="5.42542">
        <ele>870</ele>
        <time>2026-05-13T15:00:47.000Z</time>
      </trkpt>
      <trkpt lat="44.22933" lon="5.42534">
        <ele>870</ele>
        <time>2026-05-13T15:00:48.000Z</time>
      </trkpt>
      <trkpt lat="44.22933" lon="5.42528">
        <ele>870</ele>
        <time>2026-05-13T15:00:49.000Z</time>
      </trkpt>
      <trkpt lat="44.22934" lon="5.42522">
        <ele>870</ele>
        <time>2026-05-13T15:00:50.000Z</time>
      </trkpt>
      <trkpt lat="44.22935" lon="5.42517">
        <ele>870</ele>
        <time>2026-05-13T15:00:51.000Z</time>
      </trkpt>
      <trkpt lat="44.22935" lon="5.42512">
        <ele>870</ele>
        <time>2026-05-13T15:00:52.000Z</time>
      </trkpt>
      <trkpt lat="44.22935" lon="5.42508">
        <ele>870</ele>
        <time>2026-05-13T15:00:53.000Z</time>
      </trkpt>
      <trkpt lat="44.22936" lon="5.42504">
        <ele>870</ele>
        <time>2026-05-13T15:00:54.000Z</time>
      </trkpt>
      <trkpt lat="44.22936" lon="5.42499">
        <ele>870</ele>
        <time>2026-05-13T15:00:55.000Z</time>
      </trkpt>
      <trkpt lat="44.22937" lon="5.42495">
        <ele>870</ele>
        <time>2026-05-13T15:00:56.000Z</time>
      </trkpt>
      <trkpt lat="44.22937" lon="5.4249">
        <ele>869</ele>
        <time>2026-05-13T15:00:57.000Z</time>
      </trkpt>
      <trkpt lat="44.22937" lon="5.42486">
        <ele>869</ele>
        <time>2026-05-13T15:00:58.000Z</time>
      </trkpt>
      <trkpt lat="44.22938" lon="5.42481">
        <ele>869</ele>
        <time>2026-05-13T15:00:59.000Z</time>
      </trkpt>
      <trkpt lat="44.22939" lon="5.42475">
        <ele>869</ele>
        <time>2026-05-13T15:01:00.000Z</time>
      </trkpt>
      <trkpt lat="44.22939" lon="5.42469">
        <ele>868</ele>
        <time>2026-05-13T15:01:01.000Z</time>
      </trkpt>
      <trkpt lat="44.2294" lon="5.42463">
        <ele>868</ele>
        <time>2026-05-13T15:01:02.000Z</time>
      </trkpt>
      <trkpt lat="44.2294" lon="5.42457">
        <ele>868</ele>
        <time>2026-05-13T15:01:03.000Z</time>
      </trkpt>
      <trkpt lat="44.2294" lon="5.42451">
        <ele>867</ele>
        <time>2026-05-13T15:01:04.000Z</time>
      </trkpt>
      <trkpt lat="44.22939" lon="5.42446">
        <ele>867</ele>
        <time>2026-05-13T15:01:05.000Z</time>
      </trkpt>
      <trkpt lat="44.22939" lon="5.4244">
        <ele>867</ele>
        <time>2026-05-13T15:01:06.000Z</time>
      </trkpt>
      <trkpt lat="44.22939" lon="5.42435">
        <ele>866</ele>
        <time>2026-05-13T15:01:07.000Z</time>
      </trkpt>
      <trkpt lat="44.22937" lon="5.4243">
        <ele>866</ele>
        <time>2026-05-13T15:01:08.000Z</time>
      </trkpt>
      <trkpt lat="44.22936" lon="5.42425">
        <ele>866</ele>
        <time>2026-05-13T15:01:09.000Z</time>
      </trkpt>
      <trkpt lat="44.22933" lon="5.42419">
        <ele>865</ele>
        <time>2026-05-13T15:01:10.000Z</time>
      </trkpt>
      <trkpt lat="44.22931" lon="5.42414">
        <ele>865</ele>
        <time>2026-05-13T15:01:11.000Z</time>
      </trkpt>
      <trkpt lat="44.22928" lon="5.42408">
        <ele>864</ele>
        <time>2026-05-13T15:01:12.000Z</time>
      </trkpt>
      <trkpt lat="44.22925" lon="5.42402">
        <ele>863</ele>
        <time>2026-05-13T15:01:13.000Z</time>
      </trkpt>
      <trkpt lat="44.22922" lon="5.42394">
        <ele>862</ele>
        <time>2026-05-13T15:01:14.000Z</time>
      </trkpt>
      <trkpt lat="44.22919" lon="5.42387">
        <ele>861</ele>
        <time>2026-05-13T15:01:15.000Z</time>
      </trkpt>
      <trkpt lat="44.22914" lon="5.42378">
        <ele>861</ele>
        <time>2026-05-13T15:01:16.000Z</time>
      </trkpt>
      <trkpt lat="44.22908" lon="5.42371">
        <ele>860</ele>
        <time>2026-05-13T15:01:17.000Z</time>
      </trkpt>
      <trkpt lat="44.22902" lon="5.42367">
        <ele>859</ele>
        <time>2026-05-13T15:01:18.000Z</time>
      </trkpt>
      <trkpt lat="44.22894" lon="5.42364">
        <ele>858</ele>
        <time>2026-05-13T15:01:19.000Z</time>
      </trkpt>
      <trkpt lat="44.22886" lon="5.42363">
        <ele>858</ele>
        <time>2026-05-13T15:01:20.000Z</time>
      </trkpt>
      <trkpt lat="44.22879" lon="5.4236">
        <ele>857</ele>
        <time>2026-05-13T15:01:21.000Z</time>
      </trkpt>
      <trkpt lat="44.22871" lon="5.42356">
        <ele>856</ele>
        <time>2026-05-13T15:01:22.000Z</time>
      </trkpt>
      <trkpt lat="44.22863" lon="5.42354">
        <ele>856</ele>
        <time>2026-05-13T15:01:23.000Z</time>
      </trkpt>
      <trkpt lat="44.22854" lon="5.42353">
        <ele>854</ele>
        <time>2026-05-13T15:01:24.000Z</time>
      </trkpt>
      <trkpt lat="44.22846" lon="5.42352">
        <ele>853</ele>
        <time>2026-05-13T15:01:25.000Z</time>
      </trkpt>
      <trkpt lat="44.22837" lon="5.42351">
        <ele>851</ele>
        <time>2026-05-13T15:01:26.000Z</time>
      </trkpt>
      <trkpt lat="44.2283" lon="5.42349">
        <ele>849</ele>
        <time>2026-05-13T15:01:27.000Z</time>
      </trkpt>
      <trkpt lat="44.22823" lon="5.42349">
        <ele>849</ele>
        <time>2026-05-13T15:01:28.000Z</time>
      </trkpt>
      <trkpt lat="44.22818" lon="5.4235">
        <ele>848</ele>
        <time>2026-05-13T15:01:29.000Z</time>
      </trkpt>
      <trkpt lat="44.22812" lon="5.42352">
        <ele>847</ele>
        <time>2026-05-13T15:01:30.000Z</time>
      </trkpt>
      <trkpt lat="44.22808" lon="5.42355">
        <ele>847</ele>
        <time>2026-05-13T15:01:31.000Z</time>
      </trkpt>
      <trkpt lat="44.22803" lon="5.42357">
        <ele>846</ele>
        <time>2026-05-13T15:01:32.000Z</time>
      </trkpt>
      <trkpt lat="44.22799" lon="5.42356">
        <ele>846</ele>
        <time>2026-05-13T15:01:33.000Z</time>
      </trkpt>
      <trkpt lat="44.22794" lon="5.42353">
        <ele>845</ele>
        <time>2026-05-13T15:01:34.000Z</time>
      </trkpt>
      <trkpt lat="44.2279" lon="5.4235">
        <ele>845</ele>
        <time>2026-05-13T15:01:35.000Z</time>
      </trkpt>
      <trkpt lat="44.22784" lon="5.42347">
        <ele>845</ele>
        <time>2026-05-13T15:01:36.000Z</time>
      </trkpt>
      <trkpt lat="44.22779" lon="5.42344">
        <ele>845</ele>
        <time>2026-05-13T15:01:37.000Z</time>
      </trkpt>
      <trkpt lat="44.22774" lon="5.42341">
        <ele>845</ele>
        <time>2026-05-13T15:01:38.000Z</time>
      </trkpt>
      <trkpt lat="44.22769" lon="5.4234">
        <ele>844</ele>
        <time>2026-05-13T15:01:39.000Z</time>
      </trkpt>
      <trkpt lat="44.22764" lon="5.4234">
        <ele>844</ele>
        <time>2026-05-13T15:01:40.000Z</time>
      </trkpt>
      <trkpt lat="44.22759" lon="5.42341">
        <ele>844</ele>
        <time>2026-05-13T15:01:41.000Z</time>
      </trkpt>
      <trkpt lat="44.22754" lon="5.42341">
        <ele>843</ele>
        <time>2026-05-13T15:01:42.000Z</time>
      </trkpt>
      <trkpt lat="44.2275" lon="5.42342">
        <ele>843</ele>
        <time>2026-05-13T15:01:43.000Z</time>
      </trkpt>
      <trkpt lat="44.22745" lon="5.42343">
        <ele>843</ele>
        <time>2026-05-13T15:01:44.000Z</time>
      </trkpt>
      <trkpt lat="44.22741" lon="5.42345">
        <ele>843</ele>
        <time>2026-05-13T15:01:45.000Z</time>
      </trkpt>
      <trkpt lat="44.22736" lon="5.42345">
        <ele>843</ele>
        <time>2026-05-13T15:01:46.000Z</time>
      </trkpt>
      <trkpt lat="44.22731" lon="5.42346">
        <ele>843</ele>
        <time>2026-05-13T15:01:47.000Z</time>
      </trkpt>
      <trkpt lat="44.22727" lon="5.42347">
        <ele>843</ele>
        <time>2026-05-13T15:01:48.000Z</time>
      </trkpt>
      <trkpt lat="44.22722" lon="5.42348">
        <ele>842</ele>
        <time>2026-05-13T15:01:49.000Z</time>
      </trkpt>
      <trkpt lat="44.22718" lon="5.42349">
        <ele>841</ele>
        <time>2026-05-13T15:01:50.000Z</time>
      </trkpt>
      <trkpt lat="44.22712" lon="5.42352">
        <ele>840</ele>
        <time>2026-05-13T15:01:51.000Z</time>
      </trkpt>
      <trkpt lat="44.22706" lon="5.42355">
        <ele>839</ele>
        <time>2026-05-13T15:01:52.000Z</time>
      </trkpt>
      <trkpt lat="44.22699" lon="5.42358">
        <ele>838</ele>
        <time>2026-05-13T15:01:53.000Z</time>
      </trkpt>
      <trkpt lat="44.22693" lon="5.42361">
        <ele>838</ele>
        <time>2026-05-13T15:01:54.000Z</time>
      </trkpt>
      <trkpt lat="44.22685" lon="5.42365">
        <ele>836</ele>
        <time>2026-05-13T15:01:55.000Z</time>
      </trkpt>
      <trkpt lat="44.22677" lon="5.42369">
        <ele>836</ele>
        <time>2026-05-13T15:01:56.000Z</time>
      </trkpt>
      <trkpt lat="44.22669" lon="5.42374">
        <ele>834</ele>
        <time>2026-05-13T15:01:57.000Z</time>
      </trkpt>
      <trkpt lat="44.22661" lon="5.4238">
        <ele>834</ele>
        <time>2026-05-13T15:01:58.000Z</time>
      </trkpt>
      <trkpt lat="44.22652" lon="5.42386">
        <ele>834</ele>
        <time>2026-05-13T15:01:59.000Z</time>
      </trkpt>
      <trkpt lat="44.22645" lon="5.42393">
        <ele>833</ele>
        <time>2026-05-13T15:02:00.000Z</time>
      </trkpt>
      <trkpt lat="44.22638" lon="5.42399">
        <ele>833</ele>
        <time>2026-05-13T15:02:01.000Z</time>
      </trkpt>
      <trkpt lat="44.22631" lon="5.42404">
        <ele>833</ele>
        <time>2026-05-13T15:02:02.000Z</time>
      </trkpt>
      <trkpt lat="44.22626" lon="5.42408">
        <ele>832</ele>
        <time>2026-05-13T15:02:03.000Z</time>
      </trkpt>
      <trkpt lat="44.22621" lon="5.42412">
        <ele>832</ele>
        <time>2026-05-13T15:02:04.000Z</time>
      </trkpt>
      <trkpt lat="44.22617" lon="5.42416">
        <ele>832</ele>
        <time>2026-05-13T15:02:05.000Z</time>
      </trkpt>
      <trkpt lat="44.22614" lon="5.42419">
        <ele>831</ele>
        <time>2026-05-13T15:02:06.000Z</time>
      </trkpt>
      <trkpt lat="44.22611" lon="5.42421">
        <ele>831</ele>
        <time>2026-05-13T15:02:07.000Z</time>
      </trkpt>
      <trkpt lat="44.22609" lon="5.42422">
        <ele>831</ele>
        <time>2026-05-13T15:02:08.000Z</time>
      </trkpt>
      <trkpt lat="44.22607" lon="5.42419">
        <ele>830</ele>
        <time>2026-05-13T15:02:09.000Z</time>
      </trkpt>
      <trkpt lat="44.22606" lon="5.42413">
        <ele>831</ele>
        <time>2026-05-13T15:02:10.000Z</time>
      </trkpt>
      <trkpt lat="44.22608" lon="5.42407">
        <ele>831</ele>
        <time>2026-05-13T15:02:11.000Z</time>
      </trkpt>
      <trkpt lat="44.22611" lon="5.42403">
        <ele>831</ele>
        <time>2026-05-13T15:02:12.000Z</time>
      </trkpt>
      <trkpt lat="44.22614" lon="5.42399">
        <ele>831</ele>
        <time>2026-05-13T15:02:13.000Z</time>
      </trkpt>
      <trkpt lat="44.22617" lon="5.42395">
        <ele>830</ele>
        <time>2026-05-13T15:02:14.000Z</time>
      </trkpt>
      <trkpt lat="44.22621" lon="5.42391">
        <ele>830</ele>
        <time>2026-05-13T15:02:15.000Z</time>
      </trkpt>
      <trkpt lat="44.22625" lon="5.42386">
        <ele>828</ele>
        <time>2026-05-13T15:02:16.000Z</time>
      </trkpt>
      <trkpt lat="44.22628" lon="5.42381">
        <ele>829</ele>
        <time>2026-05-13T15:02:17.000Z</time>
      </trkpt>
      <trkpt lat="44.22629" lon="5.42375">
        <ele>829</ele>
        <time>2026-05-13T15:02:18.000Z</time>
      </trkpt>
      <trkpt lat="44.22628" lon="5.42366">
        <ele>828</ele>
        <time>2026-05-13T15:02:19.000Z</time>
      </trkpt>
      <trkpt lat="44.22625" lon="5.42356">
        <ele>827</ele>
        <time>2026-05-13T15:02:20.000Z</time>
      </trkpt>
      <trkpt lat="44.2262" lon="5.42346">
        <ele>826</ele>
        <time>2026-05-13T15:02:21.000Z</time>
      </trkpt>
      <trkpt lat="44.22616" lon="5.42337">
        <ele>826</ele>
        <time>2026-05-13T15:02:22.000Z</time>
      </trkpt>
      <trkpt lat="44.22614" lon="5.42329">
        <ele>827</ele>
        <time>2026-05-13T15:02:23.000Z</time>
      </trkpt>
      <trkpt lat="44.22613" lon="5.42323">
        <ele>828</ele>
        <time>2026-05-13T15:02:24.000Z</time>
      </trkpt>
      <trkpt lat="44.22613" lon="5.42317">
        <ele>829</ele>
        <time>2026-05-13T15:02:25.000Z</time>
      </trkpt>
      <trkpt lat="44.22615" lon="5.42314">
        <ele>829</ele>
        <time>2026-05-13T15:02:26.000Z</time>
      </trkpt>
      <trkpt lat="44.22615" lon="5.4231">
        <ele>830</ele>
        <time>2026-05-13T15:02:27.000Z</time>
      </trkpt>
      <trkpt lat="44.22617" lon="5.42308">
        <ele>830</ele>
        <time>2026-05-13T15:02:28.000Z</time>
      </trkpt>
      <trkpt lat="44.22617" lon="5.42306">
        <ele>830</ele>
        <time>2026-05-13T15:02:29.000Z</time>
      </trkpt>
      <trkpt lat="44.22618" lon="5.42303">
        <ele>830</ele>
        <time>2026-05-13T15:02:30.000Z</time>
      </trkpt>
      <trkpt lat="44.22619" lon="5.42301">
        <ele>830</ele>
        <time>2026-05-13T15:02:31.000Z</time>
      </trkpt>
      <trkpt lat="44.22619" lon="5.42299">
        <ele>831</ele>
        <time>2026-05-13T15:02:32.000Z</time>
      </trkpt>
      <trkpt lat="44.22621" lon="5.42298">
        <ele>830</ele>
        <time>2026-05-13T15:02:33.000Z</time>
      </trkpt>
      <trkpt lat="44.22623" lon="5.42297">
        <ele>830</ele>
        <time>2026-05-13T15:02:34.000Z</time>
      </trkpt>
      <trkpt lat="44.22624" lon="5.42295">
        <ele>830</ele>
        <time>2026-05-13T15:02:35.000Z</time>
      </trkpt>
      <trkpt lat="44.22625" lon="5.42293">
        <ele>831</ele>
        <time>2026-05-13T15:02:36.000Z</time>
      </trkpt>
      <trkpt lat="44.22626" lon="5.42291">
        <ele>831</ele>
        <time>2026-05-13T15:02:37.000Z</time>
      </trkpt>
      <trkpt lat="44.22628" lon="5.4229">
        <ele>831</ele>
        <time>2026-05-13T15:02:38.000Z</time>
      </trkpt>
      <trkpt lat="44.22629" lon="5.42288">
        <ele>831</ele>
        <time>2026-05-13T15:02:39.000Z</time>
      </trkpt>
      <trkpt lat="44.2263" lon="5.42286">
        <ele>831</ele>
        <time>2026-05-13T15:02:40.000Z</time>
      </trkpt>
      <trkpt lat="44.2263" lon="5.42284">
        <ele>831</ele>
        <time>2026-05-13T15:02:41.000Z</time>
      </trkpt>
      <trkpt lat="44.22632" lon="5.42282">
        <ele>832</ele>
        <time>2026-05-13T15:02:42.000Z</time>
      </trkpt>
      <trkpt lat="44.22633" lon="5.4228">
        <ele>832</ele>
        <time>2026-05-13T15:02:43.000Z</time>
      </trkpt>
      <trkpt lat="44.22635" lon="5.42279">
        <ele>832</ele>
        <time>2026-05-13T15:02:44.000Z</time>
      </trkpt>
      <trkpt lat="44.22636" lon="5.42277">
        <ele>833</ele>
        <time>2026-05-13T15:02:45.000Z</time>
      </trkpt>
      <trkpt lat="44.22637" lon="5.42275">
        <ele>833</ele>
        <time>2026-05-13T15:02:46.000Z</time>
      </trkpt>
      <trkpt lat="44.22636" lon="5.42275">
        <ele>833</ele>
        <time>2026-05-13T15:02:47.000Z</time>
      </trkpt>
      <trkpt lat="44.22633" lon="5.42276">
        <ele>833</ele>
        <time>2026-05-13T15:02:48.000Z</time>
      </trkpt>
      <trkpt lat="44.22632" lon="5.42279">
        <ele>832</ele>
        <time>2026-05-13T15:02:49.000Z</time>
      </trkpt>
      <trkpt lat="44.2263" lon="5.42283">
        <ele>832</ele>
        <time>2026-05-13T15:02:50.000Z</time>
      </trkpt>
      <trkpt lat="44.22629" lon="5.42287">
        <ele>832</ele>
        <time>2026-05-13T15:02:51.000Z</time>
      </trkpt>
      <trkpt lat="44.22626" lon="5.42291">
        <ele>831</ele>
        <time>2026-05-13T15:02:52.000Z</time>
      </trkpt>
      <trkpt lat="44.22623" lon="5.42296">
        <ele>831</ele>
        <time>2026-05-13T15:02:53.000Z</time>
      </trkpt>
      <trkpt lat="44.2262" lon="5.42301">
        <ele>831</ele>
        <time>2026-05-13T15:02:54.000Z</time>
      </trkpt>
      <trkpt lat="44.22616" lon="5.42306">
        <ele>830</ele>
        <time>2026-05-13T15:02:55.000Z</time>
      </trkpt>
      <trkpt lat="44.22614" lon="5.42312">
        <ele>829</ele>
        <time>2026-05-13T15:02:56.000Z</time>
      </trkpt>
      <trkpt lat="44.22613" lon="5.42316">
        <ele>829</ele>
        <time>2026-05-13T15:02:57.000Z</time>
      </trkpt>
      <trkpt lat="44.22612" lon="5.4232">
        <ele>828</ele>
        <time>2026-05-13T15:02:58.000Z</time>
      </trkpt>
      <trkpt lat="44.22611" lon="5.42323">
        <ele>828</ele>
        <time>2026-05-13T15:02:59.000Z</time>
      </trkpt>
      <trkpt lat="44.22609" lon="5.42328">
        <ele>828</ele>
        <time>2026-05-13T15:03:00.000Z</time>
      </trkpt>
      <trkpt lat="44.22607" lon="5.42331">
        <ele>828</ele>
        <time>2026-05-13T15:03:01.000Z</time>
      </trkpt>
      <trkpt lat="44.22604" lon="5.42332">
        <ele>828</ele>
        <time>2026-05-13T15:03:02.000Z</time>
      </trkpt>
      <trkpt lat="44.22601" lon="5.42331">
        <ele>828</ele>
        <time>2026-05-13T15:03:03.000Z</time>
      </trkpt>
      <trkpt lat="44.22598" lon="5.42331">
        <ele>828</ele>
        <time>2026-05-13T15:03:04.000Z</time>
      </trkpt>
      <trkpt lat="44.22595" lon="5.42331">
        <ele>828</ele>
        <time>2026-05-13T15:03:05.000Z</time>
      </trkpt>
      <trkpt lat="44.22592" lon="5.42332">
        <ele>828</ele>
        <time>2026-05-13T15:03:06.000Z</time>
      </trkpt>
      <trkpt lat="44.2259" lon="5.42333">
        <ele>828</ele>
        <time>2026-05-13T15:03:07.000Z</time>
      </trkpt>
      <trkpt lat="44.22587" lon="5.42333">
        <ele>828</ele>
        <time>2026-05-13T15:03:08.000Z</time>
      </trkpt>
      <trkpt lat="44.22584" lon="5.42334">
        <ele>828</ele>
        <time>2026-05-13T15:03:09.000Z</time>
      </trkpt>
      <trkpt lat="44.22582" lon="5.42335">
        <ele>829</ele>
        <time>2026-05-13T15:03:10.000Z</time>
      </trkpt>
      <trkpt lat="44.22579" lon="5.42335">
        <ele>829</ele>
        <time>2026-05-13T15:03:11.000Z</time>
      </trkpt>
      <trkpt lat="44.22577" lon="5.42335">
        <ele>829</ele>
        <time>2026-05-13T15:03:12.000Z</time>
      </trkpt>
      <trkpt lat="44.22574" lon="5.42335">
        <ele>830</ele>
        <time>2026-05-13T15:03:13.000Z</time>
      </trkpt>
      <trkpt lat="44.22571" lon="5.42334">
        <ele>830</ele>
        <time>2026-05-13T15:03:14.000Z</time>
      </trkpt>
      <trkpt lat="44.22569" lon="5.42334">
        <ele>831</ele>
        <time>2026-05-13T15:03:15.000Z</time>
      </trkpt>
      <trkpt lat="44.22566" lon="5.42334">
        <ele>831</ele>
        <time>2026-05-13T15:03:16.000Z</time>
      </trkpt>
      <trkpt lat="44.22564" lon="5.42335">
        <ele>832</ele>
        <time>2026-05-13T15:03:17.000Z</time>
      </trkpt>
      <trkpt lat="44.22562" lon="5.42335">
        <ele>832</ele>
        <time>2026-05-13T15:03:18.000Z</time>
      </trkpt>
      <trkpt lat="44.2256" lon="5.42335">
        <ele>832</ele>
        <time>2026-05-13T15:03:19.000Z</time>
      </trkpt>
      <trkpt lat="44.22558" lon="5.42333">
        <ele>832</ele>
        <time>2026-05-13T15:03:20.000Z</time>
      </trkpt>
      <trkpt lat="44.22556" lon="5.42332">
        <ele>832</ele>
        <time>2026-05-13T15:03:21.000Z</time>
      </trkpt>
      <trkpt lat="44.22555" lon="5.4233">
        <ele>832</ele>
        <time>2026-05-13T15:03:22.000Z</time>
      </trkpt>
      <trkpt lat="44.22554" lon="5.42327">
        <ele>832</ele>
        <time>2026-05-13T15:03:23.000Z</time>
      </trkpt>
      <trkpt lat="44.22553" lon="5.42324">
        <ele>832</ele>
        <time>2026-05-13T15:03:24.000Z</time>
      </trkpt>
      <trkpt lat="44.22553" lon="5.42322">
        <ele>832</ele>
        <time>2026-05-13T15:03:25.000Z</time>
      </trkpt>
      <trkpt lat="44.22553" lon="5.42319">
        <ele>832</ele>
        <time>2026-05-13T15:03:26.000Z</time>
      </trkpt>
      <trkpt lat="44.22553" lon="5.42315">
        <ele>832</ele>
        <time>2026-05-13T15:03:27.000Z</time>
      </trkpt>
      <trkpt lat="44.22553" lon="5.42313">
        <ele>832</ele>
        <time>2026-05-13T15:03:28.000Z</time>
      </trkpt>
      <trkpt lat="44.22554" lon="5.42309">
        <ele>832</ele>
        <time>2026-05-13T15:03:29.000Z</time>
      </trkpt>
      <trkpt lat="44.22554" lon="5.42307">
        <ele>831</ele>
        <time>2026-05-13T15:03:30.000Z</time>
      </trkpt>
      <trkpt lat="44.22554" lon="5.42304">
        <ele>831</ele>
        <time>2026-05-13T15:03:31.000Z</time>
      </trkpt>
      <trkpt lat="44.22554" lon="5.42302">
        <ele>831</ele>
        <time>2026-05-13T15:03:32.000Z</time>
      </trkpt>
      <trkpt lat="44.22554" lon="5.42299">
        <ele>832</ele>
        <time>2026-05-13T15:03:33.000Z</time>
      </trkpt>
      <trkpt lat="44.22554" lon="5.42296">
        <ele>832</ele>
        <time>2026-05-13T15:03:34.000Z</time>
      </trkpt>
      <trkpt lat="44.22555" lon="5.42294">
        <ele>832</ele>
        <time>2026-05-13T15:03:35.000Z</time>
      </trkpt>
      <trkpt lat="44.22554" lon="5.42291">
        <ele>832</ele>
        <time>2026-05-13T15:03:36.000Z</time>
      </trkpt>
      <trkpt lat="44.22555" lon="5.42289">
        <ele>832</ele>
        <time>2026-05-13T15:03:37.000Z</time>
      </trkpt>
      <trkpt lat="44.22555" lon="5.42287">
        <ele>832</ele>
        <time>2026-05-13T15:03:38.000Z</time>
      </trkpt>
      <trkpt lat="44.22556" lon="5.42285">
        <ele>832</ele>
        <time>2026-05-13T15:03:39.000Z</time>
      </trkpt>
      <trkpt lat="44.22556" lon="5.42283">
        <ele>832</ele>
        <time>2026-05-13T15:03:40.000Z</time>
      </trkpt>
      <trkpt lat="44.22556" lon="5.42281">
        <ele>832</ele>
        <time>2026-05-13T15:03:41.000Z</time>
      </trkpt>
      <trkpt lat="44.22557" lon="5.42278">
        <ele>832</ele>
        <time>2026-05-13T15:03:42.000Z</time>
      </trkpt>
      <trkpt lat="44.22556" lon="5.42276">
        <ele>833</ele>
        <time>2026-05-13T15:03:43.000Z</time>
      </trkpt>
      <trkpt lat="44.22557" lon="5.42273">
        <ele>833</ele>
        <time>2026-05-13T15:03:44.000Z</time>
      </trkpt>
      <trkpt lat="44.22557" lon="5.42271">
        <ele>833</ele>
        <time>2026-05-13T15:03:45.000Z</time>
      </trkpt>
      <trkpt lat="44.22557" lon="5.42269">
        <ele>834</ele>
        <time>2026-05-13T15:03:46.000Z</time>
      </trkpt>
      <trkpt lat="44.22557" lon="5.42266">
        <ele>834</ele>
        <time>2026-05-13T15:03:47.000Z</time>
      </trkpt>
      <trkpt lat="44.22557" lon="5.42264">
        <ele>834</ele>
        <time>2026-05-13T15:03:48.000Z</time>
      </trkpt>
      <trkpt lat="44.22557" lon="5.42262">
        <ele>834</ele>
        <time>2026-05-13T15:03:49.000Z</time>
      </trkpt>
      <trkpt lat="44.22558" lon="5.4226">
        <ele>834</ele>
        <time>2026-05-13T15:03:50.000Z</time>
      </trkpt>
      <trkpt lat="44.22558" lon="5.42257">
        <ele>835</ele>
        <time>2026-05-13T15:03:51.000Z</time>
      </trkpt>
      <trkpt lat="44.22558" lon="5.42256">
        <ele>835</ele>
        <time>2026-05-13T15:03:52.000Z</time>
      </trkpt>
      <trkpt lat="44.22558" lon="5.42254">
        <ele>835</ele>
        <time>2026-05-13T15:03:53.000Z</time>
      </trkpt>
      <trkpt lat="44.22559" lon="5.42251">
        <ele>836</ele>
        <time>2026-05-13T15:03:54.000Z</time>
      </trkpt>
      <trkpt lat="44.22559" lon="5.42249">
        <ele>836</ele>
        <time>2026-05-13T15:03:55.000Z</time>
      </trkpt>
      <trkpt lat="44.2256" lon="5.42247">
        <ele>836</ele>
        <time>2026-05-13T15:03:56.000Z</time>
      </trkpt>
      <trkpt lat="44.2256" lon="5.42245">
        <ele>836</ele>
        <time>2026-05-13T15:03:57.000Z</time>
      </trkpt>
      <trkpt lat="44.22561" lon="5.42243">
        <ele>837</ele>
        <time>2026-05-13T15:03:58.000Z</time>
      </trkpt>
      <trkpt lat="44.22561" lon="5.42241">
        <ele>836</ele>
        <time>2026-05-13T15:03:59.000Z</time>
      </trkpt>
      <trkpt lat="44.22562" lon="5.42239">
        <ele>836</ele>
        <time>2026-05-13T15:04:00.000Z</time>
      </trkpt>
      <trkpt lat="44.22563" lon="5.42237">
        <ele>837</ele>
        <time>2026-05-13T15:04:01.000Z</time>
      </trkpt>
      <trkpt lat="44.22563" lon="5.42236">
        <ele>837</ele>
        <time>2026-05-13T15:04:02.000Z</time>
      </trkpt>
      <trkpt lat="44.22564" lon="5.42234">
        <ele>837</ele>
        <time>2026-05-13T15:04:03.000Z</time>
      </trkpt>
      <trkpt lat="44.22564" lon="5.42232">
        <ele>836</ele>
        <time>2026-05-13T15:04:04.000Z</time>
      </trkpt>
      <trkpt lat="44.22565" lon="5.4223">
        <ele>836</ele>
        <time>2026-05-13T15:04:05.000Z</time>
      </trkpt>
      <trkpt lat="44.22565" lon="5.42227">
        <ele>836</ele>
        <time>2026-05-13T15:04:06.000Z</time>
      </trkpt>
      <trkpt lat="44.22565" lon="5.42224">
        <ele>836</ele>
        <time>2026-05-13T15:04:07.000Z</time>
      </trkpt>
      <trkpt lat="44.22566" lon="5.42222">
        <ele>837</ele>
        <time>2026-05-13T15:04:08.000Z</time>
      </trkpt>
      <trkpt lat="44.22566" lon="5.42221">
        <ele>837</ele>
        <time>2026-05-13T15:04:09.000Z</time>
      </trkpt>
      <trkpt lat="44.22568" lon="5.42219">
        <ele>837</ele>
        <time>2026-05-13T15:04:10.000Z</time>
      </trkpt>
      <trkpt lat="44.22569" lon="5.42218">
        <ele>838</ele>
        <time>2026-05-13T15:04:11.000Z</time>
      </trkpt>
      <trkpt lat="44.2257" lon="5.42217">
        <ele>837</ele>
        <time>2026-05-13T15:04:12.000Z</time>
      </trkpt>
      <trkpt lat="44.22571" lon="5.42214">
        <ele>838</ele>
        <time>2026-05-13T15:04:13.000Z</time>
      </trkpt>
      <trkpt lat="44.22573" lon="5.42212">
        <ele>838</ele>
        <time>2026-05-13T15:04:14.000Z</time>
      </trkpt>
      <trkpt lat="44.22574" lon="5.42211">
        <ele>838</ele>
        <time>2026-05-13T15:04:15.000Z</time>
      </trkpt>
      <trkpt lat="44.22574" lon="5.42209">
        <ele>838</ele>
        <time>2026-05-13T15:04:16.000Z</time>
      </trkpt>
      <trkpt lat="44.22576" lon="5.42207">
        <ele>837</ele>
        <time>2026-05-13T15:04:17.000Z</time>
      </trkpt>
      <trkpt lat="44.22577" lon="5.42205">
        <ele>838</ele>
        <time>2026-05-13T15:04:18.000Z</time>
      </trkpt>
      <trkpt lat="44.22578" lon="5.42204">
        <ele>839</ele>
        <time>2026-05-13T15:04:19.000Z</time>
      </trkpt>
      <trkpt lat="44.22579" lon="5.42202">
        <ele>839</ele>
        <time>2026-05-13T15:04:20.000Z</time>
      </trkpt>
      <trkpt lat="44.2258" lon="5.422">
        <ele>839</ele>
        <time>2026-05-13T15:04:21.000Z</time>
      </trkpt>
      <trkpt lat="44.2258" lon="5.42199">
        <ele>839</ele>
        <time>2026-05-13T15:04:22.000Z</time>
      </trkpt>
      <trkpt lat="44.22581" lon="5.42197">
        <ele>838</ele>
        <time>2026-05-13T15:04:23.000Z</time>
      </trkpt>
      <trkpt lat="44.22582" lon="5.42194">
        <ele>838</ele>
        <time>2026-05-13T15:04:24.000Z</time>
      </trkpt>
      <trkpt lat="44.22582" lon="5.42192">
        <ele>839</ele>
        <time>2026-05-13T15:04:25.000Z</time>
      </trkpt>
      <trkpt lat="44.22582" lon="5.4219">
        <ele>840</ele>
        <time>2026-05-13T15:04:26.000Z</time>
      </trkpt>
      <trkpt lat="44.22582" lon="5.42188">
        <ele>839</ele>
        <time>2026-05-13T15:04:27.000Z</time>
      </trkpt>
      <trkpt lat="44.22582" lon="5.42185">
        <ele>840</ele>
        <time>2026-05-13T15:04:28.000Z</time>
      </trkpt>
      <trkpt lat="44.22581" lon="5.42182">
        <ele>840</ele>
        <time>2026-05-13T15:04:29.000Z</time>
      </trkpt>
      <trkpt lat="44.2258" lon="5.4218">
        <ele>840</ele>
        <time>2026-05-13T15:04:30.000Z</time>
      </trkpt>
      <trkpt lat="44.2258" lon="5.42178">
        <ele>840</ele>
        <time>2026-05-13T15:04:31.000Z</time>
      </trkpt>
      <trkpt lat="44.2258" lon="5.42176">
        <ele>840</ele>
        <time>2026-05-13T15:04:32.000Z</time>
      </trkpt>
      <trkpt lat="44.22579" lon="5.42174">
        <ele>840</ele>
        <time>2026-05-13T15:04:33.000Z</time>
      </trkpt>
      <trkpt lat="44.22579" lon="5.42172">
        <ele>840</ele>
        <time>2026-05-13T15:04:34.000Z</time>
      </trkpt>
      <trkpt lat="44.2258" lon="5.42169">
        <ele>841</ele>
        <time>2026-05-13T15:04:35.000Z</time>
      </trkpt>
      <trkpt lat="44.2258" lon="5.42167">
        <ele>842</ele>
        <time>2026-05-13T15:04:36.000Z</time>
      </trkpt>
      <trkpt lat="44.2258" lon="5.42165">
        <ele>842</ele>
        <time>2026-05-13T15:04:37.000Z</time>
      </trkpt>
      <trkpt lat="44.2258" lon="5.42163">
        <ele>842</ele>
        <time>2026-05-13T15:04:38.000Z</time>
      </trkpt>
      <trkpt lat="44.22581" lon="5.42161">
        <ele>842</ele>
        <time>2026-05-13T15:04:39.000Z</time>
      </trkpt>
      <trkpt lat="44.22581" lon="5.42159">
        <ele>842</ele>
        <time>2026-05-13T15:04:40.000Z</time>
      </trkpt>
      <trkpt lat="44.22581" lon="5.42157">
        <ele>842</ele>
        <time>2026-05-13T15:04:41.000Z</time>
      </trkpt>
      <trkpt lat="44.22582" lon="5.42155">
        <ele>842</ele>
        <time>2026-05-13T15:04:42.000Z</time>
      </trkpt>
      <trkpt lat="44.22582" lon="5.42154">
        <ele>842</ele>
        <time>2026-05-13T15:04:43.000Z</time>
      </trkpt>
      <trkpt lat="44.22582" lon="5.42152">
        <ele>843</ele>
        <time>2026-05-13T15:04:44.000Z</time>
      </trkpt>
      <trkpt lat="44.22582" lon="5.4215">
        <ele>843</ele>
        <time>2026-05-13T15:04:45.000Z</time>
      </trkpt>
      <trkpt lat="44.22583" lon="5.42147">
        <ele>843</ele>
        <time>2026-05-13T15:04:46.000Z</time>
      </trkpt>
      <trkpt lat="44.22583" lon="5.42145">
        <ele>843</ele>
        <time>2026-05-13T15:04:47.000Z</time>
      </trkpt>
      <trkpt lat="44.22584" lon="5.42143">
        <ele>844</ele>
        <time>2026-05-13T15:04:48.000Z</time>
      </trkpt>
      <trkpt lat="44.22584" lon="5.42141">
        <ele>844</ele>
        <time>2026-05-13T15:04:49.000Z</time>
      </trkpt>
      <trkpt lat="44.22584" lon="5.42139">
        <ele>844</ele>
        <time>2026-05-13T15:04:50.000Z</time>
      </trkpt>
      <trkpt lat="44.22584" lon="5.42136">
        <ele>844</ele>
        <time>2026-05-13T15:04:51.000Z</time>
      </trkpt>
      <trkpt lat="44.22584" lon="5.42134">
        <ele>845</ele>
        <time>2026-05-13T15:04:52.000Z</time>
      </trkpt>
      <trkpt lat="44.22584" lon="5.42133">
        <ele>846</ele>
        <time>2026-05-13T15:04:53.000Z</time>
      </trkpt>
      <trkpt lat="44.22584" lon="5.4213">
        <ele>845</ele>
        <time>2026-05-13T15:04:54.000Z</time>
      </trkpt>
      <trkpt lat="44.22585" lon="5.42129">
        <ele>845</ele>
        <time>2026-05-13T15:04:55.000Z</time>
      </trkpt>
      <trkpt lat="44.22585" lon="5.42127">
        <ele>845</ele>
        <time>2026-05-13T15:04:56.000Z</time>
      </trkpt>
      <trkpt lat="44.22585" lon="5.42124">
        <ele>845</ele>
        <time>2026-05-13T15:04:57.000Z</time>
      </trkpt>
      <trkpt lat="44.22585" lon="5.42121">
        <ele>845</ele>
        <time>2026-05-13T15:04:58.000Z</time>
      </trkpt>
      <trkpt lat="44.22585" lon="5.42119">
        <ele>845</ele>
        <time>2026-05-13T15:04:59.000Z</time>
      </trkpt>
      <trkpt lat="44.22586" lon="5.42117">
        <ele>845</ele>
        <time>2026-05-13T15:05:00.000Z</time>
      </trkpt>
      <trkpt lat="44.22586" lon="5.42115">
        <ele>845</ele>
        <time>2026-05-13T15:05:01.000Z</time>
      </trkpt>
      <trkpt lat="44.22587" lon="5.42113">
        <ele>845</ele>
        <time>2026-05-13T15:05:02.000Z</time>
      </trkpt>
      <trkpt lat="44.22587" lon="5.42111">
        <ele>844</ele>
        <time>2026-05-13T15:05:03.000Z</time>
      </trkpt>
      <trkpt lat="44.22588" lon="5.42109">
        <ele>845</ele>
        <time>2026-05-13T15:05:04.000Z</time>
      </trkpt>
      <trkpt lat="44.22588" lon="5.42106">
        <ele>845</ele>
        <time>2026-05-13T15:05:05.000Z</time>
      </trkpt>
      <trkpt lat="44.22588" lon="5.42104">
        <ele>845</ele>
        <time>2026-05-13T15:05:06.000Z</time>
      </trkpt>
      <trkpt lat="44.22587" lon="5.42102">
        <ele>845</ele>
        <time>2026-05-13T15:05:07.000Z</time>
      </trkpt>
      <trkpt lat="44.22588" lon="5.42101">
        <ele>847</ele>
        <time>2026-05-13T15:05:08.000Z</time>
      </trkpt>
      <trkpt lat="44.22587" lon="5.42099">
        <ele>846</ele>
        <time>2026-05-13T15:05:09.000Z</time>
      </trkpt>
      <trkpt lat="44.22588" lon="5.42097">
        <ele>846</ele>
        <time>2026-05-13T15:05:10.000Z</time>
      </trkpt>
      <trkpt lat="44.22588" lon="5.42094">
        <ele>845</ele>
        <time>2026-05-13T15:05:11.000Z</time>
      </trkpt>
      <trkpt lat="44.22588" lon="5.42093">
        <ele>846</ele>
        <time>2026-05-13T15:05:12.000Z</time>
      </trkpt>
      <trkpt lat="44.22588" lon="5.4209">
        <ele>846</ele>
        <time>2026-05-13T15:05:13.000Z</time>
      </trkpt>
      <trkpt lat="44.22589" lon="5.42087">
        <ele>846</ele>
        <time>2026-05-13T15:05:14.000Z</time>
      </trkpt>
      <trkpt lat="44.2259" lon="5.42086">
        <ele>846</ele>
        <time>2026-05-13T15:05:15.000Z</time>
      </trkpt>
      <trkpt lat="44.2259" lon="5.42084">
        <ele>846</ele>
        <time>2026-05-13T15:05:16.000Z</time>
      </trkpt>
      <trkpt lat="44.22591" lon="5.42082">
        <ele>846</ele>
        <time>2026-05-13T15:05:17.000Z</time>
      </trkpt>
      <trkpt lat="44.22592" lon="5.42079">
        <ele>846</ele>
        <time>2026-05-13T15:05:18.000Z</time>
      </trkpt>
      <trkpt lat="44.22593" lon="5.42077">
        <ele>847</ele>
        <time>2026-05-13T15:05:19.000Z</time>
      </trkpt>
      <trkpt lat="44.22594" lon="5.42075">
        <ele>847</ele>
        <time>2026-05-13T15:05:20.000Z</time>
      </trkpt>
      <trkpt lat="44.22595" lon="5.42073">
        <ele>847</ele>
        <time>2026-05-13T15:05:21.000Z</time>
      </trkpt>
      <trkpt lat="44.22596" lon="5.4207">
        <ele>847</ele>
        <time>2026-05-13T15:05:22.000Z</time>
      </trkpt>
      <trkpt lat="44.22598" lon="5.42068">
        <ele>846</ele>
        <time>2026-05-13T15:05:23.000Z</time>
      </trkpt>
      <trkpt lat="44.22599" lon="5.42066">
        <ele>847</ele>
        <time>2026-05-13T15:05:24.000Z</time>
      </trkpt>
      <trkpt lat="44.226" lon="5.42064">
        <ele>846</ele>
        <time>2026-05-13T15:05:25.000Z</time>
      </trkpt>
      <trkpt lat="44.22602" lon="5.42061">
        <ele>846</ele>
        <time>2026-05-13T15:05:26.000Z</time>
      </trkpt>
      <trkpt lat="44.22603" lon="5.42058">
        <ele>846</ele>
        <time>2026-05-13T15:05:27.000Z</time>
      </trkpt>
      <trkpt lat="44.22604" lon="5.42057">
        <ele>846</ele>
        <time>2026-05-13T15:05:28.000Z</time>
      </trkpt>
      <trkpt lat="44.22605" lon="5.42055">
        <ele>846</ele>
        <time>2026-05-13T15:05:29.000Z</time>
      </trkpt>
      <trkpt lat="44.22607" lon="5.42052">
        <ele>846</ele>
        <time>2026-05-13T15:05:30.000Z</time>
      </trkpt>
      <trkpt lat="44.22608" lon="5.4205">
        <ele>846</ele>
        <time>2026-05-13T15:05:31.000Z</time>
      </trkpt>
      <trkpt lat="44.22609" lon="5.42047">
        <ele>847</ele>
        <time>2026-05-13T15:05:32.000Z</time>
      </trkpt>
      <trkpt lat="44.2261" lon="5.42045">
        <ele>847</ele>
        <time>2026-05-13T15:05:33.000Z</time>
      </trkpt>
      <trkpt lat="44.22611" lon="5.42042">
        <ele>847</ele>
        <time>2026-05-13T15:05:34.000Z</time>
      </trkpt>
      <trkpt lat="44.22612" lon="5.4204">
        <ele>847</ele>
        <time>2026-05-13T15:05:35.000Z</time>
      </trkpt>
      <trkpt lat="44.22613" lon="5.42038">
        <ele>847</ele>
        <time>2026-05-13T15:05:36.000Z</time>
      </trkpt>
      <trkpt lat="44.22614" lon="5.42035">
        <ele>847</ele>
        <time>2026-05-13T15:05:37.000Z</time>
      </trkpt>
      <trkpt lat="44.22615" lon="5.42033">
        <ele>848</ele>
        <time>2026-05-13T15:05:38.000Z</time>
      </trkpt>
      <trkpt lat="44.22616" lon="5.42031">
        <ele>848</ele>
        <time>2026-05-13T15:05:39.000Z</time>
      </trkpt>
      <trkpt lat="44.22618" lon="5.42028">
        <ele>848</ele>
        <time>2026-05-13T15:05:40.000Z</time>
      </trkpt>
      <trkpt lat="44.22618" lon="5.42025">
        <ele>848</ele>
        <time>2026-05-13T15:05:41.000Z</time>
      </trkpt>
      <trkpt lat="44.2262" lon="5.42023">
        <ele>848</ele>
        <time>2026-05-13T15:05:42.000Z</time>
      </trkpt>
      <trkpt lat="44.22621" lon="5.4202">
        <ele>848</ele>
        <time>2026-05-13T15:05:43.000Z</time>
      </trkpt>
      <trkpt lat="44.22621" lon="5.42017">
        <ele>848</ele>
        <time>2026-05-13T15:05:44.000Z</time>
      </trkpt>
      <trkpt lat="44.22622" lon="5.42015">
        <ele>848</ele>
        <time>2026-05-13T15:05:45.000Z</time>
      </trkpt>
      <trkpt lat="44.22623" lon="5.42012">
        <ele>848</ele>
        <time>2026-05-13T15:05:46.000Z</time>
      </trkpt>
      <trkpt lat="44.22624" lon="5.4201">
        <ele>848</ele>
        <time>2026-05-13T15:05:47.000Z</time>
      </trkpt>
      <trkpt lat="44.22625" lon="5.42006">
        <ele>848</ele>
        <time>2026-05-13T15:05:48.000Z</time>
      </trkpt>
      <trkpt lat="44.22625" lon="5.42003">
        <ele>849</ele>
        <time>2026-05-13T15:05:49.000Z</time>
      </trkpt>
      <trkpt lat="44.22626" lon="5.42001">
        <ele>849</ele>
        <time>2026-05-13T15:05:50.000Z</time>
      </trkpt>
      <trkpt lat="44.22628" lon="5.41998">
        <ele>849</ele>
        <time>2026-05-13T15:05:51.000Z</time>
      </trkpt>
      <trkpt lat="44.22628" lon="5.41995">
        <ele>850</ele>
        <time>2026-05-13T15:05:52.000Z</time>
      </trkpt>
      <trkpt lat="44.22629" lon="5.41993">
        <ele>850</ele>
        <time>2026-05-13T15:05:53.000Z</time>
      </trkpt>
      <trkpt lat="44.2263" lon="5.41991">
        <ele>850</ele>
        <time>2026-05-13T15:05:54.000Z</time>
      </trkpt>
      <trkpt lat="44.22631" lon="5.41988">
        <ele>850</ele>
        <time>2026-05-13T15:05:55.000Z</time>
      </trkpt>
      <trkpt lat="44.22631" lon="5.41985">
        <ele>850</ele>
        <time>2026-05-13T15:05:56.000Z</time>
      </trkpt>
      <trkpt lat="44.22632" lon="5.41983">
        <ele>850</ele>
        <time>2026-05-13T15:05:57.000Z</time>
      </trkpt>
      <trkpt lat="44.22632" lon="5.4198">
        <ele>850</ele>
        <time>2026-05-13T15:05:58.000Z</time>
      </trkpt>
      <trkpt lat="44.22632" lon="5.41978">
        <ele>850</ele>
        <time>2026-05-13T15:05:59.000Z</time>
      </trkpt>
      <trkpt lat="44.22632" lon="5.41975">
        <ele>850</ele>
        <time>2026-05-13T15:06:00.000Z</time>
      </trkpt>
      <trkpt lat="44.22633" lon="5.41973">
        <ele>850</ele>
        <time>2026-05-13T15:06:01.000Z</time>
      </trkpt>
      <trkpt lat="44.22634" lon="5.4197">
        <ele>850</ele>
        <time>2026-05-13T15:06:02.000Z</time>
      </trkpt>
      <trkpt lat="44.22635" lon="5.41967">
        <ele>851</ele>
        <time>2026-05-13T15:06:03.000Z</time>
      </trkpt>
      <trkpt lat="44.22636" lon="5.41965">
        <ele>851</ele>
        <time>2026-05-13T15:06:04.000Z</time>
      </trkpt>
      <trkpt lat="44.22636" lon="5.41962">
        <ele>851</ele>
        <time>2026-05-13T15:06:05.000Z</time>
      </trkpt>
      <trkpt lat="44.22637" lon="5.41959">
        <ele>851</ele>
        <time>2026-05-13T15:06:06.000Z</time>
      </trkpt>
      <trkpt lat="44.22638" lon="5.41956">
        <ele>850</ele>
        <time>2026-05-13T15:06:07.000Z</time>
      </trkpt>
      <trkpt lat="44.22639" lon="5.41952">
        <ele>851</ele>
        <time>2026-05-13T15:06:08.000Z</time>
      </trkpt>
      <trkpt lat="44.2264" lon="5.41947">
        <ele>851</ele>
        <time>2026-05-13T15:06:09.000Z</time>
      </trkpt>
      <trkpt lat="44.22642" lon="5.41943">
        <ele>850</ele>
        <time>2026-05-13T15:06:10.000Z</time>
      </trkpt>
      <trkpt lat="44.22643" lon="5.41937">
        <ele>850</ele>
        <time>2026-05-13T15:06:11.000Z</time>
      </trkpt>
      <trkpt lat="44.22646" lon="5.41932">
        <ele>849</ele>
        <time>2026-05-13T15:06:12.000Z</time>
      </trkpt>
      <trkpt lat="44.22648" lon="5.41926">
        <ele>848</ele>
        <time>2026-05-13T15:06:13.000Z</time>
      </trkpt>
      <trkpt lat="44.22649" lon="5.41919">
        <ele>847</ele>
        <time>2026-05-13T15:06:14.000Z</time>
      </trkpt>
      <trkpt lat="44.2265" lon="5.41912">
        <ele>847</ele>
        <time>2026-05-13T15:06:15.000Z</time>
      </trkpt>
      <trkpt lat="44.22651" lon="5.41905">
        <ele>847</ele>
        <time>2026-05-13T15:06:16.000Z</time>
      </trkpt>
      <trkpt lat="44.22651" lon="5.41896">
        <ele>847</ele>
        <time>2026-05-13T15:06:17.000Z</time>
      </trkpt>
      <trkpt lat="44.22652" lon="5.41889">
        <ele>847</ele>
        <time>2026-05-13T15:06:18.000Z</time>
      </trkpt>
      <trkpt lat="44.22652" lon="5.41881">
        <ele>846</ele>
        <time>2026-05-13T15:06:19.000Z</time>
      </trkpt>
      <trkpt lat="44.22653" lon="5.41875">
        <ele>846</ele>
        <time>2026-05-13T15:06:20.000Z</time>
      </trkpt>
      <trkpt lat="44.22653" lon="5.41867">
        <ele>846</ele>
        <time>2026-05-13T15:06:21.000Z</time>
      </trkpt>
      <trkpt lat="44.22653" lon="5.41861">
        <ele>846</ele>
        <time>2026-05-13T15:06:22.000Z</time>
      </trkpt>
      <trkpt lat="44.22654" lon="5.41854">
        <ele>846</ele>
        <time>2026-05-13T15:06:23.000Z</time>
      </trkpt>
      <trkpt lat="44.22653" lon="5.41849">
        <ele>846</ele>
        <time>2026-05-13T15:06:24.000Z</time>
      </trkpt>
      <trkpt lat="44.22653" lon="5.41843">
        <ele>846</ele>
        <time>2026-05-13T15:06:25.000Z</time>
      </trkpt>
      <trkpt lat="44.22652" lon="5.41837">
        <ele>846</ele>
        <time>2026-05-13T15:06:26.000Z</time>
      </trkpt>
      <trkpt lat="44.2265" lon="5.41833">
        <ele>846</ele>
        <time>2026-05-13T15:06:27.000Z</time>
      </trkpt>
      <trkpt lat="44.22648" lon="5.41827">
        <ele>846</ele>
        <time>2026-05-13T15:06:28.000Z</time>
      </trkpt>
      <trkpt lat="44.22646" lon="5.41823">
        <ele>846</ele>
        <time>2026-05-13T15:06:29.000Z</time>
      </trkpt>
      <trkpt lat="44.22644" lon="5.41819">
        <ele>847</ele>
        <time>2026-05-13T15:06:30.000Z</time>
      </trkpt>
      <trkpt lat="44.22642" lon="5.41814">
        <ele>847</ele>
        <time>2026-05-13T15:06:31.000Z</time>
      </trkpt>
      <trkpt lat="44.2264" lon="5.4181">
        <ele>846</ele>
        <time>2026-05-13T15:06:32.000Z</time>
      </trkpt>
      <trkpt lat="44.22638" lon="5.41806">
        <ele>846</ele>
        <time>2026-05-13T15:06:33.000Z</time>
      </trkpt>
      <trkpt lat="44.22636" lon="5.41802">
        <ele>846</ele>
        <time>2026-05-13T15:06:34.000Z</time>
      </trkpt>
      <trkpt lat="44.22634" lon="5.41798">
        <ele>846</ele>
        <time>2026-05-13T15:06:35.000Z</time>
      </trkpt>
      <trkpt lat="44.22632" lon="5.41793">
        <ele>846</ele>
        <time>2026-05-13T15:06:36.000Z</time>
      </trkpt>
      <trkpt lat="44.2263" lon="5.41789">
        <ele>846</ele>
        <time>2026-05-13T15:06:37.000Z</time>
      </trkpt>
      <trkpt lat="44.22628" lon="5.41785">
        <ele>846</ele>
        <time>2026-05-13T15:06:38.000Z</time>
      </trkpt>
      <trkpt lat="44.22626" lon="5.41782">
        <ele>846</ele>
        <time>2026-05-13T15:06:39.000Z</time>
      </trkpt>
      <trkpt lat="44.22623" lon="5.4178">
        <ele>846</ele>
        <time>2026-05-13T15:06:40.000Z</time>
      </trkpt>
      <trkpt lat="44.22621" lon="5.41777">
        <ele>846</ele>
        <time>2026-05-13T15:06:41.000Z</time>
      </trkpt>
      <trkpt lat="44.22618" lon="5.41773">
        <ele>846</ele>
        <time>2026-05-13T15:06:42.000Z</time>
      </trkpt>
      <trkpt lat="44.22616" lon="5.4177">
        <ele>845</ele>
        <time>2026-05-13T15:06:43.000Z</time>
      </trkpt>
      <trkpt lat="44.22613" lon="5.41766">
        <ele>845</ele>
        <time>2026-05-13T15:06:44.000Z</time>
      </trkpt>
      <trkpt lat="44.2261" lon="5.41761">
        <ele>844</ele>
        <time>2026-05-13T15:06:45.000Z</time>
      </trkpt>
      <trkpt lat="44.22607" lon="5.41756">
        <ele>843</ele>
        <time>2026-05-13T15:06:46.000Z</time>
      </trkpt>
      <trkpt lat="44.22604" lon="5.41751">
        <ele>843</ele>
        <time>2026-05-13T15:06:47.000Z</time>
      </trkpt>
      <trkpt lat="44.22601" lon="5.41746">
        <ele>842</ele>
        <time>2026-05-13T15:06:48.000Z</time>
      </trkpt>
      <trkpt lat="44.22597" lon="5.41742">
        <ele>842</ele>
        <time>2026-05-13T15:06:49.000Z</time>
      </trkpt>
      <trkpt lat="44.22593" lon="5.41736">
        <ele>842</ele>
        <time>2026-05-13T15:06:50.000Z</time>
      </trkpt>
      <trkpt lat="44.2259" lon="5.41731">
        <ele>842</ele>
        <time>2026-05-13T15:06:51.000Z</time>
      </trkpt>
      <trkpt lat="44.22586" lon="5.41726">
        <ele>842</ele>
        <time>2026-05-13T15:06:52.000Z</time>
      </trkpt>
      <trkpt lat="44.22583" lon="5.4172">
        <ele>842</ele>
        <time>2026-05-13T15:06:53.000Z</time>
      </trkpt>
      <trkpt lat="44.22581" lon="5.41713">
        <ele>842</ele>
        <time>2026-05-13T15:06:54.000Z</time>
      </trkpt>
      <trkpt lat="44.2258" lon="5.41709">
        <ele>842</ele>
        <time>2026-05-13T15:06:55.000Z</time>
      </trkpt>
      <trkpt lat="44.22578" lon="5.41703">
        <ele>842</ele>
        <time>2026-05-13T15:06:56.000Z</time>
      </trkpt>
      <trkpt lat="44.22577" lon="5.41698">
        <ele>843</ele>
        <time>2026-05-13T15:06:57.000Z</time>
      </trkpt>
      <trkpt lat="44.22576" lon="5.41696">
        <ele>842</ele>
        <time>2026-05-13T15:06:58.000Z</time>
      </trkpt>
      <trkpt lat="44.22577" lon="5.41694">
        <ele>842</ele>
        <time>2026-05-13T15:06:59.000Z</time>
      </trkpt>
      <trkpt lat="44.22577" lon="5.41694">
        <ele>842</ele>
        <time>2026-05-13T15:07:00.000Z</time>
      </trkpt>
      <trkpt lat="44.22576" lon="5.41692">
        <ele>843</ele>
        <time>2026-05-13T15:07:01.000Z</time>
      </trkpt>
      <trkpt lat="44.22576" lon="5.41691">
        <ele>843</ele>
        <time>2026-05-13T15:07:02.000Z</time>
      </trkpt>
      <trkpt lat="44.22576" lon="5.4169">
        <ele>843</ele>
        <time>2026-05-13T15:07:03.000Z</time>
      </trkpt>
      <trkpt lat="44.22576" lon="5.4169">
        <ele>843</ele>
        <time>2026-05-13T15:07:04.000Z</time>
      </trkpt>
      <trkpt lat="44.22576" lon="5.41687">
        <ele>844</ele>
        <time>2026-05-13T15:07:05.000Z</time>
      </trkpt>
      <trkpt lat="44.22577" lon="5.41685">
        <ele>845</ele>
        <time>2026-05-13T15:07:06.000Z</time>
      </trkpt>
      <trkpt lat="44.22577" lon="5.41685">
        <ele>845</ele>
        <time>2026-05-13T15:07:07.000Z</time>
      </trkpt>
      <trkpt lat="44.22577" lon="5.41685">
        <ele>845</ele>
        <time>2026-05-13T15:07:08.000Z</time>
      </trkpt>
      <trkpt lat="44.22577" lon="5.41684">
        <ele>845</ele>
        <time>2026-05-13T15:07:09.000Z</time>
      </trkpt>
      <trkpt lat="44.22577" lon="5.41682">
        <ele>845</ele>
        <time>2026-05-13T15:07:10.000Z</time>
      </trkpt>
      <trkpt lat="44.22577" lon="5.41681">
        <ele>844</ele>
        <time>2026-05-13T15:07:11.000Z</time>
      </trkpt>
      <trkpt lat="44.22577" lon="5.41681">
        <ele>844</ele>
        <time>2026-05-13T15:07:12.000Z</time>
      </trkpt>
      <trkpt lat="44.22577" lon="5.41679">
        <ele>844</ele>
        <time>2026-05-13T15:07:13.000Z</time>
      </trkpt>
      <trkpt lat="44.22576" lon="5.41677">
        <ele>844</ele>
        <time>2026-05-13T15:07:14.000Z</time>
      </trkpt>
      <trkpt lat="44.22576" lon="5.41674">
        <ele>844</ele>
        <time>2026-05-13T15:07:15.000Z</time>
      </trkpt>
      <trkpt lat="44.22577" lon="5.41672">
        <ele>844</ele>
        <time>2026-05-13T15:07:16.000Z</time>
      </trkpt>
      <trkpt lat="44.22578" lon="5.4167">
        <ele>844</ele>
        <time>2026-05-13T15:07:17.000Z</time>
      </trkpt>
      <trkpt lat="44.22579" lon="5.41667">
        <ele>844</ele>
        <time>2026-05-13T15:07:18.000Z</time>
      </trkpt>
      <trkpt lat="44.22579" lon="5.41664">
        <ele>844</ele>
        <time>2026-05-13T15:07:19.000Z</time>
      </trkpt>
      <trkpt lat="44.22579" lon="5.41661">
        <ele>844</ele>
        <time>2026-05-13T15:07:20.000Z</time>
      </trkpt>
      <trkpt lat="44.2258" lon="5.41659">
        <ele>844</ele>
        <time>2026-05-13T15:07:21.000Z</time>
      </trkpt>
      <trkpt lat="44.22581" lon="5.41655">
        <ele>844</ele>
        <time>2026-05-13T15:07:22.000Z</time>
      </trkpt>
      <trkpt lat="44.22581" lon="5.41652">
        <ele>844</ele>
        <time>2026-05-13T15:07:23.000Z</time>
      </trkpt>
      <trkpt lat="44.22582" lon="5.41648">
        <ele>844</ele>
        <time>2026-05-13T15:07:24.000Z</time>
      </trkpt>
      <trkpt lat="44.22582" lon="5.41644">
        <ele>844</ele>
        <time>2026-05-13T15:07:25.000Z</time>
      </trkpt>
      <trkpt lat="44.22583" lon="5.4164">
        <ele>844</ele>
        <time>2026-05-13T15:07:26.000Z</time>
      </trkpt>
      <trkpt lat="44.22583" lon="5.41637">
        <ele>844</ele>
        <time>2026-05-13T15:07:27.000Z</time>
      </trkpt>
      <trkpt lat="44.22584" lon="5.41633">
        <ele>844</ele>
        <time>2026-05-13T15:07:28.000Z</time>
      </trkpt>
      <trkpt lat="44.22585" lon="5.4163">
        <ele>844</ele>
        <time>2026-05-13T15:07:29.000Z</time>
      </trkpt>
      <trkpt lat="44.22586" lon="5.41627">
        <ele>845</ele>
        <time>2026-05-13T15:07:30.000Z</time>
      </trkpt>
      <trkpt lat="44.22586" lon="5.41624">
        <ele>845</ele>
        <time>2026-05-13T15:07:31.000Z</time>
      </trkpt>
      <trkpt lat="44.22588" lon="5.41622">
        <ele>845</ele>
        <time>2026-05-13T15:07:32.000Z</time>
      </trkpt>
      <trkpt lat="44.22588" lon="5.41618">
        <ele>845</ele>
        <time>2026-05-13T15:07:33.000Z</time>
      </trkpt>
      <trkpt lat="44.22589" lon="5.41616">
        <ele>845</ele>
        <time>2026-05-13T15:07:34.000Z</time>
      </trkpt>
      <trkpt lat="44.22589" lon="5.41612">
        <ele>845</ele>
        <time>2026-05-13T15:07:35.000Z</time>
      </trkpt>
      <trkpt lat="44.22589" lon="5.41609">
        <ele>845</ele>
        <time>2026-05-13T15:07:36.000Z</time>
      </trkpt>
      <trkpt lat="44.2259" lon="5.41607">
        <ele>846</ele>
        <time>2026-05-13T15:07:37.000Z</time>
      </trkpt>
      <trkpt lat="44.22591" lon="5.41604">
        <ele>846</ele>
        <time>2026-05-13T15:07:38.000Z</time>
      </trkpt>
      <trkpt lat="44.22592" lon="5.41601">
        <ele>846</ele>
        <time>2026-05-13T15:07:39.000Z</time>
      </trkpt>
      <trkpt lat="44.22592" lon="5.41599">
        <ele>847</ele>
        <time>2026-05-13T15:07:40.000Z</time>
      </trkpt>
      <trkpt lat="44.22592" lon="5.41598">
        <ele>846</ele>
        <time>2026-05-13T15:07:41.000Z</time>
      </trkpt>
      <trkpt lat="44.22592" lon="5.41595">
        <ele>847</ele>
        <time>2026-05-13T15:07:42.000Z</time>
      </trkpt>
      <trkpt lat="44.22593" lon="5.41593">
        <ele>847</ele>
        <time>2026-05-13T15:07:43.000Z</time>
      </trkpt>
      <trkpt lat="44.22594" lon="5.41591">
        <ele>846</ele>
        <time>2026-05-13T15:07:44.000Z</time>
      </trkpt>
      <trkpt lat="44.22594" lon="5.41588">
        <ele>846</ele>
        <time>2026-05-13T15:07:45.000Z</time>
      </trkpt>
      <trkpt lat="44.22595" lon="5.41587">
        <ele>846</ele>
        <time>2026-05-13T15:07:46.000Z</time>
      </trkpt>
      <trkpt lat="44.22596" lon="5.41584">
        <ele>846</ele>
        <time>2026-05-13T15:07:47.000Z</time>
      </trkpt>
      <trkpt lat="44.22597" lon="5.41582">
        <ele>847</ele>
        <time>2026-05-13T15:07:48.000Z</time>
      </trkpt>
      <trkpt lat="44.22598" lon="5.41579">
        <ele>847</ele>
        <time>2026-05-13T15:07:49.000Z</time>
      </trkpt>
      <trkpt lat="44.22598" lon="5.41576">
        <ele>847</ele>
        <time>2026-05-13T15:07:50.000Z</time>
      </trkpt>
      <trkpt lat="44.226" lon="5.41574">
        <ele>847</ele>
        <time>2026-05-13T15:07:51.000Z</time>
      </trkpt>
      <trkpt lat="44.22601" lon="5.41573">
        <ele>847</ele>
        <time>2026-05-13T15:07:52.000Z</time>
      </trkpt>
      <trkpt lat="44.22602" lon="5.4157">
        <ele>847</ele>
        <time>2026-05-13T15:07:53.000Z</time>
      </trkpt>
      <trkpt lat="44.22603" lon="5.41569">
        <ele>847</ele>
        <time>2026-05-13T15:07:54.000Z</time>
      </trkpt>
      <trkpt lat="44.22603" lon="5.41566">
        <ele>847</ele>
        <time>2026-05-13T15:07:55.000Z</time>
      </trkpt>
      <trkpt lat="44.22604" lon="5.41565">
        <ele>847</ele>
        <time>2026-05-13T15:07:56.000Z</time>
      </trkpt>
      <trkpt lat="44.22605" lon="5.41563">
        <ele>847</ele>
        <time>2026-05-13T15:07:57.000Z</time>
      </trkpt>
      <trkpt lat="44.22605" lon="5.4156">
        <ele>847</ele>
        <time>2026-05-13T15:07:58.000Z</time>
      </trkpt>
      <trkpt lat="44.22606" lon="5.41557">
        <ele>847</ele>
        <time>2026-05-13T15:07:59.000Z</time>
      </trkpt>
      <trkpt lat="44.22606" lon="5.41554">
        <ele>847</ele>
        <time>2026-05-13T15:08:00.000Z</time>
      </trkpt>
      <trkpt lat="44.22606" lon="5.41551">
        <ele>847</ele>
        <time>2026-05-13T15:08:01.000Z</time>
      </trkpt>
      <trkpt lat="44.22606" lon="5.41548">
        <ele>849</ele>
        <time>2026-05-13T15:08:02.000Z</time>
      </trkpt>
      <trkpt lat="44.22607" lon="5.41547">
        <ele>849</ele>
        <time>2026-05-13T15:08:03.000Z</time>
      </trkpt>
      <trkpt lat="44.22606" lon="5.41544">
        <ele>849</ele>
        <time>2026-05-13T15:08:04.000Z</time>
      </trkpt>
      <trkpt lat="44.22606" lon="5.41542">
        <ele>848</ele>
        <time>2026-05-13T15:08:05.000Z</time>
      </trkpt>
      <trkpt lat="44.22607" lon="5.4154">
        <ele>849</ele>
        <time>2026-05-13T15:08:06.000Z</time>
      </trkpt>
      <trkpt lat="44.22607" lon="5.41538">
        <ele>849</ele>
        <time>2026-05-13T15:08:07.000Z</time>
      </trkpt>
      <trkpt lat="44.22607" lon="5.41536">
        <ele>849</ele>
        <time>2026-05-13T15:08:08.000Z</time>
      </trkpt>
      <trkpt lat="44.22607" lon="5.41534">
        <ele>849</ele>
        <time>2026-05-13T15:08:09.000Z</time>
      </trkpt>
      <trkpt lat="44.22607" lon="5.41531">
        <ele>850</ele>
        <time>2026-05-13T15:08:10.000Z</time>
      </trkpt>
      <trkpt lat="44.22608" lon="5.41529">
        <ele>850</ele>
        <time>2026-05-13T15:08:11.000Z</time>
      </trkpt>
      <trkpt lat="44.22609" lon="5.41527">
        <ele>851</ele>
        <time>2026-05-13T15:08:12.000Z</time>
      </trkpt>
      <trkpt lat="44.22609" lon="5.41525">
        <ele>851</ele>
        <time>2026-05-13T15:08:13.000Z</time>
      </trkpt>
      <trkpt lat="44.22609" lon="5.41524">
        <ele>851</ele>
        <time>2026-05-13T15:08:14.000Z</time>
      </trkpt>
      <trkpt lat="44.22609" lon="5.41522">
        <ele>851</ele>
        <time>2026-05-13T15:08:15.000Z</time>
      </trkpt>
      <trkpt lat="44.22609" lon="5.4152">
        <ele>851</ele>
        <time>2026-05-13T15:08:16.000Z</time>
      </trkpt>
      <trkpt lat="44.2261" lon="5.41519">
        <ele>851</ele>
        <time>2026-05-13T15:08:17.000Z</time>
      </trkpt>
      <trkpt lat="44.22611" lon="5.41517">
        <ele>852</ele>
        <time>2026-05-13T15:08:18.000Z</time>
      </trkpt>
      <trkpt lat="44.22611" lon="5.41515">
        <ele>852</ele>
        <time>2026-05-13T15:08:19.000Z</time>
      </trkpt>
      <trkpt lat="44.22611" lon="5.41514">
        <ele>852</ele>
        <time>2026-05-13T15:08:20.000Z</time>
      </trkpt>
      <trkpt lat="44.22611" lon="5.41513">
        <ele>852</ele>
        <time>2026-05-13T15:08:21.000Z</time>
      </trkpt>
      <trkpt lat="44.22611" lon="5.41511">
        <ele>852</ele>
        <time>2026-05-13T15:08:22.000Z</time>
      </trkpt>
      <trkpt lat="44.22611" lon="5.41509">
        <ele>852</ele>
        <time>2026-05-13T15:08:23.000Z</time>
      </trkpt>
      <trkpt lat="44.2261" lon="5.41506">
        <ele>852</ele>
        <time>2026-05-13T15:08:24.000Z</time>
      </trkpt>
      <trkpt lat="44.2261" lon="5.41504">
        <ele>853</ele>
        <time>2026-05-13T15:08:25.000Z</time>
      </trkpt>
      <trkpt lat="44.2261" lon="5.41503">
        <ele>852</ele>
        <time>2026-05-13T15:08:26.000Z</time>
      </trkpt>
      <trkpt lat="44.2261" lon="5.41502">
        <ele>853</ele>
        <time>2026-05-13T15:08:27.000Z</time>
      </trkpt>
      <trkpt lat="44.22611" lon="5.41501">
        <ele>853</ele>
        <time>2026-05-13T15:08:28.000Z</time>
      </trkpt>
      <trkpt lat="44.22611" lon="5.41499">
        <ele>853</ele>
        <time>2026-05-13T15:08:29.000Z</time>
      </trkpt>
      <trkpt lat="44.22611" lon="5.41497">
        <ele>853</ele>
        <time>2026-05-13T15:08:30.000Z</time>
      </trkpt>
      <trkpt lat="44.22612" lon="5.41495">
        <ele>854</ele>
        <time>2026-05-13T15:08:31.000Z</time>
      </trkpt>
      <trkpt lat="44.22612" lon="5.41494">
        <ele>854</ele>
        <time>2026-05-13T15:08:32.000Z</time>
      </trkpt>
      <trkpt lat="44.22613" lon="5.41492">
        <ele>854</ele>
        <time>2026-05-13T15:08:33.000Z</time>
      </trkpt>
      <trkpt lat="44.22613" lon="5.4149">
        <ele>854</ele>
        <time>2026-05-13T15:08:34.000Z</time>
      </trkpt>
      <trkpt lat="44.22613" lon="5.41488">
        <ele>855</ele>
        <time>2026-05-13T15:08:35.000Z</time>
      </trkpt>
      <trkpt lat="44.22614" lon="5.41486">
        <ele>854</ele>
        <time>2026-05-13T15:08:36.000Z</time>
      </trkpt>
      <trkpt lat="44.22615" lon="5.41484">
        <ele>855</ele>
        <time>2026-05-13T15:08:37.000Z</time>
      </trkpt>
      <trkpt lat="44.22615" lon="5.41481">
        <ele>856</ele>
        <time>2026-05-13T15:08:38.000Z</time>
      </trkpt>
      <trkpt lat="44.22616" lon="5.4148">
        <ele>855</ele>
        <time>2026-05-13T15:08:39.000Z</time>
      </trkpt>
      <trkpt lat="44.22616" lon="5.41479">
        <ele>856</ele>
        <time>2026-05-13T15:08:40.000Z</time>
      </trkpt>
      <trkpt lat="44.22616" lon="5.41477">
        <ele>856</ele>
        <time>2026-05-13T15:08:41.000Z</time>
      </trkpt>
      <trkpt lat="44.22617" lon="5.41475">
        <ele>857</ele>
        <time>2026-05-13T15:08:42.000Z</time>
      </trkpt>
      <trkpt lat="44.22617" lon="5.41472">
        <ele>858</ele>
        <time>2026-05-13T15:08:43.000Z</time>
      </trkpt>
      <trkpt lat="44.22617" lon="5.41471">
        <ele>859</ele>
        <time>2026-05-13T15:08:44.000Z</time>
      </trkpt>
      <trkpt lat="44.22616" lon="5.41469">
        <ele>858</ele>
        <time>2026-05-13T15:08:45.000Z</time>
      </trkpt>
      <trkpt lat="44.22616" lon="5.41468">
        <ele>858</ele>
        <time>2026-05-13T15:08:46.000Z</time>
      </trkpt>
      <trkpt lat="44.22616" lon="5.41466">
        <ele>858</ele>
        <time>2026-05-13T15:08:47.000Z</time>
      </trkpt>
      <trkpt lat="44.22615" lon="5.41465">
        <ele>858</ele>
        <time>2026-05-13T15:08:48.000Z</time>
      </trkpt>
      <trkpt lat="44.22615" lon="5.41464">
        <ele>857</ele>
        <time>2026-05-13T15:08:49.000Z</time>
      </trkpt>
      <trkpt lat="44.22615" lon="5.41462">
        <ele>856</ele>
        <time>2026-05-13T15:08:50.000Z</time>
      </trkpt>
      <trkpt lat="44.22614" lon="5.4146">
        <ele>857</ele>
        <time>2026-05-13T15:08:51.000Z</time>
      </trkpt>
      <trkpt lat="44.22614" lon="5.41458">
        <ele>856</ele>
        <time>2026-05-13T15:08:52.000Z</time>
      </trkpt>
      <trkpt lat="44.22614" lon="5.41456">
        <ele>857</ele>
        <time>2026-05-13T15:08:53.000Z</time>
      </trkpt>
      <trkpt lat="44.22614" lon="5.41455">
        <ele>857</ele>
        <time>2026-05-13T15:08:54.000Z</time>
      </trkpt>
      <trkpt lat="44.22614" lon="5.41453">
        <ele>858</ele>
        <time>2026-05-13T15:08:55.000Z</time>
      </trkpt>
      <trkpt lat="44.22615" lon="5.41451">
        <ele>859</ele>
        <time>2026-05-13T15:08:56.000Z</time>
      </trkpt>
      <trkpt lat="44.22615" lon="5.4145">
        <ele>860</ele>
        <time>2026-05-13T15:08:57.000Z</time>
      </trkpt>
      <trkpt lat="44.22614" lon="5.41449">
        <ele>859</ele>
        <time>2026-05-13T15:08:58.000Z</time>
      </trkpt>
      <trkpt lat="44.22615" lon="5.41447">
        <ele>860</ele>
        <time>2026-05-13T15:08:59.000Z</time>
      </trkpt>
      <trkpt lat="44.22614" lon="5.41446">
        <ele>860</ele>
        <time>2026-05-13T15:09:00.000Z</time>
      </trkpt>
      <trkpt lat="44.22614" lon="5.41444">
        <ele>861</ele>
        <time>2026-05-13T15:09:01.000Z</time>
      </trkpt>
      <trkpt lat="44.22615" lon="5.41444">
        <ele>861</ele>
        <time>2026-05-13T15:09:02.000Z</time>
      </trkpt>
      <trkpt lat="44.22615" lon="5.41442">
        <ele>861</ele>
        <time>2026-05-13T15:09:03.000Z</time>
      </trkpt>
      <trkpt lat="44.22615" lon="5.41441">
        <ele>861</ele>
        <time>2026-05-13T15:09:04.000Z</time>
      </trkpt>
      <trkpt lat="44.22615" lon="5.41438">
        <ele>861</ele>
        <time>2026-05-13T15:09:05.000Z</time>
      </trkpt>
      <trkpt lat="44.22615" lon="5.41436">
        <ele>861</ele>
        <time>2026-05-13T15:09:06.000Z</time>
      </trkpt>
      <trkpt lat="44.22616" lon="5.41434">
        <ele>861</ele>
        <time>2026-05-13T15:09:07.000Z</time>
      </trkpt>
      <trkpt lat="44.22617" lon="5.41433">
        <ele>861</ele>
        <time>2026-05-13T15:09:08.000Z</time>
      </trkpt>
      <trkpt lat="44.22618" lon="5.41431">
        <ele>861</ele>
        <time>2026-05-13T15:09:09.000Z</time>
      </trkpt>
      <trkpt lat="44.22619" lon="5.41431">
        <ele>861</ele>
        <time>2026-05-13T15:09:10.000Z</time>
      </trkpt>
      <trkpt lat="44.22619" lon="5.41429">
        <ele>861</ele>
        <time>2026-05-13T15:09:11.000Z</time>
      </trkpt>
      <trkpt lat="44.22621" lon="5.41427">
        <ele>861</ele>
        <time>2026-05-13T15:09:12.000Z</time>
      </trkpt>
      <trkpt lat="44.22621" lon="5.41426">
        <ele>861</ele>
        <time>2026-05-13T15:09:13.000Z</time>
      </trkpt>
      <trkpt lat="44.22622" lon="5.41424">
        <ele>861</ele>
        <time>2026-05-13T15:09:14.000Z</time>
      </trkpt>
      <trkpt lat="44.22623" lon="5.41423">
        <ele>861</ele>
        <time>2026-05-13T15:09:15.000Z</time>
      </trkpt>
      <trkpt lat="44.22623" lon="5.41421">
        <ele>861</ele>
        <time>2026-05-13T15:09:16.000Z</time>
      </trkpt>
      <trkpt lat="44.22624" lon="5.41419">
        <ele>861</ele>
        <time>2026-05-13T15:09:17.000Z</time>
      </trkpt>
      <trkpt lat="44.22625" lon="5.41417">
        <ele>862</ele>
        <time>2026-05-13T15:09:18.000Z</time>
      </trkpt>
      <trkpt lat="44.22625" lon="5.41415">
        <ele>862</ele>
        <time>2026-05-13T15:09:19.000Z</time>
      </trkpt>
      <trkpt lat="44.22626" lon="5.41414">
        <ele>862</ele>
        <time>2026-05-13T15:09:20.000Z</time>
      </trkpt>
      <trkpt lat="44.22627" lon="5.41413">
        <ele>863</ele>
        <time>2026-05-13T15:09:21.000Z</time>
      </trkpt>
      <trkpt lat="44.22627" lon="5.41412">
        <ele>863</ele>
        <time>2026-05-13T15:09:22.000Z</time>
      </trkpt>
      <trkpt lat="44.22627" lon="5.4141">
        <ele>863</ele>
        <time>2026-05-13T15:09:23.000Z</time>
      </trkpt>
      <trkpt lat="44.22627" lon="5.41409">
        <ele>863</ele>
        <time>2026-05-13T15:09:24.000Z</time>
      </trkpt>
      <trkpt lat="44.22627" lon="5.41407">
        <ele>863</ele>
        <time>2026-05-13T15:09:25.000Z</time>
      </trkpt>
      <trkpt lat="44.22628" lon="5.41405">
        <ele>862</ele>
        <time>2026-05-13T15:09:26.000Z</time>
      </trkpt>
      <trkpt lat="44.22627" lon="5.41404">
        <ele>863</ele>
        <time>2026-05-13T15:09:27.000Z</time>
      </trkpt>
      <trkpt lat="44.22627" lon="5.41402">
        <ele>862</ele>
        <time>2026-05-13T15:09:28.000Z</time>
      </trkpt>
      <trkpt lat="44.22627" lon="5.414">
        <ele>862</ele>
        <time>2026-05-13T15:09:29.000Z</time>
      </trkpt>
      <trkpt lat="44.22627" lon="5.41398">
        <ele>863</ele>
        <time>2026-05-13T15:09:30.000Z</time>
      </trkpt>
      <trkpt lat="44.22627" lon="5.41397">
        <ele>862</ele>
        <time>2026-05-13T15:09:31.000Z</time>
      </trkpt>
      <trkpt lat="44.22627" lon="5.41395">
        <ele>862</ele>
        <time>2026-05-13T15:09:32.000Z</time>
      </trkpt>
      <trkpt lat="44.22627" lon="5.41394">
        <ele>863</ele>
        <time>2026-05-13T15:09:33.000Z</time>
      </trkpt>
      <trkpt lat="44.22627" lon="5.41392">
        <ele>863</ele>
        <time>2026-05-13T15:09:34.000Z</time>
      </trkpt>
      <trkpt lat="44.22626" lon="5.41391">
        <ele>863</ele>
        <time>2026-05-13T15:09:35.000Z</time>
      </trkpt>
      <trkpt lat="44.22626" lon="5.41389">
        <ele>863</ele>
        <time>2026-05-13T15:09:36.000Z</time>
      </trkpt>
      <trkpt lat="44.22625" lon="5.41387">
        <ele>863</ele>
        <time>2026-05-13T15:09:37.000Z</time>
      </trkpt>
      <trkpt lat="44.22625" lon="5.41385">
        <ele>864</ele>
        <time>2026-05-13T15:09:38.000Z</time>
      </trkpt>
      <trkpt lat="44.22625" lon="5.41383">
        <ele>863</ele>
        <time>2026-05-13T15:09:39.000Z</time>
      </trkpt>
      <trkpt lat="44.22624" lon="5.41381">
        <ele>864</ele>
        <time>2026-05-13T15:09:40.000Z</time>
      </trkpt>
      <trkpt lat="44.22624" lon="5.41378">
        <ele>864</ele>
        <time>2026-05-13T15:09:41.000Z</time>
      </trkpt>
      <trkpt lat="44.22624" lon="5.41377">
        <ele>863</ele>
        <time>2026-05-13T15:09:42.000Z</time>
      </trkpt>
      <trkpt lat="44.22623" lon="5.41376">
        <ele>864</ele>
        <time>2026-05-13T15:09:43.000Z</time>
      </trkpt>
      <trkpt lat="44.22623" lon="5.41375">
        <ele>864</ele>
        <time>2026-05-13T15:09:44.000Z</time>
      </trkpt>
      <trkpt lat="44.22622" lon="5.41372">
        <ele>864</ele>
        <time>2026-05-13T15:09:45.000Z</time>
      </trkpt>
      <trkpt lat="44.22623" lon="5.41371">
        <ele>864</ele>
        <time>2026-05-13T15:09:46.000Z</time>
      </trkpt>
      <trkpt lat="44.22623" lon="5.41369">
        <ele>865</ele>
        <time>2026-05-13T15:09:47.000Z</time>
      </trkpt>
      <trkpt lat="44.22624" lon="5.41367">
        <ele>864</ele>
        <time>2026-05-13T15:09:48.000Z</time>
      </trkpt>
      <trkpt lat="44.22624" lon="5.41365">
        <ele>864</ele>
        <time>2026-05-13T15:09:49.000Z</time>
      </trkpt>
      <trkpt lat="44.22624" lon="5.41364">
        <ele>864</ele>
        <time>2026-05-13T15:09:50.000Z</time>
      </trkpt>
      <trkpt lat="44.22624" lon="5.41362">
        <ele>863</ele>
        <time>2026-05-13T15:09:51.000Z</time>
      </trkpt>
      <trkpt lat="44.22624" lon="5.4136">
        <ele>864</ele>
        <time>2026-05-13T15:09:52.000Z</time>
      </trkpt>
      <trkpt lat="44.22625" lon="5.41358">
        <ele>864</ele>
        <time>2026-05-13T15:09:53.000Z</time>
      </trkpt>
      <trkpt lat="44.22625" lon="5.41356">
        <ele>864</ele>
        <time>2026-05-13T15:09:54.000Z</time>
      </trkpt>
      <trkpt lat="44.22625" lon="5.41355">
        <ele>863</ele>
        <time>2026-05-13T15:09:55.000Z</time>
      </trkpt>
      <trkpt lat="44.22625" lon="5.41353">
        <ele>864</ele>
        <time>2026-05-13T15:09:56.000Z</time>
      </trkpt>
      <trkpt lat="44.22625" lon="5.41352">
        <ele>863</ele>
        <time>2026-05-13T15:09:57.000Z</time>
      </trkpt>
      <trkpt lat="44.22626" lon="5.41351">
        <ele>864</ele>
        <time>2026-05-13T15:09:58.000Z</time>
      </trkpt>
      <trkpt lat="44.22625" lon="5.41349">
        <ele>864</ele>
        <time>2026-05-13T15:09:59.000Z</time>
      </trkpt>
      <trkpt lat="44.22625" lon="5.41347">
        <ele>865</ele>
        <time>2026-05-13T15:10:00.000Z</time>
      </trkpt>
      <trkpt lat="44.22625" lon="5.41345">
        <ele>865</ele>
        <time>2026-05-13T15:10:01.000Z</time>
      </trkpt>
      <trkpt lat="44.22626" lon="5.41344">
        <ele>866</ele>
        <time>2026-05-13T15:10:02.000Z</time>
      </trkpt>
      <trkpt lat="44.22626" lon="5.41342">
        <ele>866</ele>
        <time>2026-05-13T15:10:03.000Z</time>
      </trkpt>
      <trkpt lat="44.22626" lon="5.41339">
        <ele>866</ele>
        <time>2026-05-13T15:10:04.000Z</time>
      </trkpt>
      <trkpt lat="44.22626" lon="5.41337">
        <ele>866</ele>
        <time>2026-05-13T15:10:05.000Z</time>
      </trkpt>
      <trkpt lat="44.22627" lon="5.41335">
        <ele>866</ele>
        <time>2026-05-13T15:10:06.000Z</time>
      </trkpt>
      <trkpt lat="44.22627" lon="5.41333">
        <ele>867</ele>
        <time>2026-05-13T15:10:07.000Z</time>
      </trkpt>
      <trkpt lat="44.22627" lon="5.4133">
        <ele>867</ele>
        <time>2026-05-13T15:10:08.000Z</time>
      </trkpt>
      <trkpt lat="44.22627" lon="5.41328">
        <ele>867</ele>
        <time>2026-05-13T15:10:09.000Z</time>
      </trkpt>
      <trkpt lat="44.22627" lon="5.41327">
        <ele>867</ele>
        <time>2026-05-13T15:10:10.000Z</time>
      </trkpt>
      <trkpt lat="44.22627" lon="5.41326">
        <ele>867</ele>
        <time>2026-05-13T15:10:11.000Z</time>
      </trkpt>
      <trkpt lat="44.22627" lon="5.41324">
        <ele>867</ele>
        <time>2026-05-13T15:10:12.000Z</time>
      </trkpt>
      <trkpt lat="44.22627" lon="5.41322">
        <ele>867</ele>
        <time>2026-05-13T15:10:13.000Z</time>
      </trkpt>
      <trkpt lat="44.22628" lon="5.4132">
        <ele>867</ele>
        <time>2026-05-13T15:10:14.000Z</time>
      </trkpt>
      <trkpt lat="44.22628" lon="5.41319">
        <ele>867</ele>
        <time>2026-05-13T15:10:15.000Z</time>
      </trkpt>
      <trkpt lat="44.22628" lon="5.41317">
        <ele>867</ele>
        <time>2026-05-13T15:10:16.000Z</time>
      </trkpt>
      <trkpt lat="44.22628" lon="5.41315">
        <ele>867</ele>
        <time>2026-05-13T15:10:17.000Z</time>
      </trkpt>
      <trkpt lat="44.22628" lon="5.41313">
        <ele>867</ele>
        <time>2026-05-13T15:10:18.000Z</time>
      </trkpt>
      <trkpt lat="44.22628" lon="5.41311">
        <ele>867</ele>
        <time>2026-05-13T15:10:19.000Z</time>
      </trkpt>
      <trkpt lat="44.22628" lon="5.41309">
        <ele>867</ele>
        <time>2026-05-13T15:10:20.000Z</time>
      </trkpt>
      <trkpt lat="44.22628" lon="5.41307">
        <ele>868</ele>
        <time>2026-05-13T15:10:21.000Z</time>
      </trkpt>
      <trkpt lat="44.22628" lon="5.41306">
        <ele>868</ele>
        <time>2026-05-13T15:10:22.000Z</time>
      </trkpt>
      <trkpt lat="44.22629" lon="5.41304">
        <ele>869</ele>
        <time>2026-05-13T15:10:23.000Z</time>
      </trkpt>
      <trkpt lat="44.22629" lon="5.41303">
        <ele>869</ele>
        <time>2026-05-13T15:10:24.000Z</time>
      </trkpt>
      <trkpt lat="44.22629" lon="5.41301">
        <ele>870</ele>
        <time>2026-05-13T15:10:25.000Z</time>
      </trkpt>
      <trkpt lat="44.2263" lon="5.41299">
        <ele>870</ele>
        <time>2026-05-13T15:10:26.000Z</time>
      </trkpt>
      <trkpt lat="44.2263" lon="5.41298">
        <ele>870</ele>
        <time>2026-05-13T15:10:27.000Z</time>
      </trkpt>
      <trkpt lat="44.2263" lon="5.41297">
        <ele>870</ele>
        <time>2026-05-13T15:10:28.000Z</time>
      </trkpt>
      <trkpt lat="44.2263" lon="5.41295">
        <ele>871</ele>
        <time>2026-05-13T15:10:29.000Z</time>
      </trkpt>
      <trkpt lat="44.22631" lon="5.41294">
        <ele>871</ele>
        <time>2026-05-13T15:10:30.000Z</time>
      </trkpt>
      <trkpt lat="44.22631" lon="5.41292">
        <ele>871</ele>
        <time>2026-05-13T15:10:31.000Z</time>
      </trkpt>
      <trkpt lat="44.2263" lon="5.41291">
        <ele>872</ele>
        <time>2026-05-13T15:10:32.000Z</time>
      </trkpt>
      <trkpt lat="44.2263" lon="5.41289">
        <ele>871</ele>
        <time>2026-05-13T15:10:33.000Z</time>
      </trkpt>
      <trkpt lat="44.2263" lon="5.41288">
        <ele>871</ele>
        <time>2026-05-13T15:10:34.000Z</time>
      </trkpt>
      <trkpt lat="44.2263" lon="5.41286">
        <ele>871</ele>
        <time>2026-05-13T15:10:35.000Z</time>
      </trkpt>
      <trkpt lat="44.2263" lon="5.41284">
        <ele>872</ele>
        <time>2026-05-13T15:10:36.000Z</time>
      </trkpt>
      <trkpt lat="44.2263" lon="5.41282">
        <ele>872</ele>
        <time>2026-05-13T15:10:37.000Z</time>
      </trkpt>
      <trkpt lat="44.22629" lon="5.41281">
        <ele>871</ele>
        <time>2026-05-13T15:10:38.000Z</time>
      </trkpt>
      <trkpt lat="44.22629" lon="5.41279">
        <ele>872</ele>
        <time>2026-05-13T15:10:39.000Z</time>
      </trkpt>
      <trkpt lat="44.22628" lon="5.41278">
        <ele>872</ele>
        <time>2026-05-13T15:10:40.000Z</time>
      </trkpt>
      <trkpt lat="44.22628" lon="5.41277">
        <ele>873</ele>
        <time>2026-05-13T15:10:41.000Z</time>
      </trkpt>
      <trkpt lat="44.22627" lon="5.41275">
        <ele>873</ele>
        <time>2026-05-13T15:10:42.000Z</time>
      </trkpt>
      <trkpt lat="44.22626" lon="5.41274">
        <ele>871</ele>
        <time>2026-05-13T15:10:43.000Z</time>
      </trkpt>
      <trkpt lat="44.22626" lon="5.41271">
        <ele>871</ele>
        <time>2026-05-13T15:10:44.000Z</time>
      </trkpt>
      <trkpt lat="44.22625" lon="5.41269">
        <ele>872</ele>
        <time>2026-05-13T15:10:45.000Z</time>
      </trkpt>
      <trkpt lat="44.22625" lon="5.41268">
        <ele>871</ele>
        <time>2026-05-13T15:10:46.000Z</time>
      </trkpt>
      <trkpt lat="44.22626" lon="5.41266">
        <ele>872</ele>
        <time>2026-05-13T15:10:47.000Z</time>
      </trkpt>
      <trkpt lat="44.22626" lon="5.41264">
        <ele>872</ele>
        <time>2026-05-13T15:10:48.000Z</time>
      </trkpt>
      <trkpt lat="44.22626" lon="5.41262">
        <ele>873</ele>
        <time>2026-05-13T15:10:49.000Z</time>
      </trkpt>
      <trkpt lat="44.22625" lon="5.4126">
        <ele>873</ele>
        <time>2026-05-13T15:10:50.000Z</time>
      </trkpt>
      <trkpt lat="44.22625" lon="5.41259">
        <ele>873</ele>
        <time>2026-05-13T15:10:51.000Z</time>
      </trkpt>
      <trkpt lat="44.22625" lon="5.41257">
        <ele>873</ele>
        <time>2026-05-13T15:10:52.000Z</time>
      </trkpt>
      <trkpt lat="44.22625" lon="5.41256">
        <ele>874</ele>
        <time>2026-05-13T15:10:53.000Z</time>
      </trkpt>
      <trkpt lat="44.22625" lon="5.41255">
        <ele>874</ele>
        <time>2026-05-13T15:10:54.000Z</time>
      </trkpt>
      <trkpt lat="44.22624" lon="5.41253">
        <ele>874</ele>
        <time>2026-05-13T15:10:55.000Z</time>
      </trkpt>
      <trkpt lat="44.22624" lon="5.41251">
        <ele>875</ele>
        <time>2026-05-13T15:10:56.000Z</time>
      </trkpt>
      <trkpt lat="44.22624" lon="5.4125">
        <ele>875</ele>
        <time>2026-05-13T15:10:57.000Z</time>
      </trkpt>
      <trkpt lat="44.22624" lon="5.41248">
        <ele>874</ele>
        <time>2026-05-13T15:10:58.000Z</time>
      </trkpt>
      <trkpt lat="44.22625" lon="5.41247">
        <ele>875</ele>
        <time>2026-05-13T15:10:59.000Z</time>
      </trkpt>
      <trkpt lat="44.22625" lon="5.41246">
        <ele>875</ele>
        <time>2026-05-13T15:11:00.000Z</time>
      </trkpt>
      <trkpt lat="44.22625" lon="5.41244">
        <ele>876</ele>
        <time>2026-05-13T15:11:01.000Z</time>
      </trkpt>
      <trkpt lat="44.22625" lon="5.41242">
        <ele>876</ele>
        <time>2026-05-13T15:11:02.000Z</time>
      </trkpt>
      <trkpt lat="44.22625" lon="5.41242">
        <ele>876</ele>
        <time>2026-05-13T15:11:03.000Z</time>
      </trkpt>
      <trkpt lat="44.22625" lon="5.41241">
        <ele>876</ele>
        <time>2026-05-13T15:11:04.000Z</time>
      </trkpt>
      <trkpt lat="44.22625" lon="5.4124">
        <ele>876</ele>
        <time>2026-05-13T15:11:05.000Z</time>
      </trkpt>
      <trkpt lat="44.22624" lon="5.41238">
        <ele>876</ele>
        <time>2026-05-13T15:11:06.000Z</time>
      </trkpt>
      <trkpt lat="44.22624" lon="5.41236">
        <ele>876</ele>
        <time>2026-05-13T15:11:07.000Z</time>
      </trkpt>
      <trkpt lat="44.22624" lon="5.41234">
        <ele>876</ele>
        <time>2026-05-13T15:11:08.000Z</time>
      </trkpt>
      <trkpt lat="44.22624" lon="5.41233">
        <ele>876</ele>
        <time>2026-05-13T15:11:09.000Z</time>
      </trkpt>
      <trkpt lat="44.22623" lon="5.41231">
        <ele>877</ele>
        <time>2026-05-13T15:11:10.000Z</time>
      </trkpt>
      <trkpt lat="44.22623" lon="5.4123">
        <ele>878</ele>
        <time>2026-05-13T15:11:11.000Z</time>
      </trkpt>
      <trkpt lat="44.22622" lon="5.41229">
        <ele>878</ele>
        <time>2026-05-13T15:11:12.000Z</time>
      </trkpt>
      <trkpt lat="44.22622" lon="5.41228">
        <ele>880</ele>
        <time>2026-05-13T15:11:13.000Z</time>
      </trkpt>
      <trkpt lat="44.22622" lon="5.41227">
        <ele>880</ele>
        <time>2026-05-13T15:11:14.000Z</time>
      </trkpt>
      <trkpt lat="44.22621" lon="5.41226">
        <ele>880</ele>
        <time>2026-05-13T15:11:15.000Z</time>
      </trkpt>
      <trkpt lat="44.22621" lon="5.41225">
        <ele>880</ele>
        <time>2026-05-13T15:11:16.000Z</time>
      </trkpt>
      <trkpt lat="44.2262" lon="5.41224">
        <ele>880</ele>
        <time>2026-05-13T15:11:17.000Z</time>
      </trkpt>
      <trkpt lat="44.22619" lon="5.41222">
        <ele>881</ele>
        <time>2026-05-13T15:11:18.000Z</time>
      </trkpt>
      <trkpt lat="44.22618" lon="5.41221">
        <ele>881</ele>
        <time>2026-05-13T15:11:19.000Z</time>
      </trkpt>
      <trkpt lat="44.22618" lon="5.4122">
        <ele>881</ele>
        <time>2026-05-13T15:11:20.000Z</time>
      </trkpt>
      <trkpt lat="44.22617" lon="5.41218">
        <ele>881</ele>
        <time>2026-05-13T15:11:21.000Z</time>
      </trkpt>
      <trkpt lat="44.22616" lon="5.41217">
        <ele>880</ele>
        <time>2026-05-13T15:11:22.000Z</time>
      </trkpt>
      <trkpt lat="44.22616" lon="5.41215">
        <ele>879</ele>
        <time>2026-05-13T15:11:23.000Z</time>
      </trkpt>
      <trkpt lat="44.22616" lon="5.41214">
        <ele>879</ele>
        <time>2026-05-13T15:11:24.000Z</time>
      </trkpt>
      <trkpt lat="44.22615" lon="5.41213">
        <ele>878</ele>
        <time>2026-05-13T15:11:25.000Z</time>
      </trkpt>
      <trkpt lat="44.22615" lon="5.41212">
        <ele>880</ele>
        <time>2026-05-13T15:11:26.000Z</time>
      </trkpt>
      <trkpt lat="44.22614" lon="5.41211">
        <ele>880</ele>
        <time>2026-05-13T15:11:27.000Z</time>
      </trkpt>
      <trkpt lat="44.22613" lon="5.41209">
        <ele>880</ele>
        <time>2026-05-13T15:11:28.000Z</time>
      </trkpt>
      <trkpt lat="44.22612" lon="5.41207">
        <ele>880</ele>
        <time>2026-05-13T15:11:29.000Z</time>
      </trkpt>
      <trkpt lat="44.22611" lon="5.41206">
        <ele>881</ele>
        <time>2026-05-13T15:11:30.000Z</time>
      </trkpt>
      <trkpt lat="44.22611" lon="5.41204">
        <ele>882</ele>
        <time>2026-05-13T15:11:31.000Z</time>
      </trkpt>
      <trkpt lat="44.22611" lon="5.41203">
        <ele>883</ele>
        <time>2026-05-13T15:11:32.000Z</time>
      </trkpt>
      <trkpt lat="44.2261" lon="5.41201">
        <ele>883</ele>
        <time>2026-05-13T15:11:33.000Z</time>
      </trkpt>
      <trkpt lat="44.2261" lon="5.41201">
        <ele>883</ele>
        <time>2026-05-13T15:11:34.000Z</time>
      </trkpt>
      <trkpt lat="44.2261" lon="5.41199">
        <ele>884</ele>
        <time>2026-05-13T15:11:35.000Z</time>
      </trkpt>
      <trkpt lat="44.2261" lon="5.41198">
        <ele>884</ele>
        <time>2026-05-13T15:11:36.000Z</time>
      </trkpt>
      <trkpt lat="44.2261" lon="5.41196">
        <ele>885</ele>
        <time>2026-05-13T15:11:37.000Z</time>
      </trkpt>
      <trkpt lat="44.2261" lon="5.41194">
        <ele>885</ele>
        <time>2026-05-13T15:11:38.000Z</time>
      </trkpt>
      <trkpt lat="44.2261" lon="5.41193">
        <ele>885</ele>
        <time>2026-05-13T15:11:39.000Z</time>
      </trkpt>
      <trkpt lat="44.22609" lon="5.41191">
        <ele>885</ele>
        <time>2026-05-13T15:11:40.000Z</time>
      </trkpt>
      <trkpt lat="44.22609" lon="5.4119">
        <ele>884</ele>
        <time>2026-05-13T15:11:41.000Z</time>
      </trkpt>
      <trkpt lat="44.22609" lon="5.41189">
        <ele>884</ele>
        <time>2026-05-13T15:11:42.000Z</time>
      </trkpt>
      <trkpt lat="44.22609" lon="5.41187">
        <ele>884</ele>
        <time>2026-05-13T15:11:43.000Z</time>
      </trkpt>
      <trkpt lat="44.22609" lon="5.41187">
        <ele>884</ele>
        <time>2026-05-13T15:11:44.000Z</time>
      </trkpt>
      <trkpt lat="44.22608" lon="5.41185">
        <ele>884</ele>
        <time>2026-05-13T15:11:45.000Z</time>
      </trkpt>
      <trkpt lat="44.22608" lon="5.41184">
        <ele>884</ele>
        <time>2026-05-13T15:11:46.000Z</time>
      </trkpt>
      <trkpt lat="44.22608" lon="5.41183">
        <ele>884</ele>
        <time>2026-05-13T15:11:47.000Z</time>
      </trkpt>
      <trkpt lat="44.22608" lon="5.41182">
        <ele>884</ele>
        <time>2026-05-13T15:11:48.000Z</time>
      </trkpt>
      <trkpt lat="44.22607" lon="5.4118">
        <ele>884</ele>
        <time>2026-05-13T15:11:49.000Z</time>
      </trkpt>
      <trkpt lat="44.22607" lon="5.41179">
        <ele>885</ele>
        <time>2026-05-13T15:11:50.000Z</time>
      </trkpt>
      <trkpt lat="44.22607" lon="5.41177">
        <ele>885</ele>
        <time>2026-05-13T15:11:51.000Z</time>
      </trkpt>
      <trkpt lat="44.22607" lon="5.41176">
        <ele>885</ele>
        <time>2026-05-13T15:11:52.000Z</time>
      </trkpt>
      <trkpt lat="44.22607" lon="5.41174">
        <ele>885</ele>
        <time>2026-05-13T15:11:53.000Z</time>
      </trkpt>
      <trkpt lat="44.22607" lon="5.41173">
        <ele>885</ele>
        <time>2026-05-13T15:11:54.000Z</time>
      </trkpt>
      <trkpt lat="44.22607" lon="5.4117">
        <ele>885</ele>
        <time>2026-05-13T15:11:55.000Z</time>
      </trkpt>
      <trkpt lat="44.22606" lon="5.41169">
        <ele>885</ele>
        <time>2026-05-13T15:11:56.000Z</time>
      </trkpt>
      <trkpt lat="44.22606" lon="5.41168">
        <ele>885</ele>
        <time>2026-05-13T15:11:57.000Z</time>
      </trkpt>
      <trkpt lat="44.22605" lon="5.41166">
        <ele>886</ele>
        <time>2026-05-13T15:11:58.000Z</time>
      </trkpt>
      <trkpt lat="44.22605" lon="5.41165">
        <ele>886</ele>
        <time>2026-05-13T15:11:59.000Z</time>
      </trkpt>
      <trkpt lat="44.22604" lon="5.41164">
        <ele>886</ele>
        <time>2026-05-13T15:12:00.000Z</time>
      </trkpt>
      <trkpt lat="44.22604" lon="5.41163">
        <ele>886</ele>
        <time>2026-05-13T15:12:01.000Z</time>
      </trkpt>
      <trkpt lat="44.22603" lon="5.41162">
        <ele>886</ele>
        <time>2026-05-13T15:12:02.000Z</time>
      </trkpt>
      <trkpt lat="44.22603" lon="5.41161">
        <ele>886</ele>
        <time>2026-05-13T15:12:03.000Z</time>
      </trkpt>
      <trkpt lat="44.22602" lon="5.41159">
        <ele>886</ele>
        <time>2026-05-13T15:12:04.000Z</time>
      </trkpt>
      <trkpt lat="44.22602" lon="5.41158">
        <ele>885</ele>
        <time>2026-05-13T15:12:05.000Z</time>
      </trkpt>
      <trkpt lat="44.22601" lon="5.41157">
        <ele>886</ele>
        <time>2026-05-13T15:12:06.000Z</time>
      </trkpt>
      <trkpt lat="44.22601" lon="5.41155">
        <ele>886</ele>
        <time>2026-05-13T15:12:07.000Z</time>
      </trkpt>
      <trkpt lat="44.226" lon="5.41154">
        <ele>887</ele>
        <time>2026-05-13T15:12:08.000Z</time>
      </trkpt>
      <trkpt lat="44.226" lon="5.41153">
        <ele>887</ele>
        <time>2026-05-13T15:12:09.000Z</time>
      </trkpt>
      <trkpt lat="44.22599" lon="5.41152">
        <ele>888</ele>
        <time>2026-05-13T15:12:10.000Z</time>
      </trkpt>
      <trkpt lat="44.22599" lon="5.41151">
        <ele>887</ele>
        <time>2026-05-13T15:12:11.000Z</time>
      </trkpt>
      <trkpt lat="44.22598" lon="5.41149">
        <ele>887</ele>
        <time>2026-05-13T15:12:12.000Z</time>
      </trkpt>
      <trkpt lat="44.22597" lon="5.41148">
        <ele>887</ele>
        <time>2026-05-13T15:12:13.000Z</time>
      </trkpt>
      <trkpt lat="44.22596" lon="5.41146">
        <ele>887</ele>
        <time>2026-05-13T15:12:14.000Z</time>
      </trkpt>
      <trkpt lat="44.22596" lon="5.41145">
        <ele>887</ele>
        <time>2026-05-13T15:12:15.000Z</time>
      </trkpt>
      <trkpt lat="44.22596" lon="5.41143">
        <ele>887</ele>
        <time>2026-05-13T15:12:16.000Z</time>
      </trkpt>
      <trkpt lat="44.22596" lon="5.41142">
        <ele>888</ele>
        <time>2026-05-13T15:12:17.000Z</time>
      </trkpt>
      <trkpt lat="44.22595" lon="5.41141">
        <ele>888</ele>
        <time>2026-05-13T15:12:18.000Z</time>
      </trkpt>
      <trkpt lat="44.22595" lon="5.41139">
        <ele>888</ele>
        <time>2026-05-13T15:12:19.000Z</time>
      </trkpt>
      <trkpt lat="44.22594" lon="5.41137">
        <ele>888</ele>
        <time>2026-05-13T15:12:20.000Z</time>
      </trkpt>
      <trkpt lat="44.22594" lon="5.41135">
        <ele>888</ele>
        <time>2026-05-13T15:12:21.000Z</time>
      </trkpt>
      <trkpt lat="44.22594" lon="5.41133">
        <ele>889</ele>
        <time>2026-05-13T15:12:22.000Z</time>
      </trkpt>
      <trkpt lat="44.22593" lon="5.41132">
        <ele>890</ele>
        <time>2026-05-13T15:12:23.000Z</time>
      </trkpt>
      <trkpt lat="44.22594" lon="5.41131">
        <ele>890</ele>
        <time>2026-05-13T15:12:24.000Z</time>
      </trkpt>
      <trkpt lat="44.22594" lon="5.41129">
        <ele>889</ele>
        <time>2026-05-13T15:12:25.000Z</time>
      </trkpt>
      <trkpt lat="44.22593" lon="5.41127">
        <ele>890</ele>
        <time>2026-05-13T15:12:26.000Z</time>
      </trkpt>
      <trkpt lat="44.22593" lon="5.41125">
        <ele>892</ele>
        <time>2026-05-13T15:12:27.000Z</time>
      </trkpt>
      <trkpt lat="44.22593" lon="5.41123">
        <ele>892</ele>
        <time>2026-05-13T15:12:28.000Z</time>
      </trkpt>
      <trkpt lat="44.22592" lon="5.41121">
        <ele>893</ele>
        <time>2026-05-13T15:12:29.000Z</time>
      </trkpt>
      <trkpt lat="44.22592" lon="5.4112">
        <ele>893</ele>
        <time>2026-05-13T15:12:30.000Z</time>
      </trkpt>
      <trkpt lat="44.22592" lon="5.41118">
        <ele>894</ele>
        <time>2026-05-13T15:12:31.000Z</time>
      </trkpt>
      <trkpt lat="44.22592" lon="5.41117">
        <ele>893</ele>
        <time>2026-05-13T15:12:32.000Z</time>
      </trkpt>
      <trkpt lat="44.22592" lon="5.41116">
        <ele>894</ele>
        <time>2026-05-13T15:12:33.000Z</time>
      </trkpt>
      <trkpt lat="44.22593" lon="5.41114">
        <ele>894</ele>
        <time>2026-05-13T15:12:34.000Z</time>
      </trkpt>
      <trkpt lat="44.22593" lon="5.41113">
        <ele>895</ele>
        <time>2026-05-13T15:12:35.000Z</time>
      </trkpt>
      <trkpt lat="44.22593" lon="5.41112">
        <ele>895</ele>
        <time>2026-05-13T15:12:36.000Z</time>
      </trkpt>
      <trkpt lat="44.22594" lon="5.41111">
        <ele>896</ele>
        <time>2026-05-13T15:12:37.000Z</time>
      </trkpt>
      <trkpt lat="44.22594" lon="5.4111">
        <ele>895</ele>
        <time>2026-05-13T15:12:38.000Z</time>
      </trkpt>
      <trkpt lat="44.22595" lon="5.41108">
        <ele>895</ele>
        <time>2026-05-13T15:12:39.000Z</time>
      </trkpt>
      <trkpt lat="44.22595" lon="5.41107">
        <ele>894</ele>
        <time>2026-05-13T15:12:40.000Z</time>
      </trkpt>
      <trkpt lat="44.22595" lon="5.41106">
        <ele>893</ele>
        <time>2026-05-13T15:12:41.000Z</time>
      </trkpt>
      <trkpt lat="44.22596" lon="5.41103">
        <ele>893</ele>
        <time>2026-05-13T15:12:42.000Z</time>
      </trkpt>
      <trkpt lat="44.22596" lon="5.41102">
        <ele>893</ele>
        <time>2026-05-13T15:12:43.000Z</time>
      </trkpt>
      <trkpt lat="44.22597" lon="5.411">
        <ele>893</ele>
        <time>2026-05-13T15:12:44.000Z</time>
      </trkpt>
      <trkpt lat="44.22597" lon="5.41099">
        <ele>892</ele>
        <time>2026-05-13T15:12:45.000Z</time>
      </trkpt>
      <trkpt lat="44.22598" lon="5.41098">
        <ele>892</ele>
        <time>2026-05-13T15:12:46.000Z</time>
      </trkpt>
      <trkpt lat="44.226" lon="5.41097">
        <ele>892</ele>
        <time>2026-05-13T15:12:47.000Z</time>
      </trkpt>
      <trkpt lat="44.22601" lon="5.41097">
        <ele>892</ele>
        <time>2026-05-13T15:12:48.000Z</time>
      </trkpt>
      <trkpt lat="44.226" lon="5.41095">
        <ele>892</ele>
        <time>2026-05-13T15:12:49.000Z</time>
      </trkpt>
      <trkpt lat="44.22601" lon="5.41093">
        <ele>891</ele>
        <time>2026-05-13T15:12:50.000Z</time>
      </trkpt>
      <trkpt lat="44.22602" lon="5.41092">
        <ele>891</ele>
        <time>2026-05-13T15:12:51.000Z</time>
      </trkpt>
      <trkpt lat="44.22603" lon="5.4109">
        <ele>892</ele>
        <time>2026-05-13T15:12:52.000Z</time>
      </trkpt>
      <trkpt lat="44.22604" lon="5.41089">
        <ele>893</ele>
        <time>2026-05-13T15:12:53.000Z</time>
      </trkpt>
      <trkpt lat="44.22605" lon="5.41087">
        <ele>892</ele>
        <time>2026-05-13T15:12:54.000Z</time>
      </trkpt>
      <trkpt lat="44.22606" lon="5.41085">
        <ele>891</ele>
        <time>2026-05-13T15:12:55.000Z</time>
      </trkpt>
      <trkpt lat="44.22607" lon="5.41083">
        <ele>891</ele>
        <time>2026-05-13T15:12:56.000Z</time>
      </trkpt>
      <trkpt lat="44.22608" lon="5.41082">
        <ele>891</ele>
        <time>2026-05-13T15:12:57.000Z</time>
      </trkpt>
      <trkpt lat="44.22609" lon="5.41081">
        <ele>891</ele>
        <time>2026-05-13T15:12:58.000Z</time>
      </trkpt>
      <trkpt lat="44.2261" lon="5.41081">
        <ele>891</ele>
        <time>2026-05-13T15:12:59.000Z</time>
      </trkpt>
      <trkpt lat="44.22611" lon="5.41081">
        <ele>891</ele>
        <time>2026-05-13T15:13:00.000Z</time>
      </trkpt>
      <trkpt lat="44.22611" lon="5.4108">
        <ele>892</ele>
        <time>2026-05-13T15:13:01.000Z</time>
      </trkpt>
      <trkpt lat="44.22612" lon="5.41079">
        <ele>893</ele>
        <time>2026-05-13T15:13:02.000Z</time>
      </trkpt>
      <trkpt lat="44.22612" lon="5.41078">
        <ele>893</ele>
        <time>2026-05-13T15:13:03.000Z</time>
      </trkpt>
      <trkpt lat="44.22612" lon="5.41078">
        <ele>892</ele>
        <time>2026-05-13T15:13:04.000Z</time>
      </trkpt>
      <trkpt lat="44.22613" lon="5.41077">
        <ele>891</ele>
        <time>2026-05-13T15:13:05.000Z</time>
      </trkpt>
      <trkpt lat="44.22613" lon="5.41075">
        <ele>891</ele>
        <time>2026-05-13T15:13:06.000Z</time>
      </trkpt>
      <trkpt lat="44.22613" lon="5.41073">
        <ele>892</ele>
        <time>2026-05-13T15:13:07.000Z</time>
      </trkpt>
      <trkpt lat="44.22613" lon="5.41071">
        <ele>892</ele>
        <time>2026-05-13T15:13:08.000Z</time>
      </trkpt>
      <trkpt lat="44.22614" lon="5.41069">
        <ele>892</ele>
        <time>2026-05-13T15:13:09.000Z</time>
      </trkpt>
      <trkpt lat="44.22614" lon="5.41066">
        <ele>892</ele>
        <time>2026-05-13T15:13:10.000Z</time>
      </trkpt>
      <trkpt lat="44.22616" lon="5.41062">
        <ele>893</ele>
        <time>2026-05-13T15:13:11.000Z</time>
      </trkpt>
      <trkpt lat="44.22616" lon="5.41058">
        <ele>893</ele>
        <time>2026-05-13T15:13:12.000Z</time>
      </trkpt>
      <trkpt lat="44.22618" lon="5.41055">
        <ele>893</ele>
        <time>2026-05-13T15:13:13.000Z</time>
      </trkpt>
      <trkpt lat="44.2262" lon="5.41051">
        <ele>893</ele>
        <time>2026-05-13T15:13:14.000Z</time>
      </trkpt>
      <trkpt lat="44.22622" lon="5.41048">
        <ele>893</ele>
        <time>2026-05-13T15:13:15.000Z</time>
      </trkpt>
      <trkpt lat="44.22623" lon="5.41045">
        <ele>893</ele>
        <time>2026-05-13T15:13:16.000Z</time>
      </trkpt>
      <trkpt lat="44.22624" lon="5.41042">
        <ele>893</ele>
        <time>2026-05-13T15:13:17.000Z</time>
      </trkpt>
      <trkpt lat="44.22625" lon="5.41039">
        <ele>894</ele>
        <time>2026-05-13T15:13:18.000Z</time>
      </trkpt>
      <trkpt lat="44.22625" lon="5.41036">
        <ele>895</ele>
        <time>2026-05-13T15:13:19.000Z</time>
      </trkpt>
      <trkpt lat="44.22626" lon="5.41032">
        <ele>895</ele>
        <time>2026-05-13T15:13:20.000Z</time>
      </trkpt>
      <trkpt lat="44.22628" lon="5.4103">
        <ele>895</ele>
        <time>2026-05-13T15:13:21.000Z</time>
      </trkpt>
      <trkpt lat="44.22629" lon="5.41028">
        <ele>895</ele>
        <time>2026-05-13T15:13:22.000Z</time>
      </trkpt>
      <trkpt lat="44.2263" lon="5.41026">
        <ele>895</ele>
        <time>2026-05-13T15:13:23.000Z</time>
      </trkpt>
      <trkpt lat="44.22631" lon="5.41024">
        <ele>894</ele>
        <time>2026-05-13T15:13:24.000Z</time>
      </trkpt>
      <trkpt lat="44.22632" lon="5.41022">
        <ele>894</ele>
        <time>2026-05-13T15:13:25.000Z</time>
      </trkpt>
      <trkpt lat="44.22633" lon="5.4102">
        <ele>893</ele>
        <time>2026-05-13T15:13:26.000Z</time>
      </trkpt>
      <trkpt lat="44.22634" lon="5.41018">
        <ele>893</ele>
        <time>2026-05-13T15:13:27.000Z</time>
      </trkpt>
      <trkpt lat="44.22635" lon="5.41017">
        <ele>892</ele>
        <time>2026-05-13T15:13:28.000Z</time>
      </trkpt>
      <trkpt lat="44.22636" lon="5.41015">
        <ele>892</ele>
        <time>2026-05-13T15:13:29.000Z</time>
      </trkpt>
      <trkpt lat="44.22637" lon="5.41012">
        <ele>892</ele>
        <time>2026-05-13T15:13:30.000Z</time>
      </trkpt>
      <trkpt lat="44.22638" lon="5.4101">
        <ele>892</ele>
        <time>2026-05-13T15:13:31.000Z</time>
      </trkpt>
      <trkpt lat="44.22639" lon="5.41007">
        <ele>893</ele>
        <time>2026-05-13T15:13:32.000Z</time>
      </trkpt>
      <trkpt lat="44.2264" lon="5.41005">
        <ele>893</ele>
        <time>2026-05-13T15:13:33.000Z</time>
      </trkpt>
      <trkpt lat="44.22642" lon="5.41003">
        <ele>893</ele>
        <time>2026-05-13T15:13:34.000Z</time>
      </trkpt>
      <trkpt lat="44.22643" lon="5.41001">
        <ele>893</ele>
        <time>2026-05-13T15:13:35.000Z</time>
      </trkpt>
      <trkpt lat="44.22645" lon="5.40999">
        <ele>893</ele>
        <time>2026-05-13T15:13:36.000Z</time>
      </trkpt>
      <trkpt lat="44.22646" lon="5.40997">
        <ele>893</ele>
        <time>2026-05-13T15:13:37.000Z</time>
      </trkpt>
      <trkpt lat="44.22648" lon="5.40994">
        <ele>893</ele>
        <time>2026-05-13T15:13:38.000Z</time>
      </trkpt>
      <trkpt lat="44.22648" lon="5.40992">
        <ele>893</ele>
        <time>2026-05-13T15:13:39.000Z</time>
      </trkpt>
      <trkpt lat="44.22649" lon="5.4099">
        <ele>895</ele>
        <time>2026-05-13T15:13:40.000Z</time>
      </trkpt>
      <trkpt lat="44.2265" lon="5.40989">
        <ele>895</ele>
        <time>2026-05-13T15:13:41.000Z</time>
      </trkpt>
      <trkpt lat="44.22651" lon="5.40987">
        <ele>895</ele>
        <time>2026-05-13T15:13:42.000Z</time>
      </trkpt>
      <trkpt lat="44.22652" lon="5.40986">
        <ele>895</ele>
        <time>2026-05-13T15:13:43.000Z</time>
      </trkpt>
      <trkpt lat="44.22652" lon="5.40983">
        <ele>895</ele>
        <time>2026-05-13T15:13:44.000Z</time>
      </trkpt>
      <trkpt lat="44.22653" lon="5.4098">
        <ele>895</ele>
        <time>2026-05-13T15:13:45.000Z</time>
      </trkpt>
      <trkpt lat="44.22653" lon="5.40978">
        <ele>895</ele>
        <time>2026-05-13T15:13:46.000Z</time>
      </trkpt>
      <trkpt lat="44.22653" lon="5.40975">
        <ele>895</ele>
        <time>2026-05-13T15:13:47.000Z</time>
      </trkpt>
      <trkpt lat="44.22654" lon="5.40972">
        <ele>895</ele>
        <time>2026-05-13T15:13:48.000Z</time>
      </trkpt>
      <trkpt lat="44.22656" lon="5.40969">
        <ele>895</ele>
        <time>2026-05-13T15:13:49.000Z</time>
      </trkpt>
      <trkpt lat="44.22656" lon="5.40967">
        <ele>895</ele>
        <time>2026-05-13T15:13:50.000Z</time>
      </trkpt>
      <trkpt lat="44.22657" lon="5.40965">
        <ele>895</ele>
        <time>2026-05-13T15:13:51.000Z</time>
      </trkpt>
      <trkpt lat="44.22657" lon="5.40961">
        <ele>896</ele>
        <time>2026-05-13T15:13:52.000Z</time>
      </trkpt>
      <trkpt lat="44.22657" lon="5.40958">
        <ele>895</ele>
        <time>2026-05-13T15:13:53.000Z</time>
      </trkpt>
      <trkpt lat="44.22657" lon="5.40956">
        <ele>896</ele>
        <time>2026-05-13T15:13:54.000Z</time>
      </trkpt>
      <trkpt lat="44.22657" lon="5.40953">
        <ele>896</ele>
        <time>2026-05-13T15:13:55.000Z</time>
      </trkpt>
      <trkpt lat="44.22658" lon="5.40951">
        <ele>896</ele>
        <time>2026-05-13T15:13:56.000Z</time>
      </trkpt>
      <trkpt lat="44.22659" lon="5.40949">
        <ele>896</ele>
        <time>2026-05-13T15:13:57.000Z</time>
      </trkpt>
      <trkpt lat="44.22659" lon="5.40946">
        <ele>897</ele>
        <time>2026-05-13T15:13:58.000Z</time>
      </trkpt>
      <trkpt lat="44.22659" lon="5.40943">
        <ele>897</ele>
        <time>2026-05-13T15:13:59.000Z</time>
      </trkpt>
      <trkpt lat="44.2266" lon="5.40941">
        <ele>896</ele>
        <time>2026-05-13T15:14:00.000Z</time>
      </trkpt>
      <trkpt lat="44.2266" lon="5.4094">
        <ele>896</ele>
        <time>2026-05-13T15:14:01.000Z</time>
      </trkpt>
      <trkpt lat="44.22661" lon="5.40938">
        <ele>896</ele>
        <time>2026-05-13T15:14:02.000Z</time>
      </trkpt>
      <trkpt lat="44.22662" lon="5.40936">
        <ele>896</ele>
        <time>2026-05-13T15:14:03.000Z</time>
      </trkpt>
      <trkpt lat="44.22662" lon="5.40935">
        <ele>895</ele>
        <time>2026-05-13T15:14:04.000Z</time>
      </trkpt>
      <trkpt lat="44.22663" lon="5.40933">
        <ele>895</ele>
        <time>2026-05-13T15:14:05.000Z</time>
      </trkpt>
      <trkpt lat="44.22663" lon="5.4093">
        <ele>895</ele>
        <time>2026-05-13T15:14:06.000Z</time>
      </trkpt>
      <trkpt lat="44.22663" lon="5.40928">
        <ele>895</ele>
        <time>2026-05-13T15:14:07.000Z</time>
      </trkpt>
      <trkpt lat="44.22663" lon="5.40927">
        <ele>895</ele>
        <time>2026-05-13T15:14:08.000Z</time>
      </trkpt>
      <trkpt lat="44.22664" lon="5.40925">
        <ele>895</ele>
        <time>2026-05-13T15:14:09.000Z</time>
      </trkpt>
      <trkpt lat="44.22665" lon="5.40925">
        <ele>895</ele>
        <time>2026-05-13T15:14:10.000Z</time>
      </trkpt>
      <trkpt lat="44.22665" lon="5.40924">
        <ele>896</ele>
        <time>2026-05-13T15:14:11.000Z</time>
      </trkpt>
      <trkpt lat="44.22666" lon="5.40922">
        <ele>896</ele>
        <time>2026-05-13T15:14:12.000Z</time>
      </trkpt>
      <trkpt lat="44.22667" lon="5.40921">
        <ele>896</ele>
        <time>2026-05-13T15:14:13.000Z</time>
      </trkpt>
      <trkpt lat="44.22667" lon="5.40919">
        <ele>897</ele>
        <time>2026-05-13T15:14:14.000Z</time>
      </trkpt>
      <trkpt lat="44.22667" lon="5.40918">
        <ele>897</ele>
        <time>2026-05-13T15:14:15.000Z</time>
      </trkpt>
      <trkpt lat="44.22668" lon="5.40917">
        <ele>897</ele>
        <time>2026-05-13T15:14:16.000Z</time>
      </trkpt>
      <trkpt lat="44.22669" lon="5.40916">
        <ele>898</ele>
        <time>2026-05-13T15:14:17.000Z</time>
      </trkpt>
      <trkpt lat="44.2267" lon="5.40915">
        <ele>898</ele>
        <time>2026-05-13T15:14:18.000Z</time>
      </trkpt>
      <trkpt lat="44.22671" lon="5.40914">
        <ele>897</ele>
        <time>2026-05-13T15:14:19.000Z</time>
      </trkpt>
      <trkpt lat="44.22673" lon="5.40913">
        <ele>897</ele>
        <time>2026-05-13T15:14:20.000Z</time>
      </trkpt>
      <trkpt lat="44.22673" lon="5.40911">
        <ele>897</ele>
        <time>2026-05-13T15:14:21.000Z</time>
      </trkpt>
      <trkpt lat="44.22674" lon="5.40909">
        <ele>897</ele>
        <time>2026-05-13T15:14:22.000Z</time>
      </trkpt>
      <trkpt lat="44.22674" lon="5.40908">
        <ele>897</ele>
        <time>2026-05-13T15:14:23.000Z</time>
      </trkpt>
      <trkpt lat="44.22675" lon="5.40906">
        <ele>897</ele>
        <time>2026-05-13T15:14:24.000Z</time>
      </trkpt>
      <trkpt lat="44.22676" lon="5.40904">
        <ele>898</ele>
        <time>2026-05-13T15:14:25.000Z</time>
      </trkpt>
      <trkpt lat="44.22676" lon="5.40903">
        <ele>898</ele>
        <time>2026-05-13T15:14:26.000Z</time>
      </trkpt>
      <trkpt lat="44.22677" lon="5.40901">
        <ele>898</ele>
        <time>2026-05-13T15:14:27.000Z</time>
      </trkpt>
      <trkpt lat="44.22678" lon="5.409">
        <ele>898</ele>
        <time>2026-05-13T15:14:28.000Z</time>
      </trkpt>
      <trkpt lat="44.22679" lon="5.40899">
        <ele>898</ele>
        <time>2026-05-13T15:14:29.000Z</time>
      </trkpt>
      <trkpt lat="44.2268" lon="5.40897">
        <ele>897</ele>
        <time>2026-05-13T15:14:30.000Z</time>
      </trkpt>
      <trkpt lat="44.22681" lon="5.40896">
        <ele>897</ele>
        <time>2026-05-13T15:14:31.000Z</time>
      </trkpt>
      <trkpt lat="44.22682" lon="5.40895">
        <ele>898</ele>
        <time>2026-05-13T15:14:32.000Z</time>
      </trkpt>
      <trkpt lat="44.22683" lon="5.40893">
        <ele>898</ele>
        <time>2026-05-13T15:14:33.000Z</time>
      </trkpt>
      <trkpt lat="44.22684" lon="5.4089">
        <ele>900</ele>
        <time>2026-05-13T15:14:34.000Z</time>
      </trkpt>
      <trkpt lat="44.22685" lon="5.40889">
        <ele>900</ele>
        <time>2026-05-13T15:14:35.000Z</time>
      </trkpt>
      <trkpt lat="44.22686" lon="5.40888">
        <ele>900</ele>
        <time>2026-05-13T15:14:36.000Z</time>
      </trkpt>
      <trkpt lat="44.22687" lon="5.40886">
        <ele>901</ele>
        <time>2026-05-13T15:14:37.000Z</time>
      </trkpt>
      <trkpt lat="44.22687" lon="5.40885">
        <ele>900</ele>
        <time>2026-05-13T15:14:38.000Z</time>
      </trkpt>
      <trkpt lat="44.22688" lon="5.40883">
        <ele>900</ele>
        <time>2026-05-13T15:14:39.000Z</time>
      </trkpt>
      <trkpt lat="44.22689" lon="5.40882">
        <ele>901</ele>
        <time>2026-05-13T15:14:40.000Z</time>
      </trkpt>
      <trkpt lat="44.2269" lon="5.40881">
        <ele>901</ele>
        <time>2026-05-13T15:14:41.000Z</time>
      </trkpt>
      <trkpt lat="44.22691" lon="5.40879">
        <ele>902</ele>
        <time>2026-05-13T15:14:42.000Z</time>
      </trkpt>
      <trkpt lat="44.2269" lon="5.40877">
        <ele>902</ele>
        <time>2026-05-13T15:14:43.000Z</time>
      </trkpt>
      <trkpt lat="44.2269" lon="5.40875">
        <ele>903</ele>
        <time>2026-05-13T15:14:44.000Z</time>
      </trkpt>
      <trkpt lat="44.22691" lon="5.40874">
        <ele>902</ele>
        <time>2026-05-13T15:14:45.000Z</time>
      </trkpt>
      <trkpt lat="44.2269" lon="5.40872">
        <ele>902</ele>
        <time>2026-05-13T15:14:46.000Z</time>
      </trkpt>
      <trkpt lat="44.22691" lon="5.40872">
        <ele>902</ele>
        <time>2026-05-13T15:14:47.000Z</time>
      </trkpt>
      <trkpt lat="44.22692" lon="5.40871">
        <ele>901</ele>
        <time>2026-05-13T15:14:48.000Z</time>
      </trkpt>
      <trkpt lat="44.22692" lon="5.40869">
        <ele>902</ele>
        <time>2026-05-13T15:14:49.000Z</time>
      </trkpt>
      <trkpt lat="44.22693" lon="5.40868">
        <ele>903</ele>
        <time>2026-05-13T15:14:50.000Z</time>
      </trkpt>
      <trkpt lat="44.22692" lon="5.40865">
        <ele>902</ele>
        <time>2026-05-13T15:14:51.000Z</time>
      </trkpt>
      <trkpt lat="44.22693" lon="5.40864">
        <ele>902</ele>
        <time>2026-05-13T15:14:52.000Z</time>
      </trkpt>
      <trkpt lat="44.22694" lon="5.40862">
        <ele>903</ele>
        <time>2026-05-13T15:14:53.000Z</time>
      </trkpt>
      <trkpt lat="44.22695" lon="5.40861">
        <ele>903</ele>
        <time>2026-05-13T15:14:54.000Z</time>
      </trkpt>
      <trkpt lat="44.22695" lon="5.40859">
        <ele>903</ele>
        <time>2026-05-13T15:14:55.000Z</time>
      </trkpt>
      <trkpt lat="44.22696" lon="5.40858">
        <ele>902</ele>
        <time>2026-05-13T15:14:56.000Z</time>
      </trkpt>
      <trkpt lat="44.22696" lon="5.40856">
        <ele>902</ele>
        <time>2026-05-13T15:14:57.000Z</time>
      </trkpt>
      <trkpt lat="44.22697" lon="5.40854">
        <ele>903</ele>
        <time>2026-05-13T15:14:58.000Z</time>
      </trkpt>
      <trkpt lat="44.22698" lon="5.40852">
        <ele>903</ele>
        <time>2026-05-13T15:14:59.000Z</time>
      </trkpt>
      <trkpt lat="44.22698" lon="5.4085">
        <ele>904</ele>
        <time>2026-05-13T15:15:00.000Z</time>
      </trkpt>
      <trkpt lat="44.22699" lon="5.40849">
        <ele>904</ele>
        <time>2026-05-13T15:15:01.000Z</time>
      </trkpt>
      <trkpt lat="44.227" lon="5.40848">
        <ele>904</ele>
        <time>2026-05-13T15:15:02.000Z</time>
      </trkpt>
      <trkpt lat="44.22701" lon="5.40846">
        <ele>904</ele>
        <time>2026-05-13T15:15:03.000Z</time>
      </trkpt>
      <trkpt lat="44.22702" lon="5.40845">
        <ele>904</ele>
        <time>2026-05-13T15:15:04.000Z</time>
      </trkpt>
      <trkpt lat="44.22704" lon="5.40843">
        <ele>904</ele>
        <time>2026-05-13T15:15:05.000Z</time>
      </trkpt>
      <trkpt lat="44.22705" lon="5.40841">
        <ele>904</ele>
        <time>2026-05-13T15:15:06.000Z</time>
      </trkpt>
      <trkpt lat="44.22705" lon="5.4084">
        <ele>904</ele>
        <time>2026-05-13T15:15:07.000Z</time>
      </trkpt>
      <trkpt lat="44.22706" lon="5.40838">
        <ele>904</ele>
        <time>2026-05-13T15:15:08.000Z</time>
      </trkpt>
      <trkpt lat="44.22707" lon="5.40836">
        <ele>904</ele>
        <time>2026-05-13T15:15:09.000Z</time>
      </trkpt>
      <trkpt lat="44.22708" lon="5.40834">
        <ele>904</ele>
        <time>2026-05-13T15:15:10.000Z</time>
      </trkpt>
      <trkpt lat="44.2271" lon="5.40833">
        <ele>904</ele>
        <time>2026-05-13T15:15:11.000Z</time>
      </trkpt>
      <trkpt lat="44.22711" lon="5.40831">
        <ele>904</ele>
        <time>2026-05-13T15:15:12.000Z</time>
      </trkpt>
      <trkpt lat="44.22712" lon="5.4083">
        <ele>904</ele>
        <time>2026-05-13T15:15:13.000Z</time>
      </trkpt>
      <trkpt lat="44.22713" lon="5.40828">
        <ele>905</ele>
        <time>2026-05-13T15:15:14.000Z</time>
      </trkpt>
      <trkpt lat="44.22715" lon="5.40826">
        <ele>905</ele>
        <time>2026-05-13T15:15:15.000Z</time>
      </trkpt>
      <trkpt lat="44.22716" lon="5.40824">
        <ele>905</ele>
        <time>2026-05-13T15:15:16.000Z</time>
      </trkpt>
      <trkpt lat="44.22718" lon="5.40823">
        <ele>905</ele>
        <time>2026-05-13T15:15:17.000Z</time>
      </trkpt>
      <trkpt lat="44.22719" lon="5.40821">
        <ele>905</ele>
        <time>2026-05-13T15:15:18.000Z</time>
      </trkpt>
      <trkpt lat="44.22721" lon="5.40819">
        <ele>905</ele>
        <time>2026-05-13T15:15:19.000Z</time>
      </trkpt>
      <trkpt lat="44.22722" lon="5.40818">
        <ele>905</ele>
        <time>2026-05-13T15:15:20.000Z</time>
      </trkpt>
      <trkpt lat="44.22724" lon="5.40817">
        <ele>905</ele>
        <time>2026-05-13T15:15:21.000Z</time>
      </trkpt>
      <trkpt lat="44.22725" lon="5.40815">
        <ele>906</ele>
        <time>2026-05-13T15:15:22.000Z</time>
      </trkpt>
      <trkpt lat="44.22726" lon="5.40814">
        <ele>905</ele>
        <time>2026-05-13T15:15:23.000Z</time>
      </trkpt>
      <trkpt lat="44.22727" lon="5.40811">
        <ele>905</ele>
        <time>2026-05-13T15:15:24.000Z</time>
      </trkpt>
      <trkpt lat="44.22728" lon="5.4081">
        <ele>906</ele>
        <time>2026-05-13T15:15:25.000Z</time>
      </trkpt>
      <trkpt lat="44.2273" lon="5.40807">
        <ele>906</ele>
        <time>2026-05-13T15:15:26.000Z</time>
      </trkpt>
      <trkpt lat="44.22731" lon="5.40805">
        <ele>906</ele>
        <time>2026-05-13T15:15:27.000Z</time>
      </trkpt>
      <trkpt lat="44.22733" lon="5.40804">
        <ele>906</ele>
        <time>2026-05-13T15:15:28.000Z</time>
      </trkpt>
      <trkpt lat="44.22734" lon="5.40802">
        <ele>906</ele>
        <time>2026-05-13T15:15:29.000Z</time>
      </trkpt>
      <trkpt lat="44.22735" lon="5.408">
        <ele>907</ele>
        <time>2026-05-13T15:15:30.000Z</time>
      </trkpt>
      <trkpt lat="44.22737" lon="5.40798">
        <ele>908</ele>
        <time>2026-05-13T15:15:31.000Z</time>
      </trkpt>
      <trkpt lat="44.22738" lon="5.40796">
        <ele>908</ele>
        <time>2026-05-13T15:15:32.000Z</time>
      </trkpt>
      <trkpt lat="44.22739" lon="5.40794">
        <ele>908</ele>
        <time>2026-05-13T15:15:33.000Z</time>
      </trkpt>
      <trkpt lat="44.2274" lon="5.40792">
        <ele>908</ele>
        <time>2026-05-13T15:15:34.000Z</time>
      </trkpt>
      <trkpt lat="44.22741" lon="5.4079">
        <ele>908</ele>
        <time>2026-05-13T15:15:35.000Z</time>
      </trkpt>
      <trkpt lat="44.22743" lon="5.40788">
        <ele>908</ele>
        <time>2026-05-13T15:15:36.000Z</time>
      </trkpt>
      <trkpt lat="44.22744" lon="5.40787">
        <ele>908</ele>
        <time>2026-05-13T15:15:37.000Z</time>
      </trkpt>
      <trkpt lat="44.22745" lon="5.40786">
        <ele>908</ele>
        <time>2026-05-13T15:15:38.000Z</time>
      </trkpt>
      <trkpt lat="44.22746" lon="5.40784">
        <ele>909</ele>
        <time>2026-05-13T15:15:39.000Z</time>
      </trkpt>
      <trkpt lat="44.22747" lon="5.40783">
        <ele>909</ele>
        <time>2026-05-13T15:15:40.000Z</time>
      </trkpt>
      <trkpt lat="44.22748" lon="5.40781">
        <ele>908</ele>
        <time>2026-05-13T15:15:41.000Z</time>
      </trkpt>
      <trkpt lat="44.22749" lon="5.4078">
        <ele>908</ele>
        <time>2026-05-13T15:15:42.000Z</time>
      </trkpt>
      <trkpt lat="44.2275" lon="5.40778">
        <ele>908</ele>
        <time>2026-05-13T15:15:43.000Z</time>
      </trkpt>
      <trkpt lat="44.22752" lon="5.40777">
        <ele>908</ele>
        <time>2026-05-13T15:15:44.000Z</time>
      </trkpt>
      <trkpt lat="44.22753" lon="5.40775">
        <ele>908</ele>
        <time>2026-05-13T15:15:45.000Z</time>
      </trkpt>
      <trkpt lat="44.22754" lon="5.40774">
        <ele>908</ele>
        <time>2026-05-13T15:15:46.000Z</time>
      </trkpt>
      <trkpt lat="44.22754" lon="5.40772">
        <ele>908</ele>
        <time>2026-05-13T15:15:47.000Z</time>
      </trkpt>
      <trkpt lat="44.22755" lon="5.4077">
        <ele>907</ele>
        <time>2026-05-13T15:15:48.000Z</time>
      </trkpt>
      <trkpt lat="44.22757" lon="5.40768">
        <ele>907</ele>
        <time>2026-05-13T15:15:49.000Z</time>
      </trkpt>
      <trkpt lat="44.22758" lon="5.40767">
        <ele>907</ele>
        <time>2026-05-13T15:15:50.000Z</time>
      </trkpt>
      <trkpt lat="44.22758" lon="5.40765">
        <ele>907</ele>
        <time>2026-05-13T15:15:51.000Z</time>
      </trkpt>
      <trkpt lat="44.22759" lon="5.40763">
        <ele>907</ele>
        <time>2026-05-13T15:15:52.000Z</time>
      </trkpt>
      <trkpt lat="44.22759" lon="5.40761">
        <ele>907</ele>
        <time>2026-05-13T15:15:53.000Z</time>
      </trkpt>
      <trkpt lat="44.2276" lon="5.4076">
        <ele>906</ele>
        <time>2026-05-13T15:15:54.000Z</time>
      </trkpt>
      <trkpt lat="44.22762" lon="5.40758">
        <ele>906</ele>
        <time>2026-05-13T15:15:55.000Z</time>
      </trkpt>
      <trkpt lat="44.22762" lon="5.40756">
        <ele>906</ele>
        <time>2026-05-13T15:15:56.000Z</time>
      </trkpt>
      <trkpt lat="44.22763" lon="5.40754">
        <ele>907</ele>
        <time>2026-05-13T15:15:57.000Z</time>
      </trkpt>
      <trkpt lat="44.22764" lon="5.40754">
        <ele>907</ele>
        <time>2026-05-13T15:15:58.000Z</time>
      </trkpt>
      <trkpt lat="44.22764" lon="5.40752">
        <ele>907</ele>
        <time>2026-05-13T15:15:59.000Z</time>
      </trkpt>
      <trkpt lat="44.22765" lon="5.40751">
        <ele>907</ele>
        <time>2026-05-13T15:16:00.000Z</time>
      </trkpt>
      <trkpt lat="44.22766" lon="5.40748">
        <ele>907</ele>
        <time>2026-05-13T15:16:01.000Z</time>
      </trkpt>
      <trkpt lat="44.22766" lon="5.40747">
        <ele>907</ele>
        <time>2026-05-13T15:16:02.000Z</time>
      </trkpt>
      <trkpt lat="44.22768" lon="5.40745">
        <ele>907</ele>
        <time>2026-05-13T15:16:03.000Z</time>
      </trkpt>
      <trkpt lat="44.22769" lon="5.40744">
        <ele>907</ele>
        <time>2026-05-13T15:16:04.000Z</time>
      </trkpt>
      <trkpt lat="44.2277" lon="5.40741">
        <ele>908</ele>
        <time>2026-05-13T15:16:05.000Z</time>
      </trkpt>
      <trkpt lat="44.22772" lon="5.40739">
        <ele>908</ele>
        <time>2026-05-13T15:16:06.000Z</time>
      </trkpt>
      <trkpt lat="44.22774" lon="5.40736">
        <ele>908</ele>
        <time>2026-05-13T15:16:07.000Z</time>
      </trkpt>
      <trkpt lat="44.22775" lon="5.40733">
        <ele>908</ele>
        <time>2026-05-13T15:16:08.000Z</time>
      </trkpt>
      <trkpt lat="44.22776" lon="5.40731">
        <ele>909</ele>
        <time>2026-05-13T15:16:09.000Z</time>
      </trkpt>
      <trkpt lat="44.22777" lon="5.40728">
        <ele>909</ele>
        <time>2026-05-13T15:16:10.000Z</time>
      </trkpt>
      <trkpt lat="44.22778" lon="5.40725">
        <ele>909</ele>
        <time>2026-05-13T15:16:11.000Z</time>
      </trkpt>
      <trkpt lat="44.22778" lon="5.40721">
        <ele>909</ele>
        <time>2026-05-13T15:16:12.000Z</time>
      </trkpt>
      <trkpt lat="44.22779" lon="5.40718">
        <ele>908</ele>
        <time>2026-05-13T15:16:13.000Z</time>
      </trkpt>
      <trkpt lat="44.22779" lon="5.40714">
        <ele>909</ele>
        <time>2026-05-13T15:16:14.000Z</time>
      </trkpt>
      <trkpt lat="44.22779" lon="5.40709">
        <ele>910</ele>
        <time>2026-05-13T15:16:15.000Z</time>
      </trkpt>
      <trkpt lat="44.22779" lon="5.40705">
        <ele>910</ele>
        <time>2026-05-13T15:16:16.000Z</time>
      </trkpt>
      <trkpt lat="44.2278" lon="5.40701">
        <ele>910</ele>
        <time>2026-05-13T15:16:17.000Z</time>
      </trkpt>
      <trkpt lat="44.22779" lon="5.40697">
        <ele>910</ele>
        <time>2026-05-13T15:16:18.000Z</time>
      </trkpt>
      <trkpt lat="44.2278" lon="5.40693">
        <ele>910</ele>
        <time>2026-05-13T15:16:19.000Z</time>
      </trkpt>
      <trkpt lat="44.2278" lon="5.40689">
        <ele>910</ele>
        <time>2026-05-13T15:16:20.000Z</time>
      </trkpt>
      <trkpt lat="44.22781" lon="5.40686">
        <ele>910</ele>
        <time>2026-05-13T15:16:21.000Z</time>
      </trkpt>
      <trkpt lat="44.22781" lon="5.40682">
        <ele>910</ele>
        <time>2026-05-13T15:16:22.000Z</time>
      </trkpt>
      <trkpt lat="44.22782" lon="5.40678">
        <ele>910</ele>
        <time>2026-05-13T15:16:23.000Z</time>
      </trkpt>
      <trkpt lat="44.22783" lon="5.40675">
        <ele>910</ele>
        <time>2026-05-13T15:16:24.000Z</time>
      </trkpt>
      <trkpt lat="44.22783" lon="5.40673">
        <ele>910</ele>
        <time>2026-05-13T15:16:25.000Z</time>
      </trkpt>
      <trkpt lat="44.22783" lon="5.4067">
        <ele>910</ele>
        <time>2026-05-13T15:16:26.000Z</time>
      </trkpt>
      <trkpt lat="44.22784" lon="5.40668">
        <ele>910</ele>
        <time>2026-05-13T15:16:27.000Z</time>
      </trkpt>
      <trkpt lat="44.22785" lon="5.40666">
        <ele>911</ele>
        <time>2026-05-13T15:16:28.000Z</time>
      </trkpt>
      <trkpt lat="44.22786" lon="5.40664">
        <ele>911</ele>
        <time>2026-05-13T15:16:29.000Z</time>
      </trkpt>
      <trkpt lat="44.22787" lon="5.40662">
        <ele>911</ele>
        <time>2026-05-13T15:16:30.000Z</time>
      </trkpt>
      <trkpt lat="44.22788" lon="5.40661">
        <ele>911</ele>
        <time>2026-05-13T15:16:31.000Z</time>
      </trkpt>
      <trkpt lat="44.22789" lon="5.40659">
        <ele>911</ele>
        <time>2026-05-13T15:16:32.000Z</time>
      </trkpt>
      <trkpt lat="44.2279" lon="5.40657">
        <ele>910</ele>
        <time>2026-05-13T15:16:33.000Z</time>
      </trkpt>
      <trkpt lat="44.22791" lon="5.40655">
        <ele>911</ele>
        <time>2026-05-13T15:16:34.000Z</time>
      </trkpt>
      <trkpt lat="44.22793" lon="5.40653">
        <ele>911</ele>
        <time>2026-05-13T15:16:35.000Z</time>
      </trkpt>
      <trkpt lat="44.22794" lon="5.40652">
        <ele>910</ele>
        <time>2026-05-13T15:16:36.000Z</time>
      </trkpt>
      <trkpt lat="44.22795" lon="5.4065">
        <ele>910</ele>
        <time>2026-05-13T15:16:37.000Z</time>
      </trkpt>
      <trkpt lat="44.22797" lon="5.40648">
        <ele>910</ele>
        <time>2026-05-13T15:16:38.000Z</time>
      </trkpt>
      <trkpt lat="44.22799" lon="5.40647">
        <ele>910</ele>
        <time>2026-05-13T15:16:39.000Z</time>
      </trkpt>
      <trkpt lat="44.228" lon="5.40646">
        <ele>910</ele>
        <time>2026-05-13T15:16:40.000Z</time>
      </trkpt>
      <trkpt lat="44.22802" lon="5.40645">
        <ele>910</ele>
        <time>2026-05-13T15:16:41.000Z</time>
      </trkpt>
      <trkpt lat="44.22803" lon="5.40643">
        <ele>910</ele>
        <time>2026-05-13T15:16:42.000Z</time>
      </trkpt>
      <trkpt lat="44.22804" lon="5.40642">
        <ele>910</ele>
        <time>2026-05-13T15:16:43.000Z</time>
      </trkpt>
      <trkpt lat="44.22805" lon="5.40641">
        <ele>911</ele>
        <time>2026-05-13T15:16:44.000Z</time>
      </trkpt>
      <trkpt lat="44.22806" lon="5.40639">
        <ele>911</ele>
        <time>2026-05-13T15:16:45.000Z</time>
      </trkpt>
      <trkpt lat="44.22807" lon="5.40638">
        <ele>911</ele>
        <time>2026-05-13T15:16:46.000Z</time>
      </trkpt>
      <trkpt lat="44.22808" lon="5.40637">
        <ele>911</ele>
        <time>2026-05-13T15:16:47.000Z</time>
      </trkpt>
      <trkpt lat="44.22809" lon="5.40636">
        <ele>911</ele>
        <time>2026-05-13T15:16:48.000Z</time>
      </trkpt>
      <trkpt lat="44.2281" lon="5.40635">
        <ele>911</ele>
        <time>2026-05-13T15:16:49.000Z</time>
      </trkpt>
      <trkpt lat="44.22811" lon="5.40634">
        <ele>912</ele>
        <time>2026-05-13T15:16:50.000Z</time>
      </trkpt>
      <trkpt lat="44.22813" lon="5.40633">
        <ele>912</ele>
        <time>2026-05-13T15:16:51.000Z</time>
      </trkpt>
      <trkpt lat="44.22814" lon="5.40632">
        <ele>913</ele>
        <time>2026-05-13T15:16:52.000Z</time>
      </trkpt>
      <trkpt lat="44.22815" lon="5.40632">
        <ele>912</ele>
        <time>2026-05-13T15:16:53.000Z</time>
      </trkpt>
      <trkpt lat="44.22816" lon="5.40631">
        <ele>913</ele>
        <time>2026-05-13T15:16:54.000Z</time>
      </trkpt>
      <trkpt lat="44.22817" lon="5.4063">
        <ele>913</ele>
        <time>2026-05-13T15:16:55.000Z</time>
      </trkpt>
      <trkpt lat="44.22818" lon="5.40628">
        <ele>913</ele>
        <time>2026-05-13T15:16:56.000Z</time>
      </trkpt>
      <trkpt lat="44.22818" lon="5.40626">
        <ele>914</ele>
        <time>2026-05-13T15:16:57.000Z</time>
      </trkpt>
      <trkpt lat="44.22819" lon="5.40625">
        <ele>914</ele>
        <time>2026-05-13T15:16:58.000Z</time>
      </trkpt>
      <trkpt lat="44.22819" lon="5.40624">
        <ele>915</ele>
        <time>2026-05-13T15:16:59.000Z</time>
      </trkpt>
      <trkpt lat="44.2282" lon="5.40623">
        <ele>915</ele>
        <time>2026-05-13T15:17:00.000Z</time>
      </trkpt>
      <trkpt lat="44.22822" lon="5.40622">
        <ele>914</ele>
        <time>2026-05-13T15:17:01.000Z</time>
      </trkpt>
      <trkpt lat="44.22823" lon="5.40621">
        <ele>915</ele>
        <time>2026-05-13T15:17:02.000Z</time>
      </trkpt>
      <trkpt lat="44.22824" lon="5.4062">
        <ele>915</ele>
        <time>2026-05-13T15:17:03.000Z</time>
      </trkpt>
      <trkpt lat="44.22825" lon="5.40619">
        <ele>915</ele>
        <time>2026-05-13T15:17:04.000Z</time>
      </trkpt>
      <trkpt lat="44.22826" lon="5.40618">
        <ele>916</ele>
        <time>2026-05-13T15:17:05.000Z</time>
      </trkpt>
      <trkpt lat="44.22828" lon="5.40617">
        <ele>915</ele>
        <time>2026-05-13T15:17:06.000Z</time>
      </trkpt>
      <trkpt lat="44.2283" lon="5.40617">
        <ele>915</ele>
        <time>2026-05-13T15:17:07.000Z</time>
      </trkpt>
      <trkpt lat="44.22831" lon="5.40616">
        <ele>915</ele>
        <time>2026-05-13T15:17:08.000Z</time>
      </trkpt>
      <trkpt lat="44.22832" lon="5.40616">
        <ele>915</ele>
        <time>2026-05-13T15:17:09.000Z</time>
      </trkpt>
      <trkpt lat="44.22833" lon="5.40615">
        <ele>915</ele>
        <time>2026-05-13T15:17:10.000Z</time>
      </trkpt>
      <trkpt lat="44.22835" lon="5.40615">
        <ele>915</ele>
        <time>2026-05-13T15:17:11.000Z</time>
      </trkpt>
      <trkpt lat="44.22836" lon="5.40615">
        <ele>915</ele>
        <time>2026-05-13T15:17:12.000Z</time>
      </trkpt>
      <trkpt lat="44.22837" lon="5.40614">
        <ele>915</ele>
        <time>2026-05-13T15:17:13.000Z</time>
      </trkpt>
      <trkpt lat="44.22838" lon="5.40614">
        <ele>916</ele>
        <time>2026-05-13T15:17:14.000Z</time>
      </trkpt>
      <trkpt lat="44.22839" lon="5.40613">
        <ele>916</ele>
        <time>2026-05-13T15:17:15.000Z</time>
      </trkpt>
      <trkpt lat="44.2284" lon="5.40612">
        <ele>917</ele>
        <time>2026-05-13T15:17:16.000Z</time>
      </trkpt>
      <trkpt lat="44.22841" lon="5.40612">
        <ele>917</ele>
        <time>2026-05-13T15:17:17.000Z</time>
      </trkpt>
      <trkpt lat="44.22843" lon="5.40611">
        <ele>917</ele>
        <time>2026-05-13T15:17:18.000Z</time>
      </trkpt>
      <trkpt lat="44.22844" lon="5.4061">
        <ele>917</ele>
        <time>2026-05-13T15:17:19.000Z</time>
      </trkpt>
      <trkpt lat="44.22845" lon="5.4061">
        <ele>918</ele>
        <time>2026-05-13T15:17:20.000Z</time>
      </trkpt>
      <trkpt lat="44.22847" lon="5.40609">
        <ele>918</ele>
        <time>2026-05-13T15:17:21.000Z</time>
      </trkpt>
      <trkpt lat="44.22848" lon="5.40608">
        <ele>918</ele>
        <time>2026-05-13T15:17:22.000Z</time>
      </trkpt>
      <trkpt lat="44.2285" lon="5.40608">
        <ele>918</ele>
        <time>2026-05-13T15:17:23.000Z</time>
      </trkpt>
      <trkpt lat="44.22852" lon="5.40607">
        <ele>918</ele>
        <time>2026-05-13T15:17:24.000Z</time>
      </trkpt>
      <trkpt lat="44.22853" lon="5.40606">
        <ele>918</ele>
        <time>2026-05-13T15:17:25.000Z</time>
      </trkpt>
      <trkpt lat="44.22854" lon="5.40606">
        <ele>919</ele>
        <time>2026-05-13T15:17:26.000Z</time>
      </trkpt>
      <trkpt lat="44.22856" lon="5.40605">
        <ele>919</ele>
        <time>2026-05-13T15:17:27.000Z</time>
      </trkpt>
      <trkpt lat="44.22857" lon="5.40604">
        <ele>920</ele>
        <time>2026-05-13T15:17:28.000Z</time>
      </trkpt>
      <trkpt lat="44.22858" lon="5.40602">
        <ele>920</ele>
        <time>2026-05-13T15:17:29.000Z</time>
      </trkpt>
      <trkpt lat="44.2286" lon="5.40601">
        <ele>920</ele>
        <time>2026-05-13T15:17:30.000Z</time>
      </trkpt>
      <trkpt lat="44.22861" lon="5.406">
        <ele>921</ele>
        <time>2026-05-13T15:17:31.000Z</time>
      </trkpt>
      <trkpt lat="44.22862" lon="5.40599">
        <ele>921</ele>
        <time>2026-05-13T15:17:32.000Z</time>
      </trkpt>
      <trkpt lat="44.22863" lon="5.40598">
        <ele>921</ele>
        <time>2026-05-13T15:17:33.000Z</time>
      </trkpt>
      <trkpt lat="44.22864" lon="5.40597">
        <ele>920</ele>
        <time>2026-05-13T15:17:34.000Z</time>
      </trkpt>
      <trkpt lat="44.22865" lon="5.40597">
        <ele>920</ele>
        <time>2026-05-13T15:17:35.000Z</time>
      </trkpt>
      <trkpt lat="44.22866" lon="5.40596">
        <ele>920</ele>
        <time>2026-05-13T15:17:36.000Z</time>
      </trkpt>
      <trkpt lat="44.22867" lon="5.40594">
        <ele>920</ele>
        <time>2026-05-13T15:17:37.000Z</time>
      </trkpt>
      <trkpt lat="44.22867" lon="5.40593">
        <ele>920</ele>
        <time>2026-05-13T15:17:38.000Z</time>
      </trkpt>
      <trkpt lat="44.22869" lon="5.40592">
        <ele>920</ele>
        <time>2026-05-13T15:17:39.000Z</time>
      </trkpt>
      <trkpt lat="44.2287" lon="5.40591">
        <ele>920</ele>
        <time>2026-05-13T15:17:40.000Z</time>
      </trkpt>
      <trkpt lat="44.22871" lon="5.4059">
        <ele>919</ele>
        <time>2026-05-13T15:17:41.000Z</time>
      </trkpt>
      <trkpt lat="44.22872" lon="5.40589">
        <ele>919</ele>
        <time>2026-05-13T15:17:42.000Z</time>
      </trkpt>
      <trkpt lat="44.22873" lon="5.40588">
        <ele>919</ele>
        <time>2026-05-13T15:17:43.000Z</time>
      </trkpt>
      <trkpt lat="44.22875" lon="5.40586">
        <ele>919</ele>
        <time>2026-05-13T15:17:44.000Z</time>
      </trkpt>
      <trkpt lat="44.22876" lon="5.40584">
        <ele>920</ele>
        <time>2026-05-13T15:17:45.000Z</time>
      </trkpt>
      <trkpt lat="44.22877" lon="5.40583">
        <ele>920</ele>
        <time>2026-05-13T15:17:46.000Z</time>
      </trkpt>
      <trkpt lat="44.22878" lon="5.40581">
        <ele>921</ele>
        <time>2026-05-13T15:17:47.000Z</time>
      </trkpt>
      <trkpt lat="44.22879" lon="5.4058">
        <ele>920</ele>
        <time>2026-05-13T15:17:48.000Z</time>
      </trkpt>
      <trkpt lat="44.22879" lon="5.40578">
        <ele>920</ele>
        <time>2026-05-13T15:17:49.000Z</time>
      </trkpt>
      <trkpt lat="44.2288" lon="5.40576">
        <ele>920</ele>
        <time>2026-05-13T15:17:50.000Z</time>
      </trkpt>
      <trkpt lat="44.22881" lon="5.40574">
        <ele>920</ele>
        <time>2026-05-13T15:17:51.000Z</time>
      </trkpt>
      <trkpt lat="44.22882" lon="5.40572">
        <ele>920</ele>
        <time>2026-05-13T15:17:52.000Z</time>
      </trkpt>
      <trkpt lat="44.22883" lon="5.40571">
        <ele>921</ele>
        <time>2026-05-13T15:17:53.000Z</time>
      </trkpt>
      <trkpt lat="44.22884" lon="5.40569">
        <ele>921</ele>
        <time>2026-05-13T15:17:54.000Z</time>
      </trkpt>
      <trkpt lat="44.22884" lon="5.40567">
        <ele>922</ele>
        <time>2026-05-13T15:17:55.000Z</time>
      </trkpt>
      <trkpt lat="44.22885" lon="5.40566">
        <ele>922</ele>
        <time>2026-05-13T15:17:56.000Z</time>
      </trkpt>
      <trkpt lat="44.22886" lon="5.40564">
        <ele>921</ele>
        <time>2026-05-13T15:17:57.000Z</time>
      </trkpt>
      <trkpt lat="44.22887" lon="5.40563">
        <ele>922</ele>
        <time>2026-05-13T15:17:58.000Z</time>
      </trkpt>
      <trkpt lat="44.22888" lon="5.40562">
        <ele>922</ele>
        <time>2026-05-13T15:17:59.000Z</time>
      </trkpt>
      <trkpt lat="44.22889" lon="5.40561">
        <ele>921</ele>
        <time>2026-05-13T15:18:00.000Z</time>
      </trkpt>
      <trkpt lat="44.2289" lon="5.4056">
        <ele>921</ele>
        <time>2026-05-13T15:18:01.000Z</time>
      </trkpt>
      <trkpt lat="44.22891" lon="5.40558">
        <ele>921</ele>
        <time>2026-05-13T15:18:02.000Z</time>
      </trkpt>
      <trkpt lat="44.22892" lon="5.40557">
        <ele>922</ele>
        <time>2026-05-13T15:18:03.000Z</time>
      </trkpt>
      <trkpt lat="44.22893" lon="5.40555">
        <ele>922</ele>
        <time>2026-05-13T15:18:04.000Z</time>
      </trkpt>
      <trkpt lat="44.22893" lon="5.40553">
        <ele>922</ele>
        <time>2026-05-13T15:18:05.000Z</time>
      </trkpt>
      <trkpt lat="44.22894" lon="5.40551">
        <ele>923</ele>
        <time>2026-05-13T15:18:06.000Z</time>
      </trkpt>
      <trkpt lat="44.22895" lon="5.4055">
        <ele>923</ele>
        <time>2026-05-13T15:18:07.000Z</time>
      </trkpt>
      <trkpt lat="44.22896" lon="5.40549">
        <ele>923</ele>
        <time>2026-05-13T15:18:08.000Z</time>
      </trkpt>
      <trkpt lat="44.22897" lon="5.40547">
        <ele>924</ele>
        <time>2026-05-13T15:18:09.000Z</time>
      </trkpt>
      <trkpt lat="44.22898" lon="5.40545">
        <ele>924</ele>
        <time>2026-05-13T15:18:10.000Z</time>
      </trkpt>
      <trkpt lat="44.22899" lon="5.40543">
        <ele>924</ele>
        <time>2026-05-13T15:18:11.000Z</time>
      </trkpt>
      <trkpt lat="44.229" lon="5.40541">
        <ele>924</ele>
        <time>2026-05-13T15:18:12.000Z</time>
      </trkpt>
      <trkpt lat="44.22901" lon="5.40539">
        <ele>923</ele>
        <time>2026-05-13T15:18:13.000Z</time>
      </trkpt>
      <trkpt lat="44.22903" lon="5.40538">
        <ele>923</ele>
        <time>2026-05-13T15:18:14.000Z</time>
      </trkpt>
      <trkpt lat="44.22904" lon="5.40536">
        <ele>924</ele>
        <time>2026-05-13T15:18:15.000Z</time>
      </trkpt>
      <trkpt lat="44.22905" lon="5.40535">
        <ele>924</ele>
        <time>2026-05-13T15:18:16.000Z</time>
      </trkpt>
      <trkpt lat="44.22907" lon="5.40533">
        <ele>924</ele>
        <time>2026-05-13T15:18:17.000Z</time>
      </trkpt>
      <trkpt lat="44.22908" lon="5.40531">
        <ele>923</ele>
        <time>2026-05-13T15:18:18.000Z</time>
      </trkpt>
      <trkpt lat="44.22909" lon="5.4053">
        <ele>923</ele>
        <time>2026-05-13T15:18:19.000Z</time>
      </trkpt>
      <trkpt lat="44.22911" lon="5.40528">
        <ele>923</ele>
        <time>2026-05-13T15:18:20.000Z</time>
      </trkpt>
      <trkpt lat="44.22912" lon="5.40526">
        <ele>923</ele>
        <time>2026-05-13T15:18:21.000Z</time>
      </trkpt>
      <trkpt lat="44.22914" lon="5.40524">
        <ele>923</ele>
        <time>2026-05-13T15:18:22.000Z</time>
      </trkpt>
      <trkpt lat="44.22916" lon="5.40523">
        <ele>923</ele>
        <time>2026-05-13T15:18:23.000Z</time>
      </trkpt>
      <trkpt lat="44.22918" lon="5.40523">
        <ele>923</ele>
        <time>2026-05-13T15:18:24.000Z</time>
      </trkpt>
      <trkpt lat="44.22921" lon="5.40522">
        <ele>923</ele>
        <time>2026-05-13T15:18:25.000Z</time>
      </trkpt>
      <trkpt lat="44.22923" lon="5.40521">
        <ele>922</ele>
        <time>2026-05-13T15:18:26.000Z</time>
      </trkpt>
      <trkpt lat="44.22926" lon="5.40519">
        <ele>922</ele>
        <time>2026-05-13T15:18:27.000Z</time>
      </trkpt>
      <trkpt lat="44.22928" lon="5.40518">
        <ele>922</ele>
        <time>2026-05-13T15:18:28.000Z</time>
      </trkpt>
      <trkpt lat="44.2293" lon="5.40516">
        <ele>922</ele>
        <time>2026-05-13T15:18:29.000Z</time>
      </trkpt>
      <trkpt lat="44.22932" lon="5.40514">
        <ele>922</ele>
        <time>2026-05-13T15:18:30.000Z</time>
      </trkpt>
      <trkpt lat="44.22935" lon="5.40512">
        <ele>922</ele>
        <time>2026-05-13T15:18:31.000Z</time>
      </trkpt>
      <trkpt lat="44.22937" lon="5.4051">
        <ele>922</ele>
        <time>2026-05-13T15:18:32.000Z</time>
      </trkpt>
      <trkpt lat="44.2294" lon="5.40507">
        <ele>922</ele>
        <time>2026-05-13T15:18:33.000Z</time>
      </trkpt>
      <trkpt lat="44.22942" lon="5.40505">
        <ele>921</ele>
        <time>2026-05-13T15:18:34.000Z</time>
      </trkpt>
      <trkpt lat="44.22945" lon="5.40503">
        <ele>921</ele>
        <time>2026-05-13T15:18:35.000Z</time>
      </trkpt>
      <trkpt lat="44.22949" lon="5.405">
        <ele>921</ele>
        <time>2026-05-13T15:18:36.000Z</time>
      </trkpt>
      <trkpt lat="44.22952" lon="5.40497">
        <ele>921</ele>
        <time>2026-05-13T15:18:37.000Z</time>
      </trkpt>
      <trkpt lat="44.22956" lon="5.40494">
        <ele>920</ele>
        <time>2026-05-13T15:18:38.000Z</time>
      </trkpt>
      <trkpt lat="44.22959" lon="5.40491">
        <ele>920</ele>
        <time>2026-05-13T15:18:39.000Z</time>
      </trkpt>
      <trkpt lat="44.22964" lon="5.40488">
        <ele>919</ele>
        <time>2026-05-13T15:18:40.000Z</time>
      </trkpt>
      <trkpt lat="44.22966" lon="5.40485">
        <ele>919</ele>
        <time>2026-05-13T15:18:41.000Z</time>
      </trkpt>
      <trkpt lat="44.22969" lon="5.40481">
        <ele>920</ele>
        <time>2026-05-13T15:18:42.000Z</time>
      </trkpt>
      <trkpt lat="44.22971" lon="5.40476">
        <ele>920</ele>
        <time>2026-05-13T15:18:43.000Z</time>
      </trkpt>
      <trkpt lat="44.22974" lon="5.40471">
        <ele>920</ele>
        <time>2026-05-13T15:18:44.000Z</time>
      </trkpt>
      <trkpt lat="44.22977" lon="5.40467">
        <ele>920</ele>
        <time>2026-05-13T15:18:45.000Z</time>
      </trkpt>
      <trkpt lat="44.22978" lon="5.40461">
        <ele>919</ele>
        <time>2026-05-13T15:18:46.000Z</time>
      </trkpt>
      <trkpt lat="44.2298" lon="5.40455">
        <ele>919</ele>
        <time>2026-05-13T15:18:47.000Z</time>
      </trkpt>
      <trkpt lat="44.22982" lon="5.4045">
        <ele>919</ele>
        <time>2026-05-13T15:18:48.000Z</time>
      </trkpt>
      <trkpt lat="44.22984" lon="5.40444">
        <ele>919</ele>
        <time>2026-05-13T15:18:49.000Z</time>
      </trkpt>
      <trkpt lat="44.22986" lon="5.4044">
        <ele>919</ele>
        <time>2026-05-13T15:18:50.000Z</time>
      </trkpt>
      <trkpt lat="44.22988" lon="5.40436">
        <ele>919</ele>
        <time>2026-05-13T15:18:51.000Z</time>
      </trkpt>
      <trkpt lat="44.2299" lon="5.40432">
        <ele>919</ele>
        <time>2026-05-13T15:18:52.000Z</time>
      </trkpt>
      <trkpt lat="44.22992" lon="5.40428">
        <ele>919</ele>
        <time>2026-05-13T15:18:53.000Z</time>
      </trkpt>
      <trkpt lat="44.22994" lon="5.40425">
        <ele>919</ele>
        <time>2026-05-13T15:18:54.000Z</time>
      </trkpt>
      <trkpt lat="44.22995" lon="5.40423">
        <ele>919</ele>
        <time>2026-05-13T15:18:55.000Z</time>
      </trkpt>
      <trkpt lat="44.22997" lon="5.4042">
        <ele>919</ele>
        <time>2026-05-13T15:18:56.000Z</time>
      </trkpt>
      <trkpt lat="44.22997" lon="5.40418">
        <ele>919</ele>
        <time>2026-05-13T15:18:57.000Z</time>
      </trkpt>
      <trkpt lat="44.22998" lon="5.40416">
        <ele>919</ele>
        <time>2026-05-13T15:18:58.000Z</time>
      </trkpt>
      <trkpt lat="44.23" lon="5.40413">
        <ele>919</ele>
        <time>2026-05-13T15:18:59.000Z</time>
      </trkpt>
      <trkpt lat="44.23001" lon="5.40411">
        <ele>919</ele>
        <time>2026-05-13T15:19:00.000Z</time>
      </trkpt>
      <trkpt lat="44.23003" lon="5.40408">
        <ele>919</ele>
        <time>2026-05-13T15:19:01.000Z</time>
      </trkpt>
      <trkpt lat="44.23004" lon="5.40405">
        <ele>919</ele>
        <time>2026-05-13T15:19:02.000Z</time>
      </trkpt>
      <trkpt lat="44.23005" lon="5.40403">
        <ele>919</ele>
        <time>2026-05-13T15:19:03.000Z</time>
      </trkpt>
      <trkpt lat="44.23007" lon="5.40399">
        <ele>919</ele>
        <time>2026-05-13T15:19:04.000Z</time>
      </trkpt>
      <trkpt lat="44.23008" lon="5.40397">
        <ele>919</ele>
        <time>2026-05-13T15:19:05.000Z</time>
      </trkpt>
      <trkpt lat="44.23009" lon="5.40395">
        <ele>919</ele>
        <time>2026-05-13T15:19:06.000Z</time>
      </trkpt>
      <trkpt lat="44.2301" lon="5.40392">
        <ele>919</ele>
        <time>2026-05-13T15:19:07.000Z</time>
      </trkpt>
      <trkpt lat="44.23012" lon="5.4039">
        <ele>919</ele>
        <time>2026-05-13T15:19:08.000Z</time>
      </trkpt>
      <trkpt lat="44.23013" lon="5.40388">
        <ele>920</ele>
        <time>2026-05-13T15:19:09.000Z</time>
      </trkpt>
      <trkpt lat="44.23014" lon="5.40386">
        <ele>920</ele>
        <time>2026-05-13T15:19:10.000Z</time>
      </trkpt>
      <trkpt lat="44.23015" lon="5.40384">
        <ele>919</ele>
        <time>2026-05-13T15:19:11.000Z</time>
      </trkpt>
      <trkpt lat="44.23015" lon="5.40381">
        <ele>919</ele>
        <time>2026-05-13T15:19:12.000Z</time>
      </trkpt>
      <trkpt lat="44.23016" lon="5.40378">
        <ele>919</ele>
        <time>2026-05-13T15:19:13.000Z</time>
      </trkpt>
      <trkpt lat="44.23016" lon="5.40376">
        <ele>919</ele>
        <time>2026-05-13T15:19:14.000Z</time>
      </trkpt>
      <trkpt lat="44.23016" lon="5.40373">
        <ele>919</ele>
        <time>2026-05-13T15:19:15.000Z</time>
      </trkpt>
      <trkpt lat="44.23015" lon="5.4037">
        <ele>918</ele>
        <time>2026-05-13T15:19:16.000Z</time>
      </trkpt>
      <trkpt lat="44.23015" lon="5.40367">
        <ele>919</ele>
        <time>2026-05-13T15:19:17.000Z</time>
      </trkpt>
      <trkpt lat="44.23015" lon="5.40364">
        <ele>918</ele>
        <time>2026-05-13T15:19:18.000Z</time>
      </trkpt>
      <trkpt lat="44.23014" lon="5.40361">
        <ele>919</ele>
        <time>2026-05-13T15:19:19.000Z</time>
      </trkpt>
      <trkpt lat="44.23015" lon="5.40358">
        <ele>919</ele>
        <time>2026-05-13T15:19:20.000Z</time>
      </trkpt>
      <trkpt lat="44.23014" lon="5.40356">
        <ele>919</ele>
        <time>2026-05-13T15:19:21.000Z</time>
      </trkpt>
      <trkpt lat="44.23014" lon="5.40353">
        <ele>919</ele>
        <time>2026-05-13T15:19:22.000Z</time>
      </trkpt>
      <trkpt lat="44.23014" lon="5.40349">
        <ele>919</ele>
        <time>2026-05-13T15:19:23.000Z</time>
      </trkpt>
      <trkpt lat="44.23014" lon="5.40347">
        <ele>919</ele>
        <time>2026-05-13T15:19:24.000Z</time>
      </trkpt>
      <trkpt lat="44.23015" lon="5.40344">
        <ele>919</ele>
        <time>2026-05-13T15:19:25.000Z</time>
      </trkpt>
      <trkpt lat="44.23015" lon="5.40342">
        <ele>920</ele>
        <time>2026-05-13T15:19:26.000Z</time>
      </trkpt>
      <trkpt lat="44.23016" lon="5.40339">
        <ele>920</ele>
        <time>2026-05-13T15:19:27.000Z</time>
      </trkpt>
      <trkpt lat="44.23017" lon="5.40336">
        <ele>919</ele>
        <time>2026-05-13T15:19:28.000Z</time>
      </trkpt>
      <trkpt lat="44.23019" lon="5.40334">
        <ele>919</ele>
        <time>2026-05-13T15:19:29.000Z</time>
      </trkpt>
      <trkpt lat="44.2302" lon="5.40333">
        <ele>918</ele>
        <time>2026-05-13T15:19:30.000Z</time>
      </trkpt>
      <trkpt lat="44.23022" lon="5.40332">
        <ele>918</ele>
        <time>2026-05-13T15:19:31.000Z</time>
      </trkpt>
      <trkpt lat="44.23024" lon="5.40332">
        <ele>918</ele>
        <time>2026-05-13T15:19:32.000Z</time>
      </trkpt>
      <trkpt lat="44.23027" lon="5.40332">
        <ele>918</ele>
        <time>2026-05-13T15:19:33.000Z</time>
      </trkpt>
      <trkpt lat="44.2303" lon="5.40331">
        <ele>919</ele>
        <time>2026-05-13T15:19:34.000Z</time>
      </trkpt>
      <trkpt lat="44.23032" lon="5.4033">
        <ele>919</ele>
        <time>2026-05-13T15:19:35.000Z</time>
      </trkpt>
      <trkpt lat="44.23034" lon="5.4033">
        <ele>920</ele>
        <time>2026-05-13T15:19:36.000Z</time>
      </trkpt>
      <trkpt lat="44.23036" lon="5.40328">
        <ele>920</ele>
        <time>2026-05-13T15:19:37.000Z</time>
      </trkpt>
      <trkpt lat="44.23038" lon="5.40327">
        <ele>921</ele>
        <time>2026-05-13T15:19:38.000Z</time>
      </trkpt>
      <trkpt lat="44.2304" lon="5.40326">
        <ele>921</ele>
        <time>2026-05-13T15:19:39.000Z</time>
      </trkpt>
      <trkpt lat="44.23041" lon="5.40325">
        <ele>921</ele>
        <time>2026-05-13T15:19:40.000Z</time>
      </trkpt>
      <trkpt lat="44.23044" lon="5.40324">
        <ele>921</ele>
        <time>2026-05-13T15:19:41.000Z</time>
      </trkpt>
      <trkpt lat="44.23046" lon="5.40323">
        <ele>921</ele>
        <time>2026-05-13T15:19:42.000Z</time>
      </trkpt>
      <trkpt lat="44.23048" lon="5.40322">
        <ele>921</ele>
        <time>2026-05-13T15:19:43.000Z</time>
      </trkpt>
      <trkpt lat="44.23049" lon="5.40321">
        <ele>921</ele>
        <time>2026-05-13T15:19:44.000Z</time>
      </trkpt>
      <trkpt lat="44.23051" lon="5.4032">
        <ele>921</ele>
        <time>2026-05-13T15:19:45.000Z</time>
      </trkpt>
      <trkpt lat="44.23052" lon="5.40319">
        <ele>921</ele>
        <time>2026-05-13T15:19:46.000Z</time>
      </trkpt>
      <trkpt lat="44.23053" lon="5.4032">
        <ele>920</ele>
        <time>2026-05-13T15:19:47.000Z</time>
      </trkpt>
      <trkpt lat="44.23054" lon="5.40319">
        <ele>920</ele>
        <time>2026-05-13T15:19:48.000Z</time>
      </trkpt>
      <trkpt lat="44.23054" lon="5.40318">
        <ele>920</ele>
        <time>2026-05-13T15:19:49.000Z</time>
      </trkpt>
      <trkpt lat="44.23055" lon="5.40318">
        <ele>920</ele>
        <time>2026-05-13T15:19:50.000Z</time>
      </trkpt>
      <trkpt lat="44.23055" lon="5.40318">
        <ele>920</ele>
        <time>2026-05-13T15:19:51.000Z</time>
      </trkpt>
      <trkpt lat="44.23055" lon="5.40319">
        <ele>920</ele>
        <time>2026-05-13T15:19:52.000Z</time>
      </trkpt>
      <trkpt lat="44.23055" lon="5.40319">
        <ele>920</ele>
        <time>2026-05-13T15:19:53.000Z</time>
      </trkpt>
      <trkpt lat="44.23055" lon="5.40319">
        <ele>920</ele>
        <time>2026-05-13T15:19:54.000Z</time>
      </trkpt>
      <trkpt lat="44.23055" lon="5.40319">
        <ele>920</ele>
        <time>2026-05-13T15:19:55.000Z</time>
      </trkpt>
      <trkpt lat="44.23055" lon="5.40319">
        <ele>920</ele>
        <time>2026-05-13T15:19:56.000Z</time>
      </trkpt>
      <trkpt lat="44.23055" lon="5.40319">
        <ele>920</ele>
        <time>2026-05-13T15:19:57.000Z</time>
      </trkpt>
      <trkpt lat="44.23055" lon="5.40319">
        <ele>920</ele>
        <time>2026-05-13T15:19:58.000Z</time>
      </trkpt>
      <trkpt lat="44.23055" lon="5.40318">
        <ele>919</ele>
        <time>2026-05-13T15:19:59.000Z</time>
      </trkpt>
      <trkpt lat="44.23056" lon="5.40318">
        <ele>918</ele>
        <time>2026-05-13T15:20:00.000Z</time>
      </trkpt>
      <trkpt lat="44.23057" lon="5.40318">
        <ele>917</ele>
        <time>2026-05-13T15:20:01.000Z</time>
      </trkpt>
      <trkpt lat="44.23058" lon="5.40317">
        <ele>917</ele>
        <time>2026-05-13T15:20:02.000Z</time>
      </trkpt>
      <trkpt lat="44.23059" lon="5.40316">
        <ele>918</ele>
        <time>2026-05-13T15:20:03.000Z</time>
      </trkpt>
      <trkpt lat="44.23061" lon="5.40315">
        <ele>918</ele>
        <time>2026-05-13T15:20:04.000Z</time>
      </trkpt>
      <trkpt lat="44.23062" lon="5.40314">
        <ele>918</ele>
        <time>2026-05-13T15:20:05.000Z</time>
      </trkpt>
      <trkpt lat="44.23064" lon="5.40314">
        <ele>919</ele>
        <time>2026-05-13T15:20:06.000Z</time>
      </trkpt>
      <trkpt lat="44.23066" lon="5.40313">
        <ele>919</ele>
        <time>2026-05-13T15:20:07.000Z</time>
      </trkpt>
      <trkpt lat="44.23068" lon="5.40312">
        <ele>919</ele>
        <time>2026-05-13T15:20:08.000Z</time>
      </trkpt>
      <trkpt lat="44.2307" lon="5.40311">
        <ele>919</ele>
        <time>2026-05-13T15:20:09.000Z</time>
      </trkpt>
      <trkpt lat="44.23071" lon="5.40311">
        <ele>920</ele>
        <time>2026-05-13T15:20:10.000Z</time>
      </trkpt>
      <trkpt lat="44.23073" lon="5.4031">
        <ele>920</ele>
        <time>2026-05-13T15:20:11.000Z</time>
      </trkpt>
      <trkpt lat="44.23076" lon="5.4031">
        <ele>921</ele>
        <time>2026-05-13T15:20:12.000Z</time>
      </trkpt>
      <trkpt lat="44.23079" lon="5.40309">
        <ele>921</ele>
        <time>2026-05-13T15:20:13.000Z</time>
      </trkpt>
      <trkpt lat="44.23081" lon="5.40309">
        <ele>922</ele>
        <time>2026-05-13T15:20:14.000Z</time>
      </trkpt>
      <trkpt lat="44.23084" lon="5.40308">
        <ele>922</ele>
        <time>2026-05-13T15:20:15.000Z</time>
      </trkpt>
      <trkpt lat="44.23086" lon="5.40307">
        <ele>921</ele>
        <time>2026-05-13T15:20:16.000Z</time>
      </trkpt>
      <trkpt lat="44.23089" lon="5.40306">
        <ele>921</ele>
        <time>2026-05-13T15:20:17.000Z</time>
      </trkpt>
      <trkpt lat="44.23092" lon="5.40305">
        <ele>921</ele>
        <time>2026-05-13T15:20:18.000Z</time>
      </trkpt>
      <trkpt lat="44.23094" lon="5.40304">
        <ele>920</ele>
        <time>2026-05-13T15:20:19.000Z</time>
      </trkpt>
      <trkpt lat="44.23097" lon="5.40303">
        <ele>920</ele>
        <time>2026-05-13T15:20:20.000Z</time>
      </trkpt>
      <trkpt lat="44.231" lon="5.40302">
        <ele>921</ele>
        <time>2026-05-13T15:20:21.000Z</time>
      </trkpt>
      <trkpt lat="44.23103" lon="5.40301">
        <ele>921</ele>
        <time>2026-05-13T15:20:22.000Z</time>
      </trkpt>
      <trkpt lat="44.23106" lon="5.403">
        <ele>920</ele>
        <time>2026-05-13T15:20:23.000Z</time>
      </trkpt>
      <trkpt lat="44.23109" lon="5.40297">
        <ele>921</ele>
        <time>2026-05-13T15:20:24.000Z</time>
      </trkpt>
      <trkpt lat="44.23111" lon="5.40297">
        <ele>921</ele>
        <time>2026-05-13T15:20:25.000Z</time>
      </trkpt>
      <trkpt lat="44.23114" lon="5.40295">
        <ele>920</ele>
        <time>2026-05-13T15:20:26.000Z</time>
      </trkpt>
      <trkpt lat="44.23117" lon="5.40294">
        <ele>919</ele>
        <time>2026-05-13T15:20:27.000Z</time>
      </trkpt>
      <trkpt lat="44.23119" lon="5.40292">
        <ele>918</ele>
        <time>2026-05-13T15:20:28.000Z</time>
      </trkpt>
      <trkpt lat="44.23121" lon="5.40289">
        <ele>918</ele>
        <time>2026-05-13T15:20:29.000Z</time>
      </trkpt>
      <trkpt lat="44.23124" lon="5.40288">
        <ele>918</ele>
        <time>2026-05-13T15:20:30.000Z</time>
      </trkpt>
      <trkpt lat="44.23127" lon="5.40285">
        <ele>918</ele>
        <time>2026-05-13T15:20:31.000Z</time>
      </trkpt>
      <trkpt lat="44.23129" lon="5.40283">
        <ele>917</ele>
        <time>2026-05-13T15:20:32.000Z</time>
      </trkpt>
      <trkpt lat="44.23131" lon="5.40281">
        <ele>917</ele>
        <time>2026-05-13T15:20:33.000Z</time>
      </trkpt>
      <trkpt lat="44.23133" lon="5.40279">
        <ele>917</ele>
        <time>2026-05-13T15:20:34.000Z</time>
      </trkpt>
      <trkpt lat="44.23137" lon="5.40277">
        <ele>918</ele>
        <time>2026-05-13T15:20:35.000Z</time>
      </trkpt>
      <trkpt lat="44.23138" lon="5.40274">
        <ele>917</ele>
        <time>2026-05-13T15:20:36.000Z</time>
      </trkpt>
      <trkpt lat="44.2314" lon="5.40271">
        <ele>917</ele>
        <time>2026-05-13T15:20:37.000Z</time>
      </trkpt>
      <trkpt lat="44.23143" lon="5.40269">
        <ele>916</ele>
        <time>2026-05-13T15:20:38.000Z</time>
      </trkpt>
      <trkpt lat="44.23146" lon="5.40266">
        <ele>916</ele>
        <time>2026-05-13T15:20:39.000Z</time>
      </trkpt>
      <trkpt lat="44.23148" lon="5.40263">
        <ele>916</ele>
        <time>2026-05-13T15:20:40.000Z</time>
      </trkpt>
      <trkpt lat="44.23152" lon="5.40259">
        <ele>917</ele>
        <time>2026-05-13T15:20:41.000Z</time>
      </trkpt>
      <trkpt lat="44.23154" lon="5.40256">
        <ele>917</ele>
        <time>2026-05-13T15:20:42.000Z</time>
      </trkpt>
      <trkpt lat="44.23156" lon="5.40253">
        <ele>917</ele>
        <time>2026-05-13T15:20:43.000Z</time>
      </trkpt>
      <trkpt lat="44.23158" lon="5.40249">
        <ele>918</ele>
        <time>2026-05-13T15:20:44.000Z</time>
      </trkpt>
      <trkpt lat="44.2316" lon="5.40245">
        <ele>917</ele>
        <time>2026-05-13T15:20:45.000Z</time>
      </trkpt>
      <trkpt lat="44.23162" lon="5.40241">
        <ele>916</ele>
        <time>2026-05-13T15:20:46.000Z</time>
      </trkpt>
      <trkpt lat="44.23164" lon="5.40236">
        <ele>916</ele>
        <time>2026-05-13T15:20:47.000Z</time>
      </trkpt>
      <trkpt lat="44.23167" lon="5.40232">
        <ele>915</ele>
        <time>2026-05-13T15:20:48.000Z</time>
      </trkpt>
      <trkpt lat="44.23168" lon="5.40229">
        <ele>916</ele>
        <time>2026-05-13T15:20:49.000Z</time>
      </trkpt>
      <trkpt lat="44.23169" lon="5.40225">
        <ele>916</ele>
        <time>2026-05-13T15:20:50.000Z</time>
      </trkpt>
      <trkpt lat="44.2317" lon="5.40222">
        <ele>916</ele>
        <time>2026-05-13T15:20:51.000Z</time>
      </trkpt>
      <trkpt lat="44.23171" lon="5.40219">
        <ele>916</ele>
        <time>2026-05-13T15:20:52.000Z</time>
      </trkpt>
      <trkpt lat="44.23174" lon="5.40215">
        <ele>916</ele>
        <time>2026-05-13T15:20:53.000Z</time>
      </trkpt>
      <trkpt lat="44.23175" lon="5.40212">
        <ele>917</ele>
        <time>2026-05-13T15:20:54.000Z</time>
      </trkpt>
      <trkpt lat="44.23177" lon="5.40209">
        <ele>917</ele>
        <time>2026-05-13T15:20:55.000Z</time>
      </trkpt>
      <trkpt lat="44.23178" lon="5.40206">
        <ele>917</ele>
        <time>2026-05-13T15:20:56.000Z</time>
      </trkpt>
      <trkpt lat="44.23178" lon="5.40203">
        <ele>917</ele>
        <time>2026-05-13T15:20:57.000Z</time>
      </trkpt>
      <trkpt lat="44.23179" lon="5.402">
        <ele>917</ele>
        <time>2026-05-13T15:20:58.000Z</time>
      </trkpt>
      <trkpt lat="44.23181" lon="5.40196">
        <ele>917</ele>
        <time>2026-05-13T15:20:59.000Z</time>
      </trkpt>
      <trkpt lat="44.23182" lon="5.40193">
        <ele>917</ele>
        <time>2026-05-13T15:21:00.000Z</time>
      </trkpt>
      <trkpt lat="44.23184" lon="5.40189">
        <ele>917</ele>
        <time>2026-05-13T15:21:01.000Z</time>
      </trkpt>
      <trkpt lat="44.23185" lon="5.40185">
        <ele>917</ele>
        <time>2026-05-13T15:21:02.000Z</time>
      </trkpt>
      <trkpt lat="44.23187" lon="5.40183">
        <ele>916</ele>
        <time>2026-05-13T15:21:03.000Z</time>
      </trkpt>
      <trkpt lat="44.23188" lon="5.40179">
        <ele>916</ele>
        <time>2026-05-13T15:21:04.000Z</time>
      </trkpt>
      <trkpt lat="44.23189" lon="5.40176">
        <ele>916</ele>
        <time>2026-05-13T15:21:05.000Z</time>
      </trkpt>
      <trkpt lat="44.23191" lon="5.40173">
        <ele>917</ele>
        <time>2026-05-13T15:21:06.000Z</time>
      </trkpt>
      <trkpt lat="44.23193" lon="5.40171">
        <ele>917</ele>
        <time>2026-05-13T15:21:07.000Z</time>
      </trkpt>
      <trkpt lat="44.23196" lon="5.4017">
        <ele>918</ele>
        <time>2026-05-13T15:21:08.000Z</time>
      </trkpt>
      <trkpt lat="44.23198" lon="5.40168">
        <ele>918</ele>
        <time>2026-05-13T15:21:09.000Z</time>
      </trkpt>
      <trkpt lat="44.23199" lon="5.40167">
        <ele>918</ele>
        <time>2026-05-13T15:21:10.000Z</time>
      </trkpt>
      <trkpt lat="44.23201" lon="5.40165">
        <ele>918</ele>
        <time>2026-05-13T15:21:11.000Z</time>
      </trkpt>
      <trkpt lat="44.23204" lon="5.40164">
        <ele>918</ele>
        <time>2026-05-13T15:21:12.000Z</time>
      </trkpt>
      <trkpt lat="44.23206" lon="5.40162">
        <ele>919</ele>
        <time>2026-05-13T15:21:13.000Z</time>
      </trkpt>
      <trkpt lat="44.23208" lon="5.4016">
        <ele>919</ele>
        <time>2026-05-13T15:21:14.000Z</time>
      </trkpt>
      <trkpt lat="44.23209" lon="5.40158">
        <ele>920</ele>
        <time>2026-05-13T15:21:15.000Z</time>
      </trkpt>
      <trkpt lat="44.2321" lon="5.40157">
        <ele>920</ele>
        <time>2026-05-13T15:21:16.000Z</time>
      </trkpt>
      <trkpt lat="44.23211" lon="5.40154">
        <ele>920</ele>
        <time>2026-05-13T15:21:17.000Z</time>
      </trkpt>
      <trkpt lat="44.23212" lon="5.40152">
        <ele>920</ele>
        <time>2026-05-13T15:21:18.000Z</time>
      </trkpt>
      <trkpt lat="44.23213" lon="5.4015">
        <ele>920</ele>
        <time>2026-05-13T15:21:19.000Z</time>
      </trkpt>
      <trkpt lat="44.23213" lon="5.40148">
        <ele>920</ele>
        <time>2026-05-13T15:21:20.000Z</time>
      </trkpt>
      <trkpt lat="44.23214" lon="5.40148">
        <ele>920</ele>
        <time>2026-05-13T15:21:21.000Z</time>
      </trkpt>
      <trkpt lat="44.23215" lon="5.40146">
        <ele>920</ele>
        <time>2026-05-13T15:21:22.000Z</time>
      </trkpt>
      <trkpt lat="44.23216" lon="5.40144">
        <ele>921</ele>
        <time>2026-05-13T15:21:23.000Z</time>
      </trkpt>
      <trkpt lat="44.23217" lon="5.40141">
        <ele>921</ele>
        <time>2026-05-13T15:21:24.000Z</time>
      </trkpt>
      <trkpt lat="44.23217" lon="5.40139">
        <ele>921</ele>
        <time>2026-05-13T15:21:25.000Z</time>
      </trkpt>
      <trkpt lat="44.23218" lon="5.40137">
        <ele>921</ele>
        <time>2026-05-13T15:21:26.000Z</time>
      </trkpt>
      <trkpt lat="44.23218" lon="5.40136">
        <ele>922</ele>
        <time>2026-05-13T15:21:27.000Z</time>
      </trkpt>
      <trkpt lat="44.23219" lon="5.40134">
        <ele>922</ele>
        <time>2026-05-13T15:21:28.000Z</time>
      </trkpt>
      <trkpt lat="44.2322" lon="5.40132">
        <ele>923</ele>
        <time>2026-05-13T15:21:29.000Z</time>
      </trkpt>
      <trkpt lat="44.23221" lon="5.40131">
        <ele>923</ele>
        <time>2026-05-13T15:21:30.000Z</time>
      </trkpt>
      <trkpt lat="44.23222" lon="5.40129">
        <ele>924</ele>
        <time>2026-05-13T15:21:31.000Z</time>
      </trkpt>
      <trkpt lat="44.23222" lon="5.40128">
        <ele>924</ele>
        <time>2026-05-13T15:21:32.000Z</time>
      </trkpt>
      <trkpt lat="44.23223" lon="5.40126">
        <ele>925</ele>
        <time>2026-05-13T15:21:33.000Z</time>
      </trkpt>
      <trkpt lat="44.23224" lon="5.40123">
        <ele>925</ele>
        <time>2026-05-13T15:21:34.000Z</time>
      </trkpt>
      <trkpt lat="44.23224" lon="5.40121">
        <ele>925</ele>
        <time>2026-05-13T15:21:35.000Z</time>
      </trkpt>
      <trkpt lat="44.23225" lon="5.40119">
        <ele>926</ele>
        <time>2026-05-13T15:21:36.000Z</time>
      </trkpt>
      <trkpt lat="44.23225" lon="5.40117">
        <ele>925</ele>
        <time>2026-05-13T15:21:37.000Z</time>
      </trkpt>
      <trkpt lat="44.23225" lon="5.40114">
        <ele>925</ele>
        <time>2026-05-13T15:21:38.000Z</time>
      </trkpt>
      <trkpt lat="44.23226" lon="5.40111">
        <ele>926</ele>
        <time>2026-05-13T15:21:39.000Z</time>
      </trkpt>
      <trkpt lat="44.23226" lon="5.4011">
        <ele>926</ele>
        <time>2026-05-13T15:21:40.000Z</time>
      </trkpt>
      <trkpt lat="44.23227" lon="5.40108">
        <ele>926</ele>
        <time>2026-05-13T15:21:41.000Z</time>
      </trkpt>
      <trkpt lat="44.23228" lon="5.40105">
        <ele>926</ele>
        <time>2026-05-13T15:21:42.000Z</time>
      </trkpt>
      <trkpt lat="44.23229" lon="5.40104">
        <ele>925</ele>
        <time>2026-05-13T15:21:43.000Z</time>
      </trkpt>
      <trkpt lat="44.2323" lon="5.40102">
        <ele>925</ele>
        <time>2026-05-13T15:21:44.000Z</time>
      </trkpt>
      <trkpt lat="44.23231" lon="5.401">
        <ele>925</ele>
        <time>2026-05-13T15:21:45.000Z</time>
      </trkpt>
      <trkpt lat="44.23231" lon="5.40097">
        <ele>925</ele>
        <time>2026-05-13T15:21:46.000Z</time>
      </trkpt>
      <trkpt lat="44.23232" lon="5.40095">
        <ele>925</ele>
        <time>2026-05-13T15:21:47.000Z</time>
      </trkpt>
      <trkpt lat="44.23233" lon="5.40093">
        <ele>925</ele>
        <time>2026-05-13T15:21:48.000Z</time>
      </trkpt>
      <trkpt lat="44.23233" lon="5.40092">
        <ele>925</ele>
        <time>2026-05-13T15:21:49.000Z</time>
      </trkpt>
      <trkpt lat="44.23234" lon="5.4009">
        <ele>925</ele>
        <time>2026-05-13T15:21:50.000Z</time>
      </trkpt>
      <trkpt lat="44.23235" lon="5.40088">
        <ele>924</ele>
        <time>2026-05-13T15:21:51.000Z</time>
      </trkpt>
      <trkpt lat="44.23236" lon="5.40087">
        <ele>924</ele>
        <time>2026-05-13T15:21:52.000Z</time>
      </trkpt>
      <trkpt lat="44.23237" lon="5.40084">
        <ele>924</ele>
        <time>2026-05-13T15:21:53.000Z</time>
      </trkpt>
      <trkpt lat="44.23238" lon="5.40082">
        <ele>924</ele>
        <time>2026-05-13T15:21:54.000Z</time>
      </trkpt>
      <trkpt lat="44.23238" lon="5.40079">
        <ele>925</ele>
        <time>2026-05-13T15:21:55.000Z</time>
      </trkpt>
      <trkpt lat="44.23239" lon="5.40077">
        <ele>924</ele>
        <time>2026-05-13T15:21:56.000Z</time>
      </trkpt>
      <trkpt lat="44.2324" lon="5.40074">
        <ele>925</ele>
        <time>2026-05-13T15:21:57.000Z</time>
      </trkpt>
      <trkpt lat="44.23241" lon="5.40073">
        <ele>925</ele>
        <time>2026-05-13T15:21:58.000Z</time>
      </trkpt>
      <trkpt lat="44.23242" lon="5.40071">
        <ele>924</ele>
        <time>2026-05-13T15:21:59.000Z</time>
      </trkpt>
      <trkpt lat="44.23242" lon="5.40069">
        <ele>925</ele>
        <time>2026-05-13T15:22:00.000Z</time>
      </trkpt>
      <trkpt lat="44.23242" lon="5.40068">
        <ele>926</ele>
        <time>2026-05-13T15:22:01.000Z</time>
      </trkpt>
      <trkpt lat="44.23243" lon="5.40067">
        <ele>926</ele>
        <time>2026-05-13T15:22:02.000Z</time>
      </trkpt>
      <trkpt lat="44.23243" lon="5.40065">
        <ele>927</ele>
        <time>2026-05-13T15:22:03.000Z</time>
      </trkpt>
      <trkpt lat="44.23244" lon="5.40063">
        <ele>928</ele>
        <time>2026-05-13T15:22:04.000Z</time>
      </trkpt>
      <trkpt lat="44.23244" lon="5.40062">
        <ele>927</ele>
        <time>2026-05-13T15:22:05.000Z</time>
      </trkpt>
      <trkpt lat="44.23244" lon="5.4006">
        <ele>926</ele>
        <time>2026-05-13T15:22:06.000Z</time>
      </trkpt>
      <trkpt lat="44.23245" lon="5.40059">
        <ele>926</ele>
        <time>2026-05-13T15:22:07.000Z</time>
      </trkpt>
      <trkpt lat="44.23246" lon="5.40057">
        <ele>926</ele>
        <time>2026-05-13T15:22:08.000Z</time>
      </trkpt>
      <trkpt lat="44.23247" lon="5.40057">
        <ele>927</ele>
        <time>2026-05-13T15:22:09.000Z</time>
      </trkpt>
      <trkpt lat="44.23248" lon="5.40056">
        <ele>927</ele>
        <time>2026-05-13T15:22:10.000Z</time>
      </trkpt>
      <trkpt lat="44.23249" lon="5.40054">
        <ele>927</ele>
        <time>2026-05-13T15:22:11.000Z</time>
      </trkpt>
      <trkpt lat="44.2325" lon="5.40052">
        <ele>926</ele>
        <time>2026-05-13T15:22:12.000Z</time>
      </trkpt>
      <trkpt lat="44.23251" lon="5.4005">
        <ele>926</ele>
        <time>2026-05-13T15:22:13.000Z</time>
      </trkpt>
      <trkpt lat="44.23252" lon="5.40047">
        <ele>926</ele>
        <time>2026-05-13T15:22:14.000Z</time>
      </trkpt>
      <trkpt lat="44.23253" lon="5.40043">
        <ele>926</ele>
        <time>2026-05-13T15:22:15.000Z</time>
      </trkpt>
      <trkpt lat="44.23254" lon="5.40039">
        <ele>926</ele>
        <time>2026-05-13T15:22:16.000Z</time>
      </trkpt>
      <trkpt lat="44.23254" lon="5.40036">
        <ele>926</ele>
        <time>2026-05-13T15:22:17.000Z</time>
      </trkpt>
      <trkpt lat="44.23255" lon="5.40034">
        <ele>927</ele>
        <time>2026-05-13T15:22:18.000Z</time>
      </trkpt>
      <trkpt lat="44.23256" lon="5.40031">
        <ele>928</ele>
        <time>2026-05-13T15:22:19.000Z</time>
      </trkpt>
      <trkpt lat="44.23258" lon="5.40029">
        <ele>929</ele>
        <time>2026-05-13T15:22:20.000Z</time>
      </trkpt>
      <trkpt lat="44.2326" lon="5.40028">
        <ele>929</ele>
        <time>2026-05-13T15:22:21.000Z</time>
      </trkpt>
      <trkpt lat="44.23262" lon="5.40028">
        <ele>929</ele>
        <time>2026-05-13T15:22:22.000Z</time>
      </trkpt>
      <trkpt lat="44.23263" lon="5.40028">
        <ele>930</ele>
        <time>2026-05-13T15:22:23.000Z</time>
      </trkpt>
      <trkpt lat="44.23265" lon="5.40027">
        <ele>930</ele>
        <time>2026-05-13T15:22:24.000Z</time>
      </trkpt>
      <trkpt lat="44.23266" lon="5.40026">
        <ele>929</ele>
        <time>2026-05-13T15:22:25.000Z</time>
      </trkpt>
      <trkpt lat="44.23268" lon="5.40026">
        <ele>930</ele>
        <time>2026-05-13T15:22:26.000Z</time>
      </trkpt>
      <trkpt lat="44.2327" lon="5.40025">
        <ele>930</ele>
        <time>2026-05-13T15:22:27.000Z</time>
      </trkpt>
      <trkpt lat="44.23271" lon="5.40024">
        <ele>930</ele>
        <time>2026-05-13T15:22:28.000Z</time>
      </trkpt>
      <trkpt lat="44.23272" lon="5.40022">
        <ele>929</ele>
        <time>2026-05-13T15:22:29.000Z</time>
      </trkpt>
      <trkpt lat="44.23273" lon="5.40019">
        <ele>929</ele>
        <time>2026-05-13T15:22:30.000Z</time>
      </trkpt>
      <trkpt lat="44.23274" lon="5.40018">
        <ele>928</ele>
        <time>2026-05-13T15:22:31.000Z</time>
      </trkpt>
      <trkpt lat="44.23275" lon="5.40016">
        <ele>928</ele>
        <time>2026-05-13T15:22:32.000Z</time>
      </trkpt>
      <trkpt lat="44.23276" lon="5.40014">
        <ele>928</ele>
        <time>2026-05-13T15:22:33.000Z</time>
      </trkpt>
      <trkpt lat="44.23277" lon="5.40013">
        <ele>928</ele>
        <time>2026-05-13T15:22:34.000Z</time>
      </trkpt>
      <trkpt lat="44.23278" lon="5.4001">
        <ele>928</ele>
        <time>2026-05-13T15:22:35.000Z</time>
      </trkpt>
      <trkpt lat="44.23279" lon="5.40009">
        <ele>928</ele>
        <time>2026-05-13T15:22:36.000Z</time>
      </trkpt>
      <trkpt lat="44.2328" lon="5.40007">
        <ele>928</ele>
        <time>2026-05-13T15:22:37.000Z</time>
      </trkpt>
      <trkpt lat="44.23282" lon="5.40006">
        <ele>928</ele>
        <time>2026-05-13T15:22:38.000Z</time>
      </trkpt>
      <trkpt lat="44.23283" lon="5.40005">
        <ele>927</ele>
        <time>2026-05-13T15:22:39.000Z</time>
      </trkpt>
      <trkpt lat="44.23285" lon="5.40003">
        <ele>928</ele>
        <time>2026-05-13T15:22:40.000Z</time>
      </trkpt>
      <trkpt lat="44.23286" lon="5.40002">
        <ele>928</ele>
        <time>2026-05-13T15:22:41.000Z</time>
      </trkpt>
      <trkpt lat="44.23288" lon="5.4">
        <ele>928</ele>
        <time>2026-05-13T15:22:42.000Z</time>
      </trkpt>
      <trkpt lat="44.23289" lon="5.39998">
        <ele>928</ele>
        <time>2026-05-13T15:22:43.000Z</time>
      </trkpt>
      <trkpt lat="44.2329" lon="5.39996">
        <ele>928</ele>
        <time>2026-05-13T15:22:44.000Z</time>
      </trkpt>
      <trkpt lat="44.2329" lon="5.39994">
        <ele>929</ele>
        <time>2026-05-13T15:22:45.000Z</time>
      </trkpt>
      <trkpt lat="44.23291" lon="5.39992">
        <ele>928</ele>
        <time>2026-05-13T15:22:46.000Z</time>
      </trkpt>
      <trkpt lat="44.23292" lon="5.3999">
        <ele>928</ele>
        <time>2026-05-13T15:22:47.000Z</time>
      </trkpt>
      <trkpt lat="44.23293" lon="5.39987">
        <ele>928</ele>
        <time>2026-05-13T15:22:48.000Z</time>
      </trkpt>
      <trkpt lat="44.23294" lon="5.39985">
        <ele>929</ele>
        <time>2026-05-13T15:22:49.000Z</time>
      </trkpt>
      <trkpt lat="44.23295" lon="5.39983">
        <ele>929</ele>
        <time>2026-05-13T15:22:50.000Z</time>
      </trkpt>
      <trkpt lat="44.23297" lon="5.3998">
        <ele>929</ele>
        <time>2026-05-13T15:22:51.000Z</time>
      </trkpt>
      <trkpt lat="44.23299" lon="5.39978">
        <ele>930</ele>
        <time>2026-05-13T15:22:52.000Z</time>
      </trkpt>
      <trkpt lat="44.233" lon="5.39975">
        <ele>930</ele>
        <time>2026-05-13T15:22:53.000Z</time>
      </trkpt>
      <trkpt lat="44.23302" lon="5.39972">
        <ele>931</ele>
        <time>2026-05-13T15:22:54.000Z</time>
      </trkpt>
      <trkpt lat="44.23303" lon="5.3997">
        <ele>931</ele>
        <time>2026-05-13T15:22:55.000Z</time>
      </trkpt>
      <trkpt lat="44.23305" lon="5.39968">
        <ele>931</ele>
        <time>2026-05-13T15:22:56.000Z</time>
      </trkpt>
      <trkpt lat="44.23307" lon="5.39967">
        <ele>931</ele>
        <time>2026-05-13T15:22:57.000Z</time>
      </trkpt>
      <trkpt lat="44.23308" lon="5.39966">
        <ele>931</ele>
        <time>2026-05-13T15:22:58.000Z</time>
      </trkpt>
      <trkpt lat="44.2331" lon="5.39965">
        <ele>932</ele>
        <time>2026-05-13T15:22:59.000Z</time>
      </trkpt>
      <trkpt lat="44.23311" lon="5.39965">
        <ele>931</ele>
        <time>2026-05-13T15:23:00.000Z</time>
      </trkpt>
      <trkpt lat="44.23312" lon="5.39963">
        <ele>931</ele>
        <time>2026-05-13T15:23:01.000Z</time>
      </trkpt>
      <trkpt lat="44.23313" lon="5.39963">
        <ele>931</ele>
        <time>2026-05-13T15:23:02.000Z</time>
      </trkpt>
      <trkpt lat="44.23314" lon="5.39961">
        <ele>932</ele>
        <time>2026-05-13T15:23:03.000Z</time>
      </trkpt>
      <trkpt lat="44.23315" lon="5.3996">
        <ele>932</ele>
        <time>2026-05-13T15:23:04.000Z</time>
      </trkpt>
      <trkpt lat="44.23317" lon="5.39959">
        <ele>932</ele>
        <time>2026-05-13T15:23:05.000Z</time>
      </trkpt>
      <trkpt lat="44.23318" lon="5.39958">
        <ele>933</ele>
        <time>2026-05-13T15:23:06.000Z</time>
      </trkpt>
      <trkpt lat="44.2332" lon="5.39956">
        <ele>932</ele>
        <time>2026-05-13T15:23:07.000Z</time>
      </trkpt>
      <trkpt lat="44.2332" lon="5.39953">
        <ele>932</ele>
        <time>2026-05-13T15:23:08.000Z</time>
      </trkpt>
      <trkpt lat="44.23321" lon="5.39951">
        <ele>933</ele>
        <time>2026-05-13T15:23:09.000Z</time>
      </trkpt>
      <trkpt lat="44.23322" lon="5.3995">
        <ele>932</ele>
        <time>2026-05-13T15:23:10.000Z</time>
      </trkpt>
      <trkpt lat="44.23323" lon="5.39948">
        <ele>932</ele>
        <time>2026-05-13T15:23:11.000Z</time>
      </trkpt>
      <trkpt lat="44.23324" lon="5.39947">
        <ele>932</ele>
        <time>2026-05-13T15:23:12.000Z</time>
      </trkpt>
      <trkpt lat="44.23326" lon="5.39945">
        <ele>932</ele>
        <time>2026-05-13T15:23:13.000Z</time>
      </trkpt>
      <trkpt lat="44.23327" lon="5.39944">
        <ele>932</ele>
        <time>2026-05-13T15:23:14.000Z</time>
      </trkpt>
      <trkpt lat="44.23329" lon="5.39943">
        <ele>933</ele>
        <time>2026-05-13T15:23:15.000Z</time>
      </trkpt>
      <trkpt lat="44.2333" lon="5.39942">
        <ele>933</ele>
        <time>2026-05-13T15:23:16.000Z</time>
      </trkpt>
      <trkpt lat="44.23331" lon="5.3994">
        <ele>933</ele>
        <time>2026-05-13T15:23:17.000Z</time>
      </trkpt>
      <trkpt lat="44.23332" lon="5.39939">
        <ele>933</ele>
        <time>2026-05-13T15:23:18.000Z</time>
      </trkpt>
      <trkpt lat="44.23333" lon="5.39938">
        <ele>932</ele>
        <time>2026-05-13T15:23:19.000Z</time>
      </trkpt>
      <trkpt lat="44.23334" lon="5.39936">
        <ele>931</ele>
        <time>2026-05-13T15:23:20.000Z</time>
      </trkpt>
      <trkpt lat="44.23335" lon="5.39934">
        <ele>931</ele>
        <time>2026-05-13T15:23:21.000Z</time>
      </trkpt>
      <trkpt lat="44.23336" lon="5.39933">
        <ele>931</ele>
        <time>2026-05-13T15:23:22.000Z</time>
      </trkpt>
      <trkpt lat="44.23337" lon="5.39932">
        <ele>931</ele>
        <time>2026-05-13T15:23:23.000Z</time>
      </trkpt>
      <trkpt lat="44.23337" lon="5.39929">
        <ele>932</ele>
        <time>2026-05-13T15:23:24.000Z</time>
      </trkpt>
      <trkpt lat="44.23338" lon="5.39928">
        <ele>932</ele>
        <time>2026-05-13T15:23:25.000Z</time>
      </trkpt>
      <trkpt lat="44.23338" lon="5.39925">
        <ele>932</ele>
        <time>2026-05-13T15:23:26.000Z</time>
      </trkpt>
      <trkpt lat="44.23339" lon="5.39923">
        <ele>933</ele>
        <time>2026-05-13T15:23:27.000Z</time>
      </trkpt>
      <trkpt lat="44.2334" lon="5.39922">
        <ele>933</ele>
        <time>2026-05-13T15:23:28.000Z</time>
      </trkpt>
      <trkpt lat="44.2334" lon="5.3992">
        <ele>933</ele>
        <time>2026-05-13T15:23:29.000Z</time>
      </trkpt>
      <trkpt lat="44.23341" lon="5.39918">
        <ele>932</ele>
        <time>2026-05-13T15:23:30.000Z</time>
      </trkpt>
      <trkpt lat="44.23341" lon="5.39916">
        <ele>933</ele>
        <time>2026-05-13T15:23:31.000Z</time>
      </trkpt>
      <trkpt lat="44.23342" lon="5.39915">
        <ele>933</ele>
        <time>2026-05-13T15:23:32.000Z</time>
      </trkpt>
      <trkpt lat="44.23342" lon="5.39912">
        <ele>934</ele>
        <time>2026-05-13T15:23:33.000Z</time>
      </trkpt>
      <trkpt lat="44.23344" lon="5.3991">
        <ele>934</ele>
        <time>2026-05-13T15:23:34.000Z</time>
      </trkpt>
      <trkpt lat="44.23345" lon="5.39908">
        <ele>934</ele>
        <time>2026-05-13T15:23:35.000Z</time>
      </trkpt>
      <trkpt lat="44.23346" lon="5.39906">
        <ele>935</ele>
        <time>2026-05-13T15:23:36.000Z</time>
      </trkpt>
      <trkpt lat="44.23347" lon="5.39904">
        <ele>935</ele>
        <time>2026-05-13T15:23:37.000Z</time>
      </trkpt>
      <trkpt lat="44.23348" lon="5.39902">
        <ele>935</ele>
        <time>2026-05-13T15:23:38.000Z</time>
      </trkpt>
      <trkpt lat="44.2335" lon="5.39901">
        <ele>935</ele>
        <time>2026-05-13T15:23:39.000Z</time>
      </trkpt>
      <trkpt lat="44.2335" lon="5.39899">
        <ele>935</ele>
        <time>2026-05-13T15:23:40.000Z</time>
      </trkpt>
      <trkpt lat="44.23351" lon="5.39897">
        <ele>935</ele>
        <time>2026-05-13T15:23:41.000Z</time>
      </trkpt>
      <trkpt lat="44.23352" lon="5.39895">
        <ele>935</ele>
        <time>2026-05-13T15:23:42.000Z</time>
      </trkpt>
      <trkpt lat="44.23352" lon="5.39893">
        <ele>935</ele>
        <time>2026-05-13T15:23:43.000Z</time>
      </trkpt>
      <trkpt lat="44.23354" lon="5.39891">
        <ele>934</ele>
        <time>2026-05-13T15:23:44.000Z</time>
      </trkpt>
      <trkpt lat="44.23356" lon="5.3989">
        <ele>934</ele>
        <time>2026-05-13T15:23:45.000Z</time>
      </trkpt>
      <trkpt lat="44.23357" lon="5.39889">
        <ele>934</ele>
        <time>2026-05-13T15:23:46.000Z</time>
      </trkpt>
      <trkpt lat="44.23358" lon="5.39888">
        <ele>934</ele>
        <time>2026-05-13T15:23:47.000Z</time>
      </trkpt>
      <trkpt lat="44.2336" lon="5.39886">
        <ele>935</ele>
        <time>2026-05-13T15:23:48.000Z</time>
      </trkpt>
      <trkpt lat="44.2336" lon="5.39884">
        <ele>934</ele>
        <time>2026-05-13T15:23:49.000Z</time>
      </trkpt>
      <trkpt lat="44.23361" lon="5.39883">
        <ele>934</ele>
        <time>2026-05-13T15:23:50.000Z</time>
      </trkpt>
      <trkpt lat="44.23362" lon="5.39882">
        <ele>933</ele>
        <time>2026-05-13T15:23:51.000Z</time>
      </trkpt>
      <trkpt lat="44.23362" lon="5.3988">
        <ele>933</ele>
        <time>2026-05-13T15:23:52.000Z</time>
      </trkpt>
      <trkpt lat="44.23364" lon="5.39879">
        <ele>933</ele>
        <time>2026-05-13T15:23:53.000Z</time>
      </trkpt>
      <trkpt lat="44.23365" lon="5.39877">
        <ele>934</ele>
        <time>2026-05-13T15:23:54.000Z</time>
      </trkpt>
      <trkpt lat="44.23367" lon="5.39875">
        <ele>933</ele>
        <time>2026-05-13T15:23:55.000Z</time>
      </trkpt>
      <trkpt lat="44.23368" lon="5.39874">
        <ele>933</ele>
        <time>2026-05-13T15:23:56.000Z</time>
      </trkpt>
      <trkpt lat="44.2337" lon="5.39873">
        <ele>934</ele>
        <time>2026-05-13T15:23:57.000Z</time>
      </trkpt>
      <trkpt lat="44.23371" lon="5.39871">
        <ele>935</ele>
        <time>2026-05-13T15:23:58.000Z</time>
      </trkpt>
      <trkpt lat="44.23372" lon="5.39869">
        <ele>935</ele>
        <time>2026-05-13T15:23:59.000Z</time>
      </trkpt>
      <trkpt lat="44.23374" lon="5.39867">
        <ele>936</ele>
        <time>2026-05-13T15:24:00.000Z</time>
      </trkpt>
      <trkpt lat="44.23375" lon="5.39866">
        <ele>936</ele>
        <time>2026-05-13T15:24:01.000Z</time>
      </trkpt>
      <trkpt lat="44.23377" lon="5.39865">
        <ele>936</ele>
        <time>2026-05-13T15:24:02.000Z</time>
      </trkpt>
      <trkpt lat="44.23378" lon="5.39863">
        <ele>936</ele>
        <time>2026-05-13T15:24:03.000Z</time>
      </trkpt>
      <trkpt lat="44.23379" lon="5.39862">
        <ele>936</ele>
        <time>2026-05-13T15:24:04.000Z</time>
      </trkpt>
      <trkpt lat="44.2338" lon="5.39861">
        <ele>937</ele>
        <time>2026-05-13T15:24:05.000Z</time>
      </trkpt>
      <trkpt lat="44.23382" lon="5.39859">
        <ele>937</ele>
        <time>2026-05-13T15:24:06.000Z</time>
      </trkpt>
      <trkpt lat="44.23383" lon="5.39857">
        <ele>937</ele>
        <time>2026-05-13T15:24:07.000Z</time>
      </trkpt>
      <trkpt lat="44.23385" lon="5.39856">
        <ele>938</ele>
        <time>2026-05-13T15:24:08.000Z</time>
      </trkpt>
      <trkpt lat="44.23386" lon="5.39854">
        <ele>937</ele>
        <time>2026-05-13T15:24:09.000Z</time>
      </trkpt>
      <trkpt lat="44.23387" lon="5.39853">
        <ele>937</ele>
        <time>2026-05-13T15:24:10.000Z</time>
      </trkpt>
      <trkpt lat="44.23388" lon="5.39852">
        <ele>938</ele>
        <time>2026-05-13T15:24:11.000Z</time>
      </trkpt>
      <trkpt lat="44.2339" lon="5.39853">
        <ele>938</ele>
        <time>2026-05-13T15:24:12.000Z</time>
      </trkpt>
      <trkpt lat="44.23393" lon="5.39852">
        <ele>938</ele>
        <time>2026-05-13T15:24:13.000Z</time>
      </trkpt>
      <trkpt lat="44.23396" lon="5.39851">
        <ele>937</ele>
        <time>2026-05-13T15:24:14.000Z</time>
      </trkpt>
      <trkpt lat="44.23398" lon="5.3985">
        <ele>937</ele>
        <time>2026-05-13T15:24:15.000Z</time>
      </trkpt>
      <trkpt lat="44.234" lon="5.39847">
        <ele>937</ele>
        <time>2026-05-13T15:24:16.000Z</time>
      </trkpt>
      <trkpt lat="44.23401" lon="5.39846">
        <ele>937</ele>
        <time>2026-05-13T15:24:17.000Z</time>
      </trkpt>
      <trkpt lat="44.23402" lon="5.39844">
        <ele>938</ele>
        <time>2026-05-13T15:24:18.000Z</time>
      </trkpt>
      <trkpt lat="44.23403" lon="5.39843">
        <ele>938</ele>
        <time>2026-05-13T15:24:19.000Z</time>
      </trkpt>
      <trkpt lat="44.23404" lon="5.39841">
        <ele>938</ele>
        <time>2026-05-13T15:24:20.000Z</time>
      </trkpt>
      <trkpt lat="44.23405" lon="5.3984">
        <ele>939</ele>
        <time>2026-05-13T15:24:21.000Z</time>
      </trkpt>
      <trkpt lat="44.23406" lon="5.39838">
        <ele>939</ele>
        <time>2026-05-13T15:24:22.000Z</time>
      </trkpt>
      <trkpt lat="44.23407" lon="5.39836">
        <ele>940</ele>
        <time>2026-05-13T15:24:23.000Z</time>
      </trkpt>
      <trkpt lat="44.23407" lon="5.39834">
        <ele>940</ele>
        <time>2026-05-13T15:24:24.000Z</time>
      </trkpt>
      <trkpt lat="44.23407" lon="5.39832">
        <ele>940</ele>
        <time>2026-05-13T15:24:25.000Z</time>
      </trkpt>
      <trkpt lat="44.23407" lon="5.3983">
        <ele>941</ele>
        <time>2026-05-13T15:24:26.000Z</time>
      </trkpt>
      <trkpt lat="44.23408" lon="5.39828">
        <ele>941</ele>
        <time>2026-05-13T15:24:27.000Z</time>
      </trkpt>
      <trkpt lat="44.23408" lon="5.39825">
        <ele>941</ele>
        <time>2026-05-13T15:24:28.000Z</time>
      </trkpt>
      <trkpt lat="44.23409" lon="5.39823">
        <ele>940</ele>
        <time>2026-05-13T15:24:29.000Z</time>
      </trkpt>
      <trkpt lat="44.23409" lon="5.39821">
        <ele>939</ele>
        <time>2026-05-13T15:24:30.000Z</time>
      </trkpt>
      <trkpt lat="44.2341" lon="5.39819">
        <ele>939</ele>
        <time>2026-05-13T15:24:31.000Z</time>
      </trkpt>
      <trkpt lat="44.23411" lon="5.39818">
        <ele>939</ele>
        <time>2026-05-13T15:24:32.000Z</time>
      </trkpt>
      <trkpt lat="44.23412" lon="5.39816">
        <ele>939</ele>
        <time>2026-05-13T15:24:33.000Z</time>
      </trkpt>
      <trkpt lat="44.23413" lon="5.39815">
        <ele>939</ele>
        <time>2026-05-13T15:24:34.000Z</time>
      </trkpt>
      <trkpt lat="44.23413" lon="5.39814">
        <ele>938</ele>
        <time>2026-05-13T15:24:35.000Z</time>
      </trkpt>
      <trkpt lat="44.23413" lon="5.39813">
        <ele>938</ele>
        <time>2026-05-13T15:24:36.000Z</time>
      </trkpt>
      <trkpt lat="44.23414" lon="5.39812">
        <ele>938</ele>
        <time>2026-05-13T15:24:37.000Z</time>
      </trkpt>
      <trkpt lat="44.23414" lon="5.39811">
        <ele>937</ele>
        <time>2026-05-13T15:24:38.000Z</time>
      </trkpt>
      <trkpt lat="44.23415" lon="5.3981">
        <ele>937</ele>
        <time>2026-05-13T15:24:39.000Z</time>
      </trkpt>
      <trkpt lat="44.23416" lon="5.39809">
        <ele>937</ele>
        <time>2026-05-13T15:24:40.000Z</time>
      </trkpt>
      <trkpt lat="44.23417" lon="5.39807">
        <ele>938</ele>
        <time>2026-05-13T15:24:41.000Z</time>
      </trkpt>
      <trkpt lat="44.23418" lon="5.39807">
        <ele>938</ele>
        <time>2026-05-13T15:24:42.000Z</time>
      </trkpt>
      <trkpt lat="44.23419" lon="5.39806">
        <ele>938</ele>
        <time>2026-05-13T15:24:43.000Z</time>
      </trkpt>
      <trkpt lat="44.2342" lon="5.39805">
        <ele>939</ele>
        <time>2026-05-13T15:24:44.000Z</time>
      </trkpt>
      <trkpt lat="44.23422" lon="5.39806">
        <ele>939</ele>
        <time>2026-05-13T15:24:45.000Z</time>
      </trkpt>
      <trkpt lat="44.23423" lon="5.39807">
        <ele>939</ele>
        <time>2026-05-13T15:24:46.000Z</time>
      </trkpt>
      <trkpt lat="44.23424" lon="5.39807">
        <ele>940</ele>
        <time>2026-05-13T15:24:47.000Z</time>
      </trkpt>
      <trkpt lat="44.23425" lon="5.39807">
        <ele>940</ele>
        <time>2026-05-13T15:24:48.000Z</time>
      </trkpt>
      <trkpt lat="44.23426" lon="5.39808">
        <ele>940</ele>
        <time>2026-05-13T15:24:49.000Z</time>
      </trkpt>
      <trkpt lat="44.23427" lon="5.39807">
        <ele>940</ele>
        <time>2026-05-13T15:24:50.000Z</time>
      </trkpt>
      <trkpt lat="44.23427" lon="5.39807">
        <ele>941</ele>
        <time>2026-05-13T15:24:51.000Z</time>
      </trkpt>
      <trkpt lat="44.23428" lon="5.39807">
        <ele>941</ele>
        <time>2026-05-13T15:24:52.000Z</time>
      </trkpt>
      <trkpt lat="44.23429" lon="5.39807">
        <ele>942</ele>
        <time>2026-05-13T15:24:53.000Z</time>
      </trkpt>
      <trkpt lat="44.23429" lon="5.39807">
        <ele>942</ele>
        <time>2026-05-13T15:24:54.000Z</time>
      </trkpt>
      <trkpt lat="44.2343" lon="5.39808">
        <ele>942</ele>
        <time>2026-05-13T15:24:55.000Z</time>
      </trkpt>
      <trkpt lat="44.23431" lon="5.39808">
        <ele>943</ele>
        <time>2026-05-13T15:24:56.000Z</time>
      </trkpt>
      <trkpt lat="44.23432" lon="5.39809">
        <ele>943</ele>
        <time>2026-05-13T15:24:57.000Z</time>
      </trkpt>
      <trkpt lat="44.23433" lon="5.3981">
        <ele>943</ele>
        <time>2026-05-13T15:24:58.000Z</time>
      </trkpt>
      <trkpt lat="44.23434" lon="5.39811">
        <ele>943</ele>
        <time>2026-05-13T15:24:59.000Z</time>
      </trkpt>
      <trkpt lat="44.23434" lon="5.39811">
        <ele>943</ele>
        <time>2026-05-13T15:25:00.000Z</time>
      </trkpt>
      <trkpt lat="44.23435" lon="5.39811">
        <ele>944</ele>
        <time>2026-05-13T15:25:01.000Z</time>
      </trkpt>
      <trkpt lat="44.23435" lon="5.39812">
        <ele>945</ele>
        <time>2026-05-13T15:25:02.000Z</time>
      </trkpt>
      <trkpt lat="44.23436" lon="5.39811">
        <ele>945</ele>
        <time>2026-05-13T15:25:03.000Z</time>
      </trkpt>
      <trkpt lat="44.23437" lon="5.39811">
        <ele>945</ele>
        <time>2026-05-13T15:25:04.000Z</time>
      </trkpt>
      <trkpt lat="44.23438" lon="5.39811">
        <ele>946</ele>
        <time>2026-05-13T15:25:05.000Z</time>
      </trkpt>
      <trkpt lat="44.23439" lon="5.3981">
        <ele>946</ele>
        <time>2026-05-13T15:25:06.000Z</time>
      </trkpt>
      <trkpt lat="44.2344" lon="5.3981">
        <ele>946</ele>
        <time>2026-05-13T15:25:07.000Z</time>
      </trkpt>
      <trkpt lat="44.2344" lon="5.39809">
        <ele>947</ele>
        <time>2026-05-13T15:25:08.000Z</time>
      </trkpt>
      <trkpt lat="44.23441" lon="5.39809">
        <ele>947</ele>
        <time>2026-05-13T15:25:09.000Z</time>
      </trkpt>
      <trkpt lat="44.23441" lon="5.39808">
        <ele>947</ele>
        <time>2026-05-13T15:25:10.000Z</time>
      </trkpt>
      <trkpt lat="44.23442" lon="5.39806">
        <ele>947</ele>
        <time>2026-05-13T15:25:11.000Z</time>
      </trkpt>
      <trkpt lat="44.23442" lon="5.39805">
        <ele>947</ele>
        <time>2026-05-13T15:25:12.000Z</time>
      </trkpt>
      <trkpt lat="44.23443" lon="5.39803">
        <ele>948</ele>
        <time>2026-05-13T15:25:13.000Z</time>
      </trkpt>
      <trkpt lat="44.23443" lon="5.39802">
        <ele>948</ele>
        <time>2026-05-13T15:25:14.000Z</time>
      </trkpt>
      <trkpt lat="44.23443" lon="5.39801">
        <ele>948</ele>
        <time>2026-05-13T15:25:15.000Z</time>
      </trkpt>
      <trkpt lat="44.23444" lon="5.39801">
        <ele>947</ele>
        <time>2026-05-13T15:25:16.000Z</time>
      </trkpt>
      <trkpt lat="44.23445" lon="5.398">
        <ele>948</ele>
        <time>2026-05-13T15:25:17.000Z</time>
      </trkpt>
      <trkpt lat="44.23445" lon="5.398">
        <ele>948</ele>
        <time>2026-05-13T15:25:18.000Z</time>
      </trkpt>
      <trkpt lat="44.23446" lon="5.398">
        <ele>948</ele>
        <time>2026-05-13T15:25:19.000Z</time>
      </trkpt>
      <trkpt lat="44.23447" lon="5.39799">
        <ele>948</ele>
        <time>2026-05-13T15:25:20.000Z</time>
      </trkpt>
      <trkpt lat="44.23448" lon="5.39799">
        <ele>947</ele>
        <time>2026-05-13T15:25:21.000Z</time>
      </trkpt>
      <trkpt lat="44.23449" lon="5.39798">
        <ele>947</ele>
        <time>2026-05-13T15:25:22.000Z</time>
      </trkpt>
      <trkpt lat="44.23449" lon="5.39798">
        <ele>947</ele>
        <time>2026-05-13T15:25:23.000Z</time>
      </trkpt>
      <trkpt lat="44.2345" lon="5.39797">
        <ele>946</ele>
        <time>2026-05-13T15:25:24.000Z</time>
      </trkpt>
      <trkpt lat="44.23451" lon="5.39797">
        <ele>946</ele>
        <time>2026-05-13T15:25:25.000Z</time>
      </trkpt>
      <trkpt lat="44.23452" lon="5.39796">
        <ele>946</ele>
        <time>2026-05-13T15:25:26.000Z</time>
      </trkpt>
      <trkpt lat="44.23452" lon="5.39795">
        <ele>947</ele>
        <time>2026-05-13T15:25:27.000Z</time>
      </trkpt>
      <trkpt lat="44.23453" lon="5.39794">
        <ele>947</ele>
        <time>2026-05-13T15:25:28.000Z</time>
      </trkpt>
      <trkpt lat="44.23454" lon="5.39794">
        <ele>947</ele>
        <time>2026-05-13T15:25:29.000Z</time>
      </trkpt>
      <trkpt lat="44.23455" lon="5.39793">
        <ele>947</ele>
        <time>2026-05-13T15:25:30.000Z</time>
      </trkpt>
      <trkpt lat="44.23456" lon="5.39793">
        <ele>948</ele>
        <time>2026-05-13T15:25:31.000Z</time>
      </trkpt>
      <trkpt lat="44.23457" lon="5.39792">
        <ele>948</ele>
        <time>2026-05-13T15:25:32.000Z</time>
      </trkpt>
      <trkpt lat="44.23458" lon="5.39792">
        <ele>948</ele>
        <time>2026-05-13T15:25:33.000Z</time>
      </trkpt>
      <trkpt lat="44.23459" lon="5.39792">
        <ele>949</ele>
        <time>2026-05-13T15:25:34.000Z</time>
      </trkpt>
      <trkpt lat="44.2346" lon="5.39791">
        <ele>949</ele>
        <time>2026-05-13T15:25:35.000Z</time>
      </trkpt>
      <trkpt lat="44.23461" lon="5.3979">
        <ele>949</ele>
        <time>2026-05-13T15:25:36.000Z</time>
      </trkpt>
      <trkpt lat="44.23462" lon="5.3979">
        <ele>949</ele>
        <time>2026-05-13T15:25:37.000Z</time>
      </trkpt>
      <trkpt lat="44.23463" lon="5.39789">
        <ele>948</ele>
        <time>2026-05-13T15:25:38.000Z</time>
      </trkpt>
      <trkpt lat="44.23464" lon="5.39789">
        <ele>947</ele>
        <time>2026-05-13T15:25:39.000Z</time>
      </trkpt>
      <trkpt lat="44.23465" lon="5.39788">
        <ele>948</ele>
        <time>2026-05-13T15:25:40.000Z</time>
      </trkpt>
      <trkpt lat="44.23466" lon="5.39787">
        <ele>948</ele>
        <time>2026-05-13T15:25:41.000Z</time>
      </trkpt>
      <trkpt lat="44.23467" lon="5.39787">
        <ele>948</ele>
        <time>2026-05-13T15:25:42.000Z</time>
      </trkpt>
      <trkpt lat="44.23467" lon="5.39787">
        <ele>948</ele>
        <time>2026-05-13T15:25:43.000Z</time>
      </trkpt>
      <trkpt lat="44.23468" lon="5.39786">
        <ele>947</ele>
        <time>2026-05-13T15:25:44.000Z</time>
      </trkpt>
      <trkpt lat="44.23469" lon="5.39785">
        <ele>948</ele>
        <time>2026-05-13T15:25:45.000Z</time>
      </trkpt>
      <trkpt lat="44.23469" lon="5.39784">
        <ele>948</ele>
        <time>2026-05-13T15:25:46.000Z</time>
      </trkpt>
      <trkpt lat="44.23469" lon="5.39782">
        <ele>948</ele>
        <time>2026-05-13T15:25:47.000Z</time>
      </trkpt>
      <trkpt lat="44.2347" lon="5.39781">
        <ele>948</ele>
        <time>2026-05-13T15:25:48.000Z</time>
      </trkpt>
      <trkpt lat="44.23471" lon="5.39781">
        <ele>948</ele>
        <time>2026-05-13T15:25:49.000Z</time>
      </trkpt>
      <trkpt lat="44.23471" lon="5.39779">
        <ele>948</ele>
        <time>2026-05-13T15:25:50.000Z</time>
      </trkpt>
      <trkpt lat="44.23471" lon="5.39778">
        <ele>948</ele>
        <time>2026-05-13T15:25:51.000Z</time>
      </trkpt>
      <trkpt lat="44.23472" lon="5.39777">
        <ele>948</ele>
        <time>2026-05-13T15:25:52.000Z</time>
      </trkpt>
      <trkpt lat="44.23472" lon="5.39776">
        <ele>948</ele>
        <time>2026-05-13T15:25:53.000Z</time>
      </trkpt>
      <trkpt lat="44.23473" lon="5.39775">
        <ele>949</ele>
        <time>2026-05-13T15:25:54.000Z</time>
      </trkpt>
      <trkpt lat="44.23473" lon="5.39775">
        <ele>949</ele>
        <time>2026-05-13T15:25:55.000Z</time>
      </trkpt>
      <trkpt lat="44.23474" lon="5.39774">
        <ele>949</ele>
        <time>2026-05-13T15:25:56.000Z</time>
      </trkpt>
      <trkpt lat="44.23474" lon="5.39773">
        <ele>949</ele>
        <time>2026-05-13T15:25:57.000Z</time>
      </trkpt>
      <trkpt lat="44.23474" lon="5.39771">
        <ele>949</ele>
        <time>2026-05-13T15:25:58.000Z</time>
      </trkpt>
      <trkpt lat="44.23474" lon="5.3977">
        <ele>950</ele>
        <time>2026-05-13T15:25:59.000Z</time>
      </trkpt>
      <trkpt lat="44.23475" lon="5.3977">
        <ele>950</ele>
        <time>2026-05-13T15:26:00.000Z</time>
      </trkpt>
      <trkpt lat="44.23476" lon="5.39769">
        <ele>951</ele>
        <time>2026-05-13T15:26:01.000Z</time>
      </trkpt>
      <trkpt lat="44.23476" lon="5.39768">
        <ele>951</ele>
        <time>2026-05-13T15:26:02.000Z</time>
      </trkpt>
      <trkpt lat="44.23477" lon="5.39767">
        <ele>951</ele>
        <time>2026-05-13T15:26:03.000Z</time>
      </trkpt>
      <trkpt lat="44.23477" lon="5.39766">
        <ele>952</ele>
        <time>2026-05-13T15:26:04.000Z</time>
      </trkpt>
      <trkpt lat="44.23478" lon="5.39765">
        <ele>951</ele>
        <time>2026-05-13T15:26:05.000Z</time>
      </trkpt>
      <trkpt lat="44.23478" lon="5.39763">
        <ele>951</ele>
        <time>2026-05-13T15:26:06.000Z</time>
      </trkpt>
      <trkpt lat="44.23479" lon="5.39763">
        <ele>951</ele>
        <time>2026-05-13T15:26:07.000Z</time>
      </trkpt>
      <trkpt lat="44.2348" lon="5.39762">
        <ele>951</ele>
        <time>2026-05-13T15:26:08.000Z</time>
      </trkpt>
      <trkpt lat="44.2348" lon="5.39761">
        <ele>951</ele>
        <time>2026-05-13T15:26:09.000Z</time>
      </trkpt>
      <trkpt lat="44.23481" lon="5.3976">
        <ele>951</ele>
        <time>2026-05-13T15:26:10.000Z</time>
      </trkpt>
      <trkpt lat="44.23482" lon="5.39759">
        <ele>952</ele>
        <time>2026-05-13T15:26:11.000Z</time>
      </trkpt>
      <trkpt lat="44.23482" lon="5.39758">
        <ele>951</ele>
        <time>2026-05-13T15:26:12.000Z</time>
      </trkpt>
      <trkpt lat="44.23483" lon="5.39757">
        <ele>951</ele>
        <time>2026-05-13T15:26:13.000Z</time>
      </trkpt>
      <trkpt lat="44.23483" lon="5.39756">
        <ele>951</ele>
        <time>2026-05-13T15:26:14.000Z</time>
      </trkpt>
      <trkpt lat="44.23484" lon="5.39755">
        <ele>951</ele>
        <time>2026-05-13T15:26:15.000Z</time>
      </trkpt>
      <trkpt lat="44.23484" lon="5.39753">
        <ele>951</ele>
        <time>2026-05-13T15:26:16.000Z</time>
      </trkpt>
      <trkpt lat="44.23484" lon="5.39753">
        <ele>951</ele>
        <time>2026-05-13T15:26:17.000Z</time>
      </trkpt>
      <trkpt lat="44.23485" lon="5.39752">
        <ele>951</ele>
        <time>2026-05-13T15:26:18.000Z</time>
      </trkpt>
      <trkpt lat="44.23485" lon="5.39751">
        <ele>951</ele>
        <time>2026-05-13T15:26:19.000Z</time>
      </trkpt>
      <trkpt lat="44.23485" lon="5.3975">
        <ele>951</ele>
        <time>2026-05-13T15:26:20.000Z</time>
      </trkpt>
      <trkpt lat="44.23486" lon="5.39748">
        <ele>952</ele>
        <time>2026-05-13T15:26:21.000Z</time>
      </trkpt>
      <trkpt lat="44.23486" lon="5.39747">
        <ele>952</ele>
        <time>2026-05-13T15:26:22.000Z</time>
      </trkpt>
      <trkpt lat="44.23486" lon="5.39746">
        <ele>952</ele>
        <time>2026-05-13T15:26:23.000Z</time>
      </trkpt>
      <trkpt lat="44.23487" lon="5.39745">
        <ele>952</ele>
        <time>2026-05-13T15:26:24.000Z</time>
      </trkpt>
      <trkpt lat="44.23487" lon="5.39743">
        <ele>952</ele>
        <time>2026-05-13T15:26:25.000Z</time>
      </trkpt>
      <trkpt lat="44.23487" lon="5.39742">
        <ele>952</ele>
        <time>2026-05-13T15:26:26.000Z</time>
      </trkpt>
      <trkpt lat="44.23488" lon="5.39741">
        <ele>952</ele>
        <time>2026-05-13T15:26:27.000Z</time>
      </trkpt>
      <trkpt lat="44.23488" lon="5.39739">
        <ele>952</ele>
        <time>2026-05-13T15:26:28.000Z</time>
      </trkpt>
      <trkpt lat="44.23488" lon="5.39738">
        <ele>952</ele>
        <time>2026-05-13T15:26:29.000Z</time>
      </trkpt>
      <trkpt lat="44.23488" lon="5.39736">
        <ele>953</ele>
        <time>2026-05-13T15:26:30.000Z</time>
      </trkpt>
      <trkpt lat="44.23489" lon="5.39735">
        <ele>953</ele>
        <time>2026-05-13T15:26:31.000Z</time>
      </trkpt>
      <trkpt lat="44.23489" lon="5.39734">
        <ele>953</ele>
        <time>2026-05-13T15:26:32.000Z</time>
      </trkpt>
      <trkpt lat="44.23489" lon="5.39733">
        <ele>953</ele>
        <time>2026-05-13T15:26:33.000Z</time>
      </trkpt>
      <trkpt lat="44.23489" lon="5.39732">
        <ele>954</ele>
        <time>2026-05-13T15:26:34.000Z</time>
      </trkpt>
      <trkpt lat="44.2349" lon="5.39731">
        <ele>955</ele>
        <time>2026-05-13T15:26:35.000Z</time>
      </trkpt>
      <trkpt lat="44.2349" lon="5.3973">
        <ele>955</ele>
        <time>2026-05-13T15:26:36.000Z</time>
      </trkpt>
      <trkpt lat="44.2349" lon="5.39728">
        <ele>955</ele>
        <time>2026-05-13T15:26:37.000Z</time>
      </trkpt>
      <trkpt lat="44.2349" lon="5.39727">
        <ele>955</ele>
        <time>2026-05-13T15:26:38.000Z</time>
      </trkpt>
      <trkpt lat="44.2349" lon="5.39726">
        <ele>955</ele>
        <time>2026-05-13T15:26:39.000Z</time>
      </trkpt>
      <trkpt lat="44.23491" lon="5.39726">
        <ele>955</ele>
        <time>2026-05-13T15:26:40.000Z</time>
      </trkpt>
      <trkpt lat="44.23491" lon="5.39724">
        <ele>955</ele>
        <time>2026-05-13T15:26:41.000Z</time>
      </trkpt>
      <trkpt lat="44.2349" lon="5.39724">
        <ele>955</ele>
        <time>2026-05-13T15:26:42.000Z</time>
      </trkpt>
      <trkpt lat="44.2349" lon="5.39722">
        <ele>956</ele>
        <time>2026-05-13T15:26:43.000Z</time>
      </trkpt>
      <trkpt lat="44.2349" lon="5.39721">
        <ele>956</ele>
        <time>2026-05-13T15:26:44.000Z</time>
      </trkpt>
      <trkpt lat="44.2349" lon="5.3972">
        <ele>956</ele>
        <time>2026-05-13T15:26:45.000Z</time>
      </trkpt>
      <trkpt lat="44.2349" lon="5.39719">
        <ele>955</ele>
        <time>2026-05-13T15:26:46.000Z</time>
      </trkpt>
      <trkpt lat="44.23491" lon="5.39718">
        <ele>954</ele>
        <time>2026-05-13T15:26:47.000Z</time>
      </trkpt>
      <trkpt lat="44.23491" lon="5.39716">
        <ele>953</ele>
        <time>2026-05-13T15:26:48.000Z</time>
      </trkpt>
      <trkpt lat="44.23492" lon="5.39715">
        <ele>954</ele>
        <time>2026-05-13T15:26:49.000Z</time>
      </trkpt>
      <trkpt lat="44.23492" lon="5.39713">
        <ele>954</ele>
        <time>2026-05-13T15:26:50.000Z</time>
      </trkpt>
      <trkpt lat="44.23492" lon="5.39712">
        <ele>954</ele>
        <time>2026-05-13T15:26:51.000Z</time>
      </trkpt>
      <trkpt lat="44.23493" lon="5.39711">
        <ele>955</ele>
        <time>2026-05-13T15:26:52.000Z</time>
      </trkpt>
      <trkpt lat="44.23493" lon="5.39709">
        <ele>955</ele>
        <time>2026-05-13T15:26:53.000Z</time>
      </trkpt>
      <trkpt lat="44.23493" lon="5.39708">
        <ele>955</ele>
        <time>2026-05-13T15:26:54.000Z</time>
      </trkpt>
      <trkpt lat="44.23494" lon="5.39707">
        <ele>955</ele>
        <time>2026-05-13T15:26:55.000Z</time>
      </trkpt>
      <trkpt lat="44.23494" lon="5.39706">
        <ele>955</ele>
        <time>2026-05-13T15:26:56.000Z</time>
      </trkpt>
      <trkpt lat="44.23494" lon="5.39704">
        <ele>956</ele>
        <time>2026-05-13T15:26:57.000Z</time>
      </trkpt>
      <trkpt lat="44.23494" lon="5.39703">
        <ele>957</ele>
        <time>2026-05-13T15:26:58.000Z</time>
      </trkpt>
      <trkpt lat="44.23493" lon="5.39701">
        <ele>957</ele>
        <time>2026-05-13T15:26:59.000Z</time>
      </trkpt>
      <trkpt lat="44.23494" lon="5.397">
        <ele>958</ele>
        <time>2026-05-13T15:27:00.000Z</time>
      </trkpt>
      <trkpt lat="44.23494" lon="5.39698">
        <ele>958</ele>
        <time>2026-05-13T15:27:01.000Z</time>
      </trkpt>
      <trkpt lat="44.23494" lon="5.39696">
        <ele>958</ele>
        <time>2026-05-13T15:27:02.000Z</time>
      </trkpt>
      <trkpt lat="44.23495" lon="5.39695">
        <ele>958</ele>
        <time>2026-05-13T15:27:03.000Z</time>
      </trkpt>
      <trkpt lat="44.23496" lon="5.39694">
        <ele>958</ele>
        <time>2026-05-13T15:27:04.000Z</time>
      </trkpt>
      <trkpt lat="44.23497" lon="5.39692">
        <ele>958</ele>
        <time>2026-05-13T15:27:05.000Z</time>
      </trkpt>
      <trkpt lat="44.23497" lon="5.39691">
        <ele>958</ele>
        <time>2026-05-13T15:27:06.000Z</time>
      </trkpt>
      <trkpt lat="44.23497" lon="5.3969">
        <ele>958</ele>
        <time>2026-05-13T15:27:07.000Z</time>
      </trkpt>
      <trkpt lat="44.23498" lon="5.39689">
        <ele>957</ele>
        <time>2026-05-13T15:27:08.000Z</time>
      </trkpt>
      <trkpt lat="44.23498" lon="5.39688">
        <ele>957</ele>
        <time>2026-05-13T15:27:09.000Z</time>
      </trkpt>
      <trkpt lat="44.23499" lon="5.39687">
        <ele>958</ele>
        <time>2026-05-13T15:27:10.000Z</time>
      </trkpt>
      <trkpt lat="44.23499" lon="5.39685">
        <ele>958</ele>
        <time>2026-05-13T15:27:11.000Z</time>
      </trkpt>
      <trkpt lat="44.23499" lon="5.39684">
        <ele>958</ele>
        <time>2026-05-13T15:27:12.000Z</time>
      </trkpt>
      <trkpt lat="44.23499" lon="5.39683">
        <ele>958</ele>
        <time>2026-05-13T15:27:13.000Z</time>
      </trkpt>
      <trkpt lat="44.23499" lon="5.39682">
        <ele>958</ele>
        <time>2026-05-13T15:27:14.000Z</time>
      </trkpt>
      <trkpt lat="44.23499" lon="5.39679">
        <ele>957</ele>
        <time>2026-05-13T15:27:15.000Z</time>
      </trkpt>
      <trkpt lat="44.235" lon="5.39678">
        <ele>957</ele>
        <time>2026-05-13T15:27:16.000Z</time>
      </trkpt>
      <trkpt lat="44.23501" lon="5.39676">
        <ele>957</ele>
        <time>2026-05-13T15:27:17.000Z</time>
      </trkpt>
      <trkpt lat="44.23501" lon="5.39675">
        <ele>957</ele>
        <time>2026-05-13T15:27:18.000Z</time>
      </trkpt>
      <trkpt lat="44.23502" lon="5.39673">
        <ele>958</ele>
        <time>2026-05-13T15:27:19.000Z</time>
      </trkpt>
      <trkpt lat="44.23503" lon="5.39671">
        <ele>959</ele>
        <time>2026-05-13T15:27:20.000Z</time>
      </trkpt>
      <trkpt lat="44.23503" lon="5.3967">
        <ele>959</ele>
        <time>2026-05-13T15:27:21.000Z</time>
      </trkpt>
      <trkpt lat="44.23503" lon="5.39668">
        <ele>959</ele>
        <time>2026-05-13T15:27:22.000Z</time>
      </trkpt>
      <trkpt lat="44.23504" lon="5.39667">
        <ele>959</ele>
        <time>2026-05-13T15:27:23.000Z</time>
      </trkpt>
      <trkpt lat="44.23504" lon="5.39666">
        <ele>959</ele>
        <time>2026-05-13T15:27:24.000Z</time>
      </trkpt>
      <trkpt lat="44.23505" lon="5.39665">
        <ele>959</ele>
        <time>2026-05-13T15:27:25.000Z</time>
      </trkpt>
      <trkpt lat="44.23505" lon="5.39665">
        <ele>959</ele>
        <time>2026-05-13T15:27:26.000Z</time>
      </trkpt>
      <trkpt lat="44.23505" lon="5.39664">
        <ele>960</ele>
        <time>2026-05-13T15:27:27.000Z</time>
      </trkpt>
      <trkpt lat="44.23506" lon="5.39663">
        <ele>961</ele>
        <time>2026-05-13T15:27:28.000Z</time>
      </trkpt>
      <trkpt lat="44.23507" lon="5.39663">
        <ele>961</ele>
        <time>2026-05-13T15:27:29.000Z</time>
      </trkpt>
      <trkpt lat="44.23507" lon="5.39662">
        <ele>961</ele>
        <time>2026-05-13T15:27:30.000Z</time>
      </trkpt>
      <trkpt lat="44.23508" lon="5.39662">
        <ele>961</ele>
        <time>2026-05-13T15:27:31.000Z</time>
      </trkpt>
      <trkpt lat="44.23509" lon="5.39661">
        <ele>961</ele>
        <time>2026-05-13T15:27:32.000Z</time>
      </trkpt>
      <trkpt lat="44.2351" lon="5.3966">
        <ele>961</ele>
        <time>2026-05-13T15:27:33.000Z</time>
      </trkpt>
      <trkpt lat="44.23511" lon="5.39659">
        <ele>962</ele>
        <time>2026-05-13T15:27:34.000Z</time>
      </trkpt>
      <trkpt lat="44.23513" lon="5.3966">
        <ele>962</ele>
        <time>2026-05-13T15:27:35.000Z</time>
      </trkpt>
      <trkpt lat="44.23514" lon="5.39659">
        <ele>962</ele>
        <time>2026-05-13T15:27:36.000Z</time>
      </trkpt>
      <trkpt lat="44.23515" lon="5.39659">
        <ele>961</ele>
        <time>2026-05-13T15:27:37.000Z</time>
      </trkpt>
      <trkpt lat="44.23516" lon="5.39658">
        <ele>961</ele>
        <time>2026-05-13T15:27:38.000Z</time>
      </trkpt>
      <trkpt lat="44.23517" lon="5.39657">
        <ele>960</ele>
        <time>2026-05-13T15:27:39.000Z</time>
      </trkpt>
      <trkpt lat="44.23517" lon="5.39655">
        <ele>960</ele>
        <time>2026-05-13T15:27:40.000Z</time>
      </trkpt>
      <trkpt lat="44.23518" lon="5.39654">
        <ele>959</ele>
        <time>2026-05-13T15:27:41.000Z</time>
      </trkpt>
      <trkpt lat="44.23519" lon="5.39654">
        <ele>960</ele>
        <time>2026-05-13T15:27:42.000Z</time>
      </trkpt>
      <trkpt lat="44.23519" lon="5.39653">
        <ele>960</ele>
        <time>2026-05-13T15:27:43.000Z</time>
      </trkpt>
      <trkpt lat="44.2352" lon="5.39653">
        <ele>959</ele>
        <time>2026-05-13T15:27:44.000Z</time>
      </trkpt>
      <trkpt lat="44.2352" lon="5.39653">
        <ele>959</ele>
        <time>2026-05-13T15:27:45.000Z</time>
      </trkpt>
      <trkpt lat="44.2352" lon="5.39652">
        <ele>958</ele>
        <time>2026-05-13T15:27:46.000Z</time>
      </trkpt>
      <trkpt lat="44.23521" lon="5.39652">
        <ele>958</ele>
        <time>2026-05-13T15:27:47.000Z</time>
      </trkpt>
      <trkpt lat="44.23522" lon="5.39651">
        <ele>958</ele>
        <time>2026-05-13T15:27:48.000Z</time>
      </trkpt>
      <trkpt lat="44.23523" lon="5.3965">
        <ele>958</ele>
        <time>2026-05-13T15:27:49.000Z</time>
      </trkpt>
      <trkpt lat="44.23523" lon="5.39649">
        <ele>957</ele>
        <time>2026-05-13T15:27:50.000Z</time>
      </trkpt>
      <trkpt lat="44.23524" lon="5.39649">
        <ele>957</ele>
        <time>2026-05-13T15:27:51.000Z</time>
      </trkpt>
      <trkpt lat="44.23525" lon="5.39648">
        <ele>957</ele>
        <time>2026-05-13T15:27:52.000Z</time>
      </trkpt>
      <trkpt lat="44.23525" lon="5.39647">
        <ele>957</ele>
        <time>2026-05-13T15:27:53.000Z</time>
      </trkpt>
      <trkpt lat="44.23525" lon="5.39646">
        <ele>958</ele>
        <time>2026-05-13T15:27:54.000Z</time>
      </trkpt>
      <trkpt lat="44.23526" lon="5.39645">
        <ele>959</ele>
        <time>2026-05-13T15:27:55.000Z</time>
      </trkpt>
      <trkpt lat="44.23527" lon="5.39644">
        <ele>960</ele>
        <time>2026-05-13T15:27:56.000Z</time>
      </trkpt>
      <trkpt lat="44.23528" lon="5.39643">
        <ele>961</ele>
        <time>2026-05-13T15:27:57.000Z</time>
      </trkpt>
      <trkpt lat="44.23529" lon="5.39644">
        <ele>961</ele>
        <time>2026-05-13T15:27:58.000Z</time>
      </trkpt>
      <trkpt lat="44.23529" lon="5.39644">
        <ele>961</ele>
        <time>2026-05-13T15:27:59.000Z</time>
      </trkpt>
      <trkpt lat="44.2353" lon="5.39644">
        <ele>961</ele>
        <time>2026-05-13T15:28:00.000Z</time>
      </trkpt>
      <trkpt lat="44.23531" lon="5.39644">
        <ele>961</ele>
        <time>2026-05-13T15:28:01.000Z</time>
      </trkpt>
      <trkpt lat="44.23532" lon="5.39643">
        <ele>961</ele>
        <time>2026-05-13T15:28:02.000Z</time>
      </trkpt>
      <trkpt lat="44.23533" lon="5.39643">
        <ele>962</ele>
        <time>2026-05-13T15:28:03.000Z</time>
      </trkpt>
      <trkpt lat="44.23534" lon="5.39642">
        <ele>962</ele>
        <time>2026-05-13T15:28:04.000Z</time>
      </trkpt>
      <trkpt lat="44.23534" lon="5.39642">
        <ele>962</ele>
        <time>2026-05-13T15:28:05.000Z</time>
      </trkpt>
      <trkpt lat="44.23535" lon="5.39641">
        <ele>961</ele>
        <time>2026-05-13T15:28:06.000Z</time>
      </trkpt>
      <trkpt lat="44.23535" lon="5.3964">
        <ele>962</ele>
        <time>2026-05-13T15:28:07.000Z</time>
      </trkpt>
      <trkpt lat="44.23536" lon="5.39639">
        <ele>962</ele>
        <time>2026-05-13T15:28:08.000Z</time>
      </trkpt>
      <trkpt lat="44.23536" lon="5.39639">
        <ele>962</ele>
        <time>2026-05-13T15:28:09.000Z</time>
      </trkpt>
      <trkpt lat="44.23537" lon="5.39638">
        <ele>962</ele>
        <time>2026-05-13T15:28:10.000Z</time>
      </trkpt>
      <trkpt lat="44.23537" lon="5.39638">
        <ele>962</ele>
        <time>2026-05-13T15:28:11.000Z</time>
      </trkpt>
      <trkpt lat="44.23537" lon="5.39636">
        <ele>962</ele>
        <time>2026-05-13T15:28:12.000Z</time>
      </trkpt>
      <trkpt lat="44.23537" lon="5.39636">
        <ele>962</ele>
        <time>2026-05-13T15:28:13.000Z</time>
      </trkpt>
      <trkpt lat="44.23537" lon="5.39635">
        <ele>963</ele>
        <time>2026-05-13T15:28:14.000Z</time>
      </trkpt>
      <trkpt lat="44.23538" lon="5.39634">
        <ele>963</ele>
        <time>2026-05-13T15:28:15.000Z</time>
      </trkpt>
      <trkpt lat="44.23538" lon="5.39633">
        <ele>963</ele>
        <time>2026-05-13T15:28:16.000Z</time>
      </trkpt>
      <trkpt lat="44.23538" lon="5.39632">
        <ele>964</ele>
        <time>2026-05-13T15:28:17.000Z</time>
      </trkpt>
      <trkpt lat="44.23538" lon="5.3963">
        <ele>964</ele>
        <time>2026-05-13T15:28:18.000Z</time>
      </trkpt>
      <trkpt lat="44.23539" lon="5.39629">
        <ele>964</ele>
        <time>2026-05-13T15:28:19.000Z</time>
      </trkpt>
      <trkpt lat="44.23539" lon="5.39628">
        <ele>965</ele>
        <time>2026-05-13T15:28:20.000Z</time>
      </trkpt>
      <trkpt lat="44.2354" lon="5.39626">
        <ele>964</ele>
        <time>2026-05-13T15:28:21.000Z</time>
      </trkpt>
      <trkpt lat="44.23541" lon="5.39625">
        <ele>965</ele>
        <time>2026-05-13T15:28:22.000Z</time>
      </trkpt>
      <trkpt lat="44.23541" lon="5.39624">
        <ele>966</ele>
        <time>2026-05-13T15:28:23.000Z</time>
      </trkpt>
      <trkpt lat="44.23541" lon="5.39624">
        <ele>966</ele>
        <time>2026-05-13T15:28:24.000Z</time>
      </trkpt>
      <trkpt lat="44.23541" lon="5.39622">
        <ele>966</ele>
        <time>2026-05-13T15:28:25.000Z</time>
      </trkpt>
      <trkpt lat="44.23542" lon="5.39622">
        <ele>966</ele>
        <time>2026-05-13T15:28:26.000Z</time>
      </trkpt>
      <trkpt lat="44.23542" lon="5.39621">
        <ele>966</ele>
        <time>2026-05-13T15:28:27.000Z</time>
      </trkpt>
      <trkpt lat="44.23543" lon="5.3962">
        <ele>966</ele>
        <time>2026-05-13T15:28:28.000Z</time>
      </trkpt>
      <trkpt lat="44.23543" lon="5.39619">
        <ele>966</ele>
        <time>2026-05-13T15:28:29.000Z</time>
      </trkpt>
      <trkpt lat="44.23543" lon="5.39619">
        <ele>967</ele>
        <time>2026-05-13T15:28:30.000Z</time>
      </trkpt>
      <trkpt lat="44.23544" lon="5.39617">
        <ele>966</ele>
        <time>2026-05-13T15:28:31.000Z</time>
      </trkpt>
      <trkpt lat="44.23545" lon="5.39616">
        <ele>967</ele>
        <time>2026-05-13T15:28:32.000Z</time>
      </trkpt>
      <trkpt lat="44.23545" lon="5.39616">
        <ele>967</ele>
        <time>2026-05-13T15:28:33.000Z</time>
      </trkpt>
      <trkpt lat="44.23545" lon="5.39614">
        <ele>967</ele>
        <time>2026-05-13T15:28:34.000Z</time>
      </trkpt>
      <trkpt lat="44.23545" lon="5.39613">
        <ele>968</ele>
        <time>2026-05-13T15:28:35.000Z</time>
      </trkpt>
      <trkpt lat="44.23545" lon="5.39612">
        <ele>968</ele>
        <time>2026-05-13T15:28:36.000Z</time>
      </trkpt>
      <trkpt lat="44.23546" lon="5.39611">
        <ele>968</ele>
        <time>2026-05-13T15:28:37.000Z</time>
      </trkpt>
      <trkpt lat="44.23546" lon="5.3961">
        <ele>968</ele>
        <time>2026-05-13T15:28:38.000Z</time>
      </trkpt>
      <trkpt lat="44.23546" lon="5.39609">
        <ele>969</ele>
        <time>2026-05-13T15:28:39.000Z</time>
      </trkpt>
      <trkpt lat="44.23546" lon="5.39608">
        <ele>968</ele>
        <time>2026-05-13T15:28:40.000Z</time>
      </trkpt>
      <trkpt lat="44.23546" lon="5.39607">
        <ele>968</ele>
        <time>2026-05-13T15:28:41.000Z</time>
      </trkpt>
      <trkpt lat="44.23546" lon="5.39606">
        <ele>968</ele>
        <time>2026-05-13T15:28:42.000Z</time>
      </trkpt>
      <trkpt lat="44.23547" lon="5.39605">
        <ele>968</ele>
        <time>2026-05-13T15:28:43.000Z</time>
      </trkpt>
      <trkpt lat="44.23548" lon="5.39605">
        <ele>968</ele>
        <time>2026-05-13T15:28:44.000Z</time>
      </trkpt>
      <trkpt lat="44.23548" lon="5.39605">
        <ele>967</ele>
        <time>2026-05-13T15:28:45.000Z</time>
      </trkpt>
      <trkpt lat="44.23549" lon="5.39604">
        <ele>966</ele>
        <time>2026-05-13T15:28:46.000Z</time>
      </trkpt>
      <trkpt lat="44.2355" lon="5.39603">
        <ele>967</ele>
        <time>2026-05-13T15:28:47.000Z</time>
      </trkpt>
      <trkpt lat="44.2355" lon="5.39602">
        <ele>967</ele>
        <time>2026-05-13T15:28:48.000Z</time>
      </trkpt>
      <trkpt lat="44.23551" lon="5.39601">
        <ele>968</ele>
        <time>2026-05-13T15:28:49.000Z</time>
      </trkpt>
      <trkpt lat="44.23551" lon="5.396">
        <ele>968</ele>
        <time>2026-05-13T15:28:50.000Z</time>
      </trkpt>
      <trkpt lat="44.23551" lon="5.39599">
        <ele>967</ele>
        <time>2026-05-13T15:28:51.000Z</time>
      </trkpt>
      <trkpt lat="44.23551" lon="5.39599">
        <ele>967</ele>
        <time>2026-05-13T15:28:52.000Z</time>
      </trkpt>
      <trkpt lat="44.23552" lon="5.39598">
        <ele>967</ele>
        <time>2026-05-13T15:28:53.000Z</time>
      </trkpt>
      <trkpt lat="44.23551" lon="5.39597">
        <ele>967</ele>
        <time>2026-05-13T15:28:54.000Z</time>
      </trkpt>
      <trkpt lat="44.23551" lon="5.39595">
        <ele>967</ele>
        <time>2026-05-13T15:28:55.000Z</time>
      </trkpt>
      <trkpt lat="44.23552" lon="5.39594">
        <ele>967</ele>
        <time>2026-05-13T15:28:56.000Z</time>
      </trkpt>
      <trkpt lat="44.23552" lon="5.39592">
        <ele>967</ele>
        <time>2026-05-13T15:28:57.000Z</time>
      </trkpt>
      <trkpt lat="44.23553" lon="5.39591">
        <ele>967</ele>
        <time>2026-05-13T15:28:58.000Z</time>
      </trkpt>
      <trkpt lat="44.23553" lon="5.39591">
        <ele>967</ele>
        <time>2026-05-13T15:28:59.000Z</time>
      </trkpt>
      <trkpt lat="44.23553" lon="5.3959">
        <ele>968</ele>
        <time>2026-05-13T15:29:00.000Z</time>
      </trkpt>
      <trkpt lat="44.23553" lon="5.39588">
        <ele>967</ele>
        <time>2026-05-13T15:29:01.000Z</time>
      </trkpt>
      <trkpt lat="44.23552" lon="5.39587">
        <ele>967</ele>
        <time>2026-05-13T15:29:02.000Z</time>
      </trkpt>
      <trkpt lat="44.23553" lon="5.39586">
        <ele>967</ele>
        <time>2026-05-13T15:29:03.000Z</time>
      </trkpt>
      <trkpt lat="44.23553" lon="5.39584">
        <ele>967</ele>
        <time>2026-05-13T15:29:04.000Z</time>
      </trkpt>
      <trkpt lat="44.23553" lon="5.39583">
        <ele>967</ele>
        <time>2026-05-13T15:29:05.000Z</time>
      </trkpt>
      <trkpt lat="44.23554" lon="5.39582">
        <ele>968</ele>
        <time>2026-05-13T15:29:06.000Z</time>
      </trkpt>
      <trkpt lat="44.23554" lon="5.39581">
        <ele>967</ele>
        <time>2026-05-13T15:29:07.000Z</time>
      </trkpt>
      <trkpt lat="44.23554" lon="5.3958">
        <ele>968</ele>
        <time>2026-05-13T15:29:08.000Z</time>
      </trkpt>
      <trkpt lat="44.23554" lon="5.39578">
        <ele>967</ele>
        <time>2026-05-13T15:29:09.000Z</time>
      </trkpt>
      <trkpt lat="44.23555" lon="5.39578">
        <ele>966</ele>
        <time>2026-05-13T15:29:10.000Z</time>
      </trkpt>
      <trkpt lat="44.23555" lon="5.39577">
        <ele>966</ele>
        <time>2026-05-13T15:29:11.000Z</time>
      </trkpt>
      <trkpt lat="44.23555" lon="5.39576">
        <ele>967</ele>
        <time>2026-05-13T15:29:12.000Z</time>
      </trkpt>
      <trkpt lat="44.23555" lon="5.39575">
        <ele>967</ele>
        <time>2026-05-13T15:29:13.000Z</time>
      </trkpt>
      <trkpt lat="44.23554" lon="5.39574">
        <ele>968</ele>
        <time>2026-05-13T15:29:14.000Z</time>
      </trkpt>
      <trkpt lat="44.23554" lon="5.39573">
        <ele>969</ele>
        <time>2026-05-13T15:29:15.000Z</time>
      </trkpt>
      <trkpt lat="44.23554" lon="5.39572">
        <ele>969</ele>
        <time>2026-05-13T15:29:16.000Z</time>
      </trkpt>
      <trkpt lat="44.23554" lon="5.39571">
        <ele>970</ele>
        <time>2026-05-13T15:29:17.000Z</time>
      </trkpt>
      <trkpt lat="44.23553" lon="5.3957">
        <ele>970</ele>
        <time>2026-05-13T15:29:18.000Z</time>
      </trkpt>
      <trkpt lat="44.23553" lon="5.39569">
        <ele>971</ele>
        <time>2026-05-13T15:29:19.000Z</time>
      </trkpt>
      <trkpt lat="44.23552" lon="5.39567">
        <ele>971</ele>
        <time>2026-05-13T15:29:20.000Z</time>
      </trkpt>
      <trkpt lat="44.23552" lon="5.39566">
        <ele>971</ele>
        <time>2026-05-13T15:29:21.000Z</time>
      </trkpt>
      <trkpt lat="44.23552" lon="5.39565">
        <ele>971</ele>
        <time>2026-05-13T15:29:22.000Z</time>
      </trkpt>
      <trkpt lat="44.23552" lon="5.39564">
        <ele>972</ele>
        <time>2026-05-13T15:29:23.000Z</time>
      </trkpt>
      <trkpt lat="44.23552" lon="5.39562">
        <ele>972</ele>
        <time>2026-05-13T15:29:24.000Z</time>
      </trkpt>
      <trkpt lat="44.23551" lon="5.39561">
        <ele>972</ele>
        <time>2026-05-13T15:29:25.000Z</time>
      </trkpt>
      <trkpt lat="44.23551" lon="5.39559">
        <ele>972</ele>
        <time>2026-05-13T15:29:26.000Z</time>
      </trkpt>
      <trkpt lat="44.23551" lon="5.39558">
        <ele>972</ele>
        <time>2026-05-13T15:29:27.000Z</time>
      </trkpt>
      <trkpt lat="44.23551" lon="5.39557">
        <ele>972</ele>
        <time>2026-05-13T15:29:28.000Z</time>
      </trkpt>
      <trkpt lat="44.23551" lon="5.39556">
        <ele>972</ele>
        <time>2026-05-13T15:29:29.000Z</time>
      </trkpt>
      <trkpt lat="44.23551" lon="5.39555">
        <ele>972</ele>
        <time>2026-05-13T15:29:30.000Z</time>
      </trkpt>
      <trkpt lat="44.23551" lon="5.39553">
        <ele>973</ele>
        <time>2026-05-13T15:29:31.000Z</time>
      </trkpt>
      <trkpt lat="44.23551" lon="5.39553">
        <ele>973</ele>
        <time>2026-05-13T15:29:32.000Z</time>
      </trkpt>
      <trkpt lat="44.23551" lon="5.39553">
        <ele>973</ele>
        <time>2026-05-13T15:29:33.000Z</time>
      </trkpt>
      <trkpt lat="44.2355" lon="5.39552">
        <ele>974</ele>
        <time>2026-05-13T15:29:34.000Z</time>
      </trkpt>
      <trkpt lat="44.23551" lon="5.39551">
        <ele>973</ele>
        <time>2026-05-13T15:29:35.000Z</time>
      </trkpt>
      <trkpt lat="44.23551" lon="5.39551">
        <ele>973</ele>
        <time>2026-05-13T15:29:36.000Z</time>
      </trkpt>
      <trkpt lat="44.2355" lon="5.39551">
        <ele>972</ele>
        <time>2026-05-13T15:29:37.000Z</time>
      </trkpt>
      <trkpt lat="44.2355" lon="5.3955">
        <ele>973</ele>
        <time>2026-05-13T15:29:38.000Z</time>
      </trkpt>
      <trkpt lat="44.2355" lon="5.39549">
        <ele>973</ele>
        <time>2026-05-13T15:29:39.000Z</time>
      </trkpt>
      <trkpt lat="44.2355" lon="5.39548">
        <ele>974</ele>
        <time>2026-05-13T15:29:40.000Z</time>
      </trkpt>
      <trkpt lat="44.2355" lon="5.39547">
        <ele>973</ele>
        <time>2026-05-13T15:29:41.000Z</time>
      </trkpt>
      <trkpt lat="44.23551" lon="5.39546">
        <ele>973</ele>
        <time>2026-05-13T15:29:42.000Z</time>
      </trkpt>
      <trkpt lat="44.23551" lon="5.39545">
        <ele>974</ele>
        <time>2026-05-13T15:29:43.000Z</time>
      </trkpt>
      <trkpt lat="44.23551" lon="5.39545">
        <ele>973</ele>
        <time>2026-05-13T15:29:44.000Z</time>
      </trkpt>
      <trkpt lat="44.23551" lon="5.39544">
        <ele>973</ele>
        <time>2026-05-13T15:29:45.000Z</time>
      </trkpt>
      <trkpt lat="44.23551" lon="5.39543">
        <ele>973</ele>
        <time>2026-05-13T15:29:46.000Z</time>
      </trkpt>
      <trkpt lat="44.23552" lon="5.39542">
        <ele>972</ele>
        <time>2026-05-13T15:29:47.000Z</time>
      </trkpt>
      <trkpt lat="44.23553" lon="5.39541">
        <ele>973</ele>
        <time>2026-05-13T15:29:48.000Z</time>
      </trkpt>
      <trkpt lat="44.23553" lon="5.3954">
        <ele>973</ele>
        <time>2026-05-13T15:29:49.000Z</time>
      </trkpt>
      <trkpt lat="44.23554" lon="5.39538">
        <ele>973</ele>
        <time>2026-05-13T15:29:50.000Z</time>
      </trkpt>
      <trkpt lat="44.23554" lon="5.39537">
        <ele>973</ele>
        <time>2026-05-13T15:29:51.000Z</time>
      </trkpt>
      <trkpt lat="44.23554" lon="5.39536">
        <ele>974</ele>
        <time>2026-05-13T15:29:52.000Z</time>
      </trkpt>
      <trkpt lat="44.23554" lon="5.39533">
        <ele>973</ele>
        <time>2026-05-13T15:29:53.000Z</time>
      </trkpt>
      <trkpt lat="44.23555" lon="5.39532">
        <ele>974</ele>
        <time>2026-05-13T15:29:54.000Z</time>
      </trkpt>
      <trkpt lat="44.23554" lon="5.3953">
        <ele>973</ele>
        <time>2026-05-13T15:29:55.000Z</time>
      </trkpt>
      <trkpt lat="44.23555" lon="5.39529">
        <ele>973</ele>
        <time>2026-05-13T15:29:56.000Z</time>
      </trkpt>
      <trkpt lat="44.23555" lon="5.39528">
        <ele>974</ele>
        <time>2026-05-13T15:29:57.000Z</time>
      </trkpt>
      <trkpt lat="44.23555" lon="5.39527">
        <ele>974</ele>
        <time>2026-05-13T15:29:58.000Z</time>
      </trkpt>
      <trkpt lat="44.23555" lon="5.39525">
        <ele>975</ele>
        <time>2026-05-13T15:29:59.000Z</time>
      </trkpt>
      <trkpt lat="44.23555" lon="5.39523">
        <ele>974</ele>
        <time>2026-05-13T15:30:00.000Z</time>
      </trkpt>
      <trkpt lat="44.23555" lon="5.39521">
        <ele>974</ele>
        <time>2026-05-13T15:30:01.000Z</time>
      </trkpt>
      <trkpt lat="44.23554" lon="5.39519">
        <ele>974</ele>
        <time>2026-05-13T15:30:02.000Z</time>
      </trkpt>
      <trkpt lat="44.23554" lon="5.39518">
        <ele>975</ele>
        <time>2026-05-13T15:30:03.000Z</time>
      </trkpt>
      <trkpt lat="44.23555" lon="5.39515">
        <ele>974</ele>
        <time>2026-05-13T15:30:04.000Z</time>
      </trkpt>
      <trkpt lat="44.23555" lon="5.39513">
        <ele>974</ele>
        <time>2026-05-13T15:30:05.000Z</time>
      </trkpt>
      <trkpt lat="44.23556" lon="5.39513">
        <ele>975</ele>
        <time>2026-05-13T15:30:06.000Z</time>
      </trkpt>
      <trkpt lat="44.23556" lon="5.39512">
        <ele>975</ele>
        <time>2026-05-13T15:30:07.000Z</time>
      </trkpt>
      <trkpt lat="44.23557" lon="5.39511">
        <ele>975</ele>
        <time>2026-05-13T15:30:08.000Z</time>
      </trkpt>
      <trkpt lat="44.23558" lon="5.3951">
        <ele>975</ele>
        <time>2026-05-13T15:30:09.000Z</time>
      </trkpt>
      <trkpt lat="44.23558" lon="5.39509">
        <ele>974</ele>
        <time>2026-05-13T15:30:10.000Z</time>
      </trkpt>
      <trkpt lat="44.23558" lon="5.39508">
        <ele>973</ele>
        <time>2026-05-13T15:30:11.000Z</time>
      </trkpt>
      <trkpt lat="44.23558" lon="5.39506">
        <ele>973</ele>
        <time>2026-05-13T15:30:12.000Z</time>
      </trkpt>
      <trkpt lat="44.23558" lon="5.39504">
        <ele>974</ele>
        <time>2026-05-13T15:30:13.000Z</time>
      </trkpt>
      <trkpt lat="44.23559" lon="5.39502">
        <ele>973</ele>
        <time>2026-05-13T15:30:14.000Z</time>
      </trkpt>
      <trkpt lat="44.23559" lon="5.39501">
        <ele>973</ele>
        <time>2026-05-13T15:30:15.000Z</time>
      </trkpt>
      <trkpt lat="44.23559" lon="5.395">
        <ele>973</ele>
        <time>2026-05-13T15:30:16.000Z</time>
      </trkpt>
      <trkpt lat="44.2356" lon="5.39498">
        <ele>974</ele>
        <time>2026-05-13T15:30:17.000Z</time>
      </trkpt>
      <trkpt lat="44.23561" lon="5.39497">
        <ele>974</ele>
        <time>2026-05-13T15:30:18.000Z</time>
      </trkpt>
      <trkpt lat="44.23561" lon="5.39496">
        <ele>975</ele>
        <time>2026-05-13T15:30:19.000Z</time>
      </trkpt>
      <trkpt lat="44.23562" lon="5.39496">
        <ele>975</ele>
        <time>2026-05-13T15:30:20.000Z</time>
      </trkpt>
      <trkpt lat="44.23563" lon="5.39495">
        <ele>976</ele>
        <time>2026-05-13T15:30:21.000Z</time>
      </trkpt>
      <trkpt lat="44.23564" lon="5.39495">
        <ele>976</ele>
        <time>2026-05-13T15:30:22.000Z</time>
      </trkpt>
      <trkpt lat="44.23565" lon="5.39494">
        <ele>978</ele>
        <time>2026-05-13T15:30:23.000Z</time>
      </trkpt>
      <trkpt lat="44.23566" lon="5.39494">
        <ele>978</ele>
        <time>2026-05-13T15:30:24.000Z</time>
      </trkpt>
      <trkpt lat="44.23566" lon="5.39493">
        <ele>978</ele>
        <time>2026-05-13T15:30:25.000Z</time>
      </trkpt>
      <trkpt lat="44.23567" lon="5.39492">
        <ele>978</ele>
        <time>2026-05-13T15:30:26.000Z</time>
      </trkpt>
      <trkpt lat="44.23568" lon="5.39493">
        <ele>978</ele>
        <time>2026-05-13T15:30:27.000Z</time>
      </trkpt>
      <trkpt lat="44.23568" lon="5.39493">
        <ele>978</ele>
        <time>2026-05-13T15:30:28.000Z</time>
      </trkpt>
      <trkpt lat="44.2357" lon="5.39493">
        <ele>978</ele>
        <time>2026-05-13T15:30:29.000Z</time>
      </trkpt>
      <trkpt lat="44.23572" lon="5.39492">
        <ele>977</ele>
        <time>2026-05-13T15:30:30.000Z</time>
      </trkpt>
      <trkpt lat="44.23574" lon="5.39492">
        <ele>977</ele>
        <time>2026-05-13T15:30:31.000Z</time>
      </trkpt>
      <trkpt lat="44.23575" lon="5.39492">
        <ele>976</ele>
        <time>2026-05-13T15:30:32.000Z</time>
      </trkpt>
      <trkpt lat="44.23576" lon="5.39492">
        <ele>976</ele>
        <time>2026-05-13T15:30:33.000Z</time>
      </trkpt>
      <trkpt lat="44.23578" lon="5.39492">
        <ele>976</ele>
        <time>2026-05-13T15:30:34.000Z</time>
      </trkpt>
      <trkpt lat="44.23579" lon="5.39492">
        <ele>976</ele>
        <time>2026-05-13T15:30:35.000Z</time>
      </trkpt>
      <trkpt lat="44.2358" lon="5.39491">
        <ele>976</ele>
        <time>2026-05-13T15:30:36.000Z</time>
      </trkpt>
      <trkpt lat="44.23581" lon="5.39491">
        <ele>976</ele>
        <time>2026-05-13T15:30:37.000Z</time>
      </trkpt>
      <trkpt lat="44.23582" lon="5.39491">
        <ele>976</ele>
        <time>2026-05-13T15:30:38.000Z</time>
      </trkpt>
      <trkpt lat="44.23583" lon="5.39491">
        <ele>975</ele>
        <time>2026-05-13T15:30:39.000Z</time>
      </trkpt>
      <trkpt lat="44.23584" lon="5.3949">
        <ele>976</ele>
        <time>2026-05-13T15:30:40.000Z</time>
      </trkpt>
      <trkpt lat="44.23585" lon="5.3949">
        <ele>976</ele>
        <time>2026-05-13T15:30:41.000Z</time>
      </trkpt>
      <trkpt lat="44.23586" lon="5.39489">
        <ele>977</ele>
        <time>2026-05-13T15:30:42.000Z</time>
      </trkpt>
      <trkpt lat="44.23587" lon="5.39489">
        <ele>977</ele>
        <time>2026-05-13T15:30:43.000Z</time>
      </trkpt>
      <trkpt lat="44.23588" lon="5.39489">
        <ele>976</ele>
        <time>2026-05-13T15:30:44.000Z</time>
      </trkpt>
      <trkpt lat="44.23589" lon="5.39489">
        <ele>976</ele>
        <time>2026-05-13T15:30:45.000Z</time>
      </trkpt>
      <trkpt lat="44.2359" lon="5.39489">
        <ele>977</ele>
        <time>2026-05-13T15:30:46.000Z</time>
      </trkpt>
      <trkpt lat="44.23591" lon="5.39488">
        <ele>977</ele>
        <time>2026-05-13T15:30:47.000Z</time>
      </trkpt>
      <trkpt lat="44.23592" lon="5.39487">
        <ele>977</ele>
        <time>2026-05-13T15:30:48.000Z</time>
      </trkpt>
      <trkpt lat="44.23593" lon="5.39485">
        <ele>977</ele>
        <time>2026-05-13T15:30:49.000Z</time>
      </trkpt>
      <trkpt lat="44.23593" lon="5.39485">
        <ele>977</ele>
        <time>2026-05-13T15:30:50.000Z</time>
      </trkpt>
      <trkpt lat="44.23594" lon="5.39484">
        <ele>977</ele>
        <time>2026-05-13T15:30:51.000Z</time>
      </trkpt>
      <trkpt lat="44.23595" lon="5.39483">
        <ele>977</ele>
        <time>2026-05-13T15:30:52.000Z</time>
      </trkpt>
      <trkpt lat="44.23595" lon="5.39482">
        <ele>978</ele>
        <time>2026-05-13T15:30:53.000Z</time>
      </trkpt>
      <trkpt lat="44.23596" lon="5.39482">
        <ele>978</ele>
        <time>2026-05-13T15:30:54.000Z</time>
      </trkpt>
      <trkpt lat="44.23597" lon="5.39481">
        <ele>978</ele>
        <time>2026-05-13T15:30:55.000Z</time>
      </trkpt>
      <trkpt lat="44.23598" lon="5.39481">
        <ele>977</ele>
        <time>2026-05-13T15:30:56.000Z</time>
      </trkpt>
      <trkpt lat="44.23599" lon="5.39481">
        <ele>977</ele>
        <time>2026-05-13T15:30:57.000Z</time>
      </trkpt>
      <trkpt lat="44.236" lon="5.3948">
        <ele>978</ele>
        <time>2026-05-13T15:30:58.000Z</time>
      </trkpt>
      <trkpt lat="44.236" lon="5.39479">
        <ele>978</ele>
        <time>2026-05-13T15:30:59.000Z</time>
      </trkpt>
      <trkpt lat="44.23601" lon="5.39478">
        <ele>979</ele>
        <time>2026-05-13T15:31:00.000Z</time>
      </trkpt>
      <trkpt lat="44.23601" lon="5.39477">
        <ele>979</ele>
        <time>2026-05-13T15:31:01.000Z</time>
      </trkpt>
      <trkpt lat="44.23601" lon="5.39477">
        <ele>979</ele>
        <time>2026-05-13T15:31:02.000Z</time>
      </trkpt>
      <trkpt lat="44.23602" lon="5.39476">
        <ele>979</ele>
        <time>2026-05-13T15:31:03.000Z</time>
      </trkpt>
      <trkpt lat="44.23603" lon="5.39476">
        <ele>979</ele>
        <time>2026-05-13T15:31:04.000Z</time>
      </trkpt>
      <trkpt lat="44.23603" lon="5.39475">
        <ele>979</ele>
        <time>2026-05-13T15:31:05.000Z</time>
      </trkpt>
      <trkpt lat="44.23604" lon="5.39474">
        <ele>980</ele>
        <time>2026-05-13T15:31:06.000Z</time>
      </trkpt>
      <trkpt lat="44.23604" lon="5.39473">
        <ele>981</ele>
        <time>2026-05-13T15:31:07.000Z</time>
      </trkpt>
      <trkpt lat="44.23605" lon="5.39472">
        <ele>980</ele>
        <time>2026-05-13T15:31:08.000Z</time>
      </trkpt>
      <trkpt lat="44.23605" lon="5.39472">
        <ele>980</ele>
        <time>2026-05-13T15:31:09.000Z</time>
      </trkpt>
      <trkpt lat="44.23606" lon="5.3947">
        <ele>980</ele>
        <time>2026-05-13T15:31:10.000Z</time>
      </trkpt>
      <trkpt lat="44.23607" lon="5.3947">
        <ele>980</ele>
        <time>2026-05-13T15:31:11.000Z</time>
      </trkpt>
      <trkpt lat="44.23607" lon="5.39468">
        <ele>980</ele>
        <time>2026-05-13T15:31:12.000Z</time>
      </trkpt>
      <trkpt lat="44.23608" lon="5.39468">
        <ele>980</ele>
        <time>2026-05-13T15:31:13.000Z</time>
      </trkpt>
      <trkpt lat="44.23609" lon="5.39466">
        <ele>980</ele>
        <time>2026-05-13T15:31:14.000Z</time>
      </trkpt>
      <trkpt lat="44.2361" lon="5.39466">
        <ele>980</ele>
        <time>2026-05-13T15:31:15.000Z</time>
      </trkpt>
      <trkpt lat="44.2361" lon="5.39465">
        <ele>980</ele>
        <time>2026-05-13T15:31:16.000Z</time>
      </trkpt>
      <trkpt lat="44.23611" lon="5.39465">
        <ele>980</ele>
        <time>2026-05-13T15:31:17.000Z</time>
      </trkpt>
      <trkpt lat="44.23612" lon="5.39464">
        <ele>980</ele>
        <time>2026-05-13T15:31:18.000Z</time>
      </trkpt>
      <trkpt lat="44.23613" lon="5.39463">
        <ele>981</ele>
        <time>2026-05-13T15:31:19.000Z</time>
      </trkpt>
      <trkpt lat="44.23613" lon="5.39462">
        <ele>981</ele>
        <time>2026-05-13T15:31:20.000Z</time>
      </trkpt>
      <trkpt lat="44.23614" lon="5.39461">
        <ele>981</ele>
        <time>2026-05-13T15:31:21.000Z</time>
      </trkpt>
      <trkpt lat="44.23614" lon="5.3946">
        <ele>981</ele>
        <time>2026-05-13T15:31:22.000Z</time>
      </trkpt>
      <trkpt lat="44.23615" lon="5.39459">
        <ele>982</ele>
        <time>2026-05-13T15:31:23.000Z</time>
      </trkpt>
      <trkpt lat="44.23615" lon="5.39458">
        <ele>981</ele>
        <time>2026-05-13T15:31:24.000Z</time>
      </trkpt>
      <trkpt lat="44.23616" lon="5.39458">
        <ele>982</ele>
        <time>2026-05-13T15:31:25.000Z</time>
      </trkpt>
      <trkpt lat="44.23617" lon="5.39457">
        <ele>981</ele>
        <time>2026-05-13T15:31:26.000Z</time>
      </trkpt>
      <trkpt lat="44.23618" lon="5.39457">
        <ele>981</ele>
        <time>2026-05-13T15:31:27.000Z</time>
      </trkpt>
      <trkpt lat="44.23619" lon="5.39457">
        <ele>981</ele>
        <time>2026-05-13T15:31:28.000Z</time>
      </trkpt>
      <trkpt lat="44.2362" lon="5.39456">
        <ele>981</ele>
        <time>2026-05-13T15:31:29.000Z</time>
      </trkpt>
      <trkpt lat="44.2362" lon="5.39455">
        <ele>981</ele>
        <time>2026-05-13T15:31:30.000Z</time>
      </trkpt>
      <trkpt lat="44.23621" lon="5.39454">
        <ele>981</ele>
        <time>2026-05-13T15:31:31.000Z</time>
      </trkpt>
      <trkpt lat="44.23621" lon="5.39454">
        <ele>981</ele>
        <time>2026-05-13T15:31:32.000Z</time>
      </trkpt>
      <trkpt lat="44.23622" lon="5.39454">
        <ele>981</ele>
        <time>2026-05-13T15:31:33.000Z</time>
      </trkpt>
      <trkpt lat="44.23624" lon="5.39454">
        <ele>981</ele>
        <time>2026-05-13T15:31:34.000Z</time>
      </trkpt>
      <trkpt lat="44.23625" lon="5.39453">
        <ele>982</ele>
        <time>2026-05-13T15:31:35.000Z</time>
      </trkpt>
      <trkpt lat="44.23626" lon="5.39452">
        <ele>981</ele>
        <time>2026-05-13T15:31:36.000Z</time>
      </trkpt>
      <trkpt lat="44.23627" lon="5.39452">
        <ele>982</ele>
        <time>2026-05-13T15:31:37.000Z</time>
      </trkpt>
      <trkpt lat="44.23628" lon="5.39451">
        <ele>981</ele>
        <time>2026-05-13T15:31:38.000Z</time>
      </trkpt>
      <trkpt lat="44.23629" lon="5.39451">
        <ele>981</ele>
        <time>2026-05-13T15:31:39.000Z</time>
      </trkpt>
      <trkpt lat="44.2363" lon="5.39451">
        <ele>981</ele>
        <time>2026-05-13T15:31:40.000Z</time>
      </trkpt>
      <trkpt lat="44.23631" lon="5.39451">
        <ele>981</ele>
        <time>2026-05-13T15:31:41.000Z</time>
      </trkpt>
      <trkpt lat="44.23632" lon="5.3945">
        <ele>982</ele>
        <time>2026-05-13T15:31:42.000Z</time>
      </trkpt>
      <trkpt lat="44.23633" lon="5.39449">
        <ele>983</ele>
        <time>2026-05-13T15:31:43.000Z</time>
      </trkpt>
      <trkpt lat="44.23634" lon="5.39449">
        <ele>983</ele>
        <time>2026-05-13T15:31:44.000Z</time>
      </trkpt>
      <trkpt lat="44.23635" lon="5.39447">
        <ele>982</ele>
        <time>2026-05-13T15:31:45.000Z</time>
      </trkpt>
      <trkpt lat="44.23636" lon="5.39446">
        <ele>983</ele>
        <time>2026-05-13T15:31:46.000Z</time>
      </trkpt>
      <trkpt lat="44.23637" lon="5.39445">
        <ele>982</ele>
        <time>2026-05-13T15:31:47.000Z</time>
      </trkpt>
      <trkpt lat="44.23637" lon="5.39444">
        <ele>982</ele>
        <time>2026-05-13T15:31:48.000Z</time>
      </trkpt>
      <trkpt lat="44.23639" lon="5.39443">
        <ele>982</ele>
        <time>2026-05-13T15:31:49.000Z</time>
      </trkpt>
      <trkpt lat="44.23639" lon="5.39442">
        <ele>982</ele>
        <time>2026-05-13T15:31:50.000Z</time>
      </trkpt>
      <trkpt lat="44.2364" lon="5.39441">
        <ele>982</ele>
        <time>2026-05-13T15:31:51.000Z</time>
      </trkpt>
      <trkpt lat="44.2364" lon="5.3944">
        <ele>982</ele>
        <time>2026-05-13T15:31:52.000Z</time>
      </trkpt>
      <trkpt lat="44.23641" lon="5.3944">
        <ele>982</ele>
        <time>2026-05-13T15:31:53.000Z</time>
      </trkpt>
      <trkpt lat="44.23642" lon="5.39439">
        <ele>982</ele>
        <time>2026-05-13T15:31:54.000Z</time>
      </trkpt>
      <trkpt lat="44.23642" lon="5.39438">
        <ele>982</ele>
        <time>2026-05-13T15:31:55.000Z</time>
      </trkpt>
      <trkpt lat="44.23643" lon="5.39437">
        <ele>982</ele>
        <time>2026-05-13T15:31:56.000Z</time>
      </trkpt>
      <trkpt lat="44.23644" lon="5.39436">
        <ele>982</ele>
        <time>2026-05-13T15:31:57.000Z</time>
      </trkpt>
      <trkpt lat="44.23645" lon="5.39435">
        <ele>982</ele>
        <time>2026-05-13T15:31:58.000Z</time>
      </trkpt>
      <trkpt lat="44.23646" lon="5.39434">
        <ele>982</ele>
        <time>2026-05-13T15:31:59.000Z</time>
      </trkpt>
      <trkpt lat="44.23646" lon="5.39432">
        <ele>983</ele>
        <time>2026-05-13T15:32:00.000Z</time>
      </trkpt>
      <trkpt lat="44.23647" lon="5.39432">
        <ele>983</ele>
        <time>2026-05-13T15:32:01.000Z</time>
      </trkpt>
      <trkpt lat="44.23646" lon="5.39431">
        <ele>983</ele>
        <time>2026-05-13T15:32:02.000Z</time>
      </trkpt>
      <trkpt lat="44.23647" lon="5.3943">
        <ele>983</ele>
        <time>2026-05-13T15:32:03.000Z</time>
      </trkpt>
      <trkpt lat="44.23648" lon="5.39428">
        <ele>983</ele>
        <time>2026-05-13T15:32:04.000Z</time>
      </trkpt>
      <trkpt lat="44.23649" lon="5.39428">
        <ele>983</ele>
        <time>2026-05-13T15:32:05.000Z</time>
      </trkpt>
      <trkpt lat="44.2365" lon="5.39427">
        <ele>984</ele>
        <time>2026-05-13T15:32:06.000Z</time>
      </trkpt>
      <trkpt lat="44.23651" lon="5.39426">
        <ele>983</ele>
        <time>2026-05-13T15:32:07.000Z</time>
      </trkpt>
      <trkpt lat="44.23652" lon="5.39425">
        <ele>982</ele>
        <time>2026-05-13T15:32:08.000Z</time>
      </trkpt>
      <trkpt lat="44.23652" lon="5.39424">
        <ele>982</ele>
        <time>2026-05-13T15:32:09.000Z</time>
      </trkpt>
      <trkpt lat="44.23653" lon="5.39423">
        <ele>981</ele>
        <time>2026-05-13T15:32:10.000Z</time>
      </trkpt>
      <trkpt lat="44.23653" lon="5.39422">
        <ele>981</ele>
        <time>2026-05-13T15:32:11.000Z</time>
      </trkpt>
      <trkpt lat="44.23655" lon="5.39421">
        <ele>981</ele>
        <time>2026-05-13T15:32:12.000Z</time>
      </trkpt>
      <trkpt lat="44.23656" lon="5.3942">
        <ele>981</ele>
        <time>2026-05-13T15:32:13.000Z</time>
      </trkpt>
      <trkpt lat="44.23657" lon="5.39419">
        <ele>982</ele>
        <time>2026-05-13T15:32:14.000Z</time>
      </trkpt>
      <trkpt lat="44.23658" lon="5.39418">
        <ele>983</ele>
        <time>2026-05-13T15:32:15.000Z</time>
      </trkpt>
      <trkpt lat="44.23659" lon="5.39417">
        <ele>983</ele>
        <time>2026-05-13T15:32:16.000Z</time>
      </trkpt>
      <trkpt lat="44.23659" lon="5.39417">
        <ele>982</ele>
        <time>2026-05-13T15:32:17.000Z</time>
      </trkpt>
      <trkpt lat="44.2366" lon="5.39416">
        <ele>983</ele>
        <time>2026-05-13T15:32:18.000Z</time>
      </trkpt>
      <trkpt lat="44.23662" lon="5.39415">
        <ele>983</ele>
        <time>2026-05-13T15:32:19.000Z</time>
      </trkpt>
      <trkpt lat="44.23663" lon="5.39415">
        <ele>984</ele>
        <time>2026-05-13T15:32:20.000Z</time>
      </trkpt>
      <trkpt lat="44.23664" lon="5.39415">
        <ele>983</ele>
        <time>2026-05-13T15:32:21.000Z</time>
      </trkpt>
      <trkpt lat="44.23665" lon="5.39415">
        <ele>983</ele>
        <time>2026-05-13T15:32:22.000Z</time>
      </trkpt>
      <trkpt lat="44.23665" lon="5.39415">
        <ele>983</ele>
        <time>2026-05-13T15:32:23.000Z</time>
      </trkpt>
      <trkpt lat="44.23666" lon="5.39415">
        <ele>983</ele>
        <time>2026-05-13T15:32:24.000Z</time>
      </trkpt>
      <trkpt lat="44.23666" lon="5.39414">
        <ele>984</ele>
        <time>2026-05-13T15:32:25.000Z</time>
      </trkpt>
      <trkpt lat="44.23667" lon="5.39414">
        <ele>983</ele>
        <time>2026-05-13T15:32:26.000Z</time>
      </trkpt>
      <trkpt lat="44.23669" lon="5.39414">
        <ele>984</ele>
        <time>2026-05-13T15:32:27.000Z</time>
      </trkpt>
      <trkpt lat="44.23669" lon="5.39413">
        <ele>985</ele>
        <time>2026-05-13T15:32:28.000Z</time>
      </trkpt>
      <trkpt lat="44.2367" lon="5.39413">
        <ele>985</ele>
        <time>2026-05-13T15:32:29.000Z</time>
      </trkpt>
      <trkpt lat="44.23671" lon="5.39412">
        <ele>985</ele>
        <time>2026-05-13T15:32:30.000Z</time>
      </trkpt>
      <trkpt lat="44.23672" lon="5.39411">
        <ele>986</ele>
        <time>2026-05-13T15:32:31.000Z</time>
      </trkpt>
      <trkpt lat="44.23672" lon="5.39411">
        <ele>985</ele>
        <time>2026-05-13T15:32:32.000Z</time>
      </trkpt>
      <trkpt lat="44.23673" lon="5.3941">
        <ele>986</ele>
        <time>2026-05-13T15:32:33.000Z</time>
      </trkpt>
      <trkpt lat="44.23674" lon="5.39409">
        <ele>986</ele>
        <time>2026-05-13T15:32:34.000Z</time>
      </trkpt>
      <trkpt lat="44.23675" lon="5.39408">
        <ele>986</ele>
        <time>2026-05-13T15:32:35.000Z</time>
      </trkpt>
      <trkpt lat="44.23675" lon="5.39408">
        <ele>986</ele>
        <time>2026-05-13T15:32:36.000Z</time>
      </trkpt>
      <trkpt lat="44.23676" lon="5.39408">
        <ele>987</ele>
        <time>2026-05-13T15:32:37.000Z</time>
      </trkpt>
      <trkpt lat="44.23677" lon="5.39408">
        <ele>986</ele>
        <time>2026-05-13T15:32:38.000Z</time>
      </trkpt>
      <trkpt lat="44.23678" lon="5.39408">
        <ele>986</ele>
        <time>2026-05-13T15:32:39.000Z</time>
      </trkpt>
      <trkpt lat="44.23679" lon="5.39408">
        <ele>986</ele>
        <time>2026-05-13T15:32:40.000Z</time>
      </trkpt>
      <trkpt lat="44.2368" lon="5.39409">
        <ele>986</ele>
        <time>2026-05-13T15:32:41.000Z</time>
      </trkpt>
      <trkpt lat="44.2368" lon="5.39408">
        <ele>987</ele>
        <time>2026-05-13T15:32:42.000Z</time>
      </trkpt>
      <trkpt lat="44.23682" lon="5.39409">
        <ele>987</ele>
        <time>2026-05-13T15:32:43.000Z</time>
      </trkpt>
      <trkpt lat="44.23683" lon="5.39409">
        <ele>988</ele>
        <time>2026-05-13T15:32:44.000Z</time>
      </trkpt>
      <trkpt lat="44.23684" lon="5.39408">
        <ele>988</ele>
        <time>2026-05-13T15:32:45.000Z</time>
      </trkpt>
      <trkpt lat="44.23685" lon="5.39408">
        <ele>988</ele>
        <time>2026-05-13T15:32:46.000Z</time>
      </trkpt>
      <trkpt lat="44.23686" lon="5.39407">
        <ele>989</ele>
        <time>2026-05-13T15:32:47.000Z</time>
      </trkpt>
      <trkpt lat="44.23686" lon="5.39406">
        <ele>989</ele>
        <time>2026-05-13T15:32:48.000Z</time>
      </trkpt>
      <trkpt lat="44.23687" lon="5.39405">
        <ele>988</ele>
        <time>2026-05-13T15:32:49.000Z</time>
      </trkpt>
      <trkpt lat="44.23688" lon="5.39405">
        <ele>988</ele>
        <time>2026-05-13T15:32:50.000Z</time>
      </trkpt>
      <trkpt lat="44.23689" lon="5.39403">
        <ele>988</ele>
        <time>2026-05-13T15:32:51.000Z</time>
      </trkpt>
      <trkpt lat="44.2369" lon="5.39402">
        <ele>988</ele>
        <time>2026-05-13T15:32:52.000Z</time>
      </trkpt>
      <trkpt lat="44.23691" lon="5.39401">
        <ele>988</ele>
        <time>2026-05-13T15:32:53.000Z</time>
      </trkpt>
      <trkpt lat="44.23692" lon="5.39401">
        <ele>989</ele>
        <time>2026-05-13T15:32:54.000Z</time>
      </trkpt>
      <trkpt lat="44.23692" lon="5.39401">
        <ele>988</ele>
        <time>2026-05-13T15:32:55.000Z</time>
      </trkpt>
      <trkpt lat="44.23693" lon="5.39402">
        <ele>988</ele>
        <time>2026-05-13T15:32:56.000Z</time>
      </trkpt>
      <trkpt lat="44.23694" lon="5.39401">
        <ele>988</ele>
        <time>2026-05-13T15:32:57.000Z</time>
      </trkpt>
      <trkpt lat="44.23694" lon="5.39401">
        <ele>989</ele>
        <time>2026-05-13T15:32:58.000Z</time>
      </trkpt>
      <trkpt lat="44.23694" lon="5.394">
        <ele>988</ele>
        <time>2026-05-13T15:32:59.000Z</time>
      </trkpt>
      <trkpt lat="44.23695" lon="5.394">
        <ele>988</ele>
        <time>2026-05-13T15:33:00.000Z</time>
      </trkpt>
      <trkpt lat="44.23696" lon="5.39399">
        <ele>988</ele>
        <time>2026-05-13T15:33:01.000Z</time>
      </trkpt>
      <trkpt lat="44.23697" lon="5.39398">
        <ele>989</ele>
        <time>2026-05-13T15:33:02.000Z</time>
      </trkpt>
      <trkpt lat="44.23697" lon="5.39398">
        <ele>989</ele>
        <time>2026-05-13T15:33:03.000Z</time>
      </trkpt>
      <trkpt lat="44.23698" lon="5.39396">
        <ele>989</ele>
        <time>2026-05-13T15:33:04.000Z</time>
      </trkpt>
      <trkpt lat="44.23698" lon="5.39395">
        <ele>989</ele>
        <time>2026-05-13T15:33:05.000Z</time>
      </trkpt>
      <trkpt lat="44.23698" lon="5.39393">
        <ele>989</ele>
        <time>2026-05-13T15:33:06.000Z</time>
      </trkpt>
      <trkpt lat="44.23699" lon="5.39392">
        <ele>989</ele>
        <time>2026-05-13T15:33:07.000Z</time>
      </trkpt>
      <trkpt lat="44.23699" lon="5.39391">
        <ele>990</ele>
        <time>2026-05-13T15:33:08.000Z</time>
      </trkpt>
      <trkpt lat="44.237" lon="5.39391">
        <ele>989</ele>
        <time>2026-05-13T15:33:09.000Z</time>
      </trkpt>
      <trkpt lat="44.23701" lon="5.39391">
        <ele>990</ele>
        <time>2026-05-13T15:33:10.000Z</time>
      </trkpt>
      <trkpt lat="44.23701" lon="5.3939">
        <ele>990</ele>
        <time>2026-05-13T15:33:11.000Z</time>
      </trkpt>
      <trkpt lat="44.23701" lon="5.39388">
        <ele>990</ele>
        <time>2026-05-13T15:33:12.000Z</time>
      </trkpt>
      <trkpt lat="44.23702" lon="5.39387">
        <ele>990</ele>
        <time>2026-05-13T15:33:13.000Z</time>
      </trkpt>
      <trkpt lat="44.23702" lon="5.39387">
        <ele>991</ele>
        <time>2026-05-13T15:33:14.000Z</time>
      </trkpt>
      <trkpt lat="44.23703" lon="5.39385">
        <ele>991</ele>
        <time>2026-05-13T15:33:15.000Z</time>
      </trkpt>
      <trkpt lat="44.23703" lon="5.39384">
        <ele>991</ele>
        <time>2026-05-13T15:33:16.000Z</time>
      </trkpt>
      <trkpt lat="44.23703" lon="5.39383">
        <ele>991</ele>
        <time>2026-05-13T15:33:17.000Z</time>
      </trkpt>
      <trkpt lat="44.23703" lon="5.39382">
        <ele>992</ele>
        <time>2026-05-13T15:33:18.000Z</time>
      </trkpt>
      <trkpt lat="44.23703" lon="5.39382">
        <ele>992</ele>
        <time>2026-05-13T15:33:19.000Z</time>
      </trkpt>
      <trkpt lat="44.23703" lon="5.39382">
        <ele>992</ele>
        <time>2026-05-13T15:33:20.000Z</time>
      </trkpt>
      <trkpt lat="44.23702" lon="5.39382">
        <ele>992</ele>
        <time>2026-05-13T15:33:21.000Z</time>
      </trkpt>
      <trkpt lat="44.23703" lon="5.39382">
        <ele>992</ele>
        <time>2026-05-13T15:33:22.000Z</time>
      </trkpt>
      <trkpt lat="44.23703" lon="5.39383">
        <ele>993</ele>
        <time>2026-05-13T15:33:23.000Z</time>
      </trkpt>
      <trkpt lat="44.23705" lon="5.39383">
        <ele>993</ele>
        <time>2026-05-13T15:33:24.000Z</time>
      </trkpt>
      <trkpt lat="44.23705" lon="5.39382">
        <ele>994</ele>
        <time>2026-05-13T15:33:25.000Z</time>
      </trkpt>
      <trkpt lat="44.23706" lon="5.39382">
        <ele>993</ele>
        <time>2026-05-13T15:33:26.000Z</time>
      </trkpt>
      <trkpt lat="44.23707" lon="5.39382">
        <ele>993</ele>
        <time>2026-05-13T15:33:27.000Z</time>
      </trkpt>
      <trkpt lat="44.23708" lon="5.39381">
        <ele>992</ele>
        <time>2026-05-13T15:33:28.000Z</time>
      </trkpt>
      <trkpt lat="44.23709" lon="5.3938">
        <ele>992</ele>
        <time>2026-05-13T15:33:29.000Z</time>
      </trkpt>
      <trkpt lat="44.2371" lon="5.39381">
        <ele>992</ele>
        <time>2026-05-13T15:33:30.000Z</time>
      </trkpt>
      <trkpt lat="44.23711" lon="5.39381">
        <ele>992</ele>
        <time>2026-05-13T15:33:31.000Z</time>
      </trkpt>
      <trkpt lat="44.23712" lon="5.39382">
        <ele>993</ele>
        <time>2026-05-13T15:33:32.000Z</time>
      </trkpt>
      <trkpt lat="44.23712" lon="5.39383">
        <ele>994</ele>
        <time>2026-05-13T15:33:33.000Z</time>
      </trkpt>
      <trkpt lat="44.23713" lon="5.39385">
        <ele>994</ele>
        <time>2026-05-13T15:33:34.000Z</time>
      </trkpt>
      <trkpt lat="44.23714" lon="5.39385">
        <ele>993</ele>
        <time>2026-05-13T15:33:35.000Z</time>
      </trkpt>
      <trkpt lat="44.23715" lon="5.39385">
        <ele>992</ele>
        <time>2026-05-13T15:33:36.000Z</time>
      </trkpt>
      <trkpt lat="44.23716" lon="5.39384">
        <ele>992</ele>
        <time>2026-05-13T15:33:37.000Z</time>
      </trkpt>
      <trkpt lat="44.23716" lon="5.39382">
        <ele>992</ele>
        <time>2026-05-13T15:33:38.000Z</time>
      </trkpt>
      <trkpt lat="44.23717" lon="5.39381">
        <ele>991</ele>
        <time>2026-05-13T15:33:39.000Z</time>
      </trkpt>
      <trkpt lat="44.23716" lon="5.3938">
        <ele>991</ele>
        <time>2026-05-13T15:33:40.000Z</time>
      </trkpt>
      <trkpt lat="44.23716" lon="5.39378">
        <ele>992</ele>
        <time>2026-05-13T15:33:41.000Z</time>
      </trkpt>
      <trkpt lat="44.23716" lon="5.39377">
        <ele>992</ele>
        <time>2026-05-13T15:33:42.000Z</time>
      </trkpt>
      <trkpt lat="44.23716" lon="5.39377">
        <ele>993</ele>
        <time>2026-05-13T15:33:43.000Z</time>
      </trkpt>
      <trkpt lat="44.23717" lon="5.39376">
        <ele>993</ele>
        <time>2026-05-13T15:33:44.000Z</time>
      </trkpt>
      <trkpt lat="44.23718" lon="5.39375">
        <ele>992</ele>
        <time>2026-05-13T15:33:45.000Z</time>
      </trkpt>
      <trkpt lat="44.23718" lon="5.39375">
        <ele>992</ele>
        <time>2026-05-13T15:33:46.000Z</time>
      </trkpt>
      <trkpt lat="44.23719" lon="5.39375">
        <ele>993</ele>
        <time>2026-05-13T15:33:47.000Z</time>
      </trkpt>
      <trkpt lat="44.2372" lon="5.39374">
        <ele>993</ele>
        <time>2026-05-13T15:33:48.000Z</time>
      </trkpt>
      <trkpt lat="44.23721" lon="5.39374">
        <ele>993</ele>
        <time>2026-05-13T15:33:49.000Z</time>
      </trkpt>
      <trkpt lat="44.23722" lon="5.39372">
        <ele>993</ele>
        <time>2026-05-13T15:33:50.000Z</time>
      </trkpt>
      <trkpt lat="44.23722" lon="5.39371">
        <ele>993</ele>
        <time>2026-05-13T15:33:51.000Z</time>
      </trkpt>
      <trkpt lat="44.23723" lon="5.39371">
        <ele>993</ele>
        <time>2026-05-13T15:33:52.000Z</time>
      </trkpt>
      <trkpt lat="44.23724" lon="5.3937">
        <ele>993</ele>
        <time>2026-05-13T15:33:53.000Z</time>
      </trkpt>
      <trkpt lat="44.23724" lon="5.39369">
        <ele>994</ele>
        <time>2026-05-13T15:33:54.000Z</time>
      </trkpt>
      <trkpt lat="44.23725" lon="5.39368">
        <ele>994</ele>
        <time>2026-05-13T15:33:55.000Z</time>
      </trkpt>
      <trkpt lat="44.23725" lon="5.39367">
        <ele>995</ele>
        <time>2026-05-13T15:33:56.000Z</time>
      </trkpt>
      <trkpt lat="44.23726" lon="5.39365">
        <ele>995</ele>
        <time>2026-05-13T15:33:57.000Z</time>
      </trkpt>
      <trkpt lat="44.23726" lon="5.39365">
        <ele>995</ele>
        <time>2026-05-13T15:33:58.000Z</time>
      </trkpt>
      <trkpt lat="44.23727" lon="5.39363">
        <ele>995</ele>
        <time>2026-05-13T15:33:59.000Z</time>
      </trkpt>
      <trkpt lat="44.23727" lon="5.39363">
        <ele>995</ele>
        <time>2026-05-13T15:34:00.000Z</time>
      </trkpt>
      <trkpt lat="44.23728" lon="5.39362">
        <ele>996</ele>
        <time>2026-05-13T15:34:01.000Z</time>
      </trkpt>
      <trkpt lat="44.23729" lon="5.39361">
        <ele>995</ele>
        <time>2026-05-13T15:34:02.000Z</time>
      </trkpt>
      <trkpt lat="44.23729" lon="5.3936">
        <ele>995</ele>
        <time>2026-05-13T15:34:03.000Z</time>
      </trkpt>
      <trkpt lat="44.2373" lon="5.39359">
        <ele>996</ele>
        <time>2026-05-13T15:34:04.000Z</time>
      </trkpt>
      <trkpt lat="44.2373" lon="5.39358">
        <ele>996</ele>
        <time>2026-05-13T15:34:05.000Z</time>
      </trkpt>
      <trkpt lat="44.2373" lon="5.39357">
        <ele>996</ele>
        <time>2026-05-13T15:34:06.000Z</time>
      </trkpt>
      <trkpt lat="44.23731" lon="5.39355">
        <ele>996</ele>
        <time>2026-05-13T15:34:07.000Z</time>
      </trkpt>
      <trkpt lat="44.23732" lon="5.39354">
        <ele>996</ele>
        <time>2026-05-13T15:34:08.000Z</time>
      </trkpt>
      <trkpt lat="44.23732" lon="5.39353">
        <ele>996</ele>
        <time>2026-05-13T15:34:09.000Z</time>
      </trkpt>
      <trkpt lat="44.23733" lon="5.39352">
        <ele>996</ele>
        <time>2026-05-13T15:34:10.000Z</time>
      </trkpt>
      <trkpt lat="44.23734" lon="5.39351">
        <ele>996</ele>
        <time>2026-05-13T15:34:11.000Z</time>
      </trkpt>
      <trkpt lat="44.23734" lon="5.39349">
        <ele>996</ele>
        <time>2026-05-13T15:34:12.000Z</time>
      </trkpt>
      <trkpt lat="44.23735" lon="5.39347">
        <ele>996</ele>
        <time>2026-05-13T15:34:13.000Z</time>
      </trkpt>
      <trkpt lat="44.23736" lon="5.39346">
        <ele>996</ele>
        <time>2026-05-13T15:34:14.000Z</time>
      </trkpt>
      <trkpt lat="44.23737" lon="5.39345">
        <ele>996</ele>
        <time>2026-05-13T15:34:15.000Z</time>
      </trkpt>
      <trkpt lat="44.23737" lon="5.39344">
        <ele>996</ele>
        <time>2026-05-13T15:34:16.000Z</time>
      </trkpt>
      <trkpt lat="44.23738" lon="5.39342">
        <ele>996</ele>
        <time>2026-05-13T15:34:17.000Z</time>
      </trkpt>
      <trkpt lat="44.2374" lon="5.39342">
        <ele>996</ele>
        <time>2026-05-13T15:34:18.000Z</time>
      </trkpt>
      <trkpt lat="44.2374" lon="5.39341">
        <ele>996</ele>
        <time>2026-05-13T15:34:19.000Z</time>
      </trkpt>
      <trkpt lat="44.23741" lon="5.3934">
        <ele>997</ele>
        <time>2026-05-13T15:34:20.000Z</time>
      </trkpt>
      <trkpt lat="44.23742" lon="5.39339">
        <ele>998</ele>
        <time>2026-05-13T15:34:21.000Z</time>
      </trkpt>
      <trkpt lat="44.23742" lon="5.39338">
        <ele>998</ele>
        <time>2026-05-13T15:34:22.000Z</time>
      </trkpt>
      <trkpt lat="44.23743" lon="5.39337">
        <ele>998</ele>
        <time>2026-05-13T15:34:23.000Z</time>
      </trkpt>
      <trkpt lat="44.23744" lon="5.39336">
        <ele>997</ele>
        <time>2026-05-13T15:34:24.000Z</time>
      </trkpt>
      <trkpt lat="44.23745" lon="5.39335">
        <ele>997</ele>
        <time>2026-05-13T15:34:25.000Z</time>
      </trkpt>
      <trkpt lat="44.23745" lon="5.39334">
        <ele>997</ele>
        <time>2026-05-13T15:34:26.000Z</time>
      </trkpt>
      <trkpt lat="44.23746" lon="5.39333">
        <ele>997</ele>
        <time>2026-05-13T15:34:27.000Z</time>
      </trkpt>
      <trkpt lat="44.23747" lon="5.39332">
        <ele>997</ele>
        <time>2026-05-13T15:34:28.000Z</time>
      </trkpt>
      <trkpt lat="44.23748" lon="5.39331">
        <ele>997</ele>
        <time>2026-05-13T15:34:29.000Z</time>
      </trkpt>
      <trkpt lat="44.23748" lon="5.3933">
        <ele>998</ele>
        <time>2026-05-13T15:34:30.000Z</time>
      </trkpt>
      <trkpt lat="44.23749" lon="5.39328">
        <ele>998</ele>
        <time>2026-05-13T15:34:31.000Z</time>
      </trkpt>
      <trkpt lat="44.2375" lon="5.39328">
        <ele>998</ele>
        <time>2026-05-13T15:34:32.000Z</time>
      </trkpt>
      <trkpt lat="44.2375" lon="5.39327">
        <ele>998</ele>
        <time>2026-05-13T15:34:33.000Z</time>
      </trkpt>
      <trkpt lat="44.23751" lon="5.39326">
        <ele>998</ele>
        <time>2026-05-13T15:34:34.000Z</time>
      </trkpt>
      <trkpt lat="44.23751" lon="5.39325">
        <ele>999</ele>
        <time>2026-05-13T15:34:35.000Z</time>
      </trkpt>
      <trkpt lat="44.2375" lon="5.39324">
        <ele>999</ele>
        <time>2026-05-13T15:34:36.000Z</time>
      </trkpt>
      <trkpt lat="44.2375" lon="5.39323">
        <ele>999</ele>
        <time>2026-05-13T15:34:37.000Z</time>
      </trkpt>
      <trkpt lat="44.23749" lon="5.39323">
        <ele>999</ele>
        <time>2026-05-13T15:34:38.000Z</time>
      </trkpt>
      <trkpt lat="44.23748" lon="5.39324">
        <ele>998</ele>
        <time>2026-05-13T15:34:39.000Z</time>
      </trkpt>
      <trkpt lat="44.23748" lon="5.39324">
        <ele>998</ele>
        <time>2026-05-13T15:34:40.000Z</time>
      </trkpt>
      <trkpt lat="44.23747" lon="5.39325">
        <ele>997</ele>
        <time>2026-05-13T15:34:41.000Z</time>
      </trkpt>
      <trkpt lat="44.23747" lon="5.39325">
        <ele>997</ele>
        <time>2026-05-13T15:34:42.000Z</time>
      </trkpt>
      <trkpt lat="44.23747" lon="5.39325">
        <ele>996</ele>
        <time>2026-05-13T15:34:43.000Z</time>
      </trkpt>
      <trkpt lat="44.23746" lon="5.39325">
        <ele>996</ele>
        <time>2026-05-13T15:34:44.000Z</time>
      </trkpt>
      <trkpt lat="44.23746" lon="5.39325">
        <ele>997</ele>
        <time>2026-05-13T15:34:45.000Z</time>
      </trkpt>
      <trkpt lat="44.23745" lon="5.39325">
        <ele>998</ele>
        <time>2026-05-13T15:34:46.000Z</time>
      </trkpt>
      <trkpt lat="44.23745" lon="5.39324">
        <ele>998</ele>
        <time>2026-05-13T15:34:47.000Z</time>
      </trkpt>
      <trkpt lat="44.23744" lon="5.39323">
        <ele>999</ele>
        <time>2026-05-13T15:34:48.000Z</time>
      </trkpt>
      <trkpt lat="44.23743" lon="5.39322">
        <ele>999</ele>
        <time>2026-05-13T15:34:49.000Z</time>
      </trkpt>
      <trkpt lat="44.23743" lon="5.3932">
        <ele>1000</ele>
        <time>2026-05-13T15:34:50.000Z</time>
      </trkpt>
      <trkpt lat="44.23742" lon="5.39319">
        <ele>1000</ele>
        <time>2026-05-13T15:34:51.000Z</time>
      </trkpt>
      <trkpt lat="44.23742" lon="5.39318">
        <ele>1000</ele>
        <time>2026-05-13T15:34:52.000Z</time>
      </trkpt>
      <trkpt lat="44.23742" lon="5.39317">
        <ele>1001</ele>
        <time>2026-05-13T15:34:53.000Z</time>
      </trkpt>
      <trkpt lat="44.23742" lon="5.39316">
        <ele>1001</ele>
        <time>2026-05-13T15:34:54.000Z</time>
      </trkpt>
      <trkpt lat="44.23742" lon="5.39316">
        <ele>1001</ele>
        <time>2026-05-13T15:34:55.000Z</time>
      </trkpt>
      <trkpt lat="44.23741" lon="5.39315">
        <ele>1001</ele>
        <time>2026-05-13T15:34:56.000Z</time>
      </trkpt>
      <trkpt lat="44.23741" lon="5.39314">
        <ele>1001</ele>
        <time>2026-05-13T15:34:57.000Z</time>
      </trkpt>
      <trkpt lat="44.23741" lon="5.39313">
        <ele>1001</ele>
        <time>2026-05-13T15:34:58.000Z</time>
      </trkpt>
      <trkpt lat="44.2374" lon="5.39312">
        <ele>1000</ele>
        <time>2026-05-13T15:34:59.000Z</time>
      </trkpt>
      <trkpt lat="44.2374" lon="5.39311">
        <ele>1001</ele>
        <time>2026-05-13T15:35:00.000Z</time>
      </trkpt>
      <trkpt lat="44.23739" lon="5.39311">
        <ele>1000</ele>
        <time>2026-05-13T15:35:01.000Z</time>
      </trkpt>
      <trkpt lat="44.23738" lon="5.3931">
        <ele>1000</ele>
        <time>2026-05-13T15:35:02.000Z</time>
      </trkpt>
      <trkpt lat="44.23738" lon="5.3931">
        <ele>1001</ele>
        <time>2026-05-13T15:35:03.000Z</time>
      </trkpt>
      <trkpt lat="44.23738" lon="5.39309">
        <ele>1001</ele>
        <time>2026-05-13T15:35:04.000Z</time>
      </trkpt>
      <trkpt lat="44.23737" lon="5.39308">
        <ele>1001</ele>
        <time>2026-05-13T15:35:05.000Z</time>
      </trkpt>
      <trkpt lat="44.23737" lon="5.39307">
        <ele>1001</ele>
        <time>2026-05-13T15:35:06.000Z</time>
      </trkpt>
      <trkpt lat="44.23736" lon="5.39307">
        <ele>1001</ele>
        <time>2026-05-13T15:35:07.000Z</time>
      </trkpt>
      <trkpt lat="44.23736" lon="5.39306">
        <ele>1001</ele>
        <time>2026-05-13T15:35:08.000Z</time>
      </trkpt>
      <trkpt lat="44.23735" lon="5.39305">
        <ele>1002</ele>
        <time>2026-05-13T15:35:09.000Z</time>
      </trkpt>
      <trkpt lat="44.23735" lon="5.39304">
        <ele>1003</ele>
        <time>2026-05-13T15:35:10.000Z</time>
      </trkpt>
      <trkpt lat="44.23735" lon="5.39303">
        <ele>1003</ele>
        <time>2026-05-13T15:35:11.000Z</time>
      </trkpt>
      <trkpt lat="44.23734" lon="5.39302">
        <ele>1004</ele>
        <time>2026-05-13T15:35:12.000Z</time>
      </trkpt>
      <trkpt lat="44.23734" lon="5.39302">
        <ele>1005</ele>
        <time>2026-05-13T15:35:13.000Z</time>
      </trkpt>
      <trkpt lat="44.23733" lon="5.39302">
        <ele>1005</ele>
        <time>2026-05-13T15:35:14.000Z</time>
      </trkpt>
      <trkpt lat="44.23732" lon="5.39301">
        <ele>1005</ele>
        <time>2026-05-13T15:35:15.000Z</time>
      </trkpt>
      <trkpt lat="44.23732" lon="5.393">
        <ele>1005</ele>
        <time>2026-05-13T15:35:16.000Z</time>
      </trkpt>
      <trkpt lat="44.23731" lon="5.39299">
        <ele>1006</ele>
        <time>2026-05-13T15:35:17.000Z</time>
      </trkpt>
      <trkpt lat="44.2373" lon="5.39298">
        <ele>1005</ele>
        <time>2026-05-13T15:35:18.000Z</time>
      </trkpt>
      <trkpt lat="44.2373" lon="5.39297">
        <ele>1005</ele>
        <time>2026-05-13T15:35:19.000Z</time>
      </trkpt>
      <trkpt lat="44.23729" lon="5.39297">
        <ele>1006</ele>
        <time>2026-05-13T15:35:20.000Z</time>
      </trkpt>
      <trkpt lat="44.23728" lon="5.39296">
        <ele>1005</ele>
        <time>2026-05-13T15:35:21.000Z</time>
      </trkpt>
      <trkpt lat="44.23728" lon="5.39295">
        <ele>1005</ele>
        <time>2026-05-13T15:35:22.000Z</time>
      </trkpt>
      <trkpt lat="44.23727" lon="5.39294">
        <ele>1004</ele>
        <time>2026-05-13T15:35:23.000Z</time>
      </trkpt>
      <trkpt lat="44.23727" lon="5.39293">
        <ele>1005</ele>
        <time>2026-05-13T15:35:24.000Z</time>
      </trkpt>
      <trkpt lat="44.23726" lon="5.39293">
        <ele>1005</ele>
        <time>2026-05-13T15:35:25.000Z</time>
      </trkpt>
      <trkpt lat="44.23725" lon="5.39291">
        <ele>1005</ele>
        <time>2026-05-13T15:35:26.000Z</time>
      </trkpt>
      <trkpt lat="44.23724" lon="5.3929">
        <ele>1005</ele>
        <time>2026-05-13T15:35:27.000Z</time>
      </trkpt>
      <trkpt lat="44.23723" lon="5.39289">
        <ele>1004</ele>
        <time>2026-05-13T15:35:28.000Z</time>
      </trkpt>
      <trkpt lat="44.23723" lon="5.3929">
        <ele>1004</ele>
        <time>2026-05-13T15:35:29.000Z</time>
      </trkpt>
      <trkpt lat="44.23722" lon="5.3929">
        <ele>1004</ele>
        <time>2026-05-13T15:35:30.000Z</time>
      </trkpt>
      <trkpt lat="44.23721" lon="5.3929">
        <ele>1004</ele>
        <time>2026-05-13T15:35:31.000Z</time>
      </trkpt>
      <trkpt lat="44.2372" lon="5.3929">
        <ele>1003</ele>
        <time>2026-05-13T15:35:32.000Z</time>
      </trkpt>
      <trkpt lat="44.23719" lon="5.3929">
        <ele>1003</ele>
        <time>2026-05-13T15:35:33.000Z</time>
      </trkpt>
      <trkpt lat="44.23719" lon="5.39289">
        <ele>1002</ele>
        <time>2026-05-13T15:35:34.000Z</time>
      </trkpt>
      <trkpt lat="44.23717" lon="5.39288">
        <ele>1002</ele>
        <time>2026-05-13T15:35:35.000Z</time>
      </trkpt>
      <trkpt lat="44.23715" lon="5.39288">
        <ele>1002</ele>
        <time>2026-05-13T15:35:36.000Z</time>
      </trkpt>
      <trkpt lat="44.23713" lon="5.39288">
        <ele>1003</ele>
        <time>2026-05-13T15:35:37.000Z</time>
      </trkpt>
      <trkpt lat="44.23711" lon="5.39288">
        <ele>1003</ele>
        <time>2026-05-13T15:35:38.000Z</time>
      </trkpt>
      <trkpt lat="44.23708" lon="5.3929">
        <ele>1003</ele>
        <time>2026-05-13T15:35:39.000Z</time>
      </trkpt>
      <trkpt lat="44.23705" lon="5.39289">
        <ele>1002</ele>
        <time>2026-05-13T15:35:40.000Z</time>
      </trkpt>
      <trkpt lat="44.23702" lon="5.39289">
        <ele>1002</ele>
        <time>2026-05-13T15:35:41.000Z</time>
      </trkpt>
      <trkpt lat="44.23699" lon="5.39288">
        <ele>1002</ele>
        <time>2026-05-13T15:35:42.000Z</time>
      </trkpt>
      <trkpt lat="44.23695" lon="5.39288">
        <ele>1003</ele>
        <time>2026-05-13T15:35:43.000Z</time>
      </trkpt>
      <trkpt lat="44.23693" lon="5.39286">
        <ele>1002</ele>
        <time>2026-05-13T15:35:44.000Z</time>
      </trkpt>
      <trkpt lat="44.23691" lon="5.39283">
        <ele>1001</ele>
        <time>2026-05-13T15:35:45.000Z</time>
      </trkpt>
      <trkpt lat="44.23689" lon="5.39282">
        <ele>1001</ele>
        <time>2026-05-13T15:35:46.000Z</time>
      </trkpt>
      <trkpt lat="44.23687" lon="5.39283">
        <ele>1002</ele>
        <time>2026-05-13T15:35:47.000Z</time>
      </trkpt>
      <trkpt lat="44.23685" lon="5.39283">
        <ele>1002</ele>
        <time>2026-05-13T15:35:48.000Z</time>
      </trkpt>
      <trkpt lat="44.23684" lon="5.39283">
        <ele>1002</ele>
        <time>2026-05-13T15:35:49.000Z</time>
      </trkpt>
      <trkpt lat="44.23682" lon="5.39283">
        <ele>1002</ele>
        <time>2026-05-13T15:35:50.000Z</time>
      </trkpt>
      <trkpt lat="44.2368" lon="5.39282">
        <ele>1002</ele>
        <time>2026-05-13T15:35:51.000Z</time>
      </trkpt>
      <trkpt lat="44.23679" lon="5.39281">
        <ele>1002</ele>
        <time>2026-05-13T15:35:52.000Z</time>
      </trkpt>
      <trkpt lat="44.23677" lon="5.39281">
        <ele>1002</ele>
        <time>2026-05-13T15:35:53.000Z</time>
      </trkpt>
      <trkpt lat="44.23676" lon="5.3928">
        <ele>1003</ele>
        <time>2026-05-13T15:35:54.000Z</time>
      </trkpt>
      <trkpt lat="44.23675" lon="5.39279">
        <ele>1003</ele>
        <time>2026-05-13T15:35:55.000Z</time>
      </trkpt>
      <trkpt lat="44.23673" lon="5.39279">
        <ele>1003</ele>
        <time>2026-05-13T15:35:56.000Z</time>
      </trkpt>
      <trkpt lat="44.23671" lon="5.39278">
        <ele>1004</ele>
        <time>2026-05-13T15:35:57.000Z</time>
      </trkpt>
      <trkpt lat="44.2367" lon="5.39277">
        <ele>1004</ele>
        <time>2026-05-13T15:35:58.000Z</time>
      </trkpt>
      <trkpt lat="44.23669" lon="5.39276">
        <ele>1004</ele>
        <time>2026-05-13T15:35:59.000Z</time>
      </trkpt>
      <trkpt lat="44.23667" lon="5.39275">
        <ele>1004</ele>
        <time>2026-05-13T15:36:00.000Z</time>
      </trkpt>
      <trkpt lat="44.23666" lon="5.39273">
        <ele>1004</ele>
        <time>2026-05-13T15:36:01.000Z</time>
      </trkpt>
      <trkpt lat="44.23665" lon="5.39273">
        <ele>1004</ele>
        <time>2026-05-13T15:36:02.000Z</time>
      </trkpt>
      <trkpt lat="44.23664" lon="5.39272">
        <ele>1004</ele>
        <time>2026-05-13T15:36:03.000Z</time>
      </trkpt>
      <trkpt lat="44.23662" lon="5.39271">
        <ele>1004</ele>
        <time>2026-05-13T15:36:04.000Z</time>
      </trkpt>
      <trkpt lat="44.23661" lon="5.3927">
        <ele>1005</ele>
        <time>2026-05-13T15:36:05.000Z</time>
      </trkpt>
      <trkpt lat="44.2366" lon="5.39269">
        <ele>1005</ele>
        <time>2026-05-13T15:36:06.000Z</time>
      </trkpt>
      <trkpt lat="44.23659" lon="5.39268">
        <ele>1005</ele>
        <time>2026-05-13T15:36:07.000Z</time>
      </trkpt>
      <trkpt lat="44.23658" lon="5.39267">
        <ele>1005</ele>
        <time>2026-05-13T15:36:08.000Z</time>
      </trkpt>
      <trkpt lat="44.23658" lon="5.39267">
        <ele>1004</ele>
        <time>2026-05-13T15:36:09.000Z</time>
      </trkpt>
      <trkpt lat="44.23658" lon="5.39266">
        <ele>1004</ele>
        <time>2026-05-13T15:36:10.000Z</time>
      </trkpt>
      <trkpt lat="44.23657" lon="5.39264">
        <ele>1005</ele>
        <time>2026-05-13T15:36:11.000Z</time>
      </trkpt>
      <trkpt lat="44.23655" lon="5.39263">
        <ele>1005</ele>
        <time>2026-05-13T15:36:12.000Z</time>
      </trkpt>
      <trkpt lat="44.23654" lon="5.39262">
        <ele>1005</ele>
        <time>2026-05-13T15:36:13.000Z</time>
      </trkpt>
      <trkpt lat="44.23653" lon="5.39262">
        <ele>1005</ele>
        <time>2026-05-13T15:36:14.000Z</time>
      </trkpt>
      <trkpt lat="44.23651" lon="5.39262">
        <ele>1005</ele>
        <time>2026-05-13T15:36:15.000Z</time>
      </trkpt>
      <trkpt lat="44.23649" lon="5.39262">
        <ele>1005</ele>
        <time>2026-05-13T15:36:16.000Z</time>
      </trkpt>
      <trkpt lat="44.23648" lon="5.39262">
        <ele>1005</ele>
        <time>2026-05-13T15:36:17.000Z</time>
      </trkpt>
      <trkpt lat="44.23647" lon="5.39262">
        <ele>1006</ele>
        <time>2026-05-13T15:36:18.000Z</time>
      </trkpt>
      <trkpt lat="44.23645" lon="5.39261">
        <ele>1006</ele>
        <time>2026-05-13T15:36:19.000Z</time>
      </trkpt>
      <trkpt lat="44.23643" lon="5.39262">
        <ele>1006</ele>
        <time>2026-05-13T15:36:20.000Z</time>
      </trkpt>
      <trkpt lat="44.23641" lon="5.39262">
        <ele>1006</ele>
        <time>2026-05-13T15:36:21.000Z</time>
      </trkpt>
      <trkpt lat="44.23639" lon="5.39263">
        <ele>1006</ele>
        <time>2026-05-13T15:36:22.000Z</time>
      </trkpt>
      <trkpt lat="44.23638" lon="5.39263">
        <ele>1006</ele>
        <time>2026-05-13T15:36:23.000Z</time>
      </trkpt>
      <trkpt lat="44.23635" lon="5.39263">
        <ele>1006</ele>
        <time>2026-05-13T15:36:24.000Z</time>
      </trkpt>
      <trkpt lat="44.23634" lon="5.39264">
        <ele>1006</ele>
        <time>2026-05-13T15:36:25.000Z</time>
      </trkpt>
      <trkpt lat="44.23632" lon="5.39266">
        <ele>1006</ele>
        <time>2026-05-13T15:36:26.000Z</time>
      </trkpt>
      <trkpt lat="44.23631" lon="5.39267">
        <ele>1006</ele>
        <time>2026-05-13T15:36:27.000Z</time>
      </trkpt>
      <trkpt lat="44.23629" lon="5.39268">
        <ele>1006</ele>
        <time>2026-05-13T15:36:28.000Z</time>
      </trkpt>
      <trkpt lat="44.23628" lon="5.39269">
        <ele>1006</ele>
        <time>2026-05-13T15:36:29.000Z</time>
      </trkpt>
      <trkpt lat="44.23626" lon="5.3927">
        <ele>1006</ele>
        <time>2026-05-13T15:36:30.000Z</time>
      </trkpt>
      <trkpt lat="44.23624" lon="5.39271">
        <ele>1006</ele>
        <time>2026-05-13T15:36:31.000Z</time>
      </trkpt>
      <trkpt lat="44.23622" lon="5.39271">
        <ele>1006</ele>
        <time>2026-05-13T15:36:32.000Z</time>
      </trkpt>
      <trkpt lat="44.2362" lon="5.39272">
        <ele>1006</ele>
        <time>2026-05-13T15:36:33.000Z</time>
      </trkpt>
      <trkpt lat="44.23617" lon="5.39272">
        <ele>1006</ele>
        <time>2026-05-13T15:36:34.000Z</time>
      </trkpt>
      <trkpt lat="44.23614" lon="5.39272">
        <ele>1006</ele>
        <time>2026-05-13T15:36:35.000Z</time>
      </trkpt>
      <trkpt lat="44.2361" lon="5.39272">
        <ele>1005</ele>
        <time>2026-05-13T15:36:36.000Z</time>
      </trkpt>
      <trkpt lat="44.23607" lon="5.39272">
        <ele>1005</ele>
        <time>2026-05-13T15:36:37.000Z</time>
      </trkpt>
      <trkpt lat="44.23603" lon="5.39271">
        <ele>1005</ele>
        <time>2026-05-13T15:36:38.000Z</time>
      </trkpt>
      <trkpt lat="44.236" lon="5.39272">
        <ele>1005</ele>
        <time>2026-05-13T15:36:39.000Z</time>
      </trkpt>
      <trkpt lat="44.23597" lon="5.39273">
        <ele>1005</ele>
        <time>2026-05-13T15:36:40.000Z</time>
      </trkpt>
      <trkpt lat="44.23594" lon="5.39276">
        <ele>1006</ele>
        <time>2026-05-13T15:36:41.000Z</time>
      </trkpt>
      <trkpt lat="44.23592" lon="5.39278">
        <ele>1006</ele>
        <time>2026-05-13T15:36:42.000Z</time>
      </trkpt>
      <trkpt lat="44.23591" lon="5.3928">
        <ele>1006</ele>
        <time>2026-05-13T15:36:43.000Z</time>
      </trkpt>
      <trkpt lat="44.2359" lon="5.39281">
        <ele>1007</ele>
        <time>2026-05-13T15:36:44.000Z</time>
      </trkpt>
      <trkpt lat="44.23588" lon="5.39282">
        <ele>1007</ele>
        <time>2026-05-13T15:36:45.000Z</time>
      </trkpt>
      <trkpt lat="44.23588" lon="5.39283">
        <ele>1008</ele>
        <time>2026-05-13T15:36:46.000Z</time>
      </trkpt>
      <trkpt lat="44.23586" lon="5.39283">
        <ele>1008</ele>
        <time>2026-05-13T15:36:47.000Z</time>
      </trkpt>
      <trkpt lat="44.23585" lon="5.39283">
        <ele>1008</ele>
        <time>2026-05-13T15:36:48.000Z</time>
      </trkpt>
      <trkpt lat="44.23585" lon="5.39284">
        <ele>1009</ele>
        <time>2026-05-13T15:36:49.000Z</time>
      </trkpt>
      <trkpt lat="44.23584" lon="5.39285">
        <ele>1009</ele>
        <time>2026-05-13T15:36:50.000Z</time>
      </trkpt>
      <trkpt lat="44.23583" lon="5.39286">
        <ele>1009</ele>
        <time>2026-05-13T15:36:51.000Z</time>
      </trkpt>
      <trkpt lat="44.23581" lon="5.39287">
        <ele>1009</ele>
        <time>2026-05-13T15:36:52.000Z</time>
      </trkpt>
      <trkpt lat="44.2358" lon="5.39287">
        <ele>1010</ele>
        <time>2026-05-13T15:36:53.000Z</time>
      </trkpt>
      <trkpt lat="44.23579" lon="5.39288">
        <ele>1010</ele>
        <time>2026-05-13T15:36:54.000Z</time>
      </trkpt>
      <trkpt lat="44.23579" lon="5.39289">
        <ele>1010</ele>
        <time>2026-05-13T15:36:55.000Z</time>
      </trkpt>
      <trkpt lat="44.23578" lon="5.39289">
        <ele>1011</ele>
        <time>2026-05-13T15:36:56.000Z</time>
      </trkpt>
      <trkpt lat="44.23576" lon="5.3929">
        <ele>1011</ele>
        <time>2026-05-13T15:36:57.000Z</time>
      </trkpt>
      <trkpt lat="44.23575" lon="5.39291">
        <ele>1010</ele>
        <time>2026-05-13T15:36:58.000Z</time>
      </trkpt>
      <trkpt lat="44.23574" lon="5.39292">
        <ele>1010</ele>
        <time>2026-05-13T15:36:59.000Z</time>
      </trkpt>
      <trkpt lat="44.23573" lon="5.39293">
        <ele>1010</ele>
        <time>2026-05-13T15:37:00.000Z</time>
      </trkpt>
      <trkpt lat="44.23572" lon="5.39294">
        <ele>1010</ele>
        <time>2026-05-13T15:37:01.000Z</time>
      </trkpt>
      <trkpt lat="44.23571" lon="5.39295">
        <ele>1010</ele>
        <time>2026-05-13T15:37:02.000Z</time>
      </trkpt>
      <trkpt lat="44.2357" lon="5.39296">
        <ele>1011</ele>
        <time>2026-05-13T15:37:03.000Z</time>
      </trkpt>
      <trkpt lat="44.23569" lon="5.39297">
        <ele>1012</ele>
        <time>2026-05-13T15:37:04.000Z</time>
      </trkpt>
      <trkpt lat="44.23568" lon="5.39298">
        <ele>1012</ele>
        <time>2026-05-13T15:37:05.000Z</time>
      </trkpt>
      <trkpt lat="44.23567" lon="5.393">
        <ele>1013</ele>
        <time>2026-05-13T15:37:06.000Z</time>
      </trkpt>
      <trkpt lat="44.23566" lon="5.393">
        <ele>1013</ele>
        <time>2026-05-13T15:37:07.000Z</time>
      </trkpt>
      <trkpt lat="44.23565" lon="5.39302">
        <ele>1013</ele>
        <time>2026-05-13T15:37:08.000Z</time>
      </trkpt>
      <trkpt lat="44.23563" lon="5.39303">
        <ele>1013</ele>
        <time>2026-05-13T15:37:09.000Z</time>
      </trkpt>
      <trkpt lat="44.23561" lon="5.39305">
        <ele>1012</ele>
        <time>2026-05-13T15:37:10.000Z</time>
      </trkpt>
      <trkpt lat="44.2356" lon="5.39307">
        <ele>1013</ele>
        <time>2026-05-13T15:37:11.000Z</time>
      </trkpt>
      <trkpt lat="44.23559" lon="5.39309">
        <ele>1012</ele>
        <time>2026-05-13T15:37:12.000Z</time>
      </trkpt>
      <trkpt lat="44.23558" lon="5.39311">
        <ele>1012</ele>
        <time>2026-05-13T15:37:13.000Z</time>
      </trkpt>
      <trkpt lat="44.23556" lon="5.39314">
        <ele>1011</ele>
        <time>2026-05-13T15:37:14.000Z</time>
      </trkpt>
      <trkpt lat="44.23553" lon="5.39317">
        <ele>1012</ele>
        <time>2026-05-13T15:37:15.000Z</time>
      </trkpt>
      <trkpt lat="44.23551" lon="5.39319">
        <ele>1012</ele>
        <time>2026-05-13T15:37:16.000Z</time>
      </trkpt>
      <trkpt lat="44.23549" lon="5.39321">
        <ele>1012</ele>
        <time>2026-05-13T15:37:17.000Z</time>
      </trkpt>
      <trkpt lat="44.23546" lon="5.39322">
        <ele>1012</ele>
        <time>2026-05-13T15:37:18.000Z</time>
      </trkpt>
      <trkpt lat="44.23544" lon="5.39323">
        <ele>1012</ele>
        <time>2026-05-13T15:37:19.000Z</time>
      </trkpt>
      <trkpt lat="44.23541" lon="5.39325">
        <ele>1012</ele>
        <time>2026-05-13T15:37:20.000Z</time>
      </trkpt>
      <trkpt lat="44.23539" lon="5.39327">
        <ele>1012</ele>
        <time>2026-05-13T15:37:21.000Z</time>
      </trkpt>
      <trkpt lat="44.23535" lon="5.39327">
        <ele>1012</ele>
        <time>2026-05-13T15:37:22.000Z</time>
      </trkpt>
      <trkpt lat="44.23533" lon="5.39329">
        <ele>1012</ele>
        <time>2026-05-13T15:37:23.000Z</time>
      </trkpt>
      <trkpt lat="44.23532" lon="5.3933">
        <ele>1012</ele>
        <time>2026-05-13T15:37:24.000Z</time>
      </trkpt>
      <trkpt lat="44.2353" lon="5.39331">
        <ele>1012</ele>
        <time>2026-05-13T15:37:25.000Z</time>
      </trkpt>
      <trkpt lat="44.23528" lon="5.39333">
        <ele>1012</ele>
        <time>2026-05-13T15:37:26.000Z</time>
      </trkpt>
      <trkpt lat="44.23526" lon="5.39333">
        <ele>1012</ele>
        <time>2026-05-13T15:37:27.000Z</time>
      </trkpt>
      <trkpt lat="44.23524" lon="5.39334">
        <ele>1012</ele>
        <time>2026-05-13T15:37:28.000Z</time>
      </trkpt>
      <trkpt lat="44.23522" lon="5.39335">
        <ele>1013</ele>
        <time>2026-05-13T15:37:29.000Z</time>
      </trkpt>
      <trkpt lat="44.2352" lon="5.39335">
        <ele>1013</ele>
        <time>2026-05-13T15:37:30.000Z</time>
      </trkpt>
      <trkpt lat="44.23519" lon="5.39335">
        <ele>1013</ele>
        <time>2026-05-13T15:37:31.000Z</time>
      </trkpt>
      <trkpt lat="44.23517" lon="5.39336">
        <ele>1013</ele>
        <time>2026-05-13T15:37:32.000Z</time>
      </trkpt>
      <trkpt lat="44.23515" lon="5.39338">
        <ele>1012</ele>
        <time>2026-05-13T15:37:33.000Z</time>
      </trkpt>
      <trkpt lat="44.23513" lon="5.39339">
        <ele>1012</ele>
        <time>2026-05-13T15:37:34.000Z</time>
      </trkpt>
      <trkpt lat="44.2351" lon="5.39342">
        <ele>1012</ele>
        <time>2026-05-13T15:37:35.000Z</time>
      </trkpt>
      <trkpt lat="44.23507" lon="5.39344">
        <ele>1012</ele>
        <time>2026-05-13T15:37:36.000Z</time>
      </trkpt>
      <trkpt lat="44.23504" lon="5.39347">
        <ele>1012</ele>
        <time>2026-05-13T15:37:37.000Z</time>
      </trkpt>
      <trkpt lat="44.23502" lon="5.3935">
        <ele>1011</ele>
        <time>2026-05-13T15:37:38.000Z</time>
      </trkpt>
      <trkpt lat="44.235" lon="5.39353">
        <ele>1011</ele>
        <time>2026-05-13T15:37:39.000Z</time>
      </trkpt>
      <trkpt lat="44.23498" lon="5.39356">
        <ele>1011</ele>
        <time>2026-05-13T15:37:40.000Z</time>
      </trkpt>
      <trkpt lat="44.23495" lon="5.39357">
        <ele>1011</ele>
        <time>2026-05-13T15:37:41.000Z</time>
      </trkpt>
      <trkpt lat="44.23494" lon="5.39358">
        <ele>1011</ele>
        <time>2026-05-13T15:37:42.000Z</time>
      </trkpt>
      <trkpt lat="44.23493" lon="5.3936">
        <ele>1011</ele>
        <time>2026-05-13T15:37:43.000Z</time>
      </trkpt>
      <trkpt lat="44.23492" lon="5.39362">
        <ele>1011</ele>
        <time>2026-05-13T15:37:44.000Z</time>
      </trkpt>
      <trkpt lat="44.23491" lon="5.39364">
        <ele>1010</ele>
        <time>2026-05-13T15:37:45.000Z</time>
      </trkpt>
      <trkpt lat="44.2349" lon="5.39366">
        <ele>1010</ele>
        <time>2026-05-13T15:37:46.000Z</time>
      </trkpt>
      <trkpt lat="44.23489" lon="5.39368">
        <ele>1010</ele>
        <time>2026-05-13T15:37:47.000Z</time>
      </trkpt>
      <trkpt lat="44.23487" lon="5.3937">
        <ele>1010</ele>
        <time>2026-05-13T15:37:48.000Z</time>
      </trkpt>
      <trkpt lat="44.23484" lon="5.39373">
        <ele>1010</ele>
        <time>2026-05-13T15:37:49.000Z</time>
      </trkpt>
      <trkpt lat="44.23482" lon="5.39374">
        <ele>1010</ele>
        <time>2026-05-13T15:37:50.000Z</time>
      </trkpt>
      <trkpt lat="44.2348" lon="5.39376">
        <ele>1010</ele>
        <time>2026-05-13T15:37:51.000Z</time>
      </trkpt>
      <trkpt lat="44.23477" lon="5.39377">
        <ele>1010</ele>
        <time>2026-05-13T15:37:52.000Z</time>
      </trkpt>
      <trkpt lat="44.23475" lon="5.3938">
        <ele>1009</ele>
        <time>2026-05-13T15:37:53.000Z</time>
      </trkpt>
      <trkpt lat="44.23472" lon="5.3938">
        <ele>1010</ele>
        <time>2026-05-13T15:37:54.000Z</time>
      </trkpt>
      <trkpt lat="44.2347" lon="5.39382">
        <ele>1010</ele>
        <time>2026-05-13T15:37:55.000Z</time>
      </trkpt>
      <trkpt lat="44.23467" lon="5.39384">
        <ele>1010</ele>
        <time>2026-05-13T15:37:56.000Z</time>
      </trkpt>
      <trkpt lat="44.23465" lon="5.39385">
        <ele>1010</ele>
        <time>2026-05-13T15:37:57.000Z</time>
      </trkpt>
      <trkpt lat="44.23463" lon="5.39386">
        <ele>1011</ele>
        <time>2026-05-13T15:37:58.000Z</time>
      </trkpt>
      <trkpt lat="44.23462" lon="5.39387">
        <ele>1011</ele>
        <time>2026-05-13T15:37:59.000Z</time>
      </trkpt>
      <trkpt lat="44.2346" lon="5.39389">
        <ele>1012</ele>
        <time>2026-05-13T15:38:00.000Z</time>
      </trkpt>
      <trkpt lat="44.23458" lon="5.39391">
        <ele>1012</ele>
        <time>2026-05-13T15:38:01.000Z</time>
      </trkpt>
      <trkpt lat="44.23455" lon="5.39392">
        <ele>1012</ele>
        <time>2026-05-13T15:38:02.000Z</time>
      </trkpt>
      <trkpt lat="44.23453" lon="5.39393">
        <ele>1012</ele>
        <time>2026-05-13T15:38:03.000Z</time>
      </trkpt>
      <trkpt lat="44.2345" lon="5.39395">
        <ele>1012</ele>
        <time>2026-05-13T15:38:04.000Z</time>
      </trkpt>
      <trkpt lat="44.23449" lon="5.39395">
        <ele>1011</ele>
        <time>2026-05-13T15:38:05.000Z</time>
      </trkpt>
      <trkpt lat="44.23447" lon="5.39397">
        <ele>1011</ele>
        <time>2026-05-13T15:38:06.000Z</time>
      </trkpt>
      <trkpt lat="44.23445" lon="5.39399">
        <ele>1012</ele>
        <time>2026-05-13T15:38:07.000Z</time>
      </trkpt>
      <trkpt lat="44.23443" lon="5.394">
        <ele>1012</ele>
        <time>2026-05-13T15:38:08.000Z</time>
      </trkpt>
      <trkpt lat="44.23441" lon="5.39402">
        <ele>1012</ele>
        <time>2026-05-13T15:38:09.000Z</time>
      </trkpt>
      <trkpt lat="44.23439" lon="5.39404">
        <ele>1012</ele>
        <time>2026-05-13T15:38:10.000Z</time>
      </trkpt>
      <trkpt lat="44.23436" lon="5.39406">
        <ele>1012</ele>
        <time>2026-05-13T15:38:11.000Z</time>
      </trkpt>
      <trkpt lat="44.23434" lon="5.39408">
        <ele>1012</ele>
        <time>2026-05-13T15:38:12.000Z</time>
      </trkpt>
      <trkpt lat="44.23432" lon="5.39409">
        <ele>1012</ele>
        <time>2026-05-13T15:38:13.000Z</time>
      </trkpt>
      <trkpt lat="44.23431" lon="5.39412">
        <ele>1011</ele>
        <time>2026-05-13T15:38:14.000Z</time>
      </trkpt>
      <trkpt lat="44.23428" lon="5.39414">
        <ele>1011</ele>
        <time>2026-05-13T15:38:15.000Z</time>
      </trkpt>
      <trkpt lat="44.23426" lon="5.39416">
        <ele>1011</ele>
        <time>2026-05-13T15:38:16.000Z</time>
      </trkpt>
      <trkpt lat="44.23424" lon="5.39419">
        <ele>1012</ele>
        <time>2026-05-13T15:38:17.000Z</time>
      </trkpt>
      <trkpt lat="44.23422" lon="5.39421">
        <ele>1012</ele>
        <time>2026-05-13T15:38:18.000Z</time>
      </trkpt>
      <trkpt lat="44.2342" lon="5.39423">
        <ele>1012</ele>
        <time>2026-05-13T15:38:19.000Z</time>
      </trkpt>
      <trkpt lat="44.23417" lon="5.39425">
        <ele>1012</ele>
        <time>2026-05-13T15:38:20.000Z</time>
      </trkpt>
      <trkpt lat="44.23416" lon="5.39428">
        <ele>1013</ele>
        <time>2026-05-13T15:38:21.000Z</time>
      </trkpt>
      <trkpt lat="44.23414" lon="5.3943">
        <ele>1013</ele>
        <time>2026-05-13T15:38:22.000Z</time>
      </trkpt>
      <trkpt lat="44.23413" lon="5.39432">
        <ele>1014</ele>
        <time>2026-05-13T15:38:23.000Z</time>
      </trkpt>
      <trkpt lat="44.23411" lon="5.39435">
        <ele>1014</ele>
        <time>2026-05-13T15:38:24.000Z</time>
      </trkpt>
      <trkpt lat="44.2341" lon="5.39437">
        <ele>1014</ele>
        <time>2026-05-13T15:38:25.000Z</time>
      </trkpt>
      <trkpt lat="44.23408" lon="5.39439">
        <ele>1014</ele>
        <time>2026-05-13T15:38:26.000Z</time>
      </trkpt>
      <trkpt lat="44.23407" lon="5.39441">
        <ele>1015</ele>
        <time>2026-05-13T15:38:27.000Z</time>
      </trkpt>
      <trkpt lat="44.23406" lon="5.39442">
        <ele>1015</ele>
        <time>2026-05-13T15:38:28.000Z</time>
      </trkpt>
      <trkpt lat="44.23404" lon="5.39445">
        <ele>1014</ele>
        <time>2026-05-13T15:38:29.000Z</time>
      </trkpt>
      <trkpt lat="44.23402" lon="5.39447">
        <ele>1014</ele>
        <time>2026-05-13T15:38:30.000Z</time>
      </trkpt>
      <trkpt lat="44.23401" lon="5.3945">
        <ele>1014</ele>
        <time>2026-05-13T15:38:31.000Z</time>
      </trkpt>
      <trkpt lat="44.23399" lon="5.39452">
        <ele>1014</ele>
        <time>2026-05-13T15:38:32.000Z</time>
      </trkpt>
      <trkpt lat="44.23397" lon="5.39455">
        <ele>1014</ele>
        <time>2026-05-13T15:38:33.000Z</time>
      </trkpt>
      <trkpt lat="44.23394" lon="5.39457">
        <ele>1014</ele>
        <time>2026-05-13T15:38:34.000Z</time>
      </trkpt>
      <trkpt lat="44.23392" lon="5.3946">
        <ele>1014</ele>
        <time>2026-05-13T15:38:35.000Z</time>
      </trkpt>
      <trkpt lat="44.23391" lon="5.39463">
        <ele>1015</ele>
        <time>2026-05-13T15:38:36.000Z</time>
      </trkpt>
      <trkpt lat="44.2339" lon="5.39466">
        <ele>1015</ele>
        <time>2026-05-13T15:38:37.000Z</time>
      </trkpt>
      <trkpt lat="44.23388" lon="5.39469">
        <ele>1014</ele>
        <time>2026-05-13T15:38:38.000Z</time>
      </trkpt>
      <trkpt lat="44.23387" lon="5.39473">
        <ele>1015</ele>
        <time>2026-05-13T15:38:39.000Z</time>
      </trkpt>
      <trkpt lat="44.23385" lon="5.39476">
        <ele>1015</ele>
        <time>2026-05-13T15:38:40.000Z</time>
      </trkpt>
      <trkpt lat="44.23383" lon="5.39479">
        <ele>1015</ele>
        <time>2026-05-13T15:38:41.000Z</time>
      </trkpt>
      <trkpt lat="44.23382" lon="5.39481">
        <ele>1015</ele>
        <time>2026-05-13T15:38:42.000Z</time>
      </trkpt>
      <trkpt lat="44.23381" lon="5.39484">
        <ele>1014</ele>
        <time>2026-05-13T15:38:43.000Z</time>
      </trkpt>
      <trkpt lat="44.2338" lon="5.39486">
        <ele>1014</ele>
        <time>2026-05-13T15:38:44.000Z</time>
      </trkpt>
      <trkpt lat="44.23378" lon="5.39489">
        <ele>1013</ele>
        <time>2026-05-13T15:38:45.000Z</time>
      </trkpt>
      <trkpt lat="44.23377" lon="5.39491">
        <ele>1014</ele>
        <time>2026-05-13T15:38:46.000Z</time>
      </trkpt>
      <trkpt lat="44.23375" lon="5.39492">
        <ele>1015</ele>
        <time>2026-05-13T15:38:47.000Z</time>
      </trkpt>
      <trkpt lat="44.23374" lon="5.39492">
        <ele>1015</ele>
        <time>2026-05-13T15:38:48.000Z</time>
      </trkpt>
      <trkpt lat="44.23372" lon="5.39492">
        <ele>1014</ele>
        <time>2026-05-13T15:38:49.000Z</time>
      </trkpt>
      <trkpt lat="44.23371" lon="5.39492">
        <ele>1014</ele>
        <time>2026-05-13T15:38:50.000Z</time>
      </trkpt>
      <trkpt lat="44.2337" lon="5.39493">
        <ele>1014</ele>
        <time>2026-05-13T15:38:51.000Z</time>
      </trkpt>
      <trkpt lat="44.23368" lon="5.39494">
        <ele>1014</ele>
        <time>2026-05-13T15:38:52.000Z</time>
      </trkpt>
      <trkpt lat="44.23367" lon="5.39494">
        <ele>1014</ele>
        <time>2026-05-13T15:38:53.000Z</time>
      </trkpt>
      <trkpt lat="44.23366" lon="5.39495">
        <ele>1015</ele>
        <time>2026-05-13T15:38:54.000Z</time>
      </trkpt>
      <trkpt lat="44.23366" lon="5.39496">
        <ele>1014</ele>
        <time>2026-05-13T15:38:55.000Z</time>
      </trkpt>
      <trkpt lat="44.23365" lon="5.39497">
        <ele>1014</ele>
        <time>2026-05-13T15:38:56.000Z</time>
      </trkpt>
      <trkpt lat="44.23364" lon="5.39498">
        <ele>1014</ele>
        <time>2026-05-13T15:38:57.000Z</time>
      </trkpt>
      <trkpt lat="44.23362" lon="5.39498">
        <ele>1015</ele>
        <time>2026-05-13T15:38:58.000Z</time>
      </trkpt>
      <trkpt lat="44.23361" lon="5.39499">
        <ele>1015</ele>
        <time>2026-05-13T15:38:59.000Z</time>
      </trkpt>
      <trkpt lat="44.23359" lon="5.395">
        <ele>1015</ele>
        <time>2026-05-13T15:39:00.000Z</time>
      </trkpt>
      <trkpt lat="44.23358" lon="5.39501">
        <ele>1015</ele>
        <time>2026-05-13T15:39:01.000Z</time>
      </trkpt>
      <trkpt lat="44.23357" lon="5.39502">
        <ele>1016</ele>
        <time>2026-05-13T15:39:02.000Z</time>
      </trkpt>
      <trkpt lat="44.23356" lon="5.39502">
        <ele>1016</ele>
        <time>2026-05-13T15:39:03.000Z</time>
      </trkpt>
      <trkpt lat="44.23355" lon="5.39503">
        <ele>1017</ele>
        <time>2026-05-13T15:39:04.000Z</time>
      </trkpt>
      <trkpt lat="44.23354" lon="5.39505">
        <ele>1016</ele>
        <time>2026-05-13T15:39:05.000Z</time>
      </trkpt>
      <trkpt lat="44.23353" lon="5.39505">
        <ele>1015</ele>
        <time>2026-05-13T15:39:06.000Z</time>
      </trkpt>
      <trkpt lat="44.23352" lon="5.39506">
        <ele>1016</ele>
        <time>2026-05-13T15:39:07.000Z</time>
      </trkpt>
      <trkpt lat="44.23351" lon="5.39507">
        <ele>1015</ele>
        <time>2026-05-13T15:39:08.000Z</time>
      </trkpt>
      <trkpt lat="44.23351" lon="5.39508">
        <ele>1015</ele>
        <time>2026-05-13T15:39:09.000Z</time>
      </trkpt>
      <trkpt lat="44.2335" lon="5.39509">
        <ele>1015</ele>
        <time>2026-05-13T15:39:10.000Z</time>
      </trkpt>
      <trkpt lat="44.23349" lon="5.39511">
        <ele>1015</ele>
        <time>2026-05-13T15:39:11.000Z</time>
      </trkpt>
      <trkpt lat="44.23348" lon="5.39512">
        <ele>1016</ele>
        <time>2026-05-13T15:39:12.000Z</time>
      </trkpt>
      <trkpt lat="44.23347" lon="5.39514">
        <ele>1017</ele>
        <time>2026-05-13T15:39:13.000Z</time>
      </trkpt>
      <trkpt lat="44.23346" lon="5.39516">
        <ele>1016</ele>
        <time>2026-05-13T15:39:14.000Z</time>
      </trkpt>
      <trkpt lat="44.23344" lon="5.39517">
        <ele>1017</ele>
        <time>2026-05-13T15:39:15.000Z</time>
      </trkpt>
      <trkpt lat="44.23344" lon="5.39519">
        <ele>1017</ele>
        <time>2026-05-13T15:39:16.000Z</time>
      </trkpt>
      <trkpt lat="44.23343" lon="5.3952">
        <ele>1018</ele>
        <time>2026-05-13T15:39:17.000Z</time>
      </trkpt>
      <trkpt lat="44.23342" lon="5.39522">
        <ele>1019</ele>
        <time>2026-05-13T15:39:18.000Z</time>
      </trkpt>
      <trkpt lat="44.23341" lon="5.39525">
        <ele>1019</ele>
        <time>2026-05-13T15:39:19.000Z</time>
      </trkpt>
      <trkpt lat="44.2334" lon="5.39527">
        <ele>1019</ele>
        <time>2026-05-13T15:39:20.000Z</time>
      </trkpt>
      <trkpt lat="44.23339" lon="5.3953">
        <ele>1018</ele>
        <time>2026-05-13T15:39:21.000Z</time>
      </trkpt>
      <trkpt lat="44.23338" lon="5.39531">
        <ele>1019</ele>
        <time>2026-05-13T15:39:22.000Z</time>
      </trkpt>
      <trkpt lat="44.23336" lon="5.39533">
        <ele>1019</ele>
        <time>2026-05-13T15:39:23.000Z</time>
      </trkpt>
      <trkpt lat="44.23336" lon="5.39533">
        <ele>1019</ele>
        <time>2026-05-13T15:39:24.000Z</time>
      </trkpt>
      <trkpt lat="44.23335" lon="5.39534">
        <ele>1019</ele>
        <time>2026-05-13T15:39:25.000Z</time>
      </trkpt>
      <trkpt lat="44.23334" lon="5.39536">
        <ele>1019</ele>
        <time>2026-05-13T15:39:26.000Z</time>
      </trkpt>
      <trkpt lat="44.23333" lon="5.39535">
        <ele>1020</ele>
        <time>2026-05-13T15:39:27.000Z</time>
      </trkpt>
      <trkpt lat="44.23332" lon="5.39536">
        <ele>1021</ele>
        <time>2026-05-13T15:39:28.000Z</time>
      </trkpt>
      <trkpt lat="44.23331" lon="5.39536">
        <ele>1021</ele>
        <time>2026-05-13T15:39:29.000Z</time>
      </trkpt>
      <trkpt lat="44.2333" lon="5.39537">
        <ele>1022</ele>
        <time>2026-05-13T15:39:30.000Z</time>
      </trkpt>
      <trkpt lat="44.23329" lon="5.39539">
        <ele>1021</ele>
        <time>2026-05-13T15:39:31.000Z</time>
      </trkpt>
      <trkpt lat="44.23328" lon="5.39541">
        <ele>1020</ele>
        <time>2026-05-13T15:39:32.000Z</time>
      </trkpt>
      <trkpt lat="44.23328" lon="5.39543">
        <ele>1019</ele>
        <time>2026-05-13T15:39:33.000Z</time>
      </trkpt>
      <trkpt lat="44.23327" lon="5.39544">
        <ele>1020</ele>
        <time>2026-05-13T15:39:34.000Z</time>
      </trkpt>
      <trkpt lat="44.23326" lon="5.39545">
        <ele>1020</ele>
        <time>2026-05-13T15:39:35.000Z</time>
      </trkpt>
      <trkpt lat="44.23324" lon="5.39547">
        <ele>1020</ele>
        <time>2026-05-13T15:39:36.000Z</time>
      </trkpt>
      <trkpt lat="44.23323" lon="5.39548">
        <ele>1020</ele>
        <time>2026-05-13T15:39:37.000Z</time>
      </trkpt>
      <trkpt lat="44.23321" lon="5.39549">
        <ele>1020</ele>
        <time>2026-05-13T15:39:38.000Z</time>
      </trkpt>
      <trkpt lat="44.23319" lon="5.39551">
        <ele>1020</ele>
        <time>2026-05-13T15:39:39.000Z</time>
      </trkpt>
      <trkpt lat="44.23318" lon="5.39553">
        <ele>1020</ele>
        <time>2026-05-13T15:39:40.000Z</time>
      </trkpt>
      <trkpt lat="44.23316" lon="5.39556">
        <ele>1020</ele>
        <time>2026-05-13T15:39:41.000Z</time>
      </trkpt>
      <trkpt lat="44.23314" lon="5.39559">
        <ele>1020</ele>
        <time>2026-05-13T15:39:42.000Z</time>
      </trkpt>
      <trkpt lat="44.23312" lon="5.39562">
        <ele>1020</ele>
        <time>2026-05-13T15:39:43.000Z</time>
      </trkpt>
      <trkpt lat="44.2331" lon="5.39565">
        <ele>1020</ele>
        <time>2026-05-13T15:39:44.000Z</time>
      </trkpt>
      <trkpt lat="44.23307" lon="5.39567">
        <ele>1020</ele>
        <time>2026-05-13T15:39:45.000Z</time>
      </trkpt>
      <trkpt lat="44.23304" lon="5.39569">
        <ele>1020</ele>
        <time>2026-05-13T15:39:46.000Z</time>
      </trkpt>
      <trkpt lat="44.23302" lon="5.39572">
        <ele>1019</ele>
        <time>2026-05-13T15:39:47.000Z</time>
      </trkpt>
      <trkpt lat="44.233" lon="5.39573">
        <ele>1019</ele>
        <time>2026-05-13T15:39:48.000Z</time>
      </trkpt>
      <trkpt lat="44.23298" lon="5.39576">
        <ele>1019</ele>
        <time>2026-05-13T15:39:49.000Z</time>
      </trkpt>
      <trkpt lat="44.23296" lon="5.39582">
        <ele>1018</ele>
        <time>2026-05-13T15:39:50.000Z</time>
      </trkpt>
      <trkpt lat="44.23295" lon="5.39588">
        <ele>1018</ele>
        <time>2026-05-13T15:39:51.000Z</time>
      </trkpt>
      <trkpt lat="44.23293" lon="5.39592">
        <ele>1018</ele>
        <time>2026-05-13T15:39:52.000Z</time>
      </trkpt>
      <trkpt lat="44.2329" lon="5.39596">
        <ele>1019</ele>
        <time>2026-05-13T15:39:53.000Z</time>
      </trkpt>
      <trkpt lat="44.23287" lon="5.39599">
        <ele>1019</ele>
        <time>2026-05-13T15:39:54.000Z</time>
      </trkpt>
      <trkpt lat="44.23285" lon="5.39599">
        <ele>1019</ele>
        <time>2026-05-13T15:39:55.000Z</time>
      </trkpt>
      <trkpt lat="44.23283" lon="5.39601">
        <ele>1019</ele>
        <time>2026-05-13T15:39:56.000Z</time>
      </trkpt>
      <trkpt lat="44.23281" lon="5.39603">
        <ele>1019</ele>
        <time>2026-05-13T15:39:57.000Z</time>
      </trkpt>
      <trkpt lat="44.23279" lon="5.39604">
        <ele>1019</ele>
        <time>2026-05-13T15:39:58.000Z</time>
      </trkpt>
      <trkpt lat="44.23278" lon="5.39605">
        <ele>1019</ele>
        <time>2026-05-13T15:39:59.000Z</time>
      </trkpt>
      <trkpt lat="44.23276" lon="5.39607">
        <ele>1019</ele>
        <time>2026-05-13T15:40:00.000Z</time>
      </trkpt>
      <trkpt lat="44.23275" lon="5.39608">
        <ele>1019</ele>
        <time>2026-05-13T15:40:01.000Z</time>
      </trkpt>
      <trkpt lat="44.23273" lon="5.3961">
        <ele>1019</ele>
        <time>2026-05-13T15:40:02.000Z</time>
      </trkpt>
      <trkpt lat="44.23271" lon="5.39611">
        <ele>1019</ele>
        <time>2026-05-13T15:40:03.000Z</time>
      </trkpt>
      <trkpt lat="44.2327" lon="5.39612">
        <ele>1018</ele>
        <time>2026-05-13T15:40:04.000Z</time>
      </trkpt>
      <trkpt lat="44.23269" lon="5.39614">
        <ele>1019</ele>
        <time>2026-05-13T15:40:05.000Z</time>
      </trkpt>
      <trkpt lat="44.23268" lon="5.39615">
        <ele>1018</ele>
        <time>2026-05-13T15:40:06.000Z</time>
      </trkpt>
      <trkpt lat="44.23267" lon="5.39616">
        <ele>1019</ele>
        <time>2026-05-13T15:40:07.000Z</time>
      </trkpt>
      <trkpt lat="44.23265" lon="5.39616">
        <ele>1019</ele>
        <time>2026-05-13T15:40:08.000Z</time>
      </trkpt>
      <trkpt lat="44.23264" lon="5.39617">
        <ele>1018</ele>
        <time>2026-05-13T15:40:09.000Z</time>
      </trkpt>
      <trkpt lat="44.23262" lon="5.39618">
        <ele>1018</ele>
        <time>2026-05-13T15:40:10.000Z</time>
      </trkpt>
      <trkpt lat="44.23261" lon="5.3962">
        <ele>1017</ele>
        <time>2026-05-13T15:40:11.000Z</time>
      </trkpt>
      <trkpt lat="44.23259" lon="5.39621">
        <ele>1017</ele>
        <time>2026-05-13T15:40:12.000Z</time>
      </trkpt>
      <trkpt lat="44.23258" lon="5.39623">
        <ele>1017</ele>
        <time>2026-05-13T15:40:13.000Z</time>
      </trkpt>
      <trkpt lat="44.23257" lon="5.39624">
        <ele>1017</ele>
        <time>2026-05-13T15:40:14.000Z</time>
      </trkpt>
      <trkpt lat="44.23255" lon="5.39625">
        <ele>1016</ele>
        <time>2026-05-13T15:40:15.000Z</time>
      </trkpt>
      <trkpt lat="44.23253" lon="5.39627">
        <ele>1017</ele>
        <time>2026-05-13T15:40:16.000Z</time>
      </trkpt>
      <trkpt lat="44.23252" lon="5.39628">
        <ele>1016</ele>
        <time>2026-05-13T15:40:17.000Z</time>
      </trkpt>
      <trkpt lat="44.23251" lon="5.39629">
        <ele>1017</ele>
        <time>2026-05-13T15:40:18.000Z</time>
      </trkpt>
      <trkpt lat="44.2325" lon="5.3963">
        <ele>1017</ele>
        <time>2026-05-13T15:40:19.000Z</time>
      </trkpt>
      <trkpt lat="44.23249" lon="5.39632">
        <ele>1017</ele>
        <time>2026-05-13T15:40:20.000Z</time>
      </trkpt>
      <trkpt lat="44.23248" lon="5.39632">
        <ele>1017</ele>
        <time>2026-05-13T15:40:21.000Z</time>
      </trkpt>
      <trkpt lat="44.23246" lon="5.39633">
        <ele>1017</ele>
        <time>2026-05-13T15:40:22.000Z</time>
      </trkpt>
      <trkpt lat="44.23244" lon="5.39634">
        <ele>1017</ele>
        <time>2026-05-13T15:40:23.000Z</time>
      </trkpt>
      <trkpt lat="44.23242" lon="5.39635">
        <ele>1017</ele>
        <time>2026-05-13T15:40:24.000Z</time>
      </trkpt>
      <trkpt lat="44.23241" lon="5.39636">
        <ele>1017</ele>
        <time>2026-05-13T15:40:25.000Z</time>
      </trkpt>
      <trkpt lat="44.23239" lon="5.39638">
        <ele>1017</ele>
        <time>2026-05-13T15:40:26.000Z</time>
      </trkpt>
      <trkpt lat="44.23238" lon="5.39638">
        <ele>1017</ele>
        <time>2026-05-13T15:40:27.000Z</time>
      </trkpt>
      <trkpt lat="44.23236" lon="5.39639">
        <ele>1018</ele>
        <time>2026-05-13T15:40:28.000Z</time>
      </trkpt>
      <trkpt lat="44.23234" lon="5.39639">
        <ele>1018</ele>
        <time>2026-05-13T15:40:29.000Z</time>
      </trkpt>
      <trkpt lat="44.23233" lon="5.3964">
        <ele>1019</ele>
        <time>2026-05-13T15:40:30.000Z</time>
      </trkpt>
      <trkpt lat="44.2323" lon="5.39641">
        <ele>1019</ele>
        <time>2026-05-13T15:40:31.000Z</time>
      </trkpt>
      <trkpt lat="44.23228" lon="5.39642">
        <ele>1019</ele>
        <time>2026-05-13T15:40:32.000Z</time>
      </trkpt>
      <trkpt lat="44.23226" lon="5.39642">
        <ele>1019</ele>
        <time>2026-05-13T15:40:33.000Z</time>
      </trkpt>
      <trkpt lat="44.23224" lon="5.39642">
        <ele>1018</ele>
        <time>2026-05-13T15:40:34.000Z</time>
      </trkpt>
      <trkpt lat="44.23222" lon="5.39643">
        <ele>1018</ele>
        <time>2026-05-13T15:40:35.000Z</time>
      </trkpt>
      <trkpt lat="44.23219" lon="5.39643">
        <ele>1018</ele>
        <time>2026-05-13T15:40:36.000Z</time>
      </trkpt>
      <trkpt lat="44.23217" lon="5.39644">
        <ele>1018</ele>
        <time>2026-05-13T15:40:37.000Z</time>
      </trkpt>
      <trkpt lat="44.23215" lon="5.39644">
        <ele>1019</ele>
        <time>2026-05-13T15:40:38.000Z</time>
      </trkpt>
      <trkpt lat="44.23214" lon="5.39645">
        <ele>1019</ele>
        <time>2026-05-13T15:40:39.000Z</time>
      </trkpt>
      <trkpt lat="44.23212" lon="5.39646">
        <ele>1019</ele>
        <time>2026-05-13T15:40:40.000Z</time>
      </trkpt>
      <trkpt lat="44.2321" lon="5.39647">
        <ele>1019</ele>
        <time>2026-05-13T15:40:41.000Z</time>
      </trkpt>
      <trkpt lat="44.23209" lon="5.39648">
        <ele>1020</ele>
        <time>2026-05-13T15:40:42.000Z</time>
      </trkpt>
      <trkpt lat="44.23208" lon="5.39649">
        <ele>1019</ele>
        <time>2026-05-13T15:40:43.000Z</time>
      </trkpt>
      <trkpt lat="44.23206" lon="5.3965">
        <ele>1019</ele>
        <time>2026-05-13T15:40:44.000Z</time>
      </trkpt>
      <trkpt lat="44.23205" lon="5.3965">
        <ele>1019</ele>
        <time>2026-05-13T15:40:45.000Z</time>
      </trkpt>
      <trkpt lat="44.23202" lon="5.3965">
        <ele>1019</ele>
        <time>2026-05-13T15:40:46.000Z</time>
      </trkpt>
      <trkpt lat="44.23201" lon="5.39651">
        <ele>1019</ele>
        <time>2026-05-13T15:40:47.000Z</time>
      </trkpt>
      <trkpt lat="44.232" lon="5.39651">
        <ele>1019</ele>
        <time>2026-05-13T15:40:48.000Z</time>
      </trkpt>
      <trkpt lat="44.23199" lon="5.39651">
        <ele>1019</ele>
        <time>2026-05-13T15:40:49.000Z</time>
      </trkpt>
      <trkpt lat="44.23198" lon="5.39652">
        <ele>1019</ele>
        <time>2026-05-13T15:40:50.000Z</time>
      </trkpt>
      <trkpt lat="44.23196" lon="5.39652">
        <ele>1019</ele>
        <time>2026-05-13T15:40:51.000Z</time>
      </trkpt>
      <trkpt lat="44.23194" lon="5.39652">
        <ele>1019</ele>
        <time>2026-05-13T15:40:52.000Z</time>
      </trkpt>
      <trkpt lat="44.23192" lon="5.39653">
        <ele>1019</ele>
        <time>2026-05-13T15:40:53.000Z</time>
      </trkpt>
      <trkpt lat="44.23191" lon="5.39653">
        <ele>1019</ele>
        <time>2026-05-13T15:40:54.000Z</time>
      </trkpt>
      <trkpt lat="44.23189" lon="5.39652">
        <ele>1019</ele>
        <time>2026-05-13T15:40:55.000Z</time>
      </trkpt>
      <trkpt lat="44.23188" lon="5.39652">
        <ele>1019</ele>
        <time>2026-05-13T15:40:56.000Z</time>
      </trkpt>
      <trkpt lat="44.23186" lon="5.39652">
        <ele>1020</ele>
        <time>2026-05-13T15:40:57.000Z</time>
      </trkpt>
      <trkpt lat="44.23184" lon="5.39652">
        <ele>1020</ele>
        <time>2026-05-13T15:40:58.000Z</time>
      </trkpt>
      <trkpt lat="44.23183" lon="5.39653">
        <ele>1020</ele>
        <time>2026-05-13T15:40:59.000Z</time>
      </trkpt>
      <trkpt lat="44.23182" lon="5.39654">
        <ele>1020</ele>
        <time>2026-05-13T15:41:00.000Z</time>
      </trkpt>
      <trkpt lat="44.2318" lon="5.39656">
        <ele>1020</ele>
        <time>2026-05-13T15:41:01.000Z</time>
      </trkpt>
      <trkpt lat="44.23179" lon="5.39657">
        <ele>1020</ele>
        <time>2026-05-13T15:41:02.000Z</time>
      </trkpt>
      <trkpt lat="44.23178" lon="5.39659">
        <ele>1021</ele>
        <time>2026-05-13T15:41:03.000Z</time>
      </trkpt>
      <trkpt lat="44.23177" lon="5.3966">
        <ele>1021</ele>
        <time>2026-05-13T15:41:04.000Z</time>
      </trkpt>
      <trkpt lat="44.23176" lon="5.39662">
        <ele>1021</ele>
        <time>2026-05-13T15:41:05.000Z</time>
      </trkpt>
      <trkpt lat="44.23174" lon="5.39663">
        <ele>1021</ele>
        <time>2026-05-13T15:41:06.000Z</time>
      </trkpt>
      <trkpt lat="44.23173" lon="5.39665">
        <ele>1021</ele>
        <time>2026-05-13T15:41:07.000Z</time>
      </trkpt>
      <trkpt lat="44.23171" lon="5.39667">
        <ele>1021</ele>
        <time>2026-05-13T15:41:08.000Z</time>
      </trkpt>
      <trkpt lat="44.23169" lon="5.39669">
        <ele>1021</ele>
        <time>2026-05-13T15:41:09.000Z</time>
      </trkpt>
      <trkpt lat="44.23167" lon="5.39671">
        <ele>1021</ele>
        <time>2026-05-13T15:41:10.000Z</time>
      </trkpt>
      <trkpt lat="44.23164" lon="5.39674">
        <ele>1022</ele>
        <time>2026-05-13T15:41:11.000Z</time>
      </trkpt>
      <trkpt lat="44.23162" lon="5.39676">
        <ele>1022</ele>
        <time>2026-05-13T15:41:12.000Z</time>
      </trkpt>
      <trkpt lat="44.23161" lon="5.39678">
        <ele>1023</ele>
        <time>2026-05-13T15:41:13.000Z</time>
      </trkpt>
      <trkpt lat="44.2316" lon="5.39681">
        <ele>1023</ele>
        <time>2026-05-13T15:41:14.000Z</time>
      </trkpt>
      <trkpt lat="44.23159" lon="5.39684">
        <ele>1024</ele>
        <time>2026-05-13T15:41:15.000Z</time>
      </trkpt>
      <trkpt lat="44.23157" lon="5.39688">
        <ele>1023</ele>
        <time>2026-05-13T15:41:16.000Z</time>
      </trkpt>
      <trkpt lat="44.23156" lon="5.39693">
        <ele>1023</ele>
        <time>2026-05-13T15:41:17.000Z</time>
      </trkpt>
      <trkpt lat="44.23153" lon="5.39701">
        <ele>1023</ele>
        <time>2026-05-13T15:41:18.000Z</time>
      </trkpt>
      <trkpt lat="44.2315" lon="5.39708">
        <ele>1024</ele>
        <time>2026-05-13T15:41:19.000Z</time>
      </trkpt>
      <trkpt lat="44.23147" lon="5.39712">
        <ele>1023</ele>
        <time>2026-05-13T15:41:20.000Z</time>
      </trkpt>
      <trkpt lat="44.23144" lon="5.39715">
        <ele>1023</ele>
        <time>2026-05-13T15:41:21.000Z</time>
      </trkpt>
      <trkpt lat="44.23141" lon="5.39717">
        <ele>1023</ele>
        <time>2026-05-13T15:41:22.000Z</time>
      </trkpt>
      <trkpt lat="44.23138" lon="5.39719">
        <ele>1023</ele>
        <time>2026-05-13T15:41:23.000Z</time>
      </trkpt>
      <trkpt lat="44.23135" lon="5.39721">
        <ele>1023</ele>
        <time>2026-05-13T15:41:24.000Z</time>
      </trkpt>
      <trkpt lat="44.23133" lon="5.39722">
        <ele>1023</ele>
        <time>2026-05-13T15:41:25.000Z</time>
      </trkpt>
      <trkpt lat="44.23131" lon="5.39723">
        <ele>1024</ele>
        <time>2026-05-13T15:41:26.000Z</time>
      </trkpt>
      <trkpt lat="44.23129" lon="5.39724">
        <ele>1023</ele>
        <time>2026-05-13T15:41:27.000Z</time>
      </trkpt>
      <trkpt lat="44.23127" lon="5.39724">
        <ele>1023</ele>
        <time>2026-05-13T15:41:28.000Z</time>
      </trkpt>
      <trkpt lat="44.23125" lon="5.39725">
        <ele>1024</ele>
        <time>2026-05-13T15:41:29.000Z</time>
      </trkpt>
      <trkpt lat="44.23125" lon="5.39725">
        <ele>1024</ele>
        <time>2026-05-13T15:41:30.000Z</time>
      </trkpt>
      <trkpt lat="44.23123" lon="5.39725">
        <ele>1024</ele>
        <time>2026-05-13T15:41:31.000Z</time>
      </trkpt>
      <trkpt lat="44.23121" lon="5.39725">
        <ele>1024</ele>
        <time>2026-05-13T15:41:32.000Z</time>
      </trkpt>
      <trkpt lat="44.2312" lon="5.39724">
        <ele>1024</ele>
        <time>2026-05-13T15:41:33.000Z</time>
      </trkpt>
      <trkpt lat="44.23119" lon="5.39724">
        <ele>1024</ele>
        <time>2026-05-13T15:41:34.000Z</time>
      </trkpt>
      <trkpt lat="44.23117" lon="5.39724">
        <ele>1024</ele>
        <time>2026-05-13T15:41:35.000Z</time>
      </trkpt>
      <trkpt lat="44.23116" lon="5.39723">
        <ele>1025</ele>
        <time>2026-05-13T15:41:36.000Z</time>
      </trkpt>
      <trkpt lat="44.23115" lon="5.39724">
        <ele>1025</ele>
        <time>2026-05-13T15:41:37.000Z</time>
      </trkpt>
      <trkpt lat="44.23113" lon="5.39724">
        <ele>1026</ele>
        <time>2026-05-13T15:41:38.000Z</time>
      </trkpt>
      <trkpt lat="44.23112" lon="5.39724">
        <ele>1026</ele>
        <time>2026-05-13T15:41:39.000Z</time>
      </trkpt>
      <trkpt lat="44.2311" lon="5.39724">
        <ele>1027</ele>
        <time>2026-05-13T15:41:40.000Z</time>
      </trkpt>
      <trkpt lat="44.23109" lon="5.39724">
        <ele>1027</ele>
        <time>2026-05-13T15:41:41.000Z</time>
      </trkpt>
      <trkpt lat="44.23107" lon="5.39724">
        <ele>1027</ele>
        <time>2026-05-13T15:41:42.000Z</time>
      </trkpt>
      <trkpt lat="44.23105" lon="5.39724">
        <ele>1027</ele>
        <time>2026-05-13T15:41:43.000Z</time>
      </trkpt>
      <trkpt lat="44.23104" lon="5.39724">
        <ele>1027</ele>
        <time>2026-05-13T15:41:44.000Z</time>
      </trkpt>
      <trkpt lat="44.23103" lon="5.39724">
        <ele>1028</ele>
        <time>2026-05-13T15:41:45.000Z</time>
      </trkpt>
      <trkpt lat="44.23102" lon="5.39723">
        <ele>1029</ele>
        <time>2026-05-13T15:41:46.000Z</time>
      </trkpt>
      <trkpt lat="44.23101" lon="5.39723">
        <ele>1029</ele>
        <time>2026-05-13T15:41:47.000Z</time>
      </trkpt>
      <trkpt lat="44.23099" lon="5.39723">
        <ele>1029</ele>
        <time>2026-05-13T15:41:48.000Z</time>
      </trkpt>
      <trkpt lat="44.23098" lon="5.39724">
        <ele>1030</ele>
        <time>2026-05-13T15:41:49.000Z</time>
      </trkpt>
      <trkpt lat="44.23097" lon="5.39725">
        <ele>1029</ele>
        <time>2026-05-13T15:41:50.000Z</time>
      </trkpt>
      <trkpt lat="44.23095" lon="5.39726">
        <ele>1029</ele>
        <time>2026-05-13T15:41:51.000Z</time>
      </trkpt>
      <trkpt lat="44.23094" lon="5.39727">
        <ele>1029</ele>
        <time>2026-05-13T15:41:52.000Z</time>
      </trkpt>
      <trkpt lat="44.23093" lon="5.39728">
        <ele>1029</ele>
        <time>2026-05-13T15:41:53.000Z</time>
      </trkpt>
      <trkpt lat="44.23091" lon="5.39728">
        <ele>1028</ele>
        <time>2026-05-13T15:41:54.000Z</time>
      </trkpt>
      <trkpt lat="44.23091" lon="5.39729">
        <ele>1028</ele>
        <time>2026-05-13T15:41:55.000Z</time>
      </trkpt>
      <trkpt lat="44.2309" lon="5.3973">
        <ele>1029</ele>
        <time>2026-05-13T15:41:56.000Z</time>
      </trkpt>
      <trkpt lat="44.23088" lon="5.3973">
        <ele>1028</ele>
        <time>2026-05-13T15:41:57.000Z</time>
      </trkpt>
      <trkpt lat="44.23086" lon="5.3973">
        <ele>1028</ele>
        <time>2026-05-13T15:41:58.000Z</time>
      </trkpt>
      <trkpt lat="44.23085" lon="5.39732">
        <ele>1028</ele>
        <time>2026-05-13T15:41:59.000Z</time>
      </trkpt>
      <trkpt lat="44.23084" lon="5.39733">
        <ele>1027</ele>
        <time>2026-05-13T15:42:00.000Z</time>
      </trkpt>
      <trkpt lat="44.23082" lon="5.39733">
        <ele>1027</ele>
        <time>2026-05-13T15:42:01.000Z</time>
      </trkpt>
      <trkpt lat="44.23081" lon="5.39734">
        <ele>1027</ele>
        <time>2026-05-13T15:42:02.000Z</time>
      </trkpt>
      <trkpt lat="44.23079" lon="5.39736">
        <ele>1027</ele>
        <time>2026-05-13T15:42:03.000Z</time>
      </trkpt>
      <trkpt lat="44.23078" lon="5.39737">
        <ele>1027</ele>
        <time>2026-05-13T15:42:04.000Z</time>
      </trkpt>
      <trkpt lat="44.23077" lon="5.39738">
        <ele>1027</ele>
        <time>2026-05-13T15:42:05.000Z</time>
      </trkpt>
      <trkpt lat="44.23075" lon="5.39739">
        <ele>1027</ele>
        <time>2026-05-13T15:42:06.000Z</time>
      </trkpt>
      <trkpt lat="44.23073" lon="5.39739">
        <ele>1027</ele>
        <time>2026-05-13T15:42:07.000Z</time>
      </trkpt>
      <trkpt lat="44.23071" lon="5.39739">
        <ele>1028</ele>
        <time>2026-05-13T15:42:08.000Z</time>
      </trkpt>
      <trkpt lat="44.2307" lon="5.39741">
        <ele>1028</ele>
        <time>2026-05-13T15:42:09.000Z</time>
      </trkpt>
      <trkpt lat="44.23068" lon="5.39742">
        <ele>1028</ele>
        <time>2026-05-13T15:42:10.000Z</time>
      </trkpt>
      <trkpt lat="44.23067" lon="5.39744">
        <ele>1028</ele>
        <time>2026-05-13T15:42:11.000Z</time>
      </trkpt>
      <trkpt lat="44.23066" lon="5.39746">
        <ele>1028</ele>
        <time>2026-05-13T15:42:12.000Z</time>
      </trkpt>
      <trkpt lat="44.23065" lon="5.39748">
        <ele>1028</ele>
        <time>2026-05-13T15:42:13.000Z</time>
      </trkpt>
      <trkpt lat="44.23064" lon="5.39749">
        <ele>1028</ele>
        <time>2026-05-13T15:42:14.000Z</time>
      </trkpt>
      <trkpt lat="44.23061" lon="5.3975">
        <ele>1028</ele>
        <time>2026-05-13T15:42:15.000Z</time>
      </trkpt>
      <trkpt lat="44.2306" lon="5.39751">
        <ele>1028</ele>
        <time>2026-05-13T15:42:16.000Z</time>
      </trkpt>
      <trkpt lat="44.23057" lon="5.39752">
        <ele>1028</ele>
        <time>2026-05-13T15:42:17.000Z</time>
      </trkpt>
      <trkpt lat="44.23056" lon="5.39753">
        <ele>1029</ele>
        <time>2026-05-13T15:42:18.000Z</time>
      </trkpt>
      <trkpt lat="44.23054" lon="5.39754">
        <ele>1029</ele>
        <time>2026-05-13T15:42:19.000Z</time>
      </trkpt>
      <trkpt lat="44.23053" lon="5.39755">
        <ele>1030</ele>
        <time>2026-05-13T15:42:20.000Z</time>
      </trkpt>
      <trkpt lat="44.23052" lon="5.39757">
        <ele>1030</ele>
        <time>2026-05-13T15:42:21.000Z</time>
      </trkpt>
      <trkpt lat="44.2305" lon="5.39759">
        <ele>1031</ele>
        <time>2026-05-13T15:42:22.000Z</time>
      </trkpt>
      <trkpt lat="44.23048" lon="5.39761">
        <ele>1031</ele>
        <time>2026-05-13T15:42:23.000Z</time>
      </trkpt>
      <trkpt lat="44.23046" lon="5.39762">
        <ele>1031</ele>
        <time>2026-05-13T15:42:24.000Z</time>
      </trkpt>
      <trkpt lat="44.23044" lon="5.39764">
        <ele>1030</ele>
        <time>2026-05-13T15:42:25.000Z</time>
      </trkpt>
      <trkpt lat="44.23042" lon="5.39766">
        <ele>1030</ele>
        <time>2026-05-13T15:42:26.000Z</time>
      </trkpt>
      <trkpt lat="44.23039" lon="5.39769">
        <ele>1030</ele>
        <time>2026-05-13T15:42:27.000Z</time>
      </trkpt>
      <trkpt lat="44.23036" lon="5.39772">
        <ele>1031</ele>
        <time>2026-05-13T15:42:28.000Z</time>
      </trkpt>
      <trkpt lat="44.23034" lon="5.39774">
        <ele>1031</ele>
        <time>2026-05-13T15:42:29.000Z</time>
      </trkpt>
      <trkpt lat="44.23031" lon="5.39776">
        <ele>1031</ele>
        <time>2026-05-13T15:42:30.000Z</time>
      </trkpt>
      <trkpt lat="44.23029" lon="5.39778">
        <ele>1030</ele>
        <time>2026-05-13T15:42:31.000Z</time>
      </trkpt>
      <trkpt lat="44.23027" lon="5.39781">
        <ele>1030</ele>
        <time>2026-05-13T15:42:32.000Z</time>
      </trkpt>
      <trkpt lat="44.23025" lon="5.39783">
        <ele>1030</ele>
        <time>2026-05-13T15:42:33.000Z</time>
      </trkpt>
      <trkpt lat="44.23022" lon="5.39783">
        <ele>1031</ele>
        <time>2026-05-13T15:42:34.000Z</time>
      </trkpt>
      <trkpt lat="44.2302" lon="5.39783">
        <ele>1031</ele>
        <time>2026-05-13T15:42:35.000Z</time>
      </trkpt>
      <trkpt lat="44.23017" lon="5.39784">
        <ele>1032</ele>
        <time>2026-05-13T15:42:36.000Z</time>
      </trkpt>
      <trkpt lat="44.23015" lon="5.39784">
        <ele>1033</ele>
        <time>2026-05-13T15:42:37.000Z</time>
      </trkpt>
      <trkpt lat="44.23013" lon="5.39784">
        <ele>1033</ele>
        <time>2026-05-13T15:42:38.000Z</time>
      </trkpt>
      <trkpt lat="44.2301" lon="5.39784">
        <ele>1033</ele>
        <time>2026-05-13T15:42:39.000Z</time>
      </trkpt>
      <trkpt lat="44.23008" lon="5.39784">
        <ele>1033</ele>
        <time>2026-05-13T15:42:40.000Z</time>
      </trkpt>
      <trkpt lat="44.23006" lon="5.39786">
        <ele>1033</ele>
        <time>2026-05-13T15:42:41.000Z</time>
      </trkpt>
      <trkpt lat="44.23004" lon="5.39788">
        <ele>1032</ele>
        <time>2026-05-13T15:42:42.000Z</time>
      </trkpt>
      <trkpt lat="44.23002" lon="5.39789">
        <ele>1032</ele>
        <time>2026-05-13T15:42:43.000Z</time>
      </trkpt>
      <trkpt lat="44.23001" lon="5.3979">
        <ele>1033</ele>
        <time>2026-05-13T15:42:44.000Z</time>
      </trkpt>
      <trkpt lat="44.22999" lon="5.3979">
        <ele>1033</ele>
        <time>2026-05-13T15:42:45.000Z</time>
      </trkpt>
      <trkpt lat="44.22997" lon="5.39791">
        <ele>1033</ele>
        <time>2026-05-13T15:42:46.000Z</time>
      </trkpt>
      <trkpt lat="44.22996" lon="5.39792">
        <ele>1032</ele>
        <time>2026-05-13T15:42:47.000Z</time>
      </trkpt>
      <trkpt lat="44.22994" lon="5.39793">
        <ele>1032</ele>
        <time>2026-05-13T15:42:48.000Z</time>
      </trkpt>
      <trkpt lat="44.22991" lon="5.39793">
        <ele>1032</ele>
        <time>2026-05-13T15:42:49.000Z</time>
      </trkpt>
      <trkpt lat="44.2299" lon="5.39794">
        <ele>1031</ele>
        <time>2026-05-13T15:42:50.000Z</time>
      </trkpt>
      <trkpt lat="44.22988" lon="5.39795">
        <ele>1031</ele>
        <time>2026-05-13T15:42:51.000Z</time>
      </trkpt>
      <trkpt lat="44.22987" lon="5.39796">
        <ele>1031</ele>
        <time>2026-05-13T15:42:52.000Z</time>
      </trkpt>
      <trkpt lat="44.22985" lon="5.39797">
        <ele>1031</ele>
        <time>2026-05-13T15:42:53.000Z</time>
      </trkpt>
      <trkpt lat="44.22984" lon="5.39798">
        <ele>1031</ele>
        <time>2026-05-13T15:42:54.000Z</time>
      </trkpt>
      <trkpt lat="44.22983" lon="5.39799">
        <ele>1031</ele>
        <time>2026-05-13T15:42:55.000Z</time>
      </trkpt>
      <trkpt lat="44.22981" lon="5.398">
        <ele>1030</ele>
        <time>2026-05-13T15:42:56.000Z</time>
      </trkpt>
      <trkpt lat="44.22979" lon="5.39803">
        <ele>1028</ele>
        <time>2026-05-13T15:42:57.000Z</time>
      </trkpt>
      <trkpt lat="44.22976" lon="5.39806">
        <ele>1027</ele>
        <time>2026-05-13T15:42:58.000Z</time>
      </trkpt>
      <trkpt lat="44.22973" lon="5.39808">
        <ele>1026</ele>
        <time>2026-05-13T15:42:59.000Z</time>
      </trkpt>
      <trkpt lat="44.22972" lon="5.39811">
        <ele>1026</ele>
        <time>2026-05-13T15:43:00.000Z</time>
      </trkpt>
      <trkpt lat="44.22971" lon="5.39814">
        <ele>1025</ele>
        <time>2026-05-13T15:43:01.000Z</time>
      </trkpt>
      <trkpt lat="44.22969" lon="5.39818">
        <ele>1026</ele>
        <time>2026-05-13T15:43:02.000Z</time>
      </trkpt>
      <trkpt lat="44.22967" lon="5.39823">
        <ele>1026</ele>
        <time>2026-05-13T15:43:03.000Z</time>
      </trkpt>
      <trkpt lat="44.22965" lon="5.39827">
        <ele>1027</ele>
        <time>2026-05-13T15:43:04.000Z</time>
      </trkpt>
      <trkpt lat="44.22962" lon="5.3983">
        <ele>1028</ele>
        <time>2026-05-13T15:43:05.000Z</time>
      </trkpt>
      <trkpt lat="44.2296" lon="5.39833">
        <ele>1029</ele>
        <time>2026-05-13T15:43:06.000Z</time>
      </trkpt>
      <trkpt lat="44.22957" lon="5.39835">
        <ele>1029</ele>
        <time>2026-05-13T15:43:07.000Z</time>
      </trkpt>
      <trkpt lat="44.22955" lon="5.39836">
        <ele>1030</ele>
        <time>2026-05-13T15:43:08.000Z</time>
      </trkpt>
      <trkpt lat="44.22954" lon="5.39838">
        <ele>1031</ele>
        <time>2026-05-13T15:43:09.000Z</time>
      </trkpt>
      <trkpt lat="44.22952" lon="5.3984">
        <ele>1031</ele>
        <time>2026-05-13T15:43:10.000Z</time>
      </trkpt>
      <trkpt lat="44.2295" lon="5.39841">
        <ele>1032</ele>
        <time>2026-05-13T15:43:11.000Z</time>
      </trkpt>
      <trkpt lat="44.22948" lon="5.39843">
        <ele>1032</ele>
        <time>2026-05-13T15:43:12.000Z</time>
      </trkpt>
      <trkpt lat="44.22946" lon="5.39844">
        <ele>1032</ele>
        <time>2026-05-13T15:43:13.000Z</time>
      </trkpt>
      <trkpt lat="44.22944" lon="5.39844">
        <ele>1033</ele>
        <time>2026-05-13T15:43:14.000Z</time>
      </trkpt>
      <trkpt lat="44.22943" lon="5.39845">
        <ele>1033</ele>
        <time>2026-05-13T15:43:15.000Z</time>
      </trkpt>
      <trkpt lat="44.22941" lon="5.39845">
        <ele>1033</ele>
        <time>2026-05-13T15:43:16.000Z</time>
      </trkpt>
      <trkpt lat="44.2294" lon="5.39845">
        <ele>1034</ele>
        <time>2026-05-13T15:43:17.000Z</time>
      </trkpt>
      <trkpt lat="44.22938" lon="5.39846">
        <ele>1034</ele>
        <time>2026-05-13T15:43:18.000Z</time>
      </trkpt>
      <trkpt lat="44.22937" lon="5.39846">
        <ele>1035</ele>
        <time>2026-05-13T15:43:19.000Z</time>
      </trkpt>
      <trkpt lat="44.22936" lon="5.39848">
        <ele>1035</ele>
        <time>2026-05-13T15:43:20.000Z</time>
      </trkpt>
      <trkpt lat="44.22935" lon="5.39848">
        <ele>1035</ele>
        <time>2026-05-13T15:43:21.000Z</time>
      </trkpt>
      <trkpt lat="44.22935" lon="5.39849">
        <ele>1036</ele>
        <time>2026-05-13T15:43:22.000Z</time>
      </trkpt>
      <trkpt lat="44.22934" lon="5.39849">
        <ele>1036</ele>
        <time>2026-05-13T15:43:23.000Z</time>
      </trkpt>
      <trkpt lat="44.22932" lon="5.3985">
        <ele>1036</ele>
        <time>2026-05-13T15:43:24.000Z</time>
      </trkpt>
      <trkpt lat="44.22931" lon="5.3985">
        <ele>1037</ele>
        <time>2026-05-13T15:43:25.000Z</time>
      </trkpt>
      <trkpt lat="44.2293" lon="5.39851">
        <ele>1037</ele>
        <time>2026-05-13T15:43:26.000Z</time>
      </trkpt>
      <trkpt lat="44.22929" lon="5.39852">
        <ele>1037</ele>
        <time>2026-05-13T15:43:27.000Z</time>
      </trkpt>
      <trkpt lat="44.22928" lon="5.39852">
        <ele>1037</ele>
        <time>2026-05-13T15:43:28.000Z</time>
      </trkpt>
      <trkpt lat="44.22927" lon="5.39853">
        <ele>1037</ele>
        <time>2026-05-13T15:43:29.000Z</time>
      </trkpt>
      <trkpt lat="44.22927" lon="5.39853">
        <ele>1038</ele>
        <time>2026-05-13T15:43:30.000Z</time>
      </trkpt>
      <trkpt lat="44.22925" lon="5.39854">
        <ele>1038</ele>
        <time>2026-05-13T15:43:31.000Z</time>
      </trkpt>
      <trkpt lat="44.22925" lon="5.39855">
        <ele>1039</ele>
        <time>2026-05-13T15:43:32.000Z</time>
      </trkpt>
      <trkpt lat="44.22924" lon="5.39855">
        <ele>1040</ele>
        <time>2026-05-13T15:43:33.000Z</time>
      </trkpt>
      <trkpt lat="44.22923" lon="5.39855">
        <ele>1040</ele>
        <time>2026-05-13T15:43:34.000Z</time>
      </trkpt>
      <trkpt lat="44.22922" lon="5.39855">
        <ele>1039</ele>
        <time>2026-05-13T15:43:35.000Z</time>
      </trkpt>
      <trkpt lat="44.22921" lon="5.39856">
        <ele>1040</ele>
        <time>2026-05-13T15:43:36.000Z</time>
      </trkpt>
      <trkpt lat="44.2292" lon="5.39856">
        <ele>1040</ele>
        <time>2026-05-13T15:43:37.000Z</time>
      </trkpt>
      <trkpt lat="44.22919" lon="5.39858">
        <ele>1040</ele>
        <time>2026-05-13T15:43:38.000Z</time>
      </trkpt>
      <trkpt lat="44.22918" lon="5.39859">
        <ele>1041</ele>
        <time>2026-05-13T15:43:39.000Z</time>
      </trkpt>
      <trkpt lat="44.22916" lon="5.3986">
        <ele>1041</ele>
        <time>2026-05-13T15:43:40.000Z</time>
      </trkpt>
      <trkpt lat="44.22915" lon="5.39861">
        <ele>1041</ele>
        <time>2026-05-13T15:43:41.000Z</time>
      </trkpt>
      <trkpt lat="44.22914" lon="5.39862">
        <ele>1042</ele>
        <time>2026-05-13T15:43:42.000Z</time>
      </trkpt>
      <trkpt lat="44.22913" lon="5.39863">
        <ele>1042</ele>
        <time>2026-05-13T15:43:43.000Z</time>
      </trkpt>
      <trkpt lat="44.22912" lon="5.39864">
        <ele>1042</ele>
        <time>2026-05-13T15:43:44.000Z</time>
      </trkpt>
      <trkpt lat="44.2291" lon="5.39865">
        <ele>1042</ele>
        <time>2026-05-13T15:43:45.000Z</time>
      </trkpt>
      <trkpt lat="44.22909" lon="5.39866">
        <ele>1041</ele>
        <time>2026-05-13T15:43:46.000Z</time>
      </trkpt>
      <trkpt lat="44.22908" lon="5.39866">
        <ele>1042</ele>
        <time>2026-05-13T15:43:47.000Z</time>
      </trkpt>
      <trkpt lat="44.22906" lon="5.39866">
        <ele>1041</ele>
        <time>2026-05-13T15:43:48.000Z</time>
      </trkpt>
      <trkpt lat="44.22905" lon="5.39867">
        <ele>1042</ele>
        <time>2026-05-13T15:43:49.000Z</time>
      </trkpt>
      <trkpt lat="44.22904" lon="5.39868">
        <ele>1042</ele>
        <time>2026-05-13T15:43:50.000Z</time>
      </trkpt>
      <trkpt lat="44.22903" lon="5.39868">
        <ele>1042</ele>
        <time>2026-05-13T15:43:51.000Z</time>
      </trkpt>
      <trkpt lat="44.22902" lon="5.39868">
        <ele>1042</ele>
        <time>2026-05-13T15:43:52.000Z</time>
      </trkpt>
      <trkpt lat="44.22902" lon="5.39869">
        <ele>1043</ele>
        <time>2026-05-13T15:43:53.000Z</time>
      </trkpt>
      <trkpt lat="44.22901" lon="5.39869">
        <ele>1043</ele>
        <time>2026-05-13T15:43:54.000Z</time>
      </trkpt>
      <trkpt lat="44.229" lon="5.3987">
        <ele>1044</ele>
        <time>2026-05-13T15:43:55.000Z</time>
      </trkpt>
      <trkpt lat="44.22899" lon="5.39871">
        <ele>1043</ele>
        <time>2026-05-13T15:43:56.000Z</time>
      </trkpt>
      <trkpt lat="44.22898" lon="5.39871">
        <ele>1043</ele>
        <time>2026-05-13T15:43:57.000Z</time>
      </trkpt>
      <trkpt lat="44.22897" lon="5.39872">
        <ele>1043</ele>
        <time>2026-05-13T15:43:58.000Z</time>
      </trkpt>
      <trkpt lat="44.22896" lon="5.39872">
        <ele>1043</ele>
        <time>2026-05-13T15:43:59.000Z</time>
      </trkpt>
      <trkpt lat="44.22896" lon="5.39873">
        <ele>1042</ele>
        <time>2026-05-13T15:44:00.000Z</time>
      </trkpt>
      <trkpt lat="44.22895" lon="5.39873">
        <ele>1042</ele>
        <time>2026-05-13T15:44:01.000Z</time>
      </trkpt>
      <trkpt lat="44.22893" lon="5.39874">
        <ele>1043</ele>
        <time>2026-05-13T15:44:02.000Z</time>
      </trkpt>
      <trkpt lat="44.22892" lon="5.39875">
        <ele>1043</ele>
        <time>2026-05-13T15:44:03.000Z</time>
      </trkpt>
      <trkpt lat="44.22891" lon="5.39875">
        <ele>1043</ele>
        <time>2026-05-13T15:44:04.000Z</time>
      </trkpt>
      <trkpt lat="44.22891" lon="5.39876">
        <ele>1043</ele>
        <time>2026-05-13T15:44:05.000Z</time>
      </trkpt>
      <trkpt lat="44.2289" lon="5.39877">
        <ele>1044</ele>
        <time>2026-05-13T15:44:06.000Z</time>
      </trkpt>
      <trkpt lat="44.22889" lon="5.39877">
        <ele>1044</ele>
        <time>2026-05-13T15:44:07.000Z</time>
      </trkpt>
      <trkpt lat="44.22888" lon="5.39878">
        <ele>1044</ele>
        <time>2026-05-13T15:44:08.000Z</time>
      </trkpt>
      <trkpt lat="44.22887" lon="5.39878">
        <ele>1044</ele>
        <time>2026-05-13T15:44:09.000Z</time>
      </trkpt>
      <trkpt lat="44.22887" lon="5.39879">
        <ele>1044</ele>
        <time>2026-05-13T15:44:10.000Z</time>
      </trkpt>
      <trkpt lat="44.22885" lon="5.3988">
        <ele>1044</ele>
        <time>2026-05-13T15:44:11.000Z</time>
      </trkpt>
      <trkpt lat="44.22884" lon="5.3988">
        <ele>1044</ele>
        <time>2026-05-13T15:44:12.000Z</time>
      </trkpt>
      <trkpt lat="44.22883" lon="5.3988">
        <ele>1044</ele>
        <time>2026-05-13T15:44:13.000Z</time>
      </trkpt>
      <trkpt lat="44.22882" lon="5.3988">
        <ele>1044</ele>
        <time>2026-05-13T15:44:14.000Z</time>
      </trkpt>
      <trkpt lat="44.22881" lon="5.3988">
        <ele>1044</ele>
        <time>2026-05-13T15:44:15.000Z</time>
      </trkpt>
      <trkpt lat="44.2288" lon="5.39881">
        <ele>1045</ele>
        <time>2026-05-13T15:44:16.000Z</time>
      </trkpt>
      <trkpt lat="44.22878" lon="5.39882">
        <ele>1045</ele>
        <time>2026-05-13T15:44:17.000Z</time>
      </trkpt>
      <trkpt lat="44.22878" lon="5.39883">
        <ele>1045</ele>
        <time>2026-05-13T15:44:18.000Z</time>
      </trkpt>
      <trkpt lat="44.22876" lon="5.39884">
        <ele>1045</ele>
        <time>2026-05-13T15:44:19.000Z</time>
      </trkpt>
      <trkpt lat="44.22875" lon="5.39884">
        <ele>1045</ele>
        <time>2026-05-13T15:44:20.000Z</time>
      </trkpt>
      <trkpt lat="44.22875" lon="5.39885">
        <ele>1045</ele>
        <time>2026-05-13T15:44:21.000Z</time>
      </trkpt>
      <trkpt lat="44.22873" lon="5.39886">
        <ele>1044</ele>
        <time>2026-05-13T15:44:22.000Z</time>
      </trkpt>
      <trkpt lat="44.22872" lon="5.39886">
        <ele>1044</ele>
        <time>2026-05-13T15:44:23.000Z</time>
      </trkpt>
      <trkpt lat="44.22871" lon="5.39887">
        <ele>1045</ele>
        <time>2026-05-13T15:44:24.000Z</time>
      </trkpt>
      <trkpt lat="44.2287" lon="5.39887">
        <ele>1045</ele>
        <time>2026-05-13T15:44:25.000Z</time>
      </trkpt>
      <trkpt lat="44.22869" lon="5.39887">
        <ele>1045</ele>
        <time>2026-05-13T15:44:26.000Z</time>
      </trkpt>
      <trkpt lat="44.22868" lon="5.39887">
        <ele>1046</ele>
        <time>2026-05-13T15:44:27.000Z</time>
      </trkpt>
      <trkpt lat="44.22866" lon="5.39887">
        <ele>1046</ele>
        <time>2026-05-13T15:44:28.000Z</time>
      </trkpt>
      <trkpt lat="44.22865" lon="5.39888">
        <ele>1046</ele>
        <time>2026-05-13T15:44:29.000Z</time>
      </trkpt>
      <trkpt lat="44.22864" lon="5.39888">
        <ele>1046</ele>
        <time>2026-05-13T15:44:30.000Z</time>
      </trkpt>
      <trkpt lat="44.22863" lon="5.39889">
        <ele>1047</ele>
        <time>2026-05-13T15:44:31.000Z</time>
      </trkpt>
      <trkpt lat="44.22862" lon="5.39889">
        <ele>1047</ele>
        <time>2026-05-13T15:44:32.000Z</time>
      </trkpt>
      <trkpt lat="44.22861" lon="5.39889">
        <ele>1047</ele>
        <time>2026-05-13T15:44:33.000Z</time>
      </trkpt>
      <trkpt lat="44.2286" lon="5.39889">
        <ele>1047</ele>
        <time>2026-05-13T15:44:34.000Z</time>
      </trkpt>
      <trkpt lat="44.22859" lon="5.39889">
        <ele>1048</ele>
        <time>2026-05-13T15:44:35.000Z</time>
      </trkpt>
      <trkpt lat="44.22858" lon="5.39888">
        <ele>1048</ele>
        <time>2026-05-13T15:44:36.000Z</time>
      </trkpt>
      <trkpt lat="44.22856" lon="5.39889">
        <ele>1048</ele>
        <time>2026-05-13T15:44:37.000Z</time>
      </trkpt>
      <trkpt lat="44.22855" lon="5.39889">
        <ele>1049</ele>
        <time>2026-05-13T15:44:38.000Z</time>
      </trkpt>
      <trkpt lat="44.22854" lon="5.39889">
        <ele>1049</ele>
        <time>2026-05-13T15:44:39.000Z</time>
      </trkpt>
      <trkpt lat="44.22853" lon="5.39888">
        <ele>1050</ele>
        <time>2026-05-13T15:44:40.000Z</time>
      </trkpt>
      <trkpt lat="44.22852" lon="5.39889">
        <ele>1050</ele>
        <time>2026-05-13T15:44:41.000Z</time>
      </trkpt>
      <trkpt lat="44.2285" lon="5.39889">
        <ele>1050</ele>
        <time>2026-05-13T15:44:42.000Z</time>
      </trkpt>
      <trkpt lat="44.22849" lon="5.39889">
        <ele>1051</ele>
        <time>2026-05-13T15:44:43.000Z</time>
      </trkpt>
      <trkpt lat="44.22848" lon="5.3989">
        <ele>1050</ele>
        <time>2026-05-13T15:44:44.000Z</time>
      </trkpt>
      <trkpt lat="44.22847" lon="5.39889">
        <ele>1051</ele>
        <time>2026-05-13T15:44:45.000Z</time>
      </trkpt>
      <trkpt lat="44.22846" lon="5.39889">
        <ele>1052</ele>
        <time>2026-05-13T15:44:46.000Z</time>
      </trkpt>
      <trkpt lat="44.22844" lon="5.39889">
        <ele>1051</ele>
        <time>2026-05-13T15:44:47.000Z</time>
      </trkpt>
      <trkpt lat="44.22843" lon="5.39889">
        <ele>1051</ele>
        <time>2026-05-13T15:44:48.000Z</time>
      </trkpt>
      <trkpt lat="44.22842" lon="5.39889">
        <ele>1051</ele>
        <time>2026-05-13T15:44:49.000Z</time>
      </trkpt>
      <trkpt lat="44.22842" lon="5.39889">
        <ele>1051</ele>
        <time>2026-05-13T15:44:50.000Z</time>
      </trkpt>
      <trkpt lat="44.22841" lon="5.39889">
        <ele>1051</ele>
        <time>2026-05-13T15:44:51.000Z</time>
      </trkpt>
      <trkpt lat="44.2284" lon="5.3989">
        <ele>1051</ele>
        <time>2026-05-13T15:44:52.000Z</time>
      </trkpt>
      <trkpt lat="44.2284" lon="5.3989">
        <ele>1051</ele>
        <time>2026-05-13T15:44:53.000Z</time>
      </trkpt>
      <trkpt lat="44.2284" lon="5.39891">
        <ele>1051</ele>
        <time>2026-05-13T15:44:54.000Z</time>
      </trkpt>
      <trkpt lat="44.22839" lon="5.39891">
        <ele>1051</ele>
        <time>2026-05-13T15:44:55.000Z</time>
      </trkpt>
      <trkpt lat="44.22837" lon="5.39891">
        <ele>1051</ele>
        <time>2026-05-13T15:44:56.000Z</time>
      </trkpt>
      <trkpt lat="44.22836" lon="5.39892">
        <ele>1051</ele>
        <time>2026-05-13T15:44:57.000Z</time>
      </trkpt>
      <trkpt lat="44.22835" lon="5.39893">
        <ele>1051</ele>
        <time>2026-05-13T15:44:58.000Z</time>
      </trkpt>
      <trkpt lat="44.22834" lon="5.39894">
        <ele>1051</ele>
        <time>2026-05-13T15:44:59.000Z</time>
      </trkpt>
      <trkpt lat="44.22833" lon="5.39894">
        <ele>1052</ele>
        <time>2026-05-13T15:45:00.000Z</time>
      </trkpt>
      <trkpt lat="44.22832" lon="5.39893">
        <ele>1052</ele>
        <time>2026-05-13T15:45:01.000Z</time>
      </trkpt>
      <trkpt lat="44.22831" lon="5.39892">
        <ele>1052</ele>
        <time>2026-05-13T15:45:02.000Z</time>
      </trkpt>
      <trkpt lat="44.2283" lon="5.39891">
        <ele>1052</ele>
        <time>2026-05-13T15:45:03.000Z</time>
      </trkpt>
      <trkpt lat="44.22829" lon="5.3989">
        <ele>1052</ele>
        <time>2026-05-13T15:45:04.000Z</time>
      </trkpt>
      <trkpt lat="44.22828" lon="5.3989">
        <ele>1053</ele>
        <time>2026-05-13T15:45:05.000Z</time>
      </trkpt>
      <trkpt lat="44.22827" lon="5.39889">
        <ele>1054</ele>
        <time>2026-05-13T15:45:06.000Z</time>
      </trkpt>
      <trkpt lat="44.22826" lon="5.39889">
        <ele>1053</ele>
        <time>2026-05-13T15:45:07.000Z</time>
      </trkpt>
      <trkpt lat="44.22824" lon="5.39889">
        <ele>1053</ele>
        <time>2026-05-13T15:45:08.000Z</time>
      </trkpt>
      <trkpt lat="44.22823" lon="5.3989">
        <ele>1053</ele>
        <time>2026-05-13T15:45:09.000Z</time>
      </trkpt>
      <trkpt lat="44.22822" lon="5.3989">
        <ele>1054</ele>
        <time>2026-05-13T15:45:10.000Z</time>
      </trkpt>
      <trkpt lat="44.22821" lon="5.39891">
        <ele>1054</ele>
        <time>2026-05-13T15:45:11.000Z</time>
      </trkpt>
      <trkpt lat="44.2282" lon="5.39892">
        <ele>1054</ele>
        <time>2026-05-13T15:45:12.000Z</time>
      </trkpt>
      <trkpt lat="44.22819" lon="5.39893">
        <ele>1054</ele>
        <time>2026-05-13T15:45:13.000Z</time>
      </trkpt>
      <trkpt lat="44.22818" lon="5.39894">
        <ele>1053</ele>
        <time>2026-05-13T15:45:14.000Z</time>
      </trkpt>
      <trkpt lat="44.22816" lon="5.39895">
        <ele>1054</ele>
        <time>2026-05-13T15:45:15.000Z</time>
      </trkpt>
      <trkpt lat="44.22816" lon="5.39896">
        <ele>1053</ele>
        <time>2026-05-13T15:45:16.000Z</time>
      </trkpt>
      <trkpt lat="44.22815" lon="5.39896">
        <ele>1053</ele>
        <time>2026-05-13T15:45:17.000Z</time>
      </trkpt>
      <trkpt lat="44.22814" lon="5.39897">
        <ele>1053</ele>
        <time>2026-05-13T15:45:18.000Z</time>
      </trkpt>
      <trkpt lat="44.22813" lon="5.39897">
        <ele>1052</ele>
        <time>2026-05-13T15:45:19.000Z</time>
      </trkpt>
      <trkpt lat="44.22811" lon="5.39897">
        <ele>1052</ele>
        <time>2026-05-13T15:45:20.000Z</time>
      </trkpt>
      <trkpt lat="44.22811" lon="5.39896">
        <ele>1052</ele>
        <time>2026-05-13T15:45:21.000Z</time>
      </trkpt>
      <trkpt lat="44.2281" lon="5.39894">
        <ele>1052</ele>
        <time>2026-05-13T15:45:22.000Z</time>
      </trkpt>
      <trkpt lat="44.22808" lon="5.39894">
        <ele>1052</ele>
        <time>2026-05-13T15:45:23.000Z</time>
      </trkpt>
      <trkpt lat="44.22807" lon="5.39894">
        <ele>1052</ele>
        <time>2026-05-13T15:45:24.000Z</time>
      </trkpt>
      <trkpt lat="44.22805" lon="5.39894">
        <ele>1052</ele>
        <time>2026-05-13T15:45:25.000Z</time>
      </trkpt>
      <trkpt lat="44.22804" lon="5.39894">
        <ele>1053</ele>
        <time>2026-05-13T15:45:26.000Z</time>
      </trkpt>
      <trkpt lat="44.22803" lon="5.39893">
        <ele>1053</ele>
        <time>2026-05-13T15:45:27.000Z</time>
      </trkpt>
      <trkpt lat="44.22802" lon="5.39893">
        <ele>1053</ele>
        <time>2026-05-13T15:45:28.000Z</time>
      </trkpt>
      <trkpt lat="44.22801" lon="5.39893">
        <ele>1052</ele>
        <time>2026-05-13T15:45:29.000Z</time>
      </trkpt>
      <trkpt lat="44.22799" lon="5.39894">
        <ele>1053</ele>
        <time>2026-05-13T15:45:30.000Z</time>
      </trkpt>
      <trkpt lat="44.22798" lon="5.39895">
        <ele>1053</ele>
        <time>2026-05-13T15:45:31.000Z</time>
      </trkpt>
      <trkpt lat="44.22797" lon="5.39894">
        <ele>1053</ele>
        <time>2026-05-13T15:45:32.000Z</time>
      </trkpt>
      <trkpt lat="44.22795" lon="5.39894">
        <ele>1053</ele>
        <time>2026-05-13T15:45:33.000Z</time>
      </trkpt>
      <trkpt lat="44.22794" lon="5.39894">
        <ele>1053</ele>
        <time>2026-05-13T15:45:34.000Z</time>
      </trkpt>
      <trkpt lat="44.22793" lon="5.39893">
        <ele>1052</ele>
        <time>2026-05-13T15:45:35.000Z</time>
      </trkpt>
      <trkpt lat="44.22791" lon="5.39893">
        <ele>1052</ele>
        <time>2026-05-13T15:45:36.000Z</time>
      </trkpt>
      <trkpt lat="44.2279" lon="5.39894">
        <ele>1052</ele>
        <time>2026-05-13T15:45:37.000Z</time>
      </trkpt>
      <trkpt lat="44.2279" lon="5.39896">
        <ele>1051</ele>
        <time>2026-05-13T15:45:38.000Z</time>
      </trkpt>
      <trkpt lat="44.22788" lon="5.39897">
        <ele>1050</ele>
        <time>2026-05-13T15:45:39.000Z</time>
      </trkpt>
      <trkpt lat="44.22788" lon="5.39899">
        <ele>1050</ele>
        <time>2026-05-13T15:45:40.000Z</time>
      </trkpt>
      <trkpt lat="44.22787" lon="5.39901">
        <ele>1050</ele>
        <time>2026-05-13T15:45:41.000Z</time>
      </trkpt>
      <trkpt lat="44.22786" lon="5.39902">
        <ele>1051</ele>
        <time>2026-05-13T15:45:42.000Z</time>
      </trkpt>
      <trkpt lat="44.22785" lon="5.39903">
        <ele>1051</ele>
        <time>2026-05-13T15:45:43.000Z</time>
      </trkpt>
      <trkpt lat="44.22783" lon="5.39905">
        <ele>1051</ele>
        <time>2026-05-13T15:45:44.000Z</time>
      </trkpt>
      <trkpt lat="44.22782" lon="5.39907">
        <ele>1051</ele>
        <time>2026-05-13T15:45:45.000Z</time>
      </trkpt>
      <trkpt lat="44.2278" lon="5.39909">
        <ele>1050</ele>
        <time>2026-05-13T15:45:46.000Z</time>
      </trkpt>
      <trkpt lat="44.22778" lon="5.3991">
        <ele>1050</ele>
        <time>2026-05-13T15:45:47.000Z</time>
      </trkpt>
      <trkpt lat="44.22776" lon="5.3991">
        <ele>1050</ele>
        <time>2026-05-13T15:45:48.000Z</time>
      </trkpt>
      <trkpt lat="44.22774" lon="5.3991">
        <ele>1050</ele>
        <time>2026-05-13T15:45:49.000Z</time>
      </trkpt>
      <trkpt lat="44.22772" lon="5.3991">
        <ele>1050</ele>
        <time>2026-05-13T15:45:50.000Z</time>
      </trkpt>
      <trkpt lat="44.22771" lon="5.39908">
        <ele>1050</ele>
        <time>2026-05-13T15:45:51.000Z</time>
      </trkpt>
      <trkpt lat="44.22769" lon="5.39907">
        <ele>1051</ele>
        <time>2026-05-13T15:45:52.000Z</time>
      </trkpt>
      <trkpt lat="44.22768" lon="5.39905">
        <ele>1050</ele>
        <time>2026-05-13T15:45:53.000Z</time>
      </trkpt>
      <trkpt lat="44.22766" lon="5.39904">
        <ele>1051</ele>
        <time>2026-05-13T15:45:54.000Z</time>
      </trkpt>
      <trkpt lat="44.22765" lon="5.39903">
        <ele>1051</ele>
        <time>2026-05-13T15:45:55.000Z</time>
      </trkpt>
      <trkpt lat="44.22764" lon="5.39901">
        <ele>1051</ele>
        <time>2026-05-13T15:45:56.000Z</time>
      </trkpt>
      <trkpt lat="44.22763" lon="5.39899">
        <ele>1051</ele>
        <time>2026-05-13T15:45:57.000Z</time>
      </trkpt>
      <trkpt lat="44.22762" lon="5.39898">
        <ele>1051</ele>
        <time>2026-05-13T15:45:58.000Z</time>
      </trkpt>
      <trkpt lat="44.22761" lon="5.39896">
        <ele>1051</ele>
        <time>2026-05-13T15:45:59.000Z</time>
      </trkpt>
      <trkpt lat="44.2276" lon="5.39894">
        <ele>1051</ele>
        <time>2026-05-13T15:46:00.000Z</time>
      </trkpt>
      <trkpt lat="44.22758" lon="5.39892">
        <ele>1051</ele>
        <time>2026-05-13T15:46:01.000Z</time>
      </trkpt>
      <trkpt lat="44.22757" lon="5.3989">
        <ele>1050</ele>
        <time>2026-05-13T15:46:02.000Z</time>
      </trkpt>
      <trkpt lat="44.22756" lon="5.39887">
        <ele>1050</ele>
        <time>2026-05-13T15:46:03.000Z</time>
      </trkpt>
      <trkpt lat="44.22755" lon="5.39886">
        <ele>1050</ele>
        <time>2026-05-13T15:46:04.000Z</time>
      </trkpt>
      <trkpt lat="44.22754" lon="5.39884">
        <ele>1049</ele>
        <time>2026-05-13T15:46:05.000Z</time>
      </trkpt>
      <trkpt lat="44.22752" lon="5.39884">
        <ele>1050</ele>
        <time>2026-05-13T15:46:06.000Z</time>
      </trkpt>
      <trkpt lat="44.22751" lon="5.39884">
        <ele>1050</ele>
        <time>2026-05-13T15:46:07.000Z</time>
      </trkpt>
      <trkpt lat="44.22749" lon="5.39883">
        <ele>1050</ele>
        <time>2026-05-13T15:46:08.000Z</time>
      </trkpt>
      <trkpt lat="44.22748" lon="5.39881">
        <ele>1050</ele>
        <time>2026-05-13T15:46:09.000Z</time>
      </trkpt>
      <trkpt lat="44.22746" lon="5.3988">
        <ele>1050</ele>
        <time>2026-05-13T15:46:10.000Z</time>
      </trkpt>
      <trkpt lat="44.22745" lon="5.39879">
        <ele>1050</ele>
        <time>2026-05-13T15:46:11.000Z</time>
      </trkpt>
      <trkpt lat="44.22743" lon="5.39877">
        <ele>1050</ele>
        <time>2026-05-13T15:46:12.000Z</time>
      </trkpt>
      <trkpt lat="44.22742" lon="5.39875">
        <ele>1049</ele>
        <time>2026-05-13T15:46:13.000Z</time>
      </trkpt>
      <trkpt lat="44.2274" lon="5.39873">
        <ele>1049</ele>
        <time>2026-05-13T15:46:14.000Z</time>
      </trkpt>
      <trkpt lat="44.22737" lon="5.39871">
        <ele>1049</ele>
        <time>2026-05-13T15:46:15.000Z</time>
      </trkpt>
      <trkpt lat="44.22735" lon="5.39871">
        <ele>1049</ele>
        <time>2026-05-13T15:46:16.000Z</time>
      </trkpt>
      <trkpt lat="44.22734" lon="5.39871">
        <ele>1049</ele>
        <time>2026-05-13T15:46:17.000Z</time>
      </trkpt>
      <trkpt lat="44.22732" lon="5.39871">
        <ele>1049</ele>
        <time>2026-05-13T15:46:18.000Z</time>
      </trkpt>
      <trkpt lat="44.2273" lon="5.3987">
        <ele>1049</ele>
        <time>2026-05-13T15:46:19.000Z</time>
      </trkpt>
      <trkpt lat="44.22729" lon="5.3987">
        <ele>1049</ele>
        <time>2026-05-13T15:46:20.000Z</time>
      </trkpt>
      <trkpt lat="44.22728" lon="5.39868">
        <ele>1049</ele>
        <time>2026-05-13T15:46:21.000Z</time>
      </trkpt>
      <trkpt lat="44.22726" lon="5.39868">
        <ele>1049</ele>
        <time>2026-05-13T15:46:22.000Z</time>
      </trkpt>
      <trkpt lat="44.22725" lon="5.39867">
        <ele>1048</ele>
        <time>2026-05-13T15:46:23.000Z</time>
      </trkpt>
      <trkpt lat="44.22723" lon="5.39866">
        <ele>1048</ele>
        <time>2026-05-13T15:46:24.000Z</time>
      </trkpt>
      <trkpt lat="44.22722" lon="5.39867">
        <ele>1048</ele>
        <time>2026-05-13T15:46:25.000Z</time>
      </trkpt>
      <trkpt lat="44.22721" lon="5.39866">
        <ele>1048</ele>
        <time>2026-05-13T15:46:26.000Z</time>
      </trkpt>
      <trkpt lat="44.22719" lon="5.39865">
        <ele>1048</ele>
        <time>2026-05-13T15:46:27.000Z</time>
      </trkpt>
      <trkpt lat="44.22718" lon="5.39864">
        <ele>1048</ele>
        <time>2026-05-13T15:46:28.000Z</time>
      </trkpt>
      <trkpt lat="44.22716" lon="5.39864">
        <ele>1048</ele>
        <time>2026-05-13T15:46:29.000Z</time>
      </trkpt>
      <trkpt lat="44.22716" lon="5.39864">
        <ele>1049</ele>
        <time>2026-05-13T15:46:30.000Z</time>
      </trkpt>
      <trkpt lat="44.22716" lon="5.39863">
        <ele>1048</ele>
        <time>2026-05-13T15:46:31.000Z</time>
      </trkpt>
      <trkpt lat="44.22716" lon="5.39862">
        <ele>1049</ele>
        <time>2026-05-13T15:46:32.000Z</time>
      </trkpt>
      <trkpt lat="44.22715" lon="5.39861">
        <ele>1049</ele>
        <time>2026-05-13T15:46:33.000Z</time>
      </trkpt>
      <trkpt lat="44.22714" lon="5.39861">
        <ele>1050</ele>
        <time>2026-05-13T15:46:34.000Z</time>
      </trkpt>
      <trkpt lat="44.22713" lon="5.39861">
        <ele>1050</ele>
        <time>2026-05-13T15:46:35.000Z</time>
      </trkpt>
      <trkpt lat="44.22713" lon="5.39861">
        <ele>1051</ele>
        <time>2026-05-13T15:46:36.000Z</time>
      </trkpt>
      <trkpt lat="44.22712" lon="5.39861">
        <ele>1052</ele>
        <time>2026-05-13T15:46:37.000Z</time>
      </trkpt>
      <trkpt lat="44.22712" lon="5.3986">
        <ele>1052</ele>
        <time>2026-05-13T15:46:38.000Z</time>
      </trkpt>
      <trkpt lat="44.22711" lon="5.3986">
        <ele>1052</ele>
        <time>2026-05-13T15:46:39.000Z</time>
      </trkpt>
      <trkpt lat="44.22711" lon="5.39859">
        <ele>1053</ele>
        <time>2026-05-13T15:46:40.000Z</time>
      </trkpt>
      <trkpt lat="44.22711" lon="5.3986">
        <ele>1052</ele>
        <time>2026-05-13T15:46:41.000Z</time>
      </trkpt>
      <trkpt lat="44.22711" lon="5.3986">
        <ele>1052</ele>
        <time>2026-05-13T15:46:42.000Z</time>
      </trkpt>
      <trkpt lat="44.2271" lon="5.3986">
        <ele>1052</ele>
        <time>2026-05-13T15:46:43.000Z</time>
      </trkpt>
      <trkpt lat="44.2271" lon="5.3986">
        <ele>1052</ele>
        <time>2026-05-13T15:46:44.000Z</time>
      </trkpt>
      <trkpt lat="44.22709" lon="5.3986">
        <ele>1053</ele>
        <time>2026-05-13T15:46:45.000Z</time>
      </trkpt>
      <trkpt lat="44.22709" lon="5.39861">
        <ele>1053</ele>
        <time>2026-05-13T15:46:46.000Z</time>
      </trkpt>
      <trkpt lat="44.2271" lon="5.39862">
        <ele>1053</ele>
        <time>2026-05-13T15:46:47.000Z</time>
      </trkpt>
      <trkpt lat="44.2271" lon="5.39861">
        <ele>1053</ele>
        <time>2026-05-13T15:46:48.000Z</time>
      </trkpt>
      <trkpt lat="44.22711" lon="5.39862">
        <ele>1053</ele>
        <time>2026-05-13T15:46:49.000Z</time>
      </trkpt>
      <trkpt lat="44.22712" lon="5.39862">
        <ele>1052</ele>
        <time>2026-05-13T15:46:50.000Z</time>
      </trkpt>
      <trkpt lat="44.22712" lon="5.39862">
        <ele>1052</ele>
        <time>2026-05-13T15:46:51.000Z</time>
      </trkpt>
      <trkpt lat="44.22713" lon="5.39863">
        <ele>1051</ele>
        <time>2026-05-13T15:46:52.000Z</time>
      </trkpt>
      <trkpt lat="44.22714" lon="5.39864">
        <ele>1051</ele>
        <time>2026-05-13T15:46:53.000Z</time>
      </trkpt>
      <trkpt lat="44.22713" lon="5.39864">
        <ele>1051</ele>
        <time>2026-05-13T15:46:54.000Z</time>
      </trkpt>
      <trkpt lat="44.22714" lon="5.39865">
        <ele>1052</ele>
        <time>2026-05-13T15:46:55.000Z</time>
      </trkpt>
      <trkpt lat="44.22715" lon="5.39865">
        <ele>1052</ele>
        <time>2026-05-13T15:46:56.000Z</time>
      </trkpt>
      <trkpt lat="44.22716" lon="5.39865">
        <ele>1051</ele>
        <time>2026-05-13T15:46:57.000Z</time>
      </trkpt>
      <trkpt lat="44.22717" lon="5.39865">
        <ele>1050</ele>
        <time>2026-05-13T15:46:58.000Z</time>
      </trkpt>
      <trkpt lat="44.22717" lon="5.39865">
        <ele>1050</ele>
        <time>2026-05-13T15:46:59.000Z</time>
      </trkpt>
      <trkpt lat="44.22717" lon="5.39866">
        <ele>1051</ele>
        <time>2026-05-13T15:47:00.000Z</time>
      </trkpt>
      <trkpt lat="44.22718" lon="5.39866">
        <ele>1049</ele>
        <time>2026-05-13T15:47:01.000Z</time>
      </trkpt>
      <trkpt lat="44.22719" lon="5.39866">
        <ele>1048</ele>
        <time>2026-05-13T15:47:02.000Z</time>
      </trkpt>
      <trkpt lat="44.22719" lon="5.39867">
        <ele>1049</ele>
        <time>2026-05-13T15:47:03.000Z</time>
      </trkpt>
      <trkpt lat="44.2272" lon="5.39868">
        <ele>1049</ele>
        <time>2026-05-13T15:47:04.000Z</time>
      </trkpt>
      <trkpt lat="44.2272" lon="5.39869">
        <ele>1049</ele>
        <time>2026-05-13T15:47:05.000Z</time>
      </trkpt>
      <trkpt lat="44.22721" lon="5.3987">
        <ele>1049</ele>
        <time>2026-05-13T15:47:06.000Z</time>
      </trkpt>
      <trkpt lat="44.22721" lon="5.3987">
        <ele>1049</ele>
        <time>2026-05-13T15:47:07.000Z</time>
      </trkpt>
      <trkpt lat="44.22721" lon="5.3987">
        <ele>1049</ele>
        <time>2026-05-13T15:47:08.000Z</time>
      </trkpt>
      <trkpt lat="44.22721" lon="5.3987">
        <ele>1048</ele>
        <time>2026-05-13T15:47:09.000Z</time>
      </trkpt>
      <trkpt lat="44.22721" lon="5.3987">
        <ele>1048</ele>
        <time>2026-05-13T15:47:10.000Z</time>
      </trkpt>
      <trkpt lat="44.22721" lon="5.3987">
        <ele>1049</ele>
        <time>2026-05-13T15:47:11.000Z</time>
      </trkpt>
      <trkpt lat="44.22721" lon="5.3987">
        <ele>1049</ele>
        <time>2026-05-13T15:47:12.000Z</time>
      </trkpt>
      <trkpt lat="44.22721" lon="5.3987">
        <ele>1049</ele>
        <time>2026-05-13T15:47:13.000Z</time>
      </trkpt>
      <trkpt lat="44.22721" lon="5.3987">
        <ele>1049</ele>
        <time>2026-05-13T15:47:14.000Z</time>
      </trkpt>
      <trkpt lat="44.22722" lon="5.39871">
        <ele>1049</ele>
        <time>2026-05-13T15:47:15.000Z</time>
      </trkpt>
      <trkpt lat="44.22722" lon="5.39871">
        <ele>1049</ele>
        <time>2026-05-13T15:47:16.000Z</time>
      </trkpt>
      <trkpt lat="44.22722" lon="5.39872">
        <ele>1049</ele>
        <time>2026-05-13T15:47:17.000Z</time>
      </trkpt>
      <trkpt lat="44.22722" lon="5.39872">
        <ele>1048</ele>
        <time>2026-05-13T15:47:18.000Z</time>
      </trkpt>
      <trkpt lat="44.22722" lon="5.39871">
        <ele>1048</ele>
        <time>2026-05-13T15:47:19.000Z</time>
      </trkpt>
      <trkpt lat="44.22722" lon="5.39871">
        <ele>1048</ele>
        <time>2026-05-13T15:47:20.000Z</time>
      </trkpt>
      <trkpt lat="44.22722" lon="5.39871">
        <ele>1048</ele>
        <time>2026-05-13T15:47:21.000Z</time>
      </trkpt>
      <trkpt lat="44.22722" lon="5.39871">
        <ele>1048</ele>
        <time>2026-05-13T15:47:22.000Z</time>
      </trkpt>
      <trkpt lat="44.22722" lon="5.39871">
        <ele>1048</ele>
        <time>2026-05-13T15:47:23.000Z</time>
      </trkpt>
      <trkpt lat="44.22722" lon="5.39871">
        <ele>1048</ele>
        <time>2026-05-13T15:47:24.000Z</time>
      </trkpt>
      <trkpt lat="44.22722" lon="5.39871">
        <ele>1048</ele>
        <time>2026-05-13T15:47:25.000Z</time>
      </trkpt>
      <trkpt lat="44.22722" lon="5.39871">
        <ele>1048</ele>
        <time>2026-05-13T15:47:26.000Z</time>
      </trkpt>
      <trkpt lat="44.22722" lon="5.39871">
        <ele>1048</ele>
        <time>2026-05-13T15:47:27.000Z</time>
      </trkpt>
      <trkpt lat="44.22722" lon="5.39871">
        <ele>1048</ele>
        <time>2026-05-13T15:47:28.000Z</time>
      </trkpt>
      <trkpt lat="44.22722" lon="5.39871">
        <ele>1048</ele>
        <time>2026-05-13T15:47:29.000Z</time>
      </trkpt>
      <trkpt lat="44.22722" lon="5.39871">
        <ele>1048</ele>
        <time>2026-05-13T15:47:30.000Z</time>
      </trkpt>
      <trkpt lat="44.22722" lon="5.39871">
        <ele>1048</ele>
        <time>2026-05-13T15:47:31.000Z</time>
      </trkpt>
      <trkpt lat="44.22722" lon="5.39871">
        <ele>1048</ele>
        <time>2026-05-13T15:47:32.000Z</time>
      </trkpt>
      <trkpt lat="44.22722" lon="5.39871">
        <ele>1048</ele>
        <time>2026-05-13T15:47:33.000Z</time>
      </trkpt>
      <trkpt lat="44.22722" lon="5.39871">
        <ele>1048</ele>
        <time>2026-05-13T15:47:34.000Z</time>
      </trkpt>
      <trkpt lat="44.22722" lon="5.39871">
        <ele>1048</ele>
        <time>2026-05-13T15:47:35.000Z</time>
      </trkpt>
      <trkpt lat="44.22722" lon="5.39871">
        <ele>1048</ele>
        <time>2026-05-13T15:47:36.000Z</time>
      </trkpt>
      <trkpt lat="44.22722" lon="5.39871">
        <ele>1048</ele>
        <time>2026-05-13T15:47:37.000Z</time>
      </trkpt>
      <trkpt lat="44.22722" lon="5.39871">
        <ele>1048</ele>
        <time>2026-05-13T15:47:38.000Z</time>
      </trkpt>
      <trkpt lat="44.22722" lon="5.39871">
        <ele>1048</ele>
        <time>2026-05-13T15:47:39.000Z</time>
      </trkpt>
      <trkpt lat="44.22722" lon="5.39871">
        <ele>1048</ele>
        <time>2026-05-13T15:47:40.000Z</time>
      </trkpt>
      <trkpt lat="44.22722" lon="5.39871">
        <ele>1048</ele>
        <time>2026-05-13T15:47:41.000Z</time>
      </trkpt>
      <trkpt lat="44.22722" lon="5.39871">
        <ele>1048</ele>
        <time>2026-05-13T15:47:42.000Z</time>
      </trkpt>
      <trkpt lat="44.22722" lon="5.39871">
        <ele>1048</ele>
        <time>2026-05-13T15:47:43.000Z</time>
      </trkpt>
      <trkpt lat="44.22722" lon="5.39871">
        <ele>1048</ele>
        <time>2026-05-13T15:47:44.000Z</time>
      </trkpt>
      <trkpt lat="44.22722" lon="5.39871">
        <ele>1048</ele>
        <time>2026-05-13T15:47:45.000Z</time>
      </trkpt>
      <trkpt lat="44.22722" lon="5.39871">
        <ele>1048</ele>
        <time>2026-05-13T15:47:46.000Z</time>
      </trkpt>
      <trkpt lat="44.22722" lon="5.39871">
        <ele>1048</ele>
        <time>2026-05-13T15:47:47.000Z</time>
      </trkpt>
      <trkpt lat="44.22722" lon="5.39871">
        <ele>1048</ele>
        <time>2026-05-13T15:47:48.000Z</time>
      </trkpt>
      <trkpt lat="44.22722" lon="5.39871">
        <ele>1048</ele>
        <time>2026-05-13T15:47:49.000Z</time>
      </trkpt>
      <trkpt lat="44.22722" lon="5.39871">
        <ele>1048</ele>
        <time>2026-05-13T15:47:50.000Z</time>
      </trkpt>
      <trkpt lat="44.22722" lon="5.39871">
        <ele>1048</ele>
        <time>2026-05-13T15:47:51.000Z</time>
      </trkpt>
      <trkpt lat="44.22722" lon="5.39871">
        <ele>1048</ele>
        <time>2026-05-13T15:47:52.000Z</time>
      </trkpt>
      <trkpt lat="44.22722" lon="5.39871">
        <ele>1048</ele>
        <time>2026-05-13T15:47:53.000Z</time>
      </trkpt>
      <trkpt lat="44.22722" lon="5.39871">
        <ele>1048</ele>
        <time>2026-05-13T15:47:54.000Z</time>
      </trkpt>
      <trkpt lat="44.22722" lon="5.39871">
        <ele>1048</ele>
        <time>2026-05-13T15:47:55.000Z</time>
      </trkpt>
      <trkpt lat="44.22722" lon="5.39871">
        <ele>1048</ele>
        <time>2026-05-13T15:47:56.000Z</time>
      </trkpt>
      <trkpt lat="44.22722" lon="5.39871">
        <ele>1048</ele>
        <time>2026-05-13T15:47:57.000Z</time>
      </trkpt>
      <trkpt lat="44.22722" lon="5.39871">
        <ele>1048</ele>
        <time>2026-05-13T15:47:58.000Z</time>
      </trkpt>
      <trkpt lat="44.22722" lon="5.39871">
        <ele>1048</ele>
        <time>2026-05-13T15:47:59.000Z</time>
      </trkpt>
      <trkpt lat="44.22722" lon="5.39871">
        <ele>1048</ele>
        <time>2026-05-13T15:48:00.000Z</time>
      </trkpt>
      <trkpt lat="44.22722" lon="5.39871">
        <ele>1048</ele>
        <time>2026-05-13T15:48:01.000Z</time>
      </trkpt>
      <trkpt lat="44.22722" lon="5.39871">
        <ele>1048</ele>
        <time>2026-05-13T15:48:02.000Z</time>
      </trkpt>
      <trkpt lat="44.22722" lon="5.39871">
        <ele>1048</ele>
        <time>2026-05-13T15:48:03.000Z</time>
      </trkpt>
      <trkpt lat="44.22722" lon="5.39871">
        <ele>1048</ele>
        <time>2026-05-13T15:48:04.000Z</time>
      </trkpt>
      <trkpt lat="44.22722" lon="5.39871">
        <ele>1048</ele>
        <time>2026-05-13T15:48:05.000Z</time>
      </trkpt>
      <trkpt lat="44.22722" lon="5.39871">
        <ele>1048</ele>
        <time>2026-05-13T15:48:06.000Z</time>
      </trkpt>
      <trkpt lat="44.22722" lon="5.39871">
        <ele>1048</ele>
        <time>2026-05-13T15:48:07.000Z</time>
      </trkpt>
      <trkpt lat="44.22722" lon="5.39871">
        <ele>1048</ele>
        <time>2026-05-13T15:48:08.000Z</time>
      </trkpt>
      <trkpt lat="44.22722" lon="5.39871">
        <ele>1048</ele>
        <time>2026-05-13T15:48:09.000Z</time>
      </trkpt>
      <trkpt lat="44.22722" lon="5.39871">
        <ele>1048</ele>
        <time>2026-05-13T15:48:10.000Z</time>
      </trkpt>
      <trkpt lat="44.22722" lon="5.39871">
        <ele>1048</ele>
        <time>2026-05-13T15:48:11.000Z</time>
      </trkpt>
      <trkpt lat="44.22722" lon="5.39871">
        <ele>1048</ele>
        <time>2026-05-13T15:48:12.000Z</time>
      </trkpt>
      <trkpt lat="44.22722" lon="5.39871">
        <ele>1048</ele>
        <time>2026-05-13T15:48:13.000Z</time>
      </trkpt>
      <trkpt lat="44.22722" lon="5.39871">
        <ele>1048</ele>
        <time>2026-05-13T15:48:14.000Z</time>
      </trkpt>
      <trkpt lat="44.22722" lon="5.39871">
        <ele>1048</ele>
        <time>2026-05-13T15:48:15.000Z</time>
      </trkpt>
      <trkpt lat="44.22722" lon="5.39871">
        <ele>1048</ele>
        <time>2026-05-13T15:48:16.000Z</time>
      </trkpt>
      <trkpt lat="44.22722" lon="5.39871">
        <ele>1048</ele>
        <time>2026-05-13T15:48:17.000Z</time>
      </trkpt>
      <trkpt lat="44.22722" lon="5.39871">
        <ele>1048</ele>
        <time>2026-05-13T15:48:18.000Z</time>
      </trkpt>
      <trkpt lat="44.22722" lon="5.39871">
        <ele>1048</ele>
        <time>2026-05-13T15:48:19.000Z</time>
      </trkpt>
      <trkpt lat="44.22722" lon="5.39871">
        <ele>1048</ele>
        <time>2026-05-13T15:48:20.000Z</time>
      </trkpt>
      <trkpt lat="44.22722" lon="5.39871">
        <ele>1048</ele>
        <time>2026-05-13T15:48:21.000Z</time>
      </trkpt>
      <trkpt lat="44.22722" lon="5.39871">
        <ele>1048</ele>
        <time>2026-05-13T15:48:22.000Z</time>
      </trkpt>
      <trkpt lat="44.22722" lon="5.39871">
        <ele>1048</ele>
        <time>2026-05-13T15:48:23.000Z</time>
      </trkpt>
      <trkpt lat="44.22722" lon="5.39871">
        <ele>1048</ele>
        <time>2026-05-13T15:48:24.000Z</time>
      </trkpt>
      <trkpt lat="44.22722" lon="5.39871">
        <ele>1048</ele>
        <time>2026-05-13T15:48:25.000Z</time>
      </trkpt>
      <trkpt lat="44.22722" lon="5.39871">
        <ele>1048</ele>
        <time>2026-05-13T15:48:26.000Z</time>
      </trkpt>
      <trkpt lat="44.22722" lon="5.39871">
        <ele>1048</ele>
        <time>2026-05-13T15:48:27.000Z</time>
      </trkpt>
      <trkpt lat="44.22722" lon="5.39871">
        <ele>1048</ele>
        <time>2026-05-13T15:48:28.000Z</time>
      </trkpt>
      <trkpt lat="44.22722" lon="5.39871">
        <ele>1048</ele>
        <time>2026-05-13T15:48:29.000Z</time>
      </trkpt>
      <trkpt lat="44.22722" lon="5.39871">
        <ele>1048</ele>
        <time>2026-05-13T15:48:30.000Z</time>
      </trkpt>
      <trkpt lat="44.22722" lon="5.39871">
        <ele>1048</ele>
        <time>2026-05-13T15:48:31.000Z</time>
      </trkpt>
      <trkpt lat="44.22722" lon="5.39871">
        <ele>1048</ele>
        <time>2026-05-13T15:48:32.000Z</time>
      </trkpt>
      <trkpt lat="44.22722" lon="5.39871">
        <ele>1048</ele>
        <time>2026-05-13T15:48:33.000Z</time>
      </trkpt>
      <trkpt lat="44.22722" lon="5.39871">
        <ele>1048</ele>
        <time>2026-05-13T15:48:34.000Z</time>
      </trkpt>
      <trkpt lat="44.22722" lon="5.39871">
        <ele>1048</ele>
        <time>2026-05-13T15:48:35.000Z</time>
      </trkpt>
      <trkpt lat="44.22722" lon="5.39871">
        <ele>1048</ele>
        <time>2026-05-13T15:48:36.000Z</time>
      </trkpt>
      <trkpt lat="44.22722" lon="5.39871">
        <ele>1048</ele>
        <time>2026-05-13T15:48:37.000Z</time>
      </trkpt>
      <trkpt lat="44.22722" lon="5.39871">
        <ele>1048</ele>
        <time>2026-05-13T15:48:38.000Z</time>
      </trkpt>
      <trkpt lat="44.22722" lon="5.39871">
        <ele>1048</ele>
        <time>2026-05-13T15:48:39.000Z</time>
      </trkpt>
      <trkpt lat="44.22722" lon="5.39871">
        <ele>1048</ele>
        <time>2026-05-13T15:48:40.000Z</time>
      </trkpt>
      <trkpt lat="44.22722" lon="5.39871">
        <ele>1048</ele>
        <time>2026-05-13T15:48:41.000Z</time>
      </trkpt>
      <trkpt lat="44.22722" lon="5.39871">
        <ele>1048</ele>
        <time>2026-05-13T15:48:42.000Z</time>
      </trkpt>
      <trkpt lat="44.22722" lon="5.39871">
        <ele>1048</ele>
        <time>2026-05-13T15:48:43.000Z</time>
      </trkpt>
      <trkpt lat="44.22722" lon="5.39871">
        <ele>1048</ele>
        <time>2026-05-13T15:48:44.000Z</time>
      </trkpt>
      <trkpt lat="44.22722" lon="5.39871">
        <ele>1048</ele>
        <time>2026-05-13T15:48:45.000Z</time>
      </trkpt>
      <trkpt lat="44.22722" lon="5.39871">
        <ele>1048</ele>
        <time>2026-05-13T15:48:46.000Z</time>
      </trkpt>
      <trkpt lat="44.22722" lon="5.39871">
        <ele>1048</ele>
        <time>2026-05-13T15:48:47.000Z</time>
      </trkpt>
      <trkpt lat="44.22722" lon="5.39871">
        <ele>1048</ele>
        <time>2026-05-13T15:48:48.000Z</time>
      </trkpt>
      <trkpt lat="44.22722" lon="5.39871">
        <ele>1048</ele>
        <time>2026-05-13T15:48:49.000Z</time>
      </trkpt>
      <trkpt lat="44.22722" lon="5.39871">
        <ele>1048</ele>
        <time>2026-05-13T15:48:50.000Z</time>
      </trkpt>
      <trkpt lat="44.22722" lon="5.39871">
        <ele>1048</ele>
        <time>2026-05-13T15:48:51.000Z</time>
      </trkpt>
      <trkpt lat="44.22722" lon="5.39871">
        <ele>1048</ele>
        <time>2026-05-13T15:48:52.000Z</time>
      </trkpt>
      <trkpt lat="44.22722" lon="5.39871">
        <ele>1048</ele>
        <time>2026-05-13T15:48:53.000Z</time>
      </trkpt>
      <trkpt lat="44.22722" lon="5.39871">
        <ele>1048</ele>
        <time>2026-05-13T15:48:54.000Z</time>
      </trkpt>
      <trkpt lat="44.22722" lon="5.39871">
        <ele>1048</ele>
        <time>2026-05-13T15:48:55.000Z</time>
      </trkpt>
      <trkpt lat="44.22722" lon="5.39871">
        <ele>1048</ele>
        <time>2026-05-13T15:48:56.000Z</time>
      </trkpt>
      <trkpt lat="44.22722" lon="5.39871">
        <ele>1048</ele>
        <time>2026-05-13T15:48:57.000Z</time>
      </trkpt>
      <trkpt lat="44.22722" lon="5.39871">
        <ele>1048</ele>
        <time>2026-05-13T15:48:58.000Z</time>
      </trkpt>
      <trkpt lat="44.22722" lon="5.39871">
        <ele>1048</ele>
        <time>2026-05-13T15:48:59.000Z</time>
      </trkpt>
      <trkpt lat="44.22722" lon="5.39871">
        <ele>1048</ele>
        <time>2026-05-13T15:49:00.000Z</time>
      </trkpt>
      <trkpt lat="44.22722" lon="5.39871">
        <ele>1048</ele>
        <time>2026-05-13T15:49:01.000Z</time>
      </trkpt>
      <trkpt lat="44.22722" lon="5.39871">
        <ele>1048</ele>
        <time>2026-05-13T15:49:02.000Z</time>
      </trkpt>
      <trkpt lat="44.22722" lon="5.39871">
        <ele>1048</ele>
        <time>2026-05-13T15:49:03.000Z</time>
      </trkpt>
      <trkpt lat="44.22722" lon="5.39871">
        <ele>1048</ele>
        <time>2026-05-13T15:49:04.000Z</time>
      </trkpt>
      <trkpt lat="44.22722" lon="5.39871">
        <ele>1048</ele>
        <time>2026-05-13T15:49:05.000Z</time>
      </trkpt>
      <trkpt lat="44.22722" lon="5.39871">
        <ele>1048</ele>
        <time>2026-05-13T15:49:06.000Z</time>
      </trkpt>
      <trkpt lat="44.22722" lon="5.39871">
        <ele>1048</ele>
        <time>2026-05-13T15:49:07.000Z</time>
      </trkpt>
      <trkpt lat="44.22722" lon="5.39871">
        <ele>1048</ele>
        <time>2026-05-13T15:49:08.000Z</time>
      </trkpt>
      <trkpt lat="44.22722" lon="5.39871">
        <ele>1048</ele>
        <time>2026-05-13T15:49:09.000Z</time>
      </trkpt>
      <trkpt lat="44.22722" lon="5.39871">
        <ele>1048</ele>
        <time>2026-05-13T15:49:10.000Z</time>
      </trkpt>
      <trkpt lat="44.22722" lon="5.39871">
        <ele>1048</ele>
        <time>2026-05-13T15:49:11.000Z</time>
      </trkpt>
      <trkpt lat="44.22722" lon="5.39871">
        <ele>1048</ele>
        <time>2026-05-13T15:49:12.000Z</time>
      </trkpt>
      <trkpt lat="44.22722" lon="5.39871">
        <ele>1048</ele>
        <time>2026-05-13T15:49:13.000Z</time>
      </trkpt>
      <trkpt lat="44.22722" lon="5.39871">
        <ele>1048</ele>
        <time>2026-05-13T15:49:14.000Z</time>
      </trkpt>
      <trkpt lat="44.22722" lon="5.39871">
        <ele>1048</ele>
        <time>2026-05-13T15:49:15.000Z</time>
      </trkpt>
      <trkpt lat="44.22722" lon="5.39871">
        <ele>1048</ele>
        <time>2026-05-13T15:49:16.000Z</time>
      </trkpt>
      <trkpt lat="44.22722" lon="5.39871">
        <ele>1048</ele>
        <time>2026-05-13T15:49:17.000Z</time>
      </trkpt>
      <trkpt lat="44.22722" lon="5.39871">
        <ele>1048</ele>
        <time>2026-05-13T15:49:18.000Z</time>
      </trkpt>
      <trkpt lat="44.22722" lon="5.39871">
        <ele>1048</ele>
        <time>2026-05-13T15:49:19.000Z</time>
      </trkpt>
      <trkpt lat="44.22722" lon="5.39871">
        <ele>1048</ele>
        <time>2026-05-13T15:49:20.000Z</time>
      </trkpt>
      <trkpt lat="44.22722" lon="5.39871">
        <ele>1048</ele>
        <time>2026-05-13T15:49:21.000Z</time>
      </trkpt>
      <trkpt lat="44.22722" lon="5.39871">
        <ele>1048</ele>
        <time>2026-05-13T15:49:22.000Z</time>
      </trkpt>
      <trkpt lat="44.22722" lon="5.39871">
        <ele>1048</ele>
        <time>2026-05-13T15:49:23.000Z</time>
      </trkpt>
      <trkpt lat="44.22722" lon="5.39871">
        <ele>1048</ele>
        <time>2026-05-13T15:49:24.000Z</time>
      </trkpt>
      <trkpt lat="44.22722" lon="5.39871">
        <ele>1048</ele>
        <time>2026-05-13T15:49:25.000Z</time>
      </trkpt>
      <trkpt lat="44.22722" lon="5.39871">
        <ele>1048</ele>
        <time>2026-05-13T15:49:26.000Z</time>
      </trkpt>
      <trkpt lat="44.22722" lon="5.39871">
        <ele>1048</ele>
        <time>2026-05-13T15:49:27.000Z</time>
      </trkpt>
      <trkpt lat="44.22722" lon="5.39871">
        <ele>1048</ele>
        <time>2026-05-13T15:49:28.000Z</time>
      </trkpt>
      <trkpt lat="44.22722" lon="5.39871">
        <ele>1048</ele>
        <time>2026-05-13T15:49:29.000Z</time>
      </trkpt>
      <trkpt lat="44.22722" lon="5.39871">
        <ele>1048</ele>
        <time>2026-05-13T15:49:30.000Z</time>
      </trkpt>
      <trkpt lat="44.22722" lon="5.39871">
        <ele>1048</ele>
        <time>2026-05-13T15:49:31.000Z</time>
      </trkpt>
      <trkpt lat="44.22722" lon="5.39871">
        <ele>1048</ele>
        <time>2026-05-13T15:49:32.000Z</time>
      </trkpt>
      <trkpt lat="44.22722" lon="5.39871">
        <ele>1048</ele>
        <time>2026-05-13T15:49:33.000Z</time>
      </trkpt>
      <trkpt lat="44.22722" lon="5.39871">
        <ele>1048</ele>
        <time>2026-05-13T15:49:34.000Z</time>
      </trkpt>
      <trkpt lat="44.22722" lon="5.39871">
        <ele>1048</ele>
        <time>2026-05-13T15:49:35.000Z</time>
      </trkpt>
      <trkpt lat="44.22722" lon="5.39871">
        <ele>1048</ele>
        <time>2026-05-13T15:49:36.000Z</time>
      </trkpt>
      <trkpt lat="44.22722" lon="5.39871">
        <ele>1048</ele>
        <time>2026-05-13T15:49:37.000Z</time>
      </trkpt>
      <trkpt lat="44.22722" lon="5.39871">
        <ele>1048</ele>
        <time>2026-05-13T15:49:38.000Z</time>
      </trkpt>
      <trkpt lat="44.22722" lon="5.39871">
        <ele>1048</ele>
        <time>2026-05-13T15:49:39.000Z</time>
      </trkpt>
      <trkpt lat="44.22722" lon="5.39871">
        <ele>1048</ele>
        <time>2026-05-13T15:49:40.000Z</time>
      </trkpt>
      <trkpt lat="44.22722" lon="5.39871">
        <ele>1048</ele>
        <time>2026-05-13T15:49:41.000Z</time>
      </trkpt>
      <trkpt lat="44.22722" lon="5.39871">
        <ele>1048</ele>
        <time>2026-05-13T15:49:42.000Z</time>
      </trkpt>
      <trkpt lat="44.22722" lon="5.39871">
        <ele>1048</ele>
        <time>2026-05-13T15:49:43.000Z</time>
      </trkpt>
      <trkpt lat="44.22722" lon="5.39871">
        <ele>1048</ele>
        <time>2026-05-13T15:49:44.000Z</time>
      </trkpt>
      <trkpt lat="44.22722" lon="5.39871">
        <ele>1048</ele>
        <time>2026-05-13T15:49:45.000Z</time>
      </trkpt>
      <trkpt lat="44.22722" lon="5.39871">
        <ele>1048</ele>
        <time>2026-05-13T15:49:46.000Z</time>
      </trkpt>
      <trkpt lat="44.22722" lon="5.39871">
        <ele>1048</ele>
        <time>2026-05-13T15:49:47.000Z</time>
      </trkpt>
      <trkpt lat="44.22722" lon="5.39871">
        <ele>1048</ele>
        <time>2026-05-13T15:49:48.000Z</time>
      </trkpt>
      <trkpt lat="44.22722" lon="5.39871">
        <ele>1048</ele>
        <time>2026-05-13T15:49:49.000Z</time>
      </trkpt>
      <trkpt lat="44.22722" lon="5.39871">
        <ele>1048</ele>
        <time>2026-05-13T15:49:50.000Z</time>
      </trkpt>
      <trkpt lat="44.22722" lon="5.39871">
        <ele>1048</ele>
        <time>2026-05-13T15:49:51.000Z</time>
      </trkpt>
      <trkpt lat="44.22722" lon="5.39871">
        <ele>1048</ele>
        <time>2026-05-13T15:49:52.000Z</time>
      </trkpt>
      <trkpt lat="44.22722" lon="5.39871">
        <ele>1048</ele>
        <time>2026-05-13T15:49:53.000Z</time>
      </trkpt>
      <trkpt lat="44.22722" lon="5.39871">
        <ele>1048</ele>
        <time>2026-05-13T15:49:54.000Z</time>
      </trkpt>
      <trkpt lat="44.22722" lon="5.39871">
        <ele>1048</ele>
        <time>2026-05-13T15:49:55.000Z</time>
      </trkpt>
      <trkpt lat="44.22722" lon="5.39871">
        <ele>1048</ele>
        <time>2026-05-13T15:49:56.000Z</time>
      </trkpt>
      <trkpt lat="44.22722" lon="5.39871">
        <ele>1048</ele>
        <time>2026-05-13T15:49:57.000Z</time>
      </trkpt>
      <trkpt lat="44.22722" lon="5.39871">
        <ele>1048</ele>
        <time>2026-05-13T15:49:58.000Z</time>
      </trkpt>
      <trkpt lat="44.22722" lon="5.39871">
        <ele>1048</ele>
        <time>2026-05-13T15:49:59.000Z</time>
      </trkpt>
      <trkpt lat="44.22722" lon="5.39871">
        <ele>1048</ele>
        <time>2026-05-13T15:50:00.000Z</time>
      </trkpt>
      <trkpt lat="44.22722" lon="5.39871">
        <ele>1048</ele>
        <time>2026-05-13T15:50:01.000Z</time>
      </trkpt>
      <trkpt lat="44.22722" lon="5.39871">
        <ele>1048</ele>
        <time>2026-05-13T15:50:02.000Z</time>
      </trkpt>
      <trkpt lat="44.22722" lon="5.39871">
        <ele>1048</ele>
        <time>2026-05-13T15:50:03.000Z</time>
      </trkpt>
      <trkpt lat="44.22722" lon="5.39871">
        <ele>1048</ele>
        <time>2026-05-13T15:50:04.000Z</time>
      </trkpt>
      <trkpt lat="44.22722" lon="5.39871">
        <ele>1048</ele>
        <time>2026-05-13T15:50:05.000Z</time>
      </trkpt>
      <trkpt lat="44.22722" lon="5.39871">
        <ele>1048</ele>
        <time>2026-05-13T15:50:06.000Z</time>
      </trkpt>
      <trkpt lat="44.22722" lon="5.39871">
        <ele>1048</ele>
        <time>2026-05-13T15:50:07.000Z</time>
      </trkpt>
      <trkpt lat="44.22722" lon="5.39871">
        <ele>1048</ele>
        <time>2026-05-13T15:50:08.000Z</time>
      </trkpt>
      <trkpt lat="44.22722" lon="5.39871">
        <ele>1048</ele>
        <time>2026-05-13T15:50:09.000Z</time>
      </trkpt>
      <trkpt lat="44.22722" lon="5.39871">
        <ele>1048</ele>
        <time>2026-05-13T15:50:10.000Z</time>
      </trkpt>
      <trkpt lat="44.22722" lon="5.39871">
        <ele>1048</ele>
        <time>2026-05-13T15:50:11.000Z</time>
      </trkpt>
      <trkpt lat="44.22722" lon="5.39871">
        <ele>1048</ele>
        <time>2026-05-13T15:50:12.000Z</time>
      </trkpt>
      <trkpt lat="44.22722" lon="5.39871">
        <ele>1048</ele>
        <time>2026-05-13T15:50:13.000Z</time>
      </trkpt>
      <trkpt lat="44.22722" lon="5.39871">
        <ele>1048</ele>
        <time>2026-05-13T15:50:14.000Z</time>
      </trkpt>
      <trkpt lat="44.22722" lon="5.39871">
        <ele>1048</ele>
        <time>2026-05-13T15:50:15.000Z</time>
      </trkpt>
      <trkpt lat="44.22722" lon="5.39871">
        <ele>1048</ele>
        <time>2026-05-13T15:50:16.000Z</time>
      </trkpt>
      <trkpt lat="44.22722" lon="5.39871">
        <ele>1048</ele>
        <time>2026-05-13T15:50:17.000Z</time>
      </trkpt>
      <trkpt lat="44.22722" lon="5.39871">
        <ele>1048</ele>
        <time>2026-05-13T15:50:18.000Z</time>
      </trkpt>
      <trkpt lat="44.22722" lon="5.39871">
        <ele>1048</ele>
        <time>2026-05-13T15:50:19.000Z</time>
      </trkpt>
      <trkpt lat="44.22722" lon="5.39871">
        <ele>1048</ele>
        <time>2026-05-13T15:50:20.000Z</time>
      </trkpt>
      <trkpt lat="44.22722" lon="5.39871">
        <ele>1048</ele>
        <time>2026-05-13T15:50:21.000Z</time>
      </trkpt>
      <trkpt lat="44.22722" lon="5.39871">
        <ele>1048</ele>
        <time>2026-05-13T15:50:22.000Z</time>
      </trkpt>
      <trkpt lat="44.22722" lon="5.39871">
        <ele>1048</ele>
        <time>2026-05-13T15:50:23.000Z</time>
      </trkpt>
      <trkpt lat="44.22722" lon="5.39871">
        <ele>1048</ele>
        <time>2026-05-13T15:50:24.000Z</time>
      </trkpt>
      <trkpt lat="44.22722" lon="5.39871">
        <ele>1048</ele>
        <time>2026-05-13T15:50:25.000Z</time>
      </trkpt>
      <trkpt lat="44.22722" lon="5.39871">
        <ele>1048</ele>
        <time>2026-05-13T15:50:26.000Z</time>
      </trkpt>
      <trkpt lat="44.22722" lon="5.39871">
        <ele>1048</ele>
        <time>2026-05-13T15:50:27.000Z</time>
      </trkpt>
      <trkpt lat="44.22722" lon="5.39871">
        <ele>1048</ele>
        <time>2026-05-13T15:50:28.000Z</time>
      </trkpt>
      <trkpt lat="44.22722" lon="5.39871">
        <ele>1048</ele>
        <time>2026-05-13T15:50:29.000Z</time>
      </trkpt>
      <trkpt lat="44.22722" lon="5.39871">
        <ele>1048</ele>
        <time>2026-05-13T15:50:30.000Z</time>
      </trkpt>
      <trkpt lat="44.22722" lon="5.39871">
        <ele>1048</ele>
        <time>2026-05-13T15:50:31.000Z</time>
      </trkpt>
      <trkpt lat="44.22722" lon="5.39871">
        <ele>1048</ele>
        <time>2026-05-13T15:50:32.000Z</time>
      </trkpt>
      <trkpt lat="44.22722" lon="5.39871">
        <ele>1048</ele>
        <time>2026-05-13T15:50:33.000Z</time>
      </trkpt>
      <trkpt lat="44.22722" lon="5.39871">
        <ele>1048</ele>
        <time>2026-05-13T15:50:34.000Z</time>
      </trkpt>
      <trkpt lat="44.22722" lon="5.39871">
        <ele>1048</ele>
        <time>2026-05-13T15:50:35.000Z</time>
      </trkpt>
      <trkpt lat="44.22722" lon="5.39871">
        <ele>1048</ele>
        <time>2026-05-13T15:50:36.000Z</time>
      </trkpt>
      <trkpt lat="44.22722" lon="5.39871">
        <ele>1048</ele>
        <time>2026-05-13T15:50:37.000Z</time>
      </trkpt>
      <trkpt lat="44.22722" lon="5.39871">
        <ele>1048</ele>
        <time>2026-05-13T15:50:38.000Z</time>
      </trkpt>
      <trkpt lat="44.22722" lon="5.39871">
        <ele>1048</ele>
        <time>2026-05-13T15:50:39.000Z</time>
      </trkpt>
      <trkpt lat="44.22722" lon="5.39871">
        <ele>1048</ele>
        <time>2026-05-13T15:50:40.000Z</time>
      </trkpt>
      <trkpt lat="44.22722" lon="5.39871">
        <ele>1048</ele>
        <time>2026-05-13T15:50:41.000Z</time>
      </trkpt>
      <trkpt lat="44.22722" lon="5.39871">
        <ele>1048</ele>
        <time>2026-05-13T15:50:42.000Z</time>
      </trkpt>
      <trkpt lat="44.22722" lon="5.39871">
        <ele>1048</ele>
        <time>2026-05-13T15:50:43.000Z</time>
      </trkpt>
      <trkpt lat="44.22722" lon="5.39871">
        <ele>1048</ele>
        <time>2026-05-13T15:50:44.000Z</time>
      </trkpt>
      <trkpt lat="44.22722" lon="5.39871">
        <ele>1048</ele>
        <time>2026-05-13T15:50:45.000Z</time>
      </trkpt>
      <trkpt lat="44.22722" lon="5.39871">
        <ele>1048</ele>
        <time>2026-05-13T15:50:46.000Z</time>
      </trkpt>
      <trkpt lat="44.22722" lon="5.39871">
        <ele>1048</ele>
        <time>2026-05-13T15:50:47.000Z</time>
      </trkpt>
      <trkpt lat="44.22722" lon="5.39871">
        <ele>1048</ele>
        <time>2026-05-13T15:50:48.000Z</time>
      </trkpt>
      <trkpt lat="44.22722" lon="5.39871">
        <ele>1048</ele>
        <time>2026-05-13T15:50:49.000Z</time>
      </trkpt>
      <trkpt lat="44.22722" lon="5.39871">
        <ele>1048</ele>
        <time>2026-05-13T15:50:50.000Z</time>
      </trkpt>
      <trkpt lat="44.22722" lon="5.39871">
        <ele>1048</ele>
        <time>2026-05-13T15:50:51.000Z</time>
      </trkpt>
      <trkpt lat="44.22722" lon="5.39871">
        <ele>1048</ele>
        <time>2026-05-13T15:50:52.000Z</time>
      </trkpt>
      <trkpt lat="44.22722" lon="5.39871">
        <ele>1048</ele>
        <time>2026-05-13T15:50:53.000Z</time>
      </trkpt>
      <trkpt lat="44.22722" lon="5.39871">
        <ele>1048</ele>
        <time>2026-05-13T15:50:54.000Z</time>
      </trkpt>
      <trkpt lat="44.22722" lon="5.39871">
        <ele>1048</ele>
        <time>2026-05-13T15:50:55.000Z</time>
      </trkpt>
      <trkpt lat="44.22722" lon="5.39871">
        <ele>1048</ele>
        <time>2026-05-13T15:50:56.000Z</time>
      </trkpt>
      <trkpt lat="44.22722" lon="5.39871">
        <ele>1048</ele>
        <time>2026-05-13T15:50:57.000Z</time>
      </trkpt>
      <trkpt lat="44.22722" lon="5.39871">
        <ele>1048</ele>
        <time>2026-05-13T15:50:58.000Z</time>
      </trkpt>
      <trkpt lat="44.22722" lon="5.39871">
        <ele>1048</ele>
        <time>2026-05-13T15:50:59.000Z</time>
      </trkpt>
      <trkpt lat="44.22722" lon="5.39871">
        <ele>1048</ele>
        <time>2026-05-13T15:51:00.000Z</time>
      </trkpt>
      <trkpt lat="44.22722" lon="5.39871">
        <ele>1048</ele>
        <time>2026-05-13T15:51:01.000Z</time>
      </trkpt>
      <trkpt lat="44.22722" lon="5.39871">
        <ele>1048</ele>
        <time>2026-05-13T15:51:02.000Z</time>
      </trkpt>
      <trkpt lat="44.22722" lon="5.39871">
        <ele>1048</ele>
        <time>2026-05-13T15:51:03.000Z</time>
      </trkpt>
      <trkpt lat="44.22722" lon="5.39871">
        <ele>1048</ele>
        <time>2026-05-13T15:51:04.000Z</time>
      </trkpt>
      <trkpt lat="44.22722" lon="5.39871">
        <ele>1048</ele>
        <time>2026-05-13T15:51:05.000Z</time>
      </trkpt>
      <trkpt lat="44.22722" lon="5.39871">
        <ele>1048</ele>
        <time>2026-05-13T15:51:06.000Z</time>
      </trkpt>
      <trkpt lat="44.22722" lon="5.39871">
        <ele>1048</ele>
        <time>2026-05-13T15:51:07.000Z</time>
      </trkpt>
      <trkpt lat="44.22722" lon="5.39871">
        <ele>1048</ele>
        <time>2026-05-13T15:51:08.000Z</time>
      </trkpt>
      <trkpt lat="44.22722" lon="5.39871">
        <ele>1048</ele>
        <time>2026-05-13T15:51:09.000Z</time>
      </trkpt>
      <trkpt lat="44.22722" lon="5.39871">
        <ele>1048</ele>
        <time>2026-05-13T15:51:10.000Z</time>
      </trkpt>
      <trkpt lat="44.22722" lon="5.39871">
        <ele>1048</ele>
        <time>2026-05-13T15:51:11.000Z</time>
      </trkpt>
      <trkpt lat="44.22722" lon="5.39871">
        <ele>1048</ele>
        <time>2026-05-13T15:51:12.000Z</time>
      </trkpt>
      <trkpt lat="44.22722" lon="5.39871">
        <ele>1048</ele>
        <time>2026-05-13T15:51:13.000Z</time>
      </trkpt>
      <trkpt lat="44.22722" lon="5.39871">
        <ele>1048</ele>
        <time>2026-05-13T15:51:14.000Z</time>
      </trkpt>
      <trkpt lat="44.22722" lon="5.39871">
        <ele>1048</ele>
        <time>2026-05-13T15:51:15.000Z</time>
      </trkpt>
      <trkpt lat="44.22722" lon="5.39871">
        <ele>1048</ele>
        <time>2026-05-13T15:51:16.000Z</time>
      </trkpt>
      <trkpt lat="44.22722" lon="5.39871">
        <ele>1048</ele>
        <time>2026-05-13T15:51:17.000Z</time>
      </trkpt>
      <trkpt lat="44.22722" lon="5.39871">
        <ele>1048</ele>
        <time>2026-05-13T15:51:18.000Z</time>
      </trkpt>
      <trkpt lat="44.22722" lon="5.39871">
        <ele>1048</ele>
        <time>2026-05-13T15:51:19.000Z</time>
      </trkpt>
      <trkpt lat="44.22722" lon="5.39871">
        <ele>1048</ele>
        <time>2026-05-13T15:51:20.000Z</time>
      </trkpt>
      <trkpt lat="44.22722" lon="5.39871">
        <ele>1048</ele>
        <time>2026-05-13T15:51:21.000Z</time>
      </trkpt>
      <trkpt lat="44.22722" lon="5.39871">
        <ele>1048</ele>
        <time>2026-05-13T15:51:22.000Z</time>
      </trkpt>
      <trkpt lat="44.22722" lon="5.39871">
        <ele>1048</ele>
        <time>2026-05-13T15:51:23.000Z</time>
      </trkpt>
      <trkpt lat="44.22722" lon="5.39871">
        <ele>1048</ele>
        <time>2026-05-13T15:51:24.000Z</time>
      </trkpt>
      <trkpt lat="44.22722" lon="5.39871">
        <ele>1048</ele>
        <time>2026-05-13T15:51:25.000Z</time>
      </trkpt>
      <trkpt lat="44.22722" lon="5.39871">
        <ele>1048</ele>
        <time>2026-05-13T15:51:26.000Z</time>
      </trkpt>
      <trkpt lat="44.22722" lon="5.39871">
        <ele>1048</ele>
        <time>2026-05-13T15:51:27.000Z</time>
      </trkpt>
      <trkpt lat="44.22722" lon="5.39871">
        <ele>1048</ele>
        <time>2026-05-13T15:51:28.000Z</time>
      </trkpt>
      <trkpt lat="44.22722" lon="5.39871">
        <ele>1048</ele>
        <time>2026-05-13T15:51:29.000Z</time>
      </trkpt>
      <trkpt lat="44.22722" lon="5.39871">
        <ele>1048</ele>
        <time>2026-05-13T15:51:30.000Z</time>
      </trkpt>
      <trkpt lat="44.22722" lon="5.39871">
        <ele>1048</ele>
        <time>2026-05-13T15:51:31.000Z</time>
      </trkpt>
      <trkpt lat="44.22722" lon="5.39871">
        <ele>1048</ele>
        <time>2026-05-13T15:51:32.000Z</time>
      </trkpt>
      <trkpt lat="44.22722" lon="5.39871">
        <ele>1048</ele>
        <time>2026-05-13T15:51:33.000Z</time>
      </trkpt>
      <trkpt lat="44.22722" lon="5.39871">
        <ele>1048</ele>
        <time>2026-05-13T15:51:34.000Z</time>
      </trkpt>
      <trkpt lat="44.22722" lon="5.39871">
        <ele>1048</ele>
        <time>2026-05-13T15:51:35.000Z</time>
      </trkpt>
      <trkpt lat="44.22722" lon="5.39871">
        <ele>1048</ele>
        <time>2026-05-13T15:51:36.000Z</time>
      </trkpt>
      <trkpt lat="44.22722" lon="5.39871">
        <ele>1048</ele>
        <time>2026-05-13T15:51:37.000Z</time>
      </trkpt>
      <trkpt lat="44.22722" lon="5.39871">
        <ele>1048</ele>
        <time>2026-05-13T15:51:38.000Z</time>
      </trkpt>
      <trkpt lat="44.22722" lon="5.39871">
        <ele>1048</ele>
        <time>2026-05-13T15:51:39.000Z</time>
      </trkpt>
      <trkpt lat="44.22722" lon="5.39871">
        <ele>1048</ele>
        <time>2026-05-13T15:51:40.000Z</time>
      </trkpt>
      <trkpt lat="44.22722" lon="5.39871">
        <ele>1048</ele>
        <time>2026-05-13T15:51:41.000Z</time>
      </trkpt>
      <trkpt lat="44.22722" lon="5.39871">
        <ele>1048</ele>
        <time>2026-05-13T15:51:42.000Z</time>
      </trkpt>
      <trkpt lat="44.22722" lon="5.39871">
        <ele>1048</ele>
        <time>2026-05-13T15:51:43.000Z</time>
      </trkpt>
      <trkpt lat="44.22722" lon="5.39871">
        <ele>1048</ele>
        <time>2026-05-13T15:51:44.000Z</time>
      </trkpt>
      <trkpt lat="44.22722" lon="5.39871">
        <ele>1048</ele>
        <time>2026-05-13T15:51:45.000Z</time>
      </trkpt>
      <trkpt lat="44.22722" lon="5.39871">
        <ele>1048</ele>
        <time>2026-05-13T15:51:46.000Z</time>
      </trkpt>
      <trkpt lat="44.22722" lon="5.39871">
        <ele>1048</ele>
        <time>2026-05-13T15:51:47.000Z</time>
      </trkpt>
      <trkpt lat="44.22722" lon="5.39871">
        <ele>1048</ele>
        <time>2026-05-13T15:51:48.000Z</time>
      </trkpt>
      <trkpt lat="44.22722" lon="5.39871">
        <ele>1048</ele>
        <time>2026-05-13T15:51:49.000Z</time>
      </trkpt>
      <trkpt lat="44.22722" lon="5.39871">
        <ele>1048</ele>
        <time>2026-05-13T15:51:50.000Z</time>
      </trkpt>
      <trkpt lat="44.22722" lon="5.39871">
        <ele>1048</ele>
        <time>2026-05-13T15:51:51.000Z</time>
      </trkpt>
      <trkpt lat="44.22722" lon="5.39871">
        <ele>1048</ele>
        <time>2026-05-13T15:51:52.000Z</time>
      </trkpt>
      <trkpt lat="44.22722" lon="5.39871">
        <ele>1048</ele>
        <time>2026-05-13T15:51:53.000Z</time>
      </trkpt>
      <trkpt lat="44.22722" lon="5.39871">
        <ele>1048</ele>
        <time>2026-05-13T15:51:54.000Z</time>
      </trkpt>
      <trkpt lat="44.22722" lon="5.39871">
        <ele>1048</ele>
        <time>2026-05-13T15:51:55.000Z</time>
      </trkpt>
      <trkpt lat="44.22722" lon="5.39871">
        <ele>1048</ele>
        <time>2026-05-13T15:51:56.000Z</time>
      </trkpt>
      <trkpt lat="44.22722" lon="5.39871">
        <ele>1048</ele>
        <time>2026-05-13T15:51:57.000Z</time>
      </trkpt>
      <trkpt lat="44.22722" lon="5.39871">
        <ele>1048</ele>
        <time>2026-05-13T15:51:58.000Z</time>
      </trkpt>
      <trkpt lat="44.22722" lon="5.39871">
        <ele>1048</ele>
        <time>2026-05-13T15:51:59.000Z</time>
      </trkpt>
      <trkpt lat="44.22722" lon="5.39871">
        <ele>1048</ele>
        <time>2026-05-13T15:52:00.000Z</time>
      </trkpt>
      <trkpt lat="44.22722" lon="5.39871">
        <ele>1048</ele>
        <time>2026-05-13T15:52:01.000Z</time>
      </trkpt>
      <trkpt lat="44.22722" lon="5.39871">
        <ele>1048</ele>
        <time>2026-05-13T15:52:02.000Z</time>
      </trkpt>
      <trkpt lat="44.22722" lon="5.39871">
        <ele>1048</ele>
        <time>2026-05-13T15:52:03.000Z</time>
      </trkpt>
      <trkpt lat="44.22722" lon="5.39871">
        <ele>1048</ele>
        <time>2026-05-13T15:52:04.000Z</time>
      </trkpt>
      <trkpt lat="44.22722" lon="5.39871">
        <ele>1048</ele>
        <time>2026-05-13T15:52:05.000Z</time>
      </trkpt>
      <trkpt lat="44.22722" lon="5.39871">
        <ele>1048</ele>
        <time>2026-05-13T15:52:06.000Z</time>
      </trkpt>
      <trkpt lat="44.22722" lon="5.39871">
        <ele>1048</ele>
        <time>2026-05-13T15:52:07.000Z</time>
      </trkpt>
      <trkpt lat="44.22722" lon="5.39871">
        <ele>1048</ele>
        <time>2026-05-13T15:52:08.000Z</time>
      </trkpt>
      <trkpt lat="44.22722" lon="5.39871">
        <ele>1048</ele>
        <time>2026-05-13T15:52:09.000Z</time>
      </trkpt>
      <trkpt lat="44.22722" lon="5.39871">
        <ele>1048</ele>
        <time>2026-05-13T15:52:10.000Z</time>
      </trkpt>
      <trkpt lat="44.22722" lon="5.39871">
        <ele>1048</ele>
        <time>2026-05-13T15:52:11.000Z</time>
      </trkpt>
      <trkpt lat="44.22722" lon="5.39871">
        <ele>1048</ele>
        <time>2026-05-13T15:52:12.000Z</time>
      </trkpt>
      <trkpt lat="44.22722" lon="5.39871">
        <ele>1048</ele>
        <time>2026-05-13T15:52:13.000Z</time>
      </trkpt>
      <trkpt lat="44.22722" lon="5.39871">
        <ele>1048</ele>
        <time>2026-05-13T15:52:14.000Z</time>
      </trkpt>
      <trkpt lat="44.22722" lon="5.39871">
        <ele>1048</ele>
        <time>2026-05-13T15:52:15.000Z</time>
      </trkpt>
      <trkpt lat="44.22722" lon="5.39871">
        <ele>1048</ele>
        <time>2026-05-13T15:52:16.000Z</time>
      </trkpt>
      <trkpt lat="44.22722" lon="5.39871">
        <ele>1048</ele>
        <time>2026-05-13T15:52:17.000Z</time>
      </trkpt>
      <trkpt lat="44.22722" lon="5.39871">
        <ele>1048</ele>
        <time>2026-05-13T15:52:18.000Z</time>
      </trkpt>
      <trkpt lat="44.22722" lon="5.39871">
        <ele>1048</ele>
        <time>2026-05-13T15:52:19.000Z</time>
      </trkpt>
      <trkpt lat="44.22722" lon="5.39871">
        <ele>1048</ele>
        <time>2026-05-13T15:52:20.000Z</time>
      </trkpt>
      <trkpt lat="44.22722" lon="5.39871">
        <ele>1048</ele>
        <time>2026-05-13T15:52:21.000Z</time>
      </trkpt>
      <trkpt lat="44.22722" lon="5.39871">
        <ele>1048</ele>
        <time>2026-05-13T15:52:22.000Z</time>
      </trkpt>
      <trkpt lat="44.22722" lon="5.39871">
        <ele>1048</ele>
        <time>2026-05-13T15:52:23.000Z</time>
      </trkpt>
      <trkpt lat="44.22722" lon="5.39871">
        <ele>1048</ele>
        <time>2026-05-13T15:52:24.000Z</time>
      </trkpt>
      <trkpt lat="44.22722" lon="5.39871">
        <ele>1048</ele>
        <time>2026-05-13T15:52:25.000Z</time>
      </trkpt>
      <trkpt lat="44.22722" lon="5.39871">
        <ele>1048</ele>
        <time>2026-05-13T15:52:26.000Z</time>
      </trkpt>
      <trkpt lat="44.22722" lon="5.39871">
        <ele>1048</ele>
        <time>2026-05-13T15:52:27.000Z</time>
      </trkpt>
      <trkpt lat="44.22722" lon="5.39871">
        <ele>1048</ele>
        <time>2026-05-13T15:52:28.000Z</time>
      </trkpt>
      <trkpt lat="44.22722" lon="5.39871">
        <ele>1048</ele>
        <time>2026-05-13T15:52:29.000Z</time>
      </trkpt>
      <trkpt lat="44.22722" lon="5.39871">
        <ele>1048</ele>
        <time>2026-05-13T15:52:30.000Z</time>
      </trkpt>
      <trkpt lat="44.22722" lon="5.39871">
        <ele>1048</ele>
        <time>2026-05-13T15:52:31.000Z</time>
      </trkpt>
      <trkpt lat="44.22722" lon="5.39871">
        <ele>1048</ele>
        <time>2026-05-13T15:52:32.000Z</time>
      </trkpt>
      <trkpt lat="44.22722" lon="5.39871">
        <ele>1048</ele>
        <time>2026-05-13T15:52:33.000Z</time>
      </trkpt>
      <trkpt lat="44.22722" lon="5.39871">
        <ele>1048</ele>
        <time>2026-05-13T15:52:34.000Z</time>
      </trkpt>
      <trkpt lat="44.22722" lon="5.39871">
        <ele>1048</ele>
        <time>2026-05-13T15:52:35.000Z</time>
      </trkpt>
      <trkpt lat="44.22722" lon="5.39871">
        <ele>1048</ele>
        <time>2026-05-13T15:52:36.000Z</time>
      </trkpt>
      <trkpt lat="44.22722" lon="5.39871">
        <ele>1048</ele>
        <time>2026-05-13T15:52:37.000Z</time>
      </trkpt>
      <trkpt lat="44.22722" lon="5.39871">
        <ele>1048</ele>
        <time>2026-05-13T15:52:38.000Z</time>
      </trkpt>
      <trkpt lat="44.22722" lon="5.39871">
        <ele>1048</ele>
        <time>2026-05-13T15:52:39.000Z</time>
      </trkpt>
      <trkpt lat="44.22722" lon="5.39871">
        <ele>1048</ele>
        <time>2026-05-13T15:52:40.000Z</time>
      </trkpt>
      <trkpt lat="44.22722" lon="5.39871">
        <ele>1048</ele>
        <time>2026-05-13T15:52:41.000Z</time>
      </trkpt>
      <trkpt lat="44.22722" lon="5.39871">
        <ele>1048</ele>
        <time>2026-05-13T15:52:42.000Z</time>
      </trkpt>
      <trkpt lat="44.22722" lon="5.39871">
        <ele>1048</ele>
        <time>2026-05-13T15:52:43.000Z</time>
      </trkpt>
      <trkpt lat="44.22722" lon="5.39871">
        <ele>1048</ele>
        <time>2026-05-13T15:52:44.000Z</time>
      </trkpt>
      <trkpt lat="44.22722" lon="5.39871">
        <ele>1048</ele>
        <time>2026-05-13T15:52:45.000Z</time>
      </trkpt>
      <trkpt lat="44.22722" lon="5.39871">
        <ele>1048</ele>
        <time>2026-05-13T15:52:46.000Z</time>
      </trkpt>
      <trkpt lat="44.22722" lon="5.39871">
        <ele>1048</ele>
        <time>2026-05-13T15:52:47.000Z</time>
      </trkpt>
      <trkpt lat="44.22722" lon="5.39871">
        <ele>1048</ele>
        <time>2026-05-13T15:52:48.000Z</time>
      </trkpt>
      <trkpt lat="44.22722" lon="5.39871">
        <ele>1048</ele>
        <time>2026-05-13T15:52:49.000Z</time>
      </trkpt>
      <trkpt lat="44.22722" lon="5.39871">
        <ele>1048</ele>
        <time>2026-05-13T15:52:50.000Z</time>
      </trkpt>
      <trkpt lat="44.22722" lon="5.39871">
        <ele>1048</ele>
        <time>2026-05-13T15:52:51.000Z</time>
      </trkpt>
      <trkpt lat="44.22722" lon="5.39871">
        <ele>1048</ele>
        <time>2026-05-13T15:52:52.000Z</time>
      </trkpt>
      <trkpt lat="44.22722" lon="5.39871">
        <ele>1048</ele>
        <time>2026-05-13T15:52:53.000Z</time>
      </trkpt>
      <trkpt lat="44.22722" lon="5.39871">
        <ele>1048</ele>
        <time>2026-05-13T15:52:54.000Z</time>
      </trkpt>
      <trkpt lat="44.22722" lon="5.39871">
        <ele>1048</ele>
        <time>2026-05-13T15:52:55.000Z</time>
      </trkpt>
      <trkpt lat="44.22722" lon="5.39871">
        <ele>1048</ele>
        <time>2026-05-13T15:52:56.000Z</time>
      </trkpt>
      <trkpt lat="44.22722" lon="5.39871">
        <ele>1048</ele>
        <time>2026-05-13T15:52:57.000Z</time>
      </trkpt>
      <trkpt lat="44.22722" lon="5.39871">
        <ele>1048</ele>
        <time>2026-05-13T15:52:58.000Z</time>
      </trkpt>
      <trkpt lat="44.22722" lon="5.39871">
        <ele>1048</ele>
        <time>2026-05-13T15:52:59.000Z</time>
      </trkpt>
      <trkpt lat="44.22722" lon="5.39871">
        <ele>1048</ele>
        <time>2026-05-13T15:53:00.000Z</time>
      </trkpt>
      <trkpt lat="44.22722" lon="5.39871">
        <ele>1048</ele>
        <time>2026-05-13T15:53:01.000Z</time>
      </trkpt>
      <trkpt lat="44.22722" lon="5.39871">
        <ele>1048</ele>
        <time>2026-05-13T15:53:02.000Z</time>
      </trkpt>
      <trkpt lat="44.22722" lon="5.39871">
        <ele>1048</ele>
        <time>2026-05-13T15:53:03.000Z</time>
      </trkpt>
      <trkpt lat="44.22722" lon="5.39871">
        <ele>1048</ele>
        <time>2026-05-13T15:53:04.000Z</time>
      </trkpt>
      <trkpt lat="44.22722" lon="5.39871">
        <ele>1048</ele>
        <time>2026-05-13T15:53:05.000Z</time>
      </trkpt>
      <trkpt lat="44.22722" lon="5.39871">
        <ele>1048</ele>
        <time>2026-05-13T15:53:06.000Z</time>
      </trkpt>
      <trkpt lat="44.22722" lon="5.39871">
        <ele>1048</ele>
        <time>2026-05-13T15:53:07.000Z</time>
      </trkpt>
      <trkpt lat="44.22722" lon="5.39871">
        <ele>1048</ele>
        <time>2026-05-13T15:53:08.000Z</time>
      </trkpt>
      <trkpt lat="44.22722" lon="5.39871">
        <ele>1048</ele>
        <time>2026-05-13T15:53:09.000Z</time>
      </trkpt>
      <trkpt lat="44.22722" lon="5.39871">
        <ele>1048</ele>
        <time>2026-05-13T15:53:10.000Z</time>
      </trkpt>
      <trkpt lat="44.22722" lon="5.39871">
        <ele>1048</ele>
        <time>2026-05-13T15:53:11.000Z</time>
      </trkpt>
      <trkpt lat="44.22722" lon="5.39871">
        <ele>1048</ele>
        <time>2026-05-13T15:53:12.000Z</time>
      </trkpt>
      <trkpt lat="44.22722" lon="5.39871">
        <ele>1048</ele>
        <time>2026-05-13T15:53:13.000Z</time>
      </trkpt>
      <trkpt lat="44.22722" lon="5.39871">
        <ele>1048</ele>
        <time>2026-05-13T15:53:14.000Z</time>
      </trkpt>
      <trkpt lat="44.22722" lon="5.39871">
        <ele>1048</ele>
        <time>2026-05-13T15:53:15.000Z</time>
      </trkpt>
      <trkpt lat="44.22722" lon="5.39871">
        <ele>1048</ele>
        <time>2026-05-13T15:53:16.000Z</time>
      </trkpt>
      <trkpt lat="44.22722" lon="5.39871">
        <ele>1048</ele>
        <time>2026-05-13T15:53:17.000Z</time>
      </trkpt>
      <trkpt lat="44.22722" lon="5.39871">
        <ele>1048</ele>
        <time>2026-05-13T15:53:18.000Z</time>
      </trkpt>
      <trkpt lat="44.22722" lon="5.39871">
        <ele>1048</ele>
        <time>2026-05-13T15:53:19.000Z</time>
      </trkpt>
      <trkpt lat="44.22722" lon="5.39871">
        <ele>1048</ele>
        <time>2026-05-13T15:53:20.000Z</time>
      </trkpt>
      <trkpt lat="44.22722" lon="5.39871">
        <ele>1048</ele>
        <time>2026-05-13T15:53:21.000Z</time>
      </trkpt>
      <trkpt lat="44.22722" lon="5.39871">
        <ele>1048</ele>
        <time>2026-05-13T15:53:22.000Z</time>
      </trkpt>
      <trkpt lat="44.22722" lon="5.39871">
        <ele>1048</ele>
        <time>2026-05-13T15:53:23.000Z</time>
      </trkpt>
      <trkpt lat="44.22722" lon="5.39871">
        <ele>1048</ele>
        <time>2026-05-13T15:53:24.000Z</time>
      </trkpt>
      <trkpt lat="44.22722" lon="5.39871">
        <ele>1048</ele>
        <time>2026-05-13T15:53:25.000Z</time>
      </trkpt>
      <trkpt lat="44.22722" lon="5.39871">
        <ele>1048</ele>
        <time>2026-05-13T15:53:26.000Z</time>
      </trkpt>
      <trkpt lat="44.22722" lon="5.39871">
        <ele>1048</ele>
        <time>2026-05-13T15:53:27.000Z</time>
      </trkpt>
      <trkpt lat="44.22722" lon="5.39871">
        <ele>1048</ele>
        <time>2026-05-13T15:53:28.000Z</time>
      </trkpt>
      <trkpt lat="44.22722" lon="5.39871">
        <ele>1048</ele>
        <time>2026-05-13T15:53:29.000Z</time>
      </trkpt>
      <trkpt lat="44.22722" lon="5.39871">
        <ele>1048</ele>
        <time>2026-05-13T15:53:30.000Z</time>
      </trkpt>
      <trkpt lat="44.22722" lon="5.39871">
        <ele>1048</ele>
        <time>2026-05-13T15:53:31.000Z</time>
      </trkpt>
      <trkpt lat="44.22722" lon="5.39871">
        <ele>1048</ele>
        <time>2026-05-13T15:53:32.000Z</time>
      </trkpt>
      <trkpt lat="44.22722" lon="5.39871">
        <ele>1048</ele>
        <time>2026-05-13T15:53:33.000Z</time>
      </trkpt>
      <trkpt lat="44.22722" lon="5.39871">
        <ele>1048</ele>
        <time>2026-05-13T15:53:34.000Z</time>
      </trkpt>
      <trkpt lat="44.22722" lon="5.39871">
        <ele>1048</ele>
        <time>2026-05-13T15:53:35.000Z</time>
      </trkpt>
      <trkpt lat="44.22722" lon="5.39871">
        <ele>1048</ele>
        <time>2026-05-13T15:53:36.000Z</time>
      </trkpt>
      <trkpt lat="44.22722" lon="5.39871">
        <ele>1048</ele>
        <time>2026-05-13T15:53:37.000Z</time>
      </trkpt>
      <trkpt lat="44.22722" lon="5.39871">
        <ele>1048</ele>
        <time>2026-05-13T15:53:38.000Z</time>
      </trkpt>
      <trkpt lat="44.22722" lon="5.39871">
        <ele>1048</ele>
        <time>2026-05-13T15:53:39.000Z</time>
      </trkpt>
      <trkpt lat="44.22722" lon="5.39871">
        <ele>1048</ele>
        <time>2026-05-13T15:53:40.000Z</time>
      </trkpt>
      <trkpt lat="44.22722" lon="5.39871">
        <ele>1048</ele>
        <time>2026-05-13T15:53:41.000Z</time>
      </trkpt>
      <trkpt lat="44.22722" lon="5.39871">
        <ele>1048</ele>
        <time>2026-05-13T15:53:42.000Z</time>
      </trkpt>
      <trkpt lat="44.22722" lon="5.39871">
        <ele>1048</ele>
        <time>2026-05-13T15:53:43.000Z</time>
      </trkpt>
      <trkpt lat="44.22722" lon="5.39871">
        <ele>1048</ele>
        <time>2026-05-13T15:53:44.000Z</time>
      </trkpt>
      <trkpt lat="44.22722" lon="5.39871">
        <ele>1048</ele>
        <time>2026-05-13T15:53:45.000Z</time>
      </trkpt>
      <trkpt lat="44.22722" lon="5.39871">
        <ele>1048</ele>
        <time>2026-05-13T15:53:46.000Z</time>
      </trkpt>
      <trkpt lat="44.22722" lon="5.39871">
        <ele>1048</ele>
        <time>2026-05-13T15:53:47.000Z</time>
      </trkpt>
      <trkpt lat="44.22722" lon="5.39871">
        <ele>1048</ele>
        <time>2026-05-13T15:53:48.000Z</time>
      </trkpt>
      <trkpt lat="44.22722" lon="5.39871">
        <ele>1048</ele>
        <time>2026-05-13T15:53:49.000Z</time>
      </trkpt>
      <trkpt lat="44.22722" lon="5.39871">
        <ele>1048</ele>
        <time>2026-05-13T15:53:50.000Z</time>
      </trkpt>
      <trkpt lat="44.22722" lon="5.39871">
        <ele>1048</ele>
        <time>2026-05-13T15:53:51.000Z</time>
      </trkpt>
      <trkpt lat="44.22722" lon="5.39871">
        <ele>1048</ele>
        <time>2026-05-13T15:53:52.000Z</time>
      </trkpt>
      <trkpt lat="44.22722" lon="5.39871">
        <ele>1048</ele>
        <time>2026-05-13T15:53:53.000Z</time>
      </trkpt>
      <trkpt lat="44.22722" lon="5.39871">
        <ele>1048</ele>
        <time>2026-05-13T15:53:54.000Z</time>
      </trkpt>
      <trkpt lat="44.22722" lon="5.39871">
        <ele>1048</ele>
        <time>2026-05-13T15:53:55.000Z</time>
      </trkpt>
      <trkpt lat="44.22722" lon="5.39871">
        <ele>1048</ele>
        <time>2026-05-13T15:53:56.000Z</time>
      </trkpt>
      <trkpt lat="44.22722" lon="5.39871">
        <ele>1048</ele>
        <time>2026-05-13T15:53:57.000Z</time>
      </trkpt>
      <trkpt lat="44.22722" lon="5.39871">
        <ele>1048</ele>
        <time>2026-05-13T15:53:58.000Z</time>
      </trkpt>
      <trkpt lat="44.22722" lon="5.39871">
        <ele>1048</ele>
        <time>2026-05-13T15:53:59.000Z</time>
      </trkpt>
      <trkpt lat="44.22722" lon="5.39871">
        <ele>1048</ele>
        <time>2026-05-13T15:54:00.000Z</time>
      </trkpt>
      <trkpt lat="44.22722" lon="5.39871">
        <ele>1048</ele>
        <time>2026-05-13T15:54:01.000Z</time>
      </trkpt>
      <trkpt lat="44.22722" lon="5.39871">
        <ele>1048</ele>
        <time>2026-05-13T15:54:02.000Z</time>
      </trkpt>
      <trkpt lat="44.22722" lon="5.39871">
        <ele>1048</ele>
        <time>2026-05-13T15:54:03.000Z</time>
      </trkpt>
      <trkpt lat="44.22722" lon="5.39871">
        <ele>1048</ele>
        <time>2026-05-13T15:54:04.000Z</time>
      </trkpt>
      <trkpt lat="44.22722" lon="5.39871">
        <ele>1048</ele>
        <time>2026-05-13T15:54:05.000Z</time>
      </trkpt>
      <trkpt lat="44.22722" lon="5.39871">
        <ele>1048</ele>
        <time>2026-05-13T15:54:06.000Z</time>
      </trkpt>
      <trkpt lat="44.22722" lon="5.39871">
        <ele>1048</ele>
        <time>2026-05-13T15:54:07.000Z</time>
      </trkpt>
      <trkpt lat="44.22722" lon="5.39871">
        <ele>1048</ele>
        <time>2026-05-13T15:54:08.000Z</time>
      </trkpt>
      <trkpt lat="44.22722" lon="5.39871">
        <ele>1048</ele>
        <time>2026-05-13T15:54:09.000Z</time>
      </trkpt>
      <trkpt lat="44.22722" lon="5.39871">
        <ele>1048</ele>
        <time>2026-05-13T15:54:10.000Z</time>
      </trkpt>
      <trkpt lat="44.22722" lon="5.39871">
        <ele>1048</ele>
        <time>2026-05-13T15:54:11.000Z</time>
      </trkpt>
      <trkpt lat="44.22722" lon="5.39871">
        <ele>1048</ele>
        <time>2026-05-13T15:54:12.000Z</time>
      </trkpt>
      <trkpt lat="44.22722" lon="5.39871">
        <ele>1048</ele>
        <time>2026-05-13T15:54:13.000Z</time>
      </trkpt>
      <trkpt lat="44.22722" lon="5.39871">
        <ele>1048</ele>
        <time>2026-05-13T15:54:14.000Z</time>
      </trkpt>
      <trkpt lat="44.22722" lon="5.39871">
        <ele>1048</ele>
        <time>2026-05-13T15:54:15.000Z</time>
      </trkpt>
      <trkpt lat="44.22722" lon="5.39871">
        <ele>1048</ele>
        <time>2026-05-13T15:54:16.000Z</time>
      </trkpt>
      <trkpt lat="44.22722" lon="5.39871">
        <ele>1048</ele>
        <time>2026-05-13T15:54:17.000Z</time>
      </trkpt>
      <trkpt lat="44.22722" lon="5.39871">
        <ele>1048</ele>
        <time>2026-05-13T15:54:18.000Z</time>
      </trkpt>
      <trkpt lat="44.22722" lon="5.39871">
        <ele>1048</ele>
        <time>2026-05-13T15:54:19.000Z</time>
      </trkpt>
      <trkpt lat="44.22722" lon="5.39871">
        <ele>1048</ele>
        <time>2026-05-13T15:54:20.000Z</time>
      </trkpt>
      <trkpt lat="44.22722" lon="5.39871">
        <ele>1048</ele>
        <time>2026-05-13T15:54:21.000Z</time>
      </trkpt>
      <trkpt lat="44.22722" lon="5.39871">
        <ele>1048</ele>
        <time>2026-05-13T15:54:22.000Z</time>
      </trkpt>
      <trkpt lat="44.22722" lon="5.39871">
        <ele>1048</ele>
        <time>2026-05-13T15:54:23.000Z</time>
      </trkpt>
      <trkpt lat="44.22722" lon="5.39871">
        <ele>1048</ele>
        <time>2026-05-13T15:54:24.000Z</time>
      </trkpt>
      <trkpt lat="44.22722" lon="5.39871">
        <ele>1048</ele>
        <time>2026-05-13T15:54:25.000Z</time>
      </trkpt>
      <trkpt lat="44.22722" lon="5.39871">
        <ele>1048</ele>
        <time>2026-05-13T15:54:26.000Z</time>
      </trkpt>
      <trkpt lat="44.22722" lon="5.39871">
        <ele>1048</ele>
        <time>2026-05-13T15:54:27.000Z</time>
      </trkpt>
      <trkpt lat="44.22722" lon="5.39871">
        <ele>1048</ele>
        <time>2026-05-13T15:54:28.000Z</time>
      </trkpt>
      <trkpt lat="44.22722" lon="5.39871">
        <ele>1048</ele>
        <time>2026-05-13T15:54:29.000Z</time>
      </trkpt>
      <trkpt lat="44.22722" lon="5.39871">
        <ele>1048</ele>
        <time>2026-05-13T15:54:30.000Z</time>
      </trkpt>
      <trkpt lat="44.22722" lon="5.39871">
        <ele>1048</ele>
        <time>2026-05-13T15:54:31.000Z</time>
      </trkpt>
      <trkpt lat="44.22722" lon="5.39871">
        <ele>1048</ele>
        <time>2026-05-13T15:54:32.000Z</time>
      </trkpt>
      <trkpt lat="44.22722" lon="5.39871">
        <ele>1048</ele>
        <time>2026-05-13T15:54:33.000Z</time>
      </trkpt>
      <trkpt lat="44.22722" lon="5.39871">
        <ele>1048</ele>
        <time>2026-05-13T15:54:34.000Z</time>
      </trkpt>
      <trkpt lat="44.22722" lon="5.39871">
        <ele>1048</ele>
        <time>2026-05-13T15:54:35.000Z</time>
      </trkpt>
      <trkpt lat="44.22722" lon="5.39871">
        <ele>1048</ele>
        <time>2026-05-13T15:54:36.000Z</time>
      </trkpt>
      <trkpt lat="44.22722" lon="5.39871">
        <ele>1048</ele>
        <time>2026-05-13T15:54:37.000Z</time>
      </trkpt>
      <trkpt lat="44.22722" lon="5.39871">
        <ele>1048</ele>
        <time>2026-05-13T15:54:38.000Z</time>
      </trkpt>
      <trkpt lat="44.22722" lon="5.39871">
        <ele>1048</ele>
        <time>2026-05-13T15:54:39.000Z</time>
      </trkpt>
      <trkpt lat="44.22722" lon="5.39871">
        <ele>1048</ele>
        <time>2026-05-13T15:54:40.000Z</time>
      </trkpt>
      <trkpt lat="44.22722" lon="5.39871">
        <ele>1048</ele>
        <time>2026-05-13T15:54:41.000Z</time>
      </trkpt>
      <trkpt lat="44.22722" lon="5.39871">
        <ele>1048</ele>
        <time>2026-05-13T15:54:42.000Z</time>
      </trkpt>
      <trkpt lat="44.22722" lon="5.39871">
        <ele>1048</ele>
        <time>2026-05-13T15:54:43.000Z</time>
      </trkpt>
      <trkpt lat="44.22722" lon="5.39871">
        <ele>1048</ele>
        <time>2026-05-13T15:54:44.000Z</time>
      </trkpt>
      <trkpt lat="44.22722" lon="5.39871">
        <ele>1048</ele>
        <time>2026-05-13T15:54:45.000Z</time>
      </trkpt>
      <trkpt lat="44.22722" lon="5.39871">
        <ele>1048</ele>
        <time>2026-05-13T15:54:46.000Z</time>
      </trkpt>
      <trkpt lat="44.22722" lon="5.39871">
        <ele>1048</ele>
        <time>2026-05-13T15:54:47.000Z</time>
      </trkpt>
      <trkpt lat="44.22722" lon="5.39871">
        <ele>1048</ele>
        <time>2026-05-13T15:54:48.000Z</time>
      </trkpt>
      <trkpt lat="44.22722" lon="5.39871">
        <ele>1048</ele>
        <time>2026-05-13T15:54:49.000Z</time>
      </trkpt>
      <trkpt lat="44.22722" lon="5.39871">
        <ele>1048</ele>
        <time>2026-05-13T15:54:50.000Z</time>
      </trkpt>
      <trkpt lat="44.22722" lon="5.39871">
        <ele>1048</ele>
        <time>2026-05-13T15:54:51.000Z</time>
      </trkpt>
      <trkpt lat="44.22722" lon="5.39871">
        <ele>1048</ele>
        <time>2026-05-13T15:54:52.000Z</time>
      </trkpt>
      <trkpt lat="44.22722" lon="5.39871">
        <ele>1048</ele>
        <time>2026-05-13T15:54:53.000Z</time>
      </trkpt>
      <trkpt lat="44.22722" lon="5.39871">
        <ele>1048</ele>
        <time>2026-05-13T15:54:54.000Z</time>
      </trkpt>
      <trkpt lat="44.22722" lon="5.39871">
        <ele>1048</ele>
        <time>2026-05-13T15:54:55.000Z</time>
      </trkpt>
      <trkpt lat="44.22722" lon="5.39871">
        <ele>1048</ele>
        <time>2026-05-13T15:54:56.000Z</time>
      </trkpt>
      <trkpt lat="44.22722" lon="5.39871">
        <ele>1048</ele>
        <time>2026-05-13T15:54:57.000Z</time>
      </trkpt>
      <trkpt lat="44.22722" lon="5.39871">
        <ele>1048</ele>
        <time>2026-05-13T15:54:58.000Z</time>
      </trkpt>
      <trkpt lat="44.22722" lon="5.39871">
        <ele>1048</ele>
        <time>2026-05-13T15:54:59.000Z</time>
      </trkpt>
      <trkpt lat="44.22722" lon="5.39871">
        <ele>1048</ele>
        <time>2026-05-13T15:55:00.000Z</time>
      </trkpt>
      <trkpt lat="44.22722" lon="5.39871">
        <ele>1048</ele>
        <time>2026-05-13T15:55:01.000Z</time>
      </trkpt>
      <trkpt lat="44.22722" lon="5.39871">
        <ele>1048</ele>
        <time>2026-05-13T15:55:02.000Z</time>
      </trkpt>
      <trkpt lat="44.22722" lon="5.39871">
        <ele>1048</ele>
        <time>2026-05-13T15:55:03.000Z</time>
      </trkpt>
      <trkpt lat="44.22722" lon="5.39871">
        <ele>1048</ele>
        <time>2026-05-13T15:55:04.000Z</time>
      </trkpt>
      <trkpt lat="44.22722" lon="5.39871">
        <ele>1048</ele>
        <time>2026-05-13T15:55:05.000Z</time>
      </trkpt>
      <trkpt lat="44.22722" lon="5.39871">
        <ele>1048</ele>
        <time>2026-05-13T15:55:06.000Z</time>
      </trkpt>
      <trkpt lat="44.22722" lon="5.39871">
        <ele>1048</ele>
        <time>2026-05-13T15:55:07.000Z</time>
      </trkpt>
      <trkpt lat="44.22722" lon="5.39871">
        <ele>1048</ele>
        <time>2026-05-13T15:55:08.000Z</time>
      </trkpt>
      <trkpt lat="44.22722" lon="5.39871">
        <ele>1048</ele>
        <time>2026-05-13T15:55:09.000Z</time>
      </trkpt>
      <trkpt lat="44.22722" lon="5.39871">
        <ele>1048</ele>
        <time>2026-05-13T15:55:10.000Z</time>
      </trkpt>
      <trkpt lat="44.22722" lon="5.39871">
        <ele>1048</ele>
        <time>2026-05-13T15:55:11.000Z</time>
      </trkpt>
      <trkpt lat="44.22722" lon="5.39871">
        <ele>1048</ele>
        <time>2026-05-13T15:55:12.000Z</time>
      </trkpt>
      <trkpt lat="44.22722" lon="5.39871">
        <ele>1048</ele>
        <time>2026-05-13T15:55:13.000Z</time>
      </trkpt>
      <trkpt lat="44.22722" lon="5.39871">
        <ele>1048</ele>
        <time>2026-05-13T15:55:14.000Z</time>
      </trkpt>
      <trkpt lat="44.22722" lon="5.39871">
        <ele>1048</ele>
        <time>2026-05-13T15:55:15.000Z</time>
      </trkpt>
      <trkpt lat="44.22722" lon="5.39871">
        <ele>1048</ele>
        <time>2026-05-13T15:55:16.000Z</time>
      </trkpt>
      <trkpt lat="44.22722" lon="5.39871">
        <ele>1048</ele>
        <time>2026-05-13T15:55:17.000Z</time>
      </trkpt>
      <trkpt lat="44.22722" lon="5.39871">
        <ele>1048</ele>
        <time>2026-05-13T15:55:18.000Z</time>
      </trkpt>
      <trkpt lat="44.22722" lon="5.39871">
        <ele>1048</ele>
        <time>2026-05-13T15:55:19.000Z</time>
      </trkpt>
      <trkpt lat="44.22722" lon="5.39871">
        <ele>1048</ele>
        <time>2026-05-13T15:55:20.000Z</time>
      </trkpt>
      <trkpt lat="44.22722" lon="5.39871">
        <ele>1048</ele>
        <time>2026-05-13T15:55:21.000Z</time>
      </trkpt>
      <trkpt lat="44.22722" lon="5.39871">
        <ele>1048</ele>
        <time>2026-05-13T15:55:22.000Z</time>
      </trkpt>
      <trkpt lat="44.22722" lon="5.39871">
        <ele>1048</ele>
        <time>2026-05-13T15:55:23.000Z</time>
      </trkpt>
      <trkpt lat="44.22722" lon="5.39871">
        <ele>1048</ele>
        <time>2026-05-13T15:55:24.000Z</time>
      </trkpt>
      <trkpt lat="44.22722" lon="5.39871">
        <ele>1048</ele>
        <time>2026-05-13T15:55:25.000Z</time>
      </trkpt>
      <trkpt lat="44.22722" lon="5.39871">
        <ele>1048</ele>
        <time>2026-05-13T15:55:26.000Z</time>
      </trkpt>
      <trkpt lat="44.22722" lon="5.39871">
        <ele>1048</ele>
        <time>2026-05-13T15:55:27.000Z</time>
      </trkpt>
      <trkpt lat="44.22722" lon="5.39871">
        <ele>1048</ele>
        <time>2026-05-13T15:55:28.000Z</time>
      </trkpt>
      <trkpt lat="44.22722" lon="5.39871">
        <ele>1048</ele>
        <time>2026-05-13T15:55:29.000Z</time>
      </trkpt>
      <trkpt lat="44.22722" lon="5.39871">
        <ele>1048</ele>
        <time>2026-05-13T15:55:30.000Z</time>
      </trkpt>
      <trkpt lat="44.22722" lon="5.39871">
        <ele>1048</ele>
        <time>2026-05-13T15:55:31.000Z</time>
      </trkpt>
      <trkpt lat="44.22722" lon="5.39871">
        <ele>1048</ele>
        <time>2026-05-13T15:55:32.000Z</time>
      </trkpt>
      <trkpt lat="44.22722" lon="5.39871">
        <ele>1048</ele>
        <time>2026-05-13T15:55:33.000Z</time>
      </trkpt>
      <trkpt lat="44.22722" lon="5.39871">
        <ele>1048</ele>
        <time>2026-05-13T15:55:34.000Z</time>
      </trkpt>
      <trkpt lat="44.22722" lon="5.39871">
        <ele>1048</ele>
        <time>2026-05-13T15:55:35.000Z</time>
      </trkpt>
      <trkpt lat="44.22722" lon="5.39871">
        <ele>1048</ele>
        <time>2026-05-13T15:55:36.000Z</time>
      </trkpt>
      <trkpt lat="44.22722" lon="5.39871">
        <ele>1048</ele>
        <time>2026-05-13T15:55:37.000Z</time>
      </trkpt>
      <trkpt lat="44.22722" lon="5.39871">
        <ele>1048</ele>
        <time>2026-05-13T15:55:38.000Z</time>
      </trkpt>
      <trkpt lat="44.22722" lon="5.39871">
        <ele>1048</ele>
        <time>2026-05-13T15:55:39.000Z</time>
      </trkpt>
      <trkpt lat="44.22722" lon="5.39871">
        <ele>1048</ele>
        <time>2026-05-13T15:55:40.000Z</time>
      </trkpt>
      <trkpt lat="44.22722" lon="5.39871">
        <ele>1048</ele>
        <time>2026-05-13T15:55:41.000Z</time>
      </trkpt>
      <trkpt lat="44.22722" lon="5.39871">
        <ele>1048</ele>
        <time>2026-05-13T15:55:42.000Z</time>
      </trkpt>
      <trkpt lat="44.22722" lon="5.39871">
        <ele>1048</ele>
        <time>2026-05-13T15:55:43.000Z</time>
      </trkpt>
      <trkpt lat="44.22722" lon="5.39871">
        <ele>1048</ele>
        <time>2026-05-13T15:55:44.000Z</time>
      </trkpt>
      <trkpt lat="44.22722" lon="5.39871">
        <ele>1048</ele>
        <time>2026-05-13T15:55:45.000Z</time>
      </trkpt>
      <trkpt lat="44.22722" lon="5.39871">
        <ele>1048</ele>
        <time>2026-05-13T15:55:46.000Z</time>
      </trkpt>
      <trkpt lat="44.22722" lon="5.39871">
        <ele>1048</ele>
        <time>2026-05-13T15:55:47.000Z</time>
      </trkpt>
      <trkpt lat="44.22722" lon="5.39871">
        <ele>1048</ele>
        <time>2026-05-13T15:55:48.000Z</time>
      </trkpt>
      <trkpt lat="44.22722" lon="5.39871">
        <ele>1048</ele>
        <time>2026-05-13T15:55:49.000Z</time>
      </trkpt>
      <trkpt lat="44.22722" lon="5.39871">
        <ele>1048</ele>
        <time>2026-05-13T15:55:50.000Z</time>
      </trkpt>
      <trkpt lat="44.22722" lon="5.39871">
        <ele>1048</ele>
        <time>2026-05-13T15:55:51.000Z</time>
      </trkpt>
      <trkpt lat="44.22722" lon="5.39871">
        <ele>1048</ele>
        <time>2026-05-13T15:55:52.000Z</time>
      </trkpt>
      <trkpt lat="44.22722" lon="5.39871">
        <ele>1048</ele>
        <time>2026-05-13T15:55:53.000Z</time>
      </trkpt>
      <trkpt lat="44.22722" lon="5.39871">
        <ele>1048</ele>
        <time>2026-05-13T15:55:54.000Z</time>
      </trkpt>
      <trkpt lat="44.22722" lon="5.39871">
        <ele>1048</ele>
        <time>2026-05-13T15:55:55.000Z</time>
      </trkpt>
      <trkpt lat="44.22722" lon="5.39871">
        <ele>1048</ele>
        <time>2026-05-13T15:55:56.000Z</time>
      </trkpt>
      <trkpt lat="44.22722" lon="5.39871">
        <ele>1048</ele>
        <time>2026-05-13T15:55:57.000Z</time>
      </trkpt>
      <trkpt lat="44.22722" lon="5.39871">
        <ele>1048</ele>
        <time>2026-05-13T15:55:58.000Z</time>
      </trkpt>
      <trkpt lat="44.22722" lon="5.39871">
        <ele>1048</ele>
        <time>2026-05-13T15:55:59.000Z</time>
      </trkpt>
      <trkpt lat="44.22722" lon="5.39871">
        <ele>1048</ele>
        <time>2026-05-13T15:56:00.000Z</time>
      </trkpt>
      <trkpt lat="44.22722" lon="5.39871">
        <ele>1048</ele>
        <time>2026-05-13T15:56:01.000Z</time>
      </trkpt>
      <trkpt lat="44.22722" lon="5.39871">
        <ele>1048</ele>
        <time>2026-05-13T15:56:02.000Z</time>
      </trkpt>
      <trkpt lat="44.22722" lon="5.39871">
        <ele>1048</ele>
        <time>2026-05-13T15:56:03.000Z</time>
      </trkpt>
      <trkpt lat="44.22722" lon="5.39871">
        <ele>1048</ele>
        <time>2026-05-13T15:56:04.000Z</time>
      </trkpt>
      <trkpt lat="44.22722" lon="5.39871">
        <ele>1048</ele>
        <time>2026-05-13T15:56:05.000Z</time>
      </trkpt>
      <trkpt lat="44.22722" lon="5.39871">
        <ele>1048</ele>
        <time>2026-05-13T15:56:06.000Z</time>
      </trkpt>
      <trkpt lat="44.22722" lon="5.39871">
        <ele>1048</ele>
        <time>2026-05-13T15:56:07.000Z</time>
      </trkpt>
      <trkpt lat="44.22722" lon="5.39871">
        <ele>1048</ele>
        <time>2026-05-13T15:56:08.000Z</time>
      </trkpt>
      <trkpt lat="44.22722" lon="5.39871">
        <ele>1048</ele>
        <time>2026-05-13T15:56:09.000Z</time>
      </trkpt>
      <trkpt lat="44.22722" lon="5.39871">
        <ele>1048</ele>
        <time>2026-05-13T15:56:10.000Z</time>
      </trkpt>
      <trkpt lat="44.22722" lon="5.39871">
        <ele>1048</ele>
        <time>2026-05-13T15:56:11.000Z</time>
      </trkpt>
      <trkpt lat="44.22722" lon="5.39871">
        <ele>1048</ele>
        <time>2026-05-13T15:56:12.000Z</time>
      </trkpt>
      <trkpt lat="44.22722" lon="5.39871">
        <ele>1048</ele>
        <time>2026-05-13T15:56:13.000Z</time>
      </trkpt>
      <trkpt lat="44.22722" lon="5.39871">
        <ele>1048</ele>
        <time>2026-05-13T15:56:14.000Z</time>
      </trkpt>
      <trkpt lat="44.22722" lon="5.39871">
        <ele>1048</ele>
        <time>2026-05-13T15:56:15.000Z</time>
      </trkpt>
      <trkpt lat="44.22722" lon="5.39871">
        <ele>1048</ele>
        <time>2026-05-13T15:56:16.000Z</time>
      </trkpt>
      <trkpt lat="44.22722" lon="5.39871">
        <ele>1048</ele>
        <time>2026-05-13T15:56:17.000Z</time>
      </trkpt>
      <trkpt lat="44.22722" lon="5.39871">
        <ele>1048</ele>
        <time>2026-05-13T15:56:18.000Z</time>
      </trkpt>
      <trkpt lat="44.22722" lon="5.39871">
        <ele>1048</ele>
        <time>2026-05-13T15:56:19.000Z</time>
      </trkpt>
      <trkpt lat="44.22722" lon="5.39871">
        <ele>1048</ele>
        <time>2026-05-13T15:56:20.000Z</time>
      </trkpt>
      <trkpt lat="44.22722" lon="5.39871">
        <ele>1048</ele>
        <time>2026-05-13T15:56:21.000Z</time>
      </trkpt>
      <trkpt lat="44.22722" lon="5.39871">
        <ele>1048</ele>
        <time>2026-05-13T15:56:22.000Z</time>
      </trkpt>
      <trkpt lat="44.22722" lon="5.39871">
        <ele>1048</ele>
        <time>2026-05-13T15:56:23.000Z</time>
      </trkpt>
      <trkpt lat="44.22722" lon="5.39871">
        <ele>1048</ele>
        <time>2026-05-13T15:56:24.000Z</time>
      </trkpt>
      <trkpt lat="44.22722" lon="5.39871">
        <ele>1048</ele>
        <time>2026-05-13T15:56:25.000Z</time>
      </trkpt>
      <trkpt lat="44.22722" lon="5.39871">
        <ele>1048</ele>
        <time>2026-05-13T15:56:26.000Z</time>
      </trkpt>
      <trkpt lat="44.22722" lon="5.39871">
        <ele>1048</ele>
        <time>2026-05-13T15:56:27.000Z</time>
      </trkpt>
      <trkpt lat="44.22722" lon="5.39871">
        <ele>1048</ele>
        <time>2026-05-13T15:56:28.000Z</time>
      </trkpt>
      <trkpt lat="44.22722" lon="5.39871">
        <ele>1048</ele>
        <time>2026-05-13T15:56:29.000Z</time>
      </trkpt>
      <trkpt lat="44.22722" lon="5.39871">
        <ele>1048</ele>
        <time>2026-05-13T15:56:30.000Z</time>
      </trkpt>
      <trkpt lat="44.22722" lon="5.39871">
        <ele>1048</ele>
        <time>2026-05-13T15:56:31.000Z</time>
      </trkpt>
      <trkpt lat="44.22722" lon="5.39871">
        <ele>1048</ele>
        <time>2026-05-13T15:56:32.000Z</time>
      </trkpt>
      <trkpt lat="44.22722" lon="5.39871">
        <ele>1048</ele>
        <time>2026-05-13T15:56:33.000Z</time>
      </trkpt>
      <trkpt lat="44.22722" lon="5.39871">
        <ele>1048</ele>
        <time>2026-05-13T15:56:34.000Z</time>
      </trkpt>
      <trkpt lat="44.22722" lon="5.39871">
        <ele>1048</ele>
        <time>2026-05-13T15:56:35.000Z</time>
      </trkpt>
      <trkpt lat="44.22722" lon="5.39871">
        <ele>1048</ele>
        <time>2026-05-13T15:56:36.000Z</time>
      </trkpt>
      <trkpt lat="44.22722" lon="5.39871">
        <ele>1048</ele>
        <time>2026-05-13T15:56:37.000Z</time>
      </trkpt>
      <trkpt lat="44.22722" lon="5.39871">
        <ele>1048</ele>
        <time>2026-05-13T15:56:38.000Z</time>
      </trkpt>
      <trkpt lat="44.22722" lon="5.39871">
        <ele>1048</ele>
        <time>2026-05-13T15:56:39.000Z</time>
      </trkpt>
      <trkpt lat="44.22722" lon="5.39871">
        <ele>1048</ele>
        <time>2026-05-13T15:56:40.000Z</time>
      </trkpt>
      <trkpt lat="44.22722" lon="5.39871">
        <ele>1048</ele>
        <time>2026-05-13T15:56:41.000Z</time>
      </trkpt>
      <trkpt lat="44.22722" lon="5.39871">
        <ele>1048</ele>
        <time>2026-05-13T15:56:42.000Z</time>
      </trkpt>
      <trkpt lat="44.22722" lon="5.39871">
        <ele>1048</ele>
        <time>2026-05-13T15:56:43.000Z</time>
      </trkpt>
      <trkpt lat="44.22722" lon="5.39871">
        <ele>1048</ele>
        <time>2026-05-13T15:56:44.000Z</time>
      </trkpt>
      <trkpt lat="44.22722" lon="5.39871">
        <ele>1048</ele>
        <time>2026-05-13T15:56:45.000Z</time>
      </trkpt>
      <trkpt lat="44.22722" lon="5.39871">
        <ele>1048</ele>
        <time>2026-05-13T15:56:46.000Z</time>
      </trkpt>
      <trkpt lat="44.22722" lon="5.39871">
        <ele>1048</ele>
        <time>2026-05-13T15:56:47.000Z</time>
      </trkpt>
      <trkpt lat="44.22722" lon="5.39871">
        <ele>1048</ele>
        <time>2026-05-13T15:56:48.000Z</time>
      </trkpt>
      <trkpt lat="44.22722" lon="5.39871">
        <ele>1048</ele>
        <time>2026-05-13T15:56:49.000Z</time>
      </trkpt>
      <trkpt lat="44.22722" lon="5.39871">
        <ele>1048</ele>
        <time>2026-05-13T15:56:50.000Z</time>
      </trkpt>
      <trkpt lat="44.22722" lon="5.39871">
        <ele>1048</ele>
        <time>2026-05-13T15:56:51.000Z</time>
      </trkpt>
      <trkpt lat="44.22722" lon="5.39871">
        <ele>1048</ele>
        <time>2026-05-13T15:56:52.000Z</time>
      </trkpt>
      <trkpt lat="44.22722" lon="5.39871">
        <ele>1048</ele>
        <time>2026-05-13T15:56:53.000Z</time>
      </trkpt>
      <trkpt lat="44.22722" lon="5.39871">
        <ele>1048</ele>
        <time>2026-05-13T15:56:54.000Z</time>
      </trkpt>
      <trkpt lat="44.22722" lon="5.39871">
        <ele>1048</ele>
        <time>2026-05-13T15:56:55.000Z</time>
      </trkpt>
      <trkpt lat="44.22722" lon="5.39871">
        <ele>1048</ele>
        <time>2026-05-13T15:56:56.000Z</time>
      </trkpt>
      <trkpt lat="44.22722" lon="5.39871">
        <ele>1048</ele>
        <time>2026-05-13T15:56:57.000Z</time>
      </trkpt>
      <trkpt lat="44.22722" lon="5.39871">
        <ele>1048</ele>
        <time>2026-05-13T15:56:58.000Z</time>
      </trkpt>
      <trkpt lat="44.22722" lon="5.39871">
        <ele>1048</ele>
        <time>2026-05-13T15:56:59.000Z</time>
      </trkpt>
      <trkpt lat="44.22722" lon="5.39871">
        <ele>1048</ele>
        <time>2026-05-13T15:57:00.000Z</time>
      </trkpt>
      <trkpt lat="44.22722" lon="5.39871">
        <ele>1048</ele>
        <time>2026-05-13T15:57:01.000Z</time>
      </trkpt>
      <trkpt lat="44.22722" lon="5.39871">
        <ele>1048</ele>
        <time>2026-05-13T15:57:02.000Z</time>
      </trkpt>
      <trkpt lat="44.22722" lon="5.39871">
        <ele>1048</ele>
        <time>2026-05-13T15:57:03.000Z</time>
      </trkpt>
      <trkpt lat="44.22722" lon="5.39871">
        <ele>1048</ele>
        <time>2026-05-13T15:57:04.000Z</time>
      </trkpt>
      <trkpt lat="44.22722" lon="5.39871">
        <ele>1048</ele>
        <time>2026-05-13T15:57:05.000Z</time>
      </trkpt>
      <trkpt lat="44.22722" lon="5.39871">
        <ele>1048</ele>
        <time>2026-05-13T15:57:06.000Z</time>
      </trkpt>
      <trkpt lat="44.22722" lon="5.39871">
        <ele>1048</ele>
        <time>2026-05-13T15:57:07.000Z</time>
      </trkpt>
      <trkpt lat="44.22722" lon="5.39871">
        <ele>1048</ele>
        <time>2026-05-13T15:57:08.000Z</time>
      </trkpt>
      <trkpt lat="44.22722" lon="5.39871">
        <ele>1048</ele>
        <time>2026-05-13T15:57:09.000Z</time>
      </trkpt>
      <trkpt lat="44.22722" lon="5.39871">
        <ele>1048</ele>
        <time>2026-05-13T15:57:10.000Z</time>
      </trkpt>
      <trkpt lat="44.22722" lon="5.39871">
        <ele>1048</ele>
        <time>2026-05-13T15:57:11.000Z</time>
      </trkpt>
      <trkpt lat="44.22722" lon="5.39871">
        <ele>1048</ele>
        <time>2026-05-13T15:57:12.000Z</time>
      </trkpt>
      <trkpt lat="44.22722" lon="5.39871">
        <ele>1048</ele>
        <time>2026-05-13T15:57:13.000Z</time>
      </trkpt>
      <trkpt lat="44.22722" lon="5.39871">
        <ele>1048</ele>
        <time>2026-05-13T15:57:14.000Z</time>
      </trkpt>
      <trkpt lat="44.22722" lon="5.39871">
        <ele>1048</ele>
        <time>2026-05-13T15:57:15.000Z</time>
      </trkpt>
      <trkpt lat="44.22722" lon="5.39871">
        <ele>1048</ele>
        <time>2026-05-13T15:57:16.000Z</time>
      </trkpt>
      <trkpt lat="44.22722" lon="5.39871">
        <ele>1048</ele>
        <time>2026-05-13T15:57:17.000Z</time>
      </trkpt>
      <trkpt lat="44.22722" lon="5.39871">
        <ele>1048</ele>
        <time>2026-05-13T15:57:18.000Z</time>
      </trkpt>
      <trkpt lat="44.22722" lon="5.39871">
        <ele>1048</ele>
        <time>2026-05-13T15:57:19.000Z</time>
      </trkpt>
      <trkpt lat="44.22722" lon="5.39871">
        <ele>1048</ele>
        <time>2026-05-13T15:57:20.000Z</time>
      </trkpt>
      <trkpt lat="44.22722" lon="5.39871">
        <ele>1048</ele>
        <time>2026-05-13T15:57:21.000Z</time>
      </trkpt>
      <trkpt lat="44.22722" lon="5.39871">
        <ele>1048</ele>
        <time>2026-05-13T15:57:22.000Z</time>
      </trkpt>
      <trkpt lat="44.22722" lon="5.39871">
        <ele>1048</ele>
        <time>2026-05-13T15:57:23.000Z</time>
      </trkpt>
      <trkpt lat="44.22722" lon="5.39871">
        <ele>1048</ele>
        <time>2026-05-13T15:57:24.000Z</time>
      </trkpt>
      <trkpt lat="44.22722" lon="5.39871">
        <ele>1048</ele>
        <time>2026-05-13T15:57:25.000Z</time>
      </trkpt>
      <trkpt lat="44.22722" lon="5.39871">
        <ele>1048</ele>
        <time>2026-05-13T15:57:26.000Z</time>
      </trkpt>
      <trkpt lat="44.22722" lon="5.39871">
        <ele>1048</ele>
        <time>2026-05-13T15:57:27.000Z</time>
      </trkpt>
      <trkpt lat="44.22722" lon="5.39871">
        <ele>1048</ele>
        <time>2026-05-13T15:57:28.000Z</time>
      </trkpt>
      <trkpt lat="44.22722" lon="5.39871">
        <ele>1048</ele>
        <time>2026-05-13T15:57:29.000Z</time>
      </trkpt>
      <trkpt lat="44.22722" lon="5.39871">
        <ele>1048</ele>
        <time>2026-05-13T15:57:30.000Z</time>
      </trkpt>
      <trkpt lat="44.22722" lon="5.39871">
        <ele>1048</ele>
        <time>2026-05-13T15:57:31.000Z</time>
      </trkpt>
      <trkpt lat="44.22722" lon="5.39871">
        <ele>1048</ele>
        <time>2026-05-13T15:57:32.000Z</time>
      </trkpt>
      <trkpt lat="44.22722" lon="5.39871">
        <ele>1048</ele>
        <time>2026-05-13T15:57:33.000Z</time>
      </trkpt>
      <trkpt lat="44.22722" lon="5.39871">
        <ele>1048</ele>
        <time>2026-05-13T15:57:34.000Z</time>
      </trkpt>
      <trkpt lat="44.22722" lon="5.39871">
        <ele>1048</ele>
        <time>2026-05-13T15:57:35.000Z</time>
      </trkpt>
      <trkpt lat="44.22722" lon="5.39871">
        <ele>1048</ele>
        <time>2026-05-13T15:57:36.000Z</time>
      </trkpt>
      <trkpt lat="44.22722" lon="5.39871">
        <ele>1048</ele>
        <time>2026-05-13T15:57:37.000Z</time>
      </trkpt>
      <trkpt lat="44.22722" lon="5.39871">
        <ele>1048</ele>
        <time>2026-05-13T15:57:38.000Z</time>
      </trkpt>
      <trkpt lat="44.22722" lon="5.39871">
        <ele>1048</ele>
        <time>2026-05-13T15:57:39.000Z</time>
      </trkpt>
      <trkpt lat="44.22722" lon="5.39871">
        <ele>1048</ele>
        <time>2026-05-13T15:57:40.000Z</time>
      </trkpt>
      <trkpt lat="44.22722" lon="5.39871">
        <ele>1048</ele>
        <time>2026-05-13T15:57:41.000Z</time>
      </trkpt>
      <trkpt lat="44.22722" lon="5.39871">
        <ele>1048</ele>
        <time>2026-05-13T15:57:42.000Z</time>
      </trkpt>
      <trkpt lat="44.22722" lon="5.39871">
        <ele>1048</ele>
        <time>2026-05-13T15:57:43.000Z</time>
      </trkpt>
      <trkpt lat="44.22722" lon="5.39871">
        <ele>1048</ele>
        <time>2026-05-13T15:57:44.000Z</time>
      </trkpt>
      <trkpt lat="44.22722" lon="5.39871">
        <ele>1048</ele>
        <time>2026-05-13T15:57:45.000Z</time>
      </trkpt>
      <trkpt lat="44.22722" lon="5.39871">
        <ele>1048</ele>
        <time>2026-05-13T15:57:46.000Z</time>
      </trkpt>
      <trkpt lat="44.22722" lon="5.39871">
        <ele>1048</ele>
        <time>2026-05-13T15:57:47.000Z</time>
      </trkpt>
      <trkpt lat="44.22722" lon="5.39871">
        <ele>1048</ele>
        <time>2026-05-13T15:57:48.000Z</time>
      </trkpt>
      <trkpt lat="44.22722" lon="5.39871">
        <ele>1048</ele>
        <time>2026-05-13T15:57:49.000Z</time>
      </trkpt>
      <trkpt lat="44.22722" lon="5.39871">
        <ele>1048</ele>
        <time>2026-05-13T15:57:50.000Z</time>
      </trkpt>
      <trkpt lat="44.22722" lon="5.39871">
        <ele>1048</ele>
        <time>2026-05-13T15:57:51.000Z</time>
      </trkpt>
      <trkpt lat="44.22722" lon="5.39871">
        <ele>1048</ele>
        <time>2026-05-13T15:57:52.000Z</time>
      </trkpt>
      <trkpt lat="44.22722" lon="5.39871">
        <ele>1048</ele>
        <time>2026-05-13T15:57:53.000Z</time>
      </trkpt>
      <trkpt lat="44.22722" lon="5.39871">
        <ele>1048</ele>
        <time>2026-05-13T15:57:54.000Z</time>
      </trkpt>
      <trkpt lat="44.22722" lon="5.39871">
        <ele>1048</ele>
        <time>2026-05-13T15:57:55.000Z</time>
      </trkpt>
      <trkpt lat="44.22722" lon="5.39871">
        <ele>1048</ele>
        <time>2026-05-13T15:57:56.000Z</time>
      </trkpt>
      <trkpt lat="44.22722" lon="5.39871">
        <ele>1048</ele>
        <time>2026-05-13T15:57:57.000Z</time>
      </trkpt>
      <trkpt lat="44.22722" lon="5.39871">
        <ele>1048</ele>
        <time>2026-05-13T15:57:58.000Z</time>
      </trkpt>
      <trkpt lat="44.22722" lon="5.39871">
        <ele>1048</ele>
        <time>2026-05-13T15:57:59.000Z</time>
      </trkpt>
      <trkpt lat="44.22722" lon="5.39871">
        <ele>1048</ele>
        <time>2026-05-13T15:58:00.000Z</time>
      </trkpt>
      <trkpt lat="44.22722" lon="5.39871">
        <ele>1048</ele>
        <time>2026-05-13T15:58:01.000Z</time>
      </trkpt>
      <trkpt lat="44.22722" lon="5.39871">
        <ele>1048</ele>
        <time>2026-05-13T15:58:02.000Z</time>
      </trkpt>
      <trkpt lat="44.22722" lon="5.39871">
        <ele>1048</ele>
        <time>2026-05-13T15:58:03.000Z</time>
      </trkpt>
      <trkpt lat="44.22722" lon="5.39871">
        <ele>1048</ele>
        <time>2026-05-13T15:58:04.000Z</time>
      </trkpt>
      <trkpt lat="44.22722" lon="5.39871">
        <ele>1048</ele>
        <time>2026-05-13T15:58:05.000Z</time>
      </trkpt>
      <trkpt lat="44.22722" lon="5.39871">
        <ele>1048</ele>
        <time>2026-05-13T15:58:06.000Z</time>
      </trkpt>
      <trkpt lat="44.22722" lon="5.39871">
        <ele>1048</ele>
        <time>2026-05-13T15:58:07.000Z</time>
      </trkpt>
      <trkpt lat="44.22722" lon="5.39871">
        <ele>1048</ele>
        <time>2026-05-13T15:58:08.000Z</time>
      </trkpt>
      <trkpt lat="44.22722" lon="5.39871">
        <ele>1048</ele>
        <time>2026-05-13T15:58:09.000Z</time>
      </trkpt>
      <trkpt lat="44.22722" lon="5.39871">
        <ele>1048</ele>
        <time>2026-05-13T15:58:10.000Z</time>
      </trkpt>
      <trkpt lat="44.22722" lon="5.39871">
        <ele>1048</ele>
        <time>2026-05-13T15:58:11.000Z</time>
      </trkpt>
      <trkpt lat="44.22722" lon="5.39871">
        <ele>1048</ele>
        <time>2026-05-13T15:58:12.000Z</time>
      </trkpt>
      <trkpt lat="44.22722" lon="5.39871">
        <ele>1048</ele>
        <time>2026-05-13T15:58:13.000Z</time>
      </trkpt>
      <trkpt lat="44.22722" lon="5.39871">
        <ele>1048</ele>
        <time>2026-05-13T15:58:14.000Z</time>
      </trkpt>
      <trkpt lat="44.22722" lon="5.39871">
        <ele>1048</ele>
        <time>2026-05-13T15:58:15.000Z</time>
      </trkpt>
      <trkpt lat="44.22722" lon="5.39871">
        <ele>1048</ele>
        <time>2026-05-13T15:58:16.000Z</time>
      </trkpt>
      <trkpt lat="44.22722" lon="5.39871">
        <ele>1048</ele>
        <time>2026-05-13T15:58:17.000Z</time>
      </trkpt>
      <trkpt lat="44.22722" lon="5.39871">
        <ele>1048</ele>
        <time>2026-05-13T15:58:18.000Z</time>
      </trkpt>
      <trkpt lat="44.22722" lon="5.39871">
        <ele>1048</ele>
        <time>2026-05-13T15:58:19.000Z</time>
      </trkpt>
      <trkpt lat="44.22722" lon="5.39871">
        <ele>1048</ele>
        <time>2026-05-13T15:58:20.000Z</time>
      </trkpt>
      <trkpt lat="44.22722" lon="5.39871">
        <ele>1048</ele>
        <time>2026-05-13T15:58:21.000Z</time>
      </trkpt>
      <trkpt lat="44.22722" lon="5.39871">
        <ele>1048</ele>
        <time>2026-05-13T15:58:22.000Z</time>
      </trkpt>
      <trkpt lat="44.22722" lon="5.39871">
        <ele>1048</ele>
        <time>2026-05-13T15:58:23.000Z</time>
      </trkpt>
      <trkpt lat="44.22722" lon="5.39871">
        <ele>1048</ele>
        <time>2026-05-13T15:58:24.000Z</time>
      </trkpt>
      <trkpt lat="44.22722" lon="5.39871">
        <ele>1048</ele>
        <time>2026-05-13T15:58:25.000Z</time>
      </trkpt>
      <trkpt lat="44.22722" lon="5.39871">
        <ele>1048</ele>
        <time>2026-05-13T15:58:26.000Z</time>
      </trkpt>
      <trkpt lat="44.22722" lon="5.39871">
        <ele>1048</ele>
        <time>2026-05-13T15:58:27.000Z</time>
      </trkpt>
      <trkpt lat="44.22722" lon="5.39871">
        <ele>1048</ele>
        <time>2026-05-13T15:58:28.000Z</time>
      </trkpt>
      <trkpt lat="44.22722" lon="5.39871">
        <ele>1048</ele>
        <time>2026-05-13T15:58:29.000Z</time>
      </trkpt>
      <trkpt lat="44.22722" lon="5.39871">
        <ele>1048</ele>
        <time>2026-05-13T15:58:30.000Z</time>
      </trkpt>
      <trkpt lat="44.22722" lon="5.39871">
        <ele>1048</ele>
        <time>2026-05-13T15:58:31.000Z</time>
      </trkpt>
      <trkpt lat="44.22722" lon="5.39871">
        <ele>1048</ele>
        <time>2026-05-13T15:58:32.000Z</time>
      </trkpt>
      <trkpt lat="44.22722" lon="5.39871">
        <ele>1048</ele>
        <time>2026-05-13T15:58:33.000Z</time>
      </trkpt>
      <trkpt lat="44.22722" lon="5.39871">
        <ele>1048</ele>
        <time>2026-05-13T15:58:34.000Z</time>
      </trkpt>
      <trkpt lat="44.22722" lon="5.39871">
        <ele>1048</ele>
        <time>2026-05-13T15:58:35.000Z</time>
      </trkpt>
      <trkpt lat="44.22722" lon="5.39871">
        <ele>1048</ele>
        <time>2026-05-13T15:58:36.000Z</time>
      </trkpt>
      <trkpt lat="44.22722" lon="5.39871">
        <ele>1048</ele>
        <time>2026-05-13T15:58:37.000Z</time>
      </trkpt>
      <trkpt lat="44.22722" lon="5.39871">
        <ele>1048</ele>
        <time>2026-05-13T15:58:38.000Z</time>
      </trkpt>
      <trkpt lat="44.22722" lon="5.39871">
        <ele>1048</ele>
        <time>2026-05-13T15:58:39.000Z</time>
      </trkpt>
      <trkpt lat="44.22722" lon="5.39871">
        <ele>1048</ele>
        <time>2026-05-13T15:58:40.000Z</time>
      </trkpt>
      <trkpt lat="44.22722" lon="5.39871">
        <ele>1048</ele>
        <time>2026-05-13T15:58:41.000Z</time>
      </trkpt>
      <trkpt lat="44.22722" lon="5.39871">
        <ele>1048</ele>
        <time>2026-05-13T15:58:42.000Z</time>
      </trkpt>
      <trkpt lat="44.22722" lon="5.39871">
        <ele>1048</ele>
        <time>2026-05-13T15:58:43.000Z</time>
      </trkpt>
      <trkpt lat="44.22722" lon="5.39871">
        <ele>1048</ele>
        <time>2026-05-13T15:58:44.000Z</time>
      </trkpt>
      <trkpt lat="44.22722" lon="5.39871">
        <ele>1048</ele>
        <time>2026-05-13T15:58:45.000Z</time>
      </trkpt>
      <trkpt lat="44.22722" lon="5.39871">
        <ele>1048</ele>
        <time>2026-05-13T15:58:46.000Z</time>
      </trkpt>
      <trkpt lat="44.22722" lon="5.39871">
        <ele>1048</ele>
        <time>2026-05-13T15:58:47.000Z</time>
      </trkpt>
      <trkpt lat="44.22722" lon="5.39871">
        <ele>1048</ele>
        <time>2026-05-13T15:58:48.000Z</time>
      </trkpt>
      <trkpt lat="44.22722" lon="5.39871">
        <ele>1048</ele>
        <time>2026-05-13T15:58:49.000Z</time>
      </trkpt>
      <trkpt lat="44.22722" lon="5.39871">
        <ele>1048</ele>
        <time>2026-05-13T15:58:50.000Z</time>
      </trkpt>
      <trkpt lat="44.22722" lon="5.39871">
        <ele>1048</ele>
        <time>2026-05-13T15:58:51.000Z</time>
      </trkpt>
      <trkpt lat="44.22722" lon="5.39871">
        <ele>1048</ele>
        <time>2026-05-13T15:58:52.000Z</time>
      </trkpt>
      <trkpt lat="44.22722" lon="5.39871">
        <ele>1048</ele>
        <time>2026-05-13T15:58:53.000Z</time>
      </trkpt>
      <trkpt lat="44.22722" lon="5.39871">
        <ele>1048</ele>
        <time>2026-05-13T15:58:54.000Z</time>
      </trkpt>
      <trkpt lat="44.22722" lon="5.39871">
        <ele>1048</ele>
        <time>2026-05-13T15:58:55.000Z</time>
      </trkpt>
      <trkpt lat="44.22722" lon="5.39871">
        <ele>1048</ele>
        <time>2026-05-13T15:58:56.000Z</time>
      </trkpt>
      <trkpt lat="44.22722" lon="5.39871">
        <ele>1048</ele>
        <time>2026-05-13T15:58:57.000Z</time>
      </trkpt>
      <trkpt lat="44.22722" lon="5.39871">
        <ele>1048</ele>
        <time>2026-05-13T15:58:58.000Z</time>
      </trkpt>
      <trkpt lat="44.22722" lon="5.39871">
        <ele>1048</ele>
        <time>2026-05-13T15:58:59.000Z</time>
      </trkpt>
      <trkpt lat="44.22722" lon="5.39871">
        <ele>1048</ele>
        <time>2026-05-13T15:59:00.000Z</time>
      </trkpt>
      <trkpt lat="44.22722" lon="5.39871">
        <ele>1048</ele>
        <time>2026-05-13T15:59:01.000Z</time>
      </trkpt>
      <trkpt lat="44.22722" lon="5.39871">
        <ele>1048</ele>
        <time>2026-05-13T15:59:02.000Z</time>
      </trkpt>
      <trkpt lat="44.22722" lon="5.39871">
        <ele>1048</ele>
        <time>2026-05-13T15:59:03.000Z</time>
      </trkpt>
      <trkpt lat="44.22722" lon="5.39871">
        <ele>1048</ele>
        <time>2026-05-13T15:59:04.000Z</time>
      </trkpt>
      <trkpt lat="44.22722" lon="5.39871">
        <ele>1048</ele>
        <time>2026-05-13T15:59:05.000Z</time>
      </trkpt>
      <trkpt lat="44.22722" lon="5.39871">
        <ele>1048</ele>
        <time>2026-05-13T15:59:06.000Z</time>
      </trkpt>
      <trkpt lat="44.22722" lon="5.39871">
        <ele>1048</ele>
        <time>2026-05-13T15:59:07.000Z</time>
      </trkpt>
      <trkpt lat="44.22722" lon="5.39871">
        <ele>1048</ele>
        <time>2026-05-13T15:59:08.000Z</time>
      </trkpt>
      <trkpt lat="44.22722" lon="5.39871">
        <ele>1048</ele>
        <time>2026-05-13T15:59:09.000Z</time>
      </trkpt>
      <trkpt lat="44.22722" lon="5.39871">
        <ele>1048</ele>
        <time>2026-05-13T15:59:10.000Z</time>
      </trkpt>
      <trkpt lat="44.22722" lon="5.39871">
        <ele>1048</ele>
        <time>2026-05-13T15:59:11.000Z</time>
      </trkpt>
      <trkpt lat="44.22722" lon="5.39871">
        <ele>1048</ele>
        <time>2026-05-13T15:59:12.000Z</time>
      </trkpt>
      <trkpt lat="44.22722" lon="5.39871">
        <ele>1048</ele>
        <time>2026-05-13T15:59:13.000Z</time>
      </trkpt>
      <trkpt lat="44.22722" lon="5.39871">
        <ele>1048</ele>
        <time>2026-05-13T15:59:14.000Z</time>
      </trkpt>
      <trkpt lat="44.22722" lon="5.39871">
        <ele>1048</ele>
        <time>2026-05-13T15:59:15.000Z</time>
      </trkpt>
      <trkpt lat="44.22722" lon="5.39871">
        <ele>1048</ele>
        <time>2026-05-13T15:59:16.000Z</time>
      </trkpt>
      <trkpt lat="44.22722" lon="5.39871">
        <ele>1048</ele>
        <time>2026-05-13T15:59:17.000Z</time>
      </trkpt>
      <trkpt lat="44.22722" lon="5.39871">
        <ele>1048</ele>
        <time>2026-05-13T15:59:18.000Z</time>
      </trkpt>
      <trkpt lat="44.22722" lon="5.39871">
        <ele>1048</ele>
        <time>2026-05-13T15:59:19.000Z</time>
      </trkpt>
      <trkpt lat="44.22722" lon="5.39871">
        <ele>1048</ele>
        <time>2026-05-13T15:59:20.000Z</time>
      </trkpt>
      <trkpt lat="44.22722" lon="5.39871">
        <ele>1048</ele>
        <time>2026-05-13T15:59:21.000Z</time>
      </trkpt>
      <trkpt lat="44.22722" lon="5.39871">
        <ele>1048</ele>
        <time>2026-05-13T15:59:22.000Z</time>
      </trkpt>
      <trkpt lat="44.22722" lon="5.39871">
        <ele>1048</ele>
        <time>2026-05-13T15:59:23.000Z</time>
      </trkpt>
      <trkpt lat="44.22722" lon="5.39871">
        <ele>1048</ele>
        <time>2026-05-13T15:59:24.000Z</time>
      </trkpt>
      <trkpt lat="44.22722" lon="5.39871">
        <ele>1048</ele>
        <time>2026-05-13T15:59:25.000Z</time>
      </trkpt>
      <trkpt lat="44.22722" lon="5.39871">
        <ele>1048</ele>
        <time>2026-05-13T15:59:26.000Z</time>
      </trkpt>
      <trkpt lat="44.22722" lon="5.39871">
        <ele>1048</ele>
        <time>2026-05-13T15:59:27.000Z</time>
      </trkpt>
      <trkpt lat="44.22722" lon="5.39871">
        <ele>1048</ele>
        <time>2026-05-13T15:59:28.000Z</time>
      </trkpt>
      <trkpt lat="44.22722" lon="5.39871">
        <ele>1048</ele>
        <time>2026-05-13T15:59:29.000Z</time>
      </trkpt>
      <trkpt lat="44.22722" lon="5.39871">
        <ele>1048</ele>
        <time>2026-05-13T15:59:30.000Z</time>
      </trkpt>
      <trkpt lat="44.22722" lon="5.39871">
        <ele>1048</ele>
        <time>2026-05-13T15:59:31.000Z</time>
      </trkpt>
      <trkpt lat="44.22722" lon="5.39871">
        <ele>1048</ele>
        <time>2026-05-13T15:59:32.000Z</time>
      </trkpt>
      <trkpt lat="44.22722" lon="5.39871">
        <ele>1048</ele>
        <time>2026-05-13T15:59:33.000Z</time>
      </trkpt>
      <trkpt lat="44.22722" lon="5.39871">
        <ele>1048</ele>
        <time>2026-05-13T15:59:34.000Z</time>
      </trkpt>
      <trkpt lat="44.22722" lon="5.39871">
        <ele>1048</ele>
        <time>2026-05-13T15:59:35.000Z</time>
      </trkpt>
      <trkpt lat="44.22722" lon="5.39871">
        <ele>1048</ele>
        <time>2026-05-13T15:59:36.000Z</time>
      </trkpt>
      <trkpt lat="44.22722" lon="5.39871">
        <ele>1048</ele>
        <time>2026-05-13T15:59:37.000Z</time>
      </trkpt>
      <trkpt lat="44.22722" lon="5.39871">
        <ele>1048</ele>
        <time>2026-05-13T15:59:38.000Z</time>
      </trkpt>
      <trkpt lat="44.22722" lon="5.39871">
        <ele>1048</ele>
        <time>2026-05-13T15:59:39.000Z</time>
      </trkpt>
      <trkpt lat="44.22722" lon="5.39871">
        <ele>1048</ele>
        <time>2026-05-13T15:59:40.000Z</time>
      </trkpt>
      <trkpt lat="44.22722" lon="5.39871">
        <ele>1048</ele>
        <time>2026-05-13T15:59:41.000Z</time>
      </trkpt>
      <trkpt lat="44.22722" lon="5.39871">
        <ele>1048</ele>
        <time>2026-05-13T15:59:42.000Z</time>
      </trkpt>
      <trkpt lat="44.22722" lon="5.39871">
        <ele>1048</ele>
        <time>2026-05-13T15:59:43.000Z</time>
      </trkpt>
      <trkpt lat="44.22722" lon="5.39871">
        <ele>1048</ele>
        <time>2026-05-13T15:59:44.000Z</time>
      </trkpt>
      <trkpt lat="44.22722" lon="5.39871">
        <ele>1048</ele>
        <time>2026-05-13T15:59:45.000Z</time>
      </trkpt>
      <trkpt lat="44.22722" lon="5.39871">
        <ele>1048</ele>
        <time>2026-05-13T15:59:46.000Z</time>
      </trkpt>
      <trkpt lat="44.22722" lon="5.39871">
        <ele>1048</ele>
        <time>2026-05-13T15:59:47.000Z</time>
      </trkpt>
      <trkpt lat="44.22722" lon="5.39871">
        <ele>1048</ele>
        <time>2026-05-13T15:59:48.000Z</time>
      </trkpt>
      <trkpt lat="44.22722" lon="5.39871">
        <ele>1048</ele>
        <time>2026-05-13T15:59:49.000Z</time>
      </trkpt>
      <trkpt lat="44.22722" lon="5.39871">
        <ele>1048</ele>
        <time>2026-05-13T15:59:50.000Z</time>
      </trkpt>
      <trkpt lat="44.22722" lon="5.39871">
        <ele>1048</ele>
        <time>2026-05-13T15:59:51.000Z</time>
      </trkpt>
      <trkpt lat="44.22722" lon="5.39871">
        <ele>1048</ele>
        <time>2026-05-13T15:59:52.000Z</time>
      </trkpt>
      <trkpt lat="44.22722" lon="5.39871">
        <ele>1048</ele>
        <time>2026-05-13T15:59:53.000Z</time>
      </trkpt>
      <trkpt lat="44.22722" lon="5.39871">
        <ele>1048</ele>
        <time>2026-05-13T15:59:54.000Z</time>
      </trkpt>
      <trkpt lat="44.22722" lon="5.39871">
        <ele>1048</ele>
        <time>2026-05-13T15:59:55.000Z</time>
      </trkpt>
      <trkpt lat="44.22722" lon="5.39871">
        <ele>1048</ele>
        <time>2026-05-13T15:59:56.000Z</time>
      </trkpt>
      <trkpt lat="44.22722" lon="5.39871">
        <ele>1048</ele>
        <time>2026-05-13T15:59:57.000Z</time>
      </trkpt>
      <trkpt lat="44.22722" lon="5.39871">
        <ele>1048</ele>
        <time>2026-05-13T15:59:58.000Z</time>
      </trkpt>
      <trkpt lat="44.22722" lon="5.39871">
        <ele>1048</ele>
        <time>2026-05-13T15:59:59.000Z</time>
      </trkpt>
      <trkpt lat="44.22722" lon="5.39871">
        <ele>1048</ele>
        <time>2026-05-13T16:00:00.000Z</time>
      </trkpt>
      <trkpt lat="44.22722" lon="5.39871">
        <ele>1048</ele>
        <time>2026-05-13T16:00:01.000Z</time>
      </trkpt>
      <trkpt lat="44.22722" lon="5.39871">
        <ele>1048</ele>
        <time>2026-05-13T16:00:02.000Z</time>
      </trkpt>
      <trkpt lat="44.22722" lon="5.39871">
        <ele>1048</ele>
        <time>2026-05-13T16:00:03.000Z</time>
      </trkpt>
      <trkpt lat="44.22722" lon="5.39871">
        <ele>1048</ele>
        <time>2026-05-13T16:00:04.000Z</time>
      </trkpt>
      <trkpt lat="44.22722" lon="5.39871">
        <ele>1048</ele>
        <time>2026-05-13T16:00:05.000Z</time>
      </trkpt>
      <trkpt lat="44.22722" lon="5.39871">
        <ele>1048</ele>
        <time>2026-05-13T16:00:06.000Z</time>
      </trkpt>
      <trkpt lat="44.22722" lon="5.39871">
        <ele>1048</ele>
        <time>2026-05-13T16:00:07.000Z</time>
      </trkpt>
      <trkpt lat="44.22722" lon="5.39871">
        <ele>1048</ele>
        <time>2026-05-13T16:00:08.000Z</time>
      </trkpt>
      <trkpt lat="44.22722" lon="5.39871">
        <ele>1048</ele>
        <time>2026-05-13T16:00:09.000Z</time>
      </trkpt>
      <trkpt lat="44.22722" lon="5.39871">
        <ele>1048</ele>
        <time>2026-05-13T16:00:10.000Z</time>
      </trkpt>
      <trkpt lat="44.22722" lon="5.39871">
        <ele>1048</ele>
        <time>2026-05-13T16:00:11.000Z</time>
      </trkpt>
      <trkpt lat="44.22722" lon="5.39871">
        <ele>1048</ele>
        <time>2026-05-13T16:00:12.000Z</time>
      </trkpt>
      <trkpt lat="44.22722" lon="5.39871">
        <ele>1048</ele>
        <time>2026-05-13T16:00:13.000Z</time>
      </trkpt>
      <trkpt lat="44.22722" lon="5.39871">
        <ele>1048</ele>
        <time>2026-05-13T16:00:14.000Z</time>
      </trkpt>
      <trkpt lat="44.22722" lon="5.39871">
        <ele>1048</ele>
        <time>2026-05-13T16:00:15.000Z</time>
      </trkpt>
      <trkpt lat="44.22722" lon="5.39871">
        <ele>1048</ele>
        <time>2026-05-13T16:00:16.000Z</time>
      </trkpt>
      <trkpt lat="44.22722" lon="5.39871">
        <ele>1048</ele>
        <time>2026-05-13T16:00:17.000Z</time>
      </trkpt>
      <trkpt lat="44.22722" lon="5.39871">
        <ele>1048</ele>
        <time>2026-05-13T16:00:18.000Z</time>
      </trkpt>
      <trkpt lat="44.22722" lon="5.39871">
        <ele>1048</ele>
        <time>2026-05-13T16:00:19.000Z</time>
      </trkpt>
      <trkpt lat="44.22722" lon="5.39871">
        <ele>1048</ele>
        <time>2026-05-13T16:00:20.000Z</time>
      </trkpt>
      <trkpt lat="44.22722" lon="5.39871">
        <ele>1048</ele>
        <time>2026-05-13T16:00:21.000Z</time>
      </trkpt>
      <trkpt lat="44.22722" lon="5.39871">
        <ele>1048</ele>
        <time>2026-05-13T16:00:22.000Z</time>
      </trkpt>
      <trkpt lat="44.22722" lon="5.39871">
        <ele>1048</ele>
        <time>2026-05-13T16:00:23.000Z</time>
      </trkpt>
      <trkpt lat="44.22722" lon="5.39871">
        <ele>1048</ele>
        <time>2026-05-13T16:00:24.000Z</time>
      </trkpt>
      <trkpt lat="44.22722" lon="5.39871">
        <ele>1048</ele>
        <time>2026-05-13T16:00:25.000Z</time>
      </trkpt>
      <trkpt lat="44.22722" lon="5.39871">
        <ele>1048</ele>
        <time>2026-05-13T16:00:26.000Z</time>
      </trkpt>
      <trkpt lat="44.22722" lon="5.39871">
        <ele>1048</ele>
        <time>2026-05-13T16:00:27.000Z</time>
      </trkpt>
      <trkpt lat="44.22722" lon="5.39871">
        <ele>1048</ele>
        <time>2026-05-13T16:00:28.000Z</time>
      </trkpt>
      <trkpt lat="44.22722" lon="5.39871">
        <ele>1048</ele>
        <time>2026-05-13T16:00:29.000Z</time>
      </trkpt>
      <trkpt lat="44.22722" lon="5.39871">
        <ele>1048</ele>
        <time>2026-05-13T16:00:30.000Z</time>
      </trkpt>
      <trkpt lat="44.22722" lon="5.39871">
        <ele>1048</ele>
        <time>2026-05-13T16:00:31.000Z</time>
      </trkpt>
      <trkpt lat="44.22722" lon="5.39871">
        <ele>1048</ele>
        <time>2026-05-13T16:00:32.000Z</time>
      </trkpt>
      <trkpt lat="44.22722" lon="5.39871">
        <ele>1048</ele>
        <time>2026-05-13T16:00:33.000Z</time>
      </trkpt>
      <trkpt lat="44.22722" lon="5.39871">
        <ele>1048</ele>
        <time>2026-05-13T16:00:34.000Z</time>
      </trkpt>
      <trkpt lat="44.22722" lon="5.39871">
        <ele>1048</ele>
        <time>2026-05-13T16:00:35.000Z</time>
      </trkpt>
      <trkpt lat="44.22722" lon="5.39871">
        <ele>1048</ele>
        <time>2026-05-13T16:00:36.000Z</time>
      </trkpt>
      <trkpt lat="44.22722" lon="5.39871">
        <ele>1048</ele>
        <time>2026-05-13T16:00:37.000Z</time>
      </trkpt>
      <trkpt lat="44.22722" lon="5.39871">
        <ele>1048</ele>
        <time>2026-05-13T16:00:38.000Z</time>
      </trkpt>
      <trkpt lat="44.22722" lon="5.39871">
        <ele>1048</ele>
        <time>2026-05-13T16:00:39.000Z</time>
      </trkpt>
      <trkpt lat="44.22722" lon="5.39871">
        <ele>1048</ele>
        <time>2026-05-13T16:00:40.000Z</time>
      </trkpt>
      <trkpt lat="44.22722" lon="5.39871">
        <ele>1048</ele>
        <time>2026-05-13T16:00:41.000Z</time>
      </trkpt>
      <trkpt lat="44.22722" lon="5.39871">
        <ele>1048</ele>
        <time>2026-05-13T16:00:42.000Z</time>
      </trkpt>
      <trkpt lat="44.22722" lon="5.39871">
        <ele>1048</ele>
        <time>2026-05-13T16:00:43.000Z</time>
      </trkpt>
      <trkpt lat="44.22722" lon="5.39871">
        <ele>1048</ele>
        <time>2026-05-13T16:00:44.000Z</time>
      </trkpt>
      <trkpt lat="44.22722" lon="5.39871">
        <ele>1048</ele>
        <time>2026-05-13T16:00:45.000Z</time>
      </trkpt>
      <trkpt lat="44.22722" lon="5.39871">
        <ele>1048</ele>
        <time>2026-05-13T16:00:46.000Z</time>
      </trkpt>
      <trkpt lat="44.22722" lon="5.39871">
        <ele>1048</ele>
        <time>2026-05-13T16:00:47.000Z</time>
      </trkpt>
      <trkpt lat="44.22722" lon="5.39871">
        <ele>1048</ele>
        <time>2026-05-13T16:00:48.000Z</time>
      </trkpt>
      <trkpt lat="44.22722" lon="5.39871">
        <ele>1048</ele>
        <time>2026-05-13T16:00:49.000Z</time>
      </trkpt>
      <trkpt lat="44.22722" lon="5.39871">
        <ele>1048</ele>
        <time>2026-05-13T16:00:50.000Z</time>
      </trkpt>
      <trkpt lat="44.22722" lon="5.39871">
        <ele>1048</ele>
        <time>2026-05-13T16:00:51.000Z</time>
      </trkpt>
      <trkpt lat="44.22722" lon="5.39871">
        <ele>1048</ele>
        <time>2026-05-13T16:00:52.000Z</time>
      </trkpt>
      <trkpt lat="44.22722" lon="5.39871">
        <ele>1048</ele>
        <time>2026-05-13T16:00:53.000Z</time>
      </trkpt>
      <trkpt lat="44.22722" lon="5.39871">
        <ele>1048</ele>
        <time>2026-05-13T16:00:54.000Z</time>
      </trkpt>
      <trkpt lat="44.22722" lon="5.39871">
        <ele>1048</ele>
        <time>2026-05-13T16:00:55.000Z</time>
      </trkpt>
      <trkpt lat="44.22722" lon="5.39871">
        <ele>1048</ele>
        <time>2026-05-13T16:00:56.000Z</time>
      </trkpt>
      <trkpt lat="44.22722" lon="5.39871">
        <ele>1048</ele>
        <time>2026-05-13T16:00:57.000Z</time>
      </trkpt>
      <trkpt lat="44.22722" lon="5.39871">
        <ele>1048</ele>
        <time>2026-05-13T16:00:58.000Z</time>
      </trkpt>
      <trkpt lat="44.22722" lon="5.39871">
        <ele>1048</ele>
        <time>2026-05-13T16:00:59.000Z</time>
      </trkpt>
      <trkpt lat="44.22722" lon="5.39871">
        <ele>1048</ele>
        <time>2026-05-13T16:01:00.000Z</time>
      </trkpt>
      <trkpt lat="44.22722" lon="5.39871">
        <ele>1048</ele>
        <time>2026-05-13T16:01:01.000Z</time>
      </trkpt>
      <trkpt lat="44.22722" lon="5.39871">
        <ele>1048</ele>
        <time>2026-05-13T16:01:02.000Z</time>
      </trkpt>
      <trkpt lat="44.22722" lon="5.39871">
        <ele>1048</ele>
        <time>2026-05-13T16:01:03.000Z</time>
      </trkpt>
      <trkpt lat="44.22722" lon="5.39871">
        <ele>1048</ele>
        <time>2026-05-13T16:01:04.000Z</time>
      </trkpt>
      <trkpt lat="44.22722" lon="5.39871">
        <ele>1048</ele>
        <time>2026-05-13T16:01:05.000Z</time>
      </trkpt>
      <trkpt lat="44.22722" lon="5.39871">
        <ele>1048</ele>
        <time>2026-05-13T16:01:06.000Z</time>
      </trkpt>
      <trkpt lat="44.22722" lon="5.39871">
        <ele>1048</ele>
        <time>2026-05-13T16:01:07.000Z</time>
      </trkpt>
      <trkpt lat="44.22722" lon="5.39871">
        <ele>1048</ele>
        <time>2026-05-13T16:01:08.000Z</time>
      </trkpt>
      <trkpt lat="44.22722" lon="5.39871">
        <ele>1048</ele>
        <time>2026-05-13T16:01:09.000Z</time>
      </trkpt>
      <trkpt lat="44.22722" lon="5.39871">
        <ele>1048</ele>
        <time>2026-05-13T16:01:10.000Z</time>
      </trkpt>
      <trkpt lat="44.22722" lon="5.39871">
        <ele>1048</ele>
        <time>2026-05-13T16:01:11.000Z</time>
      </trkpt>
      <trkpt lat="44.22722" lon="5.39871">
        <ele>1048</ele>
        <time>2026-05-13T16:01:12.000Z</time>
      </trkpt>
      <trkpt lat="44.22722" lon="5.39871">
        <ele>1048</ele>
        <time>2026-05-13T16:01:13.000Z</time>
      </trkpt>
      <trkpt lat="44.22722" lon="5.39871">
        <ele>1048</ele>
        <time>2026-05-13T16:01:14.000Z</time>
      </trkpt>
      <trkpt lat="44.22722" lon="5.39871">
        <ele>1048</ele>
        <time>2026-05-13T16:01:15.000Z</time>
      </trkpt>
      <trkpt lat="44.22722" lon="5.39871">
        <ele>1048</ele>
        <time>2026-05-13T16:01:16.000Z</time>
      </trkpt>
      <trkpt lat="44.22722" lon="5.39871">
        <ele>1048</ele>
        <time>2026-05-13T16:01:17.000Z</time>
      </trkpt>
      <trkpt lat="44.22722" lon="5.39871">
        <ele>1048</ele>
        <time>2026-05-13T16:01:18.000Z</time>
      </trkpt>
      <trkpt lat="44.22722" lon="5.39871">
        <ele>1048</ele>
        <time>2026-05-13T16:01:19.000Z</time>
      </trkpt>
      <trkpt lat="44.22722" lon="5.39871">
        <ele>1048</ele>
        <time>2026-05-13T16:01:20.000Z</time>
      </trkpt>
      <trkpt lat="44.22722" lon="5.39871">
        <ele>1048</ele>
        <time>2026-05-13T16:01:21.000Z</time>
      </trkpt>
      <trkpt lat="44.22722" lon="5.39871">
        <ele>1048</ele>
        <time>2026-05-13T16:01:22.000Z</time>
      </trkpt>
      <trkpt lat="44.22722" lon="5.39871">
        <ele>1048</ele>
        <time>2026-05-13T16:01:23.000Z</time>
      </trkpt>
      <trkpt lat="44.22722" lon="5.39871">
        <ele>1048</ele>
        <time>2026-05-13T16:01:24.000Z</time>
      </trkpt>
      <trkpt lat="44.22722" lon="5.39871">
        <ele>1048</ele>
        <time>2026-05-13T16:01:25.000Z</time>
      </trkpt>
      <trkpt lat="44.22722" lon="5.39871">
        <ele>1048</ele>
        <time>2026-05-13T16:01:26.000Z</time>
      </trkpt>
      <trkpt lat="44.22722" lon="5.39871">
        <ele>1048</ele>
        <time>2026-05-13T16:01:27.000Z</time>
      </trkpt>
      <trkpt lat="44.22722" lon="5.39871">
        <ele>1048</ele>
        <time>2026-05-13T16:01:28.000Z</time>
      </trkpt>
      <trkpt lat="44.22722" lon="5.39871">
        <ele>1048</ele>
        <time>2026-05-13T16:01:29.000Z</time>
      </trkpt>
      <trkpt lat="44.22722" lon="5.39871">
        <ele>1048</ele>
        <time>2026-05-13T16:01:30.000Z</time>
      </trkpt>
      <trkpt lat="44.22722" lon="5.39871">
        <ele>1048</ele>
        <time>2026-05-13T16:01:31.000Z</time>
      </trkpt>
      <trkpt lat="44.22722" lon="5.39871">
        <ele>1048</ele>
        <time>2026-05-13T16:01:32.000Z</time>
      </trkpt>
      <trkpt lat="44.22722" lon="5.39871">
        <ele>1048</ele>
        <time>2026-05-13T16:01:33.000Z</time>
      </trkpt>
      <trkpt lat="44.22722" lon="5.39871">
        <ele>1048</ele>
        <time>2026-05-13T16:01:34.000Z</time>
      </trkpt>
      <trkpt lat="44.22722" lon="5.39871">
        <ele>1048</ele>
        <time>2026-05-13T16:01:35.000Z</time>
      </trkpt>
      <trkpt lat="44.22722" lon="5.39871">
        <ele>1048</ele>
        <time>2026-05-13T16:01:36.000Z</time>
      </trkpt>
      <trkpt lat="44.22722" lon="5.39871">
        <ele>1048</ele>
        <time>2026-05-13T16:01:37.000Z</time>
      </trkpt>
      <trkpt lat="44.22722" lon="5.39871">
        <ele>1048</ele>
        <time>2026-05-13T16:01:38.000Z</time>
      </trkpt>
      <trkpt lat="44.22722" lon="5.39871">
        <ele>1048</ele>
        <time>2026-05-13T16:01:39.000Z</time>
      </trkpt>
      <trkpt lat="44.22722" lon="5.39871">
        <ele>1048</ele>
        <time>2026-05-13T16:01:40.000Z</time>
      </trkpt>
      <trkpt lat="44.22722" lon="5.39871">
        <ele>1048</ele>
        <time>2026-05-13T16:01:41.000Z</time>
      </trkpt>
      <trkpt lat="44.22722" lon="5.39871">
        <ele>1048</ele>
        <time>2026-05-13T16:01:42.000Z</time>
      </trkpt>
      <trkpt lat="44.22722" lon="5.39871">
        <ele>1048</ele>
        <time>2026-05-13T16:01:43.000Z</time>
      </trkpt>
      <trkpt lat="44.22722" lon="5.39871">
        <ele>1048</ele>
        <time>2026-05-13T16:01:44.000Z</time>
      </trkpt>
      <trkpt lat="44.22722" lon="5.39871">
        <ele>1048</ele>
        <time>2026-05-13T16:01:45.000Z</time>
      </trkpt>
      <trkpt lat="44.22722" lon="5.39871">
        <ele>1048</ele>
        <time>2026-05-13T16:01:46.000Z</time>
      </trkpt>
      <trkpt lat="44.22722" lon="5.39871">
        <ele>1048</ele>
        <time>2026-05-13T16:01:47.000Z</time>
      </trkpt>
      <trkpt lat="44.22722" lon="5.39871">
        <ele>1048</ele>
        <time>2026-05-13T16:01:48.000Z</time>
      </trkpt>
      <trkpt lat="44.22722" lon="5.39871">
        <ele>1048</ele>
        <time>2026-05-13T16:01:49.000Z</time>
      </trkpt>
      <trkpt lat="44.22722" lon="5.39871">
        <ele>1048</ele>
        <time>2026-05-13T16:01:50.000Z</time>
      </trkpt>
      <trkpt lat="44.22722" lon="5.39871">
        <ele>1048</ele>
        <time>2026-05-13T16:01:51.000Z</time>
      </trkpt>
      <trkpt lat="44.22722" lon="5.39871">
        <ele>1048</ele>
        <time>2026-05-13T16:01:52.000Z</time>
      </trkpt>
      <trkpt lat="44.22722" lon="5.39871">
        <ele>1048</ele>
        <time>2026-05-13T16:01:53.000Z</time>
      </trkpt>
      <trkpt lat="44.22722" lon="5.39871">
        <ele>1048</ele>
        <time>2026-05-13T16:01:54.000Z</time>
      </trkpt>
      <trkpt lat="44.22722" lon="5.39871">
        <ele>1048</ele>
        <time>2026-05-13T16:01:55.000Z</time>
      </trkpt>
      <trkpt lat="44.22722" lon="5.39871">
        <ele>1048</ele>
        <time>2026-05-13T16:01:56.000Z</time>
      </trkpt>
      <trkpt lat="44.22722" lon="5.39871">
        <ele>1048</ele>
        <time>2026-05-13T16:01:57.000Z</time>
      </trkpt>
      <trkpt lat="44.22722" lon="5.39871">
        <ele>1048</ele>
        <time>2026-05-13T16:01:58.000Z</time>
      </trkpt>
      <trkpt lat="44.22722" lon="5.39871">
        <ele>1048</ele>
        <time>2026-05-13T16:01:59.000Z</time>
      </trkpt>
      <trkpt lat="44.22722" lon="5.39871">
        <ele>1048</ele>
        <time>2026-05-13T16:02:00.000Z</time>
      </trkpt>
      <trkpt lat="44.22722" lon="5.39871">
        <ele>1048</ele>
        <time>2026-05-13T16:02:01.000Z</time>
      </trkpt>
      <trkpt lat="44.22722" lon="5.39871">
        <ele>1048</ele>
        <time>2026-05-13T16:02:02.000Z</time>
      </trkpt>
      <trkpt lat="44.22722" lon="5.39871">
        <ele>1048</ele>
        <time>2026-05-13T16:02:03.000Z</time>
      </trkpt>
      <trkpt lat="44.22722" lon="5.39871">
        <ele>1048</ele>
        <time>2026-05-13T16:02:04.000Z</time>
      </trkpt>
      <trkpt lat="44.22722" lon="5.39871">
        <ele>1048</ele>
        <time>2026-05-13T16:02:05.000Z</time>
      </trkpt>
      <trkpt lat="44.22722" lon="5.39871">
        <ele>1048</ele>
        <time>2026-05-13T16:02:06.000Z</time>
      </trkpt>
      <trkpt lat="44.22722" lon="5.39871">
        <ele>1048</ele>
        <time>2026-05-13T16:02:07.000Z</time>
      </trkpt>
      <trkpt lat="44.22722" lon="5.39871">
        <ele>1048</ele>
        <time>2026-05-13T16:02:08.000Z</time>
      </trkpt>
      <trkpt lat="44.22722" lon="5.39871">
        <ele>1048</ele>
        <time>2026-05-13T16:02:09.000Z</time>
      </trkpt>
      <trkpt lat="44.22722" lon="5.39871">
        <ele>1048</ele>
        <time>2026-05-13T16:02:10.000Z</time>
      </trkpt>
      <trkpt lat="44.22722" lon="5.39871">
        <ele>1048</ele>
        <time>2026-05-13T16:02:11.000Z</time>
      </trkpt>
      <trkpt lat="44.22722" lon="5.39871">
        <ele>1048</ele>
        <time>2026-05-13T16:02:12.000Z</time>
      </trkpt>
      <trkpt lat="44.22722" lon="5.39871">
        <ele>1048</ele>
        <time>2026-05-13T16:02:13.000Z</time>
      </trkpt>
      <trkpt lat="44.22722" lon="5.39871">
        <ele>1048</ele>
        <time>2026-05-13T16:02:14.000Z</time>
      </trkpt>
      <trkpt lat="44.22722" lon="5.39871">
        <ele>1048</ele>
        <time>2026-05-13T16:02:15.000Z</time>
      </trkpt>
      <trkpt lat="44.22722" lon="5.39871">
        <ele>1048</ele>
        <time>2026-05-13T16:02:16.000Z</time>
      </trkpt>
      <trkpt lat="44.22722" lon="5.39871">
        <ele>1048</ele>
        <time>2026-05-13T16:02:17.000Z</time>
      </trkpt>
      <trkpt lat="44.22722" lon="5.39871">
        <ele>1048</ele>
        <time>2026-05-13T16:02:18.000Z</time>
      </trkpt>
      <trkpt lat="44.22722" lon="5.39871">
        <ele>1048</ele>
        <time>2026-05-13T16:02:19.000Z</time>
      </trkpt>
      <trkpt lat="44.22722" lon="5.39871">
        <ele>1048</ele>
        <time>2026-05-13T16:02:20.000Z</time>
      </trkpt>
      <trkpt lat="44.22722" lon="5.39871">
        <ele>1048</ele>
        <time>2026-05-13T16:02:21.000Z</time>
      </trkpt>
      <trkpt lat="44.22722" lon="5.39871">
        <ele>1048</ele>
        <time>2026-05-13T16:02:22.000Z</time>
      </trkpt>
      <trkpt lat="44.22722" lon="5.39871">
        <ele>1048</ele>
        <time>2026-05-13T16:02:23.000Z</time>
      </trkpt>
      <trkpt lat="44.22722" lon="5.39871">
        <ele>1048</ele>
        <time>2026-05-13T16:02:24.000Z</time>
      </trkpt>
      <trkpt lat="44.22722" lon="5.39871">
        <ele>1048</ele>
        <time>2026-05-13T16:02:25.000Z</time>
      </trkpt>
      <trkpt lat="44.22722" lon="5.39871">
        <ele>1048</ele>
        <time>2026-05-13T16:02:26.000Z</time>
      </trkpt>
      <trkpt lat="44.22722" lon="5.39871">
        <ele>1048</ele>
        <time>2026-05-13T16:02:27.000Z</time>
      </trkpt>
      <trkpt lat="44.22722" lon="5.39871">
        <ele>1048</ele>
        <time>2026-05-13T16:02:28.000Z</time>
      </trkpt>
      <trkpt lat="44.22722" lon="5.39871">
        <ele>1048</ele>
        <time>2026-05-13T16:02:29.000Z</time>
      </trkpt>
      <trkpt lat="44.22722" lon="5.39871">
        <ele>1048</ele>
        <time>2026-05-13T16:02:30.000Z</time>
      </trkpt>
      <trkpt lat="44.22722" lon="5.39871">
        <ele>1048</ele>
        <time>2026-05-13T16:02:31.000Z</time>
      </trkpt>
      <trkpt lat="44.22722" lon="5.39871">
        <ele>1048</ele>
        <time>2026-05-13T16:02:32.000Z</time>
      </trkpt>
      <trkpt lat="44.22722" lon="5.39871">
        <ele>1048</ele>
        <time>2026-05-13T16:02:33.000Z</time>
      </trkpt>
      <trkpt lat="44.22722" lon="5.39871">
        <ele>1048</ele>
        <time>2026-05-13T16:02:34.000Z</time>
      </trkpt>
      <trkpt lat="44.22722" lon="5.39871">
        <ele>1048</ele>
        <time>2026-05-13T16:02:35.000Z</time>
      </trkpt>
      <trkpt lat="44.22722" lon="5.39871">
        <ele>1048</ele>
        <time>2026-05-13T16:02:36.000Z</time>
      </trkpt>
      <trkpt lat="44.22722" lon="5.39871">
        <ele>1048</ele>
        <time>2026-05-13T16:02:37.000Z</time>
      </trkpt>
      <trkpt lat="44.22722" lon="5.39871">
        <ele>1048</ele>
        <time>2026-05-13T16:02:38.000Z</time>
      </trkpt>
      <trkpt lat="44.22722" lon="5.39871">
        <ele>1048</ele>
        <time>2026-05-13T16:02:39.000Z</time>
      </trkpt>
      <trkpt lat="44.22722" lon="5.39871">
        <ele>1048</ele>
        <time>2026-05-13T16:02:40.000Z</time>
      </trkpt>
      <trkpt lat="44.22722" lon="5.39871">
        <ele>1048</ele>
        <time>2026-05-13T16:02:41.000Z</time>
      </trkpt>
      <trkpt lat="44.22722" lon="5.39871">
        <ele>1048</ele>
        <time>2026-05-13T16:02:42.000Z</time>
      </trkpt>
      <trkpt lat="44.22722" lon="5.39871">
        <ele>1048</ele>
        <time>2026-05-13T16:02:43.000Z</time>
      </trkpt>
      <trkpt lat="44.22722" lon="5.39871">
        <ele>1048</ele>
        <time>2026-05-13T16:02:44.000Z</time>
      </trkpt>
      <trkpt lat="44.22722" lon="5.39871">
        <ele>1048</ele>
        <time>2026-05-13T16:02:45.000Z</time>
      </trkpt>
      <trkpt lat="44.22722" lon="5.39871">
        <ele>1048</ele>
        <time>2026-05-13T16:02:46.000Z</time>
      </trkpt>
      <trkpt lat="44.22722" lon="5.39871">
        <ele>1048</ele>
        <time>2026-05-13T16:02:47.000Z</time>
      </trkpt>
      <trkpt lat="44.22722" lon="5.39871">
        <ele>1048</ele>
        <time>2026-05-13T16:02:48.000Z</time>
      </trkpt>
      <trkpt lat="44.22722" lon="5.39871">
        <ele>1048</ele>
        <time>2026-05-13T16:02:49.000Z</time>
      </trkpt>
      <trkpt lat="44.22722" lon="5.39871">
        <ele>1048</ele>
        <time>2026-05-13T16:02:50.000Z</time>
      </trkpt>
      <trkpt lat="44.22722" lon="5.39871">
        <ele>1048</ele>
        <time>2026-05-13T16:02:51.000Z</time>
      </trkpt>
      <trkpt lat="44.22722" lon="5.39871">
        <ele>1048</ele>
        <time>2026-05-13T16:02:52.000Z</time>
      </trkpt>
      <trkpt lat="44.22722" lon="5.39871">
        <ele>1048</ele>
        <time>2026-05-13T16:02:53.000Z</time>
      </trkpt>
      <trkpt lat="44.22722" lon="5.39871">
        <ele>1048</ele>
        <time>2026-05-13T16:02:54.000Z</time>
      </trkpt>
      <trkpt lat="44.22722" lon="5.39871">
        <ele>1048</ele>
        <time>2026-05-13T16:02:55.000Z</time>
      </trkpt>
      <trkpt lat="44.22722" lon="5.39871">
        <ele>1048</ele>
        <time>2026-05-13T16:02:56.000Z</time>
      </trkpt>
      <trkpt lat="44.22722" lon="5.39871">
        <ele>1048</ele>
        <time>2026-05-13T16:02:57.000Z</time>
      </trkpt>
      <trkpt lat="44.22722" lon="5.39871">
        <ele>1048</ele>
        <time>2026-05-13T16:02:58.000Z</time>
      </trkpt>
      <trkpt lat="44.22722" lon="5.39871">
        <ele>1048</ele>
        <time>2026-05-13T16:02:59.000Z</time>
      </trkpt>
      <trkpt lat="44.22722" lon="5.39871">
        <ele>1048</ele>
        <time>2026-05-13T16:03:00.000Z</time>
      </trkpt>
      <trkpt lat="44.22722" lon="5.39871">
        <ele>1048</ele>
        <time>2026-05-13T16:03:01.000Z</time>
      </trkpt>
      <trkpt lat="44.22722" lon="5.39871">
        <ele>1048</ele>
        <time>2026-05-13T16:03:02.000Z</time>
      </trkpt>
      <trkpt lat="44.22722" lon="5.39871">
        <ele>1048</ele>
        <time>2026-05-13T16:03:03.000Z</time>
      </trkpt>
      <trkpt lat="44.22722" lon="5.39871">
        <ele>1048</ele>
        <time>2026-05-13T16:03:04.000Z</time>
      </trkpt>
      <trkpt lat="44.22722" lon="5.39871">
        <ele>1048</ele>
        <time>2026-05-13T16:03:05.000Z</time>
      </trkpt>
      <trkpt lat="44.22722" lon="5.39871">
        <ele>1048</ele>
        <time>2026-05-13T16:03:06.000Z</time>
      </trkpt>
      <trkpt lat="44.22722" lon="5.39871">
        <ele>1048</ele>
        <time>2026-05-13T16:03:07.000Z</time>
      </trkpt>
      <trkpt lat="44.22722" lon="5.39871">
        <ele>1048</ele>
        <time>2026-05-13T16:03:08.000Z</time>
      </trkpt>
      <trkpt lat="44.22722" lon="5.39871">
        <ele>1048</ele>
        <time>2026-05-13T16:03:09.000Z</time>
      </trkpt>
      <trkpt lat="44.22722" lon="5.39871">
        <ele>1048</ele>
        <time>2026-05-13T16:03:10.000Z</time>
      </trkpt>
      <trkpt lat="44.22722" lon="5.39871">
        <ele>1048</ele>
        <time>2026-05-13T16:03:11.000Z</time>
      </trkpt>
      <trkpt lat="44.22722" lon="5.39871">
        <ele>1048</ele>
        <time>2026-05-13T16:03:12.000Z</time>
      </trkpt>
      <trkpt lat="44.22722" lon="5.39871">
        <ele>1048</ele>
        <time>2026-05-13T16:03:13.000Z</time>
      </trkpt>
      <trkpt lat="44.22722" lon="5.39871">
        <ele>1048</ele>
        <time>2026-05-13T16:03:14.000Z</time>
      </trkpt>
      <trkpt lat="44.22722" lon="5.39871">
        <ele>1048</ele>
        <time>2026-05-13T16:03:15.000Z</time>
      </trkpt>
      <trkpt lat="44.22722" lon="5.39871">
        <ele>1048</ele>
        <time>2026-05-13T16:03:16.000Z</time>
      </trkpt>
      <trkpt lat="44.22722" lon="5.39871">
        <ele>1048</ele>
        <time>2026-05-13T16:03:17.000Z</time>
      </trkpt>
      <trkpt lat="44.22722" lon="5.39871">
        <ele>1048</ele>
        <time>2026-05-13T16:03:18.000Z</time>
      </trkpt>
      <trkpt lat="44.22722" lon="5.39871">
        <ele>1048</ele>
        <time>2026-05-13T16:03:19.000Z</time>
      </trkpt>
      <trkpt lat="44.22722" lon="5.39871">
        <ele>1048</ele>
        <time>2026-05-13T16:03:20.000Z</time>
      </trkpt>
      <trkpt lat="44.22722" lon="5.39871">
        <ele>1048</ele>
        <time>2026-05-13T16:03:21.000Z</time>
      </trkpt>
      <trkpt lat="44.22722" lon="5.39871">
        <ele>1048</ele>
        <time>2026-05-13T16:03:22.000Z</time>
      </trkpt>
      <trkpt lat="44.22722" lon="5.39871">
        <ele>1048</ele>
        <time>2026-05-13T16:03:23.000Z</time>
      </trkpt>
      <trkpt lat="44.22722" lon="5.39871">
        <ele>1048</ele>
        <time>2026-05-13T16:03:24.000Z</time>
      </trkpt>
      <trkpt lat="44.22722" lon="5.39871">
        <ele>1048</ele>
        <time>2026-05-13T16:03:25.000Z</time>
      </trkpt>
      <trkpt lat="44.22722" lon="5.39871">
        <ele>1048</ele>
        <time>2026-05-13T16:03:26.000Z</time>
      </trkpt>
      <trkpt lat="44.22722" lon="5.39871">
        <ele>1048</ele>
        <time>2026-05-13T16:03:27.000Z</time>
      </trkpt>
      <trkpt lat="44.22722" lon="5.39871">
        <ele>1048</ele>
        <time>2026-05-13T16:03:28.000Z</time>
      </trkpt>
      <trkpt lat="44.22722" lon="5.39871">
        <ele>1048</ele>
        <time>2026-05-13T16:03:29.000Z</time>
      </trkpt>
      <trkpt lat="44.22722" lon="5.39871">
        <ele>1048</ele>
        <time>2026-05-13T16:03:30.000Z</time>
      </trkpt>
      <trkpt lat="44.22722" lon="5.39871">
        <ele>1048</ele>
        <time>2026-05-13T16:03:31.000Z</time>
      </trkpt>
      <trkpt lat="44.22722" lon="5.39871">
        <ele>1048</ele>
        <time>2026-05-13T16:03:32.000Z</time>
      </trkpt>
      <trkpt lat="44.22722" lon="5.39871">
        <ele>1048</ele>
        <time>2026-05-13T16:03:33.000Z</time>
      </trkpt>
      <trkpt lat="44.22722" lon="5.39871">
        <ele>1048</ele>
        <time>2026-05-13T16:03:34.000Z</time>
      </trkpt>
      <trkpt lat="44.22722" lon="5.39871">
        <ele>1048</ele>
        <time>2026-05-13T16:03:35.000Z</time>
      </trkpt>
      <trkpt lat="44.22722" lon="5.39871">
        <ele>1048</ele>
        <time>2026-05-13T16:03:36.000Z</time>
      </trkpt>
      <trkpt lat="44.22722" lon="5.39871">
        <ele>1048</ele>
        <time>2026-05-13T16:03:37.000Z</time>
      </trkpt>
      <trkpt lat="44.22722" lon="5.39871">
        <ele>1048</ele>
        <time>2026-05-13T16:03:38.000Z</time>
      </trkpt>
      <trkpt lat="44.22722" lon="5.39871">
        <ele>1048</ele>
        <time>2026-05-13T16:03:39.000Z</time>
      </trkpt>
      <trkpt lat="44.22722" lon="5.39871">
        <ele>1048</ele>
        <time>2026-05-13T16:03:40.000Z</time>
      </trkpt>
      <trkpt lat="44.22722" lon="5.39871">
        <ele>1048</ele>
        <time>2026-05-13T16:03:41.000Z</time>
      </trkpt>
      <trkpt lat="44.22722" lon="5.39871">
        <ele>1048</ele>
        <time>2026-05-13T16:03:42.000Z</time>
      </trkpt>
      <trkpt lat="44.22722" lon="5.39871">
        <ele>1048</ele>
        <time>2026-05-13T16:03:43.000Z</time>
      </trkpt>
      <trkpt lat="44.22722" lon="5.39871">
        <ele>1048</ele>
        <time>2026-05-13T16:03:44.000Z</time>
      </trkpt>
      <trkpt lat="44.22722" lon="5.39871">
        <ele>1048</ele>
        <time>2026-05-13T16:03:45.000Z</time>
      </trkpt>
      <trkpt lat="44.22722" lon="5.39871">
        <ele>1048</ele>
        <time>2026-05-13T16:03:46.000Z</time>
      </trkpt>
      <trkpt lat="44.22722" lon="5.39871">
        <ele>1048</ele>
        <time>2026-05-13T16:03:47.000Z</time>
      </trkpt>
      <trkpt lat="44.22722" lon="5.39871">
        <ele>1048</ele>
        <time>2026-05-13T16:03:48.000Z</time>
      </trkpt>
      <trkpt lat="44.22722" lon="5.39871">
        <ele>1048</ele>
        <time>2026-05-13T16:03:49.000Z</time>
      </trkpt>
      <trkpt lat="44.22722" lon="5.39871">
        <ele>1048</ele>
        <time>2026-05-13T16:03:50.000Z</time>
      </trkpt>
      <trkpt lat="44.22722" lon="5.39871">
        <ele>1048</ele>
        <time>2026-05-13T16:03:51.000Z</time>
      </trkpt>
      <trkpt lat="44.22722" lon="5.39871">
        <ele>1048</ele>
        <time>2026-05-13T16:03:52.000Z</time>
      </trkpt>
      <trkpt lat="44.22722" lon="5.39871">
        <ele>1048</ele>
        <time>2026-05-13T16:03:53.000Z</time>
      </trkpt>
      <trkpt lat="44.22722" lon="5.39871">
        <ele>1048</ele>
        <time>2026-05-13T16:03:54.000Z</time>
      </trkpt>
      <trkpt lat="44.22722" lon="5.39871">
        <ele>1048</ele>
        <time>2026-05-13T16:03:55.000Z</time>
      </trkpt>
      <trkpt lat="44.22722" lon="5.39871">
        <ele>1048</ele>
        <time>2026-05-13T16:03:56.000Z</time>
      </trkpt>
      <trkpt lat="44.22722" lon="5.39871">
        <ele>1048</ele>
        <time>2026-05-13T16:03:57.000Z</time>
      </trkpt>
      <trkpt lat="44.22722" lon="5.39871">
        <ele>1048</ele>
        <time>2026-05-13T16:03:58.000Z</time>
      </trkpt>
      <trkpt lat="44.22722" lon="5.39871">
        <ele>1048</ele>
        <time>2026-05-13T16:03:59.000Z</time>
      </trkpt>
      <trkpt lat="44.22722" lon="5.39871">
        <ele>1048</ele>
        <time>2026-05-13T16:04:00.000Z</time>
      </trkpt>
      <trkpt lat="44.22722" lon="5.39871">
        <ele>1048</ele>
        <time>2026-05-13T16:04:01.000Z</time>
      </trkpt>
      <trkpt lat="44.22722" lon="5.39871">
        <ele>1048</ele>
        <time>2026-05-13T16:04:02.000Z</time>
      </trkpt>
      <trkpt lat="44.22722" lon="5.39871">
        <ele>1048</ele>
        <time>2026-05-13T16:04:03.000Z</time>
      </trkpt>
      <trkpt lat="44.22722" lon="5.39871">
        <ele>1048</ele>
        <time>2026-05-13T16:04:04.000Z</time>
      </trkpt>
      <trkpt lat="44.22722" lon="5.39871">
        <ele>1048</ele>
        <time>2026-05-13T16:04:05.000Z</time>
      </trkpt>
      <trkpt lat="44.22722" lon="5.39871">
        <ele>1048</ele>
        <time>2026-05-13T16:04:06.000Z</time>
      </trkpt>
      <trkpt lat="44.22722" lon="5.39871">
        <ele>1048</ele>
        <time>2026-05-13T16:04:07.000Z</time>
      </trkpt>
      <trkpt lat="44.22722" lon="5.39871">
        <ele>1048</ele>
        <time>2026-05-13T16:04:08.000Z</time>
      </trkpt>
      <trkpt lat="44.22722" lon="5.39871">
        <ele>1048</ele>
        <time>2026-05-13T16:04:09.000Z</time>
      </trkpt>
      <trkpt lat="44.22722" lon="5.39871">
        <ele>1048</ele>
        <time>2026-05-13T16:04:10.000Z</time>
      </trkpt>
      <trkpt lat="44.22722" lon="5.39871">
        <ele>1048</ele>
        <time>2026-05-13T16:04:11.000Z</time>
      </trkpt>
      <trkpt lat="44.22722" lon="5.39871">
        <ele>1048</ele>
        <time>2026-05-13T16:04:12.000Z</time>
      </trkpt>
      <trkpt lat="44.22722" lon="5.39871">
        <ele>1048</ele>
        <time>2026-05-13T16:04:13.000Z</time>
      </trkpt>
      <trkpt lat="44.22722" lon="5.39871">
        <ele>1048</ele>
        <time>2026-05-13T16:04:14.000Z</time>
      </trkpt>
      <trkpt lat="44.22722" lon="5.39871">
        <ele>1048</ele>
        <time>2026-05-13T16:04:15.000Z</time>
      </trkpt>
      <trkpt lat="44.22722" lon="5.39871">
        <ele>1048</ele>
        <time>2026-05-13T16:04:16.000Z</time>
      </trkpt>
      <trkpt lat="44.22722" lon="5.39871">
        <ele>1048</ele>
        <time>2026-05-13T16:04:17.000Z</time>
      </trkpt>
      <trkpt lat="44.22722" lon="5.39871">
        <ele>1048</ele>
        <time>2026-05-13T16:04:18.000Z</time>
      </trkpt>
      <trkpt lat="44.22722" lon="5.39871">
        <ele>1048</ele>
        <time>2026-05-13T16:04:19.000Z</time>
      </trkpt>
      <trkpt lat="44.22722" lon="5.39871">
        <ele>1048</ele>
        <time>2026-05-13T16:04:20.000Z</time>
      </trkpt>
      <trkpt lat="44.22722" lon="5.39871">
        <ele>1048</ele>
        <time>2026-05-13T16:04:21.000Z</time>
      </trkpt>
      <trkpt lat="44.22722" lon="5.39871">
        <ele>1048</ele>
        <time>2026-05-13T16:04:22.000Z</time>
      </trkpt>
      <trkpt lat="44.22722" lon="5.39871">
        <ele>1048</ele>
        <time>2026-05-13T16:04:23.000Z</time>
      </trkpt>
      <trkpt lat="44.22722" lon="5.39871">
        <ele>1048</ele>
        <time>2026-05-13T16:04:24.000Z</time>
      </trkpt>
      <trkpt lat="44.22722" lon="5.39871">
        <ele>1048</ele>
        <time>2026-05-13T16:04:25.000Z</time>
      </trkpt>
      <trkpt lat="44.22722" lon="5.39871">
        <ele>1048</ele>
        <time>2026-05-13T16:04:26.000Z</time>
      </trkpt>
      <trkpt lat="44.22722" lon="5.39871">
        <ele>1048</ele>
        <time>2026-05-13T16:04:27.000Z</time>
      </trkpt>
      <trkpt lat="44.22722" lon="5.39871">
        <ele>1048</ele>
        <time>2026-05-13T16:04:28.000Z</time>
      </trkpt>
      <trkpt lat="44.22722" lon="5.39871">
        <ele>1048</ele>
        <time>2026-05-13T16:04:29.000Z</time>
      </trkpt>
      <trkpt lat="44.22722" lon="5.39871">
        <ele>1048</ele>
        <time>2026-05-13T16:04:30.000Z</time>
      </trkpt>
      <trkpt lat="44.22722" lon="5.39871">
        <ele>1048</ele>
        <time>2026-05-13T16:04:31.000Z</time>
      </trkpt>
      <trkpt lat="44.22722" lon="5.39871">
        <ele>1048</ele>
        <time>2026-05-13T16:04:32.000Z</time>
      </trkpt>
      <trkpt lat="44.22722" lon="5.39871">
        <ele>1048</ele>
        <time>2026-05-13T16:04:33.000Z</time>
      </trkpt>
      <trkpt lat="44.22722" lon="5.39871">
        <ele>1048</ele>
        <time>2026-05-13T16:04:34.000Z</time>
      </trkpt>
      <trkpt lat="44.22722" lon="5.39871">
        <ele>1048</ele>
        <time>2026-05-13T16:04:35.000Z</time>
      </trkpt>
      <trkpt lat="44.22722" lon="5.39871">
        <ele>1048</ele>
        <time>2026-05-13T16:04:36.000Z</time>
      </trkpt>
      <trkpt lat="44.22722" lon="5.39871">
        <ele>1048</ele>
        <time>2026-05-13T16:04:37.000Z</time>
      </trkpt>
      <trkpt lat="44.22722" lon="5.39871">
        <ele>1048</ele>
        <time>2026-05-13T16:04:38.000Z</time>
      </trkpt>
      <trkpt lat="44.22722" lon="5.39871">
        <ele>1048</ele>
        <time>2026-05-13T16:04:39.000Z</time>
      </trkpt>
      <trkpt lat="44.22722" lon="5.39871">
        <ele>1048</ele>
        <time>2026-05-13T16:04:40.000Z</time>
      </trkpt>
      <trkpt lat="44.22722" lon="5.39871">
        <ele>1048</ele>
        <time>2026-05-13T16:04:41.000Z</time>
      </trkpt>
      <trkpt lat="44.22722" lon="5.39871">
        <ele>1048</ele>
        <time>2026-05-13T16:04:42.000Z</time>
      </trkpt>
      <trkpt lat="44.22722" lon="5.39871">
        <ele>1048</ele>
        <time>2026-05-13T16:04:43.000Z</time>
      </trkpt>
      <trkpt lat="44.22722" lon="5.39871">
        <ele>1048</ele>
        <time>2026-05-13T16:04:44.000Z</time>
      </trkpt>
      <trkpt lat="44.22722" lon="5.39871">
        <ele>1048</ele>
        <time>2026-05-13T16:04:45.000Z</time>
      </trkpt>
      <trkpt lat="44.22722" lon="5.39871">
        <ele>1048</ele>
        <time>2026-05-13T16:04:46.000Z</time>
      </trkpt>
      <trkpt lat="44.22722" lon="5.39871">
        <ele>1048</ele>
        <time>2026-05-13T16:04:47.000Z</time>
      </trkpt>
      <trkpt lat="44.22722" lon="5.39871">
        <ele>1048</ele>
        <time>2026-05-13T16:04:48.000Z</time>
      </trkpt>
      <trkpt lat="44.22722" lon="5.39871">
        <ele>1048</ele>
        <time>2026-05-13T16:04:49.000Z</time>
      </trkpt>
      <trkpt lat="44.22722" lon="5.39871">
        <ele>1048</ele>
        <time>2026-05-13T16:04:50.000Z</time>
      </trkpt>
      <trkpt lat="44.22722" lon="5.39871">
        <ele>1048</ele>
        <time>2026-05-13T16:04:51.000Z</time>
      </trkpt>
      <trkpt lat="44.22722" lon="5.39871">
        <ele>1048</ele>
        <time>2026-05-13T16:04:52.000Z</time>
      </trkpt>
      <trkpt lat="44.22722" lon="5.39871">
        <ele>1048</ele>
        <time>2026-05-13T16:04:53.000Z</time>
      </trkpt>
      <trkpt lat="44.22722" lon="5.39871">
        <ele>1048</ele>
        <time>2026-05-13T16:04:54.000Z</time>
      </trkpt>
      <trkpt lat="44.22722" lon="5.39871">
        <ele>1048</ele>
        <time>2026-05-13T16:04:55.000Z</time>
      </trkpt>
      <trkpt lat="44.22722" lon="5.39871">
        <ele>1048</ele>
        <time>2026-05-13T16:04:56.000Z</time>
      </trkpt>
      <trkpt lat="44.22722" lon="5.39871">
        <ele>1048</ele>
        <time>2026-05-13T16:04:57.000Z</time>
      </trkpt>
      <trkpt lat="44.22722" lon="5.39871">
        <ele>1048</ele>
        <time>2026-05-13T16:04:58.000Z</time>
      </trkpt>
      <trkpt lat="44.22722" lon="5.39871">
        <ele>1048</ele>
        <time>2026-05-13T16:04:59.000Z</time>
      </trkpt>
      <trkpt lat="44.22722" lon="5.39871">
        <ele>1048</ele>
        <time>2026-05-13T16:05:00.000Z</time>
      </trkpt>
      <trkpt lat="44.22722" lon="5.39871">
        <ele>1048</ele>
        <time>2026-05-13T16:05:01.000Z</time>
      </trkpt>
      <trkpt lat="44.22722" lon="5.39871">
        <ele>1048</ele>
        <time>2026-05-13T16:05:02.000Z</time>
      </trkpt>
      <trkpt lat="44.22722" lon="5.39871">
        <ele>1048</ele>
        <time>2026-05-13T16:05:03.000Z</time>
      </trkpt>
      <trkpt lat="44.22722" lon="5.39871">
        <ele>1048</ele>
        <time>2026-05-13T16:05:04.000Z</time>
      </trkpt>
      <trkpt lat="44.22722" lon="5.39871">
        <ele>1048</ele>
        <time>2026-05-13T16:05:05.000Z</time>
      </trkpt>
      <trkpt lat="44.22722" lon="5.39871">
        <ele>1048</ele>
        <time>2026-05-13T16:05:06.000Z</time>
      </trkpt>
      <trkpt lat="44.22722" lon="5.39871">
        <ele>1048</ele>
        <time>2026-05-13T16:05:07.000Z</time>
      </trkpt>
      <trkpt lat="44.22722" lon="5.39871">
        <ele>1048</ele>
        <time>2026-05-13T16:05:08.000Z</time>
      </trkpt>
      <trkpt lat="44.22722" lon="5.39871">
        <ele>1048</ele>
        <time>2026-05-13T16:05:09.000Z</time>
      </trkpt>
      <trkpt lat="44.22722" lon="5.39871">
        <ele>1048</ele>
        <time>2026-05-13T16:05:10.000Z</time>
      </trkpt>
      <trkpt lat="44.22722" lon="5.39871">
        <ele>1048</ele>
        <time>2026-05-13T16:05:11.000Z</time>
      </trkpt>
      <trkpt lat="44.22722" lon="5.39871">
        <ele>1048</ele>
        <time>2026-05-13T16:05:12.000Z</time>
      </trkpt>
      <trkpt lat="44.22722" lon="5.39871">
        <ele>1048</ele>
        <time>2026-05-13T16:05:13.000Z</time>
      </trkpt>
      <trkpt lat="44.22722" lon="5.39871">
        <ele>1048</ele>
        <time>2026-05-13T16:05:14.000Z</time>
      </trkpt>
      <trkpt lat="44.22722" lon="5.39871">
        <ele>1048</ele>
        <time>2026-05-13T16:05:15.000Z</time>
      </trkpt>
      <trkpt lat="44.22722" lon="5.39871">
        <ele>1048</ele>
        <time>2026-05-13T16:05:16.000Z</time>
      </trkpt>
      <trkpt lat="44.22722" lon="5.39871">
        <ele>1048</ele>
        <time>2026-05-13T16:05:17.000Z</time>
      </trkpt>
      <trkpt lat="44.22722" lon="5.39871">
        <ele>1048</ele>
        <time>2026-05-13T16:05:18.000Z</time>
      </trkpt>
      <trkpt lat="44.22722" lon="5.39871">
        <ele>1048</ele>
        <time>2026-05-13T16:05:19.000Z</time>
      </trkpt>
      <trkpt lat="44.22722" lon="5.39871">
        <ele>1048</ele>
        <time>2026-05-13T16:05:20.000Z</time>
      </trkpt>
      <trkpt lat="44.22722" lon="5.39871">
        <ele>1048</ele>
        <time>2026-05-13T16:05:21.000Z</time>
      </trkpt>
      <trkpt lat="44.22722" lon="5.39871">
        <ele>1048</ele>
        <time>2026-05-13T16:05:22.000Z</time>
      </trkpt>
      <trkpt lat="44.22722" lon="5.39871">
        <ele>1048</ele>
        <time>2026-05-13T16:05:23.000Z</time>
      </trkpt>
      <trkpt lat="44.22722" lon="5.39871">
        <ele>1048</ele>
        <time>2026-05-13T16:05:24.000Z</time>
      </trkpt>
      <trkpt lat="44.22722" lon="5.39871">
        <ele>1048</ele>
        <time>2026-05-13T16:05:25.000Z</time>
      </trkpt>
      <trkpt lat="44.22722" lon="5.39871">
        <ele>1048</ele>
        <time>2026-05-13T16:05:26.000Z</time>
      </trkpt>
      <trkpt lat="44.22722" lon="5.39871">
        <ele>1048</ele>
        <time>2026-05-13T16:05:27.000Z</time>
      </trkpt>
      <trkpt lat="44.22722" lon="5.39871">
        <ele>1048</ele>
        <time>2026-05-13T16:05:28.000Z</time>
      </trkpt>
      <trkpt lat="44.22722" lon="5.39871">
        <ele>1048</ele>
        <time>2026-05-13T16:05:29.000Z</time>
      </trkpt>
      <trkpt lat="44.22722" lon="5.39871">
        <ele>1048</ele>
        <time>2026-05-13T16:05:30.000Z</time>
      </trkpt>
      <trkpt lat="44.22722" lon="5.39871">
        <ele>1048</ele>
        <time>2026-05-13T16:05:31.000Z</time>
      </trkpt>
      <trkpt lat="44.22722" lon="5.39871">
        <ele>1048</ele>
        <time>2026-05-13T16:05:32.000Z</time>
      </trkpt>
      <trkpt lat="44.22722" lon="5.39871">
        <ele>1048</ele>
        <time>2026-05-13T16:05:33.000Z</time>
      </trkpt>
      <trkpt lat="44.22722" lon="5.39871">
        <ele>1048</ele>
        <time>2026-05-13T16:05:34.000Z</time>
      </trkpt>
      <trkpt lat="44.22722" lon="5.39871">
        <ele>1048</ele>
        <time>2026-05-13T16:05:35.000Z</time>
      </trkpt>
      <trkpt lat="44.22722" lon="5.39871">
        <ele>1048</ele>
        <time>2026-05-13T16:05:36.000Z</time>
      </trkpt>
      <trkpt lat="44.22722" lon="5.39871">
        <ele>1048</ele>
        <time>2026-05-13T16:05:37.000Z</time>
      </trkpt>
      <trkpt lat="44.22722" lon="5.39871">
        <ele>1048</ele>
        <time>2026-05-13T16:05:38.000Z</time>
      </trkpt>
      <trkpt lat="44.22722" lon="5.39871">
        <ele>1048</ele>
        <time>2026-05-13T16:05:39.000Z</time>
      </trkpt>
      <trkpt lat="44.22722" lon="5.39871">
        <ele>1048</ele>
        <time>2026-05-13T16:05:40.000Z</time>
      </trkpt>
      <trkpt lat="44.22722" lon="5.39871">
        <ele>1048</ele>
        <time>2026-05-13T16:05:41.000Z</time>
      </trkpt>
      <trkpt lat="44.22722" lon="5.39871">
        <ele>1048</ele>
        <time>2026-05-13T16:05:42.000Z</time>
      </trkpt>
      <trkpt lat="44.22722" lon="5.39871">
        <ele>1048</ele>
        <time>2026-05-13T16:05:43.000Z</time>
      </trkpt>
      <trkpt lat="44.22722" lon="5.39871">
        <ele>1048</ele>
        <time>2026-05-13T16:05:44.000Z</time>
      </trkpt>
      <trkpt lat="44.22722" lon="5.39871">
        <ele>1048</ele>
        <time>2026-05-13T16:05:45.000Z</time>
      </trkpt>
      <trkpt lat="44.22722" lon="5.39871">
        <ele>1048</ele>
        <time>2026-05-13T16:05:46.000Z</time>
      </trkpt>
      <trkpt lat="44.22722" lon="5.39871">
        <ele>1048</ele>
        <time>2026-05-13T16:05:47.000Z</time>
      </trkpt>
      <trkpt lat="44.22722" lon="5.39871">
        <ele>1048</ele>
        <time>2026-05-13T16:05:48.000Z</time>
      </trkpt>
      <trkpt lat="44.22722" lon="5.39871">
        <ele>1048</ele>
        <time>2026-05-13T16:05:49.000Z</time>
      </trkpt>
      <trkpt lat="44.22722" lon="5.39871">
        <ele>1048</ele>
        <time>2026-05-13T16:05:50.000Z</time>
      </trkpt>
      <trkpt lat="44.22722" lon="5.39871">
        <ele>1048</ele>
        <time>2026-05-13T16:05:51.000Z</time>
      </trkpt>
      <trkpt lat="44.22722" lon="5.39871">
        <ele>1048</ele>
        <time>2026-05-13T16:05:52.000Z</time>
      </trkpt>
      <trkpt lat="44.22722" lon="5.39871">
        <ele>1048</ele>
        <time>2026-05-13T16:05:53.000Z</time>
      </trkpt>
      <trkpt lat="44.22722" lon="5.39871">
        <ele>1048</ele>
        <time>2026-05-13T16:05:54.000Z</time>
      </trkpt>
      <trkpt lat="44.22722" lon="5.39871">
        <ele>1048</ele>
        <time>2026-05-13T16:05:55.000Z</time>
      </trkpt>
      <trkpt lat="44.22722" lon="5.39871">
        <ele>1048</ele>
        <time>2026-05-13T16:05:56.000Z</time>
      </trkpt>
      <trkpt lat="44.22722" lon="5.39871">
        <ele>1048</ele>
        <time>2026-05-13T16:05:57.000Z</time>
      </trkpt>
      <trkpt lat="44.22722" lon="5.39871">
        <ele>1048</ele>
        <time>2026-05-13T16:05:58.000Z</time>
      </trkpt>
      <trkpt lat="44.22722" lon="5.39871">
        <ele>1048</ele>
        <time>2026-05-13T16:05:59.000Z</time>
      </trkpt>
      <trkpt lat="44.22722" lon="5.39871">
        <ele>1048</ele>
        <time>2026-05-13T16:06:00.000Z</time>
      </trkpt>
      <trkpt lat="44.22722" lon="5.39871">
        <ele>1048</ele>
        <time>2026-05-13T16:06:01.000Z</time>
      </trkpt>
      <trkpt lat="44.22722" lon="5.39871">
        <ele>1048</ele>
        <time>2026-05-13T16:06:02.000Z</time>
      </trkpt>
      <trkpt lat="44.22722" lon="5.39871">
        <ele>1048</ele>
        <time>2026-05-13T16:06:03.000Z</time>
      </trkpt>
      <trkpt lat="44.22722" lon="5.39871">
        <ele>1048</ele>
        <time>2026-05-13T16:06:04.000Z</time>
      </trkpt>
      <trkpt lat="44.22722" lon="5.39871">
        <ele>1048</ele>
        <time>2026-05-13T16:06:05.000Z</time>
      </trkpt>
      <trkpt lat="44.22722" lon="5.39871">
        <ele>1048</ele>
        <time>2026-05-13T16:06:06.000Z</time>
      </trkpt>
      <trkpt lat="44.22722" lon="5.39871">
        <ele>1049</ele>
        <time>2026-05-13T16:06:07.000Z</time>
      </trkpt>
      <trkpt lat="44.22722" lon="5.39871">
        <ele>1049</ele>
        <time>2026-05-13T16:06:08.000Z</time>
      </trkpt>
      <trkpt lat="44.22722" lon="5.39871">
        <ele>1049</ele>
        <time>2026-05-13T16:06:09.000Z</time>
      </trkpt>
      <trkpt lat="44.22722" lon="5.39871">
        <ele>1049</ele>
        <time>2026-05-13T16:06:10.000Z</time>
      </trkpt>
      <trkpt lat="44.22722" lon="5.39871">
        <ele>1049</ele>
        <time>2026-05-13T16:06:11.000Z</time>
      </trkpt>
      <trkpt lat="44.22722" lon="5.39871">
        <ele>1049</ele>
        <time>2026-05-13T16:06:12.000Z</time>
      </trkpt>
      <trkpt lat="44.22722" lon="5.39871">
        <ele>1049</ele>
        <time>2026-05-13T16:06:13.000Z</time>
      </trkpt>
      <trkpt lat="44.22722" lon="5.39871">
        <ele>1049</ele>
        <time>2026-05-13T16:06:14.000Z</time>
      </trkpt>
      <trkpt lat="44.22722" lon="5.39871">
        <ele>1049</ele>
        <time>2026-05-13T16:06:15.000Z</time>
      </trkpt>
      <trkpt lat="44.22722" lon="5.39871">
        <ele>1049</ele>
        <time>2026-05-13T16:06:16.000Z</time>
      </trkpt>
      <trkpt lat="44.22722" lon="5.39871">
        <ele>1049</ele>
        <time>2026-05-13T16:06:17.000Z</time>
      </trkpt>
      <trkpt lat="44.22722" lon="5.39871">
        <ele>1049</ele>
        <time>2026-05-13T16:06:18.000Z</time>
      </trkpt>
    </trkseg>
  </trk>
</gpx>